<?xml version='1.0' encoding='UTF-8'?><gpx version="1.1" creator="JPX - https://github.com/jenetics/jpx" xmlns="http://www.topografix.com/GPX/1/1"><trk><trkseg><trkpt lat="42.3536356" lon="13.4023927"><ele>735.0</ele><time>2026-05-03T06:52:33.557Z</time></trkpt><trkpt lat="42.3536483" lon="13.4024939"><ele>735.0</ele><time>2026-05-03T06:52:37.551Z</time></trkpt><trkpt lat="42.3537184" lon="13.4025933"><ele>735.0</ele><time>2026-05-03T06:52:53.54Z</time></trkpt><trkpt lat="42.3536709" lon="13.402505"><ele>735.0</ele><time>2026-05-03T06:53:16.337Z</time></trkpt><trkpt lat="42.3536233" lon="13.4024356"><ele>735.0</ele><time>2026-05-03T06:53:23.322Z</time></trkpt><trkpt lat="42.3536826" lon="13.4023694"><ele>735.0</ele><time>2026-05-03T06:53:27.349Z</time></trkpt><trkpt lat="42.3537218" lon="13.4022893"><ele>735.0</ele><time>2026-05-03T06:53:39.337Z</time></trkpt><trkpt lat="42.3537054" lon="13.4022068"><ele>735.0</ele><time>2026-05-03T06:53:47.319Z</time></trkpt><trkpt lat="42.3536844" lon="13.4021008"><ele>735.0</ele><time>2026-05-03T06:53:50.321Z</time></trkpt><trkpt lat="42.3536748" lon="13.4020114"><ele>735.0</ele><time>2026-05-03T06:53:52.322Z</time></trkpt><trkpt lat="42.3536712" lon="13.4019014"><ele>735.0</ele><time>2026-05-03T06:53:54.322Z</time></trkpt><trkpt lat="42.3536725" lon="13.4018121"><ele>735.0</ele><time>2026-05-03T06:53:56.321Z</time></trkpt><trkpt lat="42.3537463" lon="13.4017187"><ele>734.8</ele><time>2026-05-03T06:53:58.33Z</time></trkpt><trkpt lat="42.3538256" lon="13.4016417"><ele>734.6</ele><time>2026-05-03T06:54:00.312Z</time></trkpt><trkpt lat="42.3539336" lon="13.4015869"><ele>734.4000000000001</ele><time>2026-05-03T06:54:02.313Z</time></trkpt><trkpt lat="42.35403" lon="13.4016366"><ele>734.2</ele><time>2026-05-03T06:54:04.316Z</time></trkpt><trkpt lat="42.3540858" lon="13.4016976"><ele>734.0</ele><time>2026-05-03T06:54:05.296Z</time></trkpt><trkpt lat="42.3541413" lon="13.4017458"><ele>733.4000000000001</ele><time>2026-05-03T06:54:06.303Z</time></trkpt><trkpt lat="42.3542188" lon="13.4018252"><ele>732.8</ele><time>2026-05-03T06:54:07.307Z</time></trkpt><trkpt lat="42.3543003" lon="13.4019253"><ele>732.2</ele><time>2026-05-03T06:54:08.303Z</time></trkpt><trkpt lat="42.3543747" lon="13.4020351"><ele>731.5999999999999</ele><time>2026-05-03T06:54:09.306Z</time></trkpt><trkpt lat="42.354447" lon="13.4021538"><ele>731.0</ele><time>2026-05-03T06:54:10.308Z</time></trkpt><trkpt lat="42.3545199" lon="13.4022602"><ele>731.0</ele><time>2026-05-03T06:54:11.318Z</time></trkpt><trkpt lat="42.3545896" lon="13.4023609"><ele>731.0</ele><time>2026-05-03T06:54:12.31Z</time></trkpt><trkpt lat="42.3546545" lon="13.4024505"><ele>731.0</ele><time>2026-05-03T06:54:13.303Z</time></trkpt><trkpt lat="42.3547191" lon="13.4025314"><ele>731.0</ele><time>2026-05-03T06:54:14.305Z</time></trkpt><trkpt lat="42.3547841" lon="13.4026054"><ele>731.0</ele><time>2026-05-03T06:54:15.306Z</time></trkpt><trkpt lat="42.3548586" lon="13.4026846"><ele>729.4</ele><time>2026-05-03T06:54:16.311Z</time></trkpt><trkpt lat="42.3549302" lon="13.4027735"><ele>727.8</ele><time>2026-05-03T06:54:17.306Z</time></trkpt><trkpt lat="42.3550095" lon="13.4028694"><ele>726.1999999999999</ele><time>2026-05-03T06:54:18.304Z</time></trkpt><trkpt lat="42.3550789" lon="13.4029667"><ele>724.5999999999999</ele><time>2026-05-03T06:54:19.308Z</time></trkpt><trkpt lat="42.3551467" lon="13.4030638"><ele>723.0</ele><time>2026-05-03T06:54:20.311Z</time></trkpt><trkpt lat="42.3552029" lon="13.4031807"><ele>723.0</ele><time>2026-05-03T06:54:21.31Z</time></trkpt><trkpt lat="42.3552397" lon="13.4033209"><ele>723.0</ele><time>2026-05-03T06:54:22.311Z</time></trkpt><trkpt lat="42.3552904" lon="13.4034529"><ele>723.0</ele><time>2026-05-03T06:54:23.306Z</time></trkpt><trkpt lat="42.3553446" lon="13.4036023"><ele>723.0</ele><time>2026-05-03T06:54:24.315Z</time></trkpt><trkpt lat="42.3553904" lon="13.4037602"><ele>724.4</ele><time>2026-05-03T06:54:25.315Z</time></trkpt><trkpt lat="42.3554235" lon="13.4039242"><ele>725.8</ele><time>2026-05-03T06:54:26.313Z</time></trkpt><trkpt lat="42.3554538" lon="13.4040625"><ele>727.2</ele><time>2026-05-03T06:54:27.333Z</time></trkpt><trkpt lat="42.3554748" lon="13.4041926"><ele>728.6</ele><time>2026-05-03T06:54:28.323Z</time></trkpt><trkpt lat="42.3555059" lon="13.4043234"><ele>730.0</ele><time>2026-05-03T06:54:29.334Z</time></trkpt><trkpt lat="42.3555393" lon="13.4044607"><ele>726.8333333333334</ele><time>2026-05-03T06:54:30.317Z</time></trkpt><trkpt lat="42.3555678" lon="13.4045897"><ele>723.6666666666667</ele><time>2026-05-03T06:54:31.327Z</time></trkpt><trkpt lat="42.3555909" lon="13.4047057"><ele>720.5</ele><time>2026-05-03T06:54:32.311Z</time></trkpt><trkpt lat="42.3556048" lon="13.4047988"><ele>717.3333333333334</ele><time>2026-05-03T06:54:33.301Z</time></trkpt><trkpt lat="42.3555925" lon="13.404934"><ele>714.1666666666666</ele><time>2026-05-03T06:54:35.313Z</time></trkpt><trkpt lat="42.3555556" lon="13.405004"><ele>711.0</ele><time>2026-05-03T06:54:37.314Z</time></trkpt><trkpt lat="42.3555901" lon="13.4050781"><ele>711.0</ele><time>2026-05-03T06:54:44.33Z</time></trkpt><trkpt lat="42.3556369" lon="13.4051362"><ele>711.0</ele><time>2026-05-03T06:58:05.35Z</time></trkpt><trkpt lat="42.3556722" lon="13.4052165"><ele>711.0</ele><time>2026-05-03T07:01:21.329Z</time></trkpt><trkpt lat="42.3556974" lon="13.4053064"><ele>711.0</ele><time>2026-05-03T07:01:25.329Z</time></trkpt><trkpt lat="42.3557151" lon="13.405415"><ele>711.0</ele><time>2026-05-03T07:01:27.338Z</time></trkpt><trkpt lat="42.3557366" lon="13.4055597"><ele>711.0</ele><time>2026-05-03T07:01:29.34Z</time></trkpt><trkpt lat="42.3557513" lon="13.4056991"><ele>711.1999999999999</ele><time>2026-05-03T07:01:31.335Z</time></trkpt><trkpt lat="42.3557309" lon="13.4057945"><ele>711.4</ele><time>2026-05-03T07:01:33.326Z</time></trkpt><trkpt lat="42.355728" lon="13.4058899"><ele>711.6</ele><time>2026-05-03T07:01:35.321Z</time></trkpt><trkpt lat="42.3557427" lon="13.4060628"><ele>711.8</ele><time>2026-05-03T07:01:37.327Z</time></trkpt><trkpt lat="42.355778" lon="13.406178"><ele>712.0</ele><time>2026-05-03T07:01:38.32Z</time></trkpt><trkpt lat="42.3558066" lon="13.4063065"><ele>712.0</ele><time>2026-05-03T07:01:39.323Z</time></trkpt><trkpt lat="42.3558006" lon="13.4064336"><ele>712.0</ele><time>2026-05-03T07:01:40.329Z</time></trkpt><trkpt lat="42.3557656" lon="13.4065568"><ele>712.0</ele><time>2026-05-03T07:01:41.329Z</time></trkpt><trkpt lat="42.355712" lon="13.4066703"><ele>712.0</ele><time>2026-05-03T07:01:42.332Z</time></trkpt><trkpt lat="42.355654" lon="13.4067552"><ele>712.0</ele><time>2026-05-03T07:01:43.32Z</time></trkpt><trkpt lat="42.3556043" lon="13.406824"><ele>712.0</ele><time>2026-05-03T07:01:44.331Z</time></trkpt><trkpt lat="42.3555483" lon="13.40689"><ele>712.0</ele><time>2026-05-03T07:01:45.322Z</time></trkpt><trkpt lat="42.3554716" lon="13.4069386"><ele>712.0</ele><time>2026-05-03T07:01:46.328Z</time></trkpt><trkpt lat="42.3553874" lon="13.4069765"><ele>712.0</ele><time>2026-05-03T07:01:47.328Z</time></trkpt><trkpt lat="42.3553157" lon="13.4070333"><ele>712.0</ele><time>2026-05-03T07:01:48.317Z</time></trkpt><trkpt lat="42.3552516" lon="13.4071209"><ele>712.0</ele><time>2026-05-03T07:01:49.327Z</time></trkpt><trkpt lat="42.3552054" lon="13.4072169"><ele>712.0</ele><time>2026-05-03T07:01:50.325Z</time></trkpt><trkpt lat="42.355166" lon="13.4073091"><ele>712.0</ele><time>2026-05-03T07:01:51.325Z</time></trkpt><trkpt lat="42.3551217" lon="13.4074028"><ele>712.0</ele><time>2026-05-03T07:01:52.326Z</time></trkpt><trkpt lat="42.3550617" lon="13.4075155"><ele>712.0</ele><time>2026-05-03T07:01:53.328Z</time></trkpt><trkpt lat="42.3549991" lon="13.4076278"><ele>712.0</ele><time>2026-05-03T07:01:54.32Z</time></trkpt><trkpt lat="42.3549384" lon="13.4077532"><ele>712.0</ele><time>2026-05-03T07:01:55.323Z</time></trkpt><trkpt lat="42.354876" lon="13.4078856"><ele>711.75</ele><time>2026-05-03T07:01:56.331Z</time></trkpt><trkpt lat="42.3548122" lon="13.4080278"><ele>711.5</ele><time>2026-05-03T07:01:57.326Z</time></trkpt><trkpt lat="42.3547464" lon="13.4081666"><ele>711.25</ele><time>2026-05-03T07:01:58.332Z</time></trkpt><trkpt lat="42.3546785" lon="13.408312"><ele>711.0</ele><time>2026-05-03T07:01:59.33Z</time></trkpt><trkpt lat="42.3546098" lon="13.4084593"><ele>711.75</ele><time>2026-05-03T07:02:00.328Z</time></trkpt><trkpt lat="42.3545372" lon="13.4085989"><ele>712.5</ele><time>2026-05-03T07:02:01.335Z</time></trkpt><trkpt lat="42.3544564" lon="13.4087324"><ele>713.25</ele><time>2026-05-03T07:02:02.329Z</time></trkpt><trkpt lat="42.3543733" lon="13.4088642"><ele>714.0</ele><time>2026-05-03T07:02:03.34Z</time></trkpt><trkpt lat="42.3542899" lon="13.4089994"><ele>714.0</ele><time>2026-05-03T07:02:04.336Z</time></trkpt><trkpt lat="42.3542041" lon="13.4091313"><ele>714.0</ele><time>2026-05-03T07:02:05.332Z</time></trkpt><trkpt lat="42.354117" lon="13.4092497"><ele>714.0</ele><time>2026-05-03T07:02:06.331Z</time></trkpt><trkpt lat="42.3540426" lon="13.4093547"><ele>714.0</ele><time>2026-05-03T07:02:07.325Z</time></trkpt><trkpt lat="42.3539812" lon="13.4094488"><ele>714.0</ele><time>2026-05-03T07:02:08.334Z</time></trkpt><trkpt lat="42.3539215" lon="13.4095343"><ele>714.0</ele><time>2026-05-03T07:02:09.33Z</time></trkpt><trkpt lat="42.3538615" lon="13.4096208"><ele>714.0</ele><time>2026-05-03T07:02:10.334Z</time></trkpt><trkpt lat="42.3537994" lon="13.409715"><ele>714.0</ele><time>2026-05-03T07:02:11.327Z</time></trkpt><trkpt lat="42.3537352" lon="13.4098154"><ele>714.0</ele><time>2026-05-03T07:02:12.333Z</time></trkpt><trkpt lat="42.3536626" lon="13.409932"><ele>713.75</ele><time>2026-05-03T07:02:13.341Z</time></trkpt><trkpt lat="42.3535806" lon="13.4100493"><ele>713.5</ele><time>2026-05-03T07:02:14.321Z</time></trkpt><trkpt lat="42.3534919" lon="13.4101643"><ele>713.25</ele><time>2026-05-03T07:02:15.329Z</time></trkpt><trkpt lat="42.3534016" lon="13.4102868"><ele>713.0</ele><time>2026-05-03T07:02:16.326Z</time></trkpt><trkpt lat="42.3533083" lon="13.4104193"><ele>713.25</ele><time>2026-05-03T07:02:17.33Z</time></trkpt><trkpt lat="42.3532136" lon="13.4105599"><ele>713.5</ele><time>2026-05-03T07:02:18.329Z</time></trkpt><trkpt lat="42.3531204" lon="13.4107061"><ele>713.75</ele><time>2026-05-03T07:02:19.328Z</time></trkpt><trkpt lat="42.3530183" lon="13.4108595"><ele>714.0</ele><time>2026-05-03T07:02:20.335Z</time></trkpt><trkpt lat="42.3529156" lon="13.4110041"><ele>714.0</ele><time>2026-05-03T07:02:21.328Z</time></trkpt><trkpt lat="42.3528151" lon="13.4111563"><ele>714.0</ele><time>2026-05-03T07:02:22.332Z</time></trkpt><trkpt lat="42.3527289" lon="13.4112892"><ele>714.0</ele><time>2026-05-03T07:02:23.337Z</time></trkpt><trkpt lat="42.3526534" lon="13.4114157"><ele>714.0</ele><time>2026-05-03T07:02:24.337Z</time></trkpt><trkpt lat="42.3525917" lon="13.411526"><ele>714.4000000000001</ele><time>2026-05-03T07:02:25.326Z</time></trkpt><trkpt lat="42.3525174" lon="13.4116182"><ele>714.8</ele><time>2026-05-03T07:02:26.332Z</time></trkpt><trkpt lat="42.3524666" lon="13.4117055"><ele>715.2</ele><time>2026-05-03T07:02:27.328Z</time></trkpt><trkpt lat="42.3523798" lon="13.4118194"><ele>715.5999999999999</ele><time>2026-05-03T07:02:29.333Z</time></trkpt><trkpt lat="42.3522924" lon="13.4119507"><ele>716.0</ele><time>2026-05-03T07:02:31.325Z</time></trkpt><trkpt lat="42.3522352" lon="13.4120473"><ele>715.8</ele><time>2026-05-03T07:02:32.326Z</time></trkpt><trkpt lat="42.3521799" lon="13.4121464"><ele>715.5999999999999</ele><time>2026-05-03T07:02:33.332Z</time></trkpt><trkpt lat="42.3521223" lon="13.4122518"><ele>715.4</ele><time>2026-05-03T07:02:34.333Z</time></trkpt><trkpt lat="42.3520569" lon="13.4123823"><ele>715.2</ele><time>2026-05-03T07:02:35.334Z</time></trkpt><trkpt lat="42.3520044" lon="13.4125216"><ele>715.0</ele><time>2026-05-03T07:02:36.326Z</time></trkpt><trkpt lat="42.3519937" lon="13.4126584"><ele>715.0</ele><time>2026-05-03T07:02:37.335Z</time></trkpt><trkpt lat="42.3520002" lon="13.4127708"><ele>715.0</ele><time>2026-05-03T07:02:38.337Z</time></trkpt><trkpt lat="42.3520134" lon="13.4128742"><ele>715.0</ele><time>2026-05-03T07:02:39.332Z</time></trkpt><trkpt lat="42.3520377" lon="13.4129907"><ele>715.0</ele><time>2026-05-03T07:02:40.335Z</time></trkpt><trkpt lat="42.3520751" lon="13.4131269"><ele>715.0</ele><time>2026-05-03T07:02:41.336Z</time></trkpt><trkpt lat="42.3521245" lon="13.413267"><ele>715.5</ele><time>2026-05-03T07:02:42.336Z</time></trkpt><trkpt lat="42.3521778" lon="13.4134099"><ele>716.0</ele><time>2026-05-03T07:02:43.33Z</time></trkpt><trkpt lat="42.352248" lon="13.4135459"><ele>716.5</ele><time>2026-05-03T07:02:44.35Z</time></trkpt><trkpt lat="42.3523231" lon="13.4136952"><ele>717.0</ele><time>2026-05-03T07:02:45.33Z</time></trkpt><trkpt lat="42.3523987" lon="13.4138741"><ele>718.0</ele><time>2026-05-03T07:02:46.324Z</time></trkpt><trkpt lat="42.3524608" lon="13.4140655"><ele>719.0</ele><time>2026-05-03T07:02:47.324Z</time></trkpt><trkpt lat="42.3525042" lon="13.4142676"><ele>720.0</ele><time>2026-05-03T07:02:48.324Z</time></trkpt><trkpt lat="42.3524922" lon="13.414479"><ele>720.25</ele><time>2026-05-03T07:02:49.321Z</time></trkpt><trkpt lat="42.3524753" lon="13.4146748"><ele>720.5</ele><time>2026-05-03T07:02:50.325Z</time></trkpt><trkpt lat="42.3524367" lon="13.4148705"><ele>720.75</ele><time>2026-05-03T07:02:51.321Z</time></trkpt><trkpt lat="42.3523716" lon="13.4150465"><ele>721.0</ele><time>2026-05-03T07:02:52.323Z</time></trkpt><trkpt lat="42.3522947" lon="13.4152247"><ele>721.0</ele><time>2026-05-03T07:02:53.329Z</time></trkpt><trkpt lat="42.3522107" lon="13.415395"><ele>721.0</ele><time>2026-05-03T07:02:54.329Z</time></trkpt><trkpt lat="42.3521265" lon="13.4155781"><ele>721.0</ele><time>2026-05-03T07:02:55.331Z</time></trkpt><trkpt lat="42.3520294" lon="13.4157515"><ele>722.0</ele><time>2026-05-03T07:02:56.329Z</time></trkpt><trkpt lat="42.3519368" lon="13.4159208"><ele>723.0</ele><time>2026-05-03T07:02:57.323Z</time></trkpt><trkpt lat="42.3518338" lon="13.4160846"><ele>724.0</ele><time>2026-05-03T07:02:58.314Z</time></trkpt><trkpt lat="42.3517656" lon="13.4162672"><ele>724.75</ele><time>2026-05-03T07:02:59.323Z</time></trkpt><trkpt lat="42.3517202" lon="13.4164547"><ele>725.5</ele><time>2026-05-03T07:03:00.322Z</time></trkpt><trkpt lat="42.3516917" lon="13.4166482"><ele>726.25</ele><time>2026-05-03T07:03:01.326Z</time></trkpt><trkpt lat="42.3516797" lon="13.4168512"><ele>727.0</ele><time>2026-05-03T07:03:02.32Z</time></trkpt><trkpt lat="42.3516735" lon="13.4170622"><ele>728.0</ele><time>2026-05-03T07:03:03.322Z</time></trkpt><trkpt lat="42.3516682" lon="13.4172751"><ele>729.0</ele><time>2026-05-03T07:03:04.332Z</time></trkpt><trkpt lat="42.3516526" lon="13.4174843"><ele>730.0</ele><time>2026-05-03T07:03:05.333Z</time></trkpt><trkpt lat="42.3516353" lon="13.4176877"><ele>730.0</ele><time>2026-05-03T07:03:06.337Z</time></trkpt><trkpt lat="42.3516384" lon="13.4178849"><ele>730.0</ele><time>2026-05-03T07:03:07.337Z</time></trkpt><trkpt lat="42.3516564" lon="13.4180756"><ele>730.0</ele><time>2026-05-03T07:03:08.332Z</time></trkpt><trkpt lat="42.3516869" lon="13.4182546"><ele>730.0</ele><time>2026-05-03T07:03:09.332Z</time></trkpt><trkpt lat="42.3517482" lon="13.4184047"><ele>730.0</ele><time>2026-05-03T07:03:10.338Z</time></trkpt><trkpt lat="42.3518241" lon="13.4185352"><ele>730.0</ele><time>2026-05-03T07:03:11.325Z</time></trkpt><trkpt lat="42.3518956" lon="13.4186461"><ele>730.0</ele><time>2026-05-03T07:03:12.328Z</time></trkpt><trkpt lat="42.3519552" lon="13.418742"><ele>730.0</ele><time>2026-05-03T07:03:13.329Z</time></trkpt><trkpt lat="42.3519937" lon="13.4188426"><ele>730.0</ele><time>2026-05-03T07:03:14.332Z</time></trkpt><trkpt lat="42.3520127" lon="13.4189404"><ele>730.1666666666667</ele><time>2026-05-03T07:03:15.348Z</time></trkpt><trkpt lat="42.3520374" lon="13.4190448"><ele>730.3333333333334</ele><time>2026-05-03T07:03:16.328Z</time></trkpt><trkpt lat="42.3520904" lon="13.4191456"><ele>730.5</ele><time>2026-05-03T07:03:17.329Z</time></trkpt><trkpt lat="42.3521374" lon="13.4192207"><ele>730.6666666666666</ele><time>2026-05-03T07:03:18.338Z</time></trkpt><trkpt lat="42.3522314" lon="13.4192182"><ele>730.8333333333333</ele><time>2026-05-03T07:03:20.328Z</time></trkpt><trkpt lat="42.3522848" lon="13.4191607"><ele>731.0</ele><time>2026-05-03T07:03:22.334Z</time></trkpt><trkpt lat="42.3523061" lon="13.4190245"><ele>731.0</ele><time>2026-05-03T07:03:24.332Z</time></trkpt><trkpt lat="42.3522974" lon="13.4189198"><ele>731.0</ele><time>2026-05-03T07:03:25.331Z</time></trkpt><trkpt lat="42.3522528" lon="13.4188453"><ele>731.0</ele><time>2026-05-03T07:03:26.322Z</time></trkpt><trkpt lat="42.3521892" lon="13.418801"><ele>731.0</ele><time>2026-05-03T07:03:27.335Z</time></trkpt><trkpt lat="42.352121" lon="13.418785"><ele>731.0</ele><time>2026-05-03T07:03:28.331Z</time></trkpt><trkpt lat="42.35205" lon="13.4188143"><ele>731.0</ele><time>2026-05-03T07:03:29.323Z</time></trkpt><trkpt lat="42.3519964" lon="13.4188766"><ele>731.0</ele><time>2026-05-03T07:03:30.322Z</time></trkpt><trkpt lat="42.3519546" lon="13.4189412"><ele>731.0</ele><time>2026-05-03T07:03:31.33Z</time></trkpt><trkpt lat="42.3519079" lon="13.4190238"><ele>731.0</ele><time>2026-05-03T07:03:32.326Z</time></trkpt><trkpt lat="42.3518876" lon="13.4191179"><ele>731.0</ele><time>2026-05-03T07:03:33.337Z</time></trkpt><trkpt lat="42.3518825" lon="13.4192871"><ele>731.0</ele><time>2026-05-03T07:03:35.333Z</time></trkpt><trkpt lat="42.351908" lon="13.4193859"><ele>731.0</ele><time>2026-05-03T07:03:36.344Z</time></trkpt><trkpt lat="42.3519654" lon="13.4194828"><ele>731.0</ele><time>2026-05-03T07:03:37.33Z</time></trkpt><trkpt lat="42.3520357" lon="13.4195944"><ele>731.5</ele><time>2026-05-03T07:03:38.346Z</time></trkpt><trkpt lat="42.352117" lon="13.4197188"><ele>732.0</ele><time>2026-05-03T07:03:39.34Z</time></trkpt><trkpt lat="42.3521823" lon="13.4198485"><ele>732.5</ele><time>2026-05-03T07:03:40.329Z</time></trkpt><trkpt lat="42.3522203" lon="13.4199961"><ele>733.0</ele><time>2026-05-03T07:03:41.335Z</time></trkpt><trkpt lat="42.3522232" lon="13.4201675"><ele>733.0</ele><time>2026-05-03T07:03:42.328Z</time></trkpt><trkpt lat="42.3522076" lon="13.4203341"><ele>733.0</ele><time>2026-05-03T07:03:43.33Z</time></trkpt><trkpt lat="42.3521988" lon="13.420473"><ele>733.0</ele><time>2026-05-03T07:03:44.32Z</time></trkpt><trkpt lat="42.3522043" lon="13.4205974"><ele>733.0</ele><time>2026-05-03T07:03:45.32Z</time></trkpt><trkpt lat="42.3522266" lon="13.4207115"><ele>733.0</ele><time>2026-05-03T07:03:46.346Z</time></trkpt><trkpt lat="42.3522543" lon="13.4208225"><ele>734.5999999999999</ele><time>2026-05-03T07:03:47.325Z</time></trkpt><trkpt lat="42.3522837" lon="13.4209452"><ele>736.1999999999999</ele><time>2026-05-03T07:03:48.33Z</time></trkpt><trkpt lat="42.352321" lon="13.4210699"><ele>737.8</ele><time>2026-05-03T07:03:49.327Z</time></trkpt><trkpt lat="42.3523543" lon="13.4211845"><ele>739.4</ele><time>2026-05-03T07:03:50.334Z</time></trkpt><trkpt lat="42.3523822" lon="13.4213162"><ele>741.0</ele><time>2026-05-03T07:03:51.327Z</time></trkpt><trkpt lat="42.3524142" lon="13.4214572"><ele>741.5999999999999</ele><time>2026-05-03T07:03:52.333Z</time></trkpt><trkpt lat="42.3524328" lon="13.4215995"><ele>742.2</ele><time>2026-05-03T07:03:53.327Z</time></trkpt><trkpt lat="42.352425" lon="13.4217435"><ele>742.8</ele><time>2026-05-03T07:03:54.321Z</time></trkpt><trkpt lat="42.3524001" lon="13.4218906"><ele>743.4000000000001</ele><time>2026-05-03T07:03:55.333Z</time></trkpt><trkpt lat="42.3523693" lon="13.4220161"><ele>744.0</ele><time>2026-05-03T07:03:56.329Z</time></trkpt><trkpt lat="42.3523405" lon="13.4221556"><ele>742.25</ele><time>2026-05-03T07:03:57.333Z</time></trkpt><trkpt lat="42.3523366" lon="13.4223226"><ele>740.5</ele><time>2026-05-03T07:03:58.319Z</time></trkpt><trkpt lat="42.35235" lon="13.4224938"><ele>738.75</ele><time>2026-05-03T07:03:59.325Z</time></trkpt><trkpt lat="42.3523642" lon="13.4226788"><ele>737.0</ele><time>2026-05-03T07:04:00.329Z</time></trkpt><trkpt lat="42.35238" lon="13.4228664"><ele>734.5</ele><time>2026-05-03T07:04:01.322Z</time></trkpt><trkpt lat="42.3524069" lon="13.4230508"><ele>732.0</ele><time>2026-05-03T07:04:02.33Z</time></trkpt><trkpt lat="42.3524285" lon="13.4232249"><ele>729.5</ele><time>2026-05-03T07:04:03.329Z</time></trkpt><trkpt lat="42.3524471" lon="13.4233987"><ele>727.0</ele><time>2026-05-03T07:04:04.325Z</time></trkpt><trkpt lat="42.3524515" lon="13.4235678"><ele>727.0</ele><time>2026-05-03T07:04:05.322Z</time></trkpt><trkpt lat="42.3524376" lon="13.4237444"><ele>727.0</ele><time>2026-05-03T07:04:06.322Z</time></trkpt><trkpt lat="42.352402" lon="13.4239289"><ele>727.0</ele><time>2026-05-03T07:04:07.322Z</time></trkpt><trkpt lat="42.3523552" lon="13.4241257"><ele>727.0</ele><time>2026-05-03T07:04:08.328Z</time></trkpt><trkpt lat="42.3523074" lon="13.4243279"><ele>725.5</ele><time>2026-05-03T07:04:09.325Z</time></trkpt><trkpt lat="42.3522748" lon="13.4245124"><ele>724.0</ele><time>2026-05-03T07:04:10.332Z</time></trkpt><trkpt lat="42.3522355" lon="13.4246702"><ele>722.5</ele><time>2026-05-03T07:04:11.331Z</time></trkpt><trkpt lat="42.352194" lon="13.4248276"><ele>721.0</ele><time>2026-05-03T07:04:12.333Z</time></trkpt><trkpt lat="42.3521715" lon="13.424991"><ele>720.25</ele><time>2026-05-03T07:04:13.333Z</time></trkpt><trkpt lat="42.3521216" lon="13.4251361"><ele>719.5</ele><time>2026-05-03T07:04:14.325Z</time></trkpt><trkpt lat="42.3520425" lon="13.4252719"><ele>718.75</ele><time>2026-05-03T07:04:15.332Z</time></trkpt><trkpt lat="42.3519646" lon="13.4254038"><ele>718.0</ele><time>2026-05-03T07:04:16.334Z</time></trkpt><trkpt lat="42.351895" lon="13.4255293"><ele>718.0</ele><time>2026-05-03T07:04:17.35Z</time></trkpt><trkpt lat="42.3518255" lon="13.4256551"><ele>718.0</ele><time>2026-05-03T07:04:18.333Z</time></trkpt><trkpt lat="42.3517571" lon="13.4258006"><ele>718.0</ele><time>2026-05-03T07:04:19.336Z</time></trkpt><trkpt lat="42.3516921" lon="13.425949"><ele>718.0</ele><time>2026-05-03T07:04:20.337Z</time></trkpt><trkpt lat="42.3516303" lon="13.4260902"><ele>718.0</ele><time>2026-05-03T07:04:21.335Z</time></trkpt><trkpt lat="42.3515752" lon="13.4262389"><ele>718.0</ele><time>2026-05-03T07:04:22.336Z</time></trkpt><trkpt lat="42.3515187" lon="13.4263834"><ele>718.0</ele><time>2026-05-03T07:04:23.339Z</time></trkpt><trkpt lat="42.3514662" lon="13.4265305"><ele>718.0</ele><time>2026-05-03T07:04:24.334Z</time></trkpt><trkpt lat="42.3514388" lon="13.4266825"><ele>720.2</ele><time>2026-05-03T07:04:25.334Z</time></trkpt><trkpt lat="42.3514095" lon="13.4268315"><ele>722.4</ele><time>2026-05-03T07:04:26.333Z</time></trkpt><trkpt lat="42.3513848" lon="13.4269797"><ele>724.6</ele><time>2026-05-03T07:04:27.327Z</time></trkpt><trkpt lat="42.3513615" lon="13.4271177"><ele>726.8000000000001</ele><time>2026-05-03T07:04:28.328Z</time></trkpt><trkpt lat="42.3513455" lon="13.4272345"><ele>729.0</ele><time>2026-05-03T07:04:29.335Z</time></trkpt><trkpt lat="42.3513317" lon="13.4273398"><ele>730.0</ele><time>2026-05-03T07:04:30.321Z</time></trkpt><trkpt lat="42.3513171" lon="13.4274279"><ele>731.0</ele><time>2026-05-03T07:04:31.314Z</time></trkpt><trkpt lat="42.3513013" lon="13.4275964"><ele>732.0</ele><time>2026-05-03T07:04:33.324Z</time></trkpt><trkpt lat="42.351276" lon="13.4276887"><ele>733.0</ele><time>2026-05-03T07:04:34.322Z</time></trkpt><trkpt lat="42.3512437" lon="13.4277761"><ele>734.0</ele><time>2026-05-03T07:04:35.32Z</time></trkpt><trkpt lat="42.3512059" lon="13.427846"><ele>735.0</ele><time>2026-05-03T07:04:36.318Z</time></trkpt><trkpt lat="42.351121" lon="13.4279545"><ele>734.3333333333334</ele><time>2026-05-03T07:04:38.323Z</time></trkpt><trkpt lat="42.3510381" lon="13.4280647"><ele>733.6666666666666</ele><time>2026-05-03T07:04:40.322Z</time></trkpt><trkpt lat="42.3510554" lon="13.4282032"><ele>733.0</ele><time>2026-05-03T07:04:42.339Z</time></trkpt><trkpt lat="42.3511157" lon="13.4282399"><ele>732.3333333333333</ele><time>2026-05-03T07:04:43.321Z</time></trkpt><trkpt lat="42.3511748" lon="13.4282801"><ele>731.6666666666666</ele><time>2026-05-03T07:04:44.327Z</time></trkpt><trkpt lat="42.3512472" lon="13.4283176"><ele>731.0</ele><time>2026-05-03T07:04:45.323Z</time></trkpt><trkpt lat="42.3513226" lon="13.4283405"><ele>732.6666666666666</ele><time>2026-05-03T07:04:46.327Z</time></trkpt><trkpt lat="42.3514067" lon="13.4283714"><ele>734.3333333333333</ele><time>2026-05-03T07:04:47.328Z</time></trkpt><trkpt lat="42.3514875" lon="13.428401"><ele>736.0</ele><time>2026-05-03T07:04:48.342Z</time></trkpt><trkpt lat="42.3515647" lon="13.4284324"><ele>737.6666666666666</ele><time>2026-05-03T07:04:49.319Z</time></trkpt><trkpt lat="42.3516274" lon="13.428476"><ele>739.3333333333334</ele><time>2026-05-03T07:04:50.322Z</time></trkpt><trkpt lat="42.3516877" lon="13.4285559"><ele>741.0</ele><time>2026-05-03T07:04:51.323Z</time></trkpt><trkpt lat="42.3517453" lon="13.428673"><ele>741.0</ele><time>2026-05-03T07:04:52.33Z</time></trkpt><trkpt lat="42.3517999" lon="13.4287863"><ele>741.0</ele><time>2026-05-03T07:04:53.334Z</time></trkpt><trkpt lat="42.3518559" lon="13.4288615"><ele>741.0</ele><time>2026-05-03T07:04:54.327Z</time></trkpt><trkpt lat="42.3519019" lon="13.4289279"><ele>741.0</ele><time>2026-05-03T07:04:55.328Z</time></trkpt><trkpt lat="42.3519104" lon="13.4290924"><ele>741.0</ele><time>2026-05-03T07:04:57.329Z</time></trkpt><trkpt lat="42.3518854" lon="13.4292057"><ele>741.1999999999999</ele><time>2026-05-03T07:04:58.33Z</time></trkpt><trkpt lat="42.3518427" lon="13.4293382"><ele>741.4</ele><time>2026-05-03T07:04:59.341Z</time></trkpt><trkpt lat="42.3517838" lon="13.4294676"><ele>741.6</ele><time>2026-05-03T07:05:00.345Z</time></trkpt><trkpt lat="42.3517205" lon="13.4295873"><ele>741.8</ele><time>2026-05-03T07:05:01.337Z</time></trkpt><trkpt lat="42.3516605" lon="13.4297145"><ele>742.0</ele><time>2026-05-03T07:05:02.339Z</time></trkpt><trkpt lat="42.3516027" lon="13.429827"><ele>742.3333333333334</ele><time>2026-05-03T07:05:03.34Z</time></trkpt><trkpt lat="42.3515494" lon="13.4299333"><ele>742.6666666666667</ele><time>2026-05-03T07:05:04.331Z</time></trkpt><trkpt lat="42.3514954" lon="13.4300222"><ele>743.0</ele><time>2026-05-03T07:05:05.326Z</time></trkpt><trkpt lat="42.3514376" lon="13.4300941"><ele>743.3333333333334</ele><time>2026-05-03T07:05:06.312Z</time></trkpt><trkpt lat="42.3513663" lon="13.430135"><ele>743.6666666666666</ele><time>2026-05-03T07:05:07.326Z</time></trkpt><trkpt lat="42.3512906" lon="13.4301328"><ele>744.0</ele><time>2026-05-03T07:05:08.324Z</time></trkpt><trkpt lat="42.3512035" lon="13.4300929"><ele>741.6</ele><time>2026-05-03T07:05:09.321Z</time></trkpt><trkpt lat="42.351112" lon="13.4300435"><ele>739.2</ele><time>2026-05-03T07:05:10.323Z</time></trkpt><trkpt lat="42.3510094" lon="13.4299989"><ele>736.8000000000001</ele><time>2026-05-03T07:05:11.324Z</time></trkpt><trkpt lat="42.350904" lon="13.4299756"><ele>734.4000000000001</ele><time>2026-05-03T07:05:12.322Z</time></trkpt><trkpt lat="42.3508091" lon="13.4299652"><ele>732.0</ele><time>2026-05-03T07:05:13.319Z</time></trkpt><trkpt lat="42.3507084" lon="13.4299761"><ele>732.0</ele><time>2026-05-03T07:05:14.33Z</time></trkpt><trkpt lat="42.350623" lon="13.4300293"><ele>732.0</ele><time>2026-05-03T07:05:15.312Z</time></trkpt><trkpt lat="42.3505356" lon="13.4300968"><ele>732.0</ele><time>2026-05-03T07:05:16.323Z</time></trkpt><trkpt lat="42.3504582" lon="13.4301917"><ele>732.0</ele><time>2026-05-03T07:05:17.31Z</time></trkpt><trkpt lat="42.3503885" lon="13.4303064"><ele>732.0</ele><time>2026-05-03T07:05:18.319Z</time></trkpt><trkpt lat="42.3503176" lon="13.4304366"><ele>731.0</ele><time>2026-05-03T07:05:19.337Z</time></trkpt><trkpt lat="42.3502346" lon="13.4305919"><ele>730.0</ele><time>2026-05-03T07:05:20.315Z</time></trkpt><trkpt lat="42.3501445" lon="13.430744"><ele>729.0</ele><time>2026-05-03T07:05:21.314Z</time></trkpt><trkpt lat="42.350059" lon="13.4308663"><ele>728.0</ele><time>2026-05-03T07:05:22.311Z</time></trkpt><trkpt lat="42.3499801" lon="13.430962"><ele>728.0</ele><time>2026-05-03T07:05:23.31Z</time></trkpt><trkpt lat="42.3498774" lon="13.4310302"><ele>728.0</ele><time>2026-05-03T07:05:24.314Z</time></trkpt><trkpt lat="42.349776" lon="13.4310578"><ele>728.0</ele><time>2026-05-03T07:05:25.307Z</time></trkpt><trkpt lat="42.3496698" lon="13.4310831"><ele>728.0</ele><time>2026-05-03T07:05:26.31Z</time></trkpt><trkpt lat="42.3495642" lon="13.4310697"><ele>728.0</ele><time>2026-05-03T07:05:27.308Z</time></trkpt><trkpt lat="42.34947" lon="13.431043"><ele>726.5999999999999</ele><time>2026-05-03T07:05:28.318Z</time></trkpt><trkpt lat="42.3493799" lon="13.4310024"><ele>725.1999999999999</ele><time>2026-05-03T07:05:29.316Z</time></trkpt><trkpt lat="42.3492801" lon="13.4309832"><ele>723.8</ele><time>2026-05-03T07:05:30.311Z</time></trkpt><trkpt lat="42.3491873" lon="13.4310068"><ele>722.4</ele><time>2026-05-03T07:05:31.309Z</time></trkpt><trkpt lat="42.3490932" lon="13.4310619"><ele>721.0</ele><time>2026-05-03T07:05:32.311Z</time></trkpt><trkpt lat="42.3490007" lon="13.4311135"><ele>721.0</ele><time>2026-05-03T07:05:33.311Z</time></trkpt><trkpt lat="42.3489085" lon="13.4311682"><ele>721.0</ele><time>2026-05-03T07:05:34.323Z</time></trkpt><trkpt lat="42.348817" lon="13.4312241"><ele>721.0</ele><time>2026-05-03T07:05:35.319Z</time></trkpt><trkpt lat="42.3487217" lon="13.4312929"><ele>721.0</ele><time>2026-05-03T07:05:36.323Z</time></trkpt><trkpt lat="42.3486305" lon="13.4313729"><ele>721.0</ele><time>2026-05-03T07:05:37.324Z</time></trkpt><trkpt lat="42.3485376" lon="13.4314546"><ele>721.0</ele><time>2026-05-03T07:05:38.32Z</time></trkpt><trkpt lat="42.3484388" lon="13.4315224"><ele>721.0</ele><time>2026-05-03T07:05:39.318Z</time></trkpt><trkpt lat="42.3483438" lon="13.4315761"><ele>721.0</ele><time>2026-05-03T07:05:40.324Z</time></trkpt><trkpt lat="42.3482377" lon="13.4316209"><ele>721.0</ele><time>2026-05-03T07:05:41.315Z</time></trkpt><trkpt lat="42.3481311" lon="13.4316424"><ele>721.0</ele><time>2026-05-03T07:05:42.326Z</time></trkpt><trkpt lat="42.3480292" lon="13.4316682"><ele>719.0</ele><time>2026-05-03T07:05:43.317Z</time></trkpt><trkpt lat="42.3479197" lon="13.4317119"><ele>717.0</ele><time>2026-05-03T07:05:44.324Z</time></trkpt><trkpt lat="42.3478153" lon="13.4317601"><ele>715.0</ele><time>2026-05-03T07:05:45.32Z</time></trkpt><trkpt lat="42.3477168" lon="13.4318212"><ele>713.0</ele><time>2026-05-03T07:05:46.322Z</time></trkpt><trkpt lat="42.3476255" lon="13.4318822"><ele>711.0</ele><time>2026-05-03T07:05:47.318Z</time></trkpt><trkpt lat="42.3475465" lon="13.4319416"><ele>711.0</ele><time>2026-05-03T07:05:48.322Z</time></trkpt><trkpt lat="42.3474638" lon="13.4319889"><ele>711.0</ele><time>2026-05-03T07:05:49.335Z</time></trkpt><trkpt lat="42.3473812" lon="13.432041"><ele>711.0</ele><time>2026-05-03T07:05:50.319Z</time></trkpt><trkpt lat="42.3473046" lon="13.4320828"><ele>711.0</ele><time>2026-05-03T07:05:51.318Z</time></trkpt><trkpt lat="42.3472287" lon="13.4321258"><ele>711.0</ele><time>2026-05-03T07:05:52.321Z</time></trkpt><trkpt lat="42.3471415" lon="13.4321824"><ele>711.0</ele><time>2026-05-03T07:05:53.322Z</time></trkpt><trkpt lat="42.3470296" lon="13.432246"><ele>711.5</ele><time>2026-05-03T07:05:54.32Z</time></trkpt><trkpt lat="42.3469209" lon="13.4323121"><ele>712.0</ele><time>2026-05-03T07:05:55.316Z</time></trkpt><trkpt lat="42.3468179" lon="13.4323739"><ele>712.5</ele><time>2026-05-03T07:05:56.317Z</time></trkpt><trkpt lat="42.3467123" lon="13.4324649"><ele>713.0</ele><time>2026-05-03T07:05:57.315Z</time></trkpt><trkpt lat="42.3466058" lon="13.4325605"><ele>713.0</ele><time>2026-05-03T07:05:58.322Z</time></trkpt><trkpt lat="42.3464992" lon="13.432659"><ele>713.0</ele><time>2026-05-03T07:05:59.328Z</time></trkpt><trkpt lat="42.3463881" lon="13.432774"><ele>713.0</ele><time>2026-05-03T07:06:00.324Z</time></trkpt><trkpt lat="42.3462748" lon="13.432889"><ele>713.0</ele><time>2026-05-03T07:06:01.326Z</time></trkpt><trkpt lat="42.3461532" lon="13.4329812"><ele>713.1666666666666</ele><time>2026-05-03T07:06:02.311Z</time></trkpt><trkpt lat="42.3460478" lon="13.4330499"><ele>713.3333333333333</ele><time>2026-05-03T07:06:03.311Z</time></trkpt><trkpt lat="42.3459649" lon="13.4330943"><ele>713.5</ele><time>2026-05-03T07:06:04.325Z</time></trkpt><trkpt lat="42.3458977" lon="13.4331472"><ele>713.6666666666666</ele><time>2026-05-03T07:06:05.317Z</time></trkpt><trkpt lat="42.3458309" lon="13.4332053"><ele>713.8333333333334</ele><time>2026-05-03T07:06:06.314Z</time></trkpt><trkpt lat="42.3457604" lon="13.4332417"><ele>714.0</ele><time>2026-05-03T07:06:07.314Z</time></trkpt><trkpt lat="42.3456619" lon="13.4333194"><ele>714.0</ele><time>2026-05-03T07:06:09.324Z</time></trkpt><trkpt lat="42.3455646" lon="13.4334032"><ele>714.0</ele><time>2026-05-03T07:06:11.325Z</time></trkpt><trkpt lat="42.3454973" lon="13.4334523"><ele>714.0</ele><time>2026-05-03T07:06:12.322Z</time></trkpt><trkpt lat="42.3454396" lon="13.4334936"><ele>714.0</ele><time>2026-05-03T07:06:13.327Z</time></trkpt><trkpt lat="42.3453573" lon="13.4335896"><ele>714.0</ele><time>2026-05-03T07:06:15.318Z</time></trkpt><trkpt lat="42.3452843" lon="13.4337017"><ele>712.6</ele><time>2026-05-03T07:06:17.32Z</time></trkpt><trkpt lat="42.3452128" lon="13.4337911"><ele>711.2</ele><time>2026-05-03T07:06:19.325Z</time></trkpt><trkpt lat="42.345161" lon="13.4338829"><ele>709.8000000000001</ele><time>2026-05-03T07:06:21.322Z</time></trkpt><trkpt lat="42.3451081" lon="13.4339954"><ele>708.4000000000001</ele><time>2026-05-03T07:06:23.323Z</time></trkpt><trkpt lat="42.3450517" lon="13.434123"><ele>707.0</ele><time>2026-05-03T07:06:25.326Z</time></trkpt><trkpt lat="42.3449723" lon="13.4342652"><ele>707.0</ele><time>2026-05-03T07:06:27.327Z</time></trkpt><trkpt lat="42.3449266" lon="13.4343463"><ele>707.0</ele><time>2026-05-03T07:06:28.325Z</time></trkpt><trkpt lat="42.3448816" lon="13.434441"><ele>707.0</ele><time>2026-05-03T07:06:29.326Z</time></trkpt><trkpt lat="42.3448347" lon="13.4345492"><ele>707.0</ele><time>2026-05-03T07:06:30.326Z</time></trkpt><trkpt lat="42.3447835" lon="13.4346495"><ele>707.0</ele><time>2026-05-03T07:06:31.323Z</time></trkpt><trkpt lat="42.3447405" lon="13.4347397"><ele>707.0</ele><time>2026-05-03T07:06:32.326Z</time></trkpt><trkpt lat="42.3446963" lon="13.4348407"><ele>704.8333333333333</ele><time>2026-05-03T07:06:33.324Z</time></trkpt><trkpt lat="42.3446626" lon="13.4349379"><ele>702.6666666666666</ele><time>2026-05-03T07:06:34.322Z</time></trkpt><trkpt lat="42.34463" lon="13.4350326"><ele>700.5</ele><time>2026-05-03T07:06:35.323Z</time></trkpt><trkpt lat="42.344601" lon="13.4351193"><ele>698.3333333333334</ele><time>2026-05-03T07:06:36.321Z</time></trkpt><trkpt lat="42.3445607" lon="13.4352021"><ele>696.1666666666667</ele><time>2026-05-03T07:06:37.32Z</time></trkpt><trkpt lat="42.3445255" lon="13.4353018"><ele>694.0</ele><time>2026-05-03T07:06:38.324Z</time></trkpt><trkpt lat="42.3444806" lon="13.4354189"><ele>694.5</ele><time>2026-05-03T07:06:39.32Z</time></trkpt><trkpt lat="42.3444395" lon="13.4355303"><ele>695.0</ele><time>2026-05-03T07:06:40.32Z</time></trkpt><trkpt lat="42.3444097" lon="13.4356208"><ele>695.5</ele><time>2026-05-03T07:06:41.319Z</time></trkpt><trkpt lat="42.3443782" lon="13.4356965"><ele>696.0</ele><time>2026-05-03T07:06:42.325Z</time></trkpt><trkpt lat="42.3443365" lon="13.4357737"><ele>696.5</ele><time>2026-05-03T07:06:43.322Z</time></trkpt><trkpt lat="42.3442951" lon="13.435854"><ele>697.0</ele><time>2026-05-03T07:06:44.32Z</time></trkpt><trkpt lat="42.3442673" lon="13.4359583"><ele>697.0</ele><time>2026-05-03T07:06:45.316Z</time></trkpt><trkpt lat="42.344266" lon="13.4360492"><ele>697.0</ele><time>2026-05-03T07:06:46.317Z</time></trkpt><trkpt lat="42.3442731" lon="13.436144"><ele>697.0</ele><time>2026-05-03T07:06:47.315Z</time></trkpt><trkpt lat="42.3442595" lon="13.4362575"><ele>697.0</ele><time>2026-05-03T07:06:48.313Z</time></trkpt><trkpt lat="42.3442365" lon="13.4363942"><ele>697.0</ele><time>2026-05-03T07:06:49.319Z</time></trkpt><trkpt lat="42.344225" lon="13.436534"><ele>697.0</ele><time>2026-05-03T07:06:50.314Z</time></trkpt><trkpt lat="42.3442181" lon="13.4366527"><ele>696.8571428571429</ele><time>2026-05-03T07:06:51.333Z</time></trkpt><trkpt lat="42.3442197" lon="13.4367532"><ele>696.7142857142857</ele><time>2026-05-03T07:06:52.322Z</time></trkpt><trkpt lat="42.3442141" lon="13.436851"><ele>696.5714285714286</ele><time>2026-05-03T07:06:53.32Z</time></trkpt><trkpt lat="42.3441961" lon="13.4369487"><ele>696.4285714285714</ele><time>2026-05-03T07:06:54.322Z</time></trkpt><trkpt lat="42.3441723" lon="13.4370351"><ele>696.2857142857143</ele><time>2026-05-03T07:06:55.319Z</time></trkpt><trkpt lat="42.3441357" lon="13.4371212"><ele>696.1428571428571</ele><time>2026-05-03T07:06:56.317Z</time></trkpt><trkpt lat="42.3441041" lon="13.4371981"><ele>696.0</ele><time>2026-05-03T07:06:57.322Z</time></trkpt><trkpt lat="42.3440658" lon="13.4373416"><ele>697.1666666666666</ele><time>2026-05-03T07:06:59.32Z</time></trkpt><trkpt lat="42.3440605" lon="13.4374276"><ele>698.3333333333334</ele><time>2026-05-03T07:07:00.313Z</time></trkpt><trkpt lat="42.3440538" lon="13.4375283"><ele>699.5</ele><time>2026-05-03T07:07:01.308Z</time></trkpt><trkpt lat="42.3440506" lon="13.4376421"><ele>700.6666666666667</ele><time>2026-05-03T07:07:02.306Z</time></trkpt><trkpt lat="42.3440301" lon="13.4377556"><ele>701.8333333333334</ele><time>2026-05-03T07:07:03.316Z</time></trkpt><trkpt lat="42.3440057" lon="13.4378627"><ele>703.0</ele><time>2026-05-03T07:07:04.314Z</time></trkpt><trkpt lat="42.3439957" lon="13.4379733"><ele>704.3333333333334</ele><time>2026-05-03T07:07:05.316Z</time></trkpt><trkpt lat="42.3439845" lon="13.4380897"><ele>705.6666666666667</ele><time>2026-05-03T07:07:06.316Z</time></trkpt><trkpt lat="42.3439661" lon="13.4382163"><ele>707.0</ele><time>2026-05-03T07:07:07.314Z</time></trkpt><trkpt lat="42.3439467" lon="13.4383394"><ele>708.3333333333334</ele><time>2026-05-03T07:07:08.311Z</time></trkpt><trkpt lat="42.3439312" lon="13.4384415"><ele>709.6666666666666</ele><time>2026-05-03T07:07:09.311Z</time></trkpt><trkpt lat="42.3439178" lon="13.4385364"><ele>711.0</ele><time>2026-05-03T07:07:10.309Z</time></trkpt><trkpt lat="42.3438739" lon="13.4387"><ele>708.8571428571429</ele><time>2026-05-03T07:07:12.312Z</time></trkpt><trkpt lat="42.3438376" lon="13.4387909"><ele>706.7142857142857</ele><time>2026-05-03T07:07:13.314Z</time></trkpt><trkpt lat="42.3437916" lon="13.4388788"><ele>704.5714285714286</ele><time>2026-05-03T07:07:14.312Z</time></trkpt><trkpt lat="42.3437456" lon="13.4389627"><ele>702.4285714285714</ele><time>2026-05-03T07:07:15.308Z</time></trkpt><trkpt lat="42.3436988" lon="13.4390209"><ele>700.2857142857143</ele><time>2026-05-03T07:07:16.312Z</time></trkpt><trkpt lat="42.3436353" lon="13.4390451"><ele>698.1428571428571</ele><time>2026-05-03T07:07:17.317Z</time></trkpt><trkpt lat="42.3435741" lon="13.4390707"><ele>696.0</ele><time>2026-05-03T07:07:18.313Z</time></trkpt><trkpt lat="42.3435116" lon="13.4391246"><ele>696.0</ele><time>2026-05-03T07:07:19.316Z</time></trkpt><trkpt lat="42.3434451" lon="13.439204"><ele>696.0</ele><time>2026-05-03T07:07:20.319Z</time></trkpt><trkpt lat="42.3433778" lon="13.439297"><ele>696.0</ele><time>2026-05-03T07:07:21.319Z</time></trkpt><trkpt lat="42.3433311" lon="13.439364"><ele>696.0</ele><time>2026-05-03T07:07:22.336Z</time></trkpt><trkpt lat="42.3432823" lon="13.4394322"><ele>696.0</ele><time>2026-05-03T07:07:23.322Z</time></trkpt><trkpt lat="42.3432257" lon="13.4394922"><ele>696.0</ele><time>2026-05-03T07:07:24.327Z</time></trkpt><trkpt lat="42.3431668" lon="13.4395565"><ele>695.7142857142857</ele><time>2026-05-03T07:07:25.323Z</time></trkpt><trkpt lat="42.3431203" lon="13.4396338"><ele>695.4285714285714</ele><time>2026-05-03T07:07:26.324Z</time></trkpt><trkpt lat="42.3430778" lon="13.439704"><ele>695.1428571428571</ele><time>2026-05-03T07:07:27.322Z</time></trkpt><trkpt lat="42.3430271" lon="13.4397587"><ele>694.8571428571429</ele><time>2026-05-03T07:07:28.323Z</time></trkpt><trkpt lat="42.3429735" lon="13.4398073"><ele>694.5714285714286</ele><time>2026-05-03T07:07:29.318Z</time></trkpt><trkpt lat="42.3429182" lon="13.4398551"><ele>694.2857142857143</ele><time>2026-05-03T07:07:30.322Z</time></trkpt><trkpt lat="42.3428135" lon="13.4398955"><ele>694.0</ele><time>2026-05-03T07:07:32.317Z</time></trkpt><trkpt lat="42.3427164" lon="13.4399174"><ele>694.0</ele><time>2026-05-03T07:07:34.316Z</time></trkpt><trkpt lat="42.3426146" lon="13.4398961"><ele>694.0</ele><time>2026-05-03T07:07:36.322Z</time></trkpt><trkpt lat="42.3424858" lon="13.439893"><ele>694.0</ele><time>2026-05-03T07:07:38.322Z</time></trkpt><trkpt lat="42.34242" lon="13.4398908"><ele>694.0</ele><time>2026-05-03T07:07:39.319Z</time></trkpt><trkpt lat="42.3423019" lon="13.4399306"><ele>694.0</ele><time>2026-05-03T07:07:41.314Z</time></trkpt><trkpt lat="42.3421963" lon="13.4399995"><ele>692.0</ele><time>2026-05-03T07:07:43.324Z</time></trkpt><trkpt lat="42.3420858" lon="13.4400678"><ele>690.0</ele><time>2026-05-03T07:07:45.324Z</time></trkpt><trkpt lat="42.3419634" lon="13.4400859"><ele>688.0</ele><time>2026-05-03T07:07:47.323Z</time></trkpt><trkpt lat="42.3418732" lon="13.4401274"><ele>686.0</ele><time>2026-05-03T07:07:49.317Z</time></trkpt><trkpt lat="42.3418115" lon="13.4401455"><ele>684.0</ele><time>2026-05-03T07:07:50.319Z</time></trkpt><trkpt lat="42.341699" lon="13.4401888"><ele>684.0</ele><time>2026-05-03T07:07:52.314Z</time></trkpt><trkpt lat="42.3416351" lon="13.4401989"><ele>684.0</ele><time>2026-05-03T07:07:53.338Z</time></trkpt><trkpt lat="42.3415654" lon="13.4402162"><ele>684.0</ele><time>2026-05-03T07:07:54.317Z</time></trkpt><trkpt lat="42.3414531" lon="13.440226"><ele>684.0</ele><time>2026-05-03T07:07:56.31Z</time></trkpt><trkpt lat="42.341338" lon="13.4401923"><ele>684.0</ele><time>2026-05-03T07:07:58.316Z</time></trkpt><trkpt lat="42.34123" lon="13.4401776"><ele>681.8000000000001</ele><time>2026-05-03T07:08:00.315Z</time></trkpt><trkpt lat="42.3411541" lon="13.4402079"><ele>679.6</ele><time>2026-05-03T07:08:02.314Z</time></trkpt><trkpt lat="42.3410802" lon="13.4402414"><ele>677.4</ele><time>2026-05-03T07:08:04.316Z</time></trkpt><trkpt lat="42.3409899" lon="13.4402757"><ele>675.2</ele><time>2026-05-03T07:08:06.317Z</time></trkpt><trkpt lat="42.3408769" lon="13.4403423"><ele>673.0</ele><time>2026-05-03T07:08:08.313Z</time></trkpt><trkpt lat="42.340754" lon="13.4403974"><ele>673.0</ele><time>2026-05-03T07:08:10.317Z</time></trkpt><trkpt lat="42.3406481" lon="13.4404547"><ele>673.0</ele><time>2026-05-03T07:08:12.313Z</time></trkpt><trkpt lat="42.3405313" lon="13.4404968"><ele>673.0</ele><time>2026-05-03T07:08:14.313Z</time></trkpt><trkpt lat="42.3404289" lon="13.4405856"><ele>673.0</ele><time>2026-05-03T07:08:16.322Z</time></trkpt><trkpt lat="42.340362" lon="13.44071"><ele>671.0</ele><time>2026-05-03T07:08:18.314Z</time></trkpt><trkpt lat="42.3403148" lon="13.4408816"><ele>669.0</ele><time>2026-05-03T07:08:20.319Z</time></trkpt><trkpt lat="42.3402934" lon="13.4409813"><ele>667.0</ele><time>2026-05-03T07:08:21.312Z</time></trkpt><trkpt lat="42.3402808" lon="13.4410796"><ele>665.0</ele><time>2026-05-03T07:08:22.313Z</time></trkpt><trkpt lat="42.3402618" lon="13.4411755"><ele>663.0</ele><time>2026-05-03T07:08:23.315Z</time></trkpt><trkpt lat="42.3402521" lon="13.4412814"><ele>661.0</ele><time>2026-05-03T07:08:24.329Z</time></trkpt><trkpt lat="42.3402453" lon="13.4413829"><ele>660.1666666666667</ele><time>2026-05-03T07:08:25.313Z</time></trkpt><trkpt lat="42.3402186" lon="13.4414852"><ele>659.3333333333334</ele><time>2026-05-03T07:08:26.312Z</time></trkpt><trkpt lat="42.3401886" lon="13.441579"><ele>658.5</ele><time>2026-05-03T07:08:27.314Z</time></trkpt><trkpt lat="42.3401703" lon="13.4416754"><ele>657.6666666666666</ele><time>2026-05-03T07:08:28.309Z</time></trkpt><trkpt lat="42.3401511" lon="13.4417946"><ele>656.8333333333333</ele><time>2026-05-03T07:08:29.303Z</time></trkpt><trkpt lat="42.3401077" lon="13.4419183"><ele>656.0</ele><time>2026-05-03T07:08:30.309Z</time></trkpt><trkpt lat="42.3400744" lon="13.4420408"><ele>655.0</ele><time>2026-05-03T07:08:31.311Z</time></trkpt><trkpt lat="42.3400402" lon="13.4421446"><ele>654.0</ele><time>2026-05-03T07:08:32.311Z</time></trkpt><trkpt lat="42.3400093" lon="13.4422365"><ele>653.0</ele><time>2026-05-03T07:08:33.309Z</time></trkpt><trkpt lat="42.3399871" lon="13.4423267"><ele>652.0</ele><time>2026-05-03T07:08:34.313Z</time></trkpt><trkpt lat="42.3399637" lon="13.4424197"><ele>651.0</ele><time>2026-05-03T07:08:35.313Z</time></trkpt><trkpt lat="42.3399316" lon="13.4425198"><ele>650.0</ele><time>2026-05-03T07:08:36.315Z</time></trkpt><trkpt lat="42.3399083" lon="13.4426207"><ele>650.0</ele><time>2026-05-03T07:08:37.313Z</time></trkpt><trkpt lat="42.3398959" lon="13.442719"><ele>650.0</ele><time>2026-05-03T07:08:38.318Z</time></trkpt><trkpt lat="42.3398765" lon="13.4428147"><ele>650.0</ele><time>2026-05-03T07:08:39.317Z</time></trkpt><trkpt lat="42.3398616" lon="13.442917"><ele>650.0</ele><time>2026-05-03T07:08:40.314Z</time></trkpt><trkpt lat="42.3398426" lon="13.4430217"><ele>650.0</ele><time>2026-05-03T07:08:41.317Z</time></trkpt><trkpt lat="42.3398024" lon="13.4431244"><ele>650.0</ele><time>2026-05-03T07:08:42.316Z</time></trkpt><trkpt lat="42.3397544" lon="13.4432403"><ele>649.0</ele><time>2026-05-03T07:08:43.316Z</time></trkpt><trkpt lat="42.3397126" lon="13.4433498"><ele>648.0</ele><time>2026-05-03T07:08:44.311Z</time></trkpt><trkpt lat="42.3396613" lon="13.443421"><ele>647.0</ele><time>2026-05-03T07:08:45.313Z</time></trkpt><trkpt lat="42.3395987" lon="13.443482"><ele>646.0</ele><time>2026-05-03T07:08:46.315Z</time></trkpt><trkpt lat="42.3395466" lon="13.4435307"><ele>645.0</ele><time>2026-05-03T07:08:47.314Z</time></trkpt><trkpt lat="42.3394971" lon="13.4435954"><ele>644.0</ele><time>2026-05-03T07:08:48.315Z</time></trkpt><trkpt lat="42.3394378" lon="13.4436594"><ele>644.0</ele><time>2026-05-03T07:08:49.313Z</time></trkpt><trkpt lat="42.3393717" lon="13.4437236"><ele>644.0</ele><time>2026-05-03T07:08:50.318Z</time></trkpt><trkpt lat="42.3393107" lon="13.4437912"><ele>644.0</ele><time>2026-05-03T07:08:51.317Z</time></trkpt><trkpt lat="42.3392512" lon="13.4438637"><ele>644.0</ele><time>2026-05-03T07:08:52.32Z</time></trkpt><trkpt lat="42.3391821" lon="13.4439315"><ele>644.0</ele><time>2026-05-03T07:08:53.32Z</time></trkpt><trkpt lat="42.3391264" lon="13.4440051"><ele>644.0</ele><time>2026-05-03T07:08:54.318Z</time></trkpt><trkpt lat="42.3390829" lon="13.4440828"><ele>645.1428571428571</ele><time>2026-05-03T07:08:55.336Z</time></trkpt><trkpt lat="42.3390541" lon="13.4441774"><ele>646.2857142857142</ele><time>2026-05-03T07:08:56.319Z</time></trkpt><trkpt lat="42.3390292" lon="13.4442591"><ele>647.4285714285714</ele><time>2026-05-03T07:08:57.323Z</time></trkpt><trkpt lat="42.3390083" lon="13.4443405"><ele>648.5714285714286</ele><time>2026-05-03T07:08:58.321Z</time></trkpt><trkpt lat="42.3390061" lon="13.4444334"><ele>649.7142857142857</ele><time>2026-05-03T07:08:59.314Z</time></trkpt><trkpt lat="42.3390124" lon="13.4445503"><ele>650.8571428571429</ele><time>2026-05-03T07:09:00.32Z</time></trkpt><trkpt lat="42.3390309" lon="13.4446588"><ele>652.0</ele><time>2026-05-03T07:09:01.321Z</time></trkpt><trkpt lat="42.3390401" lon="13.4447585"><ele>652.0</ele><time>2026-05-03T07:09:02.321Z</time></trkpt><trkpt lat="42.3390328" lon="13.4448566"><ele>652.0</ele><time>2026-05-03T07:09:03.32Z</time></trkpt><trkpt lat="42.339017" lon="13.4449534"><ele>652.0</ele><time>2026-05-03T07:09:04.314Z</time></trkpt><trkpt lat="42.3390001" lon="13.4450706"><ele>652.0</ele><time>2026-05-03T07:09:05.318Z</time></trkpt><trkpt lat="42.3389865" lon="13.44519"><ele>652.0</ele><time>2026-05-03T07:09:06.315Z</time></trkpt><trkpt lat="42.3389685" lon="13.4452898"><ele>652.0</ele><time>2026-05-03T07:09:07.314Z</time></trkpt><trkpt lat="42.3389511" lon="13.4453806"><ele>652.8333333333334</ele><time>2026-05-03T07:09:08.318Z</time></trkpt><trkpt lat="42.3389349" lon="13.4454889"><ele>653.6666666666667</ele><time>2026-05-03T07:09:09.322Z</time></trkpt><trkpt lat="42.3389166" lon="13.4455918"><ele>654.5</ele><time>2026-05-03T07:09:10.322Z</time></trkpt><trkpt lat="42.3388914" lon="13.4456983"><ele>655.3333333333334</ele><time>2026-05-03T07:09:11.322Z</time></trkpt><trkpt lat="42.3388641" lon="13.4458132"><ele>656.1666666666666</ele><time>2026-05-03T07:09:12.318Z</time></trkpt><trkpt lat="42.3388287" lon="13.4459234"><ele>657.0</ele><time>2026-05-03T07:09:13.322Z</time></trkpt><trkpt lat="42.3387817" lon="13.4460451"><ele>653.6</ele><time>2026-05-03T07:09:14.324Z</time></trkpt><trkpt lat="42.3387261" lon="13.4461688"><ele>650.2</ele><time>2026-05-03T07:09:15.319Z</time></trkpt><trkpt lat="42.3386694" lon="13.4462922"><ele>646.8</ele><time>2026-05-03T07:09:16.319Z</time></trkpt><trkpt lat="42.3386075" lon="13.4464082"><ele>643.4</ele><time>2026-05-03T07:09:17.322Z</time></trkpt><trkpt lat="42.3385568" lon="13.4465296"><ele>640.0</ele><time>2026-05-03T07:09:18.32Z</time></trkpt><trkpt lat="42.3385197" lon="13.4466524"><ele>640.0</ele><time>2026-05-03T07:09:19.315Z</time></trkpt><trkpt lat="42.3384853" lon="13.4467846"><ele>640.0</ele><time>2026-05-03T07:09:20.322Z</time></trkpt><trkpt lat="42.338443" lon="13.4469224"><ele>640.0</ele><time>2026-05-03T07:09:21.324Z</time></trkpt><trkpt lat="42.3384068" lon="13.4470751"><ele>640.0</ele><time>2026-05-03T07:09:22.323Z</time></trkpt><trkpt lat="42.3383696" lon="13.4472288"><ele>640.25</ele><time>2026-05-03T07:09:23.323Z</time></trkpt><trkpt lat="42.3383222" lon="13.4473744"><ele>640.5</ele><time>2026-05-03T07:09:24.32Z</time></trkpt><trkpt lat="42.3382741" lon="13.4475186"><ele>640.75</ele><time>2026-05-03T07:09:25.324Z</time></trkpt><trkpt lat="42.3382408" lon="13.4476576"><ele>641.0</ele><time>2026-05-03T07:09:26.336Z</time></trkpt><trkpt lat="42.3381945" lon="13.4478112"><ele>641.0</ele><time>2026-05-03T07:09:27.325Z</time></trkpt><trkpt lat="42.3381497" lon="13.4479763"><ele>641.0</ele><time>2026-05-03T07:09:28.316Z</time></trkpt><trkpt lat="42.338107" lon="13.448139"><ele>641.0</ele><time>2026-05-03T07:09:29.319Z</time></trkpt><trkpt lat="42.3380589" lon="13.4482906"><ele>641.0</ele><time>2026-05-03T07:09:30.319Z</time></trkpt><trkpt lat="42.338024" lon="13.4484413"><ele>637.0</ele><time>2026-05-03T07:09:31.321Z</time></trkpt><trkpt lat="42.3379836" lon="13.4485872"><ele>633.0</ele><time>2026-05-03T07:09:32.316Z</time></trkpt><trkpt lat="42.3379381" lon="13.4487351"><ele>629.0</ele><time>2026-05-03T07:09:33.316Z</time></trkpt><trkpt lat="42.3378884" lon="13.4488852"><ele>625.0</ele><time>2026-05-03T07:09:34.318Z</time></trkpt><trkpt lat="42.3378492" lon="13.4490428"><ele>625.0</ele><time>2026-05-03T07:09:35.316Z</time></trkpt><trkpt lat="42.3378044" lon="13.4491955"><ele>625.0</ele><time>2026-05-03T07:09:36.323Z</time></trkpt><trkpt lat="42.3377802" lon="13.4493425"><ele>625.0</ele><time>2026-05-03T07:09:37.321Z</time></trkpt><trkpt lat="42.3377623" lon="13.4494863"><ele>625.0</ele><time>2026-05-03T07:09:38.322Z</time></trkpt><trkpt lat="42.3377624" lon="13.4496442"><ele>624.75</ele><time>2026-05-03T07:09:39.318Z</time></trkpt><trkpt lat="42.3377773" lon="13.4497993"><ele>624.5</ele><time>2026-05-03T07:09:40.323Z</time></trkpt><trkpt lat="42.3378006" lon="13.4499624"><ele>624.25</ele><time>2026-05-03T07:09:41.323Z</time></trkpt><trkpt lat="42.3378219" lon="13.4501093"><ele>624.0</ele><time>2026-05-03T07:09:42.324Z</time></trkpt><trkpt lat="42.3378392" lon="13.4502587"><ele>624.0</ele><time>2026-05-03T07:09:43.323Z</time></trkpt><trkpt lat="42.337851" lon="13.4504046"><ele>624.0</ele><time>2026-05-03T07:09:44.324Z</time></trkpt><trkpt lat="42.3378631" lon="13.4505528"><ele>624.0</ele><time>2026-05-03T07:09:45.322Z</time></trkpt><trkpt lat="42.3378681" lon="13.450714"><ele>624.0</ele><time>2026-05-03T07:09:46.323Z</time></trkpt><trkpt lat="42.3378776" lon="13.4508741"><ele>623.6</ele><time>2026-05-03T07:09:47.322Z</time></trkpt><trkpt lat="42.3378843" lon="13.4510294"><ele>623.2</ele><time>2026-05-03T07:09:48.321Z</time></trkpt><trkpt lat="42.3378868" lon="13.4511756"><ele>622.8000000000001</ele><time>2026-05-03T07:09:49.319Z</time></trkpt><trkpt lat="42.3378894" lon="13.4513107"><ele>622.4</ele><time>2026-05-03T07:09:50.315Z</time></trkpt><trkpt lat="42.3378902" lon="13.4514368"><ele>622.0</ele><time>2026-05-03T07:09:51.312Z</time></trkpt><trkpt lat="42.3379043" lon="13.4515667"><ele>621.6</ele><time>2026-05-03T07:09:52.313Z</time></trkpt><trkpt lat="42.3379146" lon="13.4517083"><ele>621.2</ele><time>2026-05-03T07:09:53.315Z</time></trkpt><trkpt lat="42.3379305" lon="13.4518353"><ele>620.8</ele><time>2026-05-03T07:09:54.306Z</time></trkpt><trkpt lat="42.3379357" lon="13.4519529"><ele>620.4</ele><time>2026-05-03T07:09:55.3Z</time></trkpt><trkpt lat="42.3379396" lon="13.4520668"><ele>620.0</ele><time>2026-05-03T07:09:56.31Z</time></trkpt><trkpt lat="42.3379386" lon="13.4521771"><ele>619.3333333333333</ele><time>2026-05-03T07:09:57.352Z</time></trkpt><trkpt lat="42.3379405" lon="13.4522853"><ele>618.6666666666666</ele><time>2026-05-03T07:09:58.316Z</time></trkpt><trkpt lat="42.3379424" lon="13.4523977"><ele>618.0</ele><time>2026-05-03T07:09:59.316Z</time></trkpt><trkpt lat="42.3379446" lon="13.4525029"><ele>617.3333333333334</ele><time>2026-05-03T07:10:00.32Z</time></trkpt><trkpt lat="42.3379468" lon="13.452603"><ele>616.6666666666667</ele><time>2026-05-03T07:10:01.323Z</time></trkpt><trkpt lat="42.3379509" lon="13.4526926"><ele>616.0</ele><time>2026-05-03T07:10:02.316Z</time></trkpt><trkpt lat="42.3379668" lon="13.452814"><ele>616.0</ele><time>2026-05-03T07:10:04.317Z</time></trkpt><trkpt lat="42.3380125" lon="13.4529172"><ele>616.0</ele><time>2026-05-03T07:10:07.314Z</time></trkpt><trkpt lat="42.3380711" lon="13.4530096"><ele>616.0</ele><time>2026-05-03T07:10:09.306Z</time></trkpt><trkpt lat="42.3380873" lon="13.453118"><ele>616.0</ele><time>2026-05-03T07:10:11.303Z</time></trkpt><trkpt lat="42.338106" lon="13.4531997"><ele>616.0</ele><time>2026-05-03T07:10:12.295Z</time></trkpt><trkpt lat="42.3381221" lon="13.4532981"><ele>616.0</ele><time>2026-05-03T07:10:13.3Z</time></trkpt><trkpt lat="42.3381694" lon="13.4534377"><ele>617.8333333333334</ele><time>2026-05-03T07:10:15.298Z</time></trkpt><trkpt lat="42.3381967" lon="13.4535667"><ele>619.6666666666667</ele><time>2026-05-03T07:10:17.309Z</time></trkpt><trkpt lat="42.3382206" lon="13.4536711"><ele>621.5</ele><time>2026-05-03T07:10:19.308Z</time></trkpt><trkpt lat="42.3382453" lon="13.4537661"><ele>623.3333333333334</ele><time>2026-05-03T07:10:23.306Z</time></trkpt><trkpt lat="42.3382248" lon="13.4538631"><ele>625.1666666666666</ele><time>2026-05-03T07:10:27.321Z</time></trkpt><trkpt lat="42.3382101" lon="13.4540138"><ele>627.0</ele><time>2026-05-03T07:10:29.314Z</time></trkpt><trkpt lat="42.3381784" lon="13.4541644"><ele>627.0</ele><time>2026-05-03T07:10:31.317Z</time></trkpt><trkpt lat="42.3381596" lon="13.4542507"><ele>627.0</ele><time>2026-05-03T07:10:32.312Z</time></trkpt><trkpt lat="42.3381325" lon="13.4544011"><ele>627.0</ele><time>2026-05-03T07:10:34.308Z</time></trkpt><trkpt lat="42.3381085" lon="13.4544997"><ele>627.0</ele><time>2026-05-03T07:10:35.3Z</time></trkpt><trkpt lat="42.3381066" lon="13.4546243"><ele>627.0</ele><time>2026-05-03T07:10:36.307Z</time></trkpt><trkpt lat="42.3381087" lon="13.4547217"><ele>627.0</ele><time>2026-05-03T07:10:37.303Z</time></trkpt><trkpt lat="42.3381133" lon="13.4548151"><ele>626.0</ele><time>2026-05-03T07:10:38.308Z</time></trkpt><trkpt lat="42.3381281" lon="13.4549148"><ele>625.0</ele><time>2026-05-03T07:10:39.304Z</time></trkpt><trkpt lat="42.3381542" lon="13.4550168"><ele>624.0</ele><time>2026-05-03T07:10:40.309Z</time></trkpt><trkpt lat="42.3381838" lon="13.4551343"><ele>623.0</ele><time>2026-05-03T07:10:41.31Z</time></trkpt><trkpt lat="42.338212" lon="13.4552298"><ele>622.0</ele><time>2026-05-03T07:10:42.306Z</time></trkpt><trkpt lat="42.338236" lon="13.4553108"><ele>621.0</ele><time>2026-05-03T07:10:43.307Z</time></trkpt><trkpt lat="42.3382722" lon="13.455449"><ele>618.3333333333334</ele><time>2026-05-03T07:10:45.298Z</time></trkpt><trkpt lat="42.338212" lon="13.455553"><ele>615.6666666666666</ele><time>2026-05-03T07:10:47.299Z</time></trkpt><trkpt lat="42.3380884" lon="13.4555463"><ele>613.0</ele><time>2026-05-03T07:10:49.308Z</time></trkpt><trkpt lat="42.3380094" lon="13.4555355"><ele>610.3333333333333</ele><time>2026-05-03T07:10:51.304Z</time></trkpt><trkpt lat="42.3380727" lon="13.4555908"><ele>607.6666666666666</ele><time>2026-05-03T07:10:57.31Z</time></trkpt><trkpt lat="42.3381354" lon="13.455599"><ele>605.0</ele><time>2026-05-03T07:10:58.32Z</time></trkpt><trkpt lat="42.3382338" lon="13.4556255"><ele>605.0</ele><time>2026-05-03T07:10:59.305Z</time></trkpt><trkpt lat="42.3383241" lon="13.4556662"><ele>605.0</ele><time>2026-05-03T07:11:00.309Z</time></trkpt><trkpt lat="42.3384143" lon="13.4557038"><ele>605.0</ele><time>2026-05-03T07:11:01.301Z</time></trkpt><trkpt lat="42.3385218" lon="13.4557297"><ele>605.0</ele><time>2026-05-03T07:11:02.308Z</time></trkpt><trkpt lat="42.3386238" lon="13.4557598"><ele>605.0</ele><time>2026-05-03T07:11:03.308Z</time></trkpt><trkpt lat="42.3387404" lon="13.4557885"><ele>605.0</ele><time>2026-05-03T07:11:04.308Z</time></trkpt><trkpt lat="42.3388642" lon="13.4558355"><ele>605.0</ele><time>2026-05-03T07:11:05.307Z</time></trkpt><trkpt lat="42.3389807" lon="13.4558884"><ele>605.0</ele><time>2026-05-03T07:11:06.301Z</time></trkpt><trkpt lat="42.3390874" lon="13.455933"><ele>605.0</ele><time>2026-05-03T07:11:07.304Z</time></trkpt><trkpt lat="42.339186" lon="13.455971"><ele>606.0</ele><time>2026-05-03T07:11:08.304Z</time></trkpt><trkpt lat="42.3392855" lon="13.4560021"><ele>607.0</ele><time>2026-05-03T07:11:09.3Z</time></trkpt><trkpt lat="42.3393819" lon="13.4560082"><ele>608.0</ele><time>2026-05-03T07:11:10.294Z</time></trkpt><trkpt lat="42.3394784" lon="13.4560007"><ele>609.0</ele><time>2026-05-03T07:11:11.298Z</time></trkpt><trkpt lat="42.3395739" lon="13.4559961"><ele>610.0</ele><time>2026-05-03T07:11:12.297Z</time></trkpt><trkpt lat="42.3396548" lon="13.4560184"><ele>610.0</ele><time>2026-05-03T07:11:13.3Z</time></trkpt><trkpt lat="42.3397127" lon="13.4560986"><ele>610.0</ele><time>2026-05-03T07:11:14.291Z</time></trkpt><trkpt lat="42.3397567" lon="13.4562098"><ele>610.0</ele><time>2026-05-03T07:11:15.295Z</time></trkpt><trkpt lat="42.339779" lon="13.4563178"><ele>610.0</ele><time>2026-05-03T07:11:16.304Z</time></trkpt><trkpt lat="42.3397709" lon="13.456444"><ele>610.0</ele><time>2026-05-03T07:11:17.3Z</time></trkpt><trkpt lat="42.3397698" lon="13.456538"><ele>610.0</ele><time>2026-05-03T07:11:18.309Z</time></trkpt><trkpt lat="42.3397934" lon="13.456636"><ele>608.5</ele><time>2026-05-03T07:11:22.309Z</time></trkpt><trkpt lat="42.3398484" lon="13.4566913"><ele>607.0</ele><time>2026-05-03T07:11:24.307Z</time></trkpt><trkpt lat="42.3399128" lon="13.4567038"><ele>605.5</ele><time>2026-05-03T07:11:25.309Z</time></trkpt><trkpt lat="42.3399942" lon="13.456706"><ele>604.0</ele><time>2026-05-03T07:11:26.31Z</time></trkpt><trkpt lat="42.340081" lon="13.4567302"><ele>602.5</ele><time>2026-05-03T07:11:27.31Z</time></trkpt><trkpt lat="42.3401802" lon="13.456769"><ele>601.0</ele><time>2026-05-03T07:11:28.312Z</time></trkpt><trkpt lat="42.3402907" lon="13.4568087"><ele>601.0</ele><time>2026-05-03T07:11:29.332Z</time></trkpt><trkpt lat="42.3403998" lon="13.4568538"><ele>601.0</ele><time>2026-05-03T07:11:30.318Z</time></trkpt><trkpt lat="42.3405095" lon="13.4568945"><ele>601.0</ele><time>2026-05-03T07:11:31.322Z</time></trkpt><trkpt lat="42.340621" lon="13.4569385"><ele>601.0</ele><time>2026-05-03T07:11:32.318Z</time></trkpt><trkpt lat="42.3407409" lon="13.4569897"><ele>600.75</ele><time>2026-05-03T07:11:33.319Z</time></trkpt><trkpt lat="42.3408669" lon="13.4570512"><ele>600.5</ele><time>2026-05-03T07:11:34.321Z</time></trkpt><trkpt lat="42.3410016" lon="13.4571176"><ele>600.25</ele><time>2026-05-03T07:11:35.318Z</time></trkpt><trkpt lat="42.3411257" lon="13.4571771"><ele>600.0</ele><time>2026-05-03T07:11:36.325Z</time></trkpt><trkpt lat="42.3412384" lon="13.4572436"><ele>600.25</ele><time>2026-05-03T07:11:37.323Z</time></trkpt><trkpt lat="42.3413582" lon="13.4573334"><ele>600.5</ele><time>2026-05-03T07:11:38.314Z</time></trkpt><trkpt lat="42.3414535" lon="13.4574557"><ele>600.75</ele><time>2026-05-03T07:11:39.32Z</time></trkpt><trkpt lat="42.3415472" lon="13.4575947"><ele>601.0</ele><time>2026-05-03T07:11:40.321Z</time></trkpt><trkpt lat="42.3416381" lon="13.4577285"><ele>601.0</ele><time>2026-05-03T07:11:41.322Z</time></trkpt><trkpt lat="42.3417424" lon="13.4578667"><ele>601.0</ele><time>2026-05-03T07:11:42.327Z</time></trkpt><trkpt lat="42.3418481" lon="13.4580022"><ele>601.0</ele><time>2026-05-03T07:11:43.33Z</time></trkpt><trkpt lat="42.3419594" lon="13.4581461"><ele>601.0</ele><time>2026-05-03T07:11:44.33Z</time></trkpt><trkpt lat="42.3420678" lon="13.4582904"><ele>601.0</ele><time>2026-05-03T07:11:45.331Z</time></trkpt><trkpt lat="42.3421757" lon="13.458431"><ele>601.0</ele><time>2026-05-03T07:11:46.33Z</time></trkpt><trkpt lat="42.3422811" lon="13.458571"><ele>601.0</ele><time>2026-05-03T07:11:47.33Z</time></trkpt><trkpt lat="42.3423972" lon="13.4587127"><ele>601.0</ele><time>2026-05-03T07:11:48.324Z</time></trkpt><trkpt lat="42.3425158" lon="13.4588511"><ele>601.0</ele><time>2026-05-03T07:11:49.325Z</time></trkpt><trkpt lat="42.3426193" lon="13.4589928"><ele>601.0</ele><time>2026-05-03T07:11:50.326Z</time></trkpt><trkpt lat="42.342722" lon="13.4591289"><ele>601.0</ele><time>2026-05-03T07:11:51.327Z</time></trkpt><trkpt lat="42.3428213" lon="13.4592619"><ele>601.0</ele><time>2026-05-03T07:11:52.327Z</time></trkpt><trkpt lat="42.342926" lon="13.4593937"><ele>601.0</ele><time>2026-05-03T07:11:53.327Z</time></trkpt><trkpt lat="42.3430286" lon="13.4595279"><ele>601.0</ele><time>2026-05-03T07:11:54.323Z</time></trkpt><trkpt lat="42.3431261" lon="13.4596611"><ele>601.0</ele><time>2026-05-03T07:11:55.326Z</time></trkpt><trkpt lat="42.3432157" lon="13.4597814"><ele>602.25</ele><time>2026-05-03T07:11:56.321Z</time></trkpt><trkpt lat="42.3432975" lon="13.4598988"><ele>603.5</ele><time>2026-05-03T07:11:57.324Z</time></trkpt><trkpt lat="42.3433714" lon="13.4600112"><ele>604.75</ele><time>2026-05-03T07:11:58.32Z</time></trkpt><trkpt lat="42.3434533" lon="13.4601229"><ele>606.0</ele><time>2026-05-03T07:11:59.323Z</time></trkpt><trkpt lat="42.3435285" lon="13.460228"><ele>606.0</ele><time>2026-05-03T07:12:00.339Z</time></trkpt><trkpt lat="42.3436218" lon="13.4603391"><ele>606.0</ele><time>2026-05-03T07:12:01.325Z</time></trkpt><trkpt lat="42.3437128" lon="13.4604498"><ele>606.0</ele><time>2026-05-03T07:12:02.324Z</time></trkpt><trkpt lat="42.343799" lon="13.4605767"><ele>606.0</ele><time>2026-05-03T07:12:03.325Z</time></trkpt><trkpt lat="42.3438891" lon="13.4606918"><ele>607.0</ele><time>2026-05-03T07:12:04.325Z</time></trkpt><trkpt lat="42.3439871" lon="13.4608072"><ele>608.0</ele><time>2026-05-03T07:12:05.324Z</time></trkpt><trkpt lat="42.3440867" lon="13.4609392"><ele>609.0</ele><time>2026-05-03T07:12:06.32Z</time></trkpt><trkpt lat="42.3442033" lon="13.4610728"><ele>610.0</ele><time>2026-05-03T07:12:07.323Z</time></trkpt><trkpt lat="42.3443218" lon="13.4612051"><ele>609.6666666666667</ele><time>2026-05-03T07:12:08.323Z</time></trkpt><trkpt lat="42.3444382" lon="13.4613537"><ele>609.3333333333334</ele><time>2026-05-03T07:12:09.324Z</time></trkpt><trkpt lat="42.3445589" lon="13.4615036"><ele>609.0</ele><time>2026-05-03T07:12:10.325Z</time></trkpt><trkpt lat="42.3446819" lon="13.4616407"><ele>609.75</ele><time>2026-05-03T07:12:11.325Z</time></trkpt><trkpt lat="42.3448049" lon="13.4617816"><ele>610.5</ele><time>2026-05-03T07:12:12.323Z</time></trkpt><trkpt lat="42.3449182" lon="13.4618985"><ele>611.25</ele><time>2026-05-03T07:12:13.321Z</time></trkpt><trkpt lat="42.3450158" lon="13.462002"><ele>612.0</ele><time>2026-05-03T07:12:14.318Z</time></trkpt><trkpt lat="42.3451094" lon="13.4620933"><ele>612.0</ele><time>2026-05-03T07:12:15.322Z</time></trkpt><trkpt lat="42.3451996" lon="13.462166"><ele>612.0</ele><time>2026-05-03T07:12:16.322Z</time></trkpt><trkpt lat="42.3453014" lon="13.4622495"><ele>612.0</ele><time>2026-05-03T07:12:17.326Z</time></trkpt><trkpt lat="42.3453832" lon="13.4623315"><ele>612.0</ele><time>2026-05-03T07:12:18.322Z</time></trkpt><trkpt lat="42.3454566" lon="13.4623951"><ele>612.0</ele><time>2026-05-03T07:12:19.316Z</time></trkpt><trkpt lat="42.3455145" lon="13.4624354"><ele>612.0</ele><time>2026-05-03T07:12:20.32Z</time></trkpt><trkpt lat="42.3455762" lon="13.4625112"><ele>612.0</ele><time>2026-05-03T07:12:22.309Z</time></trkpt><trkpt lat="42.3455407" lon="13.4626069"><ele>612.0</ele><time>2026-05-03T07:12:24.316Z</time></trkpt><trkpt lat="42.345452" lon="13.4627171"><ele>612.0</ele><time>2026-05-03T07:12:26.322Z</time></trkpt><trkpt lat="42.3454025" lon="13.4627778"><ele>612.0</ele><time>2026-05-03T07:12:27.322Z</time></trkpt><trkpt lat="42.3453496" lon="13.4628362"><ele>612.0</ele><time>2026-05-03T07:12:28.321Z</time></trkpt><trkpt lat="42.3453033" lon="13.4629037"><ele>612.4</ele><time>2026-05-03T07:12:29.312Z</time></trkpt><trkpt lat="42.3452587" lon="13.4629782"><ele>612.8000000000001</ele><time>2026-05-03T07:12:30.318Z</time></trkpt><trkpt lat="42.3451864" lon="13.4630992"><ele>613.2</ele><time>2026-05-03T07:12:32.31Z</time></trkpt><trkpt lat="42.3451197" lon="13.4632137"><ele>613.6</ele><time>2026-05-03T07:12:34.315Z</time></trkpt><trkpt lat="42.345046" lon="13.4633065"><ele>614.0</ele><time>2026-05-03T07:12:36.321Z</time></trkpt><trkpt lat="42.3449934" lon="13.4634013"><ele>614.0</ele><time>2026-05-03T07:12:38.307Z</time></trkpt><trkpt lat="42.3449291" lon="13.463548"><ele>614.0</ele><time>2026-05-03T07:12:40.32Z</time></trkpt><trkpt lat="42.3448912" lon="13.4636205"><ele>614.0</ele><time>2026-05-03T07:12:41.321Z</time></trkpt><trkpt lat="42.3448456" lon="13.4637581"><ele>614.0</ele><time>2026-05-03T07:12:43.318Z</time></trkpt><trkpt lat="42.3448126" lon="13.4638891"><ele>614.0</ele><time>2026-05-03T07:12:45.316Z</time></trkpt><trkpt lat="42.3448543" lon="13.4637734"><ele>614.0</ele><time>2026-05-03T07:13:18.31Z</time></trkpt><trkpt lat="42.3448473" lon="13.4636245"><ele>614.0</ele><time>2026-05-03T07:13:20.31Z</time></trkpt><trkpt lat="42.3448723" lon="13.4634835"><ele>614.0</ele><time>2026-05-03T07:13:22.323Z</time></trkpt><trkpt lat="42.3449459" lon="13.4633727"><ele>614.0</ele><time>2026-05-03T07:13:24.318Z</time></trkpt><trkpt lat="42.3449887" lon="13.4633008"><ele>614.0</ele><time>2026-05-03T07:13:25.319Z</time></trkpt><trkpt lat="42.345035" lon="13.4632232"><ele>614.0</ele><time>2026-05-03T07:13:26.321Z</time></trkpt><trkpt lat="42.3450785" lon="13.4631598"><ele>614.0</ele><time>2026-05-03T07:13:27.318Z</time></trkpt><trkpt lat="42.3451485" lon="13.463024"><ele>614.0</ele><time>2026-05-03T07:13:29.323Z</time></trkpt><trkpt lat="42.3452325" lon="13.4629067"><ele>614.0</ele><time>2026-05-03T07:13:31.323Z</time></trkpt><trkpt lat="42.3452822" lon="13.4628465"><ele>614.0</ele><time>2026-05-03T07:13:32.318Z</time></trkpt><trkpt lat="42.3453518" lon="13.4627518"><ele>614.1666666666666</ele><time>2026-05-03T07:13:34.315Z</time></trkpt><trkpt lat="42.3454113" lon="13.4626692"><ele>614.3333333333333</ele><time>2026-05-03T07:13:36.317Z</time></trkpt><trkpt lat="42.3454668" lon="13.4626022"><ele>614.5</ele><time>2026-05-03T07:13:38.314Z</time></trkpt><trkpt lat="42.3455171" lon="13.4625374"><ele>614.6666666666666</ele><time>2026-05-03T07:13:46.332Z</time></trkpt><trkpt lat="42.3456059" lon="13.4625384"><ele>614.8333333333334</ele><time>2026-05-03T07:13:49.328Z</time></trkpt><trkpt lat="42.3456165" lon="13.4626236"><ele>615.0</ele><time>2026-05-03T07:13:51.332Z</time></trkpt><trkpt lat="42.345576" lon="13.4627174"><ele>614.8333333333334</ele><time>2026-05-03T07:15:33.315Z</time></trkpt><trkpt lat="42.3455014" lon="13.4628159"><ele>614.6666666666666</ele><time>2026-05-03T07:15:35.318Z</time></trkpt><trkpt lat="42.3454439" lon="13.4628832"><ele>614.5</ele><time>2026-05-03T07:15:36.336Z</time></trkpt><trkpt lat="42.3453701" lon="13.4629563"><ele>614.3333333333333</ele><time>2026-05-03T07:15:37.322Z</time></trkpt><trkpt lat="42.3453137" lon="13.463029"><ele>614.1666666666666</ele><time>2026-05-03T07:15:38.326Z</time></trkpt><trkpt lat="42.3452745" lon="13.4631068"><ele>614.0</ele><time>2026-05-03T07:15:39.325Z</time></trkpt><trkpt lat="42.3452373" lon="13.4631954"><ele>614.0</ele><time>2026-05-03T07:15:40.329Z</time></trkpt><trkpt lat="42.3451991" lon="13.4632794"><ele>614.0</ele><time>2026-05-03T07:15:41.326Z</time></trkpt><trkpt lat="42.3451566" lon="13.4633692"><ele>614.0</ele><time>2026-05-03T07:15:42.329Z</time></trkpt><trkpt lat="42.3451149" lon="13.4634498"><ele>614.0</ele><time>2026-05-03T07:15:43.321Z</time></trkpt><trkpt lat="42.3450736" lon="13.463535"><ele>614.0</ele><time>2026-05-03T07:15:44.327Z</time></trkpt><trkpt lat="42.3450489" lon="13.463622"><ele>614.0</ele><time>2026-05-03T07:15:45.326Z</time></trkpt><trkpt lat="42.3450143" lon="13.4637276"><ele>614.2</ele><time>2026-05-03T07:15:46.319Z</time></trkpt><trkpt lat="42.3449805" lon="13.4638586"><ele>614.4</ele><time>2026-05-03T07:15:47.322Z</time></trkpt><trkpt lat="42.3449516" lon="13.4640069"><ele>614.6</ele><time>2026-05-03T07:15:48.328Z</time></trkpt><trkpt lat="42.3449316" lon="13.4641678"><ele>614.8</ele><time>2026-05-03T07:15:49.323Z</time></trkpt><trkpt lat="42.3449167" lon="13.4643085"><ele>615.0</ele><time>2026-05-03T07:15:50.331Z</time></trkpt><trkpt lat="42.3448758" lon="13.4644415"><ele>615.0</ele><time>2026-05-03T07:15:51.324Z</time></trkpt><trkpt lat="42.3448306" lon="13.4645637"><ele>615.0</ele><time>2026-05-03T07:15:52.325Z</time></trkpt><trkpt lat="42.344795" lon="13.4646765"><ele>615.0</ele><time>2026-05-03T07:15:53.322Z</time></trkpt><trkpt lat="42.3447743" lon="13.4647868"><ele>615.0</ele><time>2026-05-03T07:15:54.323Z</time></trkpt><trkpt lat="42.3447517" lon="13.4648907"><ele>615.0</ele><time>2026-05-03T07:15:55.323Z</time></trkpt><trkpt lat="42.3447301" lon="13.4650027"><ele>615.0</ele><time>2026-05-03T07:15:56.329Z</time></trkpt><trkpt lat="42.3446982" lon="13.4651106"><ele>614.8</ele><time>2026-05-03T07:15:57.328Z</time></trkpt><trkpt lat="42.3446647" lon="13.4652259"><ele>614.6</ele><time>2026-05-03T07:15:58.331Z</time></trkpt><trkpt lat="42.3446265" lon="13.4653557"><ele>614.4</ele><time>2026-05-03T07:15:59.328Z</time></trkpt><trkpt lat="42.3445887" lon="13.4654861"><ele>614.2</ele><time>2026-05-03T07:16:00.315Z</time></trkpt><trkpt lat="42.3445454" lon="13.4656096"><ele>614.0</ele><time>2026-05-03T07:16:01.33Z</time></trkpt><trkpt lat="42.3445016" lon="13.4657383"><ele>614.0</ele><time>2026-05-03T07:16:02.331Z</time></trkpt><trkpt lat="42.3444622" lon="13.4658508"><ele>614.0</ele><time>2026-05-03T07:16:03.32Z</time></trkpt><trkpt lat="42.3444282" lon="13.4659278"><ele>614.0</ele><time>2026-05-03T07:16:04.319Z</time></trkpt><trkpt lat="42.3443903" lon="13.4660431"><ele>614.0</ele><time>2026-05-03T07:16:06.319Z</time></trkpt><trkpt lat="42.3444707" lon="13.466112"><ele>614.0</ele><time>2026-05-03T07:16:09.326Z</time></trkpt><trkpt lat="42.3445318" lon="13.4661446"><ele>614.0</ele><time>2026-05-03T07:16:10.322Z</time></trkpt><trkpt lat="42.3446051" lon="13.4661705"><ele>614.0</ele><time>2026-05-03T07:16:11.319Z</time></trkpt><trkpt lat="42.3446999" lon="13.4662057"><ele>614.0</ele><time>2026-05-03T07:16:12.32Z</time></trkpt><trkpt lat="42.3448021" lon="13.4662388"><ele>614.0</ele><time>2026-05-03T07:16:13.325Z</time></trkpt><trkpt lat="42.3449099" lon="13.4662688"><ele>614.0</ele><time>2026-05-03T07:16:14.328Z</time></trkpt><trkpt lat="42.3450191" lon="13.4662807"><ele>614.0</ele><time>2026-05-03T07:16:15.326Z</time></trkpt><trkpt lat="42.34513" lon="13.4662864"><ele>614.2</ele><time>2026-05-03T07:16:16.331Z</time></trkpt><trkpt lat="42.3452472" lon="13.4662861"><ele>614.4</ele><time>2026-05-03T07:16:17.324Z</time></trkpt><trkpt lat="42.3453604" lon="13.4662724"><ele>614.6</ele><time>2026-05-03T07:16:18.331Z</time></trkpt><trkpt lat="42.3454538" lon="13.466261"><ele>614.8</ele><time>2026-05-03T07:16:19.319Z</time></trkpt><trkpt lat="42.3455508" lon="13.466288"><ele>615.0</ele><time>2026-05-03T07:16:20.334Z</time></trkpt><trkpt lat="42.3456501" lon="13.4663428"><ele>616.0</ele><time>2026-05-03T07:16:21.321Z</time></trkpt><trkpt lat="42.3457585" lon="13.4664105"><ele>617.0</ele><time>2026-05-03T07:16:22.331Z</time></trkpt><trkpt lat="42.3458698" lon="13.4664951"><ele>618.0</ele><time>2026-05-03T07:16:23.331Z</time></trkpt><trkpt lat="42.3459824" lon="13.4665682"><ele>619.0</ele><time>2026-05-03T07:16:24.331Z</time></trkpt><trkpt lat="42.3460752" lon="13.4666303"><ele>619.0</ele><time>2026-05-03T07:16:25.329Z</time></trkpt><trkpt lat="42.3461595" lon="13.4666792"><ele>619.0</ele><time>2026-05-03T07:16:26.329Z</time></trkpt><trkpt lat="42.3462383" lon="13.4667289"><ele>619.0</ele><time>2026-05-03T07:16:27.331Z</time></trkpt><trkpt lat="42.3463262" lon="13.4667949"><ele>619.0</ele><time>2026-05-03T07:16:28.328Z</time></trkpt><trkpt lat="42.3464038" lon="13.4668773"><ele>619.0</ele><time>2026-05-03T07:16:29.334Z</time></trkpt><trkpt lat="42.3464823" lon="13.4669842"><ele>619.5</ele><time>2026-05-03T07:16:30.323Z</time></trkpt><trkpt lat="42.3465545" lon="13.4671084"><ele>620.0</ele><time>2026-05-03T07:16:31.325Z</time></trkpt><trkpt lat="42.3466268" lon="13.4672506"><ele>620.5</ele><time>2026-05-03T07:16:32.326Z</time></trkpt><trkpt lat="42.3467092" lon="13.4673847"><ele>621.0</ele><time>2026-05-03T07:16:33.318Z</time></trkpt><trkpt lat="42.3467847" lon="13.46751"><ele>621.0</ele><time>2026-05-03T07:16:34.323Z</time></trkpt><trkpt lat="42.3468497" lon="13.4676173"><ele>621.0</ele><time>2026-05-03T07:16:35.321Z</time></trkpt><trkpt lat="42.3469128" lon="13.4676982"><ele>621.0</ele><time>2026-05-03T07:16:36.321Z</time></trkpt><trkpt lat="42.3469664" lon="13.4677816"><ele>621.0</ele><time>2026-05-03T07:16:37.322Z</time></trkpt><trkpt lat="42.3470141" lon="13.4678427"><ele>621.0</ele><time>2026-05-03T07:16:38.334Z</time></trkpt><trkpt lat="42.3470828" lon="13.4678786"><ele>621.0</ele><time>2026-05-03T07:16:39.33Z</time></trkpt><trkpt lat="42.3471569" lon="13.4678943"><ele>621.3333333333334</ele><time>2026-05-03T07:16:40.313Z</time></trkpt><trkpt lat="42.3472332" lon="13.4678779"><ele>621.6666666666666</ele><time>2026-05-03T07:16:41.329Z</time></trkpt><trkpt lat="42.3473215" lon="13.4678316"><ele>622.0</ele><time>2026-05-03T07:16:42.32Z</time></trkpt><trkpt lat="42.3474003" lon="13.467815"><ele>622.3333333333333</ele><time>2026-05-03T07:16:43.327Z</time></trkpt><trkpt lat="42.3474791" lon="13.4678042"><ele>622.6666666666666</ele><time>2026-05-03T07:16:44.327Z</time></trkpt><trkpt lat="42.3475488" lon="13.4678126"><ele>623.0</ele><time>2026-05-03T07:16:45.32Z</time></trkpt><trkpt lat="42.3476285" lon="13.4678457"><ele>623.0</ele><time>2026-05-03T07:16:46.327Z</time></trkpt><trkpt lat="42.3476995" lon="13.4678856"><ele>623.0</ele><time>2026-05-03T07:16:47.329Z</time></trkpt><trkpt lat="42.3477688" lon="13.4679343"><ele>623.0</ele><time>2026-05-03T07:16:48.329Z</time></trkpt><trkpt lat="42.3478426" lon="13.4679663"><ele>623.0</ele><time>2026-05-03T07:16:49.327Z</time></trkpt><trkpt lat="42.3479264" lon="13.4679918"><ele>623.0</ele><time>2026-05-03T07:16:50.331Z</time></trkpt><trkpt lat="42.3480078" lon="13.4680128"><ele>623.0</ele><time>2026-05-03T07:16:51.325Z</time></trkpt><trkpt lat="42.3481021" lon="13.4680367"><ele>623.4</ele><time>2026-05-03T07:16:52.333Z</time></trkpt><trkpt lat="42.3481956" lon="13.4680663"><ele>623.8</ele><time>2026-05-03T07:16:53.329Z</time></trkpt><trkpt lat="42.3482863" lon="13.4680972"><ele>624.2</ele><time>2026-05-03T07:16:54.327Z</time></trkpt><trkpt lat="42.3483818" lon="13.4681349"><ele>624.6</ele><time>2026-05-03T07:16:55.327Z</time></trkpt><trkpt lat="42.3484875" lon="13.468183"><ele>625.0</ele><time>2026-05-03T07:16:56.325Z</time></trkpt><trkpt lat="42.3485907" lon="13.4682308"><ele>625.0</ele><time>2026-05-03T07:16:57.331Z</time></trkpt><trkpt lat="42.3486914" lon="13.4682873"><ele>625.0</ele><time>2026-05-03T07:16:58.326Z</time></trkpt><trkpt lat="42.3487962" lon="13.4683373"><ele>625.0</ele><time>2026-05-03T07:16:59.329Z</time></trkpt><trkpt lat="42.3489046" lon="13.4683716"><ele>625.0</ele><time>2026-05-03T07:17:00.331Z</time></trkpt><trkpt lat="42.3490033" lon="13.4684021"><ele>625.0</ele><time>2026-05-03T07:17:01.332Z</time></trkpt><trkpt lat="42.3491053" lon="13.4684275"><ele>625.5</ele><time>2026-05-03T07:17:02.329Z</time></trkpt><trkpt lat="42.3492008" lon="13.4684613"><ele>626.0</ele><time>2026-05-03T07:17:03.325Z</time></trkpt><trkpt lat="42.3492842" lon="13.4684779"><ele>626.5</ele><time>2026-05-03T07:17:04.322Z</time></trkpt><trkpt lat="42.3493539" lon="13.4684724"><ele>627.0</ele><time>2026-05-03T07:17:05.324Z</time></trkpt><trkpt lat="42.3494236" lon="13.4684849"><ele>627.5</ele><time>2026-05-03T07:17:06.324Z</time></trkpt><trkpt lat="42.3494901" lon="13.4684881"><ele>628.0</ele><time>2026-05-03T07:17:07.32Z</time></trkpt><trkpt lat="42.3495665" lon="13.4684943"><ele>628.0</ele><time>2026-05-03T07:17:08.319Z</time></trkpt><trkpt lat="42.3496565" lon="13.4684962"><ele>628.0</ele><time>2026-05-03T07:17:09.338Z</time></trkpt><trkpt lat="42.3497566" lon="13.4684948"><ele>628.0</ele><time>2026-05-03T07:17:10.321Z</time></trkpt><trkpt lat="42.3498575" lon="13.4684817"><ele>628.0</ele><time>2026-05-03T07:17:11.318Z</time></trkpt><trkpt lat="42.3499535" lon="13.4684713"><ele>628.0</ele><time>2026-05-03T07:17:12.32Z</time></trkpt><trkpt lat="42.3500595" lon="13.4684853"><ele>628.25</ele><time>2026-05-03T07:17:13.315Z</time></trkpt><trkpt lat="42.3501702" lon="13.4685304"><ele>628.5</ele><time>2026-05-03T07:17:14.322Z</time></trkpt><trkpt lat="42.3502616" lon="13.4686224"><ele>628.75</ele><time>2026-05-03T07:17:15.316Z</time></trkpt><trkpt lat="42.3503542" lon="13.4687414"><ele>629.0</ele><time>2026-05-03T07:17:16.323Z</time></trkpt><trkpt lat="42.350449" lon="13.468854"><ele>629.0</ele><time>2026-05-03T07:17:17.322Z</time></trkpt><trkpt lat="42.3505395" lon="13.4689319"><ele>629.0</ele><time>2026-05-03T07:17:18.319Z</time></trkpt><trkpt lat="42.3506237" lon="13.4689822"><ele>629.0</ele><time>2026-05-03T07:17:19.32Z</time></trkpt><trkpt lat="42.3507122" lon="13.4690057"><ele>629.0</ele><time>2026-05-03T07:17:20.322Z</time></trkpt><trkpt lat="42.3507944" lon="13.4690254"><ele>629.0</ele><time>2026-05-03T07:17:21.318Z</time></trkpt><trkpt lat="42.3508705" lon="13.4690395"><ele>629.3333333333333</ele><time>2026-05-03T07:17:22.323Z</time></trkpt><trkpt lat="42.350945" lon="13.469051"><ele>629.6666666666666</ele><time>2026-05-03T07:17:23.325Z</time></trkpt><trkpt lat="42.3510175" lon="13.4690525"><ele>630.0</ele><time>2026-05-03T07:17:24.323Z</time></trkpt><trkpt lat="42.3510939" lon="13.4690257"><ele>630.3333333333334</ele><time>2026-05-03T07:17:25.323Z</time></trkpt><trkpt lat="42.3511697" lon="13.4689927"><ele>630.6666666666667</ele><time>2026-05-03T07:17:26.324Z</time></trkpt><trkpt lat="42.3512396" lon="13.4689464"><ele>631.0</ele><time>2026-05-03T07:17:27.321Z</time></trkpt><trkpt lat="42.351306" lon="13.4689006"><ele>632.0</ele><time>2026-05-03T07:17:28.324Z</time></trkpt><trkpt lat="42.3513768" lon="13.468843"><ele>633.0</ele><time>2026-05-03T07:17:29.321Z</time></trkpt><trkpt lat="42.3514334" lon="13.4687714"><ele>634.0</ele><time>2026-05-03T07:17:30.316Z</time></trkpt><trkpt lat="42.3514754" lon="13.4687051"><ele>635.0</ele><time>2026-05-03T07:17:31.324Z</time></trkpt><trkpt lat="42.3515595" lon="13.4686148"><ele>636.0</ele><time>2026-05-03T07:17:33.306Z</time></trkpt><trkpt lat="42.3516943" lon="13.4686811"><ele>636.0</ele><time>2026-05-03T07:17:35.319Z</time></trkpt><trkpt lat="42.3517665" lon="13.4687707"><ele>636.0</ele><time>2026-05-03T07:17:36.311Z</time></trkpt><trkpt lat="42.3518531" lon="13.4688859"><ele>636.0</ele><time>2026-05-03T07:17:37.314Z</time></trkpt><trkpt lat="42.3519365" lon="13.4689957"><ele>636.0</ele><time>2026-05-03T07:17:38.324Z</time></trkpt><trkpt lat="42.3520077" lon="13.4690977"><ele>636.0</ele><time>2026-05-03T07:17:39.321Z</time></trkpt><trkpt lat="42.3520856" lon="13.4691934"><ele>636.0</ele><time>2026-05-03T07:17:40.337Z</time></trkpt><trkpt lat="42.3521709" lon="13.4692867"><ele>636.0</ele><time>2026-05-03T07:17:41.321Z</time></trkpt><trkpt lat="42.3522567" lon="13.4693902"><ele>636.0</ele><time>2026-05-03T07:17:42.325Z</time></trkpt><trkpt lat="42.3523386" lon="13.4694787"><ele>636.0</ele><time>2026-05-03T07:17:43.319Z</time></trkpt><trkpt lat="42.352412" lon="13.4695542"><ele>636.0</ele><time>2026-05-03T07:17:44.327Z</time></trkpt><trkpt lat="42.3524847" lon="13.4696276"><ele>636.6</ele><time>2026-05-03T07:17:45.319Z</time></trkpt><trkpt lat="42.3525593" lon="13.469705"><ele>637.2</ele><time>2026-05-03T07:17:46.317Z</time></trkpt><trkpt lat="42.3526399" lon="13.4697888"><ele>637.8</ele><time>2026-05-03T07:17:47.322Z</time></trkpt><trkpt lat="42.3527169" lon="13.4698717"><ele>638.4</ele><time>2026-05-03T07:17:48.321Z</time></trkpt><trkpt lat="42.352792" lon="13.4699607"><ele>639.0</ele><time>2026-05-03T07:17:49.318Z</time></trkpt><trkpt lat="42.352866" lon="13.4700539"><ele>639.0</ele><time>2026-05-03T07:17:50.32Z</time></trkpt><trkpt lat="42.3529348" lon="13.4701586"><ele>639.0</ele><time>2026-05-03T07:17:51.319Z</time></trkpt><trkpt lat="42.3530049" lon="13.4702688"><ele>639.0</ele><time>2026-05-03T07:17:52.32Z</time></trkpt><trkpt lat="42.3530818" lon="13.4703843"><ele>639.0</ele><time>2026-05-03T07:17:53.319Z</time></trkpt><trkpt lat="42.353158" lon="13.4705017"><ele>639.0</ele><time>2026-05-03T07:17:54.318Z</time></trkpt><trkpt lat="42.353223" lon="13.470616"><ele>639.6</ele><time>2026-05-03T07:17:55.32Z</time></trkpt><trkpt lat="42.3532806" lon="13.4707204"><ele>640.2</ele><time>2026-05-03T07:17:56.318Z</time></trkpt><trkpt lat="42.3533402" lon="13.4708274"><ele>640.8000000000001</ele><time>2026-05-03T07:17:57.322Z</time></trkpt><trkpt lat="42.353387" lon="13.4709362"><ele>641.4</ele><time>2026-05-03T07:17:58.32Z</time></trkpt><trkpt lat="42.3534317" lon="13.4710607"><ele>642.0</ele><time>2026-05-03T07:17:59.329Z</time></trkpt><trkpt lat="42.3534882" lon="13.4711806"><ele>642.0</ele><time>2026-05-03T07:18:00.314Z</time></trkpt><trkpt lat="42.3535475" lon="13.4712787"><ele>642.0</ele><time>2026-05-03T07:18:01.318Z</time></trkpt><trkpt lat="42.3536013" lon="13.4713466"><ele>642.0</ele><time>2026-05-03T07:18:02.323Z</time></trkpt><trkpt lat="42.3536564" lon="13.471408"><ele>642.0</ele><time>2026-05-03T07:18:04.316Z</time></trkpt><trkpt lat="42.3537212" lon="13.471469"><ele>642.0</ele><time>2026-05-03T07:18:08.32Z</time></trkpt><trkpt lat="42.3538111" lon="13.4715176"><ele>642.0</ele><time>2026-05-03T07:18:13.314Z</time></trkpt><trkpt lat="42.3539302" lon="13.4715046"><ele>642.3333333333334</ele><time>2026-05-03T07:18:15.311Z</time></trkpt><trkpt lat="42.3540054" lon="13.4714844"><ele>642.6666666666666</ele><time>2026-05-03T07:18:16.321Z</time></trkpt><trkpt lat="42.3540804" lon="13.471457"><ele>643.0</ele><time>2026-05-03T07:18:17.314Z</time></trkpt><trkpt lat="42.3541614" lon="13.471427"><ele>643.3333333333333</ele><time>2026-05-03T07:18:18.314Z</time></trkpt><trkpt lat="42.3542542" lon="13.4714081"><ele>643.6666666666666</ele><time>2026-05-03T07:18:19.314Z</time></trkpt><trkpt lat="42.3543423" lon="13.4713913"><ele>644.0</ele><time>2026-05-03T07:18:20.315Z</time></trkpt><trkpt lat="42.3544195" lon="13.471373"><ele>644.0</ele><time>2026-05-03T07:18:21.311Z</time></trkpt><trkpt lat="42.3545232" lon="13.4713905"><ele>644.0</ele><time>2026-05-03T07:18:23.319Z</time></trkpt><trkpt lat="42.3545757" lon="13.4714534"><ele>644.0</ele><time>2026-05-03T07:18:25.321Z</time></trkpt><trkpt lat="42.3546312" lon="13.4715475"><ele>644.0</ele><time>2026-05-03T07:18:27.32Z</time></trkpt><trkpt lat="42.3546834" lon="13.4716068"><ele>644.0</ele><time>2026-05-03T07:18:28.323Z</time></trkpt><trkpt lat="42.3547364" lon="13.471672"><ele>644.0</ele><time>2026-05-03T07:18:29.327Z</time></trkpt><trkpt lat="42.3548052" lon="13.4717375"><ele>644.6</ele><time>2026-05-03T07:18:30.32Z</time></trkpt><trkpt lat="42.354871" lon="13.4718146"><ele>645.2</ele><time>2026-05-03T07:18:31.319Z</time></trkpt><trkpt lat="42.3549407" lon="13.4719142"><ele>645.8000000000001</ele><time>2026-05-03T07:18:32.31Z</time></trkpt><trkpt lat="42.3550175" lon="13.4720075"><ele>646.4000000000001</ele><time>2026-05-03T07:18:33.315Z</time></trkpt><trkpt lat="42.3550932" lon="13.4720991"><ele>647.0</ele><time>2026-05-03T07:18:34.317Z</time></trkpt><trkpt lat="42.355171" lon="13.4721964"><ele>647.0</ele><time>2026-05-03T07:18:35.317Z</time></trkpt><trkpt lat="42.3552483" lon="13.472286"><ele>647.0</ele><time>2026-05-03T07:18:36.319Z</time></trkpt><trkpt lat="42.3553244" lon="13.4723767"><ele>647.0</ele><time>2026-05-03T07:18:37.318Z</time></trkpt><trkpt lat="42.3553948" lon="13.4724754"><ele>647.0</ele><time>2026-05-03T07:18:38.32Z</time></trkpt><trkpt lat="42.3554625" lon="13.4725722"><ele>647.0</ele><time>2026-05-03T07:18:39.322Z</time></trkpt><trkpt lat="42.3555296" lon="13.4726632"><ele>647.4000000000001</ele><time>2026-05-03T07:18:40.324Z</time></trkpt><trkpt lat="42.3556051" lon="13.4727405"><ele>647.8000000000001</ele><time>2026-05-03T07:18:41.322Z</time></trkpt><trkpt lat="42.3556838" lon="13.4728126"><ele>648.2</ele><time>2026-05-03T07:18:42.339Z</time></trkpt><trkpt lat="42.3557622" lon="13.4728943"><ele>648.6</ele><time>2026-05-03T07:18:43.319Z</time></trkpt><trkpt lat="42.3558416" lon="13.4729848"><ele>649.0</ele><time>2026-05-03T07:18:44.323Z</time></trkpt><trkpt lat="42.3559251" lon="13.4730732"><ele>649.1666666666667</ele><time>2026-05-03T07:18:45.319Z</time></trkpt><trkpt lat="42.3560036" lon="13.4731551"><ele>649.3333333333334</ele><time>2026-05-03T07:18:46.316Z</time></trkpt><trkpt lat="42.3560845" lon="13.4732316"><ele>649.5</ele><time>2026-05-03T07:18:47.316Z</time></trkpt><trkpt lat="42.3561595" lon="13.4733016"><ele>649.6666666666666</ele><time>2026-05-03T07:18:48.323Z</time></trkpt><trkpt lat="42.3562213" lon="13.4733647"><ele>649.8333333333333</ele><time>2026-05-03T07:18:49.322Z</time></trkpt><trkpt lat="42.35628" lon="13.4734187"><ele>650.0</ele><time>2026-05-03T07:18:50.327Z</time></trkpt><trkpt lat="42.3563473" lon="13.4734623"><ele>650.5</ele><time>2026-05-03T07:18:51.324Z</time></trkpt><trkpt lat="42.3564091" lon="13.4734874"><ele>651.0</ele><time>2026-05-03T07:18:52.326Z</time></trkpt><trkpt lat="42.3565316" lon="13.4735368"><ele>651.5</ele><time>2026-05-03T07:18:54.329Z</time></trkpt><trkpt lat="42.3565895" lon="13.4735825"><ele>652.0</ele><time>2026-05-03T07:18:55.317Z</time></trkpt><trkpt lat="42.3566375" lon="13.4736483"><ele>652.5</ele><time>2026-05-03T07:18:56.33Z</time></trkpt><trkpt lat="42.3566691" lon="13.4737535"><ele>653.0</ele><time>2026-05-03T07:18:57.324Z</time></trkpt><trkpt lat="42.3566977" lon="13.4738689"><ele>653.5999999999999</ele><time>2026-05-03T07:18:58.326Z</time></trkpt><trkpt lat="42.3567312" lon="13.4740043"><ele>654.1999999999999</ele><time>2026-05-03T07:18:59.323Z</time></trkpt><trkpt lat="42.3567689" lon="13.4741371"><ele>654.8</ele><time>2026-05-03T07:19:00.324Z</time></trkpt><trkpt lat="42.3568017" lon="13.4742555"><ele>655.4</ele><time>2026-05-03T07:19:01.329Z</time></trkpt><trkpt lat="42.3568367" lon="13.4743712"><ele>656.0</ele><time>2026-05-03T07:19:02.326Z</time></trkpt><trkpt lat="42.356876" lon="13.474489"><ele>657.8</ele><time>2026-05-03T07:19:03.325Z</time></trkpt><trkpt lat="42.3569196" lon="13.474606"><ele>659.5999999999999</ele><time>2026-05-03T07:19:04.327Z</time></trkpt><trkpt lat="42.3569692" lon="13.4747201"><ele>661.4</ele><time>2026-05-03T07:19:05.325Z</time></trkpt><trkpt lat="42.3570122" lon="13.4748235"><ele>663.2</ele><time>2026-05-03T07:19:06.325Z</time></trkpt><trkpt lat="42.3570517" lon="13.4749277"><ele>665.0</ele><time>2026-05-03T07:19:07.323Z</time></trkpt><trkpt lat="42.3570844" lon="13.4750279"><ele>665.0</ele><time>2026-05-03T07:19:08.326Z</time></trkpt><trkpt lat="42.3571166" lon="13.4751242"><ele>665.0</ele><time>2026-05-03T07:19:09.32Z</time></trkpt><trkpt lat="42.3571546" lon="13.4752269"><ele>665.0</ele><time>2026-05-03T07:19:10.321Z</time></trkpt><trkpt lat="42.3571781" lon="13.4753482"><ele>665.0</ele><time>2026-05-03T07:19:11.316Z</time></trkpt><trkpt lat="42.3572072" lon="13.4754685"><ele>665.0</ele><time>2026-05-03T07:19:12.322Z</time></trkpt><trkpt lat="42.357223" lon="13.4755954"><ele>665.0</ele><time>2026-05-03T07:19:13.345Z</time></trkpt><trkpt lat="42.3572458" lon="13.4757112"><ele>667.2</ele><time>2026-05-03T07:19:14.312Z</time></trkpt><trkpt lat="42.3572601" lon="13.4758324"><ele>669.4</ele><time>2026-05-03T07:19:15.311Z</time></trkpt><trkpt lat="42.3572784" lon="13.4759405"><ele>671.5999999999999</ele><time>2026-05-03T07:19:16.312Z</time></trkpt><trkpt lat="42.3572766" lon="13.4760659"><ele>673.8</ele><time>2026-05-03T07:19:17.321Z</time></trkpt><trkpt lat="42.3572651" lon="13.4761965"><ele>676.0</ele><time>2026-05-03T07:19:18.317Z</time></trkpt><trkpt lat="42.3572534" lon="13.476332"><ele>677.4</ele><time>2026-05-03T07:19:19.323Z</time></trkpt><trkpt lat="42.3572419" lon="13.4764705"><ele>678.8</ele><time>2026-05-03T07:19:20.324Z</time></trkpt><trkpt lat="42.3572409" lon="13.4766341"><ele>680.1999999999999</ele><time>2026-05-03T07:19:21.32Z</time></trkpt><trkpt lat="42.3572439" lon="13.4767993"><ele>681.5999999999999</ele><time>2026-05-03T07:19:22.33Z</time></trkpt><trkpt lat="42.3572431" lon="13.4769373"><ele>683.0</ele><time>2026-05-03T07:19:23.327Z</time></trkpt><trkpt lat="42.3572597" lon="13.4770665"><ele>684.0</ele><time>2026-05-03T07:19:24.326Z</time></trkpt><trkpt lat="42.3572818" lon="13.47719"><ele>685.0</ele><time>2026-05-03T07:19:25.324Z</time></trkpt><trkpt lat="42.3573078" lon="13.4772916"><ele>686.0</ele><time>2026-05-03T07:19:26.318Z</time></trkpt><trkpt lat="42.3573326" lon="13.4773784"><ele>687.0</ele><time>2026-05-03T07:19:27.322Z</time></trkpt><trkpt lat="42.3573452" lon="13.4774646"><ele>688.0</ele><time>2026-05-03T07:19:28.318Z</time></trkpt><trkpt lat="42.3573447" lon="13.4776385"><ele>689.0</ele><time>2026-05-03T07:19:30.32Z</time></trkpt><trkpt lat="42.3573466" lon="13.4777431"><ele>689.0</ele><time>2026-05-03T07:19:31.321Z</time></trkpt><trkpt lat="42.357359" lon="13.4778608"><ele>689.0</ele><time>2026-05-03T07:19:32.318Z</time></trkpt><trkpt lat="42.3573781" lon="13.4779806"><ele>689.0</ele><time>2026-05-03T07:19:33.316Z</time></trkpt><trkpt lat="42.3573998" lon="13.478099"><ele>689.0</ele><time>2026-05-03T07:19:34.321Z</time></trkpt><trkpt lat="42.357425" lon="13.4782137"><ele>689.0</ele><time>2026-05-03T07:19:35.316Z</time></trkpt><trkpt lat="42.3574597" lon="13.4783288"><ele>689.0</ele><time>2026-05-03T07:19:36.321Z</time></trkpt><trkpt lat="42.3574994" lon="13.4784443"><ele>690.3333333333333</ele><time>2026-05-03T07:19:37.324Z</time></trkpt><trkpt lat="42.3575328" lon="13.478536"><ele>691.6666666666666</ele><time>2026-05-03T07:19:38.324Z</time></trkpt><trkpt lat="42.3575575" lon="13.4786318"><ele>693.0</ele><time>2026-05-03T07:19:39.313Z</time></trkpt><trkpt lat="42.3575721" lon="13.4787378"><ele>694.3333333333334</ele><time>2026-05-03T07:19:40.321Z</time></trkpt><trkpt lat="42.3575905" lon="13.4788522"><ele>695.6666666666667</ele><time>2026-05-03T07:19:41.322Z</time></trkpt><trkpt lat="42.3576104" lon="13.4789599"><ele>697.0</ele><time>2026-05-03T07:19:42.321Z</time></trkpt><trkpt lat="42.3576302" lon="13.4790661"><ele>698.5</ele><time>2026-05-03T07:19:43.338Z</time></trkpt><trkpt lat="42.3576382" lon="13.4791731"><ele>700.0</ele><time>2026-05-03T07:19:44.324Z</time></trkpt><trkpt lat="42.3576514" lon="13.4792859"><ele>701.5</ele><time>2026-05-03T07:19:45.325Z</time></trkpt><trkpt lat="42.3576574" lon="13.4794024"><ele>703.0</ele><time>2026-05-03T07:19:46.324Z</time></trkpt><trkpt lat="42.3576649" lon="13.4795095"><ele>704.5</ele><time>2026-05-03T07:19:47.325Z</time></trkpt><trkpt lat="42.3576801" lon="13.4796226"><ele>706.0</ele><time>2026-05-03T07:19:48.323Z</time></trkpt><trkpt lat="42.3576941" lon="13.4797354"><ele>707.8</ele><time>2026-05-03T07:19:49.321Z</time></trkpt><trkpt lat="42.3577145" lon="13.4798517"><ele>709.5999999999999</ele><time>2026-05-03T07:19:50.327Z</time></trkpt><trkpt lat="42.3577357" lon="13.4799766"><ele>711.4</ele><time>2026-05-03T07:19:51.323Z</time></trkpt><trkpt lat="42.3577534" lon="13.4800904"><ele>713.2</ele><time>2026-05-03T07:19:52.323Z</time></trkpt><trkpt lat="42.3577642" lon="13.4802157"><ele>715.0</ele><time>2026-05-03T07:19:53.32Z</time></trkpt><trkpt lat="42.3577638" lon="13.4803384"><ele>716.3333333333334</ele><time>2026-05-03T07:19:54.317Z</time></trkpt><trkpt lat="42.3577473" lon="13.4804566"><ele>717.6666666666667</ele><time>2026-05-03T07:19:55.315Z</time></trkpt><trkpt lat="42.3577173" lon="13.4805541"><ele>719.0</ele><time>2026-05-03T07:19:56.315Z</time></trkpt><trkpt lat="42.3576904" lon="13.4806724"><ele>720.3333333333334</ele><time>2026-05-03T07:19:57.314Z</time></trkpt><trkpt lat="42.3576816" lon="13.4807827"><ele>721.6666666666666</ele><time>2026-05-03T07:19:58.313Z</time></trkpt><trkpt lat="42.3576931" lon="13.4808849"><ele>723.0</ele><time>2026-05-03T07:19:59.316Z</time></trkpt><trkpt lat="42.3577266" lon="13.4810145"><ele>723.0</ele><time>2026-05-03T07:20:01.321Z</time></trkpt><trkpt lat="42.3577362" lon="13.4811571"><ele>723.0</ele><time>2026-05-03T07:20:03.32Z</time></trkpt><trkpt lat="42.357732" lon="13.4813343"><ele>723.0</ele><time>2026-05-03T07:20:05.322Z</time></trkpt><trkpt lat="42.3577205" lon="13.4814371"><ele>723.0</ele><time>2026-05-03T07:20:06.322Z</time></trkpt><trkpt lat="42.3577082" lon="13.4815435"><ele>723.0</ele><time>2026-05-03T07:20:07.322Z</time></trkpt><trkpt lat="42.3576954" lon="13.4816479"><ele>724.6666666666666</ele><time>2026-05-03T07:20:08.324Z</time></trkpt><trkpt lat="42.3576772" lon="13.4817667"><ele>726.3333333333334</ele><time>2026-05-03T07:20:09.32Z</time></trkpt><trkpt lat="42.3576609" lon="13.4818737"><ele>728.0</ele><time>2026-05-03T07:20:10.319Z</time></trkpt><trkpt lat="42.3576419" lon="13.4819726"><ele>729.6666666666667</ele><time>2026-05-03T07:20:11.319Z</time></trkpt><trkpt lat="42.357625" lon="13.4820575"><ele>731.3333333333334</ele><time>2026-05-03T07:20:12.322Z</time></trkpt><trkpt lat="42.3576065" lon="13.4821457"><ele>733.0</ele><time>2026-05-03T07:20:13.326Z</time></trkpt><trkpt lat="42.3575768" lon="13.4822401"><ele>734.4285714285713</ele><time>2026-05-03T07:20:14.344Z</time></trkpt><trkpt lat="42.3575582" lon="13.4823306"><ele>735.8571428571429</ele><time>2026-05-03T07:20:15.323Z</time></trkpt><trkpt lat="42.3575504" lon="13.4824204"><ele>737.2857142857142</ele><time>2026-05-03T07:20:16.327Z</time></trkpt><trkpt lat="42.357544" lon="13.4825113"><ele>738.7142857142857</ele><time>2026-05-03T07:20:17.327Z</time></trkpt><trkpt lat="42.3575504" lon="13.4825983"><ele>740.1428571428571</ele><time>2026-05-03T07:20:18.327Z</time></trkpt><trkpt lat="42.3575577" lon="13.4827083"><ele>741.5714285714286</ele><time>2026-05-03T07:20:19.331Z</time></trkpt><trkpt lat="42.3575726" lon="13.4828197"><ele>743.0</ele><time>2026-05-03T07:20:20.333Z</time></trkpt><trkpt lat="42.3575877" lon="13.4829267"><ele>744.1666666666666</ele><time>2026-05-03T07:20:21.33Z</time></trkpt><trkpt lat="42.3576011" lon="13.4830282"><ele>745.3333333333333</ele><time>2026-05-03T07:20:22.331Z</time></trkpt><trkpt lat="42.3576081" lon="13.4831394"><ele>746.5</ele><time>2026-05-03T07:20:23.332Z</time></trkpt><trkpt lat="42.357619" lon="13.4832649"><ele>747.6666666666666</ele><time>2026-05-03T07:20:24.33Z</time></trkpt><trkpt lat="42.3576274" lon="13.4833891"><ele>748.8333333333334</ele><time>2026-05-03T07:20:25.328Z</time></trkpt><trkpt lat="42.3576425" lon="13.4835071"><ele>750.0</ele><time>2026-05-03T07:20:26.333Z</time></trkpt><trkpt lat="42.3576561" lon="13.4836149"><ele>750.0</ele><time>2026-05-03T07:20:27.33Z</time></trkpt><trkpt lat="42.3576679" lon="13.4837164"><ele>750.0</ele><time>2026-05-03T07:20:28.326Z</time></trkpt><trkpt lat="42.3576841" lon="13.4838176"><ele>750.0</ele><time>2026-05-03T07:20:29.329Z</time></trkpt><trkpt lat="42.3577187" lon="13.4839446"><ele>750.0</ele><time>2026-05-03T07:20:30.325Z</time></trkpt><trkpt lat="42.3577515" lon="13.4840908"><ele>750.0</ele><time>2026-05-03T07:20:31.329Z</time></trkpt><trkpt lat="42.3577807" lon="13.4842368"><ele>750.8</ele><time>2026-05-03T07:20:32.326Z</time></trkpt><trkpt lat="42.3577976" lon="13.4843796"><ele>751.6</ele><time>2026-05-03T07:20:33.322Z</time></trkpt><trkpt lat="42.3578023" lon="13.4845176"><ele>752.4000000000001</ele><time>2026-05-03T07:20:34.325Z</time></trkpt><trkpt lat="42.357797" lon="13.4846388"><ele>753.2</ele><time>2026-05-03T07:20:35.326Z</time></trkpt><trkpt lat="42.3577827" lon="13.484758"><ele>754.0</ele><time>2026-05-03T07:20:36.323Z</time></trkpt><trkpt lat="42.3577665" lon="13.4848825"><ele>754.6</ele><time>2026-05-03T07:20:37.319Z</time></trkpt><trkpt lat="42.3577517" lon="13.4850208"><ele>755.2</ele><time>2026-05-03T07:20:38.323Z</time></trkpt><trkpt lat="42.3577389" lon="13.4851539"><ele>755.8000000000001</ele><time>2026-05-03T07:20:39.326Z</time></trkpt><trkpt lat="42.3577214" lon="13.4852861"><ele>756.4000000000001</ele><time>2026-05-03T07:20:40.329Z</time></trkpt><trkpt lat="42.3577088" lon="13.4854118"><ele>757.0</ele><time>2026-05-03T07:20:41.327Z</time></trkpt><trkpt lat="42.3576976" lon="13.4855278"><ele>757.0</ele><time>2026-05-03T07:20:42.329Z</time></trkpt><trkpt lat="42.3576934" lon="13.4856247"><ele>757.0</ele><time>2026-05-03T07:20:43.329Z</time></trkpt><trkpt lat="42.3576831" lon="13.4857167"><ele>757.0</ele><time>2026-05-03T07:20:44.331Z</time></trkpt><trkpt lat="42.3576902" lon="13.4858082"><ele>757.0</ele><time>2026-05-03T07:20:45.339Z</time></trkpt><trkpt lat="42.3576993" lon="13.4859053"><ele>757.0</ele><time>2026-05-03T07:20:46.325Z</time></trkpt><trkpt lat="42.3577201" lon="13.4860117"><ele>757.0</ele><time>2026-05-03T07:20:47.326Z</time></trkpt><trkpt lat="42.3577601" lon="13.4861248"><ele>757.0</ele><time>2026-05-03T07:20:48.325Z</time></trkpt><trkpt lat="42.3578171" lon="13.4862471"><ele>757.0</ele><time>2026-05-03T07:20:49.321Z</time></trkpt><trkpt lat="42.3578644" lon="13.4863469"><ele>757.0</ele><time>2026-05-03T07:20:50.322Z</time></trkpt><trkpt lat="42.357915" lon="13.4864397"><ele>757.0</ele><time>2026-05-03T07:20:51.318Z</time></trkpt><trkpt lat="42.3579683" lon="13.4865302"><ele>757.0</ele><time>2026-05-03T07:20:52.322Z</time></trkpt><trkpt lat="42.3580203" lon="13.486613"><ele>757.0</ele><time>2026-05-03T07:20:53.311Z</time></trkpt><trkpt lat="42.3580922" lon="13.4866932"><ele>758.2</ele><time>2026-05-03T07:20:54.301Z</time></trkpt><trkpt lat="42.3581584" lon="13.4867726"><ele>759.4000000000001</ele><time>2026-05-03T07:20:55.301Z</time></trkpt><trkpt lat="42.3582272" lon="13.4868595"><ele>760.5999999999999</ele><time>2026-05-03T07:20:56.294Z</time></trkpt><trkpt lat="42.3582959" lon="13.4869337"><ele>761.8</ele><time>2026-05-03T07:20:57.3Z</time></trkpt><trkpt lat="42.3583644" lon="13.4870277"><ele>763.0</ele><time>2026-05-03T07:20:58.293Z</time></trkpt><trkpt lat="42.3584286" lon="13.4871133"><ele>763.0</ele><time>2026-05-03T07:20:59.304Z</time></trkpt><trkpt lat="42.3584869" lon="13.4871815"><ele>763.0</ele><time>2026-05-03T07:21:00.299Z</time></trkpt><trkpt lat="42.3585462" lon="13.4872619"><ele>763.0</ele><time>2026-05-03T07:21:01.305Z</time></trkpt><trkpt lat="42.3586129" lon="13.4873348"><ele>763.0</ele><time>2026-05-03T07:21:02.308Z</time></trkpt><trkpt lat="42.3586733" lon="13.487398"><ele>763.0</ele><time>2026-05-03T07:21:03.307Z</time></trkpt><trkpt lat="42.3587116" lon="13.4874736"><ele>763.0</ele><time>2026-05-03T07:21:04.306Z</time></trkpt><trkpt lat="42.3587582" lon="13.4875589"><ele>763.0</ele><time>2026-05-03T07:21:05.303Z</time></trkpt><trkpt lat="42.3588073" lon="13.4876646"><ele>763.0</ele><time>2026-05-03T07:21:06.301Z</time></trkpt><trkpt lat="42.3588584" lon="13.4877764"><ele>763.0</ele><time>2026-05-03T07:21:07.299Z</time></trkpt><trkpt lat="42.3589027" lon="13.4878819"><ele>763.0</ele><time>2026-05-03T07:21:08.301Z</time></trkpt><trkpt lat="42.3589547" lon="13.487964"><ele>763.0</ele><time>2026-05-03T07:21:09.301Z</time></trkpt><trkpt lat="42.3590352" lon="13.4880681"><ele>766.4</ele><time>2026-05-03T07:21:11.305Z</time></trkpt><trkpt lat="42.3591101" lon="13.4881733"><ele>769.8</ele><time>2026-05-03T07:21:13.307Z</time></trkpt><trkpt lat="42.3591567" lon="13.4882331"><ele>773.2</ele><time>2026-05-03T07:21:14.305Z</time></trkpt><trkpt lat="42.3592425" lon="13.4883508"><ele>776.6</ele><time>2026-05-03T07:21:16.321Z</time></trkpt><trkpt lat="42.3593377" lon="13.4884719"><ele>780.0</ele><time>2026-05-03T07:21:18.305Z</time></trkpt><trkpt lat="42.3593924" lon="13.488547"><ele>780.0</ele><time>2026-05-03T07:21:19.296Z</time></trkpt><trkpt lat="42.3594286" lon="13.4886219"><ele>780.0</ele><time>2026-05-03T07:21:20.3Z</time></trkpt><trkpt lat="42.359478" lon="13.4887003"><ele>780.0</ele><time>2026-05-03T07:21:21.303Z</time></trkpt><trkpt lat="42.3595222" lon="13.4887886"><ele>780.0</ele><time>2026-05-03T07:21:22.305Z</time></trkpt><trkpt lat="42.3595704" lon="13.4888797"><ele>780.0</ele><time>2026-05-03T07:21:23.307Z</time></trkpt><trkpt lat="42.3596092" lon="13.4889651"><ele>780.0</ele><time>2026-05-03T07:21:24.304Z</time></trkpt><trkpt lat="42.359648" lon="13.4890355"><ele>780.0</ele><time>2026-05-03T07:21:25.301Z</time></trkpt><trkpt lat="42.3597022" lon="13.48911"><ele>782.0</ele><time>2026-05-03T07:21:26.305Z</time></trkpt><trkpt lat="42.3597634" lon="13.4891766"><ele>784.0</ele><time>2026-05-03T07:21:27.304Z</time></trkpt><trkpt lat="42.3598133" lon="13.4892326"><ele>786.0</ele><time>2026-05-03T07:21:28.301Z</time></trkpt><trkpt lat="42.3598773" lon="13.4892857"><ele>788.0</ele><time>2026-05-03T07:21:29.305Z</time></trkpt><trkpt lat="42.3599593" lon="13.4893404"><ele>790.0</ele><time>2026-05-03T07:21:30.304Z</time></trkpt><trkpt lat="42.3600347" lon="13.4893841"><ele>792.0</ele><time>2026-05-03T07:21:31.3Z</time></trkpt><trkpt lat="42.3601439" lon="13.489448"><ele>792.0</ele><time>2026-05-03T07:21:33.301Z</time></trkpt><trkpt lat="42.3602454" lon="13.4895528"><ele>792.0</ele><time>2026-05-03T07:21:35.303Z</time></trkpt><trkpt lat="42.3603018" lon="13.4896266"><ele>792.0</ele><time>2026-05-03T07:21:36.299Z</time></trkpt><trkpt lat="42.3603629" lon="13.4896935"><ele>792.0</ele><time>2026-05-03T07:21:37.298Z</time></trkpt><trkpt lat="42.3604276" lon="13.4897475"><ele>792.0</ele><time>2026-05-03T07:21:38.301Z</time></trkpt><trkpt lat="42.3605039" lon="13.4897885"><ele>792.0</ele><time>2026-05-03T07:21:39.298Z</time></trkpt><trkpt lat="42.3605691" lon="13.4898375"><ele>793.3333333333334</ele><time>2026-05-03T07:21:40.296Z</time></trkpt><trkpt lat="42.3606351" lon="13.4898891"><ele>794.6666666666667</ele><time>2026-05-03T07:21:41.301Z</time></trkpt><trkpt lat="42.3607057" lon="13.4899289"><ele>796.0</ele><time>2026-05-03T07:21:42.296Z</time></trkpt><trkpt lat="42.3607784" lon="13.4899874"><ele>797.3333333333334</ele><time>2026-05-03T07:21:43.295Z</time></trkpt><trkpt lat="42.3608402" lon="13.4900564"><ele>798.6666666666667</ele><time>2026-05-03T07:21:44.3Z</time></trkpt><trkpt lat="42.3608903" lon="13.4901131"><ele>800.0</ele><time>2026-05-03T07:21:45.295Z</time></trkpt><trkpt lat="42.3609618" lon="13.4901782"><ele>800.0000000000001</ele><time>2026-05-03T07:21:46.295Z</time></trkpt><trkpt lat="42.3610346" lon="13.4902271"><ele>800.0</ele><time>2026-05-03T07:21:47.311Z</time></trkpt><trkpt lat="42.3611031" lon="13.4902714"><ele>800.0</ele><time>2026-05-03T07:21:48.297Z</time></trkpt><trkpt lat="42.3611733" lon="13.4903217"><ele>800.0</ele><time>2026-05-03T07:21:49.297Z</time></trkpt><trkpt lat="42.3612448" lon="13.490383"><ele>800.0000000000001</ele><time>2026-05-03T07:21:50.297Z</time></trkpt><trkpt lat="42.3613254" lon="13.4904562"><ele>800.0</ele><time>2026-05-03T07:21:51.293Z</time></trkpt><trkpt lat="42.3614028" lon="13.4905308"><ele>802.0000000000001</ele><time>2026-05-03T07:21:52.301Z</time></trkpt><trkpt lat="42.361482" lon="13.4906166"><ele>804.0</ele><time>2026-05-03T07:21:53.301Z</time></trkpt><trkpt lat="42.3615599" lon="13.4906872"><ele>806.0</ele><time>2026-05-03T07:21:54.299Z</time></trkpt><trkpt lat="42.3616329" lon="13.4907395"><ele>808.0</ele><time>2026-05-03T07:21:55.295Z</time></trkpt><trkpt lat="42.3617009" lon="13.4907893"><ele>810.0000000000001</ele><time>2026-05-03T07:21:56.303Z</time></trkpt><trkpt lat="42.361771" lon="13.4908361"><ele>812.0</ele><time>2026-05-03T07:21:57.3Z</time></trkpt><trkpt lat="42.36184" lon="13.4908854"><ele>812.0</ele><time>2026-05-03T07:21:58.301Z</time></trkpt><trkpt lat="42.3619141" lon="13.4909223"><ele>812.0</ele><time>2026-05-03T07:21:59.31Z</time></trkpt><trkpt lat="42.362015" lon="13.4910311"><ele>812.0</ele><time>2026-05-03T07:22:01.308Z</time></trkpt><trkpt lat="42.3620616" lon="13.4911072"><ele>812.0</ele><time>2026-05-03T07:22:02.305Z</time></trkpt><trkpt lat="42.3621136" lon="13.4911973"><ele>812.0</ele><time>2026-05-03T07:22:03.304Z</time></trkpt><trkpt lat="42.3621662" lon="13.4912864"><ele>813.1666666666667</ele><time>2026-05-03T07:22:04.306Z</time></trkpt><trkpt lat="42.3622271" lon="13.4913659"><ele>814.3333333333334</ele><time>2026-05-03T07:22:05.309Z</time></trkpt><trkpt lat="42.3622841" lon="13.4914498"><ele>815.5</ele><time>2026-05-03T07:22:06.308Z</time></trkpt><trkpt lat="42.3623442" lon="13.491528"><ele>816.6666666666667</ele><time>2026-05-03T07:22:07.306Z</time></trkpt><trkpt lat="42.3624037" lon="13.491602"><ele>817.8333333333334</ele><time>2026-05-03T07:22:08.305Z</time></trkpt><trkpt lat="42.3624632" lon="13.4916828"><ele>819.0</ele><time>2026-05-03T07:22:09.304Z</time></trkpt><trkpt lat="42.362516" lon="13.4917603"><ele>819.0</ele><time>2026-05-03T07:22:10.309Z</time></trkpt><trkpt lat="42.3625572" lon="13.4918595"><ele>819.0</ele><time>2026-05-03T07:22:11.305Z</time></trkpt><trkpt lat="42.3626012" lon="13.4919541"><ele>819.0</ele><time>2026-05-03T07:22:12.307Z</time></trkpt><trkpt lat="42.3626237" lon="13.4920419"><ele>819.0</ele><time>2026-05-03T07:22:13.303Z</time></trkpt><trkpt lat="42.3626558" lon="13.4921359"><ele>819.0</ele><time>2026-05-03T07:22:14.31Z</time></trkpt><trkpt lat="42.3626952" lon="13.4922425"><ele>819.0</ele><time>2026-05-03T07:22:15.306Z</time></trkpt><trkpt lat="42.3627082" lon="13.4923353"><ele>820.2857142857143</ele><time>2026-05-03T07:22:16.308Z</time></trkpt><trkpt lat="42.3627183" lon="13.4924271"><ele>821.5714285714286</ele><time>2026-05-03T07:22:17.308Z</time></trkpt><trkpt lat="42.3627377" lon="13.4925258"><ele>822.8571428571429</ele><time>2026-05-03T07:22:18.326Z</time></trkpt><trkpt lat="42.3627652" lon="13.492627"><ele>824.1428571428571</ele><time>2026-05-03T07:22:19.306Z</time></trkpt><trkpt lat="42.3627846" lon="13.4927269"><ele>825.4285714285714</ele><time>2026-05-03T07:22:20.309Z</time></trkpt><trkpt lat="42.3628137" lon="13.492814"><ele>826.7142857142858</ele><time>2026-05-03T07:22:21.305Z</time></trkpt><trkpt lat="42.3628417" lon="13.4929057"><ele>828.0</ele><time>2026-05-03T07:22:22.304Z</time></trkpt><trkpt lat="42.3628275" lon="13.4930648"><ele>830.6666666666666</ele><time>2026-05-03T07:22:24.309Z</time></trkpt><trkpt lat="42.3628129" lon="13.4931497"><ele>833.3333333333333</ele><time>2026-05-03T07:22:25.305Z</time></trkpt><trkpt lat="42.3628165" lon="13.4932525"><ele>836.0</ele><time>2026-05-03T07:22:26.313Z</time></trkpt><trkpt lat="42.362824" lon="13.4933526"><ele>838.6666666666666</ele><time>2026-05-03T07:22:27.311Z</time></trkpt><trkpt lat="42.3628696" lon="13.4935123"><ele>841.3333333333333</ele><time>2026-05-03T07:22:29.314Z</time></trkpt><trkpt lat="42.3629081" lon="13.4935894"><ele>844.0</ele><time>2026-05-03T07:22:30.312Z</time></trkpt><trkpt lat="42.3629852" lon="13.4937068"><ele>846.1666666666666</ele><time>2026-05-03T07:22:32.316Z</time></trkpt><trkpt lat="42.3630114" lon="13.4937959"><ele>848.3333333333333</ele><time>2026-05-03T07:22:33.313Z</time></trkpt><trkpt lat="42.3630235" lon="13.4938977"><ele>850.5</ele><time>2026-05-03T07:22:34.307Z</time></trkpt><trkpt lat="42.3630214" lon="13.4940086"><ele>852.6666666666667</ele><time>2026-05-03T07:22:35.313Z</time></trkpt><trkpt lat="42.3630174" lon="13.4941221"><ele>854.8333333333334</ele><time>2026-05-03T07:22:36.312Z</time></trkpt><trkpt lat="42.3630172" lon="13.4942435"><ele>857.0</ele><time>2026-05-03T07:22:37.312Z</time></trkpt><trkpt lat="42.3630226" lon="13.4943494"><ele>857.0000000000001</ele><time>2026-05-03T07:22:38.312Z</time></trkpt><trkpt lat="42.3630253" lon="13.4944591"><ele>857.0</ele><time>2026-05-03T07:22:39.309Z</time></trkpt><trkpt lat="42.3630401" lon="13.4945586"><ele>857.0</ele><time>2026-05-03T07:22:40.307Z</time></trkpt><trkpt lat="42.3630376" lon="13.494647"><ele>857.0</ele><time>2026-05-03T07:22:41.302Z</time></trkpt><trkpt lat="42.3630365" lon="13.4948157"><ele>857.0000000000001</ele><time>2026-05-03T07:22:43.305Z</time></trkpt><trkpt lat="42.3630136" lon="13.4949036"><ele>857.0</ele><time>2026-05-03T07:22:44.305Z</time></trkpt><trkpt lat="42.36299" lon="13.4949944"><ele>857.8571428571429</ele><time>2026-05-03T07:22:45.307Z</time></trkpt><trkpt lat="42.362981" lon="13.4950817"><ele>858.7142857142857</ele><time>2026-05-03T07:22:46.314Z</time></trkpt><trkpt lat="42.3629598" lon="13.4951644"><ele>859.5714285714287</ele><time>2026-05-03T07:22:47.312Z</time></trkpt><trkpt lat="42.3629349" lon="13.495249"><ele>860.4285714285714</ele><time>2026-05-03T07:22:48.313Z</time></trkpt><trkpt lat="42.362923" lon="13.4953547"><ele>861.2857142857143</ele><time>2026-05-03T07:22:49.325Z</time></trkpt><trkpt lat="42.3629213" lon="13.4954612"><ele>862.1428571428572</ele><time>2026-05-03T07:22:50.317Z</time></trkpt><trkpt lat="42.3629131" lon="13.4955729"><ele>863.0</ele><time>2026-05-03T07:22:51.314Z</time></trkpt><trkpt lat="42.362901" lon="13.4957011"><ele>863.4</ele><time>2026-05-03T07:22:52.313Z</time></trkpt><trkpt lat="42.3628964" lon="13.4958296"><ele>863.8</ele><time>2026-05-03T07:22:53.313Z</time></trkpt><trkpt lat="42.3628869" lon="13.4959632"><ele>864.2</ele><time>2026-05-03T07:22:54.323Z</time></trkpt><trkpt lat="42.362886" lon="13.4960864"><ele>864.6</ele><time>2026-05-03T07:22:55.318Z</time></trkpt><trkpt lat="42.3628692" lon="13.4962094"><ele>865.0</ele><time>2026-05-03T07:22:56.319Z</time></trkpt><trkpt lat="42.3628615" lon="13.4963314"><ele>865.9999999999999</ele><time>2026-05-03T07:22:57.32Z</time></trkpt><trkpt lat="42.36285" lon="13.4964426"><ele>867.0</ele><time>2026-05-03T07:22:58.314Z</time></trkpt><trkpt lat="42.3628493" lon="13.4965293"><ele>868.0</ele><time>2026-05-03T07:22:59.315Z</time></trkpt><trkpt lat="42.3628588" lon="13.4966874"><ele>869.0</ele><time>2026-05-03T07:23:01.318Z</time></trkpt><trkpt lat="42.3628653" lon="13.4967818"><ele>869.9999999999999</ele><time>2026-05-03T07:23:02.315Z</time></trkpt><trkpt lat="42.3628843" lon="13.4968779"><ele>871.0</ele><time>2026-05-03T07:23:03.315Z</time></trkpt><trkpt lat="42.3629099" lon="13.496965"><ele>871.0</ele><time>2026-05-03T07:23:04.307Z</time></trkpt><trkpt lat="42.3629294" lon="13.497065"><ele>871.0</ele><time>2026-05-03T07:23:05.308Z</time></trkpt><trkpt lat="42.3629236" lon="13.4971647"><ele>871.0</ele><time>2026-05-03T07:23:06.309Z</time></trkpt><trkpt lat="42.3629068" lon="13.4972615"><ele>871.0</ele><time>2026-05-03T07:23:07.314Z</time></trkpt><trkpt lat="42.3629022" lon="13.4973485"><ele>871.0</ele><time>2026-05-03T07:23:08.308Z</time></trkpt><trkpt lat="42.3629002" lon="13.4974499"><ele>871.0</ele><time>2026-05-03T07:23:09.316Z</time></trkpt><trkpt lat="42.3629044" lon="13.4975365"><ele>871.0</ele><time>2026-05-03T07:23:10.318Z</time></trkpt><trkpt lat="42.3629389" lon="13.4976839"><ele>871.6666666666666</ele><time>2026-05-03T07:23:12.323Z</time></trkpt><trkpt lat="42.3629709" lon="13.4977632"><ele>872.3333333333333</ele><time>2026-05-03T07:23:13.319Z</time></trkpt><trkpt lat="42.3630122" lon="13.4978441"><ele>873.0</ele><time>2026-05-03T07:23:14.321Z</time></trkpt><trkpt lat="42.3630601" lon="13.4979187"><ele>873.6666666666667</ele><time>2026-05-03T07:23:15.32Z</time></trkpt><trkpt lat="42.363136" lon="13.4980387"><ele>874.3333333333334</ele><time>2026-05-03T07:23:17.323Z</time></trkpt><trkpt lat="42.3632181" lon="13.4981055"><ele>875.0</ele><time>2026-05-03T07:23:19.325Z</time></trkpt><trkpt lat="42.3633092" lon="13.4981754"><ele>878.6</ele><time>2026-05-03T07:23:21.319Z</time></trkpt><trkpt lat="42.3634201" lon="13.4982686"><ele>882.2</ele><time>2026-05-03T07:23:23.312Z</time></trkpt><trkpt lat="42.3634819" lon="13.4983275"><ele>885.8</ele><time>2026-05-03T07:23:24.313Z</time></trkpt><trkpt lat="42.3635509" lon="13.498391"><ele>889.4</ele><time>2026-05-03T07:23:25.311Z</time></trkpt><trkpt lat="42.3636038" lon="13.4984455"><ele>893.0</ele><time>2026-05-03T07:23:26.307Z</time></trkpt><trkpt lat="42.3636543" lon="13.4985691"><ele>893.0</ele><time>2026-05-03T07:23:28.314Z</time></trkpt><trkpt lat="42.3636876" lon="13.4987115"><ele>893.0</ele><time>2026-05-03T07:23:30.316Z</time></trkpt><trkpt lat="42.3637196" lon="13.4988474"><ele>893.0</ele><time>2026-05-03T07:23:32.311Z</time></trkpt><trkpt lat="42.3637641" lon="13.4989695"><ele>893.0</ele><time>2026-05-03T07:23:35.32Z</time></trkpt><trkpt lat="42.363828" lon="13.4990509"><ele>893.0</ele><time>2026-05-03T07:23:37.319Z</time></trkpt><trkpt lat="42.3639102" lon="13.4991302"><ele>895.1666666666667</ele><time>2026-05-03T07:23:39.321Z</time></trkpt><trkpt lat="42.3639475" lon="13.4992131"><ele>897.3333333333334</ele><time>2026-05-03T07:23:41.32Z</time></trkpt><trkpt lat="42.3639988" lon="13.4993515"><ele>899.5</ele><time>2026-05-03T07:23:43.313Z</time></trkpt><trkpt lat="42.3640535" lon="13.4994377"><ele>901.6666666666667</ele><time>2026-05-03T07:23:44.318Z</time></trkpt><trkpt lat="42.3641248" lon="13.4995101"><ele>903.8333333333334</ele><time>2026-05-03T07:23:45.313Z</time></trkpt><trkpt lat="42.3641749" lon="13.4995703"><ele>906.0</ele><time>2026-05-03T07:23:46.32Z</time></trkpt><trkpt lat="42.364249" lon="13.49969"><ele>906.3333333333334</ele><time>2026-05-03T07:23:48.324Z</time></trkpt><trkpt lat="42.3642846" lon="13.4997757"><ele>906.6666666666667</ele><time>2026-05-03T07:23:49.319Z</time></trkpt><trkpt lat="42.364327" lon="13.4998747"><ele>907.0</ele><time>2026-05-03T07:23:50.323Z</time></trkpt><trkpt lat="42.3643753" lon="13.4999741"><ele>907.3333333333334</ele><time>2026-05-03T07:23:51.336Z</time></trkpt><trkpt lat="42.3644228" lon="13.5000736"><ele>907.6666666666667</ele><time>2026-05-03T07:23:52.317Z</time></trkpt><trkpt lat="42.3644678" lon="13.5001692"><ele>908.0</ele><time>2026-05-03T07:23:53.316Z</time></trkpt><trkpt lat="42.3645083" lon="13.5002515"><ele>908.0000000000001</ele><time>2026-05-03T07:23:54.318Z</time></trkpt><trkpt lat="42.3645453" lon="13.5003327"><ele>908.0</ele><time>2026-05-03T07:23:55.318Z</time></trkpt><trkpt lat="42.3645827" lon="13.5004187"><ele>908.0</ele><time>2026-05-03T07:23:56.324Z</time></trkpt><trkpt lat="42.3646153" lon="13.500503"><ele>908.0</ele><time>2026-05-03T07:23:57.329Z</time></trkpt><trkpt lat="42.3646595" lon="13.500621"><ele>908.0000000000001</ele><time>2026-05-03T07:23:59.327Z</time></trkpt><trkpt lat="42.3647148" lon="13.500745"><ele>908.0</ele><time>2026-05-03T07:24:01.335Z</time></trkpt><trkpt lat="42.3647433" lon="13.5008239"><ele>910.4</ele><time>2026-05-03T07:24:02.331Z</time></trkpt><trkpt lat="42.3647899" lon="13.5009489"><ele>912.8</ele><time>2026-05-03T07:24:04.327Z</time></trkpt><trkpt lat="42.3648515" lon="13.5010868"><ele>915.2</ele><time>2026-05-03T07:24:06.329Z</time></trkpt><trkpt lat="42.3648771" lon="13.5011649"><ele>917.6</ele><time>2026-05-03T07:24:07.329Z</time></trkpt><trkpt lat="42.3649098" lon="13.5013086"><ele>920.0</ele><time>2026-05-03T07:24:09.324Z</time></trkpt><trkpt lat="42.3649326" lon="13.5014437"><ele>921.1666666666667</ele><time>2026-05-03T07:24:11.325Z</time></trkpt><trkpt lat="42.3649396" lon="13.5015794"><ele>922.3333333333334</ele><time>2026-05-03T07:24:13.322Z</time></trkpt><trkpt lat="42.364981" lon="13.5017318"><ele>923.5</ele><time>2026-05-03T07:24:15.319Z</time></trkpt><trkpt lat="42.3650044" lon="13.5018192"><ele>924.6666666666667</ele><time>2026-05-03T07:24:16.316Z</time></trkpt><trkpt lat="42.3650293" lon="13.5019003"><ele>925.8333333333334</ele><time>2026-05-03T07:24:17.322Z</time></trkpt><trkpt lat="42.3650603" lon="13.5019751"><ele>927.0</ele><time>2026-05-03T07:24:18.322Z</time></trkpt><trkpt lat="42.3650863" lon="13.5020572"><ele>928.0</ele><time>2026-05-03T07:24:19.32Z</time></trkpt><trkpt lat="42.3651054" lon="13.5021447"><ele>929.0</ele><time>2026-05-03T07:24:20.322Z</time></trkpt><trkpt lat="42.3651447" lon="13.5023106"><ele>930.0</ele><time>2026-05-03T07:24:22.334Z</time></trkpt><trkpt lat="42.3651645" lon="13.5023996"><ele>931.0</ele><time>2026-05-03T07:24:23.32Z</time></trkpt><trkpt lat="42.3651756" lon="13.502485"><ele>932.0</ele><time>2026-05-03T07:24:24.315Z</time></trkpt><trkpt lat="42.3651958" lon="13.5026269"><ele>933.0</ele><time>2026-05-03T07:24:26.317Z</time></trkpt><trkpt lat="42.3652231" lon="13.5027039"><ele>933.0</ele><time>2026-05-03T07:24:27.318Z</time></trkpt><trkpt lat="42.3652544" lon="13.5027814"><ele>932.9999999999999</ele><time>2026-05-03T07:24:28.316Z</time></trkpt><trkpt lat="42.3652798" lon="13.5028665"><ele>933.0</ele><time>2026-05-03T07:24:29.318Z</time></trkpt><trkpt lat="42.3653111" lon="13.5029518"><ele>933.0</ele><time>2026-05-03T07:24:30.317Z</time></trkpt><trkpt lat="42.3653438" lon="13.5030357"><ele>932.9999999999999</ele><time>2026-05-03T07:24:31.317Z</time></trkpt><trkpt lat="42.3653786" lon="13.5031115"><ele>933.0</ele><time>2026-05-03T07:24:32.32Z</time></trkpt><trkpt lat="42.3654193" lon="13.5031929"><ele>933.0</ele><time>2026-05-03T07:24:33.315Z</time></trkpt><trkpt lat="42.3654633" lon="13.5032817"><ele>934.3333333333334</ele><time>2026-05-03T07:24:34.313Z</time></trkpt><trkpt lat="42.3655145" lon="13.5033695"><ele>935.6666666666667</ele><time>2026-05-03T07:24:35.314Z</time></trkpt><trkpt lat="42.3655641" lon="13.5034522"><ele>937.0</ele><time>2026-05-03T07:24:36.318Z</time></trkpt><trkpt lat="42.3656061" lon="13.503546"><ele>938.3333333333334</ele><time>2026-05-03T07:24:37.319Z</time></trkpt><trkpt lat="42.365654" lon="13.5036338"><ele>939.6666666666667</ele><time>2026-05-03T07:24:38.32Z</time></trkpt><trkpt lat="42.365696" lon="13.503723"><ele>941.0</ele><time>2026-05-03T07:24:39.318Z</time></trkpt><trkpt lat="42.3657298" lon="13.5038172"><ele>941.5714285714284</ele><time>2026-05-03T07:24:40.322Z</time></trkpt><trkpt lat="42.365756" lon="13.5039055"><ele>942.1428571428571</ele><time>2026-05-03T07:24:41.325Z</time></trkpt><trkpt lat="42.3657755" lon="13.5039975"><ele>942.7142857142857</ele><time>2026-05-03T07:24:42.324Z</time></trkpt><trkpt lat="42.3657992" lon="13.5040864"><ele>943.2857142857142</ele><time>2026-05-03T07:24:43.324Z</time></trkpt><trkpt lat="42.3658278" lon="13.5041754"><ele>943.8571428571429</ele><time>2026-05-03T07:24:44.319Z</time></trkpt><trkpt lat="42.3658465" lon="13.5042632"><ele>944.4285714285714</ele><time>2026-05-03T07:24:45.324Z</time></trkpt><trkpt lat="42.3658647" lon="13.5043499"><ele>945.0</ele><time>2026-05-03T07:24:46.324Z</time></trkpt><trkpt lat="42.3658515" lon="13.5045121"><ele>945.1428571428571</ele><time>2026-05-03T07:24:48.324Z</time></trkpt><trkpt lat="42.365834" lon="13.5045995"><ele>945.2857142857142</ele><time>2026-05-03T07:24:49.322Z</time></trkpt><trkpt lat="42.3658195" lon="13.5047007"><ele>945.4285714285714</ele><time>2026-05-03T07:24:50.326Z</time></trkpt><trkpt lat="42.36581" lon="13.5048116"><ele>945.5714285714286</ele><time>2026-05-03T07:24:51.323Z</time></trkpt><trkpt lat="42.3658108" lon="13.5049113"><ele>945.7142857142857</ele><time>2026-05-03T07:24:52.324Z</time></trkpt><trkpt lat="42.3658208" lon="13.5050118"><ele>945.8571428571429</ele><time>2026-05-03T07:24:53.341Z</time></trkpt><trkpt lat="42.3658433" lon="13.5051077"><ele>946.0</ele><time>2026-05-03T07:24:54.322Z</time></trkpt><trkpt lat="42.365866" lon="13.5052006"><ele>945.9999999999999</ele><time>2026-05-03T07:24:55.322Z</time></trkpt><trkpt lat="42.3658922" lon="13.5052927"><ele>946.0</ele><time>2026-05-03T07:24:56.324Z</time></trkpt><trkpt lat="42.3659196" lon="13.5053907"><ele>946.0</ele><time>2026-05-03T07:24:57.328Z</time></trkpt><trkpt lat="42.3659423" lon="13.505496"><ele>946.0</ele><time>2026-05-03T07:24:58.323Z</time></trkpt><trkpt lat="42.3659624" lon="13.5056069"><ele>945.9999999999999</ele><time>2026-05-03T07:24:59.326Z</time></trkpt><trkpt lat="42.3659702" lon="13.5057195"><ele>946.0</ele><time>2026-05-03T07:25:00.324Z</time></trkpt><trkpt lat="42.365976" lon="13.5058293"><ele>946.1999999999999</ele><time>2026-05-03T07:25:01.327Z</time></trkpt><trkpt lat="42.3659922" lon="13.5059268"><ele>946.3999999999999</ele><time>2026-05-03T07:25:02.32Z</time></trkpt><trkpt lat="42.3660057" lon="13.5060744"><ele>946.6</ele><time>2026-05-03T07:25:04.321Z</time></trkpt><trkpt lat="42.3660304" lon="13.5062057"><ele>946.8</ele><time>2026-05-03T07:25:06.323Z</time></trkpt><trkpt lat="42.3660534" lon="13.5063755"><ele>947.0</ele><time>2026-05-03T07:25:08.322Z</time></trkpt><trkpt lat="42.3660743" lon="13.5064613"><ele>947.3333333333334</ele><time>2026-05-03T07:25:09.314Z</time></trkpt><trkpt lat="42.3661446" lon="13.5065937"><ele>947.6666666666667</ele><time>2026-05-03T07:25:11.314Z</time></trkpt><trkpt lat="42.366192" lon="13.5066538"><ele>948.0</ele><time>2026-05-03T07:25:12.319Z</time></trkpt><trkpt lat="42.366254" lon="13.5067904"><ele>948.3333333333333</ele><time>2026-05-03T07:25:14.314Z</time></trkpt><trkpt lat="42.3662926" lon="13.5068653"><ele>948.6666666666666</ele><time>2026-05-03T07:25:15.319Z</time></trkpt><trkpt lat="42.3663406" lon="13.5069281"><ele>949.0</ele><time>2026-05-03T07:25:16.32Z</time></trkpt><trkpt lat="42.3664336" lon="13.5070238"><ele>950.8333333333333</ele><time>2026-05-03T07:25:18.323Z</time></trkpt><trkpt lat="42.3664961" lon="13.5071335"><ele>952.6666666666666</ele><time>2026-05-03T07:25:20.322Z</time></trkpt><trkpt lat="42.3665684" lon="13.5072559"><ele>954.5</ele><time>2026-05-03T07:25:22.323Z</time></trkpt><trkpt lat="42.3666128" lon="13.5073213"><ele>956.3333333333333</ele><time>2026-05-03T07:25:23.32Z</time></trkpt><trkpt lat="42.3666565" lon="13.5073972"><ele>958.1666666666666</ele><time>2026-05-03T07:25:24.342Z</time></trkpt><trkpt lat="42.3667031" lon="13.5074663"><ele>960.0</ele><time>2026-05-03T07:25:25.325Z</time></trkpt><trkpt lat="42.3667776" lon="13.5075742"><ele>960.0</ele><time>2026-05-03T07:25:27.321Z</time></trkpt><trkpt lat="42.3668256" lon="13.5077054"><ele>960.0</ele><time>2026-05-03T07:25:29.326Z</time></trkpt><trkpt lat="42.3668622" lon="13.5078531"><ele>960.0</ele><time>2026-05-03T07:25:31.325Z</time></trkpt><trkpt lat="42.3667911" lon="13.5078328"><ele>960.0</ele><time>2026-05-03T07:26:00.322Z</time></trkpt><trkpt lat="42.3667245" lon="13.5078742"><ele>960.0</ele><time>2026-05-03T07:26:10.318Z</time></trkpt><trkpt lat="42.3666274" lon="13.5079364"><ele>960.5</ele><time>2026-05-03T07:26:12.326Z</time></trkpt><trkpt lat="42.3665449" lon="13.5079958"><ele>961.0</ele><time>2026-05-03T07:26:14.324Z</time></trkpt><trkpt lat="42.3664829" lon="13.5080327"><ele>961.5</ele><time>2026-05-03T07:26:16.322Z</time></trkpt><trkpt lat="42.3663967" lon="13.5080748"><ele>962.0</ele><time>2026-05-03T07:26:19.323Z</time></trkpt><trkpt lat="42.3663244" lon="13.508132"><ele>962.5</ele><time>2026-05-03T07:26:22.325Z</time></trkpt><trkpt lat="42.3662544" lon="13.5081319"><ele>963.0</ele><time>2026-05-03T07:26:25.324Z</time></trkpt><trkpt lat="42.366185" lon="13.5081237"><ele>961.3333333333334</ele><time>2026-05-03T07:26:28.328Z</time></trkpt><trkpt lat="42.3661155" lon="13.5081492"><ele>959.6666666666667</ele><time>2026-05-03T07:26:30.323Z</time></trkpt><trkpt lat="42.3660494" lon="13.5082103"><ele>958.0</ele><time>2026-05-03T07:26:32.32Z</time></trkpt><trkpt lat="42.3659918" lon="13.5082936"><ele>956.3333333333334</ele><time>2026-05-03T07:26:34.324Z</time></trkpt><trkpt lat="42.3659605" lon="13.5083728"><ele>954.6666666666667</ele><time>2026-05-03T07:26:36.324Z</time></trkpt><trkpt lat="42.3659158" lon="13.5084611"><ele>953.0</ele><time>2026-05-03T07:26:38.324Z</time></trkpt><trkpt lat="42.3658384" lon="13.5085531"><ele>953.0000000000001</ele><time>2026-05-03T07:26:40.324Z</time></trkpt><trkpt lat="42.365783" lon="13.5086262"><ele>953.0</ele><time>2026-05-03T07:26:42.321Z</time></trkpt><trkpt lat="42.3657645" lon="13.5088067"><ele>953.0</ele><time>2026-05-03T07:26:44.321Z</time></trkpt><trkpt lat="42.365751" lon="13.5089128"><ele>953.0</ele><time>2026-05-03T07:26:45.323Z</time></trkpt><trkpt lat="42.3657216" lon="13.5090091"><ele>953.0000000000001</ele><time>2026-05-03T07:26:46.321Z</time></trkpt><trkpt lat="42.3656766" lon="13.5090867"><ele>953.0</ele><time>2026-05-03T07:26:47.322Z</time></trkpt><trkpt lat="42.3656125" lon="13.5091925"><ele>954.0</ele><time>2026-05-03T07:26:49.319Z</time></trkpt><trkpt lat="42.36559" lon="13.5093396"><ele>955.0</ele><time>2026-05-03T07:26:51.322Z</time></trkpt><trkpt lat="42.3656076" lon="13.5094908"><ele>956.0</ele><time>2026-05-03T07:26:53.322Z</time></trkpt><trkpt lat="42.3656411" lon="13.5096177"><ele>957.0</ele><time>2026-05-03T07:26:55.323Z</time></trkpt><trkpt lat="42.3657391" lon="13.5097325"><ele>957.0</ele><time>2026-05-03T07:26:57.33Z</time></trkpt><trkpt lat="42.3658068" lon="13.5097754"><ele>957.0000000000001</ele><time>2026-05-03T07:26:58.315Z</time></trkpt><trkpt lat="42.3658658" lon="13.5098299"><ele>957.0</ele><time>2026-05-03T07:26:59.319Z</time></trkpt><trkpt lat="42.3659356" lon="13.5098839"><ele>957.0</ele><time>2026-05-03T07:27:00.315Z</time></trkpt><trkpt lat="42.3659985" lon="13.5099119"><ele>957.0000000000001</ele><time>2026-05-03T07:27:01.312Z</time></trkpt><trkpt lat="42.3660633" lon="13.5099201"><ele>957.0</ele><time>2026-05-03T07:27:02.316Z</time></trkpt><trkpt lat="42.3661188" lon="13.5099746"><ele>957.0</ele><time>2026-05-03T07:27:03.324Z</time></trkpt><trkpt lat="42.3661223" lon="13.5100627"><ele>957.0</ele><time>2026-05-03T07:27:04.306Z</time></trkpt><trkpt lat="42.3660964" lon="13.510153"><ele>957.0</ele><time>2026-05-03T07:27:05.306Z</time></trkpt><trkpt lat="42.3660531" lon="13.5102453"><ele>957.0</ele><time>2026-05-03T07:27:06.313Z</time></trkpt><trkpt lat="42.3660212" lon="13.5103443"><ele>957.0</ele><time>2026-05-03T07:27:07.31Z</time></trkpt><trkpt lat="42.3659928" lon="13.5104595"><ele>957.0</ele><time>2026-05-03T07:27:08.318Z</time></trkpt><trkpt lat="42.3659512" lon="13.5105529"><ele>957.0</ele><time>2026-05-03T07:27:09.312Z</time></trkpt><trkpt lat="42.365891" lon="13.5106288"><ele>956.8333333333334</ele><time>2026-05-03T07:27:10.311Z</time></trkpt><trkpt lat="42.3658101" lon="13.5106845"><ele>956.6666666666667</ele><time>2026-05-03T07:27:11.321Z</time></trkpt><trkpt lat="42.3657423" lon="13.5107463"><ele>956.5</ele><time>2026-05-03T07:27:12.316Z</time></trkpt><trkpt lat="42.365692" lon="13.5108343"><ele>956.3333333333334</ele><time>2026-05-03T07:27:13.312Z</time></trkpt><trkpt lat="42.3656463" lon="13.5109276"><ele>956.1666666666667</ele><time>2026-05-03T07:27:14.321Z</time></trkpt><trkpt lat="42.3656056" lon="13.5110284"><ele>956.0</ele><time>2026-05-03T07:27:15.319Z</time></trkpt><trkpt lat="42.3655802" lon="13.5111167"><ele>956.0</ele><time>2026-05-03T07:27:16.318Z</time></trkpt><trkpt lat="42.3655614" lon="13.5112231"><ele>955.9999999999999</ele><time>2026-05-03T07:27:17.317Z</time></trkpt><trkpt lat="42.365557" lon="13.5113391"><ele>955.9999999999999</ele><time>2026-05-03T07:27:18.317Z</time></trkpt><trkpt lat="42.3655286" lon="13.5114526"><ele>956.0</ele><time>2026-05-03T07:27:19.308Z</time></trkpt><trkpt lat="42.3654879" lon="13.5115765"><ele>956.0</ele><time>2026-05-03T07:27:20.321Z</time></trkpt><trkpt lat="42.3654427" lon="13.5116927"><ele>956.1666666666667</ele><time>2026-05-03T07:27:21.31Z</time></trkpt><trkpt lat="42.3654088" lon="13.5117873"><ele>956.3333333333334</ele><time>2026-05-03T07:27:22.319Z</time></trkpt><trkpt lat="42.3653757" lon="13.5118785"><ele>956.5</ele><time>2026-05-03T07:27:23.322Z</time></trkpt><trkpt lat="42.3653515" lon="13.5119729"><ele>956.6666666666667</ele><time>2026-05-03T07:27:24.319Z</time></trkpt><trkpt lat="42.3653648" lon="13.5121036"><ele>956.8333333333334</ele><time>2026-05-03T07:27:26.316Z</time></trkpt><trkpt lat="42.3653936" lon="13.5122058"><ele>957.0</ele><time>2026-05-03T07:27:28.333Z</time></trkpt><trkpt lat="42.3653909" lon="13.5123301"><ele>957.0</ele><time>2026-05-03T07:27:30.321Z</time></trkpt><trkpt lat="42.3654356" lon="13.5124688"><ele>957.0</ele><time>2026-05-03T07:27:32.307Z</time></trkpt><trkpt lat="42.3654749" lon="13.5125661"><ele>957.0</ele><time>2026-05-03T07:27:33.306Z</time></trkpt><trkpt lat="42.3655107" lon="13.5126997"><ele>957.0</ele><time>2026-05-03T07:27:34.294Z</time></trkpt><trkpt lat="42.3655333" lon="13.5128342"><ele>957.0</ele><time>2026-05-03T07:27:35.292Z</time></trkpt><trkpt lat="42.3655407" lon="13.5129425"><ele>959.1666666666666</ele><time>2026-05-03T07:27:36.297Z</time></trkpt><trkpt lat="42.3655344" lon="13.5130301"><ele>961.3333333333333</ele><time>2026-05-03T07:27:37.303Z</time></trkpt><trkpt lat="42.3655512" lon="13.5131509"><ele>963.5</ele><time>2026-05-03T07:27:39.306Z</time></trkpt><trkpt lat="42.3654941" lon="13.5132341"><ele>965.6666666666666</ele><time>2026-05-03T07:27:42.307Z</time></trkpt><trkpt lat="42.3653804" lon="13.5131975"><ele>967.8333333333333</ele><time>2026-05-03T07:27:44.306Z</time></trkpt><trkpt lat="42.3653172" lon="13.5131185"><ele>970.0</ele><time>2026-05-03T07:27:45.318Z</time></trkpt><trkpt lat="42.3652549" lon="13.513003"><ele>967.4</ele><time>2026-05-03T07:27:46.312Z</time></trkpt><trkpt lat="42.3651959" lon="13.5128842"><ele>964.8</ele><time>2026-05-03T07:27:47.308Z</time></trkpt><trkpt lat="42.3651351" lon="13.5127808"><ele>962.2</ele><time>2026-05-03T07:27:48.313Z</time></trkpt><trkpt lat="42.365066" lon="13.5126776"><ele>959.6</ele><time>2026-05-03T07:27:49.309Z</time></trkpt><trkpt lat="42.3650095" lon="13.5125749"><ele>957.0</ele><time>2026-05-03T07:27:50.306Z</time></trkpt><trkpt lat="42.3649574" lon="13.5124828"><ele>957.0</ele><time>2026-05-03T07:27:51.307Z</time></trkpt><trkpt lat="42.364904" lon="13.5123952"><ele>957.0</ele><time>2026-05-03T07:27:52.309Z</time></trkpt><trkpt lat="42.36486" lon="13.512308"><ele>957.0</ele><time>2026-05-03T07:27:53.313Z</time></trkpt><trkpt lat="42.3648075" lon="13.5122264"><ele>957.0</ele><time>2026-05-03T07:27:54.312Z</time></trkpt><trkpt lat="42.3647579" lon="13.5121625"><ele>957.0</ele><time>2026-05-03T07:27:55.31Z</time></trkpt><trkpt lat="42.3647005" lon="13.5120929"><ele>957.0</ele><time>2026-05-03T07:27:56.309Z</time></trkpt><trkpt lat="42.3646253" lon="13.5120216"><ele>955.1666666666666</ele><time>2026-05-03T07:27:57.311Z</time></trkpt><trkpt lat="42.3645429" lon="13.5119485"><ele>953.3333333333333</ele><time>2026-05-03T07:27:58.316Z</time></trkpt><trkpt lat="42.3644734" lon="13.511868"><ele>951.5</ele><time>2026-05-03T07:27:59.336Z</time></trkpt><trkpt lat="42.3644067" lon="13.5117803"><ele>949.6666666666666</ele><time>2026-05-03T07:28:00.32Z</time></trkpt><trkpt lat="42.3643459" lon="13.5117114"><ele>947.8333333333333</ele><time>2026-05-03T07:28:01.321Z</time></trkpt><trkpt lat="42.3642871" lon="13.511653"><ele>946.0</ele><time>2026-05-03T07:28:02.318Z</time></trkpt><trkpt lat="42.3642374" lon="13.5115848"><ele>945.9999999999999</ele><time>2026-05-03T07:28:03.318Z</time></trkpt><trkpt lat="42.3641923" lon="13.5115225"><ele>946.0</ele><time>2026-05-03T07:28:04.318Z</time></trkpt><trkpt lat="42.3641344" lon="13.5114843"><ele>946.0</ele><time>2026-05-03T07:28:05.31Z</time></trkpt><trkpt lat="42.3640565" lon="13.5114439"><ele>946.0</ele><time>2026-05-03T07:28:06.312Z</time></trkpt><trkpt lat="42.3639617" lon="13.5114033"><ele>945.9999999999999</ele><time>2026-05-03T07:28:07.317Z</time></trkpt><trkpt lat="42.3638735" lon="13.5113688"><ele>946.0</ele><time>2026-05-03T07:28:08.315Z</time></trkpt><trkpt lat="42.3637849" lon="13.5113437"><ele>946.1666666666666</ele><time>2026-05-03T07:28:09.317Z</time></trkpt><trkpt lat="42.3636904" lon="13.511317"><ele>946.3333333333333</ele><time>2026-05-03T07:28:10.313Z</time></trkpt><trkpt lat="42.3636127" lon="13.5112978"><ele>946.5</ele><time>2026-05-03T07:28:11.314Z</time></trkpt><trkpt lat="42.363548" lon="13.5112733"><ele>946.6666666666667</ele><time>2026-05-03T07:28:12.31Z</time></trkpt><trkpt lat="42.3634833" lon="13.5112593"><ele>946.8333333333334</ele><time>2026-05-03T07:28:13.309Z</time></trkpt><trkpt lat="42.3634147" lon="13.5112522"><ele>947.0</ele><time>2026-05-03T07:28:14.309Z</time></trkpt><trkpt lat="42.3633299" lon="13.5112514"><ele>946.0000000000001</ele><time>2026-05-03T07:28:15.308Z</time></trkpt><trkpt lat="42.3632585" lon="13.5112359"><ele>945.0</ele><time>2026-05-03T07:28:16.311Z</time></trkpt><trkpt lat="42.3631615" lon="13.5111729"><ele>944.0</ele><time>2026-05-03T07:28:18.298Z</time></trkpt><trkpt lat="42.3630928" lon="13.5110498"><ele>943.0</ele><time>2026-05-03T07:28:20.3Z</time></trkpt><trkpt lat="42.363043" lon="13.5109803"><ele>942.0000000000001</ele><time>2026-05-03T07:28:21.301Z</time></trkpt><trkpt lat="42.3629832" lon="13.5109321"><ele>941.0</ele><time>2026-05-03T07:28:22.3Z</time></trkpt><trkpt lat="42.3629264" lon="13.5108779"><ele>939.5000000000001</ele><time>2026-05-03T07:28:23.31Z</time></trkpt><trkpt lat="42.3628685" lon="13.5108112"><ele>938.0</ele><time>2026-05-03T07:28:24.303Z</time></trkpt><trkpt lat="42.3628202" lon="13.5107278"><ele>936.5</ele><time>2026-05-03T07:28:25.299Z</time></trkpt><trkpt lat="42.3627669" lon="13.5106564"><ele>935.0</ele><time>2026-05-03T07:28:26.298Z</time></trkpt><trkpt lat="42.3627161" lon="13.5105982"><ele>933.5000000000001</ele><time>2026-05-03T07:28:27.305Z</time></trkpt><trkpt lat="42.3626058" lon="13.5105116"><ele>932.0</ele><time>2026-05-03T07:28:29.305Z</time></trkpt><trkpt lat="42.3625424" lon="13.5104929"><ele>932.0</ele><time>2026-05-03T07:28:30.317Z</time></trkpt><trkpt lat="42.3624673" lon="13.5105045"><ele>932.0</ele><time>2026-05-03T07:28:31.305Z</time></trkpt><trkpt lat="42.362403" lon="13.5105267"><ele>932.0</ele><time>2026-05-03T07:28:32.306Z</time></trkpt><trkpt lat="42.3623335" lon="13.5105403"><ele>932.0</ele><time>2026-05-03T07:28:33.303Z</time></trkpt><trkpt lat="42.362262" lon="13.5105564"><ele>932.0</ele><time>2026-05-03T07:28:34.301Z</time></trkpt><trkpt lat="42.3621921" lon="13.5105802"><ele>932.0</ele><time>2026-05-03T07:28:35.301Z</time></trkpt><trkpt lat="42.3621327" lon="13.510622"><ele>932.0</ele><time>2026-05-03T07:28:36.3Z</time></trkpt><trkpt lat="42.3620715" lon="13.5106449"><ele>930.6666666666667</ele><time>2026-05-03T07:28:37.299Z</time></trkpt><trkpt lat="42.3619991" lon="13.5106503"><ele>929.3333333333334</ele><time>2026-05-03T07:28:38.297Z</time></trkpt><trkpt lat="42.3619165" lon="13.5106435"><ele>928.0</ele><time>2026-05-03T07:28:39.298Z</time></trkpt><trkpt lat="42.3618427" lon="13.5106439"><ele>926.6666666666667</ele><time>2026-05-03T07:28:40.296Z</time></trkpt><trkpt lat="42.361777" lon="13.510672"><ele>925.3333333333334</ele><time>2026-05-03T07:28:41.298Z</time></trkpt><trkpt lat="42.3616716" lon="13.5107332"><ele>924.0</ele><time>2026-05-03T07:28:43.301Z</time></trkpt><trkpt lat="42.3615415" lon="13.5107317"><ele>924.0</ele><time>2026-05-03T07:28:45.304Z</time></trkpt><trkpt lat="42.3614777" lon="13.5107231"><ele>924.0</ele><time>2026-05-03T07:28:46.299Z</time></trkpt><trkpt lat="42.3614134" lon="13.5107162"><ele>924.0</ele><time>2026-05-03T07:28:47.304Z</time></trkpt><trkpt lat="42.3613433" lon="13.5107192"><ele>924.0</ele><time>2026-05-03T07:28:48.303Z</time></trkpt><trkpt lat="42.3612778" lon="13.5106948"><ele>924.0</ele><time>2026-05-03T07:28:49.303Z</time></trkpt><trkpt lat="42.36121" lon="13.5106617"><ele>924.0</ele><time>2026-05-03T07:28:50.302Z</time></trkpt><trkpt lat="42.3611386" lon="13.5106222"><ele>924.0</ele><time>2026-05-03T07:28:51.303Z</time></trkpt><trkpt lat="42.3610613" lon="13.5105937"><ele>923.1666666666666</ele><time>2026-05-03T07:28:52.307Z</time></trkpt><trkpt lat="42.3609836" lon="13.510584"><ele>922.3333333333333</ele><time>2026-05-03T07:28:53.307Z</time></trkpt><trkpt lat="42.3609138" lon="13.5105718"><ele>921.5</ele><time>2026-05-03T07:28:54.3Z</time></trkpt><trkpt lat="42.3608223" lon="13.5105338"><ele>920.6666666666666</ele><time>2026-05-03T07:28:56.297Z</time></trkpt><trkpt lat="42.3607219" lon="13.5104929"><ele>919.8333333333333</ele><time>2026-05-03T07:28:58.291Z</time></trkpt><trkpt lat="42.3606371" lon="13.5104343"><ele>919.0</ele><time>2026-05-03T07:29:00.292Z</time></trkpt><trkpt lat="42.3605772" lon="13.5103385"><ele>916.8333333333333</ele><time>2026-05-03T07:29:02.291Z</time></trkpt><trkpt lat="42.3605211" lon="13.5102807"><ele>914.6666666666666</ele><time>2026-05-03T07:29:04.3Z</time></trkpt><trkpt lat="42.3604393" lon="13.510233"><ele>912.5</ele><time>2026-05-03T07:29:07.297Z</time></trkpt><trkpt lat="42.3603794" lon="13.5101623"><ele>910.3333333333333</ele><time>2026-05-03T07:29:09.301Z</time></trkpt><trkpt lat="42.3603271" lon="13.5101034"><ele>908.1666666666666</ele><time>2026-05-03T07:29:11.305Z</time></trkpt><trkpt lat="42.3602523" lon="13.5100092"><ele>906.0</ele><time>2026-05-03T07:29:14.305Z</time></trkpt><trkpt lat="42.360174" lon="13.5099085"><ele>906.0</ele><time>2026-05-03T07:29:16.3Z</time></trkpt><trkpt lat="42.3601083" lon="13.5098292"><ele>906.0</ele><time>2026-05-03T07:29:18.309Z</time></trkpt><trkpt lat="42.3600572" lon="13.5097646"><ele>906.0</ele><time>2026-05-03T07:29:20.307Z</time></trkpt><trkpt lat="42.3599874" lon="13.509701"><ele>906.0</ele><time>2026-05-03T07:29:22.306Z</time></trkpt><trkpt lat="42.3599303" lon="13.5095658"><ele>906.0</ele><time>2026-05-03T07:29:24.308Z</time></trkpt><trkpt lat="42.3599086" lon="13.5094852"><ele>906.0</ele><time>2026-05-03T07:29:25.309Z</time></trkpt><trkpt lat="42.3598891" lon="13.5093888"><ele>905.9999999999999</ele><time>2026-05-03T07:29:26.303Z</time></trkpt><trkpt lat="42.3598642" lon="13.509288"><ele>906.0</ele><time>2026-05-03T07:29:27.308Z</time></trkpt><trkpt lat="42.3598331" lon="13.5091973"><ele>905.9999999999999</ele><time>2026-05-03T07:29:28.307Z</time></trkpt><trkpt lat="42.3598096" lon="13.509106"><ele>905.9999999999999</ele><time>2026-05-03T07:29:29.307Z</time></trkpt><trkpt lat="42.3597954" lon="13.509015"><ele>906.0</ele><time>2026-05-03T07:29:30.31Z</time></trkpt><trkpt lat="42.3597864" lon="13.5089141"><ele>905.9999999999999</ele><time>2026-05-03T07:29:31.325Z</time></trkpt><trkpt lat="42.3597703" lon="13.5088149"><ele>905.9999999999999</ele><time>2026-05-03T07:29:32.308Z</time></trkpt><trkpt lat="42.3597454" lon="13.508707"><ele>906.0</ele><time>2026-05-03T07:29:33.305Z</time></trkpt><trkpt lat="42.3597224" lon="13.5085976"><ele>906.0</ele><time>2026-05-03T07:29:34.306Z</time></trkpt><trkpt lat="42.3597002" lon="13.5084823"><ele>906.0</ele><time>2026-05-03T07:29:35.306Z</time></trkpt><trkpt lat="42.3596854" lon="13.5083828"><ele>906.0</ele><time>2026-05-03T07:29:36.31Z</time></trkpt><trkpt lat="42.3596666" lon="13.5082972"><ele>906.0</ele><time>2026-05-03T07:29:37.315Z</time></trkpt><trkpt lat="42.3596522" lon="13.5081991"><ele>906.0</ele><time>2026-05-03T07:29:38.314Z</time></trkpt><trkpt lat="42.3596347" lon="13.5080851"><ele>904.0</ele><time>2026-05-03T07:29:39.312Z</time></trkpt><trkpt lat="42.3596111" lon="13.5079515"><ele>902.0</ele><time>2026-05-03T07:29:40.311Z</time></trkpt><trkpt lat="42.3595779" lon="13.5078272"><ele>900.0</ele><time>2026-05-03T07:29:41.312Z</time></trkpt><trkpt lat="42.3595614" lon="13.5077164"><ele>898.0</ele><time>2026-05-03T07:29:42.312Z</time></trkpt><trkpt lat="42.359548" lon="13.507619"><ele>896.0</ele><time>2026-05-03T07:29:43.311Z</time></trkpt><trkpt lat="42.3595439" lon="13.5075127"><ele>894.0</ele><time>2026-05-03T07:29:44.312Z</time></trkpt><trkpt lat="42.3595637" lon="13.507412"><ele>892.8333333333334</ele><time>2026-05-03T07:29:45.31Z</time></trkpt><trkpt lat="42.3595732" lon="13.50731"><ele>891.6666666666667</ele><time>2026-05-03T07:29:46.304Z</time></trkpt><trkpt lat="42.3595476" lon="13.5072287"><ele>890.5</ele><time>2026-05-03T07:29:47.308Z</time></trkpt><trkpt lat="42.3594862" lon="13.5070989"><ele>889.3333333333334</ele><time>2026-05-03T07:29:49.309Z</time></trkpt><trkpt lat="42.3594908" lon="13.506951"><ele>888.1666666666667</ele><time>2026-05-03T07:29:51.313Z</time></trkpt><trkpt lat="42.3595122" lon="13.5068468"><ele>887.0</ele><time>2026-05-03T07:29:52.317Z</time></trkpt><trkpt lat="42.3595139" lon="13.5067383"><ele>886.0000000000001</ele><time>2026-05-03T07:29:53.306Z</time></trkpt><trkpt lat="42.3594931" lon="13.5066486"><ele>885.0</ele><time>2026-05-03T07:29:54.307Z</time></trkpt><trkpt lat="42.3594634" lon="13.5065729"><ele>884.0</ele><time>2026-05-03T07:29:55.311Z</time></trkpt><trkpt lat="42.3594095" lon="13.5064215"><ele>883.0</ele><time>2026-05-03T07:29:57.315Z</time></trkpt><trkpt lat="42.3593839" lon="13.5063032"><ele>882.0000000000001</ele><time>2026-05-03T07:29:59.31Z</time></trkpt><trkpt lat="42.3593024" lon="13.5062637"><ele>881.0</ele><time>2026-05-03T07:30:02.318Z</time></trkpt><trkpt lat="42.3591742" lon="13.5063337"><ele>881.0</ele><time>2026-05-03T07:30:04.307Z</time></trkpt><trkpt lat="42.3590945" lon="13.506337"><ele>880.9999999999999</ele><time>2026-05-03T07:30:05.301Z</time></trkpt><trkpt lat="42.3589982" lon="13.5062961"><ele>880.9999999999999</ele><time>2026-05-03T07:30:06.309Z</time></trkpt><trkpt lat="42.3589109" lon="13.5062201"><ele>881.0</ele><time>2026-05-03T07:30:07.306Z</time></trkpt><trkpt lat="42.3588471" lon="13.5061304"><ele>881.0</ele><time>2026-05-03T07:30:08.307Z</time></trkpt><trkpt lat="42.3587858" lon="13.5060309"><ele>883.0</ele><time>2026-05-03T07:30:09.314Z</time></trkpt><trkpt lat="42.3587322" lon="13.5059221"><ele>884.9999999999999</ele><time>2026-05-03T07:30:10.319Z</time></trkpt><trkpt lat="42.358679" lon="13.5058191"><ele>886.9999999999999</ele><time>2026-05-03T07:30:11.323Z</time></trkpt><trkpt lat="42.3586212" lon="13.5057023"><ele>889.0</ele><time>2026-05-03T07:30:12.319Z</time></trkpt><trkpt lat="42.3585578" lon="13.5055797"><ele>891.0</ele><time>2026-05-03T07:30:13.317Z</time></trkpt><trkpt lat="42.3585006" lon="13.5054717"><ele>888.0</ele><time>2026-05-03T07:30:14.319Z</time></trkpt><trkpt lat="42.3584486" lon="13.50537"><ele>884.9999999999999</ele><time>2026-05-03T07:30:15.314Z</time></trkpt><trkpt lat="42.358388" lon="13.5052632"><ele>881.9999999999999</ele><time>2026-05-03T07:30:16.323Z</time></trkpt><trkpt lat="42.3583214" lon="13.5051604"><ele>879.0</ele><time>2026-05-03T07:30:17.318Z</time></trkpt><trkpt lat="42.3582521" lon="13.505044"><ele>876.0</ele><time>2026-05-03T07:30:18.324Z</time></trkpt><trkpt lat="42.3581595" lon="13.504944"><ele>876.0</ele><time>2026-05-03T07:30:19.321Z</time></trkpt><trkpt lat="42.358052" lon="13.5048568"><ele>876.0</ele><time>2026-05-03T07:30:20.323Z</time></trkpt><trkpt lat="42.3579364" lon="13.5047698"><ele>876.0</ele><time>2026-05-03T07:30:21.321Z</time></trkpt><trkpt lat="42.3578244" lon="13.5046945"><ele>876.0</ele><time>2026-05-03T07:30:22.324Z</time></trkpt><trkpt lat="42.3577068" lon="13.5046082"><ele>876.0</ele><time>2026-05-03T07:30:23.326Z</time></trkpt><trkpt lat="42.3575923" lon="13.5045401"><ele>876.0</ele><time>2026-05-03T07:30:24.317Z</time></trkpt><trkpt lat="42.3574815" lon="13.5044971"><ele>876.0</ele><time>2026-05-03T07:30:25.314Z</time></trkpt><trkpt lat="42.357375" lon="13.5044766"><ele>876.0</ele><time>2026-05-03T07:30:26.315Z</time></trkpt><trkpt lat="42.3572665" lon="13.504469"><ele>877.0</ele><time>2026-05-03T07:30:27.321Z</time></trkpt><trkpt lat="42.3571523" lon="13.5044706"><ele>878.0</ele><time>2026-05-03T07:30:28.32Z</time></trkpt><trkpt lat="42.3570417" lon="13.5044867"><ele>879.0</ele><time>2026-05-03T07:30:29.322Z</time></trkpt><trkpt lat="42.3569278" lon="13.5045411"><ele>880.0</ele><time>2026-05-03T07:30:30.324Z</time></trkpt><trkpt lat="42.356824" lon="13.5045988"><ele>883.6</ele><time>2026-05-03T07:30:31.325Z</time></trkpt><trkpt lat="42.3567338" lon="13.5046684"><ele>887.2</ele><time>2026-05-03T07:30:32.32Z</time></trkpt><trkpt lat="42.3566528" lon="13.5047516"><ele>890.8</ele><time>2026-05-03T07:30:33.332Z</time></trkpt><trkpt lat="42.3565874" lon="13.5048617"><ele>894.4</ele><time>2026-05-03T07:30:34.315Z</time></trkpt><trkpt lat="42.356555" lon="13.5049693"><ele>898.0</ele><time>2026-05-03T07:30:35.318Z</time></trkpt><trkpt lat="42.3565286" lon="13.5050718"><ele>897.9999999999999</ele><time>2026-05-03T07:30:36.319Z</time></trkpt><trkpt lat="42.3565147" lon="13.5051725"><ele>898.0</ele><time>2026-05-03T07:30:37.32Z</time></trkpt><trkpt lat="42.3564933" lon="13.5052651"><ele>898.0</ele><time>2026-05-03T07:30:38.315Z</time></trkpt><trkpt lat="42.3564651" lon="13.505346"><ele>898.0</ele><time>2026-05-03T07:30:39.32Z</time></trkpt><trkpt lat="42.356421" lon="13.5054669"><ele>897.9999999999999</ele><time>2026-05-03T07:30:41.322Z</time></trkpt><trkpt lat="42.3564768" lon="13.5055408"><ele>898.0</ele><time>2026-05-03T07:30:43.32Z</time></trkpt><trkpt lat="42.3565192" lon="13.5056245"><ele>899.9999999999999</ele><time>2026-05-03T07:30:45.314Z</time></trkpt><trkpt lat="42.3565693" lon="13.5056939"><ele>902.0</ele><time>2026-05-03T07:30:53.325Z</time></trkpt><trkpt lat="42.3566265" lon="13.505787"><ele>904.0</ele><time>2026-05-03T07:30:55.327Z</time></trkpt><trkpt lat="42.3567036" lon="13.5058544"><ele>906.0</ele><time>2026-05-03T07:30:57.326Z</time></trkpt><trkpt lat="42.3567796" lon="13.5059003"><ele>907.9999999999999</ele><time>2026-05-03T07:30:59.331Z</time></trkpt><trkpt lat="42.3568475" lon="13.5059358"><ele>910.0</ele><time>2026-05-03T07:31:01.326Z</time></trkpt><trkpt lat="42.3569092" lon="13.5059997"><ele>910.0</ele><time>2026-05-03T07:31:03.321Z</time></trkpt><trkpt lat="42.3569559" lon="13.506104"><ele>910.0</ele><time>2026-05-03T07:31:05.321Z</time></trkpt><trkpt lat="42.3570102" lon="13.5062494"><ele>910.0</ele><time>2026-05-03T07:31:07.317Z</time></trkpt><trkpt lat="42.3570163" lon="13.5064199"><ele>910.0</ele><time>2026-05-03T07:31:09.321Z</time></trkpt><trkpt lat="42.3570079" lon="13.5065735"><ele>911.4285714285714</ele><time>2026-05-03T07:31:11.321Z</time></trkpt><trkpt lat="42.3569954" lon="13.5066886"><ele>912.8571428571429</ele><time>2026-05-03T07:31:13.322Z</time></trkpt><trkpt lat="42.3570393" lon="13.5067642"><ele>914.2857142857142</ele><time>2026-05-03T07:31:15.32Z</time></trkpt><trkpt lat="42.3571261" lon="13.5067661"><ele>915.7142857142857</ele><time>2026-05-03T07:31:17.322Z</time></trkpt><trkpt lat="42.3571847" lon="13.5067159"><ele>917.1428571428571</ele><time>2026-05-03T07:31:18.326Z</time></trkpt><trkpt lat="42.3572416" lon="13.5066787"><ele>918.5714285714284</ele><time>2026-05-03T07:31:19.327Z</time></trkpt><trkpt lat="42.3572988" lon="13.506643"><ele>919.9999999999999</ele><time>2026-05-03T07:31:20.325Z</time></trkpt><trkpt lat="42.3573882" lon="13.5065964"><ele>920.8333333333334</ele><time>2026-05-03T07:31:22.326Z</time></trkpt><trkpt lat="42.3574549" lon="13.5066362"><ele>921.6666666666667</ele><time>2026-05-03T07:31:24.314Z</time></trkpt><trkpt lat="42.3574947" lon="13.5067644"><ele>922.5</ele><time>2026-05-03T07:31:26.318Z</time></trkpt><trkpt lat="42.3575101" lon="13.5068517"><ele>923.3333333333333</ele><time>2026-05-03T07:31:27.325Z</time></trkpt><trkpt lat="42.3575297" lon="13.5070112"><ele>924.1666666666666</ele><time>2026-05-03T07:31:29.329Z</time></trkpt><trkpt lat="42.3575288" lon="13.5071099"><ele>925.0</ele><time>2026-05-03T07:31:30.329Z</time></trkpt><trkpt lat="42.3575349" lon="13.5072148"><ele>925.7142857142858</ele><time>2026-05-03T07:31:31.325Z</time></trkpt><trkpt lat="42.3575563" lon="13.5073101"><ele>926.4285714285713</ele><time>2026-05-03T07:31:32.323Z</time></trkpt><trkpt lat="42.3575658" lon="13.5074006"><ele>927.1428571428571</ele><time>2026-05-03T07:31:33.323Z</time></trkpt><trkpt lat="42.3575672" lon="13.507497"><ele>927.8571428571429</ele><time>2026-05-03T07:31:34.326Z</time></trkpt><trkpt lat="42.3575586" lon="13.5076027"><ele>928.5714285714287</ele><time>2026-05-03T07:31:35.34Z</time></trkpt><trkpt lat="42.3575406" lon="13.507704"><ele>929.2857142857142</ele><time>2026-05-03T07:31:36.326Z</time></trkpt><trkpt lat="42.3575263" lon="13.5077884"><ele>930.0</ele><time>2026-05-03T07:31:37.327Z</time></trkpt><trkpt lat="42.3575271" lon="13.5078759"><ele>931.6</ele><time>2026-05-03T07:31:38.325Z</time></trkpt><trkpt lat="42.3575347" lon="13.5079681"><ele>933.2</ele><time>2026-05-03T07:31:39.325Z</time></trkpt><trkpt lat="42.357541" lon="13.5080631"><ele>934.8</ele><time>2026-05-03T07:31:40.327Z</time></trkpt><trkpt lat="42.3575633" lon="13.5082338"><ele>936.4</ele><time>2026-05-03T07:31:42.324Z</time></trkpt><trkpt lat="42.3575629" lon="13.5083203"><ele>938.0</ele><time>2026-05-03T07:31:43.32Z</time></trkpt><trkpt lat="42.3575594" lon="13.5084842"><ele>938.0</ele><time>2026-05-03T07:31:45.323Z</time></trkpt><trkpt lat="42.3575327" lon="13.5086304"><ele>938.0</ele><time>2026-05-03T07:31:47.322Z</time></trkpt><trkpt lat="42.3575145" lon="13.508807"><ele>938.0</ele><time>2026-05-03T07:31:49.323Z</time></trkpt><trkpt lat="42.3574881" lon="13.5088882"><ele>938.0</ele><time>2026-05-03T07:31:50.328Z</time></trkpt><trkpt lat="42.3574789" lon="13.5089876"><ele>938.0</ele><time>2026-05-03T07:31:52.326Z</time></trkpt><trkpt lat="42.3575519" lon="13.5090821"><ele>941.0</ele><time>2026-05-03T07:31:54.318Z</time></trkpt><trkpt lat="42.3576246" lon="13.509157"><ele>944.0</ele><time>2026-05-03T07:31:55.314Z</time></trkpt><trkpt lat="42.3577146" lon="13.509256"><ele>947.0</ele><time>2026-05-03T07:31:56.322Z</time></trkpt><trkpt lat="42.3577862" lon="13.5093764"><ele>950.0</ele><time>2026-05-03T07:31:57.324Z</time></trkpt><trkpt lat="42.3578482" lon="13.5095095"><ele>953.0</ele><time>2026-05-03T07:31:58.315Z</time></trkpt><trkpt lat="42.3578938" lon="13.5096532"><ele>955.75</ele><time>2026-05-03T07:31:59.326Z</time></trkpt><trkpt lat="42.3579379" lon="13.5097975"><ele>958.5</ele><time>2026-05-03T07:32:00.325Z</time></trkpt><trkpt lat="42.3579708" lon="13.5099436"><ele>961.25</ele><time>2026-05-03T07:32:01.329Z</time></trkpt><trkpt lat="42.3579968" lon="13.5101009"><ele>964.0</ele><time>2026-05-03T07:32:02.322Z</time></trkpt><trkpt lat="42.3580048" lon="13.5102586"><ele>963.9999999999999</ele><time>2026-05-03T07:32:03.316Z</time></trkpt><trkpt lat="42.3579868" lon="13.5103994"><ele>964.0</ele><time>2026-05-03T07:32:04.319Z</time></trkpt><trkpt lat="42.3579509" lon="13.5105158"><ele>964.0</ele><time>2026-05-03T07:32:05.323Z</time></trkpt><trkpt lat="42.3578943" lon="13.5105777"><ele>964.0</ele><time>2026-05-03T07:32:06.338Z</time></trkpt><trkpt lat="42.3578137" lon="13.5105942"><ele>963.9999999999999</ele><time>2026-05-03T07:32:07.327Z</time></trkpt><trkpt lat="42.3577177" lon="13.5105828"><ele>964.0</ele><time>2026-05-03T07:32:08.318Z</time></trkpt><trkpt lat="42.3576414" lon="13.510577"><ele>964.3333333333333</ele><time>2026-05-03T07:32:09.317Z</time></trkpt><trkpt lat="42.3575637" lon="13.5105856"><ele>964.6666666666666</ele><time>2026-05-03T07:32:10.317Z</time></trkpt><trkpt lat="42.35751" lon="13.5106683"><ele>965.0</ele><time>2026-05-03T07:32:12.308Z</time></trkpt><trkpt lat="42.3575616" lon="13.5107878"><ele>965.3333333333333</ele><time>2026-05-03T07:32:14.326Z</time></trkpt><trkpt lat="42.3576161" lon="13.5108606"><ele>965.6666666666666</ele><time>2026-05-03T07:32:15.325Z</time></trkpt><trkpt lat="42.3576743" lon="13.5109413"><ele>966.0</ele><time>2026-05-03T07:32:16.326Z</time></trkpt><trkpt lat="42.3577291" lon="13.5110376"><ele>966.0</ele><time>2026-05-03T07:32:17.33Z</time></trkpt><trkpt lat="42.3577683" lon="13.5111399"><ele>965.9999999999999</ele><time>2026-05-03T07:32:18.324Z</time></trkpt><trkpt lat="42.3577989" lon="13.5112565"><ele>965.9999999999999</ele><time>2026-05-03T07:32:19.328Z</time></trkpt><trkpt lat="42.3578303" lon="13.5113722"><ele>966.0</ele><time>2026-05-03T07:32:20.331Z</time></trkpt><trkpt lat="42.3578676" lon="13.5114902"><ele>966.0</ele><time>2026-05-03T07:32:21.328Z</time></trkpt><trkpt lat="42.3579161" lon="13.5116111"><ele>966.0</ele><time>2026-05-03T07:32:22.332Z</time></trkpt><trkpt lat="42.3579594" lon="13.511731"><ele>965.9999999999999</ele><time>2026-05-03T07:32:23.328Z</time></trkpt><trkpt lat="42.3580068" lon="13.5118558"><ele>965.9999999999999</ele><time>2026-05-03T07:32:24.33Z</time></trkpt><trkpt lat="42.3580545" lon="13.5119939"><ele>966.0</ele><time>2026-05-03T07:32:25.331Z</time></trkpt><trkpt lat="42.3581005" lon="13.5121396"><ele>966.0</ele><time>2026-05-03T07:32:26.327Z</time></trkpt><trkpt lat="42.3581584" lon="13.5122818"><ele>966.75</ele><time>2026-05-03T07:32:27.331Z</time></trkpt><trkpt lat="42.3582087" lon="13.5124228"><ele>967.5</ele><time>2026-05-03T07:32:28.327Z</time></trkpt><trkpt lat="42.3582637" lon="13.5125648"><ele>968.25</ele><time>2026-05-03T07:32:29.333Z</time></trkpt><trkpt lat="42.3583228" lon="13.5127015"><ele>969.0</ele><time>2026-05-03T07:32:30.33Z</time></trkpt><trkpt lat="42.3583823" lon="13.5128481"><ele>969.5</ele><time>2026-05-03T07:32:31.33Z</time></trkpt><trkpt lat="42.358438" lon="13.5130007"><ele>970.0</ele><time>2026-05-03T07:32:32.328Z</time></trkpt><trkpt lat="42.3584874" lon="13.5131575"><ele>970.5</ele><time>2026-05-03T07:32:33.327Z</time></trkpt><trkpt lat="42.3585409" lon="13.5132988"><ele>971.0</ele><time>2026-05-03T07:32:34.328Z</time></trkpt><trkpt lat="42.358594" lon="13.5134472"><ele>971.0</ele><time>2026-05-03T07:32:35.326Z</time></trkpt><trkpt lat="42.3586613" lon="13.5135998"><ele>971.0</ele><time>2026-05-03T07:32:36.326Z</time></trkpt><trkpt lat="42.3587254" lon="13.5137543"><ele>971.0</ele><time>2026-05-03T07:32:37.338Z</time></trkpt><trkpt lat="42.3587872" lon="13.5139051"><ele>971.0</ele><time>2026-05-03T07:32:38.325Z</time></trkpt><trkpt lat="42.3588499" lon="13.5140666"><ele>973.75</ele><time>2026-05-03T07:32:39.324Z</time></trkpt><trkpt lat="42.358923" lon="13.5142352"><ele>976.5</ele><time>2026-05-03T07:32:40.323Z</time></trkpt><trkpt lat="42.3589872" lon="13.5144013"><ele>979.25</ele><time>2026-05-03T07:32:41.316Z</time></trkpt><trkpt lat="42.3590511" lon="13.5145618"><ele>982.0</ele><time>2026-05-03T07:32:42.317Z</time></trkpt><trkpt lat="42.3591153" lon="13.5147171"><ele>982.6</ele><time>2026-05-03T07:32:43.316Z</time></trkpt><trkpt lat="42.3591813" lon="13.5148592"><ele>983.2</ele><time>2026-05-03T07:32:44.316Z</time></trkpt><trkpt lat="42.3592529" lon="13.514978"><ele>983.8</ele><time>2026-05-03T07:32:45.317Z</time></trkpt><trkpt lat="42.3593394" lon="13.5150533"><ele>984.4</ele><time>2026-05-03T07:32:46.321Z</time></trkpt><trkpt lat="42.3594345" lon="13.515053"><ele>985.0</ele><time>2026-05-03T07:32:47.323Z</time></trkpt><trkpt lat="42.3595055" lon="13.5150449"><ele>984.9999999999999</ele><time>2026-05-03T07:32:48.311Z</time></trkpt><trkpt lat="42.3595968" lon="13.5150223"><ele>985.0</ele><time>2026-05-03T07:32:50.319Z</time></trkpt><trkpt lat="42.359652" lon="13.51497"><ele>985.0</ele><time>2026-05-03T07:32:55.321Z</time></trkpt><trkpt lat="42.3596988" lon="13.5148714"><ele>985.0</ele><time>2026-05-03T07:32:58.308Z</time></trkpt><trkpt lat="42.3596166" lon="13.5149489"><ele>984.9999999999999</ele><time>2026-05-03T07:33:01.318Z</time></trkpt><trkpt lat="42.3595612" lon="13.5150136"><ele>985.0</ele><time>2026-05-03T07:33:02.314Z</time></trkpt><trkpt lat="42.3594846" lon="13.5150574"><ele>985.0</ele><time>2026-05-03T07:33:03.312Z</time></trkpt><trkpt lat="42.3593936" lon="13.5150669"><ele>985.0</ele><time>2026-05-03T07:33:04.323Z</time></trkpt><trkpt lat="42.3592988" lon="13.5150292"><ele>985.0</ele><time>2026-05-03T07:33:05.325Z</time></trkpt><trkpt lat="42.3592131" lon="13.5149394"><ele>985.0</ele><time>2026-05-03T07:33:06.324Z</time></trkpt><trkpt lat="42.3591482" lon="13.514822"><ele>985.0</ele><time>2026-05-03T07:33:07.325Z</time></trkpt><trkpt lat="42.3590927" lon="13.5146562"><ele>984.25</ele><time>2026-05-03T07:33:08.332Z</time></trkpt><trkpt lat="42.3590384" lon="13.5144851"><ele>983.5</ele><time>2026-05-03T07:33:09.318Z</time></trkpt><trkpt lat="42.3589816" lon="13.5143301"><ele>982.75</ele><time>2026-05-03T07:33:10.32Z</time></trkpt><trkpt lat="42.3589309" lon="13.5141986"><ele>982.0</ele><time>2026-05-03T07:33:11.318Z</time></trkpt><trkpt lat="42.3588873" lon="13.5140869"><ele>980.3333333333333</ele><time>2026-05-03T07:33:12.317Z</time></trkpt><trkpt lat="42.3588417" lon="13.5139781"><ele>978.6666666666666</ele><time>2026-05-03T07:33:13.321Z</time></trkpt><trkpt lat="42.3588027" lon="13.51388"><ele>977.0</ele><time>2026-05-03T07:33:14.318Z</time></trkpt><trkpt lat="42.3587667" lon="13.5137964"><ele>975.3333333333333</ele><time>2026-05-03T07:33:15.317Z</time></trkpt><trkpt lat="42.3586816" lon="13.5137248"><ele>973.6666666666666</ele><time>2026-05-03T07:33:17.326Z</time></trkpt><trkpt lat="42.3586508" lon="13.5138097"><ele>972.0</ele><time>2026-05-03T07:33:19.306Z</time></trkpt><trkpt lat="42.3587073" lon="13.5139819"><ele>972.0</ele><time>2026-05-03T07:33:21.305Z</time></trkpt><trkpt lat="42.3587666" lon="13.5141107"><ele>972.0</ele><time>2026-05-03T07:33:22.313Z</time></trkpt><trkpt lat="42.3588332" lon="13.5142536"><ele>972.0</ele><time>2026-05-03T07:33:23.321Z</time></trkpt><trkpt lat="42.3588907" lon="13.5143888"><ele>972.0</ele><time>2026-05-03T07:33:24.319Z</time></trkpt><trkpt lat="42.3589511" lon="13.5145119"><ele>974.6</ele><time>2026-05-03T07:33:25.317Z</time></trkpt><trkpt lat="42.3590041" lon="13.5146242"><ele>977.2</ele><time>2026-05-03T07:33:26.323Z</time></trkpt><trkpt lat="42.3590539" lon="13.5147388"><ele>979.8</ele><time>2026-05-03T07:33:27.326Z</time></trkpt><trkpt lat="42.3591129" lon="13.5148713"><ele>982.4</ele><time>2026-05-03T07:33:28.322Z</time></trkpt><trkpt lat="42.3591712" lon="13.5150084"><ele>985.0</ele><time>2026-05-03T07:33:29.324Z</time></trkpt><trkpt lat="42.3592238" lon="13.5151277"><ele>984.9999999999999</ele><time>2026-05-03T07:33:30.322Z</time></trkpt><trkpt lat="42.3592554" lon="13.5152432"><ele>985.0</ele><time>2026-05-03T07:33:31.322Z</time></trkpt><trkpt lat="42.3592739" lon="13.5153585"><ele>985.0</ele><time>2026-05-03T07:33:32.313Z</time></trkpt><trkpt lat="42.3592703" lon="13.5154675"><ele>985.0</ele><time>2026-05-03T07:33:33.32Z</time></trkpt><trkpt lat="42.359246" lon="13.5155771"><ele>984.9999999999999</ele><time>2026-05-03T07:33:34.316Z</time></trkpt><trkpt lat="42.3591994" lon="13.5156764"><ele>985.0</ele><time>2026-05-03T07:33:35.318Z</time></trkpt><trkpt lat="42.3591543" lon="13.5157766"><ele>985.8333333333333</ele><time>2026-05-03T07:33:36.32Z</time></trkpt><trkpt lat="42.3591202" lon="13.5158751"><ele>986.6666666666666</ele><time>2026-05-03T07:33:37.318Z</time></trkpt><trkpt lat="42.3590826" lon="13.5159626"><ele>987.5</ele><time>2026-05-03T07:33:38.32Z</time></trkpt><trkpt lat="42.3590605" lon="13.5160601"><ele>988.3333333333333</ele><time>2026-05-03T07:33:39.354Z</time></trkpt><trkpt lat="42.3590529" lon="13.5161559"><ele>989.1666666666666</ele><time>2026-05-03T07:33:40.322Z</time></trkpt><trkpt lat="42.3590423" lon="13.5162535"><ele>990.0</ele><time>2026-05-03T07:33:41.319Z</time></trkpt><trkpt lat="42.3590393" lon="13.5163549"><ele>993.0</ele><time>2026-05-03T07:33:42.321Z</time></trkpt><trkpt lat="42.3590488" lon="13.5164519"><ele>996.0</ele><time>2026-05-03T07:33:43.321Z</time></trkpt><trkpt lat="42.3590468" lon="13.5165618"><ele>999.0</ele><time>2026-05-03T07:33:44.315Z</time></trkpt><trkpt lat="42.3590193" lon="13.5166805"><ele>1002.0</ele><time>2026-05-03T07:33:45.315Z</time></trkpt><trkpt lat="42.3589741" lon="13.5168068"><ele>1005.0</ele><time>2026-05-03T07:33:46.317Z</time></trkpt><trkpt lat="42.3589321" lon="13.5169385"><ele>1003.8</ele><time>2026-05-03T07:33:47.322Z</time></trkpt><trkpt lat="42.358867" lon="13.5170652"><ele>1002.6</ele><time>2026-05-03T07:33:48.321Z</time></trkpt><trkpt lat="42.3588072" lon="13.5171984"><ele>1001.4000000000001</ele><time>2026-05-03T07:33:49.307Z</time></trkpt><trkpt lat="42.3587467" lon="13.5172984"><ele>1000.2</ele><time>2026-05-03T07:33:50.312Z</time></trkpt><trkpt lat="42.358695" lon="13.5174045"><ele>999.0</ele><time>2026-05-03T07:33:51.313Z</time></trkpt><trkpt lat="42.3586572" lon="13.5174971"><ele>999.0</ele><time>2026-05-03T07:33:52.315Z</time></trkpt><trkpt lat="42.3585959" lon="13.5175884"><ele>999.0</ele><time>2026-05-03T07:33:54.319Z</time></trkpt><trkpt lat="42.3585687" lon="13.51768"><ele>999.0</ele><time>2026-05-03T07:33:56.319Z</time></trkpt><trkpt lat="42.3586161" lon="13.5177388"><ele>999.0</ele><time>2026-05-03T07:33:58.311Z</time></trkpt><trkpt lat="42.3587097" lon="13.5177218"><ele>999.0</ele><time>2026-05-03T07:34:00.317Z</time></trkpt><trkpt lat="42.3587932" lon="13.5176027"><ele>999.0</ele><time>2026-05-03T07:34:02.318Z</time></trkpt><trkpt lat="42.3588332" lon="13.5175197"><ele>1000.0</ele><time>2026-05-03T07:34:03.317Z</time></trkpt><trkpt lat="42.3588693" lon="13.5174361"><ele>1001.0</ele><time>2026-05-03T07:34:04.315Z</time></trkpt><trkpt lat="42.3589408" lon="13.5173113"><ele>1002.0</ele><time>2026-05-03T07:34:06.315Z</time></trkpt><trkpt lat="42.3590001" lon="13.5172478"><ele>1003.0</ele><time>2026-05-03T07:34:07.317Z</time></trkpt><trkpt lat="42.359064" lon="13.5171809"><ele>1004.0</ele><time>2026-05-03T07:34:08.318Z</time></trkpt><trkpt lat="42.3591103" lon="13.5171132"><ele>1005.0</ele><time>2026-05-03T07:34:09.339Z</time></trkpt><trkpt lat="42.3591488" lon="13.5170378"><ele>1005.0000000000001</ele><time>2026-05-03T07:34:10.324Z</time></trkpt><trkpt lat="42.3591927" lon="13.5169693"><ele>1005.0</ele><time>2026-05-03T07:34:11.323Z</time></trkpt><trkpt lat="42.3592411" lon="13.5169022"><ele>1005.0000000000001</ele><time>2026-05-03T07:34:12.323Z</time></trkpt><trkpt lat="42.3592898" lon="13.5168206"><ele>1005.0000000000001</ele><time>2026-05-03T07:34:13.33Z</time></trkpt><trkpt lat="42.3593371" lon="13.51674"><ele>1005.0</ele><time>2026-05-03T07:34:14.331Z</time></trkpt><trkpt lat="42.3593963" lon="13.5166799"><ele>1005.0000000000001</ele><time>2026-05-03T07:34:15.33Z</time></trkpt><trkpt lat="42.3594747" lon="13.5166399"><ele>1005.0000000000001</ele><time>2026-05-03T07:34:16.327Z</time></trkpt><trkpt lat="42.3595535" lon="13.5166044"><ele>1005.0</ele><time>2026-05-03T07:34:17.333Z</time></trkpt><trkpt lat="42.3596263" lon="13.5165661"><ele>1005.0</ele><time>2026-05-03T07:34:18.331Z</time></trkpt><trkpt lat="42.3596968" lon="13.5165435"><ele>1005.0</ele><time>2026-05-03T07:34:19.33Z</time></trkpt><trkpt lat="42.3597613" lon="13.5165357"><ele>1005.0</ele><time>2026-05-03T07:34:20.317Z</time></trkpt><trkpt lat="42.3598599" lon="13.5165219"><ele>1005.0</ele><time>2026-05-03T07:34:22.324Z</time></trkpt><trkpt lat="42.3599753" lon="13.5164853"><ele>1005.0</ele><time>2026-05-03T07:34:24.322Z</time></trkpt><trkpt lat="42.3600968" lon="13.5164589"><ele>1008.4</ele><time>2026-05-03T07:34:26.322Z</time></trkpt><trkpt lat="42.36016" lon="13.5164441"><ele>1011.8</ele><time>2026-05-03T07:34:27.322Z</time></trkpt><trkpt lat="42.3602868" lon="13.5164253"><ele>1015.2</ele><time>2026-05-03T07:34:29.328Z</time></trkpt><trkpt lat="42.3603588" lon="13.5164286"><ele>1018.6</ele><time>2026-05-03T07:34:30.321Z</time></trkpt><trkpt lat="42.3604739" lon="13.516428"><ele>1022.0</ele><time>2026-05-03T07:34:32.315Z</time></trkpt><trkpt lat="42.3605824" lon="13.5164459"><ele>1023.8</ele><time>2026-05-03T07:34:34.316Z</time></trkpt><trkpt lat="42.360694" lon="13.5164883"><ele>1025.6</ele><time>2026-05-03T07:34:36.319Z</time></trkpt><trkpt lat="42.3607567" lon="13.5165073"><ele>1027.3999999999999</ele><time>2026-05-03T07:34:37.318Z</time></trkpt><trkpt lat="42.3608811" lon="13.5165474"><ele>1029.2</ele><time>2026-05-03T07:34:39.316Z</time></trkpt><trkpt lat="42.3609611" lon="13.5165688"><ele>1031.0</ele><time>2026-05-03T07:34:40.327Z</time></trkpt><trkpt lat="42.361044" lon="13.5165776"><ele>1031.0</ele><time>2026-05-03T07:34:41.313Z</time></trkpt><trkpt lat="42.3611112" lon="13.5165781"><ele>1031.0</ele><time>2026-05-03T07:34:42.314Z</time></trkpt><trkpt lat="42.3611743" lon="13.5165836"><ele>1031.0</ele><time>2026-05-03T07:34:43.305Z</time></trkpt><trkpt lat="42.3612404" lon="13.5165909"><ele>1031.0</ele><time>2026-05-03T07:34:44.308Z</time></trkpt><trkpt lat="42.361322" lon="13.5165773"><ele>1031.0</ele><time>2026-05-03T07:34:45.308Z</time></trkpt><trkpt lat="42.3614098" lon="13.5165719"><ele>1031.0</ele><time>2026-05-03T07:34:46.306Z</time></trkpt><trkpt lat="42.3614937" lon="13.5165675"><ele>1032.0</ele><time>2026-05-03T07:34:47.31Z</time></trkpt><trkpt lat="42.3615812" lon="13.5165605"><ele>1033.0</ele><time>2026-05-03T07:34:48.317Z</time></trkpt><trkpt lat="42.3616647" lon="13.5165724"><ele>1034.0</ele><time>2026-05-03T07:34:49.313Z</time></trkpt><trkpt lat="42.3617488" lon="13.5165689"><ele>1035.0</ele><time>2026-05-03T07:34:50.315Z</time></trkpt><trkpt lat="42.3618421" lon="13.5165799"><ele>1036.0</ele><time>2026-05-03T07:34:51.316Z</time></trkpt><trkpt lat="42.3619283" lon="13.5165936"><ele>1037.0</ele><time>2026-05-03T07:34:52.315Z</time></trkpt><trkpt lat="42.362021" lon="13.5165771"><ele>1037.0</ele><time>2026-05-03T07:34:53.315Z</time></trkpt><trkpt lat="42.3621048" lon="13.5165525"><ele>1037.0</ele><time>2026-05-03T07:34:54.312Z</time></trkpt><trkpt lat="42.3621807" lon="13.5165401"><ele>1037.0</ele><time>2026-05-03T07:34:55.309Z</time></trkpt><trkpt lat="42.3622579" lon="13.5165468"><ele>1037.0</ele><time>2026-05-03T07:34:56.313Z</time></trkpt><trkpt lat="42.3623345" lon="13.5165499"><ele>1037.0</ele><time>2026-05-03T07:34:57.317Z</time></trkpt><trkpt lat="42.3624098" lon="13.5165695"><ele>1037.0</ele><time>2026-05-03T07:34:58.313Z</time></trkpt><trkpt lat="42.3624923" lon="13.5165716"><ele>1038.0</ele><time>2026-05-03T07:34:59.312Z</time></trkpt><trkpt lat="42.3625849" lon="13.5165892"><ele>1039.0</ele><time>2026-05-03T07:35:00.309Z</time></trkpt><trkpt lat="42.3626747" lon="13.5165999"><ele>1040.0</ele><time>2026-05-03T07:35:01.316Z</time></trkpt><trkpt lat="42.3627736" lon="13.5166039"><ele>1041.0</ele><time>2026-05-03T07:35:02.311Z</time></trkpt><trkpt lat="42.3628659" lon="13.5166384"><ele>1042.0</ele><time>2026-05-03T07:35:03.312Z</time></trkpt><trkpt lat="42.3629545" lon="13.516689"><ele>1042.0</ele><time>2026-05-03T07:35:04.311Z</time></trkpt><trkpt lat="42.3630339" lon="13.5167317"><ele>1042.0</ele><time>2026-05-03T07:35:05.311Z</time></trkpt><trkpt lat="42.3631062" lon="13.5167851"><ele>1042.0</ele><time>2026-05-03T07:35:06.311Z</time></trkpt><trkpt lat="42.3631881" lon="13.5168493"><ele>1042.0</ele><time>2026-05-03T07:35:07.312Z</time></trkpt><trkpt lat="42.3632647" lon="13.516909"><ele>1042.0</ele><time>2026-05-03T07:35:08.319Z</time></trkpt><trkpt lat="42.3633387" lon="13.5169749"><ele>1042.0</ele><time>2026-05-03T07:35:09.313Z</time></trkpt><trkpt lat="42.363419" lon="13.5170388"><ele>1044.0</ele><time>2026-05-03T07:35:10.315Z</time></trkpt><trkpt lat="42.363492" lon="13.5170888"><ele>1046.0</ele><time>2026-05-03T07:35:11.331Z</time></trkpt><trkpt lat="42.3635622" lon="13.5171338"><ele>1048.0</ele><time>2026-05-03T07:35:12.315Z</time></trkpt><trkpt lat="42.363641" lon="13.5171741"><ele>1050.0</ele><time>2026-05-03T07:35:13.306Z</time></trkpt><trkpt lat="42.3637085" lon="13.5171995"><ele>1052.0</ele><time>2026-05-03T07:35:14.311Z</time></trkpt><trkpt lat="42.3637709" lon="13.5172364"><ele>1054.0</ele><time>2026-05-03T07:35:15.317Z</time></trkpt><trkpt lat="42.3638314" lon="13.5172626"><ele>1056.0</ele><time>2026-05-03T07:35:16.318Z</time></trkpt><trkpt lat="42.3639374" lon="13.5172889"><ele>1056.0</ele><time>2026-05-03T07:35:18.318Z</time></trkpt><trkpt lat="42.3640343" lon="13.517309"><ele>1056.0</ele><time>2026-05-03T07:35:20.32Z</time></trkpt><trkpt lat="42.3641663" lon="13.5173342"><ele>1056.0</ele><time>2026-05-03T07:35:22.319Z</time></trkpt><trkpt lat="42.364246" lon="13.5173507"><ele>1056.0</ele><time>2026-05-03T07:35:23.318Z</time></trkpt><trkpt lat="42.3643296" lon="13.5173706"><ele>1056.0</ele><time>2026-05-03T07:35:24.322Z</time></trkpt><trkpt lat="42.3644106" lon="13.5173919"><ele>1056.0</ele><time>2026-05-03T07:35:25.322Z</time></trkpt><trkpt lat="42.3644938" lon="13.5174034"><ele>1056.0</ele><time>2026-05-03T07:35:26.322Z</time></trkpt><trkpt lat="42.3645807" lon="13.5174179"><ele>1056.0</ele><time>2026-05-03T07:35:27.322Z</time></trkpt><trkpt lat="42.3646629" lon="13.5174405"><ele>1056.0</ele><time>2026-05-03T07:35:28.323Z</time></trkpt><trkpt lat="42.3647445" lon="13.5174779"><ele>1056.0</ele><time>2026-05-03T07:35:29.325Z</time></trkpt><trkpt lat="42.364834" lon="13.5175091"><ele>1056.0</ele><time>2026-05-03T07:35:30.323Z</time></trkpt><trkpt lat="42.3649297" lon="13.5175599"><ele>1056.6666666666667</ele><time>2026-05-03T07:35:31.32Z</time></trkpt><trkpt lat="42.3650138" lon="13.517603"><ele>1057.3333333333333</ele><time>2026-05-03T07:35:32.321Z</time></trkpt><trkpt lat="42.3650905" lon="13.5176365"><ele>1058.0</ele><time>2026-05-03T07:35:33.318Z</time></trkpt><trkpt lat="42.3651639" lon="13.5176533"><ele>1058.6666666666665</ele><time>2026-05-03T07:35:34.317Z</time></trkpt><trkpt lat="42.3652414" lon="13.5176969"><ele>1059.3333333333333</ele><time>2026-05-03T07:35:35.32Z</time></trkpt><trkpt lat="42.3653221" lon="13.5177507"><ele>1060.0</ele><time>2026-05-03T07:35:36.319Z</time></trkpt><trkpt lat="42.3654015" lon="13.5178022"><ele>1060.0</ele><time>2026-05-03T07:35:37.321Z</time></trkpt><trkpt lat="42.3654798" lon="13.5178562"><ele>1060.0</ele><time>2026-05-03T07:35:38.319Z</time></trkpt><trkpt lat="42.3655591" lon="13.5179159"><ele>1060.0</ele><time>2026-05-03T07:35:39.309Z</time></trkpt><trkpt lat="42.3656499" lon="13.5179559"><ele>1060.0</ele><time>2026-05-03T07:35:40.317Z</time></trkpt><trkpt lat="42.3657345" lon="13.5179968"><ele>1060.0</ele><time>2026-05-03T07:35:41.312Z</time></trkpt><trkpt lat="42.3658038" lon="13.5180372"><ele>1060.0</ele><time>2026-05-03T07:35:42.327Z</time></trkpt><trkpt lat="42.3658523" lon="13.5180961"><ele>1061.8</ele><time>2026-05-03T07:35:43.314Z</time></trkpt><trkpt lat="42.3658297" lon="13.5182539"><ele>1063.6</ele><time>2026-05-03T07:35:45.311Z</time></trkpt><trkpt lat="42.3657091" lon="13.5182958"><ele>1065.4</ele><time>2026-05-03T07:35:47.302Z</time></trkpt><trkpt lat="42.3656338" lon="13.5182623"><ele>1067.2</ele><time>2026-05-03T07:35:48.307Z</time></trkpt><trkpt lat="42.3655549" lon="13.5182127"><ele>1069.0</ele><time>2026-05-03T07:35:49.31Z</time></trkpt><trkpt lat="42.3654545" lon="13.5181618"><ele>1070.6000000000001</ele><time>2026-05-03T07:35:50.311Z</time></trkpt><trkpt lat="42.3653534" lon="13.5181243"><ele>1072.2</ele><time>2026-05-03T07:35:51.316Z</time></trkpt><trkpt lat="42.3652573" lon="13.5181161"><ele>1073.8000000000002</ele><time>2026-05-03T07:35:52.32Z</time></trkpt><trkpt lat="42.3651558" lon="13.5181259"><ele>1075.4</ele><time>2026-05-03T07:35:53.315Z</time></trkpt><trkpt lat="42.3650569" lon="13.5181601"><ele>1077.0</ele><time>2026-05-03T07:35:54.32Z</time></trkpt><trkpt lat="42.3649659" lon="13.5181897"><ele>1077.0</ele><time>2026-05-03T07:35:55.319Z</time></trkpt><trkpt lat="42.3648743" lon="13.5182024"><ele>1077.0</ele><time>2026-05-03T07:35:56.32Z</time></trkpt><trkpt lat="42.3647927" lon="13.5182077"><ele>1077.0</ele><time>2026-05-03T07:35:57.323Z</time></trkpt><trkpt lat="42.3647228" lon="13.5182001"><ele>1077.0</ele><time>2026-05-03T07:35:58.318Z</time></trkpt><trkpt lat="42.3646257" lon="13.5182461"><ele>1077.0</ele><time>2026-05-03T07:36:00.321Z</time></trkpt><trkpt lat="42.364615" lon="13.5183863"><ele>1077.0</ele><time>2026-05-03T07:36:02.325Z</time></trkpt><trkpt lat="42.3646674" lon="13.5184346"><ele>1077.0</ele><time>2026-05-03T07:36:03.312Z</time></trkpt><trkpt lat="42.364745" lon="13.5184524"><ele>1077.0</ele><time>2026-05-03T07:36:04.311Z</time></trkpt><trkpt lat="42.3648248" lon="13.5184528"><ele>1077.0</ele><time>2026-05-03T07:36:05.307Z</time></trkpt><trkpt lat="42.3649194" lon="13.5184355"><ele>1077.0</ele><time>2026-05-03T07:36:06.314Z</time></trkpt><trkpt lat="42.3650134" lon="13.5184486"><ele>1077.0</ele><time>2026-05-03T07:36:07.315Z</time></trkpt><trkpt lat="42.3651056" lon="13.5184782"><ele>1077.0</ele><time>2026-05-03T07:36:08.314Z</time></trkpt><trkpt lat="42.3651917" lon="13.5185143"><ele>1077.0</ele><time>2026-05-03T07:36:09.31Z</time></trkpt><trkpt lat="42.365271" lon="13.5185589"><ele>1077.0</ele><time>2026-05-03T07:36:10.309Z</time></trkpt><trkpt lat="42.3653483" lon="13.5186322"><ele>1077.0</ele><time>2026-05-03T07:36:11.312Z</time></trkpt><trkpt lat="42.3654167" lon="13.5187391"><ele>1077.0</ele><time>2026-05-03T07:36:12.312Z</time></trkpt><trkpt lat="42.365497" lon="13.5188382"><ele>1078.6</ele><time>2026-05-03T07:36:13.328Z</time></trkpt><trkpt lat="42.365595" lon="13.5189336"><ele>1080.2</ele><time>2026-05-03T07:36:14.306Z</time></trkpt><trkpt lat="42.3656874" lon="13.5190188"><ele>1081.8</ele><time>2026-05-03T07:36:15.303Z</time></trkpt><trkpt lat="42.3657474" lon="13.5190929"><ele>1083.4</ele><time>2026-05-03T07:36:16.311Z</time></trkpt><trkpt lat="42.3657916" lon="13.519182"><ele>1085.0</ele><time>2026-05-03T07:36:17.314Z</time></trkpt><trkpt lat="42.3658248" lon="13.5192681"><ele>1085.0</ele><time>2026-05-03T07:36:18.323Z</time></trkpt><trkpt lat="42.3658322" lon="13.5193601"><ele>1085.0</ele><time>2026-05-03T07:36:19.317Z</time></trkpt><trkpt lat="42.3658405" lon="13.5194556"><ele>1085.0</ele><time>2026-05-03T07:36:20.318Z</time></trkpt><trkpt lat="42.3658464" lon="13.5195606"><ele>1085.0</ele><time>2026-05-03T07:36:21.313Z</time></trkpt><trkpt lat="42.3658546" lon="13.5196849"><ele>1085.0</ele><time>2026-05-03T07:36:22.323Z</time></trkpt><trkpt lat="42.3658513" lon="13.5198116"><ele>1085.0</ele><time>2026-05-03T07:36:23.32Z</time></trkpt><trkpt lat="42.3658542" lon="13.5199499"><ele>1087.2</ele><time>2026-05-03T07:36:24.322Z</time></trkpt><trkpt lat="42.365843" lon="13.5200938"><ele>1089.4</ele><time>2026-05-03T07:36:25.327Z</time></trkpt><trkpt lat="42.3658329" lon="13.5202305"><ele>1091.6</ele><time>2026-05-03T07:36:26.326Z</time></trkpt><trkpt lat="42.3658314" lon="13.5203558"><ele>1093.8</ele><time>2026-05-03T07:36:27.33Z</time></trkpt><trkpt lat="42.3658468" lon="13.5204884"><ele>1096.0</ele><time>2026-05-03T07:36:28.325Z</time></trkpt><trkpt lat="42.3658592" lon="13.5206163"><ele>1096.6</ele><time>2026-05-03T07:36:29.329Z</time></trkpt><trkpt lat="42.3658905" lon="13.5207487"><ele>1097.1999999999998</ele><time>2026-05-03T07:36:30.322Z</time></trkpt><trkpt lat="42.3659094" lon="13.520866"><ele>1097.8000000000002</ele><time>2026-05-03T07:36:31.327Z</time></trkpt><trkpt lat="42.3659059" lon="13.5209964"><ele>1098.4</ele><time>2026-05-03T07:36:32.317Z</time></trkpt><trkpt lat="42.3658877" lon="13.5211417"><ele>1099.0</ele><time>2026-05-03T07:36:33.329Z</time></trkpt><trkpt lat="42.3658773" lon="13.5212893"><ele>1099.4</ele><time>2026-05-03T07:36:34.328Z</time></trkpt><trkpt lat="42.3658663" lon="13.5214326"><ele>1099.8000000000002</ele><time>2026-05-03T07:36:35.325Z</time></trkpt><trkpt lat="42.3658493" lon="13.5215617"><ele>1100.1999999999998</ele><time>2026-05-03T07:36:36.323Z</time></trkpt><trkpt lat="42.3658266" lon="13.5216753"><ele>1100.6</ele><time>2026-05-03T07:36:37.322Z</time></trkpt><trkpt lat="42.3657891" lon="13.5217846"><ele>1101.0</ele><time>2026-05-03T07:36:38.332Z</time></trkpt><trkpt lat="42.3657528" lon="13.5219057"><ele>1101.0</ele><time>2026-05-03T07:36:39.323Z</time></trkpt><trkpt lat="42.3657483" lon="13.5220263"><ele>1101.0</ele><time>2026-05-03T07:36:40.322Z</time></trkpt><trkpt lat="42.3657656" lon="13.5221514"><ele>1101.0</ele><time>2026-05-03T07:36:41.325Z</time></trkpt><trkpt lat="42.3657729" lon="13.5222724"><ele>1101.0</ele><time>2026-05-03T07:36:42.32Z</time></trkpt><trkpt lat="42.3657691" lon="13.522389"><ele>1101.0</ele><time>2026-05-03T07:36:43.319Z</time></trkpt><trkpt lat="42.3657258" lon="13.5224831"><ele>1101.0</ele><time>2026-05-03T07:36:44.339Z</time></trkpt><trkpt lat="42.3656657" lon="13.5225621"><ele>1102.1666666666667</ele><time>2026-05-03T07:36:45.326Z</time></trkpt><trkpt lat="42.3656002" lon="13.5226376"><ele>1103.3333333333333</ele><time>2026-05-03T07:36:46.329Z</time></trkpt><trkpt lat="42.3655361" lon="13.522736"><ele>1104.5</ele><time>2026-05-03T07:36:47.321Z</time></trkpt><trkpt lat="42.365479" lon="13.5228271"><ele>1105.6666666666665</ele><time>2026-05-03T07:36:48.322Z</time></trkpt><trkpt lat="42.3654192" lon="13.5229169"><ele>1106.8333333333333</ele><time>2026-05-03T07:36:49.323Z</time></trkpt><trkpt lat="42.3653707" lon="13.5229972"><ele>1108.0</ele><time>2026-05-03T07:36:50.324Z</time></trkpt><trkpt lat="42.3653262" lon="13.5230719"><ele>1109.0</ele><time>2026-05-03T07:36:51.319Z</time></trkpt><trkpt lat="42.3652695" lon="13.5231548"><ele>1110.0</ele><time>2026-05-03T07:36:52.319Z</time></trkpt><trkpt lat="42.3652034" lon="13.5232324"><ele>1111.0</ele><time>2026-05-03T07:36:53.319Z</time></trkpt><trkpt lat="42.3651429" lon="13.5233034"><ele>1112.0</ele><time>2026-05-03T07:36:54.322Z</time></trkpt><trkpt lat="42.3650817" lon="13.5233867"><ele>1113.0</ele><time>2026-05-03T07:36:55.319Z</time></trkpt><trkpt lat="42.3650184" lon="13.5234841"><ele>1114.0</ele><time>2026-05-03T07:36:56.319Z</time></trkpt><trkpt lat="42.3649638" lon="13.5235899"><ele>1114.0</ele><time>2026-05-03T07:36:57.319Z</time></trkpt><trkpt lat="42.3648984" lon="13.5236726"><ele>1114.0</ele><time>2026-05-03T07:36:58.316Z</time></trkpt><trkpt lat="42.3648303" lon="13.523745"><ele>1114.0</ele><time>2026-05-03T07:36:59.323Z</time></trkpt><trkpt lat="42.364773" lon="13.5238335"><ele>1114.0</ele><time>2026-05-03T07:37:00.321Z</time></trkpt><trkpt lat="42.3647189" lon="13.5239379"><ele>1114.0</ele><time>2026-05-03T07:37:01.318Z</time></trkpt><trkpt lat="42.3646686" lon="13.5240621"><ele>1115.6000000000001</ele><time>2026-05-03T07:37:02.321Z</time></trkpt><trkpt lat="42.3646206" lon="13.5241912"><ele>1117.2</ele><time>2026-05-03T07:37:03.322Z</time></trkpt><trkpt lat="42.3645912" lon="13.5243269"><ele>1118.8000000000002</ele><time>2026-05-03T07:37:04.321Z</time></trkpt><trkpt lat="42.3645485" lon="13.5244664"><ele>1120.4</ele><time>2026-05-03T07:37:05.325Z</time></trkpt><trkpt lat="42.3645148" lon="13.5246056"><ele>1122.0</ele><time>2026-05-03T07:37:06.326Z</time></trkpt><trkpt lat="42.3644925" lon="13.5247293"><ele>1122.2</ele><time>2026-05-03T07:37:07.322Z</time></trkpt><trkpt lat="42.3644798" lon="13.5248427"><ele>1122.4</ele><time>2026-05-03T07:37:08.326Z</time></trkpt><trkpt lat="42.3644743" lon="13.5249627"><ele>1122.6</ele><time>2026-05-03T07:37:09.324Z</time></trkpt><trkpt lat="42.3644883" lon="13.5250865"><ele>1122.8</ele><time>2026-05-03T07:37:10.328Z</time></trkpt><trkpt lat="42.3645156" lon="13.5252242"><ele>1123.0</ele><time>2026-05-03T07:37:11.32Z</time></trkpt><trkpt lat="42.364547" lon="13.525361"><ele>1123.2</ele><time>2026-05-03T07:37:12.329Z</time></trkpt><trkpt lat="42.3645825" lon="13.5254898"><ele>1123.4</ele><time>2026-05-03T07:37:13.328Z</time></trkpt><trkpt lat="42.3646029" lon="13.5256175"><ele>1123.6000000000001</ele><time>2026-05-03T07:37:14.327Z</time></trkpt><trkpt lat="42.3646119" lon="13.5257473"><ele>1123.8</ele><time>2026-05-03T07:37:15.342Z</time></trkpt><trkpt lat="42.3646124" lon="13.525891"><ele>1124.0</ele><time>2026-05-03T07:37:16.326Z</time></trkpt><trkpt lat="42.3646022" lon="13.5260427"><ele>1124.0</ele><time>2026-05-03T07:37:17.325Z</time></trkpt><trkpt lat="42.364591" lon="13.5261804"><ele>1124.0</ele><time>2026-05-03T07:37:18.327Z</time></trkpt><trkpt lat="42.3645683" lon="13.5263085"><ele>1124.0</ele><time>2026-05-03T07:37:19.329Z</time></trkpt><trkpt lat="42.3645439" lon="13.5264266"><ele>1124.0</ele><time>2026-05-03T07:37:20.33Z</time></trkpt><trkpt lat="42.3645199" lon="13.5265448"><ele>1124.0</ele><time>2026-05-03T07:37:21.326Z</time></trkpt><trkpt lat="42.3645123" lon="13.5266711"><ele>1124.3333333333335</ele><time>2026-05-03T07:37:22.329Z</time></trkpt><trkpt lat="42.3645216" lon="13.5267933"><ele>1124.6666666666667</ele><time>2026-05-03T07:37:23.328Z</time></trkpt><trkpt lat="42.3645315" lon="13.5269161"><ele>1125.0</ele><time>2026-05-03T07:37:24.329Z</time></trkpt><trkpt lat="42.3645467" lon="13.5270376"><ele>1125.3333333333333</ele><time>2026-05-03T07:37:25.328Z</time></trkpt><trkpt lat="42.3645645" lon="13.5271487"><ele>1125.6666666666665</ele><time>2026-05-03T07:37:26.329Z</time></trkpt><trkpt lat="42.3645817" lon="13.5272638"><ele>1126.0</ele><time>2026-05-03T07:37:27.33Z</time></trkpt><trkpt lat="42.3646014" lon="13.5273911"><ele>1127.0</ele><time>2026-05-03T07:37:28.328Z</time></trkpt><trkpt lat="42.3646228" lon="13.5275152"><ele>1128.0</ele><time>2026-05-03T07:37:29.332Z</time></trkpt><trkpt lat="42.3646392" lon="13.5276227"><ele>1129.0</ele><time>2026-05-03T07:37:30.325Z</time></trkpt><trkpt lat="42.3646457" lon="13.5277265"><ele>1130.0</ele><time>2026-05-03T07:37:31.323Z</time></trkpt><trkpt lat="42.3646346" lon="13.5278371"><ele>1131.0</ele><time>2026-05-03T07:37:32.327Z</time></trkpt><trkpt lat="42.3646235" lon="13.5279548"><ele>1132.0</ele><time>2026-05-03T07:37:33.331Z</time></trkpt><trkpt lat="42.3646148" lon="13.5280611"><ele>1133.0</ele><time>2026-05-03T07:37:34.331Z</time></trkpt><trkpt lat="42.3645983" lon="13.5281622"><ele>1134.0</ele><time>2026-05-03T07:37:35.33Z</time></trkpt><trkpt lat="42.3645818" lon="13.5282665"><ele>1135.0</ele><time>2026-05-03T07:37:36.331Z</time></trkpt><trkpt lat="42.3645634" lon="13.5283771"><ele>1136.0</ele><time>2026-05-03T07:37:37.331Z</time></trkpt><trkpt lat="42.3645377" lon="13.5285036"><ele>1137.0</ele><time>2026-05-03T07:37:38.333Z</time></trkpt><trkpt lat="42.3645194" lon="13.5286285"><ele>1138.0</ele><time>2026-05-03T07:37:39.333Z</time></trkpt><trkpt lat="42.3645212" lon="13.5287544"><ele>1139.6666666666665</ele><time>2026-05-03T07:37:40.334Z</time></trkpt><trkpt lat="42.3645329" lon="13.5288742"><ele>1141.3333333333333</ele><time>2026-05-03T07:37:41.329Z</time></trkpt><trkpt lat="42.3645592" lon="13.5289891"><ele>1143.0</ele><time>2026-05-03T07:37:42.331Z</time></trkpt><trkpt lat="42.3645657" lon="13.5291046"><ele>1144.6666666666667</ele><time>2026-05-03T07:37:43.328Z</time></trkpt><trkpt lat="42.3645598" lon="13.5292091"><ele>1146.3333333333335</ele><time>2026-05-03T07:37:44.333Z</time></trkpt><trkpt lat="42.3645524" lon="13.5293063"><ele>1148.0</ele><time>2026-05-03T07:37:45.325Z</time></trkpt><trkpt lat="42.364591" lon="13.5294486"><ele>1148.0</ele><time>2026-05-03T07:37:47.333Z</time></trkpt><trkpt lat="42.3646504" lon="13.5294778"><ele>1148.0</ele><time>2026-05-03T07:37:48.335Z</time></trkpt><trkpt lat="42.3647673" lon="13.529367"><ele>1148.0</ele><time>2026-05-03T07:37:50.323Z</time></trkpt><trkpt lat="42.3648095" lon="13.5292631"><ele>1148.0</ele><time>2026-05-03T07:37:51.323Z</time></trkpt><trkpt lat="42.3648318" lon="13.5291445"><ele>1148.0</ele><time>2026-05-03T07:37:52.329Z</time></trkpt><trkpt lat="42.3648668" lon="13.5290417"><ele>1147.6</ele><time>2026-05-03T07:37:53.314Z</time></trkpt><trkpt lat="42.3649293" lon="13.5289357"><ele>1147.1999999999998</ele><time>2026-05-03T07:37:54.324Z</time></trkpt><trkpt lat="42.3650154" lon="13.5288519"><ele>1146.8</ele><time>2026-05-03T07:37:55.321Z</time></trkpt><trkpt lat="42.3651244" lon="13.528774"><ele>1146.3999999999999</ele><time>2026-05-03T07:37:56.331Z</time></trkpt><trkpt lat="42.3652337" lon="13.5287113"><ele>1146.0</ele><time>2026-05-03T07:37:57.323Z</time></trkpt><trkpt lat="42.365337" lon="13.5286556"><ele>1146.0</ele><time>2026-05-03T07:37:58.315Z</time></trkpt><trkpt lat="42.3654288" lon="13.5286196"><ele>1146.0</ele><time>2026-05-03T07:37:59.325Z</time></trkpt><trkpt lat="42.3654937" lon="13.5285963"><ele>1146.0</ele><time>2026-05-03T07:38:00.322Z</time></trkpt><trkpt lat="42.365558" lon="13.5286391"><ele>1146.0</ele><time>2026-05-03T07:38:02.325Z</time></trkpt><trkpt lat="42.3655734" lon="13.5287243"><ele>1146.0</ele><time>2026-05-03T07:38:07.326Z</time></trkpt><trkpt lat="42.3656395" lon="13.5286694"><ele>1146.0</ele><time>2026-05-03T07:38:17.354Z</time></trkpt><trkpt lat="42.3655774" lon="13.5287176"><ele>1146.0</ele><time>2026-05-03T07:39:03.316Z</time></trkpt><trkpt lat="42.3655192" lon="13.5288204"><ele>1148.0</ele><time>2026-05-03T07:39:05.321Z</time></trkpt><trkpt lat="42.3653946" lon="13.5288879"><ele>1150.0</ele><time>2026-05-03T07:39:07.327Z</time></trkpt><trkpt lat="42.365331" lon="13.5289242"><ele>1152.0</ele><time>2026-05-03T07:39:08.323Z</time></trkpt><trkpt lat="42.3652414" lon="13.5290325"><ele>1154.0</ele><time>2026-05-03T07:39:10.328Z</time></trkpt><trkpt lat="42.3652017" lon="13.5291003"><ele>1156.0</ele><time>2026-05-03T07:39:11.326Z</time></trkpt><trkpt lat="42.3651555" lon="13.5291817"><ele>1156.0</ele><time>2026-05-03T07:39:12.33Z</time></trkpt><trkpt lat="42.3651112" lon="13.5292796"><ele>1156.0</ele><time>2026-05-03T07:39:13.318Z</time></trkpt><trkpt lat="42.3650876" lon="13.5293816"><ele>1156.0</ele><time>2026-05-03T07:39:14.326Z</time></trkpt><trkpt lat="42.3650856" lon="13.5294785"><ele>1156.0</ele><time>2026-05-03T07:39:15.327Z</time></trkpt><trkpt lat="42.3650902" lon="13.5295679"><ele>1156.0</ele><time>2026-05-03T07:39:16.326Z</time></trkpt><trkpt lat="42.3650978" lon="13.529659"><ele>1156.0</ele><time>2026-05-03T07:39:17.323Z</time></trkpt><trkpt lat="42.3651176" lon="13.5297449"><ele>1156.0</ele><time>2026-05-03T07:39:18.34Z</time></trkpt><trkpt lat="42.3651521" lon="13.5298208"><ele>1156.7142857142858</ele><time>2026-05-03T07:39:19.32Z</time></trkpt><trkpt lat="42.3652027" lon="13.5298884"><ele>1157.4285714285713</ele><time>2026-05-03T07:39:20.334Z</time></trkpt><trkpt lat="42.3652649" lon="13.5299557"><ele>1158.142857142857</ele><time>2026-05-03T07:39:21.327Z</time></trkpt><trkpt lat="42.3653263" lon="13.5300152"><ele>1158.857142857143</ele><time>2026-05-03T07:39:22.333Z</time></trkpt><trkpt lat="42.3653792" lon="13.5300783"><ele>1159.5714285714287</ele><time>2026-05-03T07:39:23.329Z</time></trkpt><trkpt lat="42.3654349" lon="13.5301308"><ele>1160.2857142857142</ele><time>2026-05-03T07:39:24.333Z</time></trkpt><trkpt lat="42.365492" lon="13.5301844"><ele>1161.0</ele><time>2026-05-03T07:39:25.33Z</time></trkpt><trkpt lat="42.365548" lon="13.5302593"><ele>1162.3333333333333</ele><time>2026-05-03T07:39:26.324Z</time></trkpt><trkpt lat="42.3655957" lon="13.5303496"><ele>1163.6666666666667</ele><time>2026-05-03T07:39:27.326Z</time></trkpt><trkpt lat="42.3656286" lon="13.530447"><ele>1165.0</ele><time>2026-05-03T07:39:28.323Z</time></trkpt><trkpt lat="42.3656509" lon="13.5305592"><ele>1166.3333333333335</ele><time>2026-05-03T07:39:29.327Z</time></trkpt><trkpt lat="42.365656" lon="13.530677"><ele>1167.6666666666667</ele><time>2026-05-03T07:39:30.329Z</time></trkpt><trkpt lat="42.3656618" lon="13.5307934"><ele>1169.0</ele><time>2026-05-03T07:39:31.33Z</time></trkpt><trkpt lat="42.3656687" lon="13.530902"><ele>1169.6666666666667</ele><time>2026-05-03T07:39:32.331Z</time></trkpt><trkpt lat="42.3656832" lon="13.5309984"><ele>1170.3333333333335</ele><time>2026-05-03T07:39:33.326Z</time></trkpt><trkpt lat="42.3657122" lon="13.5310884"><ele>1171.0</ele><time>2026-05-03T07:39:34.327Z</time></trkpt><trkpt lat="42.3657384" lon="13.5311915"><ele>1171.6666666666667</ele><time>2026-05-03T07:39:35.327Z</time></trkpt><trkpt lat="42.3657769" lon="13.5312945"><ele>1172.3333333333333</ele><time>2026-05-03T07:39:36.33Z</time></trkpt><trkpt lat="42.3658226" lon="13.5313881"><ele>1173.0</ele><time>2026-05-03T07:39:37.325Z</time></trkpt><trkpt lat="42.3658658" lon="13.5314651"><ele>1173.8333333333333</ele><time>2026-05-03T07:39:38.327Z</time></trkpt><trkpt lat="42.3659023" lon="13.5315601"><ele>1174.6666666666667</ele><time>2026-05-03T07:39:39.327Z</time></trkpt><trkpt lat="42.365944" lon="13.5316612"><ele>1175.5</ele><time>2026-05-03T07:39:40.327Z</time></trkpt><trkpt lat="42.3659686" lon="13.5317615"><ele>1176.3333333333335</ele><time>2026-05-03T07:39:41.326Z</time></trkpt><trkpt lat="42.3660023" lon="13.5318671"><ele>1177.1666666666667</ele><time>2026-05-03T07:39:42.329Z</time></trkpt><trkpt lat="42.3660309" lon="13.5319747"><ele>1178.0</ele><time>2026-05-03T07:39:43.329Z</time></trkpt><trkpt lat="42.3660497" lon="13.532091"><ele>1178.1666666666667</ele><time>2026-05-03T07:39:44.323Z</time></trkpt><trkpt lat="42.3660458" lon="13.532206"><ele>1178.3333333333335</ele><time>2026-05-03T07:39:45.325Z</time></trkpt><trkpt lat="42.3660452" lon="13.5322994"><ele>1178.5</ele><time>2026-05-03T07:39:46.329Z</time></trkpt><trkpt lat="42.3660227" lon="13.5323995"><ele>1178.6666666666667</ele><time>2026-05-03T07:39:47.325Z</time></trkpt><trkpt lat="42.3659865" lon="13.5324936"><ele>1178.8333333333333</ele><time>2026-05-03T07:39:48.32Z</time></trkpt><trkpt lat="42.365937" lon="13.5325808"><ele>1179.0</ele><time>2026-05-03T07:39:49.338Z</time></trkpt><trkpt lat="42.3658811" lon="13.5326643"><ele>1179.0</ele><time>2026-05-03T07:39:50.326Z</time></trkpt><trkpt lat="42.3658175" lon="13.5327379"><ele>1179.0</ele><time>2026-05-03T07:39:51.324Z</time></trkpt><trkpt lat="42.3657551" lon="13.5328202"><ele>1179.0</ele><time>2026-05-03T07:39:52.322Z</time></trkpt><trkpt lat="42.3656922" lon="13.5328895"><ele>1179.0</ele><time>2026-05-03T07:39:53.318Z</time></trkpt><trkpt lat="42.3656193" lon="13.5329415"><ele>1179.0</ele><time>2026-05-03T07:39:54.317Z</time></trkpt><trkpt lat="42.3655498" lon="13.5329743"><ele>1179.0</ele><time>2026-05-03T07:39:55.317Z</time></trkpt><trkpt lat="42.3654858" lon="13.5330129"><ele>1183.0</ele><time>2026-05-03T07:39:56.324Z</time></trkpt><trkpt lat="42.3654171" lon="13.5330602"><ele>1187.0</ele><time>2026-05-03T07:39:57.32Z</time></trkpt><trkpt lat="42.3653449" lon="13.5331262"><ele>1191.0</ele><time>2026-05-03T07:39:58.317Z</time></trkpt><trkpt lat="42.3652751" lon="13.5332019"><ele>1195.0</ele><time>2026-05-03T07:39:59.319Z</time></trkpt><trkpt lat="42.365216" lon="13.5332945"><ele>1199.0</ele><time>2026-05-03T07:40:00.318Z</time></trkpt><trkpt lat="42.365168" lon="13.5333891"><ele>1203.0</ele><time>2026-05-03T07:40:01.321Z</time></trkpt><trkpt lat="42.3651177" lon="13.5334996"><ele>1203.0</ele><time>2026-05-03T07:40:02.32Z</time></trkpt><trkpt lat="42.3650763" lon="13.5336041"><ele>1203.0</ele><time>2026-05-03T07:40:03.321Z</time></trkpt><trkpt lat="42.3650421" lon="13.5337294"><ele>1203.0</ele><time>2026-05-03T07:40:04.318Z</time></trkpt><trkpt lat="42.3650227" lon="13.5338653"><ele>1203.0</ele><time>2026-05-03T07:40:05.318Z</time></trkpt><trkpt lat="42.3650225" lon="13.5339991"><ele>1203.0</ele><time>2026-05-03T07:40:06.317Z</time></trkpt><trkpt lat="42.3650251" lon="13.5341283"><ele>1203.8333333333333</ele><time>2026-05-03T07:40:07.316Z</time></trkpt><trkpt lat="42.3650118" lon="13.5342434"><ele>1204.6666666666667</ele><time>2026-05-03T07:40:08.318Z</time></trkpt><trkpt lat="42.3649995" lon="13.5343548"><ele>1205.5</ele><time>2026-05-03T07:40:09.318Z</time></trkpt><trkpt lat="42.3649872" lon="13.5344734"><ele>1206.3333333333335</ele><time>2026-05-03T07:40:10.32Z</time></trkpt><trkpt lat="42.3649864" lon="13.5345966"><ele>1207.1666666666667</ele><time>2026-05-03T07:40:11.318Z</time></trkpt><trkpt lat="42.3649872" lon="13.5347238"><ele>1208.0</ele><time>2026-05-03T07:40:12.323Z</time></trkpt><trkpt lat="42.3649874" lon="13.5348474"><ele>1209.0</ele><time>2026-05-03T07:40:13.317Z</time></trkpt><trkpt lat="42.3649836" lon="13.5349736"><ele>1210.0</ele><time>2026-05-03T07:40:14.323Z</time></trkpt><trkpt lat="42.3649845" lon="13.5351053"><ele>1211.0</ele><time>2026-05-03T07:40:15.325Z</time></trkpt><trkpt lat="42.3649721" lon="13.5352306"><ele>1212.0</ele><time>2026-05-03T07:40:16.326Z</time></trkpt><trkpt lat="42.3649582" lon="13.5353549"><ele>1213.0</ele><time>2026-05-03T07:40:17.325Z</time></trkpt><trkpt lat="42.3649285" lon="13.5354777"><ele>1213.2</ele><time>2026-05-03T07:40:18.331Z</time></trkpt><trkpt lat="42.3648941" lon="13.5356069"><ele>1213.4</ele><time>2026-05-03T07:40:19.324Z</time></trkpt><trkpt lat="42.3648666" lon="13.5357388"><ele>1213.6000000000001</ele><time>2026-05-03T07:40:20.34Z</time></trkpt><trkpt lat="42.3648398" lon="13.5358598"><ele>1213.8</ele><time>2026-05-03T07:40:21.324Z</time></trkpt><trkpt lat="42.36481" lon="13.5359785"><ele>1214.0</ele><time>2026-05-03T07:40:22.329Z</time></trkpt><trkpt lat="42.3647756" lon="13.5360924"><ele>1214.0</ele><time>2026-05-03T07:40:23.328Z</time></trkpt><trkpt lat="42.3647455" lon="13.5362189"><ele>1214.0</ele><time>2026-05-03T07:40:24.327Z</time></trkpt><trkpt lat="42.3647311" lon="13.5363302"><ele>1214.0</ele><time>2026-05-03T07:40:25.327Z</time></trkpt><trkpt lat="42.3647054" lon="13.5364504"><ele>1214.0</ele><time>2026-05-03T07:40:26.323Z</time></trkpt><trkpt lat="42.3646914" lon="13.5365759"><ele>1214.0</ele><time>2026-05-03T07:40:27.322Z</time></trkpt><trkpt lat="42.3646723" lon="13.5367097"><ele>1214.4</ele><time>2026-05-03T07:40:28.323Z</time></trkpt><trkpt lat="42.3646426" lon="13.5368298"><ele>1214.8000000000002</ele><time>2026-05-03T07:40:29.324Z</time></trkpt><trkpt lat="42.3646065" lon="13.5369421"><ele>1215.1999999999998</ele><time>2026-05-03T07:40:30.322Z</time></trkpt><trkpt lat="42.3645566" lon="13.5370539"><ele>1215.6</ele><time>2026-05-03T07:40:31.326Z</time></trkpt><trkpt lat="42.364501" lon="13.5371614"><ele>1216.0</ele><time>2026-05-03T07:40:32.322Z</time></trkpt><trkpt lat="42.3644355" lon="13.5372755"><ele>1216.6</ele><time>2026-05-03T07:40:33.325Z</time></trkpt><trkpt lat="42.3643677" lon="13.5373895"><ele>1217.1999999999998</ele><time>2026-05-03T07:40:34.324Z</time></trkpt><trkpt lat="42.3643033" lon="13.5375058"><ele>1217.8000000000002</ele><time>2026-05-03T07:40:35.322Z</time></trkpt><trkpt lat="42.3642388" lon="13.5376195"><ele>1218.4</ele><time>2026-05-03T07:40:36.324Z</time></trkpt><trkpt lat="42.3641784" lon="13.5377308"><ele>1219.0</ele><time>2026-05-03T07:40:37.322Z</time></trkpt><trkpt lat="42.3641252" lon="13.5378547"><ele>1220.0</ele><time>2026-05-03T07:40:38.325Z</time></trkpt><trkpt lat="42.3640773" lon="13.5379854"><ele>1221.0</ele><time>2026-05-03T07:40:39.322Z</time></trkpt><trkpt lat="42.364025" lon="13.5381003"><ele>1222.0</ele><time>2026-05-03T07:40:40.321Z</time></trkpt><trkpt lat="42.3639583" lon="13.5381966"><ele>1223.0</ele><time>2026-05-03T07:40:41.324Z</time></trkpt><trkpt lat="42.3638861" lon="13.5382872"><ele>1224.0</ele><time>2026-05-03T07:40:42.324Z</time></trkpt><trkpt lat="42.3638086" lon="13.5383664"><ele>1224.0</ele><time>2026-05-03T07:40:43.323Z</time></trkpt><trkpt lat="42.3637344" lon="13.5384447"><ele>1224.0</ele><time>2026-05-03T07:40:44.324Z</time></trkpt><trkpt lat="42.3636654" lon="13.5385273"><ele>1224.0</ele><time>2026-05-03T07:40:45.324Z</time></trkpt><trkpt lat="42.363594" lon="13.5386171"><ele>1224.0</ele><time>2026-05-03T07:40:46.318Z</time></trkpt><trkpt lat="42.3635153" lon="13.5387143"><ele>1224.0</ele><time>2026-05-03T07:40:47.319Z</time></trkpt><trkpt lat="42.3634307" lon="13.5388085"><ele>1224.8</ele><time>2026-05-03T07:40:48.319Z</time></trkpt><trkpt lat="42.3633552" lon="13.5389097"><ele>1225.6000000000001</ele><time>2026-05-03T07:40:49.325Z</time></trkpt><trkpt lat="42.3632776" lon="13.5390104"><ele>1226.4</ele><time>2026-05-03T07:40:50.323Z</time></trkpt><trkpt lat="42.3632021" lon="13.5391181"><ele>1227.2</ele><time>2026-05-03T07:40:51.339Z</time></trkpt><trkpt lat="42.3631297" lon="13.539225"><ele>1228.0</ele><time>2026-05-03T07:40:52.326Z</time></trkpt><trkpt lat="42.3630594" lon="13.5393347"><ele>1228.2</ele><time>2026-05-03T07:40:53.322Z</time></trkpt><trkpt lat="42.362988" lon="13.5394397"><ele>1228.4</ele><time>2026-05-03T07:40:54.324Z</time></trkpt><trkpt lat="42.3629135" lon="13.5395436"><ele>1228.6000000000001</ele><time>2026-05-03T07:40:55.323Z</time></trkpt><trkpt lat="42.3628448" lon="13.539647"><ele>1228.8</ele><time>2026-05-03T07:40:56.323Z</time></trkpt><trkpt lat="42.3627623" lon="13.5397544"><ele>1229.0</ele><time>2026-05-03T07:40:57.324Z</time></trkpt><trkpt lat="42.3626868" lon="13.5398732"><ele>1229.25</ele><time>2026-05-03T07:40:58.322Z</time></trkpt><trkpt lat="42.36261" lon="13.5399826"><ele>1229.5</ele><time>2026-05-03T07:40:59.325Z</time></trkpt><trkpt lat="42.3625517" lon="13.5401005"><ele>1229.75</ele><time>2026-05-03T07:41:00.322Z</time></trkpt><trkpt lat="42.3624949" lon="13.5402355"><ele>1230.0</ele><time>2026-05-03T07:41:01.325Z</time></trkpt><trkpt lat="42.3624461" lon="13.5403886"><ele>1230.0</ele><time>2026-05-03T07:41:02.324Z</time></trkpt><trkpt lat="42.3623974" lon="13.540533"><ele>1230.0</ele><time>2026-05-03T07:41:03.319Z</time></trkpt><trkpt lat="42.3623624" lon="13.5406737"><ele>1230.0</ele><time>2026-05-03T07:41:04.322Z</time></trkpt><trkpt lat="42.3623303" lon="13.5408093"><ele>1230.0</ele><time>2026-05-03T07:41:05.32Z</time></trkpt><trkpt lat="42.3622985" lon="13.5409477"><ele>1230.0</ele><time>2026-05-03T07:41:06.324Z</time></trkpt><trkpt lat="42.3622556" lon="13.5410905"><ele>1230.0</ele><time>2026-05-03T07:41:07.323Z</time></trkpt><trkpt lat="42.3622104" lon="13.5412333"><ele>1230.0</ele><time>2026-05-03T07:41:08.323Z</time></trkpt><trkpt lat="42.3621698" lon="13.5413779"><ele>1230.0</ele><time>2026-05-03T07:41:09.325Z</time></trkpt><trkpt lat="42.3621381" lon="13.541518"><ele>1230.0</ele><time>2026-05-03T07:41:10.322Z</time></trkpt><trkpt lat="42.3621017" lon="13.5416642"><ele>1230.0</ele><time>2026-05-03T07:41:11.322Z</time></trkpt><trkpt lat="42.3620529" lon="13.5418076"><ele>1230.0</ele><time>2026-05-03T07:41:12.323Z</time></trkpt><trkpt lat="42.3620082" lon="13.5419474"><ele>1230.0</ele><time>2026-05-03T07:41:13.323Z</time></trkpt><trkpt lat="42.3619797" lon="13.5420912"><ele>1230.0</ele><time>2026-05-03T07:41:14.33Z</time></trkpt><trkpt lat="42.3619405" lon="13.5422395"><ele>1230.0</ele><time>2026-05-03T07:41:15.328Z</time></trkpt><trkpt lat="42.3618958" lon="13.5423929"><ele>1230.0</ele><time>2026-05-03T07:41:16.33Z</time></trkpt><trkpt lat="42.3618557" lon="13.5425377"><ele>1230.0</ele><time>2026-05-03T07:41:17.331Z</time></trkpt><trkpt lat="42.361809" lon="13.5426696"><ele>1230.0</ele><time>2026-05-03T07:41:18.327Z</time></trkpt><trkpt lat="42.3617746" lon="13.5428109"><ele>1230.0</ele><time>2026-05-03T07:41:19.322Z</time></trkpt><trkpt lat="42.3617644" lon="13.54297"><ele>1230.0</ele><time>2026-05-03T07:41:20.327Z</time></trkpt><trkpt lat="42.3617792" lon="13.5431264"><ele>1230.0</ele><time>2026-05-03T07:41:21.327Z</time></trkpt><trkpt lat="42.361791" lon="13.5432656"><ele>1230.0</ele><time>2026-05-03T07:41:22.346Z</time></trkpt><trkpt lat="42.3617864" lon="13.543399"><ele>1230.0</ele><time>2026-05-03T07:41:23.331Z</time></trkpt><trkpt lat="42.3617831" lon="13.5435358"><ele>1230.0</ele><time>2026-05-03T07:41:24.33Z</time></trkpt><trkpt lat="42.3617606" lon="13.5436667"><ele>1230.0</ele><time>2026-05-03T07:41:25.324Z</time></trkpt><trkpt lat="42.3617255" lon="13.5437899"><ele>1230.0</ele><time>2026-05-03T07:41:26.327Z</time></trkpt><trkpt lat="42.3616777" lon="13.5439145"><ele>1230.0</ele><time>2026-05-03T07:41:27.328Z</time></trkpt><trkpt lat="42.3616363" lon="13.5440353"><ele>1230.0</ele><time>2026-05-03T07:41:28.328Z</time></trkpt><trkpt lat="42.3616056" lon="13.544161"><ele>1230.6</ele><time>2026-05-03T07:41:29.329Z</time></trkpt><trkpt lat="42.361591" lon="13.5442901"><ele>1231.2</ele><time>2026-05-03T07:41:30.328Z</time></trkpt><trkpt lat="42.3615804" lon="13.5444223"><ele>1231.8</ele><time>2026-05-03T07:41:31.326Z</time></trkpt><trkpt lat="42.3615629" lon="13.5445521"><ele>1232.4</ele><time>2026-05-03T07:41:32.325Z</time></trkpt><trkpt lat="42.3615421" lon="13.5446844"><ele>1233.0</ele><time>2026-05-03T07:41:33.327Z</time></trkpt><trkpt lat="42.3615249" lon="13.5448172"><ele>1233.4</ele><time>2026-05-03T07:41:34.328Z</time></trkpt><trkpt lat="42.3615246" lon="13.5449457"><ele>1233.8</ele><time>2026-05-03T07:41:35.324Z</time></trkpt><trkpt lat="42.3615332" lon="13.5450687"><ele>1234.2</ele><time>2026-05-03T07:41:36.329Z</time></trkpt><trkpt lat="42.36154" lon="13.5451893"><ele>1234.6</ele><time>2026-05-03T07:41:37.329Z</time></trkpt><trkpt lat="42.3615483" lon="13.5453079"><ele>1235.0</ele><time>2026-05-03T07:41:38.328Z</time></trkpt><trkpt lat="42.3615591" lon="13.5454328"><ele>1235.0</ele><time>2026-05-03T07:41:39.327Z</time></trkpt><trkpt lat="42.3615551" lon="13.5455608"><ele>1235.0</ele><time>2026-05-03T07:41:40.325Z</time></trkpt><trkpt lat="42.361543" lon="13.5456832"><ele>1235.0</ele><time>2026-05-03T07:41:41.324Z</time></trkpt><trkpt lat="42.3615174" lon="13.5457998"><ele>1235.0</ele><time>2026-05-03T07:41:42.324Z</time></trkpt><trkpt lat="42.3615084" lon="13.5459108"><ele>1235.0</ele><time>2026-05-03T07:41:43.317Z</time></trkpt><trkpt lat="42.3615325" lon="13.5460171"><ele>1235.0</ele><time>2026-05-03T07:41:44.325Z</time></trkpt><trkpt lat="42.3615674" lon="13.5461254"><ele>1234.7142857142856</ele><time>2026-05-03T07:41:45.324Z</time></trkpt><trkpt lat="42.361594" lon="13.5462332"><ele>1234.4285714285713</ele><time>2026-05-03T07:41:46.326Z</time></trkpt><trkpt lat="42.3616017" lon="13.5463422"><ele>1234.142857142857</ele><time>2026-05-03T07:41:47.32Z</time></trkpt><trkpt lat="42.361595" lon="13.5464444"><ele>1233.8571428571427</ele><time>2026-05-03T07:41:48.323Z</time></trkpt><trkpt lat="42.3615666" lon="13.5465338"><ele>1233.5714285714284</ele><time>2026-05-03T07:41:49.326Z</time></trkpt><trkpt lat="42.3615499" lon="13.5466227"><ele>1233.2857142857142</ele><time>2026-05-03T07:41:50.323Z</time></trkpt><trkpt lat="42.361515" lon="13.5466979"><ele>1233.0</ele><time>2026-05-03T07:41:51.321Z</time></trkpt><trkpt lat="42.3614681" lon="13.5467708"><ele>1233.0</ele><time>2026-05-03T07:41:52.329Z</time></trkpt><trkpt lat="42.361416" lon="13.5468552"><ele>1233.0</ele><time>2026-05-03T07:41:53.343Z</time></trkpt><trkpt lat="42.3613616" lon="13.5469359"><ele>1233.0</ele><time>2026-05-03T07:41:54.326Z</time></trkpt><trkpt lat="42.361308" lon="13.54703"><ele>1233.0</ele><time>2026-05-03T07:41:55.327Z</time></trkpt><trkpt lat="42.3612822" lon="13.5471258"><ele>1233.0</ele><time>2026-05-03T07:41:56.326Z</time></trkpt><trkpt lat="42.3612667" lon="13.5472295"><ele>1233.0</ele><time>2026-05-03T07:41:57.328Z</time></trkpt><trkpt lat="42.3612426" lon="13.547325"><ele>1231.6666666666667</ele><time>2026-05-03T07:41:58.327Z</time></trkpt><trkpt lat="42.3612093" lon="13.5474035"><ele>1230.3333333333333</ele><time>2026-05-03T07:41:59.329Z</time></trkpt><trkpt lat="42.3611695" lon="13.5474815"><ele>1229.0</ele><time>2026-05-03T07:42:00.325Z</time></trkpt><trkpt lat="42.3611116" lon="13.5475828"><ele>1227.6666666666665</ele><time>2026-05-03T07:42:01.32Z</time></trkpt><trkpt lat="42.3610576" lon="13.5476991"><ele>1226.3333333333333</ele><time>2026-05-03T07:42:02.321Z</time></trkpt><trkpt lat="42.3610049" lon="13.547823"><ele>1225.0</ele><time>2026-05-03T07:42:03.319Z</time></trkpt><trkpt lat="42.3609603" lon="13.5479187"><ele>1225.0</ele><time>2026-05-03T07:42:04.319Z</time></trkpt><trkpt lat="42.3609043" lon="13.5479906"><ele>1225.0</ele><time>2026-05-03T07:42:05.32Z</time></trkpt><trkpt lat="42.3608439" lon="13.5480613"><ele>1225.0</ele><time>2026-05-03T07:42:06.324Z</time></trkpt><trkpt lat="42.3607799" lon="13.5481506"><ele>1225.0</ele><time>2026-05-03T07:42:07.323Z</time></trkpt><trkpt lat="42.3607185" lon="13.5482669"><ele>1225.0</ele><time>2026-05-03T07:42:08.322Z</time></trkpt><trkpt lat="42.3606702" lon="13.5484059"><ele>1225.0</ele><time>2026-05-03T07:42:09.327Z</time></trkpt><trkpt lat="42.3606316" lon="13.5485475"><ele>1225.0</ele><time>2026-05-03T07:42:10.325Z</time></trkpt><trkpt lat="42.3606011" lon="13.548688"><ele>1225.0</ele><time>2026-05-03T07:42:11.325Z</time></trkpt><trkpt lat="42.3605787" lon="13.548838"><ele>1225.0</ele><time>2026-05-03T07:42:12.324Z</time></trkpt><trkpt lat="42.3605605" lon="13.5489819"><ele>1225.0</ele><time>2026-05-03T07:42:13.326Z</time></trkpt><trkpt lat="42.3605472" lon="13.5491184"><ele>1223.6</ele><time>2026-05-03T07:42:14.327Z</time></trkpt><trkpt lat="42.3605323" lon="13.549247"><ele>1222.2</ele><time>2026-05-03T07:42:15.323Z</time></trkpt><trkpt lat="42.3605163" lon="13.5493633"><ele>1220.8</ele><time>2026-05-03T07:42:16.323Z</time></trkpt><trkpt lat="42.3604902" lon="13.5494702"><ele>1219.4</ele><time>2026-05-03T07:42:17.323Z</time></trkpt><trkpt lat="42.3604472" lon="13.5495705"><ele>1218.0</ele><time>2026-05-03T07:42:18.325Z</time></trkpt><trkpt lat="42.3604074" lon="13.549699"><ele>1217.4</ele><time>2026-05-03T07:42:19.32Z</time></trkpt><trkpt lat="42.3603834" lon="13.5498438"><ele>1216.8</ele><time>2026-05-03T07:42:20.336Z</time></trkpt><trkpt lat="42.3603679" lon="13.5499895"><ele>1216.2</ele><time>2026-05-03T07:42:21.325Z</time></trkpt><trkpt lat="42.3603414" lon="13.5501145"><ele>1215.6</ele><time>2026-05-03T07:42:22.336Z</time></trkpt><trkpt lat="42.3603199" lon="13.5502417"><ele>1215.0</ele><time>2026-05-03T07:42:23.332Z</time></trkpt><trkpt lat="42.3603005" lon="13.5503766"><ele>1214.6</ele><time>2026-05-03T07:42:24.342Z</time></trkpt><trkpt lat="42.3602735" lon="13.5505108"><ele>1214.2</ele><time>2026-05-03T07:42:25.325Z</time></trkpt><trkpt lat="42.3602517" lon="13.5506469"><ele>1213.8</ele><time>2026-05-03T07:42:26.331Z</time></trkpt><trkpt lat="42.3602241" lon="13.5507992"><ele>1213.4</ele><time>2026-05-03T07:42:27.326Z</time></trkpt><trkpt lat="42.3601918" lon="13.5509575"><ele>1213.0</ele><time>2026-05-03T07:42:28.321Z</time></trkpt><trkpt lat="42.3601603" lon="13.5510976"><ele>1212.8</ele><time>2026-05-03T07:42:29.325Z</time></trkpt><trkpt lat="42.3601288" lon="13.5512273"><ele>1212.6</ele><time>2026-05-03T07:42:30.326Z</time></trkpt><trkpt lat="42.3600978" lon="13.5513597"><ele>1212.4</ele><time>2026-05-03T07:42:31.327Z</time></trkpt><trkpt lat="42.3600617" lon="13.5515113"><ele>1212.2</ele><time>2026-05-03T07:42:32.325Z</time></trkpt><trkpt lat="42.3600329" lon="13.5516674"><ele>1212.0</ele><time>2026-05-03T07:42:33.324Z</time></trkpt><trkpt lat="42.3599976" lon="13.5517981"><ele>1212.0</ele><time>2026-05-03T07:42:34.321Z</time></trkpt><trkpt lat="42.3599596" lon="13.5519181"><ele>1212.0</ele><time>2026-05-03T07:42:35.321Z</time></trkpt><trkpt lat="42.3599151" lon="13.5520292"><ele>1212.0</ele><time>2026-05-03T07:42:36.324Z</time></trkpt><trkpt lat="42.3598785" lon="13.5521367"><ele>1212.0</ele><time>2026-05-03T07:42:37.326Z</time></trkpt><trkpt lat="42.3598398" lon="13.5522544"><ele>1212.0</ele><time>2026-05-03T07:42:38.322Z</time></trkpt><trkpt lat="42.3597908" lon="13.5523626"><ele>1211.8</ele><time>2026-05-03T07:42:39.327Z</time></trkpt><trkpt lat="42.3597281" lon="13.552473"><ele>1211.6</ele><time>2026-05-03T07:42:40.325Z</time></trkpt><trkpt lat="42.3596666" lon="13.552574"><ele>1211.3999999999999</ele><time>2026-05-03T07:42:41.326Z</time></trkpt><trkpt lat="42.3596179" lon="13.5526814"><ele>1211.2</ele><time>2026-05-03T07:42:42.328Z</time></trkpt><trkpt lat="42.3595649" lon="13.5527797"><ele>1211.0</ele><time>2026-05-03T07:42:43.324Z</time></trkpt><trkpt lat="42.3595207" lon="13.5528827"><ele>1211.0</ele><time>2026-05-03T07:42:44.325Z</time></trkpt><trkpt lat="42.3594708" lon="13.5529817"><ele>1211.0</ele><time>2026-05-03T07:42:45.326Z</time></trkpt><trkpt lat="42.3594278" lon="13.5530855"><ele>1211.0</ele><time>2026-05-03T07:42:46.323Z</time></trkpt><trkpt lat="42.3593889" lon="13.5531937"><ele>1211.0</ele><time>2026-05-03T07:42:47.326Z</time></trkpt><trkpt lat="42.3593572" lon="13.5533054"><ele>1211.0</ele><time>2026-05-03T07:42:48.325Z</time></trkpt><trkpt lat="42.3593244" lon="13.5534281"><ele>1211.0</ele><time>2026-05-03T07:42:49.325Z</time></trkpt><trkpt lat="42.35929" lon="13.5535584"><ele>1211.0</ele><time>2026-05-03T07:42:50.327Z</time></trkpt><trkpt lat="42.3592551" lon="13.5536999"><ele>1211.0</ele><time>2026-05-03T07:42:51.326Z</time></trkpt><trkpt lat="42.3592135" lon="13.5538282"><ele>1211.0</ele><time>2026-05-03T07:42:52.329Z</time></trkpt><trkpt lat="42.3591671" lon="13.5539582"><ele>1211.0</ele><time>2026-05-03T07:42:53.326Z</time></trkpt><trkpt lat="42.3591104" lon="13.5540776"><ele>1211.2</ele><time>2026-05-03T07:42:54.33Z</time></trkpt><trkpt lat="42.3590553" lon="13.5541985"><ele>1211.3999999999999</ele><time>2026-05-03T07:42:55.355Z</time></trkpt><trkpt lat="42.3590004" lon="13.5543154"><ele>1211.6</ele><time>2026-05-03T07:42:56.324Z</time></trkpt><trkpt lat="42.3589479" lon="13.5544244"><ele>1211.8</ele><time>2026-05-03T07:42:57.327Z</time></trkpt><trkpt lat="42.3588983" lon="13.5545393"><ele>1212.0</ele><time>2026-05-03T07:42:58.327Z</time></trkpt><trkpt lat="42.3588592" lon="13.5546459"><ele>1214.0</ele><time>2026-05-03T07:42:59.327Z</time></trkpt><trkpt lat="42.3588235" lon="13.5547527"><ele>1216.0</ele><time>2026-05-03T07:43:00.325Z</time></trkpt><trkpt lat="42.3587829" lon="13.5548595"><ele>1218.0</ele><time>2026-05-03T07:43:01.327Z</time></trkpt><trkpt lat="42.3587376" lon="13.5549731"><ele>1220.0</ele><time>2026-05-03T07:43:02.323Z</time></trkpt><trkpt lat="42.3586947" lon="13.5550859"><ele>1222.0</ele><time>2026-05-03T07:43:03.325Z</time></trkpt><trkpt lat="42.3586548" lon="13.5552012"><ele>1222.0</ele><time>2026-05-03T07:43:04.325Z</time></trkpt><trkpt lat="42.3586187" lon="13.5553122"><ele>1222.0</ele><time>2026-05-03T07:43:05.321Z</time></trkpt><trkpt lat="42.3585832" lon="13.5554309"><ele>1222.0</ele><time>2026-05-03T07:43:06.32Z</time></trkpt><trkpt lat="42.3585447" lon="13.555548"><ele>1222.0</ele><time>2026-05-03T07:43:07.321Z</time></trkpt><trkpt lat="42.3585129" lon="13.5556572"><ele>1222.0</ele><time>2026-05-03T07:43:08.32Z</time></trkpt><trkpt lat="42.3584822" lon="13.5557568"><ele>1222.0</ele><time>2026-05-03T07:43:09.32Z</time></trkpt><trkpt lat="42.3584672" lon="13.5558743"><ele>1221.1666666666665</ele><time>2026-05-03T07:43:10.321Z</time></trkpt><trkpt lat="42.3584454" lon="13.5559923"><ele>1220.3333333333333</ele><time>2026-05-03T07:43:11.322Z</time></trkpt><trkpt lat="42.3584364" lon="13.556115"><ele>1219.5</ele><time>2026-05-03T07:43:12.322Z</time></trkpt><trkpt lat="42.3584415" lon="13.5562327"><ele>1218.6666666666667</ele><time>2026-05-03T07:43:13.325Z</time></trkpt><trkpt lat="42.3584546" lon="13.5563512"><ele>1217.8333333333335</ele><time>2026-05-03T07:43:14.326Z</time></trkpt><trkpt lat="42.3584671" lon="13.5564732"><ele>1217.0</ele><time>2026-05-03T07:43:15.325Z</time></trkpt><trkpt lat="42.3584819" lon="13.5565934"><ele>1216.0</ele><time>2026-05-03T07:43:16.326Z</time></trkpt><trkpt lat="42.3585" lon="13.5566979"><ele>1215.0</ele><time>2026-05-03T07:43:17.327Z</time></trkpt><trkpt lat="42.3585078" lon="13.556801"><ele>1214.0</ele><time>2026-05-03T07:43:18.323Z</time></trkpt><trkpt lat="42.3585127" lon="13.5569141"><ele>1213.0</ele><time>2026-05-03T07:43:19.326Z</time></trkpt><trkpt lat="42.3585257" lon="13.5570194"><ele>1212.0</ele><time>2026-05-03T07:43:20.322Z</time></trkpt><trkpt lat="42.3585604" lon="13.557118"><ele>1211.0</ele><time>2026-05-03T07:43:21.314Z</time></trkpt><trkpt lat="42.3586141" lon="13.5572183"><ele>1211.0</ele><time>2026-05-03T07:43:22.318Z</time></trkpt><trkpt lat="42.3586761" lon="13.5573262"><ele>1211.0</ele><time>2026-05-03T07:43:23.318Z</time></trkpt><trkpt lat="42.3587381" lon="13.557439"><ele>1211.0</ele><time>2026-05-03T07:43:24.322Z</time></trkpt><trkpt lat="42.3587823" lon="13.5575544"><ele>1211.0</ele><time>2026-05-03T07:43:25.334Z</time></trkpt><trkpt lat="42.3588092" lon="13.5576682"><ele>1211.0</ele><time>2026-05-03T07:43:26.319Z</time></trkpt><trkpt lat="42.3588255" lon="13.5577996"><ele>1210.8</ele><time>2026-05-03T07:43:27.321Z</time></trkpt><trkpt lat="42.3588295" lon="13.557947"><ele>1210.6</ele><time>2026-05-03T07:43:28.323Z</time></trkpt><trkpt lat="42.3588157" lon="13.5580871"><ele>1210.4</ele><time>2026-05-03T07:43:29.324Z</time></trkpt><trkpt lat="42.3588183" lon="13.558216"><ele>1210.2</ele><time>2026-05-03T07:43:30.323Z</time></trkpt><trkpt lat="42.3588317" lon="13.5583488"><ele>1210.0</ele><time>2026-05-03T07:43:31.32Z</time></trkpt><trkpt lat="42.3588647" lon="13.5584839"><ele>1209.4</ele><time>2026-05-03T07:43:32.321Z</time></trkpt><trkpt lat="42.3588998" lon="13.5586137"><ele>1208.8</ele><time>2026-05-03T07:43:33.322Z</time></trkpt><trkpt lat="42.3589286" lon="13.558741"><ele>1208.2</ele><time>2026-05-03T07:43:34.318Z</time></trkpt><trkpt lat="42.3589596" lon="13.5588756"><ele>1207.6</ele><time>2026-05-03T07:43:35.318Z</time></trkpt><trkpt lat="42.3589854" lon="13.559013"><ele>1207.0</ele><time>2026-05-03T07:43:36.318Z</time></trkpt><trkpt lat="42.3590055" lon="13.5591298"><ele>1206.0</ele><time>2026-05-03T07:43:37.323Z</time></trkpt><trkpt lat="42.3590263" lon="13.5592438"><ele>1205.0</ele><time>2026-05-03T07:43:38.325Z</time></trkpt><trkpt lat="42.3590414" lon="13.559365"><ele>1204.0</ele><time>2026-05-03T07:43:39.324Z</time></trkpt><trkpt lat="42.359034" lon="13.5595056"><ele>1203.0</ele><time>2026-05-03T07:43:40.319Z</time></trkpt><trkpt lat="42.3590147" lon="13.5596487"><ele>1202.0</ele><time>2026-05-03T07:43:41.321Z</time></trkpt><trkpt lat="42.3589987" lon="13.5597811"><ele>1202.0</ele><time>2026-05-03T07:43:42.324Z</time></trkpt><trkpt lat="42.3589837" lon="13.5599032"><ele>1202.0</ele><time>2026-05-03T07:43:43.322Z</time></trkpt><trkpt lat="42.3589607" lon="13.5600136"><ele>1202.0</ele><time>2026-05-03T07:43:44.325Z</time></trkpt><trkpt lat="42.3589452" lon="13.5601297"><ele>1202.0</ele><time>2026-05-03T07:43:45.322Z</time></trkpt><trkpt lat="42.3589432" lon="13.5602624"><ele>1202.0</ele><time>2026-05-03T07:43:46.327Z</time></trkpt><trkpt lat="42.3589338" lon="13.5603993"><ele>1201.8</ele><time>2026-05-03T07:43:47.322Z</time></trkpt><trkpt lat="42.3589315" lon="13.5605414"><ele>1201.6</ele><time>2026-05-03T07:43:48.318Z</time></trkpt><trkpt lat="42.3589283" lon="13.5606885"><ele>1201.3999999999999</ele><time>2026-05-03T07:43:49.323Z</time></trkpt><trkpt lat="42.3589288" lon="13.5608291"><ele>1201.2</ele><time>2026-05-03T07:43:50.325Z</time></trkpt><trkpt lat="42.358925" lon="13.5609667"><ele>1201.0</ele><time>2026-05-03T07:43:51.325Z</time></trkpt><trkpt lat="42.3589292" lon="13.5611103"><ele>1200.3999999999999</ele><time>2026-05-03T07:43:52.331Z</time></trkpt><trkpt lat="42.3589279" lon="13.5612582"><ele>1199.8</ele><time>2026-05-03T07:43:53.327Z</time></trkpt><trkpt lat="42.3589189" lon="13.5614196"><ele>1199.1999999999998</ele><time>2026-05-03T07:43:54.325Z</time></trkpt><trkpt lat="42.3589142" lon="13.561562"><ele>1198.6</ele><time>2026-05-03T07:43:55.323Z</time></trkpt><trkpt lat="42.3589085" lon="13.5617005"><ele>1198.0</ele><time>2026-05-03T07:43:56.339Z</time></trkpt><trkpt lat="42.3589024" lon="13.5618342"><ele>1198.0</ele><time>2026-05-03T07:43:57.327Z</time></trkpt><trkpt lat="42.358898" lon="13.5619685"><ele>1198.0</ele><time>2026-05-03T07:43:58.324Z</time></trkpt><trkpt lat="42.3588949" lon="13.5620929"><ele>1198.0</ele><time>2026-05-03T07:43:59.326Z</time></trkpt><trkpt lat="42.3588921" lon="13.562213"><ele>1198.0</ele><time>2026-05-03T07:44:00.325Z</time></trkpt><trkpt lat="42.3588895" lon="13.5623519"><ele>1198.0</ele><time>2026-05-03T07:44:01.323Z</time></trkpt><trkpt lat="42.3588948" lon="13.5624955"><ele>1198.0</ele><time>2026-05-03T07:44:02.319Z</time></trkpt><trkpt lat="42.3588981" lon="13.5626367"><ele>1198.0</ele><time>2026-05-03T07:44:03.32Z</time></trkpt><trkpt lat="42.3588942" lon="13.5627681"><ele>1198.0</ele><time>2026-05-03T07:44:04.321Z</time></trkpt><trkpt lat="42.3589052" lon="13.5629001"><ele>1198.0</ele><time>2026-05-03T07:44:05.316Z</time></trkpt><trkpt lat="42.358919" lon="13.5630268"><ele>1198.0</ele><time>2026-05-03T07:44:06.318Z</time></trkpt><trkpt lat="42.3589372" lon="13.5631555"><ele>1196.6666666666665</ele><time>2026-05-03T07:44:07.319Z</time></trkpt><trkpt lat="42.3589603" lon="13.5632818"><ele>1195.3333333333333</ele><time>2026-05-03T07:44:08.317Z</time></trkpt><trkpt lat="42.3589846" lon="13.5633897"><ele>1194.0</ele><time>2026-05-03T07:44:09.318Z</time></trkpt><trkpt lat="42.3590044" lon="13.5635027"><ele>1192.6666666666667</ele><time>2026-05-03T07:44:10.319Z</time></trkpt><trkpt lat="42.3590223" lon="13.5636239"><ele>1191.3333333333335</ele><time>2026-05-03T07:44:11.314Z</time></trkpt><trkpt lat="42.3590286" lon="13.5637482"><ele>1190.0</ele><time>2026-05-03T07:44:12.315Z</time></trkpt><trkpt lat="42.3590116" lon="13.5638807"><ele>1190.5</ele><time>2026-05-03T07:44:13.318Z</time></trkpt><trkpt lat="42.358998" lon="13.5640101"><ele>1191.0</ele><time>2026-05-03T07:44:14.318Z</time></trkpt><trkpt lat="42.3589926" lon="13.5641264"><ele>1191.5</ele><time>2026-05-03T07:44:15.318Z</time></trkpt><trkpt lat="42.3589984" lon="13.5642368"><ele>1192.0</ele><time>2026-05-03T07:44:16.325Z</time></trkpt><trkpt lat="42.3590148" lon="13.5643435"><ele>1192.5</ele><time>2026-05-03T07:44:17.321Z</time></trkpt><trkpt lat="42.3590245" lon="13.5644436"><ele>1193.0</ele><time>2026-05-03T07:44:18.319Z</time></trkpt><trkpt lat="42.3590249" lon="13.5645477"><ele>1193.0</ele><time>2026-05-03T07:44:19.319Z</time></trkpt><trkpt lat="42.3590273" lon="13.5646501"><ele>1193.0</ele><time>2026-05-03T07:44:20.315Z</time></trkpt><trkpt lat="42.3590009" lon="13.5647602"><ele>1193.0</ele><time>2026-05-03T07:44:21.326Z</time></trkpt><trkpt lat="42.3589684" lon="13.5648696"><ele>1193.0</ele><time>2026-05-03T07:44:22.332Z</time></trkpt><trkpt lat="42.3589351" lon="13.5649861"><ele>1193.0</ele><time>2026-05-03T07:44:23.329Z</time></trkpt><trkpt lat="42.3589035" lon="13.5651147"><ele>1193.0</ele><time>2026-05-03T07:44:24.331Z</time></trkpt><trkpt lat="42.3588747" lon="13.5652557"><ele>1192.5</ele><time>2026-05-03T07:44:25.329Z</time></trkpt><trkpt lat="42.3588487" lon="13.565406"><ele>1192.0</ele><time>2026-05-03T07:44:26.329Z</time></trkpt><trkpt lat="42.3588319" lon="13.56556"><ele>1191.5</ele><time>2026-05-03T07:44:27.346Z</time></trkpt><trkpt lat="42.3588208" lon="13.5657162"><ele>1191.0</ele><time>2026-05-03T07:44:28.331Z</time></trkpt><trkpt lat="42.3588039" lon="13.5658715"><ele>1191.0</ele><time>2026-05-03T07:44:29.33Z</time></trkpt><trkpt lat="42.3588026" lon="13.5660201"><ele>1191.0</ele><time>2026-05-03T07:44:30.33Z</time></trkpt><trkpt lat="42.3588029" lon="13.566168"><ele>1191.0</ele><time>2026-05-03T07:44:31.329Z</time></trkpt><trkpt lat="42.3588062" lon="13.5663093"><ele>1191.0</ele><time>2026-05-03T07:44:32.319Z</time></trkpt><trkpt lat="42.3588183" lon="13.5664517"><ele>1191.0</ele><time>2026-05-03T07:44:33.319Z</time></trkpt><trkpt lat="42.3588264" lon="13.5665986"><ele>1191.0</ele><time>2026-05-03T07:44:34.319Z</time></trkpt><trkpt lat="42.3588359" lon="13.5667494"><ele>1191.0</ele><time>2026-05-03T07:44:35.319Z</time></trkpt><trkpt lat="42.3588342" lon="13.5669013"><ele>1191.0</ele><time>2026-05-03T07:44:36.317Z</time></trkpt><trkpt lat="42.3588335" lon="13.5670608"><ele>1191.0</ele><time>2026-05-03T07:44:37.314Z</time></trkpt><trkpt lat="42.3588301" lon="13.5672226"><ele>1191.0</ele><time>2026-05-03T07:44:38.313Z</time></trkpt><trkpt lat="42.3588262" lon="13.5673827"><ele>1191.0</ele><time>2026-05-03T07:44:39.314Z</time></trkpt><trkpt lat="42.3588229" lon="13.5675504"><ele>1191.0</ele><time>2026-05-03T07:44:40.313Z</time></trkpt><trkpt lat="42.358808" lon="13.5677233"><ele>1191.0</ele><time>2026-05-03T07:44:41.313Z</time></trkpt><trkpt lat="42.3587918" lon="13.5678992"><ele>1191.0</ele><time>2026-05-03T07:44:42.315Z</time></trkpt><trkpt lat="42.3587742" lon="13.56808"><ele>1191.0</ele><time>2026-05-03T07:44:43.314Z</time></trkpt><trkpt lat="42.3587536" lon="13.5682607"><ele>1191.0</ele><time>2026-05-03T07:44:44.315Z</time></trkpt><trkpt lat="42.3587351" lon="13.5684379"><ele>1191.0</ele><time>2026-05-03T07:44:45.316Z</time></trkpt><trkpt lat="42.3587117" lon="13.5686073"><ele>1189.25</ele><time>2026-05-03T07:44:46.315Z</time></trkpt><trkpt lat="42.3586847" lon="13.56877"><ele>1187.5</ele><time>2026-05-03T07:44:47.316Z</time></trkpt><trkpt lat="42.3586583" lon="13.5689246"><ele>1185.75</ele><time>2026-05-03T07:44:48.319Z</time></trkpt><trkpt lat="42.3586126" lon="13.5690677"><ele>1184.0</ele><time>2026-05-03T07:44:49.312Z</time></trkpt><trkpt lat="42.3585437" lon="13.5692096"><ele>1184.0</ele><time>2026-05-03T07:44:50.319Z</time></trkpt><trkpt lat="42.3584641" lon="13.5693526"><ele>1184.0</ele><time>2026-05-03T07:44:51.316Z</time></trkpt><trkpt lat="42.3583744" lon="13.5694894"><ele>1184.0</ele><time>2026-05-03T07:44:52.32Z</time></trkpt><trkpt lat="42.3582793" lon="13.5696246"><ele>1184.0</ele><time>2026-05-03T07:44:53.314Z</time></trkpt><trkpt lat="42.3581774" lon="13.5697649"><ele>1184.5</ele><time>2026-05-03T07:44:54.317Z</time></trkpt><trkpt lat="42.3580771" lon="13.569909"><ele>1185.0</ele><time>2026-05-03T07:44:55.316Z</time></trkpt><trkpt lat="42.3579914" lon="13.5700705"><ele>1185.5</ele><time>2026-05-03T07:44:56.315Z</time></trkpt><trkpt lat="42.35791" lon="13.5702341"><ele>1186.0</ele><time>2026-05-03T07:44:57.315Z</time></trkpt><trkpt lat="42.3578341" lon="13.570386"><ele>1186.0</ele><time>2026-05-03T07:44:58.329Z</time></trkpt><trkpt lat="42.3577596" lon="13.5705347"><ele>1186.0</ele><time>2026-05-03T07:44:59.314Z</time></trkpt><trkpt lat="42.3576976" lon="13.570688"><ele>1186.0</ele><time>2026-05-03T07:45:00.315Z</time></trkpt><trkpt lat="42.3576277" lon="13.5708339"><ele>1186.0</ele><time>2026-05-03T07:45:01.302Z</time></trkpt><trkpt lat="42.3575576" lon="13.5709755"><ele>1186.0</ele><time>2026-05-03T07:45:02.3Z</time></trkpt><trkpt lat="42.3574911" lon="13.5711191"><ele>1186.0</ele><time>2026-05-03T07:45:03.297Z</time></trkpt><trkpt lat="42.3574148" lon="13.5712681"><ele>1186.0</ele><time>2026-05-03T07:45:04.294Z</time></trkpt><trkpt lat="42.3573382" lon="13.5714098"><ele>1186.0</ele><time>2026-05-03T07:45:05.297Z</time></trkpt><trkpt lat="42.3572541" lon="13.5715448"><ele>1186.0</ele><time>2026-05-03T07:45:06.301Z</time></trkpt><trkpt lat="42.3571662" lon="13.5716874"><ele>1186.0</ele><time>2026-05-03T07:45:07.301Z</time></trkpt><trkpt lat="42.3570773" lon="13.5718387"><ele>1186.0</ele><time>2026-05-03T07:45:08.304Z</time></trkpt><trkpt lat="42.3569962" lon="13.5719848"><ele>1186.0</ele><time>2026-05-03T07:45:09.299Z</time></trkpt><trkpt lat="42.356914" lon="13.5721366"><ele>1186.0</ele><time>2026-05-03T07:45:10.3Z</time></trkpt><trkpt lat="42.3568096" lon="13.5722817"><ele>1186.0</ele><time>2026-05-03T07:45:11.297Z</time></trkpt><trkpt lat="42.3567037" lon="13.5723878"><ele>1186.0</ele><time>2026-05-03T07:45:12.294Z</time></trkpt><trkpt lat="42.3565991" lon="13.5724667"><ele>1186.0</ele><time>2026-05-03T07:45:13.286Z</time></trkpt><trkpt lat="42.3565045" lon="13.5725171"><ele>1186.0</ele><time>2026-05-03T07:45:14.297Z</time></trkpt><trkpt lat="42.3564064" lon="13.5725143"><ele>1186.0</ele><time>2026-05-03T07:45:15.297Z</time></trkpt><trkpt lat="42.3563126" lon="13.572479"><ele>1186.0</ele><time>2026-05-03T07:45:16.295Z</time></trkpt><trkpt lat="42.356214" lon="13.5724331"><ele>1186.0</ele><time>2026-05-03T07:45:17.297Z</time></trkpt><trkpt lat="42.3561123" lon="13.5724029"><ele>1186.0</ele><time>2026-05-03T07:45:18.293Z</time></trkpt><trkpt lat="42.3559995" lon="13.5724036"><ele>1185.0</ele><time>2026-05-03T07:45:19.287Z</time></trkpt><trkpt lat="42.3558883" lon="13.572429"><ele>1184.0</ele><time>2026-05-03T07:45:20.29Z</time></trkpt><trkpt lat="42.3557752" lon="13.572464"><ele>1183.0</ele><time>2026-05-03T07:45:21.287Z</time></trkpt><trkpt lat="42.3556611" lon="13.572506"><ele>1182.0</ele><time>2026-05-03T07:45:22.298Z</time></trkpt><trkpt lat="42.3555371" lon="13.5725683"><ele>1183.75</ele><time>2026-05-03T07:45:23.298Z</time></trkpt><trkpt lat="42.3554177" lon="13.5726329"><ele>1185.5</ele><time>2026-05-03T07:45:24.295Z</time></trkpt><trkpt lat="42.3552996" lon="13.5727052"><ele>1187.25</ele><time>2026-05-03T07:45:25.298Z</time></trkpt><trkpt lat="42.3551949" lon="13.5727752"><ele>1189.0</ele><time>2026-05-03T07:45:26.296Z</time></trkpt><trkpt lat="42.3550872" lon="13.5728386"><ele>1186.4</ele><time>2026-05-03T07:45:27.299Z</time></trkpt><trkpt lat="42.3549892" lon="13.5728895"><ele>1183.8000000000002</ele><time>2026-05-03T07:45:28.297Z</time></trkpt><trkpt lat="42.35489" lon="13.5729509"><ele>1181.1999999999998</ele><time>2026-05-03T07:45:29.313Z</time></trkpt><trkpt lat="42.3547841" lon="13.5729956"><ele>1178.6</ele><time>2026-05-03T07:45:30.294Z</time></trkpt><trkpt lat="42.35468" lon="13.5730648"><ele>1176.0</ele><time>2026-05-03T07:45:31.295Z</time></trkpt><trkpt lat="42.3545629" lon="13.5731267"><ele>1175.8</ele><time>2026-05-03T07:45:32.294Z</time></trkpt><trkpt lat="42.3544517" lon="13.5731853"><ele>1175.6</ele><time>2026-05-03T07:45:33.29Z</time></trkpt><trkpt lat="42.3543482" lon="13.5732334"><ele>1175.4</ele><time>2026-05-03T07:45:34.288Z</time></trkpt><trkpt lat="42.354252" lon="13.5732874"><ele>1175.2</ele><time>2026-05-03T07:45:35.275Z</time></trkpt><trkpt lat="42.3541704" lon="13.5733345"><ele>1175.0</ele><time>2026-05-03T07:45:36.285Z</time></trkpt><trkpt lat="42.3541092" lon="13.5733762"><ele>1175.0</ele><time>2026-05-03T07:45:37.286Z</time></trkpt><trkpt lat="42.3540234" lon="13.5734415"><ele>1175.0</ele><time>2026-05-03T07:45:39.29Z</time></trkpt><trkpt lat="42.353937" lon="13.5735271"><ele>1175.0</ele><time>2026-05-03T07:45:41.29Z</time></trkpt><trkpt lat="42.3538464" lon="13.5735921"><ele>1175.0</ele><time>2026-05-03T07:45:43.289Z</time></trkpt><trkpt lat="42.3537284" lon="13.5736606"><ele>1175.0</ele><time>2026-05-03T07:45:45.293Z</time></trkpt><trkpt lat="42.3536539" lon="13.5737087"><ele>1172.8</ele><time>2026-05-03T07:45:46.288Z</time></trkpt><trkpt lat="42.3535665" lon="13.573767"><ele>1170.6</ele><time>2026-05-03T07:45:47.295Z</time></trkpt><trkpt lat="42.3534769" lon="13.5738345"><ele>1168.4</ele><time>2026-05-03T07:45:48.294Z</time></trkpt><trkpt lat="42.3533717" lon="13.5738974"><ele>1166.2</ele><time>2026-05-03T07:45:49.298Z</time></trkpt><trkpt lat="42.3532718" lon="13.5739489"><ele>1164.0</ele><time>2026-05-03T07:45:50.299Z</time></trkpt><trkpt lat="42.353181" lon="13.5739981"><ele>1164.0</ele><time>2026-05-03T07:45:51.292Z</time></trkpt><trkpt lat="42.3530953" lon="13.5740486"><ele>1164.0</ele><time>2026-05-03T07:45:52.299Z</time></trkpt><trkpt lat="42.3530231" lon="13.5741067"><ele>1164.0</ele><time>2026-05-03T07:45:53.298Z</time></trkpt><trkpt lat="42.3529498" lon="13.5741793"><ele>1164.0</ele><time>2026-05-03T07:45:54.306Z</time></trkpt><trkpt lat="42.3528729" lon="13.5742535"><ele>1164.0</ele><time>2026-05-03T07:45:55.302Z</time></trkpt><trkpt lat="42.3527916" lon="13.5743057"><ele>1162.8</ele><time>2026-05-03T07:45:56.296Z</time></trkpt><trkpt lat="42.3526914" lon="13.5743283"><ele>1161.6000000000001</ele><time>2026-05-03T07:45:57.298Z</time></trkpt><trkpt lat="42.3525852" lon="13.574316"><ele>1160.4</ele><time>2026-05-03T07:45:58.298Z</time></trkpt><trkpt lat="42.3524777" lon="13.5742872"><ele>1159.2</ele><time>2026-05-03T07:45:59.301Z</time></trkpt><trkpt lat="42.3523768" lon="13.5742151"><ele>1158.0</ele><time>2026-05-03T07:46:00.307Z</time></trkpt><trkpt lat="42.3522797" lon="13.5741341"><ele>1156.75</ele><time>2026-05-03T07:46:01.296Z</time></trkpt><trkpt lat="42.3521748" lon="13.574049"><ele>1155.5</ele><time>2026-05-03T07:46:02.292Z</time></trkpt><trkpt lat="42.3520789" lon="13.5739599"><ele>1154.25</ele><time>2026-05-03T07:46:03.292Z</time></trkpt><trkpt lat="42.3519878" lon="13.5738724"><ele>1153.0</ele><time>2026-05-03T07:46:04.292Z</time></trkpt><trkpt lat="42.3518898" lon="13.5737969"><ele>1153.0</ele><time>2026-05-03T07:46:05.288Z</time></trkpt><trkpt lat="42.3517893" lon="13.5737256"><ele>1153.0</ele><time>2026-05-03T07:46:06.29Z</time></trkpt><trkpt lat="42.3516801" lon="13.5736467"><ele>1153.0</ele><time>2026-05-03T07:46:07.288Z</time></trkpt><trkpt lat="42.3515812" lon="13.5735736"><ele>1153.0</ele><time>2026-05-03T07:46:08.293Z</time></trkpt><trkpt lat="42.3514879" lon="13.5735012"><ele>1153.0</ele><time>2026-05-03T07:46:09.289Z</time></trkpt><trkpt lat="42.3513787" lon="13.573409"><ele>1153.0</ele><time>2026-05-03T07:46:10.292Z</time></trkpt><trkpt lat="42.3512746" lon="13.5732948"><ele>1153.0</ele><time>2026-05-03T07:46:11.292Z</time></trkpt><trkpt lat="42.3511862" lon="13.5731732"><ele>1153.0</ele><time>2026-05-03T07:46:12.298Z</time></trkpt><trkpt lat="42.3511093" lon="13.5730486"><ele>1152.2</ele><time>2026-05-03T07:46:13.296Z</time></trkpt><trkpt lat="42.3510384" lon="13.5729349"><ele>1151.4</ele><time>2026-05-03T07:46:14.297Z</time></trkpt><trkpt lat="42.3509747" lon="13.5728241"><ele>1150.6000000000001</ele><time>2026-05-03T07:46:15.294Z</time></trkpt><trkpt lat="42.3509208" lon="13.5727066"><ele>1149.8</ele><time>2026-05-03T07:46:16.294Z</time></trkpt><trkpt lat="42.3508484" lon="13.57259"><ele>1149.0</ele><time>2026-05-03T07:46:17.294Z</time></trkpt><trkpt lat="42.3507635" lon="13.5724956"><ele>1149.0</ele><time>2026-05-03T07:46:18.289Z</time></trkpt><trkpt lat="42.3506613" lon="13.5724213"><ele>1149.0</ele><time>2026-05-03T07:46:19.289Z</time></trkpt><trkpt lat="42.3505412" lon="13.5723643"><ele>1149.0</ele><time>2026-05-03T07:46:20.291Z</time></trkpt><trkpt lat="42.3504295" lon="13.5723078"><ele>1149.0</ele><time>2026-05-03T07:46:21.288Z</time></trkpt><trkpt lat="42.3503282" lon="13.5722393"><ele>1148.0</ele><time>2026-05-03T07:46:22.292Z</time></trkpt><trkpt lat="42.3502409" lon="13.5721574"><ele>1147.0</ele><time>2026-05-03T07:46:23.287Z</time></trkpt><trkpt lat="42.3501494" lon="13.5720624"><ele>1146.0</ele><time>2026-05-03T07:46:24.291Z</time></trkpt><trkpt lat="42.3500564" lon="13.5719867"><ele>1145.0</ele><time>2026-05-03T07:46:25.29Z</time></trkpt><trkpt lat="42.3499739" lon="13.5719283"><ele>1144.0</ele><time>2026-05-03T07:46:26.294Z</time></trkpt><trkpt lat="42.3498946" lon="13.5718654"><ele>1144.0</ele><time>2026-05-03T07:46:27.297Z</time></trkpt><trkpt lat="42.3498212" lon="13.5718029"><ele>1144.0</ele><time>2026-05-03T07:46:28.294Z</time></trkpt><trkpt lat="42.3497542" lon="13.5717316"><ele>1144.0</ele><time>2026-05-03T07:46:29.296Z</time></trkpt><trkpt lat="42.3496959" lon="13.5716551"><ele>1144.0</ele><time>2026-05-03T07:46:30.299Z</time></trkpt><trkpt lat="42.3496486" lon="13.5715739"><ele>1144.0</ele><time>2026-05-03T07:46:31.316Z</time></trkpt><trkpt lat="42.3496001" lon="13.571484"><ele>1144.0</ele><time>2026-05-03T07:46:32.298Z</time></trkpt><trkpt lat="42.3495317" lon="13.5714215"><ele>1141.6666666666665</ele><time>2026-05-03T07:46:33.298Z</time></trkpt><trkpt lat="42.3494588" lon="13.5713738"><ele>1139.3333333333333</ele><time>2026-05-03T07:46:34.29Z</time></trkpt><trkpt lat="42.349394" lon="13.5713475"><ele>1137.0</ele><time>2026-05-03T07:46:35.289Z</time></trkpt><trkpt lat="42.349332" lon="13.5713243"><ele>1134.6666666666667</ele><time>2026-05-03T07:46:36.287Z</time></trkpt><trkpt lat="42.3492208" lon="13.5712875"><ele>1132.3333333333335</ele><time>2026-05-03T07:46:38.286Z</time></trkpt><trkpt lat="42.3491034" lon="13.5712917"><ele>1130.0</ele><time>2026-05-03T07:46:40.285Z</time></trkpt><trkpt lat="42.3490341" lon="13.5713005"><ele>1129.9999999999998</ele><time>2026-05-03T07:46:41.285Z</time></trkpt><trkpt lat="42.3489704" lon="13.5712862"><ele>1130.0</ele><time>2026-05-03T07:46:42.284Z</time></trkpt><trkpt lat="42.3489057" lon="13.5712687"><ele>1130.0</ele><time>2026-05-03T07:46:43.286Z</time></trkpt><trkpt lat="42.3488362" lon="13.5712523"><ele>1130.0</ele><time>2026-05-03T07:46:44.292Z</time></trkpt><trkpt lat="42.3487633" lon="13.5712222"><ele>1130.0</ele><time>2026-05-03T07:46:45.291Z</time></trkpt><trkpt lat="42.3487014" lon="13.571195"><ele>1129.9999999999998</ele><time>2026-05-03T07:46:46.298Z</time></trkpt><trkpt lat="42.3486376" lon="13.5711542"><ele>1130.0</ele><time>2026-05-03T07:46:47.297Z</time></trkpt><trkpt lat="42.3485329" lon="13.5710723"><ele>1129.8333333333335</ele><time>2026-05-03T07:46:49.296Z</time></trkpt><trkpt lat="42.348474" lon="13.5710322"><ele>1129.6666666666667</ele><time>2026-05-03T07:46:50.299Z</time></trkpt><trkpt lat="42.3484208" lon="13.5709811"><ele>1129.5</ele><time>2026-05-03T07:46:51.295Z</time></trkpt><trkpt lat="42.3483643" lon="13.5709268"><ele>1129.3333333333333</ele><time>2026-05-03T07:46:52.303Z</time></trkpt><trkpt lat="42.3482937" lon="13.570871"><ele>1129.1666666666665</ele><time>2026-05-03T07:46:53.3Z</time></trkpt><trkpt lat="42.3482231" lon="13.5708089"><ele>1129.0</ele><time>2026-05-03T07:46:54.298Z</time></trkpt><trkpt lat="42.3481534" lon="13.570737"><ele>1129.0</ele><time>2026-05-03T07:46:55.294Z</time></trkpt><trkpt lat="42.3480901" lon="13.570637"><ele>1129.0</ele><time>2026-05-03T07:46:56.296Z</time></trkpt><trkpt lat="42.3480272" lon="13.5705011"><ele>1129.0</ele><time>2026-05-03T07:46:57.297Z</time></trkpt><trkpt lat="42.3479756" lon="13.5703479"><ele>1129.0</ele><time>2026-05-03T07:46:58.299Z</time></trkpt><trkpt lat="42.3479108" lon="13.5702017"><ele>1127.4</ele><time>2026-05-03T07:46:59.292Z</time></trkpt><trkpt lat="42.3478395" lon="13.5700758"><ele>1125.8000000000002</ele><time>2026-05-03T07:47:00.302Z</time></trkpt><trkpt lat="42.3477524" lon="13.5699791"><ele>1124.1999999999998</ele><time>2026-05-03T07:47:01.304Z</time></trkpt><trkpt lat="42.3476752" lon="13.5698963"><ele>1122.6</ele><time>2026-05-03T07:47:02.32Z</time></trkpt><trkpt lat="42.3476019" lon="13.5698221"><ele>1121.0</ele><time>2026-05-03T07:47:03.304Z</time></trkpt><trkpt lat="42.347525" lon="13.5697667"><ele>1121.0</ele><time>2026-05-03T07:47:04.304Z</time></trkpt><trkpt lat="42.3474378" lon="13.5697272"><ele>1121.0</ele><time>2026-05-03T07:47:05.297Z</time></trkpt><trkpt lat="42.347343" lon="13.5697168"><ele>1121.0</ele><time>2026-05-03T07:47:06.295Z</time></trkpt><trkpt lat="42.3472458" lon="13.5697213"><ele>1121.0</ele><time>2026-05-03T07:47:07.293Z</time></trkpt><trkpt lat="42.3471435" lon="13.5697631"><ele>1121.0</ele><time>2026-05-03T07:47:08.297Z</time></trkpt><trkpt lat="42.347043" lon="13.5698146"><ele>1120.6</ele><time>2026-05-03T07:47:09.305Z</time></trkpt><trkpt lat="42.3469475" lon="13.5698691"><ele>1120.1999999999998</ele><time>2026-05-03T07:47:10.305Z</time></trkpt><trkpt lat="42.3468573" lon="13.5699041"><ele>1119.8000000000002</ele><time>2026-05-03T07:47:11.302Z</time></trkpt><trkpt lat="42.346767" lon="13.569916"><ele>1119.4</ele><time>2026-05-03T07:47:12.305Z</time></trkpt><trkpt lat="42.3466756" lon="13.5699212"><ele>1119.0</ele><time>2026-05-03T07:47:13.304Z</time></trkpt><trkpt lat="42.3465711" lon="13.5699211"><ele>1119.0</ele><time>2026-05-03T07:47:14.307Z</time></trkpt><trkpt lat="42.3464632" lon="13.5699395"><ele>1119.0</ele><time>2026-05-03T07:47:15.303Z</time></trkpt><trkpt lat="42.3463723" lon="13.569963"><ele>1119.0</ele><time>2026-05-03T07:47:16.309Z</time></trkpt><trkpt lat="42.3462911" lon="13.5700015"><ele>1119.0</ele><time>2026-05-03T07:47:17.303Z</time></trkpt><trkpt lat="42.3462166" lon="13.5700537"><ele>1119.0</ele><time>2026-05-03T07:47:18.302Z</time></trkpt><trkpt lat="42.3461641" lon="13.570116"><ele>1119.0</ele><time>2026-05-03T07:47:19.303Z</time></trkpt><trkpt lat="42.3460843" lon="13.5702151"><ele>1118.3333333333333</ele><time>2026-05-03T07:47:21.306Z</time></trkpt><trkpt lat="42.3460048" lon="13.5702967"><ele>1117.6666666666667</ele><time>2026-05-03T07:47:23.308Z</time></trkpt><trkpt lat="42.3459142" lon="13.570387"><ele>1117.0</ele><time>2026-05-03T07:47:25.306Z</time></trkpt><trkpt lat="42.3458713" lon="13.5704532"><ele>1116.3333333333335</ele><time>2026-05-03T07:47:26.307Z</time></trkpt><trkpt lat="42.3458278" lon="13.5705291"><ele>1115.6666666666667</ele><time>2026-05-03T07:47:27.304Z</time></trkpt><trkpt lat="42.3457894" lon="13.5706237"><ele>1115.0</ele><time>2026-05-03T07:47:28.304Z</time></trkpt><trkpt lat="42.3457707" lon="13.5707273"><ele>1115.0</ele><time>2026-05-03T07:47:29.299Z</time></trkpt><trkpt lat="42.3457481" lon="13.5708485"><ele>1115.0</ele><time>2026-05-03T07:47:30.304Z</time></trkpt><trkpt lat="42.345738" lon="13.5709626"><ele>1115.0</ele><time>2026-05-03T07:47:31.306Z</time></trkpt><trkpt lat="42.3457094" lon="13.5710775"><ele>1115.0</ele><time>2026-05-03T07:47:32.305Z</time></trkpt><trkpt lat="42.345638" lon="13.5711898"><ele>1115.0</ele><time>2026-05-03T07:47:33.328Z</time></trkpt><trkpt lat="42.3455409" lon="13.5712939"><ele>1113.6</ele><time>2026-05-03T07:47:34.296Z</time></trkpt><trkpt lat="42.345439" lon="13.571384"><ele>1112.2</ele><time>2026-05-03T07:47:35.303Z</time></trkpt><trkpt lat="42.3453503" lon="13.5714665"><ele>1110.8</ele><time>2026-05-03T07:47:36.303Z</time></trkpt><trkpt lat="42.3452752" lon="13.5715362"><ele>1109.4</ele><time>2026-05-03T07:47:37.3Z</time></trkpt><trkpt lat="42.3452223" lon="13.5716007"><ele>1108.0</ele><time>2026-05-03T07:47:38.302Z</time></trkpt><trkpt lat="42.3451714" lon="13.5716581"><ele>1108.0</ele><time>2026-05-03T07:47:39.303Z</time></trkpt><trkpt lat="42.3451315" lon="13.571728"><ele>1108.0</ele><time>2026-05-03T07:47:40.302Z</time></trkpt><trkpt lat="42.3451059" lon="13.5718147"><ele>1108.0</ele><time>2026-05-03T07:47:41.303Z</time></trkpt><trkpt lat="42.3450868" lon="13.5719064"><ele>1108.0</ele><time>2026-05-03T07:47:42.303Z</time></trkpt><trkpt lat="42.3450607" lon="13.5719981"><ele>1108.0</ele><time>2026-05-03T07:47:43.302Z</time></trkpt><trkpt lat="42.3450372" lon="13.5720949"><ele>1108.0</ele><time>2026-05-03T07:47:44.302Z</time></trkpt><trkpt lat="42.3450096" lon="13.5721913"><ele>1108.0</ele><time>2026-05-03T07:47:45.303Z</time></trkpt><trkpt lat="42.3449694" lon="13.5722924"><ele>1108.0</ele><time>2026-05-03T07:47:46.306Z</time></trkpt><trkpt lat="42.3449237" lon="13.5723998"><ele>1108.0</ele><time>2026-05-03T07:47:47.306Z</time></trkpt><trkpt lat="42.3448625" lon="13.572502"><ele>1108.0</ele><time>2026-05-03T07:47:48.306Z</time></trkpt><trkpt lat="42.3447976" lon="13.5726003"><ele>1108.0</ele><time>2026-05-03T07:47:49.304Z</time></trkpt><trkpt lat="42.344719" lon="13.5726939"><ele>1108.0</ele><time>2026-05-03T07:47:50.307Z</time></trkpt><trkpt lat="42.3446366" lon="13.5727956"><ele>1107.5</ele><time>2026-05-03T07:47:51.307Z</time></trkpt><trkpt lat="42.3445521" lon="13.5728985"><ele>1107.0</ele><time>2026-05-03T07:47:52.31Z</time></trkpt><trkpt lat="42.3444578" lon="13.5729939"><ele>1106.5</ele><time>2026-05-03T07:47:53.307Z</time></trkpt><trkpt lat="42.3443679" lon="13.5730943"><ele>1106.0</ele><time>2026-05-03T07:47:54.304Z</time></trkpt><trkpt lat="42.3442803" lon="13.5731936"><ele>1106.0</ele><time>2026-05-03T07:47:55.306Z</time></trkpt><trkpt lat="42.3441891" lon="13.5733058"><ele>1106.0</ele><time>2026-05-03T07:47:56.306Z</time></trkpt><trkpt lat="42.3440858" lon="13.5734309"><ele>1106.0</ele><time>2026-05-03T07:47:57.307Z</time></trkpt><trkpt lat="42.3439745" lon="13.5735608"><ele>1106.0</ele><time>2026-05-03T07:47:58.307Z</time></trkpt><trkpt lat="42.343875" lon="13.5736847"><ele>1104.75</ele><time>2026-05-03T07:47:59.304Z</time></trkpt><trkpt lat="42.3437701" lon="13.5738079"><ele>1103.5</ele><time>2026-05-03T07:48:00.306Z</time></trkpt><trkpt lat="42.343677" lon="13.5739394"><ele>1102.25</ele><time>2026-05-03T07:48:01.307Z</time></trkpt><trkpt lat="42.3435873" lon="13.5740762"><ele>1101.0</ele><time>2026-05-03T07:48:02.305Z</time></trkpt><trkpt lat="42.3435098" lon="13.5742192"><ele>1101.0</ele><time>2026-05-03T07:48:03.32Z</time></trkpt><trkpt lat="42.3434331" lon="13.5743504"><ele>1101.0</ele><time>2026-05-03T07:48:04.306Z</time></trkpt><trkpt lat="42.3433525" lon="13.5744742"><ele>1101.0</ele><time>2026-05-03T07:48:05.306Z</time></trkpt><trkpt lat="42.3432683" lon="13.5746055"><ele>1101.0</ele><time>2026-05-03T07:48:06.307Z</time></trkpt><trkpt lat="42.3431812" lon="13.57472"><ele>1101.25</ele><time>2026-05-03T07:48:07.305Z</time></trkpt><trkpt lat="42.3430785" lon="13.5748259"><ele>1101.5</ele><time>2026-05-03T07:48:08.306Z</time></trkpt><trkpt lat="42.3429841" lon="13.5749246"><ele>1101.75</ele><time>2026-05-03T07:48:09.306Z</time></trkpt><trkpt lat="42.3428894" lon="13.5750134"><ele>1102.0</ele><time>2026-05-03T07:48:10.305Z</time></trkpt><trkpt lat="42.3427972" lon="13.5750964"><ele>1102.0</ele><time>2026-05-03T07:48:11.305Z</time></trkpt><trkpt lat="42.3427123" lon="13.575192"><ele>1102.0</ele><time>2026-05-03T07:48:12.305Z</time></trkpt><trkpt lat="42.3426395" lon="13.5752933"><ele>1102.0</ele><time>2026-05-03T07:48:13.305Z</time></trkpt><trkpt lat="42.34256" lon="13.5754093"><ele>1102.0</ele><time>2026-05-03T07:48:14.307Z</time></trkpt><trkpt lat="42.3424825" lon="13.575527"><ele>1102.0</ele><time>2026-05-03T07:48:15.306Z</time></trkpt><trkpt lat="42.3424079" lon="13.575643"><ele>1102.25</ele><time>2026-05-03T07:48:16.307Z</time></trkpt><trkpt lat="42.3423359" lon="13.5757502"><ele>1102.5</ele><time>2026-05-03T07:48:17.307Z</time></trkpt><trkpt lat="42.3422632" lon="13.5758712"><ele>1102.75</ele><time>2026-05-03T07:48:18.307Z</time></trkpt><trkpt lat="42.3421846" lon="13.5759956"><ele>1103.0</ele><time>2026-05-03T07:48:19.306Z</time></trkpt><trkpt lat="42.3421011" lon="13.5761123"><ele>1101.75</ele><time>2026-05-03T07:48:20.307Z</time></trkpt><trkpt lat="42.3420189" lon="13.5762216"><ele>1100.5</ele><time>2026-05-03T07:48:21.305Z</time></trkpt><trkpt lat="42.3419406" lon="13.5763421"><ele>1099.25</ele><time>2026-05-03T07:48:22.317Z</time></trkpt><trkpt lat="42.3418597" lon="13.5764673"><ele>1098.0</ele><time>2026-05-03T07:48:23.307Z</time></trkpt><trkpt lat="42.3417894" lon="13.5765779"><ele>1098.0</ele><time>2026-05-03T07:48:24.307Z</time></trkpt><trkpt lat="42.341713" lon="13.5766845"><ele>1098.0</ele><time>2026-05-03T07:48:25.308Z</time></trkpt><trkpt lat="42.3416386" lon="13.5767881"><ele>1098.0</ele><time>2026-05-03T07:48:26.308Z</time></trkpt><trkpt lat="42.3415606" lon="13.5769031"><ele>1098.0</ele><time>2026-05-03T07:48:27.308Z</time></trkpt><trkpt lat="42.3414796" lon="13.5770105"><ele>1098.0</ele><time>2026-05-03T07:48:28.307Z</time></trkpt><trkpt lat="42.3414048" lon="13.5771246"><ele>1097.6</ele><time>2026-05-03T07:48:29.307Z</time></trkpt><trkpt lat="42.3413319" lon="13.5772334"><ele>1097.1999999999998</ele><time>2026-05-03T07:48:30.306Z</time></trkpt><trkpt lat="42.3412543" lon="13.5773491"><ele>1096.8</ele><time>2026-05-03T07:48:31.31Z</time></trkpt><trkpt lat="42.3411837" lon="13.5774523"><ele>1096.3999999999999</ele><time>2026-05-03T07:48:32.305Z</time></trkpt><trkpt lat="42.3411221" lon="13.5775454"><ele>1096.0</ele><time>2026-05-03T07:48:33.303Z</time></trkpt><trkpt lat="42.3410652" lon="13.5776274"><ele>1096.0000000000002</ele><time>2026-05-03T07:48:34.322Z</time></trkpt><trkpt lat="42.341012" lon="13.5777091"><ele>1096.0</ele><time>2026-05-03T07:48:35.306Z</time></trkpt><trkpt lat="42.3409618" lon="13.5777852"><ele>1096.0</ele><time>2026-05-03T07:48:36.307Z</time></trkpt><trkpt lat="42.3409055" lon="13.5778584"><ele>1096.0</ele><time>2026-05-03T07:48:37.305Z</time></trkpt><trkpt lat="42.3408511" lon="13.5779286"><ele>1096.0</ele><time>2026-05-03T07:48:38.306Z</time></trkpt><trkpt lat="42.3408045" lon="13.5779957"><ele>1096.0000000000002</ele><time>2026-05-03T07:48:39.308Z</time></trkpt><trkpt lat="42.340763" lon="13.5780666"><ele>1096.0</ele><time>2026-05-03T07:48:40.307Z</time></trkpt><trkpt lat="42.3407143" lon="13.5781302"><ele>1096.6666666666665</ele><time>2026-05-03T07:48:41.307Z</time></trkpt><trkpt lat="42.3406656" lon="13.5781928"><ele>1097.3333333333333</ele><time>2026-05-03T07:48:42.307Z</time></trkpt><trkpt lat="42.3405807" lon="13.5783158"><ele>1098.0</ele><time>2026-05-03T07:48:44.306Z</time></trkpt><trkpt lat="42.3405349" lon="13.5783792"><ele>1098.6666666666667</ele><time>2026-05-03T07:48:45.307Z</time></trkpt><trkpt lat="42.3404862" lon="13.5784428"><ele>1099.3333333333335</ele><time>2026-05-03T07:48:46.306Z</time></trkpt><trkpt lat="42.340436" lon="13.5785059"><ele>1100.0</ele><time>2026-05-03T07:48:47.306Z</time></trkpt><trkpt lat="42.3403794" lon="13.5785756"><ele>1101.0</ele><time>2026-05-03T07:48:48.307Z</time></trkpt><trkpt lat="42.34032" lon="13.5786557"><ele>1102.0</ele><time>2026-05-03T07:48:49.306Z</time></trkpt><trkpt lat="42.3402537" lon="13.5787342"><ele>1103.0</ele><time>2026-05-03T07:48:50.308Z</time></trkpt><trkpt lat="42.3422632" lon="13.5758712"><ele>1101.75</ele><time>2026-05-03T07:48:18.307Z</time></trkpt><trkpt lat="42.3421846" lon="13.5759956"><ele>1100.5</ele><time>2026-05-03T07:48:19.306Z</time></trkpt><trkpt lat="42.3421011" lon="13.5761123"><ele>1099.25</ele><time>2026-05-03T07:48:20.307Z</time></trkpt><trkpt lat="42.3420189" lon="13.5762216"><ele>1098.0</ele><time>2026-05-03T07:48:21.305Z</time></trkpt><trkpt lat="42.3419406" lon="13.5763421"><ele>1098.0</ele><time>2026-05-03T07:48:22.317Z</time></trkpt><trkpt lat="42.3418597" lon="13.5764673"><ele>1098.0</ele><time>2026-05-03T07:48:23.307Z</time></trkpt><trkpt lat="42.3417894" lon="13.5765779"><ele>1098.0</ele><time>2026-05-03T07:48:24.307Z</time></trkpt><trkpt lat="42.341713" lon="13.5766845"><ele>1098.0</ele><time>2026-05-03T07:48:25.308Z</time></trkpt><trkpt lat="42.3416386" lon="13.5767881"><ele>1098.0</ele><time>2026-05-03T07:48:26.308Z</time></trkpt><trkpt lat="42.3415606" lon="13.5769031"><ele>1098.0</ele><time>2026-05-03T07:48:27.308Z</time></trkpt><trkpt lat="42.3414796" lon="13.5770105"><ele>1098.0</ele><time>2026-05-03T07:48:28.307Z</time></trkpt><trkpt lat="42.3414048" lon="13.5771246"><ele>1098.0</ele><time>2026-05-03T07:48:29.307Z</time></trkpt><trkpt lat="42.3413319" lon="13.5772334"><ele>1098.0</ele><time>2026-05-03T07:48:30.306Z</time></trkpt><trkpt lat="42.3412543" lon="13.5773491"><ele>1097.6666666666667</ele><time>2026-05-03T07:48:31.31Z</time></trkpt><trkpt lat="42.3411837" lon="13.5774523"><ele>1097.3333333333333</ele><time>2026-05-03T07:48:32.305Z</time></trkpt><trkpt lat="42.3411221" lon="13.5775454"><ele>1097.0</ele><time>2026-05-03T07:48:33.303Z</time></trkpt><trkpt lat="42.3410652" lon="13.5776274"><ele>1096.6666666666665</ele><time>2026-05-03T07:48:34.322Z</time></trkpt><trkpt lat="42.341012" lon="13.5777091"><ele>1096.3333333333333</ele><time>2026-05-03T07:48:35.306Z</time></trkpt><trkpt lat="42.3409618" lon="13.5777852"><ele>1096.0</ele><time>2026-05-03T07:48:36.307Z</time></trkpt><trkpt lat="42.3409055" lon="13.5778584"><ele>1096.6666666666665</ele><time>2026-05-03T07:48:37.305Z</time></trkpt><trkpt lat="42.3408511" lon="13.5779286"><ele>1097.3333333333333</ele><time>2026-05-03T07:48:38.306Z</time></trkpt><trkpt lat="42.3408045" lon="13.5779957"><ele>1098.0</ele><time>2026-05-03T07:48:39.308Z</time></trkpt><trkpt lat="42.340763" lon="13.5780666"><ele>1098.6666666666667</ele><time>2026-05-03T07:48:40.307Z</time></trkpt><trkpt lat="42.3407143" lon="13.5781302"><ele>1099.3333333333335</ele><time>2026-05-03T07:48:41.307Z</time></trkpt><trkpt lat="42.3406656" lon="13.5781928"><ele>1100.0</ele><time>2026-05-03T07:48:42.307Z</time></trkpt><trkpt lat="42.3405807" lon="13.5783158"><ele>1098.6666666666667</ele><time>2026-05-03T07:48:44.306Z</time></trkpt><trkpt lat="42.3405349" lon="13.5783792"><ele>1097.3333333333335</ele><time>2026-05-03T07:48:45.307Z</time></trkpt><trkpt lat="42.3404862" lon="13.5784428"><ele>1096.0</ele><time>2026-05-03T07:48:46.306Z</time></trkpt><trkpt lat="42.340436" lon="13.5785059"><ele>1094.6666666666667</ele><time>2026-05-03T07:48:47.306Z</time></trkpt><trkpt lat="42.3403794" lon="13.5785756"><ele>1093.3333333333333</ele><time>2026-05-03T07:48:48.307Z</time></trkpt><trkpt lat="42.34032" lon="13.5786557"><ele>1092.0</ele><time>2026-05-03T07:48:49.306Z</time></trkpt><trkpt lat="42.3402537" lon="13.5787342"><ele>1092.0</ele><time>2026-05-03T07:48:50.308Z</time></trkpt><trkpt lat="42.3401871" lon="13.5788168"><ele>1092.0</ele><time>2026-05-03T07:48:51.307Z</time></trkpt><trkpt lat="42.3401152" lon="13.5789113"><ele>1092.0</ele><time>2026-05-03T07:48:52.311Z</time></trkpt><trkpt lat="42.3400491" lon="13.578997"><ele>1092.0</ele><time>2026-05-03T07:48:53.309Z</time></trkpt><trkpt lat="42.3399747" lon="13.5790919"><ele>1092.0</ele><time>2026-05-03T07:48:54.308Z</time></trkpt><trkpt lat="42.3399014" lon="13.5791929"><ele>1092.0</ele><time>2026-05-03T07:48:55.308Z</time></trkpt><trkpt lat="42.3398301" lon="13.5792925"><ele>1092.0</ele><time>2026-05-03T07:48:56.307Z</time></trkpt><trkpt lat="42.3397544" lon="13.579398"><ele>1092.0</ele><time>2026-05-03T07:48:57.308Z</time></trkpt><trkpt lat="42.3396862" lon="13.5795187"><ele>1092.0</ele><time>2026-05-03T07:48:58.306Z</time></trkpt><trkpt lat="42.3396059" lon="13.5796442"><ele>1092.0</ele><time>2026-05-03T07:48:59.311Z</time></trkpt><trkpt lat="42.3395347" lon="13.5797888"><ele>1090.3333333333333</ele><time>2026-05-03T07:49:00.306Z</time></trkpt><trkpt lat="42.3394431" lon="13.579942"><ele>1088.6666666666665</ele><time>2026-05-03T07:49:01.309Z</time></trkpt><trkpt lat="42.3393384" lon="13.5801041"><ele>1087.0</ele><time>2026-05-03T07:49:02.303Z</time></trkpt><trkpt lat="42.3392194" lon="13.5802598"><ele>1087.5</ele><time>2026-05-03T07:49:03.306Z</time></trkpt><trkpt lat="42.3390935" lon="13.5804003"><ele>1088.0</ele><time>2026-05-03T07:49:04.297Z</time></trkpt><trkpt lat="42.3389735" lon="13.5805106"><ele>1088.5</ele><time>2026-05-03T07:49:05.312Z</time></trkpt><trkpt lat="42.338872" lon="13.5806122"><ele>1089.0</ele><time>2026-05-03T07:49:06.302Z</time></trkpt><trkpt lat="42.3387812" lon="13.5807019"><ele>1089.0</ele><time>2026-05-03T07:49:07.298Z</time></trkpt><trkpt lat="42.3387006" lon="13.580764"><ele>1089.0</ele><time>2026-05-03T07:49:08.295Z</time></trkpt><trkpt lat="42.3386183" lon="13.5808067"><ele>1089.0</ele><time>2026-05-03T07:49:09.299Z</time></trkpt><trkpt lat="42.3385377" lon="13.5808218"><ele>1089.0</ele><time>2026-05-03T07:49:10.295Z</time></trkpt><trkpt lat="42.3384658" lon="13.5808123"><ele>1089.0</ele><time>2026-05-03T07:49:11.299Z</time></trkpt><trkpt lat="42.3384006" lon="13.5807654"><ele>1089.0</ele><time>2026-05-03T07:49:12.298Z</time></trkpt><trkpt lat="42.3383359" lon="13.5807085"><ele>1089.0</ele><time>2026-05-03T07:49:13.298Z</time></trkpt><trkpt lat="42.338269" lon="13.580636"><ele>1089.0</ele><time>2026-05-03T07:49:14.298Z</time></trkpt><trkpt lat="42.3382024" lon="13.5805546"><ele>1089.0</ele><time>2026-05-03T07:49:15.306Z</time></trkpt><trkpt lat="42.3381372" lon="13.5804677"><ele>1089.0</ele><time>2026-05-03T07:49:16.305Z</time></trkpt><trkpt lat="42.3380782" lon="13.5803705"><ele>1089.0</ele><time>2026-05-03T07:49:17.308Z</time></trkpt><trkpt lat="42.3380155" lon="13.5802658"><ele>1089.8333333333333</ele><time>2026-05-03T07:49:18.306Z</time></trkpt><trkpt lat="42.3379586" lon="13.5801659"><ele>1090.6666666666667</ele><time>2026-05-03T07:49:19.303Z</time></trkpt><trkpt lat="42.3379117" lon="13.5800868"><ele>1091.5</ele><time>2026-05-03T07:49:20.306Z</time></trkpt><trkpt lat="42.3378679" lon="13.5800109"><ele>1092.3333333333335</ele><time>2026-05-03T07:49:21.315Z</time></trkpt><trkpt lat="42.3377723" lon="13.5799146"><ele>1093.1666666666667</ele><time>2026-05-03T07:49:23.317Z</time></trkpt><trkpt lat="42.337725" lon="13.5798412"><ele>1094.0</ele><time>2026-05-03T07:49:24.311Z</time></trkpt><trkpt lat="42.3376805" lon="13.579743"><ele>1094.0</ele><time>2026-05-03T07:49:25.312Z</time></trkpt><trkpt lat="42.337628" lon="13.5796374"><ele>1094.0</ele><time>2026-05-03T07:49:26.312Z</time></trkpt><trkpt lat="42.3375594" lon="13.579561"><ele>1094.0</ele><time>2026-05-03T07:49:27.313Z</time></trkpt><trkpt lat="42.3374854" lon="13.5794931"><ele>1094.0</ele><time>2026-05-03T07:49:28.315Z</time></trkpt><trkpt lat="42.3374067" lon="13.579443"><ele>1094.0</ele><time>2026-05-03T07:49:29.315Z</time></trkpt><trkpt lat="42.337326" lon="13.5794131"><ele>1094.0</ele><time>2026-05-03T07:49:30.311Z</time></trkpt><trkpt lat="42.3372343" lon="13.5793965"><ele>1092.0</ele><time>2026-05-03T07:49:31.314Z</time></trkpt><trkpt lat="42.3371356" lon="13.5793945"><ele>1090.0</ele><time>2026-05-03T07:49:32.302Z</time></trkpt><trkpt lat="42.3370387" lon="13.5794183"><ele>1088.0</ele><time>2026-05-03T07:49:33.303Z</time></trkpt><trkpt lat="42.3369315" lon="13.5794464"><ele>1086.0</ele><time>2026-05-03T07:49:34.312Z</time></trkpt><trkpt lat="42.33681" lon="13.5794792"><ele>1084.0</ele><time>2026-05-03T07:49:35.313Z</time></trkpt><trkpt lat="42.336686" lon="13.5795126"><ele>1086.0</ele><time>2026-05-03T07:49:36.325Z</time></trkpt><trkpt lat="42.3365564" lon="13.5795405"><ele>1088.0</ele><time>2026-05-03T07:49:37.312Z</time></trkpt><trkpt lat="42.3364092" lon="13.5795501"><ele>1090.0</ele><time>2026-05-03T07:49:38.311Z</time></trkpt><trkpt lat="42.3362677" lon="13.579548"><ele>1092.0</ele><time>2026-05-03T07:49:39.315Z</time></trkpt><trkpt lat="42.3361132" lon="13.5795419"><ele>1092.0</ele><time>2026-05-03T07:49:40.315Z</time></trkpt><trkpt lat="42.335956" lon="13.5795393"><ele>1092.0</ele><time>2026-05-03T07:49:41.31Z</time></trkpt><trkpt lat="42.3358076" lon="13.5795628"><ele>1092.0</ele><time>2026-05-03T07:49:42.315Z</time></trkpt><trkpt lat="42.3356567" lon="13.5796011"><ele>1090.0</ele><time>2026-05-03T07:49:43.313Z</time></trkpt><trkpt lat="42.3355036" lon="13.5796324"><ele>1088.0</ele><time>2026-05-03T07:49:44.315Z</time></trkpt><trkpt lat="42.3353449" lon="13.5796471"><ele>1086.0</ele><time>2026-05-03T07:49:45.311Z</time></trkpt><trkpt lat="42.3351754" lon="13.5796374"><ele>1086.0</ele><time>2026-05-03T07:49:46.308Z</time></trkpt><trkpt lat="42.3350315" lon="13.5795966"><ele>1086.0</ele><time>2026-05-03T07:49:47.309Z</time></trkpt><trkpt lat="42.334883" lon="13.5795451"><ele>1086.0</ele><time>2026-05-03T07:49:48.309Z</time></trkpt><trkpt lat="42.3347417" lon="13.5794751"><ele>1079.6666666666667</ele><time>2026-05-03T07:49:49.311Z</time></trkpt><trkpt lat="42.3345904" lon="13.5794131"><ele>1073.3333333333335</ele><time>2026-05-03T07:49:50.313Z</time></trkpt><trkpt lat="42.3344366" lon="13.5793797"><ele>1067.0</ele><time>2026-05-03T07:49:51.315Z</time></trkpt><trkpt lat="42.3342802" lon="13.5793485"><ele>1067.0</ele><time>2026-05-03T07:49:52.309Z</time></trkpt><trkpt lat="42.3341212" lon="13.5793387"><ele>1067.0</ele><time>2026-05-03T07:49:53.314Z</time></trkpt><trkpt lat="42.3339698" lon="13.5793147"><ele>1067.0</ele><time>2026-05-03T07:49:54.315Z</time></trkpt><trkpt lat="42.3338285" lon="13.5792925"><ele>1063.25</ele><time>2026-05-03T07:49:55.313Z</time></trkpt><trkpt lat="42.3336956" lon="13.5792814"><ele>1059.5</ele><time>2026-05-03T07:49:56.316Z</time></trkpt><trkpt lat="42.3335685" lon="13.5792829"><ele>1055.75</ele><time>2026-05-03T07:49:57.307Z</time></trkpt><trkpt lat="42.3334324" lon="13.5793251"><ele>1052.0</ele><time>2026-05-03T07:49:58.317Z</time></trkpt><trkpt lat="42.3333095" lon="13.5794497"><ele>1048.75</ele><time>2026-05-03T07:49:59.318Z</time></trkpt><trkpt lat="42.333213" lon="13.5795951"><ele>1045.5</ele><time>2026-05-03T07:50:00.302Z</time></trkpt><trkpt lat="42.3331273" lon="13.5797473"><ele>1042.25</ele><time>2026-05-03T07:50:01.32Z</time></trkpt><trkpt lat="42.3330421" lon="13.5798592"><ele>1039.0</ele><time>2026-05-03T07:50:02.301Z</time></trkpt><trkpt lat="42.3329227" lon="13.5799239"><ele>1039.0</ele><time>2026-05-03T07:50:03.306Z</time></trkpt><trkpt lat="42.3327848" lon="13.5799766"><ele>1039.0</ele><time>2026-05-03T07:50:04.315Z</time></trkpt><trkpt lat="42.3326487" lon="13.5800261"><ele>1039.0</ele><time>2026-05-03T07:50:05.313Z</time></trkpt><trkpt lat="42.3325363" lon="13.580096"><ele>1039.0</ele><time>2026-05-03T07:50:06.315Z</time></trkpt><trkpt lat="42.3324325" lon="13.5801582"><ele>1039.0</ele><time>2026-05-03T07:50:07.329Z</time></trkpt><trkpt lat="42.3323208" lon="13.5802056"><ele>1039.0</ele><time>2026-05-03T07:50:08.314Z</time></trkpt><trkpt lat="42.3322185" lon="13.5802524"><ele>1039.0</ele><time>2026-05-03T07:50:09.312Z</time></trkpt><trkpt lat="42.3321227" lon="13.5803122"><ele>1039.0</ele><time>2026-05-03T07:50:10.314Z</time></trkpt><trkpt lat="42.3320431" lon="13.5803901"><ele>1039.0</ele><time>2026-05-03T07:50:11.302Z</time></trkpt><trkpt lat="42.3319758" lon="13.5804963"><ele>1037.0</ele><time>2026-05-03T07:50:12.319Z</time></trkpt><trkpt lat="42.3319436" lon="13.5806551"><ele>1035.0</ele><time>2026-05-03T07:50:13.318Z</time></trkpt><trkpt lat="42.3319428" lon="13.5808301"><ele>1033.0</ele><time>2026-05-03T07:50:14.318Z</time></trkpt><trkpt lat="42.3319743" lon="13.5810164"><ele>1031.0</ele><time>2026-05-03T07:50:15.311Z</time></trkpt><trkpt lat="42.3320163" lon="13.581205"><ele>1031.0</ele><time>2026-05-03T07:50:16.317Z</time></trkpt><trkpt lat="42.3320585" lon="13.5814137"><ele>1031.0</ele><time>2026-05-03T07:50:17.318Z</time></trkpt><trkpt lat="42.3320864" lon="13.5816318"><ele>1031.0</ele><time>2026-05-03T07:50:18.309Z</time></trkpt><trkpt lat="42.3320921" lon="13.5818602"><ele>1029.3333333333335</ele><time>2026-05-03T07:50:19.314Z</time></trkpt><trkpt lat="42.3320807" lon="13.582081"><ele>1027.6666666666667</ele><time>2026-05-03T07:50:20.32Z</time></trkpt><trkpt lat="42.3320707" lon="13.5822934"><ele>1026.0</ele><time>2026-05-03T07:50:21.312Z</time></trkpt><trkpt lat="42.3320961" lon="13.5825094"><ele>1026.0</ele><time>2026-05-03T07:50:22.322Z</time></trkpt><trkpt lat="42.3321395" lon="13.5827021"><ele>1026.0</ele><time>2026-05-03T07:50:23.313Z</time></trkpt><trkpt lat="42.3321807" lon="13.5829034"><ele>1026.0</ele><time>2026-05-03T07:50:24.317Z</time></trkpt><trkpt lat="42.3322279" lon="13.5831131"><ele>1027.3333333333333</ele><time>2026-05-03T07:50:25.317Z</time></trkpt><trkpt lat="42.3322848" lon="13.5833319"><ele>1028.6666666666665</ele><time>2026-05-03T07:50:26.314Z</time></trkpt><trkpt lat="42.3323494" lon="13.5835594"><ele>1030.0</ele><time>2026-05-03T07:50:27.315Z</time></trkpt><trkpt lat="42.3324073" lon="13.5837854"><ele>1030.0</ele><time>2026-05-03T07:50:28.314Z</time></trkpt><trkpt lat="42.3324415" lon="13.5840033"><ele>1030.0</ele><time>2026-05-03T07:50:29.315Z</time></trkpt><trkpt lat="42.3324764" lon="13.5842214"><ele>1030.0</ele><time>2026-05-03T07:50:30.315Z</time></trkpt><trkpt lat="42.3324895" lon="13.5844325"><ele>1028.6666666666665</ele><time>2026-05-03T07:50:31.316Z</time></trkpt><trkpt lat="42.3324834" lon="13.5846486"><ele>1027.3333333333333</ele><time>2026-05-03T07:50:32.317Z</time></trkpt><trkpt lat="42.3324758" lon="13.5848569"><ele>1026.0</ele><time>2026-05-03T07:50:33.317Z</time></trkpt><trkpt lat="42.3324788" lon="13.5850517"><ele>1026.0</ele><time>2026-05-03T07:50:34.318Z</time></trkpt><trkpt lat="42.3324753" lon="13.5852345"><ele>1026.0</ele><time>2026-05-03T07:50:35.317Z</time></trkpt><trkpt lat="42.3324779" lon="13.5854132"><ele>1026.0</ele><time>2026-05-03T07:50:36.315Z</time></trkpt><trkpt lat="42.3324685" lon="13.5855691"><ele>1026.0</ele><time>2026-05-03T07:50:37.312Z</time></trkpt><trkpt lat="42.3324279" lon="13.585729"><ele>1025.0</ele><time>2026-05-03T07:50:38.327Z</time></trkpt><trkpt lat="42.3323682" lon="13.5858883"><ele>1024.0</ele><time>2026-05-03T07:50:39.313Z</time></trkpt><trkpt lat="42.3323076" lon="13.5860343"><ele>1023.0</ele><time>2026-05-03T07:50:40.315Z</time></trkpt><trkpt lat="42.3322403" lon="13.5861757"><ele>1022.0</ele><time>2026-05-03T07:50:41.317Z</time></trkpt><trkpt lat="42.3321686" lon="13.5863086"><ele>1019.5</ele><time>2026-05-03T07:50:42.317Z</time></trkpt><trkpt lat="42.3320972" lon="13.5864511"><ele>1017.0</ele><time>2026-05-03T07:50:43.317Z</time></trkpt><trkpt lat="42.3320333" lon="13.5865951"><ele>1014.5</ele><time>2026-05-03T07:50:44.317Z</time></trkpt><trkpt lat="42.3319597" lon="13.5867471"><ele>1012.0</ele><time>2026-05-03T07:50:45.319Z</time></trkpt><trkpt lat="42.3318833" lon="13.5869036"><ele>1012.0</ele><time>2026-05-03T07:50:46.317Z</time></trkpt><trkpt lat="42.3318134" lon="13.5870639"><ele>1012.0</ele><time>2026-05-03T07:50:47.319Z</time></trkpt><trkpt lat="42.331739" lon="13.5872433"><ele>1012.0</ele><time>2026-05-03T07:50:48.316Z</time></trkpt><trkpt lat="42.3316587" lon="13.5874103"><ele>1012.0</ele><time>2026-05-03T07:50:49.319Z</time></trkpt><trkpt lat="42.3315885" lon="13.5875758"><ele>1012.0</ele><time>2026-05-03T07:50:50.319Z</time></trkpt><trkpt lat="42.3315148" lon="13.5877212"><ele>1012.0</ele><time>2026-05-03T07:50:51.319Z</time></trkpt><trkpt lat="42.3314464" lon="13.5878629"><ele>1012.0</ele><time>2026-05-03T07:50:52.332Z</time></trkpt><trkpt lat="42.3313831" lon="13.5880091"><ele>1012.0</ele><time>2026-05-03T07:50:53.326Z</time></trkpt><trkpt lat="42.3313228" lon="13.5881553"><ele>1008.75</ele><time>2026-05-03T07:50:54.321Z</time></trkpt><trkpt lat="42.3312694" lon="13.5882922"><ele>1005.5</ele><time>2026-05-03T07:50:55.325Z</time></trkpt><trkpt lat="42.3312145" lon="13.5884473"><ele>1002.25</ele><time>2026-05-03T07:50:56.327Z</time></trkpt><trkpt lat="42.3311655" lon="13.5886034"><ele>999.0</ele><time>2026-05-03T07:50:57.331Z</time></trkpt><trkpt lat="42.331112" lon="13.5887634"><ele>999.0</ele><time>2026-05-03T07:50:58.327Z</time></trkpt><trkpt lat="42.3310712" lon="13.5889227"><ele>999.0</ele><time>2026-05-03T07:50:59.325Z</time></trkpt><trkpt lat="42.3310405" lon="13.5890802"><ele>999.0</ele><time>2026-05-03T07:51:00.325Z</time></trkpt><trkpt lat="42.3310007" lon="13.5892308"><ele>999.0</ele><time>2026-05-03T07:51:01.328Z</time></trkpt><trkpt lat="42.3309563" lon="13.5893829"><ele>999.25</ele><time>2026-05-03T07:51:02.327Z</time></trkpt><trkpt lat="42.3308956" lon="13.5895343"><ele>999.5</ele><time>2026-05-03T07:51:03.322Z</time></trkpt><trkpt lat="42.3308299" lon="13.5896805"><ele>999.75</ele><time>2026-05-03T07:51:04.319Z</time></trkpt><trkpt lat="42.3307469" lon="13.589801"><ele>1000.0</ele><time>2026-05-03T07:51:05.315Z</time></trkpt><trkpt lat="42.3306372" lon="13.5898982"><ele>998.0</ele><time>2026-05-03T07:51:06.328Z</time></trkpt><trkpt lat="42.3305023" lon="13.5899802"><ele>996.0</ele><time>2026-05-03T07:51:07.319Z</time></trkpt><trkpt lat="42.3303545" lon="13.5900346"><ele>994.0</ele><time>2026-05-03T07:51:08.327Z</time></trkpt><trkpt lat="42.3302328" lon="13.5900959"><ele>992.0</ele><time>2026-05-03T07:51:09.337Z</time></trkpt><trkpt lat="42.3301182" lon="13.5901393"><ele>992.0000000000001</ele><time>2026-05-03T07:51:10.315Z</time></trkpt><trkpt lat="42.3300308" lon="13.5901639"><ele>992.0</ele><time>2026-05-03T07:51:11.316Z</time></trkpt><trkpt lat="42.329949" lon="13.590185"><ele>992.0</ele><time>2026-05-03T07:51:12.318Z</time></trkpt><trkpt lat="42.32988" lon="13.5902356"><ele>992.0</ele><time>2026-05-03T07:51:13.311Z</time></trkpt><trkpt lat="42.3298355" lon="13.5903041"><ele>992.0000000000001</ele><time>2026-05-03T07:51:14.313Z</time></trkpt><trkpt lat="42.3297556" lon="13.5904051"><ele>992.0</ele><time>2026-05-03T07:51:16.32Z</time></trkpt><trkpt lat="42.3297089" lon="13.5904713"><ele>991.1666666666667</ele><time>2026-05-03T07:51:17.322Z</time></trkpt><trkpt lat="42.3296671" lon="13.5905468"><ele>990.3333333333334</ele><time>2026-05-03T07:51:18.317Z</time></trkpt><trkpt lat="42.3296464" lon="13.5906321"><ele>989.5</ele><time>2026-05-03T07:51:21.316Z</time></trkpt><trkpt lat="42.3297196" lon="13.590646"><ele>988.6666666666667</ele><time>2026-05-03T07:51:23.321Z</time></trkpt><trkpt lat="42.3298288" lon="13.5907138"><ele>987.8333333333334</ele><time>2026-05-03T07:51:25.319Z</time></trkpt><trkpt lat="42.3298904" lon="13.59075"><ele>987.0</ele><time>2026-05-03T07:51:26.322Z</time></trkpt><trkpt lat="42.3299998" lon="13.5908032"><ele>988.4285714285714</ele><time>2026-05-03T07:51:28.322Z</time></trkpt><trkpt lat="42.3300655" lon="13.5908473"><ele>989.8571428571429</ele><time>2026-05-03T07:51:29.324Z</time></trkpt><trkpt lat="42.330122" lon="13.5908881"><ele>991.2857142857142</ele><time>2026-05-03T07:51:30.319Z</time></trkpt><trkpt lat="42.3301823" lon="13.5909339"><ele>992.7142857142857</ele><time>2026-05-03T07:51:31.324Z</time></trkpt><trkpt lat="42.3302577" lon="13.5909743"><ele>994.1428571428571</ele><time>2026-05-03T07:51:32.319Z</time></trkpt><trkpt lat="42.330323" lon="13.5910296"><ele>995.5714285714284</ele><time>2026-05-03T07:51:33.325Z</time></trkpt><trkpt lat="42.3303758" lon="13.5910927"><ele>996.9999999999999</ele><time>2026-05-03T07:51:34.32Z</time></trkpt><trkpt lat="42.3304737" lon="13.5912102"><ele>1000.2</ele><time>2026-05-03T07:51:36.328Z</time></trkpt><trkpt lat="42.3305885" lon="13.5913229"><ele>1003.4000000000001</ele><time>2026-05-03T07:51:38.325Z</time></trkpt><trkpt lat="42.3306421" lon="13.5913774"><ele>1006.5999999999999</ele><time>2026-05-03T07:51:39.323Z</time></trkpt><trkpt lat="42.3307069" lon="13.5914365"><ele>1009.8</ele><time>2026-05-03T07:51:40.327Z</time></trkpt><trkpt lat="42.3307757" lon="13.591504"><ele>1013.0</ele><time>2026-05-03T07:51:41.323Z</time></trkpt><trkpt lat="42.3308487" lon="13.5915802"><ele>1013.0</ele><time>2026-05-03T07:51:42.325Z</time></trkpt><trkpt lat="42.3309206" lon="13.5916501"><ele>1013.0</ele><time>2026-05-03T07:51:43.322Z</time></trkpt><trkpt lat="42.3310032" lon="13.5917301"><ele>1013.0</ele><time>2026-05-03T07:51:44.328Z</time></trkpt><trkpt lat="42.3310663" lon="13.5918265"><ele>1013.0</ele><time>2026-05-03T07:51:45.326Z</time></trkpt><trkpt lat="42.331132" lon="13.5919259"><ele>1013.0</ele><time>2026-05-03T07:51:46.329Z</time></trkpt><trkpt lat="42.3311977" lon="13.5920353"><ele>1014.2</ele><time>2026-05-03T07:51:47.327Z</time></trkpt><trkpt lat="42.3312696" lon="13.5921448"><ele>1015.4</ele><time>2026-05-03T07:51:48.329Z</time></trkpt><trkpt lat="42.3313338" lon="13.5922675"><ele>1016.6000000000001</ele><time>2026-05-03T07:51:49.333Z</time></trkpt><trkpt lat="42.3313961" lon="13.5924047"><ele>1017.8000000000001</ele><time>2026-05-03T07:51:50.334Z</time></trkpt><trkpt lat="42.3314582" lon="13.5925255"><ele>1019.0</ele><time>2026-05-03T07:51:51.333Z</time></trkpt><trkpt lat="42.3315218" lon="13.592652"><ele>1020.75</ele><time>2026-05-03T07:51:52.339Z</time></trkpt><trkpt lat="42.3315891" lon="13.5927802"><ele>1022.5</ele><time>2026-05-03T07:51:53.33Z</time></trkpt><trkpt lat="42.3316566" lon="13.5929086"><ele>1024.25</ele><time>2026-05-03T07:51:54.33Z</time></trkpt><trkpt lat="42.3317265" lon="13.5930461"><ele>1026.0</ele><time>2026-05-03T07:51:55.335Z</time></trkpt><trkpt lat="42.331794" lon="13.5931807"><ele>1027.3999999999999</ele><time>2026-05-03T07:51:56.333Z</time></trkpt><trkpt lat="42.3318608" lon="13.5933092"><ele>1028.8</ele><time>2026-05-03T07:51:57.334Z</time></trkpt><trkpt lat="42.3319195" lon="13.5934362"><ele>1030.1999999999998</ele><time>2026-05-03T07:51:58.331Z</time></trkpt><trkpt lat="42.33198" lon="13.5935382"><ele>1031.6</ele><time>2026-05-03T07:51:59.33Z</time></trkpt><trkpt lat="42.3320401" lon="13.5936459"><ele>1033.0</ele><time>2026-05-03T07:52:00.327Z</time></trkpt><trkpt lat="42.3320868" lon="13.5937247"><ele>1034.8</ele><time>2026-05-03T07:52:01.325Z</time></trkpt><trkpt lat="42.3321536" lon="13.5938406"><ele>1036.6</ele><time>2026-05-03T07:52:03.323Z</time></trkpt><trkpt lat="42.3321137" lon="13.5939219"><ele>1038.4</ele><time>2026-05-03T07:52:06.326Z</time></trkpt><trkpt lat="42.3320255" lon="13.5939614"><ele>1040.2</ele><time>2026-05-03T07:52:08.324Z</time></trkpt><trkpt lat="42.3319867" lon="13.5940305"><ele>1042.0</ele><time>2026-05-03T07:52:09.315Z</time></trkpt><trkpt lat="42.3319431" lon="13.5941821"><ele>1042.0</ele><time>2026-05-03T07:52:11.339Z</time></trkpt><trkpt lat="42.3318732" lon="13.5943525"><ele>1042.0</ele><time>2026-05-03T07:52:13.325Z</time></trkpt><trkpt lat="42.3318181" lon="13.5944393"><ele>1042.0</ele><time>2026-05-03T07:52:14.326Z</time></trkpt><trkpt lat="42.3317516" lon="13.5945461"><ele>1042.0</ele><time>2026-05-03T07:52:15.331Z</time></trkpt><trkpt lat="42.3316838" lon="13.5946415"><ele>1042.0</ele><time>2026-05-03T07:52:16.33Z</time></trkpt><trkpt lat="42.3316307" lon="13.5947284"><ele>1041.2</ele><time>2026-05-03T07:52:17.327Z</time></trkpt><trkpt lat="42.3316021" lon="13.5948637"><ele>1040.4</ele><time>2026-05-03T07:52:19.33Z</time></trkpt><trkpt lat="42.3316639" lon="13.5949448"><ele>1039.6</ele><time>2026-05-03T07:52:21.332Z</time></trkpt><trkpt lat="42.3317339" lon="13.5949426"><ele>1038.8</ele><time>2026-05-03T07:52:22.331Z</time></trkpt><trkpt lat="42.3318069" lon="13.5949466"><ele>1038.0</ele><time>2026-05-03T07:52:23.317Z</time></trkpt><trkpt lat="42.3318808" lon="13.5951043"><ele>1038.0</ele><time>2026-05-03T07:52:25.323Z</time></trkpt><trkpt lat="42.3319012" lon="13.59523"><ele>1038.0</ele><time>2026-05-03T07:52:26.325Z</time></trkpt><trkpt lat="42.331915" lon="13.5953436"><ele>1038.0</ele><time>2026-05-03T07:52:27.323Z</time></trkpt><trkpt lat="42.3319181" lon="13.5954529"><ele>1038.0</ele><time>2026-05-03T07:52:28.32Z</time></trkpt><trkpt lat="42.3319169" lon="13.5955563"><ele>1038.0</ele><time>2026-05-03T07:52:29.317Z</time></trkpt><trkpt lat="42.3319337" lon="13.595653"><ele>1038.0</ele><time>2026-05-03T07:52:30.324Z</time></trkpt><trkpt lat="42.3319372" lon="13.5957404"><ele>1037.8</ele><time>2026-05-03T07:52:31.322Z</time></trkpt><trkpt lat="42.3318652" lon="13.5958841"><ele>1037.6</ele><time>2026-05-03T07:52:33.315Z</time></trkpt><trkpt lat="42.3317976" lon="13.595974"><ele>1037.4</ele><time>2026-05-03T07:52:34.322Z</time></trkpt><trkpt lat="42.3317315" lon="13.5960631"><ele>1037.2</ele><time>2026-05-03T07:52:35.325Z</time></trkpt><trkpt lat="42.3316728" lon="13.5961604"><ele>1037.0</ele><time>2026-05-03T07:52:36.326Z</time></trkpt><trkpt lat="42.3316133" lon="13.5962323"><ele>1037.0</ele><time>2026-05-03T07:52:37.327Z</time></trkpt><trkpt lat="42.3315508" lon="13.596255"><ele>1037.0</ele><time>2026-05-03T07:52:38.327Z</time></trkpt><trkpt lat="42.3314278" lon="13.5961831"><ele>1037.0</ele><time>2026-05-03T07:52:40.32Z</time></trkpt><trkpt lat="42.3313651" lon="13.5961523"><ele>1037.0</ele><time>2026-05-03T07:52:41.323Z</time></trkpt><trkpt lat="42.3312891" lon="13.5961515"><ele>1037.0</ele><time>2026-05-03T07:52:42.323Z</time></trkpt><trkpt lat="42.3312022" lon="13.5961692"><ele>1037.0</ele><time>2026-05-03T07:52:43.317Z</time></trkpt><trkpt lat="42.3311209" lon="13.5961972"><ele>1035.0</ele><time>2026-05-03T07:52:44.315Z</time></trkpt><trkpt lat="42.3310349" lon="13.5962331"><ele>1033.0</ele><time>2026-05-03T07:52:45.311Z</time></trkpt><trkpt lat="42.3309615" lon="13.5962825"><ele>1031.0</ele><time>2026-05-03T07:52:46.308Z</time></trkpt><trkpt lat="42.3308972" lon="13.5963626"><ele>1029.0</ele><time>2026-05-03T07:52:47.309Z</time></trkpt><trkpt lat="42.3308375" lon="13.5964745"><ele>1027.0</ele><time>2026-05-03T07:52:48.309Z</time></trkpt><trkpt lat="42.3307741" lon="13.5966046"><ele>1027.0</ele><time>2026-05-03T07:52:49.305Z</time></trkpt><trkpt lat="42.3307234" lon="13.5967052"><ele>1027.0</ele><time>2026-05-03T07:52:50.308Z</time></trkpt><trkpt lat="42.3306922" lon="13.5968206"><ele>1027.0</ele><time>2026-05-03T07:52:51.297Z</time></trkpt><trkpt lat="42.3306784" lon="13.5969431"><ele>1027.0</ele><time>2026-05-03T07:52:52.316Z</time></trkpt><trkpt lat="42.3306741" lon="13.597078"><ele>1027.0</ele><time>2026-05-03T07:52:53.316Z</time></trkpt><trkpt lat="42.3306745" lon="13.5972074"><ele>1027.2</ele><time>2026-05-03T07:52:54.316Z</time></trkpt><trkpt lat="42.3306647" lon="13.5973253"><ele>1027.4</ele><time>2026-05-03T07:52:55.31Z</time></trkpt><trkpt lat="42.3306405" lon="13.5974206"><ele>1027.6</ele><time>2026-05-03T07:52:56.301Z</time></trkpt><trkpt lat="42.330587" lon="13.59749"><ele>1027.8</ele><time>2026-05-03T07:52:57.317Z</time></trkpt><trkpt lat="42.3304863" lon="13.5975451"><ele>1028.0</ele><time>2026-05-03T07:52:58.313Z</time></trkpt><trkpt lat="42.3303953" lon="13.5976368"><ele>1027.2</ele><time>2026-05-03T07:52:59.318Z</time></trkpt><trkpt lat="42.3303159" lon="13.597737"><ele>1026.4</ele><time>2026-05-03T07:53:00.316Z</time></trkpt><trkpt lat="42.3302394" lon="13.5978519"><ele>1025.6000000000001</ele><time>2026-05-03T07:53:01.313Z</time></trkpt><trkpt lat="42.3301606" lon="13.5979443"><ele>1024.8</ele><time>2026-05-03T07:53:02.309Z</time></trkpt><trkpt lat="42.3300874" lon="13.5980143"><ele>1024.0</ele><time>2026-05-03T07:53:03.314Z</time></trkpt><trkpt lat="42.3299982" lon="13.5980463"><ele>1024.0</ele><time>2026-05-03T07:53:04.307Z</time></trkpt><trkpt lat="42.3298882" lon="13.598064"><ele>1024.0</ele><time>2026-05-03T07:53:05.308Z</time></trkpt><trkpt lat="42.3298026" lon="13.5981072"><ele>1024.0</ele><time>2026-05-03T07:53:06.305Z</time></trkpt><trkpt lat="42.329715" lon="13.598181"><ele>1024.0</ele><time>2026-05-03T07:53:07.306Z</time></trkpt><trkpt lat="42.3296143" lon="13.5982678"><ele>1024.0</ele><time>2026-05-03T07:53:08.308Z</time></trkpt><trkpt lat="42.3295105" lon="13.5983501"><ele>1024.3333333333333</ele><time>2026-05-03T07:53:09.309Z</time></trkpt><trkpt lat="42.3294312" lon="13.5984467"><ele>1024.6666666666665</ele><time>2026-05-03T07:53:10.304Z</time></trkpt><trkpt lat="42.3293689" lon="13.5985443"><ele>1025.0</ele><time>2026-05-03T07:53:11.306Z</time></trkpt><trkpt lat="42.3293157" lon="13.598612"><ele>1025.3333333333333</ele><time>2026-05-03T07:53:12.304Z</time></trkpt><trkpt lat="42.3292463" lon="13.5986689"><ele>1025.6666666666667</ele><time>2026-05-03T07:53:14.303Z</time></trkpt><trkpt lat="42.3291797" lon="13.5986546"><ele>1026.0</ele><time>2026-05-03T07:53:16.31Z</time></trkpt><trkpt lat="42.3290824" lon="13.5986894"><ele>1026.0</ele><time>2026-05-03T07:53:18.316Z</time></trkpt><trkpt lat="42.3290125" lon="13.5987747"><ele>1026.0</ele><time>2026-05-03T07:53:20.316Z</time></trkpt><trkpt lat="42.3289656" lon="13.5988601"><ele>1026.0</ele><time>2026-05-03T07:53:22.319Z</time></trkpt><trkpt lat="42.3289235" lon="13.5989282"><ele>1026.0</ele><time>2026-05-03T07:53:24.314Z</time></trkpt><trkpt lat="42.3288748" lon="13.5989957"><ele>1026.0</ele><time>2026-05-03T07:53:33.304Z</time></trkpt><trkpt lat="42.3288038" lon="13.5990998"><ele>1026.0</ele><time>2026-05-03T07:53:35.302Z</time></trkpt><trkpt lat="42.3287506" lon="13.5991773"><ele>1025.2857142857144</ele><time>2026-05-03T07:53:36.312Z</time></trkpt><trkpt lat="42.3286954" lon="13.5992657"><ele>1024.5714285714287</ele><time>2026-05-03T07:53:37.313Z</time></trkpt><trkpt lat="42.3286559" lon="13.5993418"><ele>1023.8571428571429</ele><time>2026-05-03T07:53:38.313Z</time></trkpt><trkpt lat="42.328617" lon="13.5994195"><ele>1023.1428571428572</ele><time>2026-05-03T07:53:39.314Z</time></trkpt><trkpt lat="42.3285741" lon="13.5994964"><ele>1022.4285714285716</ele><time>2026-05-03T07:53:40.315Z</time></trkpt><trkpt lat="42.3285267" lon="13.599558"><ele>1021.7142857142857</ele><time>2026-05-03T07:53:41.31Z</time></trkpt><trkpt lat="42.3284628" lon="13.5996249"><ele>1021.0</ele><time>2026-05-03T07:53:42.31Z</time></trkpt><trkpt lat="42.3283894" lon="13.5996967"><ele>1020.9999999999999</ele><time>2026-05-03T07:53:43.313Z</time></trkpt><trkpt lat="42.3283232" lon="13.599769"><ele>1021.0</ele><time>2026-05-03T07:53:44.328Z</time></trkpt><trkpt lat="42.3282605" lon="13.5998286"><ele>1021.0</ele><time>2026-05-03T07:53:45.306Z</time></trkpt><trkpt lat="42.3281967" lon="13.5998925"><ele>1021.0</ele><time>2026-05-03T07:53:46.306Z</time></trkpt><trkpt lat="42.3281438" lon="13.5999653"><ele>1020.9999999999999</ele><time>2026-05-03T07:53:47.313Z</time></trkpt><trkpt lat="42.3280946" lon="13.6000407"><ele>1021.0</ele><time>2026-05-03T07:53:48.311Z</time></trkpt><trkpt lat="42.32806" lon="13.6001159"><ele>1020.5999999999999</ele><time>2026-05-03T07:53:49.309Z</time></trkpt><trkpt lat="42.3280296" lon="13.6002168"><ele>1020.1999999999999</ele><time>2026-05-03T07:53:50.315Z</time></trkpt><trkpt lat="42.3279839" lon="13.6003195"><ele>1019.8000000000001</ele><time>2026-05-03T07:53:51.31Z</time></trkpt><trkpt lat="42.3279208" lon="13.6004026"><ele>1019.4000000000001</ele><time>2026-05-03T07:53:52.313Z</time></trkpt><trkpt lat="42.3278431" lon="13.600484"><ele>1019.0</ele><time>2026-05-03T07:53:53.311Z</time></trkpt><trkpt lat="42.3277648" lon="13.6005698"><ele>1018.8000000000001</ele><time>2026-05-03T07:53:54.314Z</time></trkpt><trkpt lat="42.3276933" lon="13.6006571"><ele>1018.6000000000001</ele><time>2026-05-03T07:53:55.314Z</time></trkpt><trkpt lat="42.3276315" lon="13.6007491"><ele>1018.4</ele><time>2026-05-03T07:53:56.309Z</time></trkpt><trkpt lat="42.3275697" lon="13.6008573"><ele>1018.2</ele><time>2026-05-03T07:53:57.308Z</time></trkpt><trkpt lat="42.327513" lon="13.6009747"><ele>1018.0</ele><time>2026-05-03T07:53:58.309Z</time></trkpt><trkpt lat="42.3274767" lon="13.601091"><ele>1017.8</ele><time>2026-05-03T07:53:59.316Z</time></trkpt><trkpt lat="42.3274181" lon="13.601202"><ele>1017.5999999999999</ele><time>2026-05-03T07:54:00.315Z</time></trkpt><trkpt lat="42.3273687" lon="13.6012919"><ele>1017.4000000000001</ele><time>2026-05-03T07:54:01.319Z</time></trkpt><trkpt lat="42.3273186" lon="13.6013871"><ele>1017.2</ele><time>2026-05-03T07:54:02.314Z</time></trkpt><trkpt lat="42.3272655" lon="13.6014873"><ele>1017.0</ele><time>2026-05-03T07:54:03.312Z</time></trkpt><trkpt lat="42.3272216" lon="13.6015922"><ele>1017.0</ele><time>2026-05-03T07:54:04.315Z</time></trkpt><trkpt lat="42.3271861" lon="13.601698"><ele>1017.0</ele><time>2026-05-03T07:54:05.313Z</time></trkpt><trkpt lat="42.32714" lon="13.6017903"><ele>1017.0</ele><time>2026-05-03T07:54:06.314Z</time></trkpt><trkpt lat="42.3270844" lon="13.6018796"><ele>1017.0</ele><time>2026-05-03T07:54:07.311Z</time></trkpt><trkpt lat="42.3270289" lon="13.6019834"><ele>1017.0</ele><time>2026-05-03T07:54:08.31Z</time></trkpt><trkpt lat="42.3269969" lon="13.602091"><ele>1017.0</ele><time>2026-05-03T07:54:09.313Z</time></trkpt><trkpt lat="42.3269626" lon="13.6022005"><ele>1016.2</ele><time>2026-05-03T07:54:10.313Z</time></trkpt><trkpt lat="42.3269273" lon="13.6023125"><ele>1015.4000000000001</ele><time>2026-05-03T07:54:11.312Z</time></trkpt><trkpt lat="42.3269014" lon="13.6024237"><ele>1014.5999999999999</ele><time>2026-05-03T07:54:12.313Z</time></trkpt><trkpt lat="42.3268844" lon="13.6025375"><ele>1013.8</ele><time>2026-05-03T07:54:13.314Z</time></trkpt><trkpt lat="42.3268564" lon="13.6026602"><ele>1013.0</ele><time>2026-05-03T07:54:14.309Z</time></trkpt><trkpt lat="42.3268205" lon="13.602781"><ele>1013.6666666666667</ele><time>2026-05-03T07:54:15.319Z</time></trkpt><trkpt lat="42.32676" lon="13.6028838"><ele>1014.3333333333334</ele><time>2026-05-03T07:54:16.31Z</time></trkpt><trkpt lat="42.3267012" lon="13.6029725"><ele>1015.0</ele><time>2026-05-03T07:54:17.309Z</time></trkpt><trkpt lat="42.3266533" lon="13.6030715"><ele>1015.6666666666667</ele><time>2026-05-03T07:54:18.314Z</time></trkpt><trkpt lat="42.3266087" lon="13.6031712"><ele>1016.3333333333334</ele><time>2026-05-03T07:54:19.313Z</time></trkpt><trkpt lat="42.3265483" lon="13.6032572"><ele>1017.0</ele><time>2026-05-03T07:54:20.316Z</time></trkpt><trkpt lat="42.3264801" lon="13.6033504"><ele>1017.0</ele><time>2026-05-03T07:54:21.315Z</time></trkpt><trkpt lat="42.3264094" lon="13.6034431"><ele>1017.0</ele><time>2026-05-03T07:54:22.316Z</time></trkpt><trkpt lat="42.3263474" lon="13.6035284"><ele>1017.0</ele><time>2026-05-03T07:54:23.319Z</time></trkpt><trkpt lat="42.3262857" lon="13.603602"><ele>1017.0</ele><time>2026-05-03T07:54:24.318Z</time></trkpt><trkpt lat="42.3262196" lon="13.603672"><ele>1017.0</ele><time>2026-05-03T07:54:25.315Z</time></trkpt><trkpt lat="42.3261656" lon="13.603742"><ele>1017.0</ele><time>2026-05-03T07:54:26.308Z</time></trkpt><trkpt lat="42.3261049" lon="13.6038401"><ele>1016.2857142857142</ele><time>2026-05-03T07:54:27.317Z</time></trkpt><trkpt lat="42.3260422" lon="13.6039272"><ele>1015.5714285714284</ele><time>2026-05-03T07:54:28.313Z</time></trkpt><trkpt lat="42.3259929" lon="13.6039897"><ele>1014.8571428571429</ele><time>2026-05-03T07:54:29.315Z</time></trkpt><trkpt lat="42.3259465" lon="13.6040565"><ele>1014.1428571428571</ele><time>2026-05-03T07:54:30.318Z</time></trkpt><trkpt lat="42.3259101" lon="13.6041288"><ele>1013.4285714285714</ele><time>2026-05-03T07:54:31.32Z</time></trkpt><trkpt lat="42.3258709" lon="13.6042084"><ele>1012.7142857142858</ele><time>2026-05-03T07:54:32.314Z</time></trkpt><trkpt lat="42.3258368" lon="13.6043044"><ele>1012.0000000000001</ele><time>2026-05-03T07:54:33.318Z</time></trkpt><trkpt lat="42.3257947" lon="13.60441"><ele>1011.9999999999999</ele><time>2026-05-03T07:54:34.321Z</time></trkpt><trkpt lat="42.3257374" lon="13.6044929"><ele>1012.0</ele><time>2026-05-03T07:54:35.318Z</time></trkpt><trkpt lat="42.3256721" lon="13.6045617"><ele>1012.0</ele><time>2026-05-03T07:54:36.314Z</time></trkpt><trkpt lat="42.3256062" lon="13.6046215"><ele>1012.0</ele><time>2026-05-03T07:54:37.317Z</time></trkpt><trkpt lat="42.3255478" lon="13.604711"><ele>1011.9999999999999</ele><time>2026-05-03T07:54:38.325Z</time></trkpt><trkpt lat="42.3255069" lon="13.6048039"><ele>1012.0</ele><time>2026-05-03T07:54:39.322Z</time></trkpt><trkpt lat="42.3254724" lon="13.6049008"><ele>1011.8333333333333</ele><time>2026-05-03T07:54:40.324Z</time></trkpt><trkpt lat="42.3254342" lon="13.6049935"><ele>1011.6666666666666</ele><time>2026-05-03T07:54:41.323Z</time></trkpt><trkpt lat="42.3253922" lon="13.6050743"><ele>1011.5</ele><time>2026-05-03T07:54:42.32Z</time></trkpt><trkpt lat="42.3253329" lon="13.6051605"><ele>1011.3333333333333</ele><time>2026-05-03T07:54:43.323Z</time></trkpt><trkpt lat="42.3252693" lon="13.6052495"><ele>1011.1666666666666</ele><time>2026-05-03T07:54:44.325Z</time></trkpt><trkpt lat="42.3252194" lon="13.6053484"><ele>1011.0</ele><time>2026-05-03T07:54:45.335Z</time></trkpt><trkpt lat="42.3251785" lon="13.6054472"><ele>1010.0</ele><time>2026-05-03T07:54:46.343Z</time></trkpt><trkpt lat="42.3251411" lon="13.6055598"><ele>1009.0</ele><time>2026-05-03T07:54:47.337Z</time></trkpt><trkpt lat="42.3251045" lon="13.6056728"><ele>1008.0</ele><time>2026-05-03T07:54:48.331Z</time></trkpt><trkpt lat="42.3250729" lon="13.605788"><ele>1007.0</ele><time>2026-05-03T07:54:49.33Z</time></trkpt><trkpt lat="42.3250452" lon="13.6058924"><ele>1006.0</ele><time>2026-05-03T07:54:50.344Z</time></trkpt><trkpt lat="42.325022" lon="13.6059944"><ele>1005.0</ele><time>2026-05-03T07:54:51.333Z</time></trkpt><trkpt lat="42.3250121" lon="13.6060955"><ele>1005.0</ele><time>2026-05-03T07:54:52.336Z</time></trkpt><trkpt lat="42.3250175" lon="13.606184"><ele>1005.0</ele><time>2026-05-03T07:54:53.328Z</time></trkpt><trkpt lat="42.3250097" lon="13.6062938"><ele>1005.0</ele><time>2026-05-03T07:54:55.326Z</time></trkpt><trkpt lat="42.3249188" lon="13.6063852"><ele>1005.0</ele><time>2026-05-03T07:54:57.32Z</time></trkpt><trkpt lat="42.324858" lon="13.6064418"><ele>1005.0</ele><time>2026-05-03T07:54:58.335Z</time></trkpt><trkpt lat="42.3247818" lon="13.6065047"><ele>1005.0</ele><time>2026-05-03T07:54:59.326Z</time></trkpt><trkpt lat="42.3247302" lon="13.6065691"><ele>1004.3333333333334</ele><time>2026-05-03T07:55:00.326Z</time></trkpt><trkpt lat="42.3246543" lon="13.6066931"><ele>1003.6666666666667</ele><time>2026-05-03T07:55:02.328Z</time></trkpt><trkpt lat="42.3246042" lon="13.6067762"><ele>1003.0</ele><time>2026-05-03T07:55:03.323Z</time></trkpt><trkpt lat="42.3245422" lon="13.606819"><ele>1002.3333333333334</ele><time>2026-05-03T07:55:04.321Z</time></trkpt><trkpt lat="42.3244791" lon="13.606846"><ele>1001.6666666666667</ele><time>2026-05-03T07:55:05.332Z</time></trkpt><trkpt lat="42.3244089" lon="13.6068818"><ele>1001.0</ele><time>2026-05-03T07:55:06.324Z</time></trkpt><trkpt lat="42.3243527" lon="13.6069415"><ele>1001.0000000000001</ele><time>2026-05-03T07:55:07.323Z</time></trkpt><trkpt lat="42.3242914" lon="13.6069754"><ele>1001.0</ele><time>2026-05-03T07:55:08.334Z</time></trkpt><trkpt lat="42.3242086" lon="13.6070383"><ele>1001.0</ele><time>2026-05-03T07:55:10.329Z</time></trkpt><trkpt lat="42.3241375" lon="13.6071645"><ele>1001.0</ele><time>2026-05-03T07:55:12.333Z</time></trkpt><trkpt lat="42.3240903" lon="13.6072282"><ele>1001.0000000000001</ele><time>2026-05-03T07:55:13.332Z</time></trkpt><trkpt lat="42.3240436" lon="13.6072907"><ele>1001.0</ele><time>2026-05-03T07:55:14.329Z</time></trkpt><trkpt lat="42.3239908" lon="13.6073649"><ele>999.0</ele><time>2026-05-03T07:55:15.332Z</time></trkpt><trkpt lat="42.323934" lon="13.6074331"><ele>996.9999999999999</ele><time>2026-05-03T07:55:16.32Z</time></trkpt><trkpt lat="42.3238915" lon="13.6075052"><ele>994.9999999999999</ele><time>2026-05-03T07:55:17.346Z</time></trkpt><trkpt lat="42.3238618" lon="13.6076477"><ele>993.0</ele><time>2026-05-03T07:55:19.32Z</time></trkpt><trkpt lat="42.3238623" lon="13.6078078"><ele>991.0</ele><time>2026-05-03T07:55:21.32Z</time></trkpt><trkpt lat="42.3238168" lon="13.607967"><ele>990.6666666666666</ele><time>2026-05-03T07:55:23.321Z</time></trkpt><trkpt lat="42.3237447" lon="13.6081097"><ele>990.3333333333333</ele><time>2026-05-03T07:55:25.322Z</time></trkpt><trkpt lat="42.3237113" lon="13.608199"><ele>990.0</ele><time>2026-05-03T07:55:26.332Z</time></trkpt><trkpt lat="42.3236697" lon="13.6082712"><ele>989.6666666666667</ele><time>2026-05-03T07:55:27.327Z</time></trkpt><trkpt lat="42.3236341" lon="13.6083465"><ele>989.3333333333334</ele><time>2026-05-03T07:55:28.323Z</time></trkpt><trkpt lat="42.323588" lon="13.608478"><ele>989.0</ele><time>2026-05-03T07:55:30.322Z</time></trkpt><trkpt lat="42.3235433" lon="13.6086402"><ele>992.0</ele><time>2026-05-03T07:55:32.329Z</time></trkpt><trkpt lat="42.3235132" lon="13.6087261"><ele>995.0</ele><time>2026-05-03T07:55:33.331Z</time></trkpt><trkpt lat="42.3234779" lon="13.6088215"><ele>998.0</ele><time>2026-05-03T07:55:34.327Z</time></trkpt><trkpt lat="42.3234314" lon="13.6089288"><ele>1001.0</ele><time>2026-05-03T07:55:35.328Z</time></trkpt><trkpt lat="42.3244791" lon="13.606846"><ele>1001.0000000000001</ele><time>2026-05-03T07:55:05.332Z</time></trkpt><trkpt lat="42.3244089" lon="13.6068818"><ele>1001.0</ele><time>2026-05-03T07:55:06.324Z</time></trkpt><trkpt lat="42.3243527" lon="13.6069415"><ele>1001.0</ele><time>2026-05-03T07:55:07.323Z</time></trkpt><trkpt lat="42.3242914" lon="13.6069754"><ele>1001.0</ele><time>2026-05-03T07:55:08.334Z</time></trkpt><trkpt lat="42.3242086" lon="13.6070383"><ele>1001.0000000000001</ele><time>2026-05-03T07:55:10.329Z</time></trkpt><trkpt lat="42.3241375" lon="13.6071645"><ele>1001.0</ele><time>2026-05-03T07:55:12.333Z</time></trkpt><trkpt lat="42.3240903" lon="13.6072282"><ele>999.3333333333334</ele><time>2026-05-03T07:55:13.332Z</time></trkpt><trkpt lat="42.3240436" lon="13.6072907"><ele>997.6666666666667</ele><time>2026-05-03T07:55:14.329Z</time></trkpt><trkpt lat="42.3239908" lon="13.6073649"><ele>996.0</ele><time>2026-05-03T07:55:15.332Z</time></trkpt><trkpt lat="42.323934" lon="13.6074331"><ele>994.3333333333333</ele><time>2026-05-03T07:55:16.32Z</time></trkpt><trkpt lat="42.3238915" lon="13.6075052"><ele>992.6666666666666</ele><time>2026-05-03T07:55:17.346Z</time></trkpt><trkpt lat="42.3238618" lon="13.6076477"><ele>991.0</ele><time>2026-05-03T07:55:19.32Z</time></trkpt><trkpt lat="42.3238623" lon="13.6078078"><ele>990.5999999999999</ele><time>2026-05-03T07:55:21.32Z</time></trkpt><trkpt lat="42.3238168" lon="13.607967"><ele>990.1999999999999</ele><time>2026-05-03T07:55:23.321Z</time></trkpt><trkpt lat="42.3237447" lon="13.6081097"><ele>989.8000000000001</ele><time>2026-05-03T07:55:25.322Z</time></trkpt><trkpt lat="42.3237113" lon="13.608199"><ele>989.4000000000001</ele><time>2026-05-03T07:55:26.332Z</time></trkpt><trkpt lat="42.3236697" lon="13.6082712"><ele>989.0</ele><time>2026-05-03T07:55:27.327Z</time></trkpt><trkpt lat="42.3236341" lon="13.6083465"><ele>989.0</ele><time>2026-05-03T07:55:28.323Z</time></trkpt><trkpt lat="42.323588" lon="13.608478"><ele>989.0000000000001</ele><time>2026-05-03T07:55:30.322Z</time></trkpt><trkpt lat="42.3235433" lon="13.6086402"><ele>989.0000000000001</ele><time>2026-05-03T07:55:32.329Z</time></trkpt><trkpt lat="42.3235132" lon="13.6087261"><ele>989.0</ele><time>2026-05-03T07:55:33.331Z</time></trkpt><trkpt lat="42.3234779" lon="13.6088215"><ele>989.0</ele><time>2026-05-03T07:55:34.327Z</time></trkpt><trkpt lat="42.3234314" lon="13.6089288"><ele>986.4000000000001</ele><time>2026-05-03T07:55:35.328Z</time></trkpt><trkpt lat="42.3233698" lon="13.6090337"><ele>983.8000000000001</ele><time>2026-05-03T07:55:36.327Z</time></trkpt><trkpt lat="42.3233029" lon="13.6091221"><ele>981.1999999999999</ele><time>2026-05-03T07:55:37.323Z</time></trkpt><trkpt lat="42.3232367" lon="13.6092177"><ele>978.5999999999999</ele><time>2026-05-03T07:55:38.32Z</time></trkpt><trkpt lat="42.3231884" lon="13.6093373"><ele>976.0</ele><time>2026-05-03T07:55:39.325Z</time></trkpt><trkpt lat="42.3231443" lon="13.6094441"><ele>975.9999999999999</ele><time>2026-05-03T07:55:40.329Z</time></trkpt><trkpt lat="42.3231087" lon="13.6095367"><ele>976.0</ele><time>2026-05-03T07:55:41.323Z</time></trkpt><trkpt lat="42.3230669" lon="13.6096239"><ele>976.0</ele><time>2026-05-03T07:55:42.323Z</time></trkpt><trkpt lat="42.3230194" lon="13.6097122"><ele>976.0</ele><time>2026-05-03T07:55:43.321Z</time></trkpt><trkpt lat="42.32296" lon="13.6098083"><ele>975.9999999999999</ele><time>2026-05-03T07:55:44.324Z</time></trkpt><trkpt lat="42.3229007" lon="13.6099083"><ele>976.0</ele><time>2026-05-03T07:55:45.323Z</time></trkpt><trkpt lat="42.3228471" lon="13.6100053"><ele>975.9999999999999</ele><time>2026-05-03T07:55:46.326Z</time></trkpt><trkpt lat="42.3227985" lon="13.6100886"><ele>976.0</ele><time>2026-05-03T07:55:47.33Z</time></trkpt><trkpt lat="42.3227456" lon="13.6101765"><ele>976.0</ele><time>2026-05-03T07:55:48.342Z</time></trkpt><trkpt lat="42.3227" lon="13.6102521"><ele>976.0</ele><time>2026-05-03T07:55:49.331Z</time></trkpt><trkpt lat="42.3226484" lon="13.610339"><ele>975.9999999999999</ele><time>2026-05-03T07:55:50.335Z</time></trkpt><trkpt lat="42.3226119" lon="13.6104349"><ele>976.0</ele><time>2026-05-03T07:55:51.328Z</time></trkpt><trkpt lat="42.322585" lon="13.6105247"><ele>974.1666666666666</ele><time>2026-05-03T07:55:52.329Z</time></trkpt><trkpt lat="42.322547" lon="13.6106125"><ele>972.3333333333333</ele><time>2026-05-03T07:55:53.327Z</time></trkpt><trkpt lat="42.3224937" lon="13.6106945"><ele>970.5</ele><time>2026-05-03T07:55:54.329Z</time></trkpt><trkpt lat="42.3224293" lon="13.6107741"><ele>968.6666666666667</ele><time>2026-05-03T07:55:55.327Z</time></trkpt><trkpt lat="42.322371" lon="13.6108523"><ele>966.8333333333334</ele><time>2026-05-03T07:55:56.329Z</time></trkpt><trkpt lat="42.3223072" lon="13.6109299"><ele>965.0</ele><time>2026-05-03T07:55:57.331Z</time></trkpt><trkpt lat="42.3222492" lon="13.6109998"><ele>965.5000000000001</ele><time>2026-05-03T07:55:58.327Z</time></trkpt><trkpt lat="42.3221928" lon="13.611066"><ele>966.0</ele><time>2026-05-03T07:55:59.333Z</time></trkpt><trkpt lat="42.3221438" lon="13.6111313"><ele>966.5</ele><time>2026-05-03T07:56:00.331Z</time></trkpt><trkpt lat="42.3221041" lon="13.6112045"><ele>967.0</ele><time>2026-05-03T07:56:01.332Z</time></trkpt><trkpt lat="42.3220604" lon="13.6112669"><ele>967.5000000000001</ele><time>2026-05-03T07:56:02.332Z</time></trkpt><trkpt lat="42.3219469" lon="13.611319"><ele>968.0</ele><time>2026-05-03T07:56:04.334Z</time></trkpt><trkpt lat="42.3218644" lon="13.6114294"><ele>966.0000000000001</ele><time>2026-05-03T07:56:06.318Z</time></trkpt><trkpt lat="42.3218275" lon="13.6115124"><ele>964.0</ele><time>2026-05-03T07:56:07.33Z</time></trkpt><trkpt lat="42.3217803" lon="13.6116032"><ele>962.0</ele><time>2026-05-03T07:56:08.324Z</time></trkpt><trkpt lat="42.3217283" lon="13.6116707"><ele>960.0</ele><time>2026-05-03T07:56:09.33Z</time></trkpt><trkpt lat="42.3216821" lon="13.6117439"><ele>958.0000000000001</ele><time>2026-05-03T07:56:10.336Z</time></trkpt><trkpt lat="42.3216476" lon="13.6118268"><ele>956.0</ele><time>2026-05-03T07:56:11.331Z</time></trkpt><trkpt lat="42.3216212" lon="13.6119325"><ele>955.1666666666667</ele><time>2026-05-03T07:56:12.331Z</time></trkpt><trkpt lat="42.3215942" lon="13.6120623"><ele>954.3333333333334</ele><time>2026-05-03T07:56:13.329Z</time></trkpt><trkpt lat="42.3215655" lon="13.6122038"><ele>953.5</ele><time>2026-05-03T07:56:14.333Z</time></trkpt><trkpt lat="42.3215316" lon="13.6123184"><ele>952.6666666666667</ele><time>2026-05-03T07:56:15.325Z</time></trkpt><trkpt lat="42.321492" lon="13.6124044"><ele>951.8333333333334</ele><time>2026-05-03T07:56:16.326Z</time></trkpt><trkpt lat="42.3214449" lon="13.612468"><ele>951.0</ele><time>2026-05-03T07:56:17.336Z</time></trkpt><trkpt lat="42.3213987" lon="13.6125277"><ele>950.1666666666666</ele><time>2026-05-03T07:56:18.334Z</time></trkpt><trkpt lat="42.3213521" lon="13.6125942"><ele>949.3333333333333</ele><time>2026-05-03T07:56:19.342Z</time></trkpt><trkpt lat="42.3213011" lon="13.6126667"><ele>948.5</ele><time>2026-05-03T07:56:20.322Z</time></trkpt><trkpt lat="42.3212419" lon="13.6127732"><ele>947.6666666666666</ele><time>2026-05-03T07:56:21.312Z</time></trkpt><trkpt lat="42.3211872" lon="13.6128889"><ele>946.8333333333333</ele><time>2026-05-03T07:56:22.325Z</time></trkpt><trkpt lat="42.321126" lon="13.6129828"><ele>946.0</ele><time>2026-05-03T07:56:23.324Z</time></trkpt><trkpt lat="42.3210517" lon="13.6130785"><ele>946.0</ele><time>2026-05-03T07:56:24.33Z</time></trkpt><trkpt lat="42.3209725" lon="13.6131822"><ele>945.9999999999999</ele><time>2026-05-03T07:56:25.329Z</time></trkpt><trkpt lat="42.3209106" lon="13.6132732"><ele>945.9999999999999</ele><time>2026-05-03T07:56:26.323Z</time></trkpt><trkpt lat="42.320845" lon="13.6133525"><ele>946.0</ele><time>2026-05-03T07:56:27.322Z</time></trkpt><trkpt lat="42.3207885" lon="13.613407"><ele>946.0</ele><time>2026-05-03T07:56:28.321Z</time></trkpt><trkpt lat="42.3206851" lon="13.6134485"><ele>945.9999999999999</ele><time>2026-05-03T07:56:30.332Z</time></trkpt><trkpt lat="42.3206314" lon="13.6133967"><ele>946.0</ele><time>2026-05-03T07:56:31.325Z</time></trkpt><trkpt lat="42.3205825" lon="13.6133373"><ele>946.0</ele><time>2026-05-03T07:56:32.321Z</time></trkpt><trkpt lat="42.3205307" lon="13.6132574"><ele>946.0</ele><time>2026-05-03T07:56:33.316Z</time></trkpt><trkpt lat="42.3204806" lon="13.6131357"><ele>945.9999999999999</ele><time>2026-05-03T07:56:35.326Z</time></trkpt><trkpt lat="42.3204328" lon="13.6132913"><ele>946.0</ele><time>2026-05-03T07:56:38.324Z</time></trkpt><trkpt lat="42.3204182" lon="13.613387"><ele>946.5999999999999</ele><time>2026-05-03T07:56:39.319Z</time></trkpt><trkpt lat="42.3203371" lon="13.6135125"><ele>947.1999999999999</ele><time>2026-05-03T07:56:41.331Z</time></trkpt><trkpt lat="42.3202981" lon="13.6135867"><ele>947.8000000000001</ele><time>2026-05-03T07:56:42.322Z</time></trkpt><trkpt lat="42.3202572" lon="13.613674"><ele>948.4000000000001</ele><time>2026-05-03T07:56:43.327Z</time></trkpt><trkpt lat="42.3202332" lon="13.6137579"><ele>949.0</ele><time>2026-05-03T07:56:44.332Z</time></trkpt><trkpt lat="42.3202004" lon="13.6139195"><ele>948.9999999999999</ele><time>2026-05-03T07:56:46.327Z</time></trkpt><trkpt lat="42.3201914" lon="13.6140254"><ele>949.0</ele><time>2026-05-03T07:56:47.331Z</time></trkpt><trkpt lat="42.3201764" lon="13.6141295"><ele>949.0</ele><time>2026-05-03T07:56:48.325Z</time></trkpt><trkpt lat="42.320143" lon="13.6142216"><ele>949.0</ele><time>2026-05-03T07:56:49.333Z</time></trkpt><trkpt lat="42.3201123" lon="13.6143022"><ele>948.9999999999999</ele><time>2026-05-03T07:56:50.352Z</time></trkpt><trkpt lat="42.3200634" lon="13.6143686"><ele>949.0</ele><time>2026-05-03T07:56:51.332Z</time></trkpt><trkpt lat="42.3199749" lon="13.6144468"><ele>948.6666666666666</ele><time>2026-05-03T07:56:53.333Z</time></trkpt><trkpt lat="42.319897" lon="13.6145637"><ele>948.3333333333333</ele><time>2026-05-03T07:56:55.328Z</time></trkpt><trkpt lat="42.3198568" lon="13.6146307"><ele>948.0</ele><time>2026-05-03T07:56:56.326Z</time></trkpt><trkpt lat="42.319815" lon="13.6146973"><ele>947.6666666666667</ele><time>2026-05-03T07:56:57.325Z</time></trkpt><trkpt lat="42.3197723" lon="13.6147778"><ele>947.3333333333334</ele><time>2026-05-03T07:56:58.33Z</time></trkpt><trkpt lat="42.3197359" lon="13.6148802"><ele>947.0</ele><time>2026-05-03T07:56:59.324Z</time></trkpt><trkpt lat="42.3196921" lon="13.6149671"><ele>948.3333333333334</ele><time>2026-05-03T07:57:00.331Z</time></trkpt><trkpt lat="42.3196423" lon="13.6150605"><ele>949.6666666666667</ele><time>2026-05-03T07:57:01.33Z</time></trkpt><trkpt lat="42.3195955" lon="13.6151588"><ele>951.0</ele><time>2026-05-03T07:57:02.322Z</time></trkpt><trkpt lat="42.3195666" lon="13.6152533"><ele>952.3333333333333</ele><time>2026-05-03T07:57:03.32Z</time></trkpt><trkpt lat="42.3195322" lon="13.6153376"><ele>953.6666666666666</ele><time>2026-05-03T07:57:04.325Z</time></trkpt><trkpt lat="42.3194847" lon="13.6154052"><ele>955.0</ele><time>2026-05-03T07:57:05.329Z</time></trkpt><trkpt lat="42.3194305" lon="13.6154742"><ele>955.0</ele><time>2026-05-03T07:57:06.327Z</time></trkpt><trkpt lat="42.3193723" lon="13.6155514"><ele>955.0</ele><time>2026-05-03T07:57:07.323Z</time></trkpt><trkpt lat="42.3193107" lon="13.6156193"><ele>955.0</ele><time>2026-05-03T07:57:08.328Z</time></trkpt><trkpt lat="42.3192297" lon="13.6157299"><ele>955.0</ele><time>2026-05-03T07:57:10.331Z</time></trkpt><trkpt lat="42.3191706" lon="13.6158403"><ele>955.0</ele><time>2026-05-03T07:57:12.327Z</time></trkpt><trkpt lat="42.3191691" lon="13.6159876"><ele>954.9999999999999</ele><time>2026-05-03T07:57:14.321Z</time></trkpt><trkpt lat="42.3191288" lon="13.6161172"><ele>955.0</ele><time>2026-05-03T07:57:16.327Z</time></trkpt><trkpt lat="42.3190476" lon="13.6162462"><ele>955.0</ele><time>2026-05-03T07:57:18.331Z</time></trkpt><trkpt lat="42.3190252" lon="13.6163274"><ele>955.0</ele><time>2026-05-03T07:57:19.325Z</time></trkpt><trkpt lat="42.3190033" lon="13.6164097"><ele>954.9999999999999</ele><time>2026-05-03T07:57:20.338Z</time></trkpt><trkpt lat="42.3189558" lon="13.6164835"><ele>955.0</ele><time>2026-05-03T07:57:21.358Z</time></trkpt><trkpt lat="42.3189102" lon="13.6165516"><ele>955.6666666666666</ele><time>2026-05-03T07:57:22.337Z</time></trkpt><trkpt lat="42.3188602" lon="13.6166121"><ele>956.3333333333333</ele><time>2026-05-03T07:57:23.332Z</time></trkpt><trkpt lat="42.3188064" lon="13.6166793"><ele>957.0</ele><time>2026-05-03T07:57:24.33Z</time></trkpt><trkpt lat="42.3187488" lon="13.616727"><ele>957.6666666666667</ele><time>2026-05-03T07:57:25.331Z</time></trkpt><trkpt lat="42.3186633" lon="13.616797"><ele>958.3333333333334</ele><time>2026-05-03T07:57:27.331Z</time></trkpt><trkpt lat="42.3185901" lon="13.6168932"><ele>959.0</ele><time>2026-05-03T07:57:29.325Z</time></trkpt><trkpt lat="42.3185427" lon="13.6170048"><ele>959.0</ele><time>2026-05-03T07:57:31.334Z</time></trkpt><trkpt lat="42.3184608" lon="13.6170909"><ele>959.0</ele><time>2026-05-03T07:57:33.324Z</time></trkpt><trkpt lat="42.3184022" lon="13.6171332"><ele>959.0</ele><time>2026-05-03T07:57:34.321Z</time></trkpt><trkpt lat="42.3183452" lon="13.6171725"><ele>959.0</ele><time>2026-05-03T07:57:35.33Z</time></trkpt><trkpt lat="42.3182848" lon="13.6172279"><ele>959.0</ele><time>2026-05-03T07:57:36.323Z</time></trkpt><trkpt lat="42.3182285" lon="13.6172846"><ele>959.0</ele><time>2026-05-03T07:57:37.318Z</time></trkpt><trkpt lat="42.3181739" lon="13.6173484"><ele>959.0</ele><time>2026-05-03T07:57:38.332Z</time></trkpt><trkpt lat="42.3181089" lon="13.617408"><ele>961.0000000000001</ele><time>2026-05-03T07:57:39.331Z</time></trkpt><trkpt lat="42.3180437" lon="13.6174592"><ele>963.0</ele><time>2026-05-03T07:57:40.329Z</time></trkpt><trkpt lat="42.3179643" lon="13.6175107"><ele>965.0</ele><time>2026-05-03T07:57:41.321Z</time></trkpt><trkpt lat="42.3178956" lon="13.6175694"><ele>967.0</ele><time>2026-05-03T07:57:42.335Z</time></trkpt><trkpt lat="42.3178281" lon="13.617641"><ele>969.0000000000001</ele><time>2026-05-03T07:57:43.329Z</time></trkpt><trkpt lat="42.3177616" lon="13.6177139"><ele>971.0</ele><time>2026-05-03T07:57:44.323Z</time></trkpt><trkpt lat="42.3176869" lon="13.617784"><ele>969.5000000000001</ele><time>2026-05-03T07:57:45.329Z</time></trkpt><trkpt lat="42.3176251" lon="13.6178532"><ele>968.0</ele><time>2026-05-03T07:57:46.327Z</time></trkpt><trkpt lat="42.3175631" lon="13.6179123"><ele>966.5</ele><time>2026-05-03T07:57:47.335Z</time></trkpt><trkpt lat="42.3175087" lon="13.6179772"><ele>965.0</ele><time>2026-05-03T07:57:48.326Z</time></trkpt><trkpt lat="42.3174522" lon="13.6180459"><ele>963.5000000000001</ele><time>2026-05-03T07:57:49.324Z</time></trkpt><trkpt lat="42.3173832" lon="13.6181103"><ele>962.0</ele><time>2026-05-03T07:57:50.338Z</time></trkpt><trkpt lat="42.3173287" lon="13.6181559"><ele>962.0000000000001</ele><time>2026-05-03T07:57:51.34Z</time></trkpt><trkpt lat="42.3172707" lon="13.618211"><ele>962.0</ele><time>2026-05-03T07:57:52.332Z</time></trkpt><trkpt lat="42.3172032" lon="13.6182814"><ele>962.0</ele><time>2026-05-03T07:57:53.335Z</time></trkpt><trkpt lat="42.3171364" lon="13.6183465"><ele>962.0</ele><time>2026-05-03T07:57:54.328Z</time></trkpt><trkpt lat="42.3170785" lon="13.6184106"><ele>962.0000000000001</ele><time>2026-05-03T07:57:55.326Z</time></trkpt><trkpt lat="42.3170116" lon="13.6184778"><ele>962.0</ele><time>2026-05-03T07:57:56.33Z</time></trkpt><trkpt lat="42.3169572" lon="13.6185437"><ele>963.4000000000001</ele><time>2026-05-03T07:57:57.327Z</time></trkpt><trkpt lat="42.3168998" lon="13.618611"><ele>964.8000000000001</ele><time>2026-05-03T07:57:58.326Z</time></trkpt><trkpt lat="42.3168354" lon="13.6186688"><ele>966.2</ele><time>2026-05-03T07:57:59.323Z</time></trkpt><trkpt lat="42.3167192" lon="13.6187102"><ele>967.6</ele><time>2026-05-03T07:58:01.331Z</time></trkpt><trkpt lat="42.316608" lon="13.6188072"><ele>969.0</ele><time>2026-05-03T07:58:03.332Z</time></trkpt><trkpt lat="42.3165454" lon="13.618865"><ele>969.0</ele><time>2026-05-03T07:58:04.331Z</time></trkpt><trkpt lat="42.316477" lon="13.6189159"><ele>969.0000000000001</ele><time>2026-05-03T07:58:05.326Z</time></trkpt><trkpt lat="42.3164159" lon="13.6189754"><ele>969.0000000000001</ele><time>2026-05-03T07:58:06.331Z</time></trkpt><trkpt lat="42.3163592" lon="13.6190377"><ele>969.0</ele><time>2026-05-03T07:58:07.33Z</time></trkpt><trkpt lat="42.3162845" lon="13.6191408"><ele>969.0</ele><time>2026-05-03T07:58:09.319Z</time></trkpt><trkpt lat="42.316248" lon="13.6192976"><ele>970.6666666666666</ele><time>2026-05-03T07:58:11.33Z</time></trkpt><trkpt lat="42.3162351" lon="13.6193904"><ele>972.3333333333333</ele><time>2026-05-03T07:58:12.325Z</time></trkpt><trkpt lat="42.3162194" lon="13.6194731"><ele>974.0</ele><time>2026-05-03T07:58:13.329Z</time></trkpt><trkpt lat="42.3162015" lon="13.6195655"><ele>975.6666666666666</ele><time>2026-05-03T07:58:14.327Z</time></trkpt><trkpt lat="42.3162099" lon="13.6196584"><ele>977.3333333333333</ele><time>2026-05-03T07:58:15.336Z</time></trkpt><trkpt lat="42.3161969" lon="13.6197833"><ele>979.0</ele><time>2026-05-03T07:58:17.331Z</time></trkpt><trkpt lat="42.316105" lon="13.6198417"><ele>979.0</ele><time>2026-05-03T07:58:19.325Z</time></trkpt><trkpt lat="42.3160231" lon="13.6198891"><ele>979.0000000000001</ele><time>2026-05-03T07:58:21.326Z</time></trkpt><trkpt lat="42.3159319" lon="13.6199943"><ele>979.0000000000001</ele><time>2026-05-03T07:58:23.324Z</time></trkpt><trkpt lat="42.3158816" lon="13.6200613"><ele>979.0</ele><time>2026-05-03T07:58:24.319Z</time></trkpt><trkpt lat="42.315814" lon="13.6201352"><ele>979.0</ele><time>2026-05-03T07:58:25.327Z</time></trkpt><trkpt lat="42.3157554" lon="13.620223"><ele>979.0</ele><time>2026-05-03T07:58:26.314Z</time></trkpt><trkpt lat="42.3157252" lon="13.6203061"><ele>979.0000000000001</ele><time>2026-05-03T07:58:27.325Z</time></trkpt><trkpt lat="42.3156567" lon="13.6204311"><ele>979.0000000000001</ele><time>2026-05-03T07:58:29.335Z</time></trkpt><trkpt lat="42.3155647" lon="13.620486"><ele>979.0</ele><time>2026-05-03T07:58:31.331Z</time></trkpt><trkpt lat="42.315481" lon="13.6204686"><ele>979.0</ele><time>2026-05-03T07:58:33.326Z</time></trkpt><trkpt lat="42.3153949" lon="13.6205498"><ele>979.2</ele><time>2026-05-03T07:58:35.329Z</time></trkpt><trkpt lat="42.3153139" lon="13.6206636"><ele>979.4000000000001</ele><time>2026-05-03T07:58:37.32Z</time></trkpt><trkpt lat="42.3152226" lon="13.6207878"><ele>979.6</ele><time>2026-05-03T07:58:39.332Z</time></trkpt><trkpt lat="42.3151624" lon="13.6208622"><ele>979.8</ele><time>2026-05-03T07:58:40.334Z</time></trkpt><trkpt lat="42.3150926" lon="13.6209295"><ele>980.0</ele><time>2026-05-03T07:58:41.324Z</time></trkpt><trkpt lat="42.3150057" lon="13.6210036"><ele>980.0</ele><time>2026-05-03T07:58:42.333Z</time></trkpt><trkpt lat="42.3149088" lon="13.621066"><ele>980.0</ele><time>2026-05-03T07:58:43.33Z</time></trkpt><trkpt lat="42.314817" lon="13.6211007"><ele>980.0</ele><time>2026-05-03T07:58:44.326Z</time></trkpt><trkpt lat="42.3147303" lon="13.6211242"><ele>980.0</ele><time>2026-05-03T07:58:45.334Z</time></trkpt><trkpt lat="42.3146502" lon="13.6211752"><ele>980.0</ele><time>2026-05-03T07:58:46.321Z</time></trkpt><trkpt lat="42.3145759" lon="13.6212386"><ele>980.1666666666667</ele><time>2026-05-03T07:58:47.325Z</time></trkpt><trkpt lat="42.3145054" lon="13.6213032"><ele>980.3333333333334</ele><time>2026-05-03T07:58:48.334Z</time></trkpt><trkpt lat="42.3144475" lon="13.6213588"><ele>980.5</ele><time>2026-05-03T07:58:49.333Z</time></trkpt><trkpt lat="42.314377" lon="13.6214218"><ele>980.6666666666667</ele><time>2026-05-03T07:58:50.337Z</time></trkpt><trkpt lat="42.3143103" lon="13.6214692"><ele>980.8333333333334</ele><time>2026-05-03T07:58:51.331Z</time></trkpt><trkpt lat="42.314195" lon="13.6215487"><ele>981.0</ele><time>2026-05-03T07:58:53.347Z</time></trkpt><trkpt lat="42.3141234" lon="13.6216079"><ele>981.0</ele><time>2026-05-03T07:58:54.331Z</time></trkpt><trkpt lat="42.31406" lon="13.6216692"><ele>981.0</ele><time>2026-05-03T07:58:55.331Z</time></trkpt><trkpt lat="42.3140058" lon="13.6217279"><ele>981.0</ele><time>2026-05-03T07:58:56.334Z</time></trkpt><trkpt lat="42.313929" lon="13.6217996"><ele>981.0</ele><time>2026-05-03T07:58:58.335Z</time></trkpt><trkpt lat="42.3138512" lon="13.6217425"><ele>981.0</ele><time>2026-05-03T07:59:00.332Z</time></trkpt><trkpt lat="42.3137652" lon="13.6216927"><ele>981.0</ele><time>2026-05-03T07:59:02.325Z</time></trkpt><trkpt lat="42.3136642" lon="13.6217044"><ele>981.4</ele><time>2026-05-03T07:59:04.326Z</time></trkpt><trkpt lat="42.313598" lon="13.6217996"><ele>981.8</ele><time>2026-05-03T07:59:06.318Z</time></trkpt><trkpt lat="42.3135125" lon="13.6218865"><ele>982.1999999999999</ele><time>2026-05-03T07:59:08.326Z</time></trkpt><trkpt lat="42.3134074" lon="13.6219629"><ele>982.5999999999999</ele><time>2026-05-03T07:59:10.318Z</time></trkpt><trkpt lat="42.3133212" lon="13.6220605"><ele>983.0</ele><time>2026-05-03T07:59:12.32Z</time></trkpt><trkpt lat="42.3132432" lon="13.6221974"><ele>983.0000000000001</ele><time>2026-05-03T07:59:14.312Z</time></trkpt><trkpt lat="42.3131981" lon="13.6222665"><ele>983.0</ele><time>2026-05-03T07:59:15.313Z</time></trkpt><trkpt lat="42.3131553" lon="13.6223493"><ele>983.0</ele><time>2026-05-03T07:59:16.318Z</time></trkpt><trkpt lat="42.3131057" lon="13.62242"><ele>983.0</ele><time>2026-05-03T07:59:17.32Z</time></trkpt><trkpt lat="42.3130069" lon="13.6225184"><ele>983.0000000000001</ele><time>2026-05-03T07:59:19.315Z</time></trkpt><trkpt lat="42.3129612" lon="13.6225783"><ele>983.0</ele><time>2026-05-03T07:59:20.318Z</time></trkpt><trkpt lat="42.312912" lon="13.6226422"><ele>984.142857142857</ele><time>2026-05-03T07:59:21.317Z</time></trkpt><trkpt lat="42.3128549" lon="13.6227199"><ele>985.2857142857142</ele><time>2026-05-03T07:59:22.316Z</time></trkpt><trkpt lat="42.3128073" lon="13.6228044"><ele>986.4285714285714</ele><time>2026-05-03T07:59:23.317Z</time></trkpt><trkpt lat="42.3127638" lon="13.6228884"><ele>987.5714285714286</ele><time>2026-05-03T07:59:24.327Z</time></trkpt><trkpt lat="42.3127166" lon="13.6229573"><ele>988.7142857142858</ele><time>2026-05-03T07:59:25.307Z</time></trkpt><trkpt lat="42.312678" lon="13.6230372"><ele>989.857142857143</ele><time>2026-05-03T07:59:26.309Z</time></trkpt><trkpt lat="42.3126531" lon="13.6231155"><ele>991.0000000000001</ele><time>2026-05-03T07:59:27.305Z</time></trkpt><trkpt lat="42.3125987" lon="13.6232503"><ele>991.0</ele><time>2026-05-03T07:59:29.318Z</time></trkpt><trkpt lat="42.3125077" lon="13.6233451"><ele>990.9999999999999</ele><time>2026-05-03T07:59:31.317Z</time></trkpt><trkpt lat="42.312426" lon="13.6234275"><ele>990.9999999999999</ele><time>2026-05-03T07:59:33.317Z</time></trkpt><trkpt lat="42.3123736" lon="13.6235381"><ele>991.0</ele><time>2026-05-03T07:59:35.314Z</time></trkpt><trkpt lat="42.3122945" lon="13.6236646"><ele>991.0</ele><time>2026-05-03T07:59:37.319Z</time></trkpt><trkpt lat="42.312257" lon="13.6237343"><ele>993.8</ele><time>2026-05-03T07:59:38.315Z</time></trkpt><trkpt lat="42.3121902" lon="13.6238505"><ele>996.5999999999999</ele><time>2026-05-03T07:59:40.314Z</time></trkpt><trkpt lat="42.3121405" lon="13.6239935"><ele>999.4</ele><time>2026-05-03T07:59:42.316Z</time></trkpt><trkpt lat="42.3120717" lon="13.6241249"><ele>1002.2</ele><time>2026-05-03T07:59:44.309Z</time></trkpt><trkpt lat="42.3120312" lon="13.6241959"><ele>1005.0</ele><time>2026-05-03T07:59:45.31Z</time></trkpt><trkpt lat="42.3120069" lon="13.6242829"><ele>1005.0</ele><time>2026-05-03T07:59:46.307Z</time></trkpt><trkpt lat="42.3119725" lon="13.6243661"><ele>1005.0</ele><time>2026-05-03T07:59:47.318Z</time></trkpt><trkpt lat="42.3119234" lon="13.6244487"><ele>1005.0</ele><time>2026-05-03T07:59:48.306Z</time></trkpt><trkpt lat="42.3118804" lon="13.6245233"><ele>1005.0</ele><time>2026-05-03T07:59:49.31Z</time></trkpt><trkpt lat="42.3118469" lon="13.6246004"><ele>1005.0</ele><time>2026-05-03T07:59:50.321Z</time></trkpt><trkpt lat="42.3117856" lon="13.6247366"><ele>1005.0</ele><time>2026-05-03T07:59:52.314Z</time></trkpt><trkpt lat="42.3117323" lon="13.6248024"><ele>1003.1666666666666</ele><time>2026-05-03T07:59:53.313Z</time></trkpt><trkpt lat="42.3116685" lon="13.6248676"><ele>1001.3333333333333</ele><time>2026-05-03T07:59:54.308Z</time></trkpt><trkpt lat="42.3115993" lon="13.6249408"><ele>999.5</ele><time>2026-05-03T07:59:55.331Z</time></trkpt><trkpt lat="42.3115221" lon="13.6250213"><ele>997.6666666666666</ele><time>2026-05-03T07:59:56.318Z</time></trkpt><trkpt lat="42.3114614" lon="13.6251208"><ele>995.8333333333333</ele><time>2026-05-03T07:59:57.318Z</time></trkpt><trkpt lat="42.3114135" lon="13.6252086"><ele>994.0</ele><time>2026-05-03T07:59:58.315Z</time></trkpt><trkpt lat="42.3113735" lon="13.6252926"><ele>996.9999999999999</ele><time>2026-05-03T07:59:59.309Z</time></trkpt><trkpt lat="42.3113264" lon="13.6253877"><ele>1000.0</ele><time>2026-05-03T08:00:00.308Z</time></trkpt><trkpt lat="42.3112687" lon="13.6254871"><ele>1003.0</ele><time>2026-05-03T08:00:01.314Z</time></trkpt><trkpt lat="42.311219" lon="13.6255797"><ele>1006.0</ele><time>2026-05-03T08:00:02.309Z</time></trkpt><trkpt lat="42.3111796" lon="13.6256592"><ele>1008.9999999999999</ele><time>2026-05-03T08:00:03.312Z</time></trkpt><trkpt lat="42.311123" lon="13.6257303"><ele>1012.0</ele><time>2026-05-03T08:00:04.315Z</time></trkpt><trkpt lat="42.3110751" lon="13.6258027"><ele>1011.9999999999999</ele><time>2026-05-03T08:00:05.317Z</time></trkpt><trkpt lat="42.3110328" lon="13.6258813"><ele>1012.0</ele><time>2026-05-03T08:00:06.316Z</time></trkpt><trkpt lat="42.3109981" lon="13.6259524"><ele>1012.0</ele><time>2026-05-03T08:00:07.316Z</time></trkpt><trkpt lat="42.3109702" lon="13.62603"><ele>1012.0</ele><time>2026-05-03T08:00:08.309Z</time></trkpt><trkpt lat="42.3109098" lon="13.6261953"><ele>1011.9999999999999</ele><time>2026-05-03T08:00:10.312Z</time></trkpt><trkpt lat="42.310871" lon="13.6262887"><ele>1012.0</ele><time>2026-05-03T08:00:11.312Z</time></trkpt><trkpt lat="42.3108416" lon="13.6263836"><ele>1010.3333333333333</ele><time>2026-05-03T08:00:12.32Z</time></trkpt><trkpt lat="42.3108096" lon="13.6264713"><ele>1008.6666666666666</ele><time>2026-05-03T08:00:13.315Z</time></trkpt><trkpt lat="42.3107847" lon="13.6265512"><ele>1007.0</ele><time>2026-05-03T08:00:14.313Z</time></trkpt><trkpt lat="42.3107348" lon="13.626643"><ele>1005.3333333333333</ele><time>2026-05-03T08:00:15.314Z</time></trkpt><trkpt lat="42.310693" lon="13.6267333"><ele>1003.6666666666666</ele><time>2026-05-03T08:00:16.319Z</time></trkpt><trkpt lat="42.310643" lon="13.6268183"><ele>1002.0</ele><time>2026-05-03T08:00:17.316Z</time></trkpt><trkpt lat="42.3105831" lon="13.6268957"><ele>1002.7142857142858</ele><time>2026-05-03T08:00:18.319Z</time></trkpt><trkpt lat="42.3105288" lon="13.6269701"><ele>1003.4285714285713</ele><time>2026-05-03T08:00:19.311Z</time></trkpt><trkpt lat="42.3104832" lon="13.627051"><ele>1004.1428571428571</ele><time>2026-05-03T08:00:20.319Z</time></trkpt><trkpt lat="42.3104389" lon="13.6271288"><ele>1004.8571428571429</ele><time>2026-05-03T08:00:21.311Z</time></trkpt><trkpt lat="42.3103906" lon="13.6272117"><ele>1005.5714285714287</ele><time>2026-05-03T08:00:22.323Z</time></trkpt><trkpt lat="42.3103529" lon="13.6272881"><ele>1006.2857142857142</ele><time>2026-05-03T08:00:23.318Z</time></trkpt><trkpt lat="42.3103195" lon="13.6273725"><ele>1007.0</ele><time>2026-05-03T08:00:24.32Z</time></trkpt><trkpt lat="42.310294" lon="13.6274516"><ele>1007.0000000000001</ele><time>2026-05-03T08:00:25.318Z</time></trkpt><trkpt lat="42.3102583" lon="13.6275219"><ele>1007.0</ele><time>2026-05-03T08:00:26.333Z</time></trkpt><trkpt lat="42.3101933" lon="13.6276167"><ele>1007.0</ele><time>2026-05-03T08:00:28.328Z</time></trkpt><trkpt lat="42.3101002" lon="13.6277102"><ele>1007.0</ele><time>2026-05-03T08:00:30.318Z</time></trkpt><trkpt lat="42.3100534" lon="13.6277793"><ele>1007.0000000000001</ele><time>2026-05-03T08:00:31.312Z</time></trkpt><trkpt lat="42.3100274" lon="13.6278715"><ele>1007.0</ele><time>2026-05-03T08:00:32.317Z</time></trkpt><trkpt lat="42.3099969" lon="13.6279588"><ele>1005.8571428571429</ele><time>2026-05-03T08:00:33.307Z</time></trkpt><trkpt lat="42.309959" lon="13.6280342"><ele>1004.7142857142858</ele><time>2026-05-03T08:00:34.314Z</time></trkpt><trkpt lat="42.3099222" lon="13.6281173"><ele>1003.5714285714287</ele><time>2026-05-03T08:00:35.311Z</time></trkpt><trkpt lat="42.3098894" lon="13.6282047"><ele>1002.4285714285714</ele><time>2026-05-03T08:00:36.313Z</time></trkpt><trkpt lat="42.3098477" lon="13.6282848"><ele>1001.2857142857144</ele><time>2026-05-03T08:00:37.322Z</time></trkpt><trkpt lat="42.3098061" lon="13.6283604"><ele>1000.1428571428572</ele><time>2026-05-03T08:00:38.319Z</time></trkpt><trkpt lat="42.3097645" lon="13.6284311"><ele>999.0</ele><time>2026-05-03T08:00:39.315Z</time></trkpt><trkpt lat="42.3097247" lon="13.6285057"><ele>1001.0</ele><time>2026-05-03T08:00:40.318Z</time></trkpt><trkpt lat="42.3096896" lon="13.6285812"><ele>1003.0000000000001</ele><time>2026-05-03T08:00:41.319Z</time></trkpt><trkpt lat="42.3096482" lon="13.6286638"><ele>1005.0</ele><time>2026-05-03T08:00:42.317Z</time></trkpt><trkpt lat="42.3096062" lon="13.6287518"><ele>1007.0</ele><time>2026-05-03T08:00:43.315Z</time></trkpt><trkpt lat="42.3095577" lon="13.6288355"><ele>1009.0000000000001</ele><time>2026-05-03T08:00:44.309Z</time></trkpt><trkpt lat="42.3095228" lon="13.6289139"><ele>1011.0</ele><time>2026-05-03T08:00:45.312Z</time></trkpt><trkpt lat="42.3095005" lon="13.6290156"><ele>1013.0</ele><time>2026-05-03T08:00:46.314Z</time></trkpt><trkpt lat="42.3094863" lon="13.6291133"><ele>1013.0</ele><time>2026-05-03T08:00:47.307Z</time></trkpt><trkpt lat="42.3094363" lon="13.6292724"><ele>1013.0</ele><time>2026-05-03T08:00:49.313Z</time></trkpt><trkpt lat="42.3093665" lon="13.6293948"><ele>1013.0</ele><time>2026-05-03T08:00:51.317Z</time></trkpt><trkpt lat="42.309277" lon="13.6295081"><ele>1013.0</ele><time>2026-05-03T08:00:53.311Z</time></trkpt><trkpt lat="42.3092293" lon="13.629573"><ele>1013.0</ele><time>2026-05-03T08:00:54.312Z</time></trkpt><trkpt lat="42.3091734" lon="13.6296522"><ele>1012.5000000000001</ele><time>2026-05-03T08:00:55.313Z</time></trkpt><trkpt lat="42.3091232" lon="13.6297331"><ele>1012.0</ele><time>2026-05-03T08:00:56.319Z</time></trkpt><trkpt lat="42.3090737" lon="13.6298006"><ele>1011.5</ele><time>2026-05-03T08:00:57.327Z</time></trkpt><trkpt lat="42.3090295" lon="13.6298614"><ele>1011.0</ele><time>2026-05-03T08:00:58.323Z</time></trkpt><trkpt lat="42.3089882" lon="13.629938"><ele>1010.5000000000001</ele><time>2026-05-03T08:00:59.319Z</time></trkpt><trkpt lat="42.308948" lon="13.6300489"><ele>1010.0</ele><time>2026-05-03T08:01:00.314Z</time></trkpt><trkpt lat="42.3089039" lon="13.6302145"><ele>1009.8</ele><time>2026-05-03T08:01:01.325Z</time></trkpt><trkpt lat="42.3088721" lon="13.6303571"><ele>1009.6</ele><time>2026-05-03T08:01:02.326Z</time></trkpt><trkpt lat="42.3088449" lon="13.6304796"><ele>1009.4000000000001</ele><time>2026-05-03T08:01:03.324Z</time></trkpt><trkpt lat="42.3088237" lon="13.6305748"><ele>1009.2</ele><time>2026-05-03T08:01:04.326Z</time></trkpt><trkpt lat="42.3088161" lon="13.6306612"><ele>1009.0</ele><time>2026-05-03T08:01:05.322Z</time></trkpt><trkpt lat="42.308846" lon="13.6308301"><ele>1008.9999999999999</ele><time>2026-05-03T08:01:07.321Z</time></trkpt><trkpt lat="42.3088716" lon="13.6309376"><ele>1009.0</ele><time>2026-05-03T08:01:08.326Z</time></trkpt><trkpt lat="42.3088994" lon="13.6310328"><ele>1009.0</ele><time>2026-05-03T08:01:09.323Z</time></trkpt><trkpt lat="42.3089241" lon="13.6311133"><ele>1009.0</ele><time>2026-05-03T08:01:10.324Z</time></trkpt><trkpt lat="42.3089397" lon="13.6312567"><ele>1008.9999999999999</ele><time>2026-05-03T08:01:12.322Z</time></trkpt><trkpt lat="42.3089222" lon="13.6313435"><ele>1009.0</ele><time>2026-05-03T08:01:13.322Z</time></trkpt><trkpt lat="42.3088901" lon="13.6314261"><ele>1007.3333333333333</ele><time>2026-05-03T08:01:14.319Z</time></trkpt><trkpt lat="42.3088516" lon="13.6314955"><ele>1005.6666666666666</ele><time>2026-05-03T08:01:15.324Z</time></trkpt><trkpt lat="42.3088233" lon="13.631602"><ele>1004.0</ele><time>2026-05-03T08:01:16.31Z</time></trkpt><trkpt lat="42.3088071" lon="13.6317236"><ele>1002.3333333333333</ele><time>2026-05-03T08:01:17.328Z</time></trkpt><trkpt lat="42.3087839" lon="13.6318323"><ele>1000.6666666666666</ele><time>2026-05-03T08:01:18.33Z</time></trkpt><trkpt lat="42.3087519" lon="13.6319376"><ele>999.0</ele><time>2026-05-03T08:01:19.325Z</time></trkpt><trkpt lat="42.3087136" lon="13.6320442"><ele>998.6666666666666</ele><time>2026-05-03T08:01:20.336Z</time></trkpt><trkpt lat="42.3086732" lon="13.6321576"><ele>998.3333333333333</ele><time>2026-05-03T08:01:21.32Z</time></trkpt><trkpt lat="42.3086402" lon="13.6322577"><ele>998.0</ele><time>2026-05-03T08:01:22.308Z</time></trkpt><trkpt lat="42.3086" lon="13.6323412"><ele>997.6666666666666</ele><time>2026-05-03T08:01:23.326Z</time></trkpt><trkpt lat="42.3085605" lon="13.6324386"><ele>997.3333333333333</ele><time>2026-05-03T08:01:24.318Z</time></trkpt><trkpt lat="42.3085234" lon="13.6325377"><ele>997.0</ele><time>2026-05-03T08:01:25.305Z</time></trkpt><trkpt lat="42.3084706" lon="13.6326403"><ele>997.0</ele><time>2026-05-03T08:01:26.308Z</time></trkpt><trkpt lat="42.3084085" lon="13.6327519"><ele>997.0</ele><time>2026-05-03T08:01:27.313Z</time></trkpt><trkpt lat="42.3083509" lon="13.6328667"><ele>997.0</ele><time>2026-05-03T08:01:28.325Z</time></trkpt><trkpt lat="42.3082883" lon="13.6329952"><ele>997.0</ele><time>2026-05-03T08:01:29.318Z</time></trkpt><trkpt lat="42.3082265" lon="13.6331145"><ele>997.0</ele><time>2026-05-03T08:01:30.313Z</time></trkpt><trkpt lat="42.3081709" lon="13.6332109"><ele>997.4000000000001</ele><time>2026-05-03T08:01:31.307Z</time></trkpt><trkpt lat="42.3081143" lon="13.6333208"><ele>997.8000000000001</ele><time>2026-05-03T08:01:32.306Z</time></trkpt><trkpt lat="42.3080631" lon="13.6334229"><ele>998.2</ele><time>2026-05-03T08:01:33.306Z</time></trkpt><trkpt lat="42.3080223" lon="13.6335045"><ele>998.6</ele><time>2026-05-03T08:01:34.308Z</time></trkpt><trkpt lat="42.3079501" lon="13.6336604"><ele>999.0</ele><time>2026-05-03T08:01:36.31Z</time></trkpt><trkpt lat="42.3079203" lon="13.6337457"><ele>997.1666666666666</ele><time>2026-05-03T08:01:37.301Z</time></trkpt><trkpt lat="42.3078778" lon="13.633817"><ele>995.3333333333333</ele><time>2026-05-03T08:01:38.311Z</time></trkpt><trkpt lat="42.3078221" lon="13.6338731"><ele>993.5</ele><time>2026-05-03T08:01:39.31Z</time></trkpt><trkpt lat="42.3077472" lon="13.6339269"><ele>991.6666666666666</ele><time>2026-05-03T08:01:40.317Z</time></trkpt><trkpt lat="42.3076721" lon="13.6339692"><ele>989.8333333333333</ele><time>2026-05-03T08:01:41.305Z</time></trkpt><trkpt lat="42.3076021" lon="13.6340026"><ele>988.0</ele><time>2026-05-03T08:01:42.305Z</time></trkpt><trkpt lat="42.3075347" lon="13.6340471"><ele>988.0</ele><time>2026-05-03T08:01:43.312Z</time></trkpt><trkpt lat="42.3074758" lon="13.6341346"><ele>988.0</ele><time>2026-05-03T08:01:44.303Z</time></trkpt><trkpt lat="42.3074071" lon="13.6342507"><ele>988.0</ele><time>2026-05-03T08:01:45.312Z</time></trkpt><trkpt lat="42.3073269" lon="13.6343674"><ele>988.0</ele><time>2026-05-03T08:01:46.309Z</time></trkpt><trkpt lat="42.3072566" lon="13.6344848"><ele>988.0</ele><time>2026-05-03T08:01:47.312Z</time></trkpt><trkpt lat="42.3071815" lon="13.6346215"><ele>987.25</ele><time>2026-05-03T08:01:48.311Z</time></trkpt><trkpt lat="42.3071187" lon="13.6347544"><ele>986.5</ele><time>2026-05-03T08:01:49.301Z</time></trkpt><trkpt lat="42.3070537" lon="13.6349008"><ele>985.75</ele><time>2026-05-03T08:01:50.311Z</time></trkpt><trkpt lat="42.3069876" lon="13.6350322"><ele>985.0</ele><time>2026-05-03T08:01:51.317Z</time></trkpt><trkpt lat="42.3069355" lon="13.6351447"><ele>985.0</ele><time>2026-05-03T08:01:52.316Z</time></trkpt><trkpt lat="42.3068908" lon="13.6352675"><ele>985.0</ele><time>2026-05-03T08:01:53.319Z</time></trkpt><trkpt lat="42.3068505" lon="13.6353956"><ele>985.0</ele><time>2026-05-03T08:01:54.313Z</time></trkpt><trkpt lat="42.306792" lon="13.6355179"><ele>985.0</ele><time>2026-05-03T08:01:55.317Z</time></trkpt><trkpt lat="42.3067183" lon="13.6356401"><ele>985.0</ele><time>2026-05-03T08:01:56.325Z</time></trkpt><trkpt lat="42.3066494" lon="13.6357587"><ele>984.8</ele><time>2026-05-03T08:01:57.325Z</time></trkpt><trkpt lat="42.3065972" lon="13.6358579"><ele>984.6</ele><time>2026-05-03T08:01:58.329Z</time></trkpt><trkpt lat="42.3065465" lon="13.6359612"><ele>984.4000000000001</ele><time>2026-05-03T08:01:59.349Z</time></trkpt><trkpt lat="42.3064909" lon="13.6360789"><ele>984.2</ele><time>2026-05-03T08:02:00.322Z</time></trkpt><trkpt lat="42.3064334" lon="13.6361933"><ele>984.0</ele><time>2026-05-03T08:02:01.328Z</time></trkpt><trkpt lat="42.306377" lon="13.6363075"><ele>982.8000000000001</ele><time>2026-05-03T08:02:02.33Z</time></trkpt><trkpt lat="42.3063246" lon="13.6364079"><ele>981.6000000000001</ele><time>2026-05-03T08:02:03.324Z</time></trkpt><trkpt lat="42.3062729" lon="13.6365309"><ele>980.4</ele><time>2026-05-03T08:02:04.324Z</time></trkpt><trkpt lat="42.3062289" lon="13.6366564"><ele>979.2</ele><time>2026-05-03T08:02:05.319Z</time></trkpt><trkpt lat="42.3061991" lon="13.6367753"><ele>978.0</ele><time>2026-05-03T08:02:06.315Z</time></trkpt><trkpt lat="42.3061661" lon="13.6368934"><ele>977.1666666666666</ele><time>2026-05-03T08:02:07.317Z</time></trkpt><trkpt lat="42.3061333" lon="13.6369897"><ele>976.3333333333333</ele><time>2026-05-03T08:02:08.317Z</time></trkpt><trkpt lat="42.3060924" lon="13.6370997"><ele>975.5</ele><time>2026-05-03T08:02:09.317Z</time></trkpt><trkpt lat="42.306056" lon="13.6372031"><ele>974.6666666666666</ele><time>2026-05-03T08:02:10.32Z</time></trkpt><trkpt lat="42.3060256" lon="13.6373072"><ele>973.8333333333333</ele><time>2026-05-03T08:02:11.323Z</time></trkpt><trkpt lat="42.3060113" lon="13.6374229"><ele>973.0</ele><time>2026-05-03T08:02:12.324Z</time></trkpt><trkpt lat="42.3059789" lon="13.637541"><ele>972.9999999999999</ele><time>2026-05-03T08:02:13.311Z</time></trkpt><trkpt lat="42.3059421" lon="13.6376501"><ele>973.0</ele><time>2026-05-03T08:02:14.32Z</time></trkpt><trkpt lat="42.305902" lon="13.6377611"><ele>973.0</ele><time>2026-05-03T08:02:15.317Z</time></trkpt><trkpt lat="42.3058693" lon="13.6378569"><ele>973.0</ele><time>2026-05-03T08:02:16.317Z</time></trkpt><trkpt lat="42.3058368" lon="13.6379471"><ele>972.9999999999999</ele><time>2026-05-03T08:02:17.316Z</time></trkpt><trkpt lat="42.3058148" lon="13.6380396"><ele>973.0</ele><time>2026-05-03T08:02:18.314Z</time></trkpt><trkpt lat="42.3057969" lon="13.638147"><ele>972.3333333333333</ele><time>2026-05-03T08:02:19.309Z</time></trkpt><trkpt lat="42.3057926" lon="13.6382652"><ele>971.6666666666666</ele><time>2026-05-03T08:02:20.315Z</time></trkpt><trkpt lat="42.3057947" lon="13.6383789"><ele>971.0</ele><time>2026-05-03T08:02:21.309Z</time></trkpt><trkpt lat="42.3057832" lon="13.6384813"><ele>970.3333333333333</ele><time>2026-05-03T08:02:22.32Z</time></trkpt><trkpt lat="42.305741" lon="13.6385753"><ele>969.6666666666666</ele><time>2026-05-03T08:02:23.313Z</time></trkpt><trkpt lat="42.3056892" lon="13.6386728"><ele>969.0</ele><time>2026-05-03T08:02:24.316Z</time></trkpt><trkpt lat="42.3056643" lon="13.6387653"><ele>968.8333333333334</ele><time>2026-05-03T08:02:25.312Z</time></trkpt><trkpt lat="42.3056484" lon="13.6388666"><ele>968.6666666666667</ele><time>2026-05-03T08:02:26.314Z</time></trkpt><trkpt lat="42.3056186" lon="13.6390327"><ele>968.5</ele><time>2026-05-03T08:02:28.312Z</time></trkpt><trkpt lat="42.3056067" lon="13.6391205"><ele>968.3333333333334</ele><time>2026-05-03T08:02:29.323Z</time></trkpt><trkpt lat="42.3055798" lon="13.6392017"><ele>968.1666666666667</ele><time>2026-05-03T08:02:30.321Z</time></trkpt><trkpt lat="42.305538" lon="13.6392853"><ele>968.0</ele><time>2026-05-03T08:02:31.319Z</time></trkpt><trkpt lat="42.3054866" lon="13.6393579"><ele>968.0</ele><time>2026-05-03T08:02:32.313Z</time></trkpt><trkpt lat="42.3054396" lon="13.6394364"><ele>967.9999999999999</ele><time>2026-05-03T08:02:33.315Z</time></trkpt><trkpt lat="42.3053998" lon="13.639513"><ele>968.0</ele><time>2026-05-03T08:02:34.317Z</time></trkpt><trkpt lat="42.3053748" lon="13.6396087"><ele>968.0</ele><time>2026-05-03T08:02:35.307Z</time></trkpt><trkpt lat="42.3053472" lon="13.6397067"><ele>967.9999999999999</ele><time>2026-05-03T08:02:36.303Z</time></trkpt><trkpt lat="42.3053263" lon="13.6398062"><ele>968.0</ele><time>2026-05-03T08:02:37.309Z</time></trkpt><trkpt lat="42.3053072" lon="13.6399033"><ele>968.0</ele><time>2026-05-03T08:02:38.315Z</time></trkpt><trkpt lat="42.3052934" lon="13.6399933"><ele>965.6666666666667</ele><time>2026-05-03T08:02:39.32Z</time></trkpt><trkpt lat="42.3052747" lon="13.6400785"><ele>963.3333333333334</ele><time>2026-05-03T08:02:40.317Z</time></trkpt><trkpt lat="42.3052527" lon="13.6401664"><ele>961.0</ele><time>2026-05-03T08:02:41.324Z</time></trkpt><trkpt lat="42.3052388" lon="13.6402542"><ele>958.6666666666667</ele><time>2026-05-03T08:02:42.315Z</time></trkpt><trkpt lat="42.3052162" lon="13.6404099"><ele>956.3333333333334</ele><time>2026-05-03T08:02:44.318Z</time></trkpt><trkpt lat="42.3051667" lon="13.6405717"><ele>954.0</ele><time>2026-05-03T08:02:46.318Z</time></trkpt><trkpt lat="42.3051154" lon="13.6406492"><ele>952.0</ele><time>2026-05-03T08:02:47.323Z</time></trkpt><trkpt lat="42.3050652" lon="13.6407152"><ele>950.0</ele><time>2026-05-03T08:02:48.333Z</time></trkpt><trkpt lat="42.3050159" lon="13.6407747"><ele>948.0</ele><time>2026-05-03T08:02:49.321Z</time></trkpt><trkpt lat="42.3049767" lon="13.640842"><ele>946.0</ele><time>2026-05-03T08:02:50.324Z</time></trkpt><trkpt lat="42.3049496" lon="13.6409193"><ele>944.0</ele><time>2026-05-03T08:02:51.318Z</time></trkpt><trkpt lat="42.3049484" lon="13.6410813"><ele>942.0</ele><time>2026-05-03T08:02:53.32Z</time></trkpt><trkpt lat="42.3049657" lon="13.6412462"><ele>940.8333333333334</ele><time>2026-05-03T08:02:55.322Z</time></trkpt><trkpt lat="42.3049298" lon="13.641379"><ele>939.6666666666667</ele><time>2026-05-03T08:02:57.323Z</time></trkpt><trkpt lat="42.3048942" lon="13.6414532"><ele>938.5</ele><time>2026-05-03T08:02:58.327Z</time></trkpt><trkpt lat="42.3048668" lon="13.641536"><ele>937.3333333333334</ele><time>2026-05-03T08:02:59.324Z</time></trkpt><trkpt lat="42.3048481" lon="13.6416352"><ele>936.1666666666667</ele><time>2026-05-03T08:03:00.343Z</time></trkpt><trkpt lat="42.3048275" lon="13.641787"><ele>935.0</ele><time>2026-05-03T08:03:02.332Z</time></trkpt><trkpt lat="42.3048036" lon="13.6419195"><ele>934.8</ele><time>2026-05-03T08:03:04.326Z</time></trkpt><trkpt lat="42.3047651" lon="13.6420497"><ele>934.6</ele><time>2026-05-03T08:03:06.312Z</time></trkpt><trkpt lat="42.3046782" lon="13.6421311"><ele>934.4000000000001</ele><time>2026-05-03T08:03:08.327Z</time></trkpt><trkpt lat="42.3045834" lon="13.6422147"><ele>934.2</ele><time>2026-05-03T08:03:10.326Z</time></trkpt><trkpt lat="42.3045285" lon="13.6422769"><ele>934.0</ele><time>2026-05-03T08:03:11.306Z</time></trkpt><trkpt lat="42.3044632" lon="13.6423448"><ele>931.3333333333333</ele><time>2026-05-03T08:03:12.314Z</time></trkpt><trkpt lat="42.3044172" lon="13.642403"><ele>928.6666666666666</ele><time>2026-05-03T08:03:13.32Z</time></trkpt><trkpt lat="42.3043746" lon="13.6424805"><ele>926.0</ele><time>2026-05-03T08:03:14.312Z</time></trkpt><trkpt lat="42.3043288" lon="13.6425572"><ele>923.3333333333333</ele><time>2026-05-03T08:03:15.322Z</time></trkpt><trkpt lat="42.304287" lon="13.6426213"><ele>920.6666666666666</ele><time>2026-05-03T08:03:16.317Z</time></trkpt><trkpt lat="42.3041997" lon="13.6427392"><ele>918.0</ele><time>2026-05-03T08:03:18.319Z</time></trkpt><trkpt lat="42.3041493" lon="13.6427969"><ele>919.0</ele><time>2026-05-03T08:03:19.321Z</time></trkpt><trkpt lat="42.3040639" lon="13.6428615"><ele>920.0</ele><time>2026-05-03T08:03:21.33Z</time></trkpt><trkpt lat="42.3040042" lon="13.6429404"><ele>921.0</ele><time>2026-05-03T08:15:02.329Z</time></trkpt><trkpt lat="42.3039216" lon="13.6429564"><ele>922.0</ele><time>2026-05-03T08:15:04.329Z</time></trkpt><trkpt lat="42.3038402" lon="13.6429699"><ele>923.0</ele><time>2026-05-03T08:15:06.329Z</time></trkpt><trkpt lat="42.3037365" lon="13.6430187"><ele>919.8</ele><time>2026-05-03T08:15:08.329Z</time></trkpt><trkpt lat="42.3036745" lon="13.643042"><ele>916.5999999999999</ele><time>2026-05-03T08:15:09.333Z</time></trkpt><trkpt lat="42.3035651" lon="13.6430768"><ele>913.4000000000001</ele><time>2026-05-03T08:15:11.329Z</time></trkpt><trkpt lat="42.3034566" lon="13.6431018"><ele>910.2</ele><time>2026-05-03T08:15:13.329Z</time></trkpt><trkpt lat="42.3033504" lon="13.6431405"><ele>907.0</ele><time>2026-05-03T08:15:15.326Z</time></trkpt><trkpt lat="42.303252" lon="13.6431631"><ele>906.9999999999999</ele><time>2026-05-03T08:15:17.326Z</time></trkpt><trkpt lat="42.3031639" lon="13.6431986"><ele>907.0</ele><time>2026-05-03T08:15:19.332Z</time></trkpt><trkpt lat="42.3030866" lon="13.6431995"><ele>907.0</ele><time>2026-05-03T08:15:21.325Z</time></trkpt><trkpt lat="42.3030117" lon="13.6432283"><ele>907.0</ele><time>2026-05-03T08:15:23.336Z</time></trkpt><trkpt lat="42.3029466" lon="13.6432293"><ele>906.9999999999999</ele><time>2026-05-03T08:15:25.325Z</time></trkpt><trkpt lat="42.3028422" lon="13.6432286"><ele>907.0</ele><time>2026-05-03T08:15:28.33Z</time></trkpt><trkpt lat="42.302751" lon="13.6432303"><ele>903.8</ele><time>2026-05-03T08:15:30.327Z</time></trkpt><trkpt lat="42.3026326" lon="13.6432129"><ele>900.6</ele><time>2026-05-03T08:15:32.319Z</time></trkpt><trkpt lat="42.3025252" lon="13.6431742"><ele>897.3999999999999</ele><time>2026-05-03T08:15:34.325Z</time></trkpt><trkpt lat="42.3024665" lon="13.6431393"><ele>894.1999999999999</ele><time>2026-05-03T08:15:35.329Z</time></trkpt><trkpt lat="42.302361" lon="13.6431272"><ele>891.0</ele><time>2026-05-03T08:15:37.323Z</time></trkpt><trkpt lat="42.3022705" lon="13.6431534"><ele>889.0</ele><time>2026-05-03T08:15:39.331Z</time></trkpt><trkpt lat="42.3021908" lon="13.6432019"><ele>886.9999999999999</ele><time>2026-05-03T08:15:41.314Z</time></trkpt><trkpt lat="42.302104" lon="13.6432562"><ele>884.9999999999999</ele><time>2026-05-03T08:15:43.321Z</time></trkpt><trkpt lat="42.3019992" lon="13.6433152"><ele>883.0</ele><time>2026-05-03T08:15:45.323Z</time></trkpt><trkpt lat="42.3018863" lon="13.6433536"><ele>881.0</ele><time>2026-05-03T08:15:47.319Z</time></trkpt><trkpt lat="42.3017717" lon="13.6433591"><ele>881.0</ele><time>2026-05-03T08:15:49.326Z</time></trkpt><trkpt lat="42.3017061" lon="13.6433617"><ele>881.0</ele><time>2026-05-03T08:15:50.326Z</time></trkpt><trkpt lat="42.3016365" lon="13.6433711"><ele>881.0</ele><time>2026-05-03T08:15:51.33Z</time></trkpt><trkpt lat="42.3015604" lon="13.6433774"><ele>881.0</ele><time>2026-05-03T08:15:52.327Z</time></trkpt><trkpt lat="42.3014885" lon="13.643387"><ele>881.0</ele><time>2026-05-03T08:15:53.327Z</time></trkpt><trkpt lat="42.3014222" lon="13.6434078"><ele>881.0</ele><time>2026-05-03T08:15:54.346Z</time></trkpt><trkpt lat="42.301359" lon="13.6434414"><ele>881.0</ele><time>2026-05-03T08:15:55.327Z</time></trkpt><trkpt lat="42.3012953" lon="13.6434735"><ele>879.8333333333334</ele><time>2026-05-03T08:15:56.328Z</time></trkpt><trkpt lat="42.3012292" lon="13.6435143"><ele>878.6666666666667</ele><time>2026-05-03T08:15:57.332Z</time></trkpt><trkpt lat="42.3011663" lon="13.6435584"><ele>877.5</ele><time>2026-05-03T08:15:58.328Z</time></trkpt><trkpt lat="42.3011067" lon="13.643589"><ele>876.3333333333333</ele><time>2026-05-03T08:15:59.326Z</time></trkpt><trkpt lat="42.3009926" lon="13.6436302"><ele>875.1666666666666</ele><time>2026-05-03T08:16:01.328Z</time></trkpt><trkpt lat="42.3009316" lon="13.6436532"><ele>874.0</ele><time>2026-05-03T08:16:02.326Z</time></trkpt><trkpt lat="42.3008065" lon="13.6436976"><ele>873.4999999999999</ele><time>2026-05-03T08:16:04.325Z</time></trkpt><trkpt lat="42.3007362" lon="13.6437154"><ele>873.0</ele><time>2026-05-03T08:16:05.326Z</time></trkpt><trkpt lat="42.3006682" lon="13.6437392"><ele>872.5</ele><time>2026-05-03T08:16:06.324Z</time></trkpt><trkpt lat="42.3006068" lon="13.6437847"><ele>872.0</ele><time>2026-05-03T08:16:07.319Z</time></trkpt><trkpt lat="42.3005492" lon="13.6438296"><ele>871.4999999999999</ele><time>2026-05-03T08:16:08.318Z</time></trkpt><trkpt lat="42.3004634" lon="13.6438636"><ele>871.0</ele><time>2026-05-03T08:16:09.324Z</time></trkpt><trkpt lat="42.3003767" lon="13.6438893"><ele>870.1428571428571</ele><time>2026-05-03T08:16:10.32Z</time></trkpt><trkpt lat="42.3002989" lon="13.6439127"><ele>869.2857142857142</ele><time>2026-05-03T08:16:11.32Z</time></trkpt><trkpt lat="42.3002253" lon="13.6439244"><ele>868.4285714285714</ele><time>2026-05-03T08:16:12.321Z</time></trkpt><trkpt lat="42.3001595" lon="13.6439257"><ele>867.5714285714286</ele><time>2026-05-03T08:16:13.316Z</time></trkpt><trkpt lat="42.3000911" lon="13.6439358"><ele>866.7142857142858</ele><time>2026-05-03T08:16:14.318Z</time></trkpt><trkpt lat="42.3000089" lon="13.6439425"><ele>865.8571428571429</ele><time>2026-05-03T08:16:15.322Z</time></trkpt><trkpt lat="42.2999356" lon="13.6439243"><ele>865.0</ele><time>2026-05-03T08:16:16.322Z</time></trkpt><trkpt lat="42.2998138" lon="13.6439126"><ele>864.2</ele><time>2026-05-03T08:16:18.326Z</time></trkpt><trkpt lat="42.2996967" lon="13.6438703"><ele>863.4</ele><time>2026-05-03T08:16:20.325Z</time></trkpt><trkpt lat="42.2996371" lon="13.6438199"><ele>862.5999999999999</ele><time>2026-05-03T08:16:21.326Z</time></trkpt><trkpt lat="42.2995609" lon="13.6437586"><ele>861.8</ele><time>2026-05-03T08:16:22.322Z</time></trkpt><trkpt lat="42.299479" lon="13.6436919"><ele>861.0</ele><time>2026-05-03T08:16:23.326Z</time></trkpt><trkpt lat="42.2993967" lon="13.6436222"><ele>860.0</ele><time>2026-05-03T08:16:24.327Z</time></trkpt><trkpt lat="42.2993174" lon="13.6435474"><ele>858.9999999999999</ele><time>2026-05-03T08:16:25.351Z</time></trkpt><trkpt lat="42.299229" lon="13.6434753"><ele>857.9999999999999</ele><time>2026-05-03T08:16:26.325Z</time></trkpt><trkpt lat="42.2991377" lon="13.6434025"><ele>857.0</ele><time>2026-05-03T08:16:27.317Z</time></trkpt><trkpt lat="42.2990452" lon="13.6433269"><ele>856.0</ele><time>2026-05-03T08:16:28.32Z</time></trkpt><trkpt lat="42.2989521" lon="13.6432525"><ele>854.5999999999999</ele><time>2026-05-03T08:16:29.318Z</time></trkpt><trkpt lat="42.298864" lon="13.6431647"><ele>853.1999999999999</ele><time>2026-05-03T08:16:30.318Z</time></trkpt><trkpt lat="42.2987769" lon="13.6430798"><ele>851.8</ele><time>2026-05-03T08:16:31.33Z</time></trkpt><trkpt lat="42.2986959" lon="13.6429946"><ele>850.4000000000001</ele><time>2026-05-03T08:16:32.328Z</time></trkpt><trkpt lat="42.298628" lon="13.642898"><ele>849.0</ele><time>2026-05-03T08:16:33.328Z</time></trkpt><trkpt lat="42.2985669" lon="13.6427975"><ele>847.8000000000001</ele><time>2026-05-03T08:16:34.338Z</time></trkpt><trkpt lat="42.2985109" lon="13.6426835"><ele>846.6</ele><time>2026-05-03T08:16:35.336Z</time></trkpt><trkpt lat="42.298454" lon="13.6425772"><ele>845.4</ele><time>2026-05-03T08:16:36.331Z</time></trkpt><trkpt lat="42.298398" lon="13.6424736"><ele>844.2</ele><time>2026-05-03T08:16:37.34Z</time></trkpt><trkpt lat="42.298338" lon="13.642372"><ele>843.0</ele><time>2026-05-03T08:16:38.334Z</time></trkpt><trkpt lat="42.2982773" lon="13.6422738"><ele>843.0</ele><time>2026-05-03T08:16:39.342Z</time></trkpt><trkpt lat="42.298212" lon="13.6421666"><ele>843.0</ele><time>2026-05-03T08:16:40.337Z</time></trkpt><trkpt lat="42.2981475" lon="13.6420759"><ele>843.0</ele><time>2026-05-03T08:16:41.334Z</time></trkpt><trkpt lat="42.2980827" lon="13.6419943"><ele>843.0</ele><time>2026-05-03T08:16:42.335Z</time></trkpt><trkpt lat="42.298024" lon="13.641909"><ele>843.0</ele><time>2026-05-03T08:16:43.33Z</time></trkpt><trkpt lat="42.2979637" lon="13.6418279"><ele>841.0</ele><time>2026-05-03T08:16:44.33Z</time></trkpt><trkpt lat="42.2979078" lon="13.6417561"><ele>839.0</ele><time>2026-05-03T08:16:45.334Z</time></trkpt><trkpt lat="42.2978507" lon="13.6416903"><ele>837.0</ele><time>2026-05-03T08:16:46.329Z</time></trkpt><trkpt lat="42.2977693" lon="13.6416058"><ele>835.0</ele><time>2026-05-03T08:16:48.335Z</time></trkpt><trkpt lat="42.2976679" lon="13.6416315"><ele>833.0</ele><time>2026-05-03T08:16:50.329Z</time></trkpt><trkpt lat="42.2976005" lon="13.641658"><ele>831.0</ele><time>2026-05-03T08:16:51.318Z</time></trkpt><trkpt lat="42.297515" lon="13.6416796"><ele>831.0</ele><time>2026-05-03T08:16:52.311Z</time></trkpt><trkpt lat="42.2974326" lon="13.6416868"><ele>831.0</ele><time>2026-05-03T08:16:53.325Z</time></trkpt><trkpt lat="42.2973503" lon="13.6416998"><ele>831.0</ele><time>2026-05-03T08:16:54.332Z</time></trkpt><trkpt lat="42.2972704" lon="13.6417026"><ele>831.0</ele><time>2026-05-03T08:16:55.337Z</time></trkpt><trkpt lat="42.2972013" lon="13.6416921"><ele>831.0</ele><time>2026-05-03T08:16:56.331Z</time></trkpt><trkpt lat="42.2971285" lon="13.641684"><ele>831.0</ele><time>2026-05-03T08:16:57.325Z</time></trkpt><trkpt lat="42.297062" lon="13.6416601"><ele>829.5</ele><time>2026-05-03T08:16:58.329Z</time></trkpt><trkpt lat="42.296994" lon="13.6416343"><ele>828.0</ele><time>2026-05-03T08:16:59.33Z</time></trkpt><trkpt lat="42.2969266" lon="13.6416048"><ele>826.5</ele><time>2026-05-03T08:17:00.324Z</time></trkpt><trkpt lat="42.2968584" lon="13.6415814"><ele>825.0</ele><time>2026-05-03T08:17:01.329Z</time></trkpt><trkpt lat="42.2967908" lon="13.6415563"><ele>823.5</ele><time>2026-05-03T08:17:02.327Z</time></trkpt><trkpt lat="42.296672" lon="13.6415342"><ele>822.0</ele><time>2026-05-03T08:17:04.322Z</time></trkpt><trkpt lat="42.2965982" lon="13.6415507"><ele>822.0</ele><time>2026-05-03T08:17:05.326Z</time></trkpt><trkpt lat="42.296519" lon="13.6415834"><ele>822.0</ele><time>2026-05-03T08:17:06.325Z</time></trkpt><trkpt lat="42.296439" lon="13.6415932"><ele>822.0</ele><time>2026-05-03T08:17:07.326Z</time></trkpt><trkpt lat="42.2963529" lon="13.6415902"><ele>822.0</ele><time>2026-05-03T08:17:08.327Z</time></trkpt><trkpt lat="42.296272" lon="13.6415785"><ele>822.0</ele><time>2026-05-03T08:17:09.325Z</time></trkpt><trkpt lat="42.2961867" lon="13.6415676"><ele>822.0</ele><time>2026-05-03T08:17:10.332Z</time></trkpt><trkpt lat="42.2961072" lon="13.6415517"><ele>820.5</ele><time>2026-05-03T08:17:11.326Z</time></trkpt><trkpt lat="42.2960343" lon="13.6415262"><ele>819.0</ele><time>2026-05-03T08:17:12.331Z</time></trkpt><trkpt lat="42.2959599" lon="13.6414902"><ele>817.5</ele><time>2026-05-03T08:17:13.327Z</time></trkpt><trkpt lat="42.2958809" lon="13.6414432"><ele>816.0</ele><time>2026-05-03T08:17:14.328Z</time></trkpt><trkpt lat="42.2958008" lon="13.6413932"><ele>814.5</ele><time>2026-05-03T08:17:15.329Z</time></trkpt><trkpt lat="42.2957249" lon="13.641357"><ele>813.0</ele><time>2026-05-03T08:17:16.325Z</time></trkpt><trkpt lat="42.2956375" lon="13.6413334"><ele>811.5</ele><time>2026-05-03T08:17:17.332Z</time></trkpt><trkpt lat="42.2955464" lon="13.6413257"><ele>810.0</ele><time>2026-05-03T08:17:18.332Z</time></trkpt><trkpt lat="42.2954618" lon="13.6413122"><ele>808.5</ele><time>2026-05-03T08:17:19.329Z</time></trkpt><trkpt lat="42.2953839" lon="13.6413109"><ele>807.0</ele><time>2026-05-03T08:17:20.331Z</time></trkpt><trkpt lat="42.295307" lon="13.6413057"><ele>805.5</ele><time>2026-05-03T08:17:21.332Z</time></trkpt><trkpt lat="42.2952257" lon="13.6412917"><ele>804.0</ele><time>2026-05-03T08:17:22.328Z</time></trkpt><trkpt lat="42.2951462" lon="13.641281"><ele>804.0</ele><time>2026-05-03T08:17:23.334Z</time></trkpt><trkpt lat="42.2950614" lon="13.6412717"><ele>804.0</ele><time>2026-05-03T08:17:24.331Z</time></trkpt><trkpt lat="42.2949784" lon="13.6412722"><ele>804.0</ele><time>2026-05-03T08:17:25.333Z</time></trkpt><trkpt lat="42.2949082" lon="13.6412721"><ele>804.0</ele><time>2026-05-03T08:17:26.345Z</time></trkpt><trkpt lat="42.2947855" lon="13.6412707"><ele>804.0</ele><time>2026-05-03T08:17:28.343Z</time></trkpt><trkpt lat="42.2947218" lon="13.6412561"><ele>804.0</ele><time>2026-05-03T08:17:29.331Z</time></trkpt><trkpt lat="42.294657" lon="13.6412339"><ele>802.8000000000001</ele><time>2026-05-03T08:17:30.334Z</time></trkpt><trkpt lat="42.2945916" lon="13.6411981"><ele>801.6</ele><time>2026-05-03T08:17:31.335Z</time></trkpt><trkpt lat="42.2944925" lon="13.6411445"><ele>800.4</ele><time>2026-05-03T08:17:33.335Z</time></trkpt><trkpt lat="42.2944167" lon="13.6411083"><ele>799.2</ele><time>2026-05-03T08:17:35.335Z</time></trkpt><trkpt lat="42.2943273" lon="13.6411102"><ele>798.0</ele><time>2026-05-03T08:17:38.326Z</time></trkpt><trkpt lat="42.2942306" lon="13.641217"><ele>798.0</ele><time>2026-05-03T08:17:40.324Z</time></trkpt><trkpt lat="42.2941673" lon="13.6412922"><ele>798.0</ele><time>2026-05-03T08:17:41.332Z</time></trkpt><trkpt lat="42.2940975" lon="13.6413824"><ele>798.0</ele><time>2026-05-03T08:17:42.327Z</time></trkpt><trkpt lat="42.2940092" lon="13.6414822"><ele>798.0</ele><time>2026-05-03T08:17:43.33Z</time></trkpt><trkpt lat="42.2939292" lon="13.6415893"><ele>798.0</ele><time>2026-05-03T08:17:44.327Z</time></trkpt><trkpt lat="42.2938515" lon="13.6416945"><ele>798.0</ele><time>2026-05-03T08:17:45.333Z</time></trkpt><trkpt lat="42.2937751" lon="13.641812"><ele>798.0</ele><time>2026-05-03T08:17:46.327Z</time></trkpt><trkpt lat="42.2937059" lon="13.6419471"><ele>798.0</ele><time>2026-05-03T08:17:47.327Z</time></trkpt><trkpt lat="42.2936476" lon="13.6420944"><ele>798.0</ele><time>2026-05-03T08:17:48.328Z</time></trkpt><trkpt lat="42.2935974" lon="13.6422256"><ele>798.0</ele><time>2026-05-03T08:17:49.316Z</time></trkpt><trkpt lat="42.2935266" lon="13.6423385"><ele>798.0</ele><time>2026-05-03T08:17:50.338Z</time></trkpt><trkpt lat="42.2934079" lon="13.6424228"><ele>798.0</ele><time>2026-05-03T08:17:51.33Z</time></trkpt><trkpt lat="42.2932715" lon="13.6424869"><ele>798.0</ele><time>2026-05-03T08:17:52.332Z</time></trkpt><trkpt lat="42.2931371" lon="13.6425603"><ele>797.75</ele><time>2026-05-03T08:17:53.334Z</time></trkpt><trkpt lat="42.2930085" lon="13.6426318"><ele>797.5</ele><time>2026-05-03T08:17:54.333Z</time></trkpt><trkpt lat="42.292863" lon="13.6426979"><ele>797.25</ele><time>2026-05-03T08:17:55.328Z</time></trkpt><trkpt lat="42.292728" lon="13.6427829"><ele>797.0</ele><time>2026-05-03T08:17:56.327Z</time></trkpt><trkpt lat="42.2925847" lon="13.6428495"><ele>797.0</ele><time>2026-05-03T08:17:57.341Z</time></trkpt><trkpt lat="42.2924482" lon="13.6429224"><ele>797.0</ele><time>2026-05-03T08:17:58.331Z</time></trkpt><trkpt lat="42.292302" lon="13.6429796"><ele>797.0</ele><time>2026-05-03T08:17:59.329Z</time></trkpt><trkpt lat="42.29217" lon="13.6430435"><ele>797.0</ele><time>2026-05-03T08:18:00.33Z</time></trkpt><trkpt lat="42.2920292" lon="13.6431034"><ele>796.5</ele><time>2026-05-03T08:18:01.334Z</time></trkpt><trkpt lat="42.2918986" lon="13.6431616"><ele>796.0</ele><time>2026-05-03T08:18:02.335Z</time></trkpt><trkpt lat="42.2917671" lon="13.6432066"><ele>795.5</ele><time>2026-05-03T08:18:03.328Z</time></trkpt><trkpt lat="42.2916418" lon="13.6432299"><ele>795.0</ele><time>2026-05-03T08:18:04.325Z</time></trkpt><trkpt lat="42.2915274" lon="13.6432258"><ele>795.0</ele><time>2026-05-03T08:18:05.323Z</time></trkpt><trkpt lat="42.2914241" lon="13.643179"><ele>795.0</ele><time>2026-05-03T08:18:06.326Z</time></trkpt><trkpt lat="42.2913152" lon="13.6431277"><ele>795.0</ele><time>2026-05-03T08:18:07.328Z</time></trkpt><trkpt lat="42.2912054" lon="13.6430767"><ele>795.0</ele><time>2026-05-03T08:18:08.326Z</time></trkpt><trkpt lat="42.29109" lon="13.6430663"><ele>794.0</ele><time>2026-05-03T08:18:09.318Z</time></trkpt><trkpt lat="42.2909633" lon="13.6430784"><ele>793.0</ele><time>2026-05-03T08:18:10.321Z</time></trkpt><trkpt lat="42.2908217" lon="13.643127"><ele>792.0</ele><time>2026-05-03T08:18:11.328Z</time></trkpt><trkpt lat="42.29068" lon="13.6431822"><ele>791.0</ele><time>2026-05-03T08:18:12.334Z</time></trkpt><trkpt lat="42.2905486" lon="13.6432128"><ele>789.75</ele><time>2026-05-03T08:18:13.326Z</time></trkpt><trkpt lat="42.2904203" lon="13.6432203"><ele>788.5</ele><time>2026-05-03T08:18:14.333Z</time></trkpt><trkpt lat="42.2902914" lon="13.6432225"><ele>787.25</ele><time>2026-05-03T08:18:15.335Z</time></trkpt><trkpt lat="42.2901618" lon="13.6432378"><ele>786.0</ele><time>2026-05-03T08:18:16.331Z</time></trkpt><trkpt lat="42.2900322" lon="13.6432599"><ele>786.0</ele><time>2026-05-03T08:18:17.336Z</time></trkpt><trkpt lat="42.2899045" lon="13.643283"><ele>786.0</ele><time>2026-05-03T08:18:18.326Z</time></trkpt><trkpt lat="42.2898043" lon="13.6433102"><ele>786.0</ele><time>2026-05-03T08:18:19.329Z</time></trkpt><trkpt lat="42.2897251" lon="13.6433674"><ele>786.0</ele><time>2026-05-03T08:18:20.338Z</time></trkpt><trkpt lat="42.2896711" lon="13.64346"><ele>786.0</ele><time>2026-05-03T08:18:21.337Z</time></trkpt><trkpt lat="42.2896545" lon="13.6435787"><ele>787.0</ele><time>2026-05-03T08:18:22.338Z</time></trkpt><trkpt lat="42.2896739" lon="13.6437009"><ele>788.0</ele><time>2026-05-03T08:18:23.338Z</time></trkpt><trkpt lat="42.2897151" lon="13.6438198"><ele>789.0</ele><time>2026-05-03T08:18:24.33Z</time></trkpt><trkpt lat="42.2897629" lon="13.6439437"><ele>790.0</ele><time>2026-05-03T08:18:25.331Z</time></trkpt><trkpt lat="42.289801" lon="13.6440799"><ele>791.0</ele><time>2026-05-03T08:18:26.331Z</time></trkpt><trkpt lat="42.2898262" lon="13.6442347"><ele>791.0</ele><time>2026-05-03T08:18:27.331Z</time></trkpt><trkpt lat="42.2898425" lon="13.6443943"><ele>791.0</ele><time>2026-05-03T08:18:28.35Z</time></trkpt><trkpt lat="42.2898534" lon="13.6445525"><ele>791.0</ele><time>2026-05-03T08:18:29.329Z</time></trkpt><trkpt lat="42.2898754" lon="13.6447261"><ele>791.0</ele><time>2026-05-03T08:18:30.327Z</time></trkpt><trkpt lat="42.2899062" lon="13.6449051"><ele>792.0</ele><time>2026-05-03T08:18:31.331Z</time></trkpt><trkpt lat="42.2899494" lon="13.64509"><ele>793.0</ele><time>2026-05-03T08:18:32.326Z</time></trkpt><trkpt lat="42.2899988" lon="13.6452567"><ele>794.0</ele><time>2026-05-03T08:18:33.327Z</time></trkpt><trkpt lat="42.2900504" lon="13.6454214"><ele>795.0</ele><time>2026-05-03T08:18:34.327Z</time></trkpt><trkpt lat="42.2900998" lon="13.6455659"><ele>795.2</ele><time>2026-05-03T08:18:35.319Z</time></trkpt><trkpt lat="42.2901285" lon="13.6457052"><ele>795.4</ele><time>2026-05-03T08:18:36.322Z</time></trkpt><trkpt lat="42.2901332" lon="13.6458513"><ele>795.5999999999999</ele><time>2026-05-03T08:18:37.322Z</time></trkpt><trkpt lat="42.2901159" lon="13.6460075"><ele>795.8</ele><time>2026-05-03T08:18:38.319Z</time></trkpt><trkpt lat="42.2900903" lon="13.6461598"><ele>796.0</ele><time>2026-05-03T08:18:39.326Z</time></trkpt><trkpt lat="42.2900514" lon="13.646317"><ele>797.5</ele><time>2026-05-03T08:18:40.326Z</time></trkpt><trkpt lat="42.2899954" lon="13.6464734"><ele>799.0</ele><time>2026-05-03T08:18:41.315Z</time></trkpt><trkpt lat="42.289913" lon="13.6466088"><ele>800.5</ele><time>2026-05-03T08:18:42.321Z</time></trkpt><trkpt lat="42.2898175" lon="13.6467434"><ele>802.0</ele><time>2026-05-03T08:18:43.325Z</time></trkpt><trkpt lat="42.2897289" lon="13.6468975"><ele>799.25</ele><time>2026-05-03T08:18:44.322Z</time></trkpt><trkpt lat="42.2896585" lon="13.6470873"><ele>796.5</ele><time>2026-05-03T08:18:45.321Z</time></trkpt><trkpt lat="42.2895892" lon="13.6472659"><ele>793.75</ele><time>2026-05-03T08:18:46.312Z</time></trkpt><trkpt lat="42.2895503" lon="13.6474444"><ele>791.0</ele><time>2026-05-03T08:18:47.321Z</time></trkpt><trkpt lat="42.2895374" lon="13.6476007"><ele>791.0</ele><time>2026-05-03T08:18:48.325Z</time></trkpt><trkpt lat="42.2894955" lon="13.647729"><ele>791.0</ele><time>2026-05-03T08:18:49.33Z</time></trkpt><trkpt lat="42.2894061" lon="13.6478587"><ele>791.0</ele><time>2026-05-03T08:18:50.323Z</time></trkpt><trkpt lat="42.2893256" lon="13.6480022"><ele>791.0</ele><time>2026-05-03T08:18:51.316Z</time></trkpt><trkpt lat="42.2892312" lon="13.6481475"><ele>792.6666666666667</ele><time>2026-05-03T08:18:52.321Z</time></trkpt><trkpt lat="42.2891131" lon="13.6482994"><ele>794.3333333333333</ele><time>2026-05-03T08:18:53.321Z</time></trkpt><trkpt lat="42.2890013" lon="13.6484702"><ele>796.0</ele><time>2026-05-03T08:18:54.335Z</time></trkpt><trkpt lat="42.2888713" lon="13.6485821"><ele>794.0</ele><time>2026-05-03T08:18:55.327Z</time></trkpt><trkpt lat="42.2887825" lon="13.6487191"><ele>792.0</ele><time>2026-05-03T08:18:56.317Z</time></trkpt><trkpt lat="42.28866" lon="13.6488416"><ele>790.0</ele><time>2026-05-03T08:18:57.325Z</time></trkpt><trkpt lat="42.2885359" lon="13.6489829"><ele>788.0</ele><time>2026-05-03T08:18:58.323Z</time></trkpt><trkpt lat="42.2884067" lon="13.6490918"><ele>788.0</ele><time>2026-05-03T08:18:59.338Z</time></trkpt><trkpt lat="42.2882682" lon="13.6492151"><ele>788.0</ele><time>2026-05-03T08:19:00.324Z</time></trkpt><trkpt lat="42.2881423" lon="13.6493527"><ele>788.0</ele><time>2026-05-03T08:19:01.332Z</time></trkpt><trkpt lat="42.2880296" lon="13.6494856"><ele>786.0</ele><time>2026-05-03T08:19:02.326Z</time></trkpt><trkpt lat="42.2879412" lon="13.6496436"><ele>784.0</ele><time>2026-05-03T08:19:03.33Z</time></trkpt><trkpt lat="42.2878713" lon="13.6498031"><ele>782.0</ele><time>2026-05-03T08:19:04.323Z</time></trkpt><trkpt lat="42.2877964" lon="13.6499693"><ele>780.0</ele><time>2026-05-03T08:19:05.331Z</time></trkpt><trkpt lat="42.2877195" lon="13.6501509"><ele>781.6666666666667</ele><time>2026-05-03T08:19:06.331Z</time></trkpt><trkpt lat="42.2876515" lon="13.6503418"><ele>783.3333333333334</ele><time>2026-05-03T08:19:07.336Z</time></trkpt><trkpt lat="42.2875863" lon="13.6505313"><ele>785.0</ele><time>2026-05-03T08:19:08.33Z</time></trkpt><trkpt lat="42.2875355" lon="13.6507268"><ele>785.0</ele><time>2026-05-03T08:19:09.331Z</time></trkpt><trkpt lat="42.2875039" lon="13.6509255"><ele>785.0</ele><time>2026-05-03T08:19:10.333Z</time></trkpt><trkpt lat="42.2874755" lon="13.6511183"><ele>785.0</ele><time>2026-05-03T08:19:11.325Z</time></trkpt><trkpt lat="42.2874615" lon="13.6512975"><ele>785.0</ele><time>2026-05-03T08:19:12.328Z</time></trkpt><trkpt lat="42.2874604" lon="13.6514644"><ele>785.6</ele><time>2026-05-03T08:19:13.323Z</time></trkpt><trkpt lat="42.2874729" lon="13.6516199"><ele>786.2</ele><time>2026-05-03T08:19:14.324Z</time></trkpt><trkpt lat="42.2875012" lon="13.6517645"><ele>786.8</ele><time>2026-05-03T08:19:15.335Z</time></trkpt><trkpt lat="42.2875348" lon="13.6519085"><ele>787.4</ele><time>2026-05-03T08:19:16.331Z</time></trkpt><trkpt lat="42.2875461" lon="13.6520367"><ele>788.0</ele><time>2026-05-03T08:19:17.325Z</time></trkpt><trkpt lat="42.2875254" lon="13.6521691"><ele>789.0</ele><time>2026-05-03T08:19:18.322Z</time></trkpt><trkpt lat="42.2874713" lon="13.6522764"><ele>790.0</ele><time>2026-05-03T08:19:19.32Z</time></trkpt><trkpt lat="42.2874074" lon="13.6523753"><ele>791.0</ele><time>2026-05-03T08:19:20.326Z</time></trkpt><trkpt lat="42.2873385" lon="13.6524761"><ele>792.0</ele><time>2026-05-03T08:19:21.324Z</time></trkpt><trkpt lat="42.2872662" lon="13.652581"><ele>793.0</ele><time>2026-05-03T08:19:22.326Z</time></trkpt><trkpt lat="42.2872038" lon="13.652689"><ele>789.75</ele><time>2026-05-03T08:19:23.326Z</time></trkpt><trkpt lat="42.2871452" lon="13.652809"><ele>786.5</ele><time>2026-05-03T08:19:24.328Z</time></trkpt><trkpt lat="42.2870943" lon="13.6529436"><ele>783.25</ele><time>2026-05-03T08:19:25.33Z</time></trkpt><trkpt lat="42.2870622" lon="13.6530965"><ele>780.0</ele><time>2026-05-03T08:19:26.324Z</time></trkpt><trkpt lat="42.2870442" lon="13.6532609"><ele>780.0</ele><time>2026-05-03T08:19:27.331Z</time></trkpt><trkpt lat="42.2870247" lon="13.6534326"><ele>780.0</ele><time>2026-05-03T08:19:28.332Z</time></trkpt><trkpt lat="42.2870058" lon="13.6535932"><ele>780.0</ele><time>2026-05-03T08:19:29.332Z</time></trkpt><trkpt lat="42.2869805" lon="13.653758"><ele>780.0</ele><time>2026-05-03T08:19:30.347Z</time></trkpt><trkpt lat="42.286944" lon="13.6539218"><ele>781.1666666666666</ele><time>2026-05-03T08:19:31.333Z</time></trkpt><trkpt lat="42.2869058" lon="13.6540575"><ele>782.3333333333333</ele><time>2026-05-03T08:19:32.329Z</time></trkpt><trkpt lat="42.2868592" lon="13.6541622"><ele>783.5</ele><time>2026-05-03T08:19:33.324Z</time></trkpt><trkpt lat="42.2867997" lon="13.6542496"><ele>784.6666666666666</ele><time>2026-05-03T08:19:34.335Z</time></trkpt><trkpt lat="42.2867493" lon="13.6543265"><ele>785.8333333333333</ele><time>2026-05-03T08:19:35.33Z</time></trkpt><trkpt lat="42.2866914" lon="13.6544125"><ele>787.0</ele><time>2026-05-03T08:19:36.338Z</time></trkpt><trkpt lat="42.286622" lon="13.6545025"><ele>788.0</ele><time>2026-05-03T08:19:37.331Z</time></trkpt><trkpt lat="42.286551" lon="13.6546081"><ele>789.0</ele><time>2026-05-03T08:19:38.342Z</time></trkpt><trkpt lat="42.2864777" lon="13.654716"><ele>790.0</ele><time>2026-05-03T08:19:39.339Z</time></trkpt><trkpt lat="42.2863988" lon="13.654825"><ele>791.0</ele><time>2026-05-03T08:19:40.331Z</time></trkpt><trkpt lat="42.28633" lon="13.654915"><ele>792.0</ele><time>2026-05-03T08:19:41.328Z</time></trkpt><trkpt lat="42.2862697" lon="13.6549935"><ele>790.5</ele><time>2026-05-03T08:19:42.326Z</time></trkpt><trkpt lat="42.2862236" lon="13.6550598"><ele>789.0</ele><time>2026-05-03T08:19:43.328Z</time></trkpt><trkpt lat="42.2861861" lon="13.655167"><ele>787.5</ele><time>2026-05-03T08:19:45.325Z</time></trkpt><trkpt lat="42.2862338" lon="13.655278"><ele>786.0</ele><time>2026-05-03T08:19:47.329Z</time></trkpt><trkpt lat="42.2863324" lon="13.6553825"><ele>784.5</ele><time>2026-05-03T08:19:49.331Z</time></trkpt><trkpt lat="42.2863776" lon="13.6554464"><ele>783.0</ele><time>2026-05-03T08:19:50.327Z</time></trkpt><trkpt lat="42.286408" lon="13.6555255"><ele>783.0</ele><time>2026-05-03T08:19:51.322Z</time></trkpt><trkpt lat="42.2864145" lon="13.6556146"><ele>783.0</ele><time>2026-05-03T08:19:52.327Z</time></trkpt><trkpt lat="42.286401" lon="13.6557145"><ele>783.0</ele><time>2026-05-03T08:19:53.325Z</time></trkpt><trkpt lat="42.2863942" lon="13.6558217"><ele>783.0</ele><time>2026-05-03T08:19:54.323Z</time></trkpt><trkpt lat="42.2863841" lon="13.6559442"><ele>783.0</ele><time>2026-05-03T08:19:55.327Z</time></trkpt><trkpt lat="42.2863666" lon="13.6560757"><ele>783.0</ele><time>2026-05-03T08:19:56.33Z</time></trkpt><trkpt lat="42.2863634" lon="13.6561842"><ele>783.5714285714286</ele><time>2026-05-03T08:19:57.33Z</time></trkpt><trkpt lat="42.2863473" lon="13.6562797"><ele>784.1428571428572</ele><time>2026-05-03T08:19:58.332Z</time></trkpt><trkpt lat="42.286345" lon="13.6563782"><ele>784.7142857142858</ele><time>2026-05-03T08:19:59.325Z</time></trkpt><trkpt lat="42.2863469" lon="13.6564805"><ele>785.2857142857142</ele><time>2026-05-03T08:20:00.323Z</time></trkpt><trkpt lat="42.2863763" lon="13.656556"><ele>785.8571428571429</ele><time>2026-05-03T08:20:01.339Z</time></trkpt><trkpt lat="42.2864355" lon="13.6565972"><ele>786.4285714285714</ele><time>2026-05-03T08:20:02.313Z</time></trkpt><trkpt lat="42.2865255" lon="13.6566325"><ele>787.0</ele><time>2026-05-03T08:20:04.32Z</time></trkpt><trkpt lat="42.2866102" lon="13.6566327"><ele>790.6</ele><time>2026-05-03T08:20:06.317Z</time></trkpt><trkpt lat="42.2866736" lon="13.6567401"><ele>794.2</ele><time>2026-05-03T08:20:08.318Z</time></trkpt><trkpt lat="42.286631" lon="13.6568509"><ele>797.8</ele><time>2026-05-03T08:20:10.309Z</time></trkpt><trkpt lat="42.2865965" lon="13.6569426"><ele>801.4</ele><time>2026-05-03T08:20:11.311Z</time></trkpt><trkpt lat="42.2865552" lon="13.657022"><ele>805.0</ele><time>2026-05-03T08:20:12.306Z</time></trkpt><trkpt lat="42.2864649" lon="13.6571504"><ele>803.2</ele><time>2026-05-03T08:20:14.306Z</time></trkpt><trkpt lat="42.2864223" lon="13.6572173"><ele>801.4</ele><time>2026-05-03T08:20:15.316Z</time></trkpt><trkpt lat="42.286368" lon="13.6572717"><ele>799.5999999999999</ele><time>2026-05-03T08:20:16.318Z</time></trkpt><trkpt lat="42.2862757" lon="13.6573862"><ele>797.8</ele><time>2026-05-03T08:20:18.315Z</time></trkpt><trkpt lat="42.2862012" lon="13.6575013"><ele>796.0</ele><time>2026-05-03T08:20:20.307Z</time></trkpt><trkpt lat="42.2861271" lon="13.6576277"><ele>796.0</ele><time>2026-05-03T08:20:22.303Z</time></trkpt><trkpt lat="42.2860451" lon="13.6577353"><ele>796.0</ele><time>2026-05-03T08:20:24.307Z</time></trkpt><trkpt lat="42.2859759" lon="13.6578477"><ele>796.0</ele><time>2026-05-03T08:20:26.304Z</time></trkpt><trkpt lat="42.2859197" lon="13.657967"><ele>796.0</ele><time>2026-05-03T08:20:28.31Z</time></trkpt><trkpt lat="42.2858566" lon="13.6580891"><ele>796.0</ele><time>2026-05-03T08:20:30.306Z</time></trkpt><trkpt lat="42.2857879" lon="13.6582263"><ele>796.4</ele><time>2026-05-03T08:20:32.317Z</time></trkpt><trkpt lat="42.2857269" lon="13.6583193"><ele>796.8</ele><time>2026-05-03T08:20:34.301Z</time></trkpt><trkpt lat="42.2856794" lon="13.6584293"><ele>797.1999999999999</ele><time>2026-05-03T08:20:36.302Z</time></trkpt><trkpt lat="42.2856186" lon="13.6585433"><ele>797.5999999999999</ele><time>2026-05-03T08:20:38.295Z</time></trkpt><trkpt lat="42.2855572" lon="13.6586422"><ele>798.0</ele><time>2026-05-03T08:20:40.297Z</time></trkpt><trkpt lat="42.285475" lon="13.6587408"><ele>798.0</ele><time>2026-05-03T08:20:42.303Z</time></trkpt><trkpt lat="42.2854174" lon="13.6588636"><ele>798.0</ele><time>2026-05-03T08:20:44.308Z</time></trkpt><trkpt lat="42.2853795" lon="13.6589381"><ele>798.0</ele><time>2026-05-03T08:20:45.311Z</time></trkpt><trkpt lat="42.2853375" lon="13.6590126"><ele>798.0</ele><time>2026-05-03T08:20:46.309Z</time></trkpt><trkpt lat="42.2853026" lon="13.6590856"><ele>798.0</ele><time>2026-05-03T08:20:47.31Z</time></trkpt><trkpt lat="42.2852255" lon="13.6591896"><ele>798.0</ele><time>2026-05-03T08:20:49.31Z</time></trkpt><trkpt lat="42.2851483" lon="13.6592769"><ele>798.0</ele><time>2026-05-03T08:20:51.31Z</time></trkpt><trkpt lat="42.2850641" lon="13.6593863"><ele>798.0</ele><time>2026-05-03T08:20:53.307Z</time></trkpt><trkpt lat="42.284972" lon="13.6594803"><ele>798.0</ele><time>2026-05-03T08:20:55.312Z</time></trkpt><trkpt lat="42.2849105" lon="13.6596372"><ele>798.0</ele><time>2026-05-03T08:20:57.311Z</time></trkpt><trkpt lat="42.2848852" lon="13.6597242"><ele>798.0</ele><time>2026-05-03T08:20:58.314Z</time></trkpt><trkpt lat="42.2848662" lon="13.6598091"><ele>797.4</ele><time>2026-05-03T08:20:59.311Z</time></trkpt><trkpt lat="42.2848029" lon="13.6599622"><ele>796.8</ele><time>2026-05-03T08:21:01.317Z</time></trkpt><trkpt lat="42.2847276" lon="13.6600854"><ele>796.2</ele><time>2026-05-03T08:21:03.341Z</time></trkpt><trkpt lat="42.2846696" lon="13.6601403"><ele>795.6</ele><time>2026-05-03T08:21:04.314Z</time></trkpt><trkpt lat="42.2846125" lon="13.6601991"><ele>795.0</ele><time>2026-05-03T08:21:05.321Z</time></trkpt><trkpt lat="42.2845518" lon="13.6602751"><ele>799.2</ele><time>2026-05-03T08:21:06.318Z</time></trkpt><trkpt lat="42.2844827" lon="13.6603539"><ele>803.4</ele><time>2026-05-03T08:21:07.32Z</time></trkpt><trkpt lat="42.2844065" lon="13.6604316"><ele>807.5999999999999</ele><time>2026-05-03T08:21:08.32Z</time></trkpt><trkpt lat="42.2843249" lon="13.6605029"><ele>811.8</ele><time>2026-05-03T08:21:09.319Z</time></trkpt><trkpt lat="42.2842406" lon="13.6605816"><ele>816.0</ele><time>2026-05-03T08:21:10.32Z</time></trkpt><trkpt lat="42.2841546" lon="13.6606868"><ele>816.0</ele><time>2026-05-03T08:21:11.315Z</time></trkpt><trkpt lat="42.2840685" lon="13.6608111"><ele>816.0</ele><time>2026-05-03T08:21:12.319Z</time></trkpt><trkpt lat="42.2839811" lon="13.6609619"><ele>816.0</ele><time>2026-05-03T08:21:13.318Z</time></trkpt><trkpt lat="42.2839099" lon="13.661144"><ele>816.0</ele><time>2026-05-03T08:21:14.312Z</time></trkpt><trkpt lat="42.2838422" lon="13.6613284"><ele>814.75</ele><time>2026-05-03T08:21:15.315Z</time></trkpt><trkpt lat="42.2837788" lon="13.6614921"><ele>813.5</ele><time>2026-05-03T08:21:16.321Z</time></trkpt><trkpt lat="42.283714" lon="13.6616594"><ele>812.25</ele><time>2026-05-03T08:21:17.321Z</time></trkpt><trkpt lat="42.283663" lon="13.6618412"><ele>811.0</ele><time>2026-05-03T08:21:18.32Z</time></trkpt><trkpt lat="42.283601" lon="13.6620358"><ele>815.75</ele><time>2026-05-03T08:21:19.322Z</time></trkpt><trkpt lat="42.2835439" lon="13.6622274"><ele>820.5</ele><time>2026-05-03T08:21:20.32Z</time></trkpt><trkpt lat="42.283478" lon="13.6624029"><ele>825.25</ele><time>2026-05-03T08:21:21.317Z</time></trkpt><trkpt lat="42.28341" lon="13.6625509"><ele>830.0</ele><time>2026-05-03T08:21:22.315Z</time></trkpt><trkpt lat="42.283369" lon="13.6627034"><ele>833.2</ele><time>2026-05-03T08:21:23.318Z</time></trkpt><trkpt lat="42.2833297" lon="13.6628358"><ele>836.4</ele><time>2026-05-03T08:21:24.324Z</time></trkpt><trkpt lat="42.2832816" lon="13.6629662"><ele>839.5999999999999</ele><time>2026-05-03T08:21:25.314Z</time></trkpt><trkpt lat="42.2832332" lon="13.6631019"><ele>842.8</ele><time>2026-05-03T08:21:26.317Z</time></trkpt><trkpt lat="42.2831701" lon="13.6632426"><ele>846.0</ele><time>2026-05-03T08:21:27.317Z</time></trkpt><trkpt lat="42.2831033" lon="13.6633905"><ele>841.5</ele><time>2026-05-03T08:21:28.319Z</time></trkpt><trkpt lat="42.2830393" lon="13.6635421"><ele>837.0</ele><time>2026-05-03T08:21:29.319Z</time></trkpt><trkpt lat="42.2829754" lon="13.6636799"><ele>832.5</ele><time>2026-05-03T08:21:30.318Z</time></trkpt><trkpt lat="42.2829134" lon="13.6638123"><ele>828.0</ele><time>2026-05-03T08:21:31.319Z</time></trkpt><trkpt lat="42.2828544" lon="13.6639444"><ele>828.0</ele><time>2026-05-03T08:21:32.321Z</time></trkpt><trkpt lat="42.2827977" lon="13.6640693"><ele>828.0</ele><time>2026-05-03T08:21:33.329Z</time></trkpt><trkpt lat="42.2827344" lon="13.6641964"><ele>828.0</ele><time>2026-05-03T08:21:34.315Z</time></trkpt><trkpt lat="42.282681" lon="13.66432"><ele>828.0</ele><time>2026-05-03T08:21:35.315Z</time></trkpt><trkpt lat="42.2826297" lon="13.664437"><ele>828.0</ele><time>2026-05-03T08:21:36.318Z</time></trkpt><trkpt lat="42.2825773" lon="13.6645616"><ele>831.75</ele><time>2026-05-03T08:21:37.316Z</time></trkpt><trkpt lat="42.2825274" lon="13.6646925"><ele>835.5</ele><time>2026-05-03T08:21:38.318Z</time></trkpt><trkpt lat="42.282465" lon="13.6648445"><ele>839.25</ele><time>2026-05-03T08:21:39.314Z</time></trkpt><trkpt lat="42.2824002" lon="13.6650033"><ele>843.0</ele><time>2026-05-03T08:21:40.319Z</time></trkpt><trkpt lat="42.282334" lon="13.6651601"><ele>846.75</ele><time>2026-05-03T08:21:41.314Z</time></trkpt><trkpt lat="42.2822661" lon="13.6652979"><ele>850.5</ele><time>2026-05-03T08:21:42.312Z</time></trkpt><trkpt lat="42.2821991" lon="13.6654257"><ele>854.25</ele><time>2026-05-03T08:21:43.317Z</time></trkpt><trkpt lat="42.2821381" lon="13.6655684"><ele>858.0</ele><time>2026-05-03T08:21:44.311Z</time></trkpt><trkpt lat="42.2820747" lon="13.6657222"><ele>854.0</ele><time>2026-05-03T08:21:45.32Z</time></trkpt><trkpt lat="42.2820097" lon="13.6658677"><ele>850.0</ele><time>2026-05-03T08:21:46.318Z</time></trkpt><trkpt lat="42.2819585" lon="13.6660186"><ele>846.0</ele><time>2026-05-03T08:21:47.32Z</time></trkpt><trkpt lat="42.2819044" lon="13.6661576"><ele>842.0</ele><time>2026-05-03T08:21:48.318Z</time></trkpt><trkpt lat="42.281854" lon="13.6662911"><ele>842.0</ele><time>2026-05-03T08:21:49.322Z</time></trkpt><trkpt lat="42.2817997" lon="13.6664131"><ele>842.0</ele><time>2026-05-03T08:21:50.319Z</time></trkpt><trkpt lat="42.2817426" lon="13.6665414"><ele>842.0</ele><time>2026-05-03T08:21:51.319Z</time></trkpt><trkpt lat="42.281684" lon="13.6666718"><ele>842.0</ele><time>2026-05-03T08:21:52.321Z</time></trkpt><trkpt lat="42.2816257" lon="13.6668021"><ele>842.0</ele><time>2026-05-03T08:21:53.321Z</time></trkpt><trkpt lat="42.2815743" lon="13.6669294"><ele>839.25</ele><time>2026-05-03T08:21:54.321Z</time></trkpt><trkpt lat="42.2815167" lon="13.6670632"><ele>836.5</ele><time>2026-05-03T08:21:55.32Z</time></trkpt><trkpt lat="42.2814478" lon="13.6671841"><ele>833.75</ele><time>2026-05-03T08:21:56.318Z</time></trkpt><trkpt lat="42.2813912" lon="13.6673174"><ele>831.0</ele><time>2026-05-03T08:21:57.318Z</time></trkpt><trkpt lat="42.2813422" lon="13.6674672"><ele>831.0</ele><time>2026-05-03T08:21:58.311Z</time></trkpt><trkpt lat="42.2812877" lon="13.6676208"><ele>831.0</ele><time>2026-05-03T08:21:59.316Z</time></trkpt><trkpt lat="42.2812365" lon="13.6677518"><ele>831.0</ele><time>2026-05-03T08:22:00.307Z</time></trkpt><trkpt lat="42.2811767" lon="13.6678752"><ele>831.0</ele><time>2026-05-03T08:22:01.319Z</time></trkpt><trkpt lat="42.2811139" lon="13.6679994"><ele>833.4</ele><time>2026-05-03T08:22:02.315Z</time></trkpt><trkpt lat="42.2810532" lon="13.6681267"><ele>835.8</ele><time>2026-05-03T08:22:03.316Z</time></trkpt><trkpt lat="42.2809889" lon="13.6682432"><ele>838.1999999999999</ele><time>2026-05-03T08:22:04.327Z</time></trkpt><trkpt lat="42.2809272" lon="13.6683579"><ele>840.5999999999999</ele><time>2026-05-03T08:22:05.312Z</time></trkpt><trkpt lat="42.2808652" lon="13.6684449"><ele>843.0</ele><time>2026-05-03T08:22:06.313Z</time></trkpt><trkpt lat="42.2808094" lon="13.6685288"><ele>841.4</ele><time>2026-05-03T08:22:07.309Z</time></trkpt><trkpt lat="42.2807635" lon="13.6686252"><ele>839.8</ele><time>2026-05-03T08:22:08.314Z</time></trkpt><trkpt lat="42.2807103" lon="13.6687303"><ele>838.2</ele><time>2026-05-03T08:22:09.313Z</time></trkpt><trkpt lat="42.2806449" lon="13.6688371"><ele>836.6</ele><time>2026-05-03T08:22:10.31Z</time></trkpt><trkpt lat="42.28057" lon="13.6689455"><ele>835.0</ele><time>2026-05-03T08:22:11.313Z</time></trkpt><trkpt lat="42.2804918" lon="13.6690449"><ele>835.0</ele><time>2026-05-03T08:22:12.313Z</time></trkpt><trkpt lat="42.2804167" lon="13.669143"><ele>835.0</ele><time>2026-05-03T08:22:13.315Z</time></trkpt><trkpt lat="42.2803506" lon="13.669247"><ele>835.0</ele><time>2026-05-03T08:22:14.315Z</time></trkpt><trkpt lat="42.2802833" lon="13.6693539"><ele>835.0</ele><time>2026-05-03T08:22:15.313Z</time></trkpt><trkpt lat="42.2802123" lon="13.6694581"><ele>835.0</ele><time>2026-05-03T08:22:16.315Z</time></trkpt><trkpt lat="42.2801439" lon="13.6695772"><ele>839.0</ele><time>2026-05-03T08:22:17.313Z</time></trkpt><trkpt lat="42.2800755" lon="13.6696861"><ele>843.0</ele><time>2026-05-03T08:22:18.318Z</time></trkpt><trkpt lat="42.280005" lon="13.6697975"><ele>847.0</ele><time>2026-05-03T08:22:19.312Z</time></trkpt><trkpt lat="42.2799274" lon="13.669919"><ele>851.0</ele><time>2026-05-03T08:22:20.316Z</time></trkpt><trkpt lat="42.2798464" lon="13.6700411"><ele>851.0</ele><time>2026-05-03T08:22:21.313Z</time></trkpt><trkpt lat="42.2797767" lon="13.6701521"><ele>851.0</ele><time>2026-05-03T08:22:22.313Z</time></trkpt><trkpt lat="42.2797031" lon="13.6702589"><ele>851.0</ele><time>2026-05-03T08:22:23.315Z</time></trkpt><trkpt lat="42.2796307" lon="13.6703711"><ele>851.0</ele><time>2026-05-03T08:22:24.316Z</time></trkpt><trkpt lat="42.2795581" lon="13.67047"><ele>851.0</ele><time>2026-05-03T08:22:25.316Z</time></trkpt><trkpt lat="42.2794884" lon="13.6705747"><ele>849.4</ele><time>2026-05-03T08:22:26.314Z</time></trkpt><trkpt lat="42.2794238" lon="13.670673"><ele>847.8</ele><time>2026-05-03T08:22:27.319Z</time></trkpt><trkpt lat="42.2793423" lon="13.6707772"><ele>846.1999999999999</ele><time>2026-05-03T08:22:28.317Z</time></trkpt><trkpt lat="42.2792661" lon="13.6708842"><ele>844.5999999999999</ele><time>2026-05-03T08:22:29.311Z</time></trkpt><trkpt lat="42.2791983" lon="13.670985"><ele>843.0</ele><time>2026-05-03T08:22:30.313Z</time></trkpt><trkpt lat="42.2791314" lon="13.67108"><ele>841.8</ele><time>2026-05-03T08:22:31.317Z</time></trkpt><trkpt lat="42.2790656" lon="13.6711821"><ele>840.5999999999999</ele><time>2026-05-03T08:22:32.315Z</time></trkpt><trkpt lat="42.2789923" lon="13.6712781"><ele>839.4000000000001</ele><time>2026-05-03T08:22:33.313Z</time></trkpt><trkpt lat="42.2789072" lon="13.6713796"><ele>838.2</ele><time>2026-05-03T08:22:34.315Z</time></trkpt><trkpt lat="42.2788262" lon="13.6714925"><ele>837.0</ele><time>2026-05-03T08:22:35.326Z</time></trkpt><trkpt lat="42.2787474" lon="13.6716147"><ele>837.0</ele><time>2026-05-03T08:22:36.312Z</time></trkpt><trkpt lat="42.2786562" lon="13.6717417"><ele>837.0</ele><time>2026-05-03T08:22:37.311Z</time></trkpt><trkpt lat="42.2785735" lon="13.6718548"><ele>837.0</ele><time>2026-05-03T08:22:38.312Z</time></trkpt><trkpt lat="42.2785115" lon="13.6719717"><ele>837.0</ele><time>2026-05-03T08:22:39.312Z</time></trkpt><trkpt lat="42.2784509" lon="13.6720748"><ele>835.6</ele><time>2026-05-03T08:22:40.313Z</time></trkpt><trkpt lat="42.2783832" lon="13.6721871"><ele>834.2</ele><time>2026-05-03T08:22:41.312Z</time></trkpt><trkpt lat="42.2783086" lon="13.6723075"><ele>832.8</ele><time>2026-05-03T08:22:42.314Z</time></trkpt><trkpt lat="42.2782364" lon="13.6724213"><ele>831.4</ele><time>2026-05-03T08:22:43.312Z</time></trkpt><trkpt lat="42.2781563" lon="13.67252"><ele>830.0</ele><time>2026-05-03T08:22:44.313Z</time></trkpt><trkpt lat="42.2780842" lon="13.6726322"><ele>830.0</ele><time>2026-05-03T08:22:45.314Z</time></trkpt><trkpt lat="42.2780074" lon="13.6727515"><ele>830.0</ele><time>2026-05-03T08:22:46.314Z</time></trkpt><trkpt lat="42.2779244" lon="13.6728735"><ele>830.0</ele><time>2026-05-03T08:22:47.313Z</time></trkpt><trkpt lat="42.2778447" lon="13.6729918"><ele>830.0</ele><time>2026-05-03T08:22:48.314Z</time></trkpt><trkpt lat="42.2777682" lon="13.6731006"><ele>832.2</ele><time>2026-05-03T08:22:49.315Z</time></trkpt><trkpt lat="42.2776943" lon="13.673195"><ele>834.4</ele><time>2026-05-03T08:22:50.322Z</time></trkpt><trkpt lat="42.2776306" lon="13.6732963"><ele>836.5999999999999</ele><time>2026-05-03T08:22:51.313Z</time></trkpt><trkpt lat="42.2775607" lon="13.6734036"><ele>838.8</ele><time>2026-05-03T08:22:52.313Z</time></trkpt><trkpt lat="42.2774794" lon="13.673509"><ele>841.0</ele><time>2026-05-03T08:22:53.31Z</time></trkpt><trkpt lat="42.2774004" lon="13.6736308"><ele>840.5</ele><time>2026-05-03T08:22:54.312Z</time></trkpt><trkpt lat="42.2773155" lon="13.6737576"><ele>840.0</ele><time>2026-05-03T08:22:55.313Z</time></trkpt><trkpt lat="42.2772322" lon="13.6738732"><ele>839.5</ele><time>2026-05-03T08:22:56.314Z</time></trkpt><trkpt lat="42.2771534" lon="13.6739895"><ele>839.0</ele><time>2026-05-03T08:22:57.309Z</time></trkpt><trkpt lat="42.277069" lon="13.674116"><ele>839.0</ele><time>2026-05-03T08:22:58.318Z</time></trkpt><trkpt lat="42.276987" lon="13.6742517"><ele>839.0</ele><time>2026-05-03T08:22:59.313Z</time></trkpt><trkpt lat="42.2769137" lon="13.6743744"><ele>839.0</ele><time>2026-05-03T08:23:00.308Z</time></trkpt><trkpt lat="42.2768386" lon="13.674482"><ele>839.0</ele><time>2026-05-03T08:23:01.315Z</time></trkpt><trkpt lat="42.2767576" lon="13.6745965"><ele>838.0</ele><time>2026-05-03T08:23:02.313Z</time></trkpt><trkpt lat="42.2766724" lon="13.6747119"><ele>837.0</ele><time>2026-05-03T08:23:03.304Z</time></trkpt><trkpt lat="42.2765974" lon="13.6748129"><ele>836.0</ele><time>2026-05-03T08:23:04.313Z</time></trkpt><trkpt lat="42.2765332" lon="13.6749126"><ele>835.0</ele><time>2026-05-03T08:23:05.313Z</time></trkpt><trkpt lat="42.2764623" lon="13.6750104"><ele>834.0</ele><time>2026-05-03T08:23:06.323Z</time></trkpt><trkpt lat="42.2763916" lon="13.6751068"><ele>834.0</ele><time>2026-05-03T08:23:07.307Z</time></trkpt><trkpt lat="42.2763178" lon="13.6752013"><ele>834.0</ele><time>2026-05-03T08:23:08.311Z</time></trkpt><trkpt lat="42.2762442" lon="13.6753034"><ele>834.0</ele><time>2026-05-03T08:23:09.314Z</time></trkpt><trkpt lat="42.2761638" lon="13.6754084"><ele>834.0</ele><time>2026-05-03T08:23:10.306Z</time></trkpt><trkpt lat="42.2760848" lon="13.6755146"><ele>834.0</ele><time>2026-05-03T08:23:11.312Z</time></trkpt><trkpt lat="42.276019" lon="13.6756238"><ele>836.8000000000001</ele><time>2026-05-03T08:23:12.309Z</time></trkpt><trkpt lat="42.2759369" lon="13.6757242"><ele>839.6</ele><time>2026-05-03T08:23:13.311Z</time></trkpt><trkpt lat="42.2758521" lon="13.6758308"><ele>842.4</ele><time>2026-05-03T08:23:14.311Z</time></trkpt><trkpt lat="42.2757737" lon="13.6759275"><ele>845.2</ele><time>2026-05-03T08:23:15.313Z</time></trkpt><trkpt lat="42.2756951" lon="13.6760341"><ele>848.0</ele><time>2026-05-03T08:23:16.311Z</time></trkpt><trkpt lat="42.2756141" lon="13.6761392"><ele>847.5999999999999</ele><time>2026-05-03T08:23:17.311Z</time></trkpt><trkpt lat="42.275526" lon="13.6762527"><ele>847.1999999999999</ele><time>2026-05-03T08:23:18.308Z</time></trkpt><trkpt lat="42.2754496" lon="13.6763671"><ele>846.8</ele><time>2026-05-03T08:23:19.313Z</time></trkpt><trkpt lat="42.2753767" lon="13.6764631"><ele>846.4</ele><time>2026-05-03T08:23:20.312Z</time></trkpt><trkpt lat="42.2753063" lon="13.676561"><ele>846.0</ele><time>2026-05-03T08:23:21.315Z</time></trkpt><trkpt lat="42.2752358" lon="13.6766545"><ele>846.0</ele><time>2026-05-03T08:23:22.315Z</time></trkpt><trkpt lat="42.2751675" lon="13.6767472"><ele>846.0</ele><time>2026-05-03T08:23:23.312Z</time></trkpt><trkpt lat="42.2750984" lon="13.6768435"><ele>846.0</ele><time>2026-05-03T08:23:24.318Z</time></trkpt><trkpt lat="42.2750224" lon="13.6769437"><ele>846.0</ele><time>2026-05-03T08:23:25.314Z</time></trkpt><trkpt lat="42.2749536" lon="13.6770557"><ele>846.0</ele><time>2026-05-03T08:23:26.315Z</time></trkpt><trkpt lat="42.2748789" lon="13.6771602"><ele>846.5999999999999</ele><time>2026-05-03T08:23:27.313Z</time></trkpt><trkpt lat="42.2748082" lon="13.6772656"><ele>847.2</ele><time>2026-05-03T08:23:28.315Z</time></trkpt><trkpt lat="42.2747435" lon="13.6773483"><ele>847.8</ele><time>2026-05-03T08:23:29.315Z</time></trkpt><trkpt lat="42.2746775" lon="13.677443"><ele>848.4000000000001</ele><time>2026-05-03T08:23:30.313Z</time></trkpt><trkpt lat="42.2746169" lon="13.6775247"><ele>849.0</ele><time>2026-05-03T08:23:31.318Z</time></trkpt><trkpt lat="42.2745489" lon="13.677605"><ele>849.0</ele><time>2026-05-03T08:23:32.316Z</time></trkpt><trkpt lat="42.2744766" lon="13.6776819"><ele>849.0</ele><time>2026-05-03T08:23:33.315Z</time></trkpt><trkpt lat="42.2744019" lon="13.677761"><ele>849.0</ele><time>2026-05-03T08:23:34.315Z</time></trkpt><trkpt lat="42.2743309" lon="13.6778423"><ele>849.0</ele><time>2026-05-03T08:23:35.314Z</time></trkpt><trkpt lat="42.2742566" lon="13.677933"><ele>849.0</ele><time>2026-05-03T08:23:36.313Z</time></trkpt><trkpt lat="42.2741842" lon="13.6780357"><ele>849.6</ele><time>2026-05-03T08:23:37.326Z</time></trkpt><trkpt lat="42.2741156" lon="13.6781385"><ele>850.2</ele><time>2026-05-03T08:23:38.309Z</time></trkpt><trkpt lat="42.2740421" lon="13.6782438"><ele>850.8000000000001</ele><time>2026-05-03T08:23:39.311Z</time></trkpt><trkpt lat="42.2739678" lon="13.6783343"><ele>851.4000000000001</ele><time>2026-05-03T08:23:40.31Z</time></trkpt><trkpt lat="42.2738897" lon="13.6784204"><ele>852.0</ele><time>2026-05-03T08:23:41.309Z</time></trkpt><trkpt lat="42.2738152" lon="13.6785191"><ele>854.6</ele><time>2026-05-03T08:23:42.305Z</time></trkpt><trkpt lat="42.2737484" lon="13.678623"><ele>857.2</ele><time>2026-05-03T08:23:43.307Z</time></trkpt><trkpt lat="42.2736774" lon="13.6787361"><ele>859.8</ele><time>2026-05-03T08:23:44.306Z</time></trkpt><trkpt lat="42.2736069" lon="13.6788475"><ele>862.4</ele><time>2026-05-03T08:23:45.311Z</time></trkpt><trkpt lat="42.2735386" lon="13.6789452"><ele>865.0</ele><time>2026-05-03T08:23:46.309Z</time></trkpt><trkpt lat="42.2734642" lon="13.6790434"><ele>865.0</ele><time>2026-05-03T08:23:47.311Z</time></trkpt><trkpt lat="42.2733883" lon="13.6791619"><ele>865.0</ele><time>2026-05-03T08:23:48.314Z</time></trkpt><trkpt lat="42.2733065" lon="13.6792943"><ele>865.0</ele><time>2026-05-03T08:23:49.314Z</time></trkpt><trkpt lat="42.2732381" lon="13.679424"><ele>865.0</ele><time>2026-05-03T08:23:50.312Z</time></trkpt><trkpt lat="42.2731661" lon="13.6795721"><ele>868.0</ele><time>2026-05-03T08:23:51.315Z</time></trkpt><trkpt lat="42.2731095" lon="13.6797294"><ele>871.0</ele><time>2026-05-03T08:23:52.317Z</time></trkpt><trkpt lat="42.2730481" lon="13.6798716"><ele>874.0</ele><time>2026-05-03T08:23:53.315Z</time></trkpt><trkpt lat="42.2730051" lon="13.680019"><ele>877.0</ele><time>2026-05-03T08:23:54.315Z</time></trkpt><trkpt lat="42.2729629" lon="13.6801478"><ele>873.5</ele><time>2026-05-03T08:23:55.312Z</time></trkpt><trkpt lat="42.2729175" lon="13.6802693"><ele>870.0</ele><time>2026-05-03T08:23:56.309Z</time></trkpt><trkpt lat="42.272861" lon="13.6804167"><ele>866.5</ele><time>2026-05-03T08:23:57.309Z</time></trkpt><trkpt lat="42.2728002" lon="13.6805677"><ele>863.0</ele><time>2026-05-03T08:23:58.313Z</time></trkpt><trkpt lat="42.2727467" lon="13.6806996"><ele>863.0</ele><time>2026-05-03T08:23:59.316Z</time></trkpt><trkpt lat="42.2726994" lon="13.6808319"><ele>863.0</ele><time>2026-05-03T08:24:00.315Z</time></trkpt><trkpt lat="42.2726527" lon="13.6809638"><ele>863.0</ele><time>2026-05-03T08:24:01.316Z</time></trkpt><trkpt lat="42.2726034" lon="13.6810857"><ele>863.0</ele><time>2026-05-03T08:24:02.316Z</time></trkpt><trkpt lat="42.2725517" lon="13.6812184"><ele>863.0</ele><time>2026-05-03T08:24:03.319Z</time></trkpt><trkpt lat="42.2724954" lon="13.681356"><ele>865.75</ele><time>2026-05-03T08:24:04.318Z</time></trkpt><trkpt lat="42.2724398" lon="13.6814957"><ele>868.5</ele><time>2026-05-03T08:24:05.314Z</time></trkpt><trkpt lat="42.2723831" lon="13.681635"><ele>871.25</ele><time>2026-05-03T08:24:06.318Z</time></trkpt><trkpt lat="42.2723318" lon="13.6817675"><ele>874.0</ele><time>2026-05-03T08:24:07.316Z</time></trkpt><trkpt lat="42.2722775" lon="13.6819041"><ele>871.8000000000001</ele><time>2026-05-03T08:24:08.33Z</time></trkpt><trkpt lat="42.2722247" lon="13.6820417"><ele>869.6000000000001</ele><time>2026-05-03T08:24:09.317Z</time></trkpt><trkpt lat="42.2721754" lon="13.6821749"><ele>867.4</ele><time>2026-05-03T08:24:10.322Z</time></trkpt><trkpt lat="42.2721238" lon="13.6822974"><ele>865.2</ele><time>2026-05-03T08:24:11.318Z</time></trkpt><trkpt lat="42.2720669" lon="13.6824373"><ele>863.0</ele><time>2026-05-03T08:24:12.318Z</time></trkpt><trkpt lat="42.2720157" lon="13.6825785"><ele>863.0</ele><time>2026-05-03T08:24:13.317Z</time></trkpt><trkpt lat="42.2719704" lon="13.6826992"><ele>863.0</ele><time>2026-05-03T08:24:14.311Z</time></trkpt><trkpt lat="42.2719204" lon="13.6828239"><ele>863.0</ele><time>2026-05-03T08:24:15.316Z</time></trkpt><trkpt lat="42.2718814" lon="13.6829401"><ele>863.0</ele><time>2026-05-03T08:24:16.316Z</time></trkpt><trkpt lat="42.2718525" lon="13.683038"><ele>863.0</ele><time>2026-05-03T08:24:17.315Z</time></trkpt><trkpt lat="42.271823" lon="13.6831385"><ele>864.8</ele><time>2026-05-03T08:24:18.315Z</time></trkpt><trkpt lat="42.2717915" lon="13.6832514"><ele>866.5999999999999</ele><time>2026-05-03T08:24:19.32Z</time></trkpt><trkpt lat="42.2717574" lon="13.6833676"><ele>868.4000000000001</ele><time>2026-05-03T08:24:20.321Z</time></trkpt><trkpt lat="42.2717302" lon="13.6834854"><ele>870.2</ele><time>2026-05-03T08:24:21.318Z</time></trkpt><trkpt lat="42.2717003" lon="13.6836112"><ele>872.0</ele><time>2026-05-03T08:24:22.319Z</time></trkpt><trkpt lat="42.2716655" lon="13.6837293"><ele>871.3333333333334</ele><time>2026-05-03T08:24:23.322Z</time></trkpt><trkpt lat="42.2716357" lon="13.683821"><ele>870.6666666666667</ele><time>2026-05-03T08:24:24.316Z</time></trkpt><trkpt lat="42.2716019" lon="13.6839164"><ele>870.0</ele><time>2026-05-03T08:24:25.319Z</time></trkpt><trkpt lat="42.2715651" lon="13.6840068"><ele>869.3333333333333</ele><time>2026-05-03T08:24:26.32Z</time></trkpt><trkpt lat="42.2715228" lon="13.6841008"><ele>868.6666666666666</ele><time>2026-05-03T08:24:27.318Z</time></trkpt><trkpt lat="42.2714818" lon="13.6841905"><ele>868.0</ele><time>2026-05-03T08:24:28.319Z</time></trkpt><trkpt lat="42.2714278" lon="13.6842813"><ele>867.9999999999999</ele><time>2026-05-03T08:24:29.316Z</time></trkpt><trkpt lat="42.2713747" lon="13.6843759"><ele>868.0</ele><time>2026-05-03T08:24:30.319Z</time></trkpt><trkpt lat="42.2713094" lon="13.6844691"><ele>868.0</ele><time>2026-05-03T08:24:31.317Z</time></trkpt><trkpt lat="42.2712458" lon="13.6845644"><ele>868.0</ele><time>2026-05-03T08:24:32.316Z</time></trkpt><trkpt lat="42.2711877" lon="13.6846467"><ele>867.9999999999999</ele><time>2026-05-03T08:24:33.311Z</time></trkpt><trkpt lat="42.2711486" lon="13.6847154"><ele>868.0</ele><time>2026-05-03T08:24:34.307Z</time></trkpt><trkpt lat="42.2710939" lon="13.6848521"><ele>870.9999999999999</ele><time>2026-05-03T08:24:36.31Z</time></trkpt><trkpt lat="42.2710505" lon="13.6849409"><ele>874.0</ele><time>2026-05-03T08:24:38.321Z</time></trkpt><trkpt lat="42.2710132" lon="13.6850107"><ele>877.0</ele><time>2026-05-03T08:24:39.335Z</time></trkpt><trkpt lat="42.2709234" lon="13.6851483"><ele>880.0</ele><time>2026-05-03T08:24:41.322Z</time></trkpt><trkpt lat="42.2708737" lon="13.6852184"><ele>882.9999999999999</ele><time>2026-05-03T08:24:42.322Z</time></trkpt><trkpt lat="42.2708453" lon="13.6853021"><ele>886.0</ele><time>2026-05-03T08:24:43.32Z</time></trkpt><trkpt lat="42.2708108" lon="13.6853848"><ele>888.8333333333333</ele><time>2026-05-03T08:24:44.318Z</time></trkpt><trkpt lat="42.2707546" lon="13.6855369"><ele>891.6666666666666</ele><time>2026-05-03T08:24:46.317Z</time></trkpt><trkpt lat="42.2707212" lon="13.6856254"><ele>894.5</ele><time>2026-05-03T08:24:47.319Z</time></trkpt><trkpt lat="42.2706976" lon="13.6857164"><ele>897.3333333333333</ele><time>2026-05-03T08:24:48.316Z</time></trkpt><trkpt lat="42.2706692" lon="13.6858235"><ele>900.1666666666666</ele><time>2026-05-03T08:24:49.322Z</time></trkpt><trkpt lat="42.2706359" lon="13.6859203"><ele>903.0</ele><time>2026-05-03T08:24:50.321Z</time></trkpt><trkpt lat="42.2706162" lon="13.6860197"><ele>901.8333333333334</ele><time>2026-05-03T08:24:51.324Z</time></trkpt><trkpt lat="42.2706064" lon="13.6861153"><ele>900.6666666666667</ele><time>2026-05-03T08:24:52.319Z</time></trkpt><trkpt lat="42.2706016" lon="13.6862049"><ele>899.5</ele><time>2026-05-03T08:24:53.322Z</time></trkpt><trkpt lat="42.2706186" lon="13.6863768"><ele>898.3333333333334</ele><time>2026-05-03T08:24:55.323Z</time></trkpt><trkpt lat="42.2706312" lon="13.6864855"><ele>897.1666666666667</ele><time>2026-05-03T08:24:56.329Z</time></trkpt><trkpt lat="42.2706454" lon="13.6865977"><ele>896.0</ele><time>2026-05-03T08:24:57.328Z</time></trkpt><trkpt lat="42.2706741" lon="13.6867032"><ele>900.1999999999999</ele><time>2026-05-03T08:24:58.323Z</time></trkpt><trkpt lat="42.270712" lon="13.6868281"><ele>904.3999999999999</ele><time>2026-05-03T08:24:59.319Z</time></trkpt><trkpt lat="42.2707506" lon="13.6869763"><ele>908.6</ele><time>2026-05-03T08:25:00.318Z</time></trkpt><trkpt lat="42.2707827" lon="13.6871193"><ele>912.8</ele><time>2026-05-03T08:25:01.323Z</time></trkpt><trkpt lat="42.2708088" lon="13.6872603"><ele>917.0</ele><time>2026-05-03T08:25:02.314Z</time></trkpt><trkpt lat="42.2708017" lon="13.6873904"><ele>917.6</ele><time>2026-05-03T08:25:03.314Z</time></trkpt><trkpt lat="42.2707934" lon="13.6875237"><ele>918.2</ele><time>2026-05-03T08:25:04.318Z</time></trkpt><trkpt lat="42.2707739" lon="13.6876526"><ele>918.8</ele><time>2026-05-03T08:25:05.307Z</time></trkpt><trkpt lat="42.270767" lon="13.6877837"><ele>919.4</ele><time>2026-05-03T08:25:06.31Z</time></trkpt><trkpt lat="42.2707564" lon="13.6879088"><ele>920.0</ele><time>2026-05-03T08:25:07.315Z</time></trkpt><trkpt lat="42.2707484" lon="13.6880177"><ele>920.0000000000001</ele><time>2026-05-03T08:25:08.315Z</time></trkpt><trkpt lat="42.2707723" lon="13.6881711"><ele>920.0</ele><time>2026-05-03T08:25:10.339Z</time></trkpt><trkpt lat="42.2708648" lon="13.6882137"><ele>920.0</ele><time>2026-05-03T08:25:12.336Z</time></trkpt><trkpt lat="42.2709221" lon="13.688168"><ele>920.0</ele><time>2026-05-03T08:25:13.329Z</time></trkpt><trkpt lat="42.2709773" lon="13.6880805"><ele>920.0000000000001</ele><time>2026-05-03T08:25:14.322Z</time></trkpt><trkpt lat="42.2710222" lon="13.6879848"><ele>920.0</ele><time>2026-05-03T08:25:15.323Z</time></trkpt><trkpt lat="42.2710342" lon="13.6878841"><ele>920.0000000000001</ele><time>2026-05-03T08:25:16.322Z</time></trkpt><trkpt lat="42.271041" lon="13.6877911"><ele>920.0</ele><time>2026-05-03T08:25:17.321Z</time></trkpt><trkpt lat="42.2710483" lon="13.6876904"><ele>920.0</ele><time>2026-05-03T08:25:18.322Z</time></trkpt><trkpt lat="42.2710505" lon="13.6875862"><ele>920.0</ele><time>2026-05-03T08:25:19.317Z</time></trkpt><trkpt lat="42.2710683" lon="13.6874681"><ele>920.0000000000001</ele><time>2026-05-03T08:25:20.315Z</time></trkpt><trkpt lat="42.2710924" lon="13.6873435"><ele>920.0</ele><time>2026-05-03T08:25:21.314Z</time></trkpt><trkpt lat="42.2711263" lon="13.6872122"><ele>919.4</ele><time>2026-05-03T08:25:22.316Z</time></trkpt><trkpt lat="42.2711621" lon="13.6870855"><ele>918.8</ele><time>2026-05-03T08:25:23.308Z</time></trkpt><trkpt lat="42.2712125" lon="13.6869798"><ele>918.2</ele><time>2026-05-03T08:25:24.313Z</time></trkpt><trkpt lat="42.2712716" lon="13.6868774"><ele>917.6</ele><time>2026-05-03T08:25:25.319Z</time></trkpt><trkpt lat="42.2713224" lon="13.6868053"><ele>917.0</ele><time>2026-05-03T08:25:26.312Z</time></trkpt><trkpt lat="42.271423" lon="13.6867887"><ele>918.1666666666667</ele><time>2026-05-03T08:25:28.319Z</time></trkpt><trkpt lat="42.2714662" lon="13.6868548"><ele>919.3333333333334</ele><time>2026-05-03T08:25:29.313Z</time></trkpt><trkpt lat="42.2714803" lon="13.6869411"><ele>920.5</ele><time>2026-05-03T08:25:30.311Z</time></trkpt><trkpt lat="42.271452" lon="13.687094"><ele>921.6666666666667</ele><time>2026-05-03T08:25:32.311Z</time></trkpt><trkpt lat="42.2714189" lon="13.6871921"><ele>922.8333333333334</ele><time>2026-05-03T08:25:33.309Z</time></trkpt><trkpt lat="42.2713778" lon="13.6872928"><ele>924.0</ele><time>2026-05-03T08:25:34.318Z</time></trkpt><trkpt lat="42.2713608" lon="13.687396"><ele>924.0</ele><time>2026-05-03T08:25:35.318Z</time></trkpt><trkpt lat="42.2713586" lon="13.6874965"><ele>924.0</ele><time>2026-05-03T08:25:36.316Z</time></trkpt><trkpt lat="42.2713704" lon="13.6875911"><ele>924.0</ele><time>2026-05-03T08:25:37.318Z</time></trkpt><trkpt lat="42.2713881" lon="13.6876946"><ele>924.0</ele><time>2026-05-03T08:25:38.321Z</time></trkpt><trkpt lat="42.2714037" lon="13.687816"><ele>924.0</ele><time>2026-05-03T08:25:39.328Z</time></trkpt><trkpt lat="42.2714235" lon="13.6879213"><ele>924.0</ele><time>2026-05-03T08:25:40.326Z</time></trkpt><trkpt lat="42.2714421" lon="13.6880283"><ele>927.0</ele><time>2026-05-03T08:25:41.351Z</time></trkpt><trkpt lat="42.2714859" lon="13.6881023"><ele>930.0</ele><time>2026-05-03T08:25:42.324Z</time></trkpt><trkpt lat="42.2715357" lon="13.688175"><ele>933.0</ele><time>2026-05-03T08:25:43.329Z</time></trkpt><trkpt lat="42.2715883" lon="13.6882328"><ele>936.0</ele><time>2026-05-03T08:25:44.33Z</time></trkpt><trkpt lat="42.2716629" lon="13.6882792"><ele>939.0</ele><time>2026-05-03T08:25:45.331Z</time></trkpt><trkpt lat="42.2717524" lon="13.6883066"><ele>942.0</ele><time>2026-05-03T08:25:46.325Z</time></trkpt><trkpt lat="42.2718376" lon="13.6883224"><ele>942.0</ele><time>2026-05-03T08:25:47.332Z</time></trkpt><trkpt lat="42.2719193" lon="13.6883512"><ele>942.0</ele><time>2026-05-03T08:25:48.332Z</time></trkpt><trkpt lat="42.2719998" lon="13.6883924"><ele>942.0</ele><time>2026-05-03T08:25:49.338Z</time></trkpt><trkpt lat="42.2720823" lon="13.6884317"><ele>942.0</ele><time>2026-05-03T08:25:50.326Z</time></trkpt><trkpt lat="42.2721654" lon="13.6884709"><ele>942.0</ele><time>2026-05-03T08:25:51.33Z</time></trkpt><trkpt lat="42.2722451" lon="13.6885142"><ele>942.0</ele><time>2026-05-03T08:25:52.33Z</time></trkpt><trkpt lat="42.2723291" lon="13.6885562"><ele>940.8</ele><time>2026-05-03T08:25:53.33Z</time></trkpt><trkpt lat="42.2724247" lon="13.6886094"><ele>939.6</ele><time>2026-05-03T08:25:54.325Z</time></trkpt><trkpt lat="42.2725301" lon="13.688673"><ele>938.3999999999999</ele><time>2026-05-03T08:25:55.331Z</time></trkpt><trkpt lat="42.2726322" lon="13.6887416"><ele>937.1999999999999</ele><time>2026-05-03T08:25:56.326Z</time></trkpt><trkpt lat="42.2727167" lon="13.6888185"><ele>936.0</ele><time>2026-05-03T08:25:57.333Z</time></trkpt><trkpt lat="42.2728091" lon="13.6888911"><ele>936.0</ele><time>2026-05-03T08:25:58.323Z</time></trkpt><trkpt lat="42.272895" lon="13.6889598"><ele>935.9999999999999</ele><time>2026-05-03T08:25:59.323Z</time></trkpt><trkpt lat="42.2729814" lon="13.6890286"><ele>935.9999999999999</ele><time>2026-05-03T08:26:00.328Z</time></trkpt><trkpt lat="42.2730652" lon="13.6891018"><ele>936.0</ele><time>2026-05-03T08:26:01.331Z</time></trkpt><trkpt lat="42.2731362" lon="13.6891871"><ele>936.0</ele><time>2026-05-03T08:26:02.329Z</time></trkpt><trkpt lat="42.2732023" lon="13.6892642"><ele>936.1666666666666</ele><time>2026-05-03T08:26:03.332Z</time></trkpt><trkpt lat="42.2732602" lon="13.689332"><ele>936.3333333333333</ele><time>2026-05-03T08:26:04.332Z</time></trkpt><trkpt lat="42.2733151" lon="13.6893951"><ele>936.5</ele><time>2026-05-03T08:26:05.329Z</time></trkpt><trkpt lat="42.2733741" lon="13.6894467"><ele>936.6666666666666</ele><time>2026-05-03T08:26:06.327Z</time></trkpt><trkpt lat="42.2734297" lon="13.6894974"><ele>936.8333333333333</ele><time>2026-05-03T08:26:07.322Z</time></trkpt><trkpt lat="42.2735456" lon="13.6895267"><ele>937.0</ele><time>2026-05-03T08:26:09.323Z</time></trkpt><trkpt lat="42.2736183" lon="13.6895176"><ele>936.9999999999999</ele><time>2026-05-03T08:26:10.331Z</time></trkpt><trkpt lat="42.273694" lon="13.6895046"><ele>937.0</ele><time>2026-05-03T08:26:11.334Z</time></trkpt><trkpt lat="42.2737713" lon="13.6894823"><ele>937.0</ele><time>2026-05-03T08:26:12.327Z</time></trkpt><trkpt lat="42.2738436" lon="13.6894416"><ele>937.0</ele><time>2026-05-03T08:26:13.326Z</time></trkpt><trkpt lat="42.2739643" lon="13.6893499"><ele>936.9999999999999</ele><time>2026-05-03T08:26:15.323Z</time></trkpt><trkpt lat="42.2740293" lon="13.6892944"><ele>937.0</ele><time>2026-05-03T08:26:16.326Z</time></trkpt><trkpt lat="42.2740914" lon="13.6892267"><ele>940.6666666666666</ele><time>2026-05-03T08:26:17.323Z</time></trkpt><trkpt lat="42.2741528" lon="13.689161"><ele>944.3333333333333</ele><time>2026-05-03T08:26:18.316Z</time></trkpt><trkpt lat="42.2742094" lon="13.6891046"><ele>948.0</ele><time>2026-05-03T08:26:19.331Z</time></trkpt><trkpt lat="42.2742637" lon="13.689061"><ele>951.6666666666667</ele><time>2026-05-03T08:26:20.33Z</time></trkpt><trkpt lat="42.2743153" lon="13.6890063"><ele>955.3333333333334</ele><time>2026-05-03T08:26:21.325Z</time></trkpt><trkpt lat="42.2743768" lon="13.6889493"><ele>959.0</ele><time>2026-05-03T08:26:22.327Z</time></trkpt><trkpt lat="42.2744946" lon="13.6888685"><ele>959.0000000000001</ele><time>2026-05-03T08:26:24.324Z</time></trkpt><trkpt lat="42.2745655" lon="13.6888264"><ele>959.0</ele><time>2026-05-03T08:26:25.326Z</time></trkpt><trkpt lat="42.2746301" lon="13.6887842"><ele>959.0</ele><time>2026-05-03T08:26:26.331Z</time></trkpt><trkpt lat="42.2746943" lon="13.6887484"><ele>959.0</ele><time>2026-05-03T08:26:27.322Z</time></trkpt><trkpt lat="42.274762" lon="13.6887136"><ele>959.0000000000001</ele><time>2026-05-03T08:26:28.324Z</time></trkpt><trkpt lat="42.2748412" lon="13.6886799"><ele>959.0</ele><time>2026-05-03T08:26:29.319Z</time></trkpt><trkpt lat="42.2749208" lon="13.6886384"><ele>958.7142857142858</ele><time>2026-05-03T08:26:30.327Z</time></trkpt><trkpt lat="42.2749933" lon="13.688602"><ele>958.4285714285714</ele><time>2026-05-03T08:26:31.329Z</time></trkpt><trkpt lat="42.2750704" lon="13.6885621"><ele>958.1428571428571</ele><time>2026-05-03T08:26:32.327Z</time></trkpt><trkpt lat="42.2751398" lon="13.6885197"><ele>957.8571428571429</ele><time>2026-05-03T08:26:33.326Z</time></trkpt><trkpt lat="42.2752021" lon="13.6884849"><ele>957.5714285714287</ele><time>2026-05-03T08:26:34.324Z</time></trkpt><trkpt lat="42.2752655" lon="13.6884502"><ele>957.2857142857143</ele><time>2026-05-03T08:26:35.322Z</time></trkpt><trkpt lat="42.275333" lon="13.6884172"><ele>957.0</ele><time>2026-05-03T08:26:36.323Z</time></trkpt><trkpt lat="42.2754016" lon="13.6883737"><ele>958.0</ele><time>2026-05-03T08:26:37.325Z</time></trkpt><trkpt lat="42.2755113" lon="13.6883165"><ele>959.0</ele><time>2026-05-03T08:26:39.322Z</time></trkpt><trkpt lat="42.2755784" lon="13.6882685"><ele>960.0</ele><time>2026-05-03T08:26:41.324Z</time></trkpt><trkpt lat="42.2756685" lon="13.6882725"><ele>961.0</ele><time>2026-05-03T08:27:18.322Z</time></trkpt><trkpt lat="42.2757682" lon="13.6882248"><ele>962.0</ele><time>2026-05-03T08:27:20.334Z</time></trkpt><trkpt lat="42.2758251" lon="13.6881876"><ele>962.0000000000001</ele><time>2026-05-03T08:27:21.33Z</time></trkpt><trkpt lat="42.2758839" lon="13.6881502"><ele>962.0</ele><time>2026-05-03T08:27:22.324Z</time></trkpt><trkpt lat="42.2759457" lon="13.6880981"><ele>962.0</ele><time>2026-05-03T08:27:23.326Z</time></trkpt><trkpt lat="42.2760488" lon="13.6880205"><ele>962.0</ele><time>2026-05-03T08:27:25.327Z</time></trkpt><trkpt lat="42.2761634" lon="13.687947"><ele>962.0000000000001</ele><time>2026-05-03T08:27:27.334Z</time></trkpt><trkpt lat="42.2762186" lon="13.6879"><ele>962.0</ele><time>2026-05-03T08:27:28.335Z</time></trkpt><trkpt lat="42.2762857" lon="13.6878552"><ele>962.0</ele><time>2026-05-03T08:27:29.332Z</time></trkpt><trkpt lat="42.276357" lon="13.6877941"><ele>962.0</ele><time>2026-05-03T08:27:30.33Z</time></trkpt><trkpt lat="42.2764301" lon="13.6877303"><ele>962.0</ele><time>2026-05-03T08:27:31.337Z</time></trkpt><trkpt lat="42.2765077" lon="13.6876631"><ele>962.0</ele><time>2026-05-03T08:27:32.333Z</time></trkpt><trkpt lat="42.2765893" lon="13.6876069"><ele>962.0</ele><time>2026-05-03T08:27:33.33Z</time></trkpt><trkpt lat="42.2766741" lon="13.6875408"><ele>963.4000000000001</ele><time>2026-05-03T08:27:34.329Z</time></trkpt><trkpt lat="42.2767608" lon="13.6874743"><ele>964.8000000000001</ele><time>2026-05-03T08:27:35.324Z</time></trkpt><trkpt lat="42.2768604" lon="13.687408"><ele>966.2</ele><time>2026-05-03T08:27:36.332Z</time></trkpt><trkpt lat="42.276957" lon="13.6873479"><ele>967.6</ele><time>2026-05-03T08:27:37.325Z</time></trkpt><trkpt lat="42.2770491" lon="13.6872915"><ele>969.0</ele><time>2026-05-03T08:27:38.33Z</time></trkpt><trkpt lat="42.2771464" lon="13.6872388"><ele>969.0</ele><time>2026-05-03T08:27:39.331Z</time></trkpt><trkpt lat="42.2772347" lon="13.6871769"><ele>969.0000000000001</ele><time>2026-05-03T08:27:40.328Z</time></trkpt><trkpt lat="42.2773285" lon="13.6871177"><ele>969.0000000000001</ele><time>2026-05-03T08:27:41.329Z</time></trkpt><trkpt lat="42.2774132" lon="13.6870507"><ele>969.0</ele><time>2026-05-03T08:27:42.329Z</time></trkpt><trkpt lat="42.2774786" lon="13.6869832"><ele>969.0</ele><time>2026-05-03T08:27:43.322Z</time></trkpt><trkpt lat="42.2775298" lon="13.6869249"><ele>968.1666666666666</ele><time>2026-05-03T08:27:44.339Z</time></trkpt><trkpt lat="42.2775943" lon="13.6868349"><ele>967.3333333333333</ele><time>2026-05-03T08:27:46.336Z</time></trkpt><trkpt lat="42.2776579" lon="13.6868492"><ele>966.5</ele><time>2026-05-03T08:27:49.328Z</time></trkpt><trkpt lat="42.2776983" lon="13.6869415"><ele>965.6666666666666</ele><time>2026-05-03T08:27:51.326Z</time></trkpt><trkpt lat="42.2776984" lon="13.6870748"><ele>964.8333333333333</ele><time>2026-05-03T08:27:53.33Z</time></trkpt><trkpt lat="42.2777209" lon="13.6872122"><ele>964.0</ele><time>2026-05-03T08:27:55.326Z</time></trkpt><trkpt lat="42.2777475" lon="13.6873699"><ele>964.0</ele><time>2026-05-03T08:27:57.329Z</time></trkpt><trkpt lat="42.2776897" lon="13.6875094"><ele>964.0000000000001</ele><time>2026-05-03T08:27:59.332Z</time></trkpt><trkpt lat="42.2776504" lon="13.6876193"><ele>964.0000000000001</ele><time>2026-05-03T08:28:00.332Z</time></trkpt><trkpt lat="42.2776224" lon="13.6877308"><ele>964.0</ele><time>2026-05-03T08:28:01.336Z</time></trkpt><trkpt lat="42.2775936" lon="13.6878233"><ele>964.0</ele><time>2026-05-03T08:28:02.334Z</time></trkpt><trkpt lat="42.2775481" lon="13.6879744"><ele>963.0</ele><time>2026-05-03T08:28:04.336Z</time></trkpt><trkpt lat="42.2774543" lon="13.688089"><ele>962.0000000000001</ele><time>2026-05-03T08:28:06.335Z</time></trkpt><trkpt lat="42.2774193" lon="13.6881683"><ele>961.0000000000001</ele><time>2026-05-03T08:28:07.329Z</time></trkpt><trkpt lat="42.2773936" lon="13.6882681"><ele>960.0</ele><time>2026-05-03T08:28:09.333Z</time></trkpt><trkpt lat="42.2774461" lon="13.6883306"><ele>959.0</ele><time>2026-05-03T08:28:11.332Z</time></trkpt><trkpt lat="42.2775527" lon="13.6883874"><ele>959.0000000000001</ele><time>2026-05-03T08:28:13.329Z</time></trkpt><trkpt lat="42.2776209" lon="13.6883844"><ele>959.0</ele><time>2026-05-03T08:28:14.332Z</time></trkpt><trkpt lat="42.2776849" lon="13.6883619"><ele>959.0</ele><time>2026-05-03T08:28:15.352Z</time></trkpt><trkpt lat="42.2778022" lon="13.6884215"><ele>959.0</ele><time>2026-05-03T08:28:17.328Z</time></trkpt><trkpt lat="42.277858" lon="13.6884722"><ele>959.0000000000001</ele><time>2026-05-03T08:28:18.333Z</time></trkpt><trkpt lat="42.2779303" lon="13.6885037"><ele>959.0</ele><time>2026-05-03T08:28:19.342Z</time></trkpt><trkpt lat="42.2779982" lon="13.6885206"><ele>959.0</ele><time>2026-05-03T08:28:20.34Z</time></trkpt><trkpt lat="42.2780644" lon="13.688536"><ele>959.0</ele><time>2026-05-03T08:28:21.336Z</time></trkpt><trkpt lat="42.2781378" lon="13.6885494"><ele>959.0</ele><time>2026-05-03T08:28:22.335Z</time></trkpt><trkpt lat="42.278203" lon="13.6885719"><ele>959.0</ele><time>2026-05-03T08:28:23.335Z</time></trkpt><trkpt lat="42.2782658" lon="13.6886165"><ele>959.0</ele><time>2026-05-03T08:28:24.332Z</time></trkpt><trkpt lat="42.2783337" lon="13.6886723"><ele>959.0</ele><time>2026-05-03T08:28:25.337Z</time></trkpt><trkpt lat="42.2784075" lon="13.6887207"><ele>959.0</ele><time>2026-05-03T08:28:26.33Z</time></trkpt><trkpt lat="42.278472" lon="13.6887847"><ele>958.3333333333334</ele><time>2026-05-03T08:28:27.335Z</time></trkpt><trkpt lat="42.2785331" lon="13.688851"><ele>957.6666666666667</ele><time>2026-05-03T08:28:28.329Z</time></trkpt><trkpt lat="42.2785923" lon="13.6889363"><ele>957.0</ele><time>2026-05-03T08:28:29.332Z</time></trkpt><trkpt lat="42.2786475" lon="13.6890194"><ele>956.3333333333333</ele><time>2026-05-03T08:28:30.335Z</time></trkpt><trkpt lat="42.2787004" lon="13.6891062"><ele>955.6666666666666</ele><time>2026-05-03T08:28:31.334Z</time></trkpt><trkpt lat="42.2787472" lon="13.6891851"><ele>955.0</ele><time>2026-05-03T08:28:32.331Z</time></trkpt><trkpt lat="42.2788078" lon="13.6892611"><ele>954.9999999999999</ele><time>2026-05-03T08:28:33.336Z</time></trkpt><trkpt lat="42.2788665" lon="13.6893355"><ele>955.0</ele><time>2026-05-03T08:28:34.335Z</time></trkpt><trkpt lat="42.2789278" lon="13.6894043"><ele>955.0</ele><time>2026-05-03T08:28:35.334Z</time></trkpt><trkpt lat="42.2789895" lon="13.689478"><ele>955.0</ele><time>2026-05-03T08:28:36.338Z</time></trkpt><trkpt lat="42.2790501" lon="13.6895518"><ele>954.9999999999999</ele><time>2026-05-03T08:28:37.337Z</time></trkpt><trkpt lat="42.2791046" lon="13.6896397"><ele>955.0</ele><time>2026-05-03T08:28:38.337Z</time></trkpt><trkpt lat="42.2791714" lon="13.6897173"><ele>955.5714285714284</ele><time>2026-05-03T08:28:39.336Z</time></trkpt><trkpt lat="42.2792384" lon="13.6897871"><ele>956.1428571428571</ele><time>2026-05-03T08:28:40.333Z</time></trkpt><trkpt lat="42.2793094" lon="13.6898236"><ele>956.7142857142857</ele><time>2026-05-03T08:28:41.334Z</time></trkpt><trkpt lat="42.279386" lon="13.6898417"><ele>957.2857142857142</ele><time>2026-05-03T08:28:42.333Z</time></trkpt><trkpt lat="42.2794633" lon="13.6898423"><ele>957.8571428571429</ele><time>2026-05-03T08:28:43.338Z</time></trkpt><trkpt lat="42.2795282" lon="13.6898475"><ele>958.4285714285714</ele><time>2026-05-03T08:28:44.334Z</time></trkpt><trkpt lat="42.2795879" lon="13.6898748"><ele>959.0</ele><time>2026-05-03T08:28:45.328Z</time></trkpt><trkpt lat="42.2796456" lon="13.6899416"><ele>959.0000000000001</ele><time>2026-05-03T08:28:46.338Z</time></trkpt><trkpt lat="42.2796908" lon="13.6900387"><ele>959.0</ele><time>2026-05-03T08:28:47.33Z</time></trkpt><trkpt lat="42.2797404" lon="13.6901164"><ele>959.0</ele><time>2026-05-03T08:28:48.332Z</time></trkpt><trkpt lat="42.2797939" lon="13.6901753"><ele>959.0</ele><time>2026-05-03T08:28:49.326Z</time></trkpt><trkpt lat="42.2798637" lon="13.690209"><ele>959.0000000000001</ele><time>2026-05-03T08:28:50.328Z</time></trkpt><trkpt lat="42.2799676" lon="13.6902686"><ele>959.0</ele><time>2026-05-03T08:28:52.326Z</time></trkpt><trkpt lat="42.2800689" lon="13.690283"><ele>959.75</ele><time>2026-05-03T08:28:54.335Z</time></trkpt><trkpt lat="42.2801848" lon="13.6903003"><ele>960.5</ele><time>2026-05-03T08:28:56.32Z</time></trkpt><trkpt lat="42.2802992" lon="13.6903358"><ele>961.25</ele><time>2026-05-03T08:28:58.329Z</time></trkpt><trkpt lat="42.2803983" lon="13.6904344"><ele>962.0</ele><time>2026-05-03T08:29:00.326Z</time></trkpt><trkpt lat="42.280475" lon="13.6905607"><ele>961.9999999999999</ele><time>2026-05-03T08:29:02.325Z</time></trkpt><trkpt lat="42.2805135" lon="13.6906436"><ele>962.0</ele><time>2026-05-03T08:29:03.322Z</time></trkpt><trkpt lat="42.2805338" lon="13.6907291"><ele>961.9999999999999</ele><time>2026-05-03T08:29:04.324Z</time></trkpt><trkpt lat="42.2805485" lon="13.6908174"><ele>961.9999999999999</ele><time>2026-05-03T08:29:05.313Z</time></trkpt><trkpt lat="42.2805543" lon="13.6909239"><ele>962.0</ele><time>2026-05-03T08:29:06.321Z</time></trkpt><trkpt lat="42.2805568" lon="13.6910322"><ele>961.9999999999999</ele><time>2026-05-03T08:29:07.314Z</time></trkpt><trkpt lat="42.2805467" lon="13.6911359"><ele>961.9999999999999</ele><time>2026-05-03T08:29:08.32Z</time></trkpt><trkpt lat="42.2805275" lon="13.691258"><ele>962.5000000000001</ele><time>2026-05-03T08:29:09.316Z</time></trkpt><trkpt lat="42.2805069" lon="13.6913728"><ele>963.0</ele><time>2026-05-03T08:29:10.323Z</time></trkpt><trkpt lat="42.2804922" lon="13.6914829"><ele>963.5</ele><time>2026-05-03T08:29:11.318Z</time></trkpt><trkpt lat="42.2804648" lon="13.6915874"><ele>964.0</ele><time>2026-05-03T08:29:12.325Z</time></trkpt><trkpt lat="42.2804446" lon="13.6916863"><ele>964.5000000000001</ele><time>2026-05-03T08:29:13.32Z</time></trkpt><trkpt lat="42.2804028" lon="13.6917779"><ele>965.0</ele><time>2026-05-03T08:29:14.318Z</time></trkpt><trkpt lat="42.2803561" lon="13.6918707"><ele>967.1666666666667</ele><time>2026-05-03T08:29:15.321Z</time></trkpt><trkpt lat="42.280316" lon="13.69196"><ele>969.3333333333334</ele><time>2026-05-03T08:29:16.321Z</time></trkpt><trkpt lat="42.280281" lon="13.6920638"><ele>971.5</ele><time>2026-05-03T08:29:17.335Z</time></trkpt><trkpt lat="42.2802506" lon="13.6921679"><ele>973.6666666666667</ele><time>2026-05-03T08:29:18.318Z</time></trkpt><trkpt lat="42.2802143" lon="13.6922888"><ele>975.8333333333334</ele><time>2026-05-03T08:29:19.325Z</time></trkpt><trkpt lat="42.2801841" lon="13.6923946"><ele>978.0</ele><time>2026-05-03T08:29:20.327Z</time></trkpt><trkpt lat="42.280146" lon="13.6924981"><ele>978.0</ele><time>2026-05-03T08:29:21.324Z</time></trkpt><trkpt lat="42.2801045" lon="13.6926139"><ele>978.0</ele><time>2026-05-03T08:29:22.325Z</time></trkpt><trkpt lat="42.2800596" lon="13.692715"><ele>978.0</ele><time>2026-05-03T08:29:23.327Z</time></trkpt><trkpt lat="42.280021" lon="13.6928067"><ele>978.0</ele><time>2026-05-03T08:29:24.327Z</time></trkpt><trkpt lat="42.2800004" lon="13.6928933"><ele>978.0</ele><time>2026-05-03T08:29:25.329Z</time></trkpt><trkpt lat="42.2799957" lon="13.6930681"><ele>978.6666666666666</ele><time>2026-05-03T08:29:27.334Z</time></trkpt><trkpt lat="42.2800112" lon="13.6931846"><ele>979.3333333333333</ele><time>2026-05-03T08:29:28.329Z</time></trkpt><trkpt lat="42.280031" lon="13.6932961"><ele>980.0</ele><time>2026-05-03T08:29:29.333Z</time></trkpt><trkpt lat="42.2800408" lon="13.693414"><ele>980.6666666666666</ele><time>2026-05-03T08:29:30.336Z</time></trkpt><trkpt lat="42.280047" lon="13.6935457"><ele>981.3333333333333</ele><time>2026-05-03T08:29:31.337Z</time></trkpt><trkpt lat="42.2800569" lon="13.6936609"><ele>982.0</ele><time>2026-05-03T08:29:32.338Z</time></trkpt><trkpt lat="42.2800506" lon="13.6937905"><ele>982.0</ele><time>2026-05-03T08:29:33.338Z</time></trkpt><trkpt lat="42.2800472" lon="13.693939"><ele>982.0</ele><time>2026-05-03T08:29:34.342Z</time></trkpt><trkpt lat="42.2800559" lon="13.6940755"><ele>982.0</ele><time>2026-05-03T08:29:35.341Z</time></trkpt><trkpt lat="42.2800549" lon="13.6942184"><ele>982.0</ele><time>2026-05-03T08:29:36.343Z</time></trkpt><trkpt lat="42.280042" lon="13.6943659"><ele>982.0</ele><time>2026-05-03T08:29:37.344Z</time></trkpt><trkpt lat="42.2800382" lon="13.6945202"><ele>981.1666666666666</ele><time>2026-05-03T08:29:38.341Z</time></trkpt><trkpt lat="42.2800436" lon="13.6946593"><ele>980.3333333333333</ele><time>2026-05-03T08:29:39.339Z</time></trkpt><trkpt lat="42.280038" lon="13.6947823"><ele>979.5</ele><time>2026-05-03T08:29:40.337Z</time></trkpt><trkpt lat="42.2800155" lon="13.6948934"><ele>978.6666666666667</ele><time>2026-05-03T08:29:41.336Z</time></trkpt><trkpt lat="42.2799993" lon="13.6949929"><ele>977.8333333333334</ele><time>2026-05-03T08:29:42.343Z</time></trkpt><trkpt lat="42.279998" lon="13.695116"><ele>977.0</ele><time>2026-05-03T08:29:43.332Z</time></trkpt><trkpt lat="42.2800141" lon="13.69524"><ele>975.8333333333334</ele><time>2026-05-03T08:29:44.333Z</time></trkpt><trkpt lat="42.2800542" lon="13.6953672"><ele>974.6666666666667</ele><time>2026-05-03T08:29:45.33Z</time></trkpt><trkpt lat="42.280085" lon="13.6954574"><ele>973.5</ele><time>2026-05-03T08:29:46.337Z</time></trkpt><trkpt lat="42.2801576" lon="13.6955475"><ele>972.3333333333333</ele><time>2026-05-03T08:29:48.345Z</time></trkpt><trkpt lat="42.2802469" lon="13.6955993"><ele>971.1666666666666</ele><time>2026-05-03T08:29:50.338Z</time></trkpt><trkpt lat="42.2803039" lon="13.6956484"><ele>970.0</ele><time>2026-05-03T08:29:51.329Z</time></trkpt><trkpt lat="42.2803668" lon="13.6957039"><ele>969.9999999999999</ele><time>2026-05-03T08:29:52.341Z</time></trkpt><trkpt lat="42.2804322" lon="13.6957609"><ele>970.0</ele><time>2026-05-03T08:29:53.342Z</time></trkpt><trkpt lat="42.2804873" lon="13.6958181"><ele>970.0</ele><time>2026-05-03T08:29:54.348Z</time></trkpt><trkpt lat="42.2805544" lon="13.6958835"><ele>970.0</ele><time>2026-05-03T08:29:55.345Z</time></trkpt><trkpt lat="42.2806162" lon="13.6959366"><ele>969.9999999999999</ele><time>2026-05-03T08:29:56.343Z</time></trkpt><trkpt lat="42.2807304" lon="13.6959625"><ele>970.0</ele><time>2026-05-03T08:29:58.345Z</time></trkpt><trkpt lat="42.2807933" lon="13.695942"><ele>972.6666666666666</ele><time>2026-05-03T08:29:59.346Z</time></trkpt><trkpt lat="42.2808626" lon="13.6959224"><ele>975.3333333333333</ele><time>2026-05-03T08:30:00.346Z</time></trkpt><trkpt lat="42.2809253" lon="13.6958973"><ele>978.0</ele><time>2026-05-03T08:30:01.345Z</time></trkpt><trkpt lat="42.2809952" lon="13.6958635"><ele>980.6666666666667</ele><time>2026-05-03T08:30:02.339Z</time></trkpt><trkpt lat="42.2810585" lon="13.6958266"><ele>983.3333333333334</ele><time>2026-05-03T08:30:03.346Z</time></trkpt><trkpt lat="42.2811494" lon="13.695762"><ele>986.0</ele><time>2026-05-03T08:30:05.334Z</time></trkpt><trkpt lat="42.2812352" lon="13.6957025"><ele>986.0</ele><time>2026-05-03T08:30:07.333Z</time></trkpt><trkpt lat="42.2813282" lon="13.6957196"><ele>985.9999999999999</ele><time>2026-05-03T08:30:09.328Z</time></trkpt><trkpt lat="42.2813981" lon="13.6958388"><ele>985.9999999999999</ele><time>2026-05-03T08:30:11.347Z</time></trkpt><trkpt lat="42.2814168" lon="13.6959281"><ele>986.0</ele><time>2026-05-03T08:30:13.343Z</time></trkpt><trkpt lat="42.2814688" lon="13.6960253"><ele>986.0</ele><time>2026-05-03T08:30:15.347Z</time></trkpt><trkpt lat="42.281515" lon="13.6961512"><ele>986.5714285714286</ele><time>2026-05-03T08:30:17.346Z</time></trkpt><trkpt lat="42.2815383" lon="13.6962355"><ele>987.1428571428571</ele><time>2026-05-03T08:30:18.343Z</time></trkpt><trkpt lat="42.2815691" lon="13.6963206"><ele>987.7142857142857</ele><time>2026-05-03T08:30:19.376Z</time></trkpt><trkpt lat="42.281617" lon="13.6963883"><ele>988.2857142857142</ele><time>2026-05-03T08:30:20.349Z</time></trkpt><trkpt lat="42.2816813" lon="13.6964575"><ele>988.8571428571429</ele><time>2026-05-03T08:30:21.342Z</time></trkpt><trkpt lat="42.2817439" lon="13.6965149"><ele>989.4285714285713</ele><time>2026-05-03T08:30:22.349Z</time></trkpt><trkpt lat="42.2817988" lon="13.6965606"><ele>989.9999999999999</ele><time>2026-05-03T08:30:23.344Z</time></trkpt><trkpt lat="42.2818937" lon="13.6966708"><ele>990.0</ele><time>2026-05-03T08:30:25.339Z</time></trkpt><trkpt lat="42.2819425" lon="13.6967342"><ele>990.0</ele><time>2026-05-03T08:30:26.336Z</time></trkpt><trkpt lat="42.2820293" lon="13.6968436"><ele>990.0</ele><time>2026-05-03T08:30:28.334Z</time></trkpt><trkpt lat="42.2821057" lon="13.6968272"><ele>990.0</ele><time>2026-05-03T08:30:30.341Z</time></trkpt><trkpt lat="42.2821402" lon="13.696702"><ele>990.0</ele><time>2026-05-03T08:30:32.331Z</time></trkpt><trkpt lat="42.2820893" lon="13.6966101"><ele>990.0</ele><time>2026-05-03T08:30:34.334Z</time></trkpt><trkpt lat="42.2820278" lon="13.6965639"><ele>990.0</ele><time>2026-05-03T08:30:40.344Z</time></trkpt><trkpt lat="42.2820306" lon="13.6964727"><ele>990.0</ele><time>2026-05-03T08:30:50.338Z</time></trkpt><trkpt lat="42.2820607" lon="13.6963738"><ele>990.0</ele><time>2026-05-03T08:30:52.341Z</time></trkpt><trkpt lat="42.28211" lon="13.6962581"><ele>990.0</ele><time>2026-05-03T08:30:54.343Z</time></trkpt><trkpt lat="42.2821722" lon="13.6961641"><ele>990.0</ele><time>2026-05-03T08:30:56.339Z</time></trkpt><trkpt lat="42.2822288" lon="13.6960576"><ele>990.0</ele><time>2026-05-03T08:30:58.34Z</time></trkpt><trkpt lat="42.2822611" lon="13.6959409"><ele>986.3333333333334</ele><time>2026-05-03T08:31:00.334Z</time></trkpt><trkpt lat="42.2822865" lon="13.6957785"><ele>982.6666666666667</ele><time>2026-05-03T08:31:02.337Z</time></trkpt><trkpt lat="42.2822892" lon="13.6956671"><ele>979.0</ele><time>2026-05-03T08:31:03.343Z</time></trkpt><trkpt lat="42.2822909" lon="13.6955749"><ele>975.3333333333334</ele><time>2026-05-03T08:31:04.348Z</time></trkpt><trkpt lat="42.2822888" lon="13.6954883"><ele>971.6666666666667</ele><time>2026-05-03T08:31:05.342Z</time></trkpt><trkpt lat="42.2822996" lon="13.6954027"><ele>968.0</ele><time>2026-05-03T08:31:06.344Z</time></trkpt><trkpt lat="42.2822984" lon="13.6953096"><ele>967.5000000000001</ele><time>2026-05-03T08:31:07.343Z</time></trkpt><trkpt lat="42.2823054" lon="13.6952081"><ele>967.0</ele><time>2026-05-03T08:31:08.345Z</time></trkpt><trkpt lat="42.2823158" lon="13.6950914"><ele>966.5</ele><time>2026-05-03T08:31:09.344Z</time></trkpt><trkpt lat="42.2823266" lon="13.6949684"><ele>966.0</ele><time>2026-05-03T08:31:10.345Z</time></trkpt><trkpt lat="42.282323" lon="13.6948705"><ele>965.5000000000001</ele><time>2026-05-03T08:31:11.341Z</time></trkpt><trkpt lat="42.2823126" lon="13.6947813"><ele>965.0</ele><time>2026-05-03T08:31:12.342Z</time></trkpt><trkpt lat="42.2822965" lon="13.6946888"><ele>965.0000000000001</ele><time>2026-05-03T08:31:13.342Z</time></trkpt><trkpt lat="42.2822829" lon="13.6946011"><ele>965.0</ele><time>2026-05-03T08:31:14.339Z</time></trkpt><trkpt lat="42.2822726" lon="13.6945163"><ele>965.0</ele><time>2026-05-03T08:31:15.338Z</time></trkpt><trkpt lat="42.2822467" lon="13.6943624"><ele>965.0</ele><time>2026-05-03T08:31:17.337Z</time></trkpt><trkpt lat="42.282226" lon="13.6942101"><ele>965.0000000000001</ele><time>2026-05-03T08:31:19.336Z</time></trkpt><trkpt lat="42.2822288" lon="13.6941026"><ele>965.0</ele><time>2026-05-03T08:31:20.343Z</time></trkpt><trkpt lat="42.2822451" lon="13.6939768"><ele>963.6666666666667</ele><time>2026-05-03T08:31:21.33Z</time></trkpt><trkpt lat="42.2822577" lon="13.693856"><ele>962.3333333333334</ele><time>2026-05-03T08:31:22.329Z</time></trkpt><trkpt lat="42.2822927" lon="13.6937378"><ele>961.0</ele><time>2026-05-03T08:31:23.329Z</time></trkpt><trkpt lat="42.2823195" lon="13.6936299"><ele>959.6666666666667</ele><time>2026-05-03T08:31:24.33Z</time></trkpt><trkpt lat="42.2823371" lon="13.6935413"><ele>958.3333333333334</ele><time>2026-05-03T08:31:25.327Z</time></trkpt><trkpt lat="42.2823432" lon="13.693439"><ele>957.0</ele><time>2026-05-03T08:31:26.328Z</time></trkpt><trkpt lat="42.282354" lon="13.6933268"><ele>957.1666666666666</ele><time>2026-05-03T08:31:27.326Z</time></trkpt><trkpt lat="42.2823719" lon="13.6932045"><ele>957.3333333333333</ele><time>2026-05-03T08:31:28.331Z</time></trkpt><trkpt lat="42.282384" lon="13.693082"><ele>957.5</ele><time>2026-05-03T08:31:29.329Z</time></trkpt><trkpt lat="42.2824037" lon="13.6929615"><ele>957.6666666666666</ele><time>2026-05-03T08:31:30.335Z</time></trkpt><trkpt lat="42.2824267" lon="13.6928587"><ele>957.8333333333333</ele><time>2026-05-03T08:31:31.334Z</time></trkpt><trkpt lat="42.2824575" lon="13.6927483"><ele>958.0</ele><time>2026-05-03T08:31:32.329Z</time></trkpt><trkpt lat="42.2824944" lon="13.6926341"><ele>957.9999999999999</ele><time>2026-05-03T08:31:33.327Z</time></trkpt><trkpt lat="42.2825313" lon="13.6925285"><ele>958.0</ele><time>2026-05-03T08:31:34.327Z</time></trkpt><trkpt lat="42.2825725" lon="13.692423"><ele>958.0</ele><time>2026-05-03T08:31:35.323Z</time></trkpt><trkpt lat="42.2826066" lon="13.6923269"><ele>958.0</ele><time>2026-05-03T08:31:36.32Z</time></trkpt><trkpt lat="42.2826472" lon="13.6922147"><ele>957.9999999999999</ele><time>2026-05-03T08:31:37.32Z</time></trkpt><trkpt lat="42.2826969" lon="13.6921075"><ele>958.0</ele><time>2026-05-03T08:31:38.322Z</time></trkpt><trkpt lat="42.2827561" lon="13.6919854"><ele>960.6666666666666</ele><time>2026-05-03T08:31:39.319Z</time></trkpt><trkpt lat="42.2828142" lon="13.6918849"><ele>963.3333333333333</ele><time>2026-05-03T08:31:40.329Z</time></trkpt><trkpt lat="42.2828619" lon="13.6917967"><ele>966.0</ele><time>2026-05-03T08:31:41.318Z</time></trkpt><trkpt lat="42.2829103" lon="13.6917119"><ele>968.6666666666667</ele><time>2026-05-03T08:31:42.321Z</time></trkpt><trkpt lat="42.2829601" lon="13.6916404"><ele>971.3333333333334</ele><time>2026-05-03T08:31:43.32Z</time></trkpt><trkpt lat="42.2830363" lon="13.6915544"><ele>974.0</ele><time>2026-05-03T08:31:45.316Z</time></trkpt><trkpt lat="42.283111" lon="13.6915096"><ele>967.0</ele><time>2026-05-03T08:31:46.324Z</time></trkpt><trkpt lat="42.2831814" lon="13.6914573"><ele>960.0000000000001</ele><time>2026-05-03T08:31:47.315Z</time></trkpt><trkpt lat="42.2832709" lon="13.6914059"><ele>953.0000000000001</ele><time>2026-05-03T08:31:48.326Z</time></trkpt><trkpt lat="42.2833697" lon="13.6913264"><ele>946.0</ele><time>2026-05-03T08:31:49.317Z</time></trkpt><trkpt lat="42.2834738" lon="13.6912518"><ele>939.0</ele><time>2026-05-03T08:31:50.318Z</time></trkpt><trkpt lat="42.2835666" lon="13.6911851"><ele>939.0</ele><time>2026-05-03T08:31:51.338Z</time></trkpt><trkpt lat="42.2836565" lon="13.6911211"><ele>939.0000000000001</ele><time>2026-05-03T08:31:52.325Z</time></trkpt><trkpt lat="42.2837414" lon="13.6910643"><ele>939.0000000000001</ele><time>2026-05-03T08:31:53.328Z</time></trkpt><trkpt lat="42.2838362" lon="13.691004"><ele>939.0</ele><time>2026-05-03T08:31:54.324Z</time></trkpt><trkpt lat="42.283928" lon="13.6909483"><ele>939.0</ele><time>2026-05-03T08:31:55.326Z</time></trkpt><trkpt lat="42.2840151" lon="13.6908951"><ele>939.6666666666666</ele><time>2026-05-03T08:31:56.322Z</time></trkpt><trkpt lat="42.2840952" lon="13.6908542"><ele>940.3333333333333</ele><time>2026-05-03T08:31:57.323Z</time></trkpt><trkpt lat="42.2841777" lon="13.6908561"><ele>941.0</ele><time>2026-05-03T08:31:58.325Z</time></trkpt><trkpt lat="42.2842673" lon="13.6908704"><ele>941.6666666666666</ele><time>2026-05-03T08:31:59.319Z</time></trkpt><trkpt lat="42.2843511" lon="13.6909175"><ele>942.3333333333333</ele><time>2026-05-03T08:32:00.323Z</time></trkpt><trkpt lat="42.2844271" lon="13.6909684"><ele>943.0</ele><time>2026-05-03T08:32:01.33Z</time></trkpt><trkpt lat="42.2845221" lon="13.6910048"><ele>943.0</ele><time>2026-05-03T08:32:02.329Z</time></trkpt><trkpt lat="42.2846121" lon="13.691045"><ele>943.0</ele><time>2026-05-03T08:32:03.331Z</time></trkpt><trkpt lat="42.284709" lon="13.6910897"><ele>943.0</ele><time>2026-05-03T08:32:04.335Z</time></trkpt><trkpt lat="42.2848108" lon="13.6911298"><ele>943.0</ele><time>2026-05-03T08:32:05.33Z</time></trkpt><trkpt lat="42.2849177" lon="13.6911671"><ele>943.0</ele><time>2026-05-03T08:32:06.331Z</time></trkpt><trkpt lat="42.2850199" lon="13.6912019"><ele>936.2</ele><time>2026-05-03T08:32:07.334Z</time></trkpt><trkpt lat="42.2851239" lon="13.6912247"><ele>929.4</ele><time>2026-05-03T08:32:08.329Z</time></trkpt><trkpt lat="42.2852246" lon="13.6912453"><ele>922.6000000000001</ele><time>2026-05-03T08:32:09.334Z</time></trkpt><trkpt lat="42.2853217" lon="13.6912623"><ele>915.8000000000001</ele><time>2026-05-03T08:32:10.331Z</time></trkpt><trkpt lat="42.2854124" lon="13.691286"><ele>909.0</ele><time>2026-05-03T08:32:11.331Z</time></trkpt><trkpt lat="42.2855107" lon="13.6912868"><ele>909.3333333333334</ele><time>2026-05-03T08:32:12.33Z</time></trkpt><trkpt lat="42.2856068" lon="13.6912712"><ele>909.6666666666667</ele><time>2026-05-03T08:32:13.336Z</time></trkpt><trkpt lat="42.2856967" lon="13.6912487"><ele>910.0</ele><time>2026-05-03T08:32:14.333Z</time></trkpt><trkpt lat="42.2857829" lon="13.6912193"><ele>910.3333333333334</ele><time>2026-05-03T08:32:15.332Z</time></trkpt><trkpt lat="42.2858575" lon="13.6912072"><ele>910.6666666666667</ele><time>2026-05-03T08:32:16.336Z</time></trkpt><trkpt lat="42.285943" lon="13.6911912"><ele>911.0</ele><time>2026-05-03T08:32:17.334Z</time></trkpt><trkpt lat="42.286033" lon="13.6911651"><ele>911.0</ele><time>2026-05-03T08:32:18.331Z</time></trkpt><trkpt lat="42.2861214" lon="13.691131"><ele>910.9999999999999</ele><time>2026-05-03T08:32:19.335Z</time></trkpt><trkpt lat="42.2862165" lon="13.6911059"><ele>910.9999999999999</ele><time>2026-05-03T08:32:20.332Z</time></trkpt><trkpt lat="42.2863249" lon="13.6910822"><ele>911.0</ele><time>2026-05-03T08:32:21.334Z</time></trkpt><trkpt lat="42.286436" lon="13.6910595"><ele>911.0</ele><time>2026-05-03T08:32:22.343Z</time></trkpt><trkpt lat="42.2865562" lon="13.6910404"><ele>916.5999999999999</ele><time>2026-05-03T08:32:23.338Z</time></trkpt><trkpt lat="42.2866658" lon="13.6910189"><ele>922.1999999999999</ele><time>2026-05-03T08:32:24.337Z</time></trkpt><trkpt lat="42.2867751" lon="13.6910059"><ele>927.8000000000001</ele><time>2026-05-03T08:32:25.323Z</time></trkpt><trkpt lat="42.2868773" lon="13.6909843"><ele>933.4000000000001</ele><time>2026-05-03T08:32:26.325Z</time></trkpt><trkpt lat="42.2869677" lon="13.6909562"><ele>939.0</ele><time>2026-05-03T08:32:27.332Z</time></trkpt><trkpt lat="42.2870556" lon="13.6909256"><ele>939.0</ele><time>2026-05-03T08:32:28.338Z</time></trkpt><trkpt lat="42.287148" lon="13.6908947"><ele>939.0000000000001</ele><time>2026-05-03T08:32:29.339Z</time></trkpt><trkpt lat="42.2872457" lon="13.6908427"><ele>939.0000000000001</ele><time>2026-05-03T08:32:30.335Z</time></trkpt><trkpt lat="42.2873382" lon="13.6907832"><ele>939.0</ele><time>2026-05-03T08:32:31.339Z</time></trkpt><trkpt lat="42.2874248" lon="13.6907376"><ele>939.0</ele><time>2026-05-03T08:32:32.331Z</time></trkpt><trkpt lat="42.2875091" lon="13.6906899"><ele>936.3333333333334</ele><time>2026-05-03T08:32:33.34Z</time></trkpt><trkpt lat="42.2875948" lon="13.6906531"><ele>933.6666666666667</ele><time>2026-05-03T08:32:34.333Z</time></trkpt><trkpt lat="42.2876865" lon="13.6906241"><ele>931.0</ele><time>2026-05-03T08:32:35.33Z</time></trkpt><trkpt lat="42.2877809" lon="13.6905986"><ele>928.3333333333334</ele><time>2026-05-03T08:32:36.333Z</time></trkpt><trkpt lat="42.2878597" lon="13.6905727"><ele>925.6666666666667</ele><time>2026-05-03T08:32:37.332Z</time></trkpt><trkpt lat="42.2879399" lon="13.6905486"><ele>923.0</ele><time>2026-05-03T08:32:38.33Z</time></trkpt><trkpt lat="42.2880159" lon="13.6905204"><ele>923.0000000000001</ele><time>2026-05-03T08:32:39.318Z</time></trkpt><trkpt lat="42.2880869" lon="13.6904771"><ele>923.0</ele><time>2026-05-03T08:32:40.328Z</time></trkpt><trkpt lat="42.2881658" lon="13.690426"><ele>923.0</ele><time>2026-05-03T08:32:41.327Z</time></trkpt><trkpt lat="42.2882511" lon="13.6903766"><ele>923.0</ele><time>2026-05-03T08:32:42.334Z</time></trkpt><trkpt lat="42.2883319" lon="13.690335"><ele>923.0000000000001</ele><time>2026-05-03T08:32:43.329Z</time></trkpt><trkpt lat="42.2884143" lon="13.6903247"><ele>923.0</ele><time>2026-05-03T08:32:44.335Z</time></trkpt><trkpt lat="42.2884995" lon="13.6903292"><ele>920.1666666666667</ele><time>2026-05-03T08:32:45.329Z</time></trkpt><trkpt lat="42.2885842" lon="13.6903327"><ele>917.3333333333334</ele><time>2026-05-03T08:32:46.327Z</time></trkpt><trkpt lat="42.2886661" lon="13.6903482"><ele>914.5</ele><time>2026-05-03T08:32:47.331Z</time></trkpt><trkpt lat="42.2887495" lon="13.6903813"><ele>911.6666666666667</ele><time>2026-05-03T08:32:48.326Z</time></trkpt><trkpt lat="42.2888181" lon="13.6904163"><ele>908.8333333333334</ele><time>2026-05-03T08:32:49.331Z</time></trkpt><trkpt lat="42.2888853" lon="13.6904577"><ele>906.0</ele><time>2026-05-03T08:32:50.333Z</time></trkpt><trkpt lat="42.2889465" lon="13.6904889"><ele>905.1666666666666</ele><time>2026-05-03T08:32:51.334Z</time></trkpt><trkpt lat="42.2890411" lon="13.6905145"><ele>904.3333333333333</ele><time>2026-05-03T08:32:53.348Z</time></trkpt><trkpt lat="42.2891557" lon="13.6905002"><ele>903.5</ele><time>2026-05-03T08:32:55.339Z</time></trkpt><trkpt lat="42.2892343" lon="13.6904847"><ele>902.6666666666666</ele><time>2026-05-03T08:32:56.337Z</time></trkpt><trkpt lat="42.2893126" lon="13.6904682"><ele>901.8333333333333</ele><time>2026-05-03T08:32:57.337Z</time></trkpt><trkpt lat="42.2893873" lon="13.6904531"><ele>901.0</ele><time>2026-05-03T08:32:58.334Z</time></trkpt><trkpt lat="42.2894568" lon="13.6904425"><ele>901.0</ele><time>2026-05-03T08:32:59.335Z</time></trkpt><trkpt lat="42.2895928" lon="13.6904654"><ele>900.9999999999999</ele><time>2026-05-03T08:33:01.345Z</time></trkpt><trkpt lat="42.2896721" lon="13.6904803"><ele>900.9999999999999</ele><time>2026-05-03T08:33:02.338Z</time></trkpt><trkpt lat="42.2897444" lon="13.6905014"><ele>901.0</ele><time>2026-05-03T08:33:03.336Z</time></trkpt><trkpt lat="42.289823" lon="13.690541"><ele>901.0</ele><time>2026-05-03T08:33:04.342Z</time></trkpt><trkpt lat="42.2898997" lon="13.6905746"><ele>900.3333333333333</ele><time>2026-05-03T08:33:05.342Z</time></trkpt><trkpt lat="42.2899708" lon="13.6905988"><ele>899.6666666666666</ele><time>2026-05-03T08:33:06.335Z</time></trkpt><trkpt lat="42.2900429" lon="13.6906116"><ele>899.0</ele><time>2026-05-03T08:33:07.334Z</time></trkpt><trkpt lat="42.2901136" lon="13.6906154"><ele>898.3333333333333</ele><time>2026-05-03T08:33:08.341Z</time></trkpt><trkpt lat="42.2901899" lon="13.6906114"><ele>897.6666666666666</ele><time>2026-05-03T08:33:09.339Z</time></trkpt><trkpt lat="42.2902756" lon="13.690598"><ele>897.0</ele><time>2026-05-03T08:33:10.341Z</time></trkpt><trkpt lat="42.2903533" lon="13.6905805"><ele>897.0</ele><time>2026-05-03T08:33:11.337Z</time></trkpt><trkpt lat="42.2904176" lon="13.6905613"><ele>897.0</ele><time>2026-05-03T08:33:12.342Z</time></trkpt><trkpt lat="42.2904804" lon="13.690536"><ele>897.0</ele><time>2026-05-03T08:33:13.338Z</time></trkpt><trkpt lat="42.290594" lon="13.6905065"><ele>897.0</ele><time>2026-05-03T08:33:15.337Z</time></trkpt><trkpt lat="42.2906586" lon="13.6905071"><ele>897.0</ele><time>2026-05-03T08:33:16.335Z</time></trkpt><trkpt lat="42.2907793" lon="13.6905207"><ele>897.0</ele><time>2026-05-03T08:33:18.34Z</time></trkpt><trkpt lat="42.2909074" lon="13.6905176"><ele>895.5714285714286</ele><time>2026-05-03T08:33:20.34Z</time></trkpt><trkpt lat="42.2909801" lon="13.6905068"><ele>894.1428571428571</ele><time>2026-05-03T08:33:21.335Z</time></trkpt><trkpt lat="42.2910469" lon="13.6904972"><ele>892.7142857142857</ele><time>2026-05-03T08:33:22.338Z</time></trkpt><trkpt lat="42.2911269" lon="13.6904698"><ele>891.2857142857142</ele><time>2026-05-03T08:33:23.338Z</time></trkpt><trkpt lat="42.2911891" lon="13.6904451"><ele>889.8571428571429</ele><time>2026-05-03T08:33:24.351Z</time></trkpt><trkpt lat="42.2912521" lon="13.69041"><ele>888.4285714285713</ele><time>2026-05-03T08:33:25.343Z</time></trkpt><trkpt lat="42.2913159" lon="13.6903607"><ele>887.0</ele><time>2026-05-03T08:33:26.336Z</time></trkpt><trkpt lat="42.2913815" lon="13.6902991"><ele>885.3333333333334</ele><time>2026-05-03T08:33:27.339Z</time></trkpt><trkpt lat="42.2914428" lon="13.6902276"><ele>883.6666666666667</ele><time>2026-05-03T08:33:28.335Z</time></trkpt><trkpt lat="42.291501" lon="13.6901647"><ele>882.0</ele><time>2026-05-03T08:33:29.338Z</time></trkpt><trkpt lat="42.2915566" lon="13.6901032"><ele>880.3333333333333</ele><time>2026-05-03T08:33:30.338Z</time></trkpt><trkpt lat="42.2916125" lon="13.6900482"><ele>878.6666666666666</ele><time>2026-05-03T08:33:31.341Z</time></trkpt><trkpt lat="42.2916798" lon="13.6899467"><ele>877.0</ele><time>2026-05-03T08:33:33.338Z</time></trkpt><trkpt lat="42.2917684" lon="13.6898467"><ele>876.9999999999999</ele><time>2026-05-03T08:33:35.333Z</time></trkpt><trkpt lat="42.2918358" lon="13.6898015"><ele>877.0</ele><time>2026-05-03T08:33:36.335Z</time></trkpt><trkpt lat="42.291917" lon="13.6897687"><ele>877.0</ele><time>2026-05-03T08:33:37.331Z</time></trkpt><trkpt lat="42.291983" lon="13.6897343"><ele>877.0</ele><time>2026-05-03T08:33:38.334Z</time></trkpt><trkpt lat="42.292048" lon="13.6896986"><ele>876.9999999999999</ele><time>2026-05-03T08:33:39.336Z</time></trkpt><trkpt lat="42.2921427" lon="13.689605"><ele>877.0</ele><time>2026-05-03T08:33:41.331Z</time></trkpt><trkpt lat="42.292192" lon="13.6895192"><ele>875.4000000000001</ele><time>2026-05-03T08:33:42.339Z</time></trkpt><trkpt lat="42.29226" lon="13.6894168"><ele>873.8000000000001</ele><time>2026-05-03T08:33:43.336Z</time></trkpt><trkpt lat="42.2923307" lon="13.6893125"><ele>872.2</ele><time>2026-05-03T08:33:44.334Z</time></trkpt><trkpt lat="42.2924026" lon="13.6891984"><ele>870.6</ele><time>2026-05-03T08:33:45.332Z</time></trkpt><trkpt lat="42.2924704" lon="13.6890949"><ele>869.0</ele><time>2026-05-03T08:33:46.331Z</time></trkpt><trkpt lat="42.2925346" lon="13.6890152"><ele>869.0</ele><time>2026-05-03T08:33:47.331Z</time></trkpt><trkpt lat="42.2925934" lon="13.6889651"><ele>869.0</ele><time>2026-05-03T08:33:48.334Z</time></trkpt><trkpt lat="42.2926513" lon="13.6889159"><ele>869.0</ele><time>2026-05-03T08:33:49.331Z</time></trkpt><trkpt lat="42.2927149" lon="13.6888538"><ele>869.0</ele><time>2026-05-03T08:33:50.326Z</time></trkpt><trkpt lat="42.2927759" lon="13.6888039"><ele>869.0</ele><time>2026-05-03T08:33:51.329Z</time></trkpt><trkpt lat="42.292848" lon="13.6887649"><ele>869.0</ele><time>2026-05-03T08:33:52.337Z</time></trkpt><trkpt lat="42.2929179" lon="13.6887332"><ele>869.0</ele><time>2026-05-03T08:33:53.33Z</time></trkpt><trkpt lat="42.2929824" lon="13.6886907"><ele>869.0000000000001</ele><time>2026-05-03T08:33:54.332Z</time></trkpt><trkpt lat="42.2930431" lon="13.6886493"><ele>869.0</ele><time>2026-05-03T08:33:55.341Z</time></trkpt><trkpt lat="42.2931106" lon="13.6886159"><ele>869.0</ele><time>2026-05-03T08:33:56.327Z</time></trkpt><trkpt lat="42.2931748" lon="13.6885829"><ele>869.0</ele><time>2026-05-03T08:33:57.33Z</time></trkpt><trkpt lat="42.2932488" lon="13.6885677"><ele>869.0000000000001</ele><time>2026-05-03T08:33:58.332Z</time></trkpt><trkpt lat="42.2933529" lon="13.6885319"><ele>869.0</ele><time>2026-05-03T08:34:00.332Z</time></trkpt><trkpt lat="42.2934272" lon="13.6885705"><ele>864.0</ele><time>2026-05-03T08:34:02.334Z</time></trkpt><trkpt lat="42.2933862" lon="13.6887064"><ele>859.0</ele><time>2026-05-03T08:34:05.331Z</time></trkpt><trkpt lat="42.2932792" lon="13.6888252"><ele>854.0</ele><time>2026-05-03T08:34:07.329Z</time></trkpt><trkpt lat="42.2931908" lon="13.6889272"><ele>849.0</ele><time>2026-05-03T08:34:08.327Z</time></trkpt><trkpt lat="42.2931074" lon="13.689045"><ele>851.5</ele><time>2026-05-03T08:34:09.348Z</time></trkpt><trkpt lat="42.2930269" lon="13.6891863"><ele>854.0</ele><time>2026-05-03T08:34:10.344Z</time></trkpt><trkpt lat="42.2929533" lon="13.6893339"><ele>856.5</ele><time>2026-05-03T08:34:11.342Z</time></trkpt><trkpt lat="42.2928848" lon="13.6895051"><ele>859.0</ele><time>2026-05-03T08:34:12.343Z</time></trkpt><trkpt lat="42.2928196" lon="13.6896579"><ele>859.0</ele><time>2026-05-03T08:34:13.346Z</time></trkpt><trkpt lat="42.2927606" lon="13.6898062"><ele>859.0000000000001</ele><time>2026-05-03T08:34:14.334Z</time></trkpt><trkpt lat="42.292706" lon="13.6899346"><ele>859.0000000000001</ele><time>2026-05-03T08:34:15.335Z</time></trkpt><trkpt lat="42.2926617" lon="13.6900561"><ele>859.0</ele><time>2026-05-03T08:34:16.337Z</time></trkpt><trkpt lat="42.2926176" lon="13.6901691"><ele>859.0</ele><time>2026-05-03T08:34:17.335Z</time></trkpt><trkpt lat="42.2925671" lon="13.6902701"><ele>858.4999999999999</ele><time>2026-05-03T08:34:18.337Z</time></trkpt><trkpt lat="42.2925211" lon="13.6903773"><ele>858.0</ele><time>2026-05-03T08:34:19.338Z</time></trkpt><trkpt lat="42.292491" lon="13.6904923"><ele>857.5</ele><time>2026-05-03T08:34:20.341Z</time></trkpt><trkpt lat="42.2924668" lon="13.6906058"><ele>857.0</ele><time>2026-05-03T08:34:21.333Z</time></trkpt><trkpt lat="42.2924586" lon="13.6907122"><ele>856.4999999999999</ele><time>2026-05-03T08:34:22.333Z</time></trkpt><trkpt lat="42.2924545" lon="13.6908039"><ele>856.0</ele><time>2026-05-03T08:34:23.339Z</time></trkpt><trkpt lat="42.2924508" lon="13.6908971"><ele>855.9999999999999</ele><time>2026-05-03T08:34:24.336Z</time></trkpt><trkpt lat="42.2924541" lon="13.6909928"><ele>856.0</ele><time>2026-05-03T08:34:25.338Z</time></trkpt><trkpt lat="42.2924495" lon="13.6910983"><ele>856.0</ele><time>2026-05-03T08:34:26.354Z</time></trkpt><trkpt lat="42.2924285" lon="13.6912113"><ele>856.0</ele><time>2026-05-03T08:34:27.339Z</time></trkpt><trkpt lat="42.2923941" lon="13.6913281"><ele>855.9999999999999</ele><time>2026-05-03T08:34:28.35Z</time></trkpt><trkpt lat="42.2923467" lon="13.6914474"><ele>856.0</ele><time>2026-05-03T08:34:29.346Z</time></trkpt><trkpt lat="42.2922989" lon="13.6915714"><ele>857.5</ele><time>2026-05-03T08:34:30.347Z</time></trkpt><trkpt lat="42.2922435" lon="13.6916981"><ele>859.0</ele><time>2026-05-03T08:34:31.347Z</time></trkpt><trkpt lat="42.2921668" lon="13.6918254"><ele>860.5</ele><time>2026-05-03T08:34:32.34Z</time></trkpt><trkpt lat="42.2920675" lon="13.691956"><ele>862.0</ele><time>2026-05-03T08:34:33.346Z</time></trkpt><trkpt lat="42.2919565" lon="13.6920828"><ele>862.0</ele><time>2026-05-03T08:34:34.346Z</time></trkpt><trkpt lat="42.2918381" lon="13.6922105"><ele>862.0</ele><time>2026-05-03T08:34:35.345Z</time></trkpt><trkpt lat="42.2917193" lon="13.6923267"><ele>862.0</ele><time>2026-05-03T08:34:36.347Z</time></trkpt><trkpt lat="42.2916034" lon="13.6924457"><ele>862.0</ele><time>2026-05-03T08:34:37.35Z</time></trkpt><trkpt lat="42.2914951" lon="13.6925571"><ele>862.0</ele><time>2026-05-03T08:34:38.35Z</time></trkpt><trkpt lat="42.291399" lon="13.6926642"><ele>862.0</ele><time>2026-05-03T08:34:39.344Z</time></trkpt><trkpt lat="42.2913138" lon="13.692762"><ele>862.0</ele><time>2026-05-03T08:34:40.343Z</time></trkpt><trkpt lat="42.2912657" lon="13.6928437"><ele>862.0</ele><time>2026-05-03T08:34:41.346Z</time></trkpt><trkpt lat="42.2912225" lon="13.6929347"><ele>862.0</ele><time>2026-05-03T08:34:43.345Z</time></trkpt><trkpt lat="42.2911749" lon="13.6929933"><ele>862.0</ele><time>2026-05-03T08:34:45.345Z</time></trkpt><trkpt lat="42.2910811" lon="13.6929927"><ele>862.0</ele><time>2026-05-03T08:34:47.35Z</time></trkpt><trkpt lat="42.2909811" lon="13.6930069"><ele>862.0</ele><time>2026-05-03T08:34:49.348Z</time></trkpt><trkpt lat="42.2908828" lon="13.6930509"><ele>862.0</ele><time>2026-05-03T08:34:51.342Z</time></trkpt><trkpt lat="42.2907845" lon="13.6931024"><ele>862.0</ele><time>2026-05-03T08:34:53.349Z</time></trkpt><trkpt lat="42.2906615" lon="13.6931349"><ele>860.6666666666666</ele><time>2026-05-03T08:34:55.346Z</time></trkpt><trkpt lat="42.290579" lon="13.6931401"><ele>859.3333333333333</ele><time>2026-05-03T08:34:56.348Z</time></trkpt><trkpt lat="42.2905086" lon="13.6931501"><ele>858.0</ele><time>2026-05-03T08:34:57.379Z</time></trkpt><trkpt lat="42.2904407" lon="13.6931738"><ele>856.6666666666667</ele><time>2026-05-03T08:34:58.346Z</time></trkpt><trkpt lat="42.2903611" lon="13.6932331"><ele>855.3333333333334</ele><time>2026-05-03T08:34:59.344Z</time></trkpt><trkpt lat="42.290274" lon="13.6933076"><ele>854.0</ele><time>2026-05-03T08:35:00.352Z</time></trkpt><trkpt lat="42.2901806" lon="13.693379"><ele>854.0</ele><time>2026-05-03T08:35:01.355Z</time></trkpt><trkpt lat="42.2900886" lon="13.6934474"><ele>854.0000000000001</ele><time>2026-05-03T08:35:02.352Z</time></trkpt><trkpt lat="42.2900069" lon="13.6935137"><ele>854.0000000000001</ele><time>2026-05-03T08:35:03.351Z</time></trkpt><trkpt lat="42.2899314" lon="13.6935734"><ele>854.0</ele><time>2026-05-03T08:35:04.352Z</time></trkpt><trkpt lat="42.2898555" lon="13.693628"><ele>854.0</ele><time>2026-05-03T08:35:05.346Z</time></trkpt><trkpt lat="42.2897865" lon="13.6936764"><ele>851.0</ele><time>2026-05-03T08:35:06.351Z</time></trkpt><trkpt lat="42.2897202" lon="13.6937255"><ele>848.0000000000001</ele><time>2026-05-03T08:35:07.348Z</time></trkpt><trkpt lat="42.2896543" lon="13.6937845"><ele>845.0</ele><time>2026-05-03T08:35:08.347Z</time></trkpt><trkpt lat="42.2895887" lon="13.6938633"><ele>842.0</ele><time>2026-05-03T08:35:09.344Z</time></trkpt><trkpt lat="42.289536" lon="13.6939667"><ele>839.0</ele><time>2026-05-03T08:35:10.343Z</time></trkpt><trkpt lat="42.2894907" lon="13.694109"><ele>839.0</ele><time>2026-05-03T08:35:11.348Z</time></trkpt><trkpt lat="42.2894532" lon="13.6942604"><ele>839.0</ele><time>2026-05-03T08:35:12.35Z</time></trkpt><trkpt lat="42.2894067" lon="13.6943925"><ele>839.0</ele><time>2026-05-03T08:35:13.345Z</time></trkpt><trkpt lat="42.2893562" lon="13.6945028"><ele>839.0</ele><time>2026-05-03T08:35:14.347Z</time></trkpt><trkpt lat="42.2893033" lon="13.6946126"><ele>839.0</ele><time>2026-05-03T08:35:15.351Z</time></trkpt><trkpt lat="42.2892496" lon="13.6947284"><ele>838.0</ele><time>2026-05-03T08:35:16.349Z</time></trkpt><trkpt lat="42.289187" lon="13.6948441"><ele>837.0</ele><time>2026-05-03T08:35:17.346Z</time></trkpt><trkpt lat="42.2891306" lon="13.6949552"><ele>836.0</ele><time>2026-05-03T08:35:18.35Z</time></trkpt><trkpt lat="42.2890761" lon="13.6950635"><ele>835.0</ele><time>2026-05-03T08:35:19.345Z</time></trkpt><trkpt lat="42.2890272" lon="13.6951673"><ele>834.0</ele><time>2026-05-03T08:35:20.348Z</time></trkpt><trkpt lat="42.2889807" lon="13.6952662"><ele>833.8333333333334</ele><time>2026-05-03T08:35:21.349Z</time></trkpt><trkpt lat="42.288934" lon="13.6953513"><ele>833.6666666666667</ele><time>2026-05-03T08:35:22.35Z</time></trkpt><trkpt lat="42.2888946" lon="13.6954401"><ele>833.5</ele><time>2026-05-03T08:35:23.342Z</time></trkpt><trkpt lat="42.2888612" lon="13.6955533"><ele>833.3333333333334</ele><time>2026-05-03T08:35:24.35Z</time></trkpt><trkpt lat="42.2888255" lon="13.6956673"><ele>833.1666666666667</ele><time>2026-05-03T08:35:25.339Z</time></trkpt><trkpt lat="42.2887846" lon="13.6957616"><ele>833.0</ele><time>2026-05-03T08:35:26.347Z</time></trkpt><trkpt lat="42.2887364" lon="13.6958358"><ele>830.6666666666667</ele><time>2026-05-03T08:35:27.36Z</time></trkpt><trkpt lat="42.2886901" lon="13.6959002"><ele>828.3333333333334</ele><time>2026-05-03T08:35:28.35Z</time></trkpt><trkpt lat="42.2886351" lon="13.6959518"><ele>826.0</ele><time>2026-05-03T08:35:29.347Z</time></trkpt><trkpt lat="42.2885703" lon="13.6959974"><ele>823.6666666666667</ele><time>2026-05-03T08:35:30.343Z</time></trkpt><trkpt lat="42.2884614" lon="13.6960313"><ele>821.3333333333334</ele><time>2026-05-03T08:35:32.344Z</time></trkpt><trkpt lat="42.2884008" lon="13.6960617"><ele>819.0</ele><time>2026-05-03T08:35:33.345Z</time></trkpt><trkpt lat="42.2882785" lon="13.6961265"><ele>818.4285714285714</ele><time>2026-05-03T08:35:35.341Z</time></trkpt><trkpt lat="42.2882278" lon="13.6961796"><ele>817.8571428571429</ele><time>2026-05-03T08:35:36.341Z</time></trkpt><trkpt lat="42.28817" lon="13.6962325"><ele>817.2857142857142</ele><time>2026-05-03T08:35:37.34Z</time></trkpt><trkpt lat="42.2881202" lon="13.6962976"><ele>816.7142857142858</ele><time>2026-05-03T08:35:38.344Z</time></trkpt><trkpt lat="42.2880692" lon="13.6963618"><ele>816.1428571428571</ele><time>2026-05-03T08:35:39.348Z</time></trkpt><trkpt lat="42.2880189" lon="13.6964236"><ele>815.5714285714286</ele><time>2026-05-03T08:35:40.349Z</time></trkpt><trkpt lat="42.2879604" lon="13.6964919"><ele>815.0</ele><time>2026-05-03T08:35:41.348Z</time></trkpt><trkpt lat="42.2879075" lon="13.6965516"><ele>812.6</ele><time>2026-05-03T08:35:42.346Z</time></trkpt><trkpt lat="42.2878409" lon="13.6966709"><ele>810.2</ele><time>2026-05-03T08:35:44.341Z</time></trkpt><trkpt lat="42.28773" lon="13.6967574"><ele>807.8</ele><time>2026-05-03T08:35:46.34Z</time></trkpt><trkpt lat="42.2876678" lon="13.6968161"><ele>805.4</ele><time>2026-05-03T08:35:47.345Z</time></trkpt><trkpt lat="42.287615" lon="13.696893"><ele>803.0</ele><time>2026-05-03T08:35:48.344Z</time></trkpt><trkpt lat="42.287574" lon="13.6969794"><ele>802.5000000000001</ele><time>2026-05-03T08:35:49.361Z</time></trkpt><trkpt lat="42.2875686" lon="13.6970847"><ele>802.0</ele><time>2026-05-03T08:35:50.347Z</time></trkpt><trkpt lat="42.2875696" lon="13.6972102"><ele>801.5</ele><time>2026-05-03T08:35:51.347Z</time></trkpt><trkpt lat="42.2875687" lon="13.6973239"><ele>801.0</ele><time>2026-05-03T08:35:52.351Z</time></trkpt><trkpt lat="42.2875597" lon="13.6974251"><ele>800.5000000000001</ele><time>2026-05-03T08:35:53.352Z</time></trkpt><trkpt lat="42.2875332" lon="13.6975192"><ele>800.0</ele><time>2026-05-03T08:35:54.346Z</time></trkpt><trkpt lat="42.2874968" lon="13.6976018"><ele>800.0000000000001</ele><time>2026-05-03T08:35:55.349Z</time></trkpt><trkpt lat="42.2874163" lon="13.6977451"><ele>800.0</ele><time>2026-05-03T08:35:57.354Z</time></trkpt><trkpt lat="42.2873695" lon="13.6978243"><ele>800.0</ele><time>2026-05-03T08:35:58.366Z</time></trkpt><trkpt lat="42.2873364" lon="13.6979115"><ele>800.0</ele><time>2026-05-03T08:35:59.353Z</time></trkpt><trkpt lat="42.2873139" lon="13.6979932"><ele>800.0000000000001</ele><time>2026-05-03T08:36:00.358Z</time></trkpt><trkpt lat="42.2872975" lon="13.6980783"><ele>800.0</ele><time>2026-05-03T08:36:01.349Z</time></trkpt><trkpt lat="42.287276" lon="13.6981983"><ele>799.8</ele><time>2026-05-03T08:36:03.351Z</time></trkpt><trkpt lat="42.2872835" lon="13.6982951"><ele>799.6</ele><time>2026-05-03T08:36:06.354Z</time></trkpt><trkpt lat="42.2872891" lon="13.6984057"><ele>799.4000000000001</ele><time>2026-05-03T08:36:09.349Z</time></trkpt><trkpt lat="42.2873113" lon="13.6985394"><ele>799.2</ele><time>2026-05-03T08:36:11.351Z</time></trkpt><trkpt lat="42.2873339" lon="13.6986807"><ele>799.0</ele><time>2026-05-03T08:36:13.352Z</time></trkpt><trkpt lat="42.2873289" lon="13.6988114"><ele>798.4000000000001</ele><time>2026-05-03T08:36:15.345Z</time></trkpt><trkpt lat="42.2872911" lon="13.6989346"><ele>797.8</ele><time>2026-05-03T08:36:17.342Z</time></trkpt><trkpt lat="42.2872566" lon="13.6990462"><ele>797.2</ele><time>2026-05-03T08:36:19.352Z</time></trkpt><trkpt lat="42.2872312" lon="13.6991754"><ele>796.5999999999999</ele><time>2026-05-03T08:36:21.349Z</time></trkpt><trkpt lat="42.2872265" lon="13.6992929"><ele>796.0</ele><time>2026-05-03T08:36:23.344Z</time></trkpt><trkpt lat="42.2872384" lon="13.6994091"><ele>795.4</ele><time>2026-05-03T08:36:25.347Z</time></trkpt><trkpt lat="42.2873027" lon="13.6995213"><ele>794.8</ele><time>2026-05-03T08:36:27.348Z</time></trkpt><trkpt lat="42.2873867" lon="13.6996248"><ele>794.1999999999999</ele><time>2026-05-03T08:36:29.362Z</time></trkpt><trkpt lat="42.2874176" lon="13.699732"><ele>793.5999999999999</ele><time>2026-05-03T08:36:31.349Z</time></trkpt><trkpt lat="42.2874018" lon="13.6998394"><ele>793.0</ele><time>2026-05-03T08:36:33.347Z</time></trkpt><trkpt lat="42.2873984" lon="13.6999837"><ele>793.0</ele><time>2026-05-03T08:36:35.345Z</time></trkpt><trkpt lat="42.2873982" lon="13.7000742"><ele>793.0</ele><time>2026-05-03T08:36:36.347Z</time></trkpt><trkpt lat="42.287377" lon="13.7002059"><ele>793.0</ele><time>2026-05-03T08:36:38.345Z</time></trkpt><trkpt lat="42.2873214" lon="13.7003258"><ele>793.0</ele><time>2026-05-03T08:36:40.347Z</time></trkpt><trkpt lat="42.2872446" lon="13.7004577"><ele>793.0</ele><time>2026-05-03T08:36:42.337Z</time></trkpt><trkpt lat="42.2872088" lon="13.7005345"><ele>791.3333333333333</ele><time>2026-05-03T08:36:43.337Z</time></trkpt><trkpt lat="42.2871745" lon="13.7006288"><ele>789.6666666666666</ele><time>2026-05-03T08:36:44.346Z</time></trkpt><trkpt lat="42.2871465" lon="13.7007318"><ele>788.0</ele><time>2026-05-03T08:36:45.342Z</time></trkpt><trkpt lat="42.2871311" lon="13.7008345"><ele>786.3333333333333</ele><time>2026-05-03T08:36:46.342Z</time></trkpt><trkpt lat="42.2871283" lon="13.7009474"><ele>784.6666666666666</ele><time>2026-05-03T08:36:47.347Z</time></trkpt><trkpt lat="42.287132" lon="13.7010642"><ele>783.0</ele><time>2026-05-03T08:36:48.344Z</time></trkpt><trkpt lat="42.2871323" lon="13.7011972"><ele>783.0</ele><time>2026-05-03T08:36:49.342Z</time></trkpt><trkpt lat="42.2871306" lon="13.70132"><ele>783.0</ele><time>2026-05-03T08:36:50.346Z</time></trkpt><trkpt lat="42.2871152" lon="13.701434"><ele>783.0</ele><time>2026-05-03T08:36:51.342Z</time></trkpt><trkpt lat="42.2871023" lon="13.7015559"><ele>783.0</ele><time>2026-05-03T08:36:52.344Z</time></trkpt><trkpt lat="42.2870798" lon="13.7016869"><ele>783.0</ele><time>2026-05-03T08:36:53.341Z</time></trkpt><trkpt lat="42.2870393" lon="13.701822"><ele>782.75</ele><time>2026-05-03T08:36:54.333Z</time></trkpt><trkpt lat="42.2869932" lon="13.7019665"><ele>782.5</ele><time>2026-05-03T08:36:55.344Z</time></trkpt><trkpt lat="42.2869298" lon="13.7020991"><ele>782.25</ele><time>2026-05-03T08:36:56.343Z</time></trkpt><trkpt lat="42.2868623" lon="13.7022452"><ele>782.0</ele><time>2026-05-03T08:36:57.344Z</time></trkpt><trkpt lat="42.2868123" lon="13.7023852"><ele>782.0</ele><time>2026-05-03T08:36:58.344Z</time></trkpt><trkpt lat="42.2867667" lon="13.7025103"><ele>782.0</ele><time>2026-05-03T08:36:59.341Z</time></trkpt><trkpt lat="42.2867286" lon="13.7026147"><ele>782.0</ele><time>2026-05-03T08:37:00.356Z</time></trkpt><trkpt lat="42.2866923" lon="13.7027297"><ele>782.0</ele><time>2026-05-03T08:37:01.349Z</time></trkpt><trkpt lat="42.2866547" lon="13.7028358"><ele>782.0</ele><time>2026-05-03T08:37:02.344Z</time></trkpt><trkpt lat="42.2866186" lon="13.7029367"><ele>782.8</ele><time>2026-05-03T08:37:03.343Z</time></trkpt><trkpt lat="42.2865704" lon="13.7030302"><ele>783.6</ele><time>2026-05-03T08:37:04.344Z</time></trkpt><trkpt lat="42.2865167" lon="13.7031447"><ele>784.4</ele><time>2026-05-03T08:37:05.345Z</time></trkpt><trkpt lat="42.2864657" lon="13.7032657"><ele>785.1999999999999</ele><time>2026-05-03T08:37:06.337Z</time></trkpt><trkpt lat="42.2864226" lon="13.7034046"><ele>786.0</ele><time>2026-05-03T08:37:07.338Z</time></trkpt><trkpt lat="42.2863846" lon="13.7035255"><ele>784.3333333333334</ele><time>2026-05-03T08:37:08.334Z</time></trkpt><trkpt lat="42.2863581" lon="13.7036258"><ele>782.6666666666667</ele><time>2026-05-03T08:37:09.331Z</time></trkpt><trkpt lat="42.2863406" lon="13.7037112"><ele>781.0</ele><time>2026-05-03T08:37:10.336Z</time></trkpt><trkpt lat="42.2862999" lon="13.7038269"><ele>779.3333333333334</ele><time>2026-05-03T08:37:12.334Z</time></trkpt><trkpt lat="42.2862367" lon="13.7038953"><ele>777.6666666666667</ele><time>2026-05-03T08:37:14.326Z</time></trkpt><trkpt lat="42.2861469" lon="13.7039135"><ele>776.0</ele><time>2026-05-03T08:37:16.326Z</time></trkpt><trkpt lat="42.2860778" lon="13.7039055"><ele>776.0</ele><time>2026-05-03T08:37:17.333Z</time></trkpt><trkpt lat="42.2859139" lon="13.7038548"><ele>776.0</ele><time>2026-05-03T08:37:19.345Z</time></trkpt><trkpt lat="42.2858197" lon="13.7038137"><ele>776.0</ele><time>2026-05-03T08:37:20.344Z</time></trkpt><trkpt lat="42.2857289" lon="13.7037857"><ele>776.0</ele><time>2026-05-03T08:37:21.341Z</time></trkpt><trkpt lat="42.2856544" lon="13.7037828"><ele>776.0</ele><time>2026-05-03T08:37:22.342Z</time></trkpt><trkpt lat="42.2855898" lon="13.7037962"><ele>780.0</ele><time>2026-05-03T08:37:23.338Z</time></trkpt><trkpt lat="42.2855306" lon="13.7038375"><ele>784.0</ele><time>2026-05-03T08:37:24.355Z</time></trkpt><trkpt lat="42.2854641" lon="13.7039387"><ele>788.0</ele><time>2026-05-03T08:37:25.343Z</time></trkpt><trkpt lat="42.285396" lon="13.7040666"><ele>792.0</ele><time>2026-05-03T08:37:26.339Z</time></trkpt><trkpt lat="42.2853247" lon="13.7041828"><ele>796.0</ele><time>2026-05-03T08:37:27.339Z</time></trkpt><trkpt lat="42.2852539" lon="13.704312"><ele>794.9999999999999</ele><time>2026-05-03T08:37:28.337Z</time></trkpt><trkpt lat="42.2851977" lon="13.7044157"><ele>794.0</ele><time>2026-05-03T08:37:29.341Z</time></trkpt><trkpt lat="42.285161" lon="13.7045202"><ele>793.0</ele><time>2026-05-03T08:37:30.333Z</time></trkpt><trkpt lat="42.2851455" lon="13.7046249"><ele>792.0</ele><time>2026-05-03T08:37:31.345Z</time></trkpt><trkpt lat="42.2851126" lon="13.704724"><ele>790.9999999999999</ele><time>2026-05-03T08:37:32.33Z</time></trkpt><trkpt lat="42.2850824" lon="13.7048229"><ele>790.0</ele><time>2026-05-03T08:37:33.331Z</time></trkpt><trkpt lat="42.2850424" lon="13.7049419"><ele>790.0</ele><time>2026-05-03T08:37:34.329Z</time></trkpt><trkpt lat="42.2850145" lon="13.7050649"><ele>790.0</ele><time>2026-05-03T08:37:35.331Z</time></trkpt><trkpt lat="42.2849934" lon="13.705186"><ele>790.0</ele><time>2026-05-03T08:37:36.334Z</time></trkpt><trkpt lat="42.2849573" lon="13.705304"><ele>790.0</ele><time>2026-05-03T08:37:37.333Z</time></trkpt><trkpt lat="42.2849107" lon="13.7054339"><ele>790.0</ele><time>2026-05-03T08:37:38.333Z</time></trkpt><trkpt lat="42.284877" lon="13.7055631"><ele>788.75</ele><time>2026-05-03T08:37:39.323Z</time></trkpt><trkpt lat="42.2848355" lon="13.7057137"><ele>787.5</ele><time>2026-05-03T08:37:40.342Z</time></trkpt><trkpt lat="42.2847805" lon="13.7058958"><ele>786.25</ele><time>2026-05-03T08:37:41.332Z</time></trkpt><trkpt lat="42.2847461" lon="13.7060545"><ele>785.0</ele><time>2026-05-03T08:37:42.339Z</time></trkpt><trkpt lat="42.2847172" lon="13.7061922"><ele>789.0000000000001</ele><time>2026-05-03T08:37:43.34Z</time></trkpt><trkpt lat="42.2846902" lon="13.7062927"><ele>793.0</ele><time>2026-05-03T08:37:44.335Z</time></trkpt><trkpt lat="42.2846435" lon="13.7063746"><ele>797.0</ele><time>2026-05-03T08:37:45.332Z</time></trkpt><trkpt lat="42.2845977" lon="13.7064646"><ele>801.0</ele><time>2026-05-03T08:37:46.34Z</time></trkpt><trkpt lat="42.2845509" lon="13.7065704"><ele>805.0000000000001</ele><time>2026-05-03T08:37:47.338Z</time></trkpt><trkpt lat="42.2845036" lon="13.7066818"><ele>809.0</ele><time>2026-05-03T08:37:48.338Z</time></trkpt><trkpt lat="42.2844437" lon="13.7067609"><ele>809.0000000000001</ele><time>2026-05-03T08:37:49.338Z</time></trkpt><trkpt lat="42.2843826" lon="13.7068353"><ele>809.0</ele><time>2026-05-03T08:37:50.342Z</time></trkpt><trkpt lat="42.2843233" lon="13.706912"><ele>809.0</ele><time>2026-05-03T08:37:51.339Z</time></trkpt><trkpt lat="42.2842703" lon="13.706973"><ele>809.0</ele><time>2026-05-03T08:37:52.339Z</time></trkpt><trkpt lat="42.2842101" lon="13.7070357"><ele>809.0000000000001</ele><time>2026-05-03T08:37:53.339Z</time></trkpt><trkpt lat="42.2841622" lon="13.7070942"><ele>809.0</ele><time>2026-05-03T08:37:54.339Z</time></trkpt><trkpt lat="42.2840609" lon="13.7072072"><ele>808.3333333333334</ele><time>2026-05-03T08:37:56.335Z</time></trkpt><trkpt lat="42.2840086" lon="13.7072704"><ele>807.6666666666667</ele><time>2026-05-03T08:37:57.339Z</time></trkpt><trkpt lat="42.2839564" lon="13.707347"><ele>807.0</ele><time>2026-05-03T08:37:58.337Z</time></trkpt><trkpt lat="42.2838962" lon="13.7074266"><ele>806.3333333333333</ele><time>2026-05-03T08:37:59.335Z</time></trkpt><trkpt lat="42.2838368" lon="13.7075143"><ele>805.6666666666666</ele><time>2026-05-03T08:38:00.332Z</time></trkpt><trkpt lat="42.2837934" lon="13.7075971"><ele>805.0</ele><time>2026-05-03T08:38:01.337Z</time></trkpt><trkpt lat="42.2837531" lon="13.7076906"><ele>807.1666666666666</ele><time>2026-05-03T08:38:02.349Z</time></trkpt><trkpt lat="42.2837089" lon="13.7077754"><ele>809.3333333333333</ele><time>2026-05-03T08:38:03.333Z</time></trkpt><trkpt lat="42.2836519" lon="13.7078639"><ele>811.5</ele><time>2026-05-03T08:38:04.33Z</time></trkpt><trkpt lat="42.2835983" lon="13.7079713"><ele>813.6666666666667</ele><time>2026-05-03T08:38:05.331Z</time></trkpt><trkpt lat="42.2835465" lon="13.7080758"><ele>815.8333333333334</ele><time>2026-05-03T08:38:06.334Z</time></trkpt><trkpt lat="42.2834981" lon="13.7081721"><ele>818.0</ele><time>2026-05-03T08:38:07.331Z</time></trkpt><trkpt lat="42.2834371" lon="13.7082749"><ele>818.0</ele><time>2026-05-03T08:38:08.337Z</time></trkpt><trkpt lat="42.2833663" lon="13.7083771"><ele>818.0</ele><time>2026-05-03T08:38:09.338Z</time></trkpt><trkpt lat="42.2832931" lon="13.7084738"><ele>818.0</ele><time>2026-05-03T08:38:10.344Z</time></trkpt><trkpt lat="42.2832145" lon="13.7085479"><ele>818.0</ele><time>2026-05-03T08:38:11.338Z</time></trkpt><trkpt lat="42.2831361" lon="13.7086301"><ele>818.0</ele><time>2026-05-03T08:38:12.342Z</time></trkpt><trkpt lat="42.283067" lon="13.7087068"><ele>818.5000000000001</ele><time>2026-05-03T08:38:13.338Z</time></trkpt><trkpt lat="42.2830063" lon="13.7087734"><ele>819.0</ele><time>2026-05-03T08:38:14.341Z</time></trkpt><trkpt lat="42.2829399" lon="13.7088348"><ele>819.5</ele><time>2026-05-03T08:38:15.338Z</time></trkpt><trkpt lat="42.2828727" lon="13.708881"><ele>820.0</ele><time>2026-05-03T08:38:16.341Z</time></trkpt><trkpt lat="42.2827964" lon="13.7089059"><ele>820.5000000000001</ele><time>2026-05-03T08:38:17.344Z</time></trkpt><trkpt lat="42.2827222" lon="13.7089243"><ele>821.0</ele><time>2026-05-03T08:38:18.339Z</time></trkpt><trkpt lat="42.2826464" lon="13.7089583"><ele>821.0</ele><time>2026-05-03T08:38:19.343Z</time></trkpt><trkpt lat="42.2825631" lon="13.7090123"><ele>821.0</ele><time>2026-05-03T08:38:20.341Z</time></trkpt><trkpt lat="42.2824803" lon="13.709079"><ele>821.0</ele><time>2026-05-03T08:38:21.343Z</time></trkpt><trkpt lat="42.2823967" lon="13.7091479"><ele>821.0</ele><time>2026-05-03T08:38:22.34Z</time></trkpt><trkpt lat="42.282319" lon="13.7092117"><ele>821.0</ele><time>2026-05-03T08:38:23.341Z</time></trkpt><trkpt lat="42.282232" lon="13.7092761"><ele>821.1999999999999</ele><time>2026-05-03T08:38:24.339Z</time></trkpt><trkpt lat="42.2821423" lon="13.7093584"><ele>821.4</ele><time>2026-05-03T08:38:25.344Z</time></trkpt><trkpt lat="42.2820462" lon="13.7094133"><ele>821.6</ele><time>2026-05-03T08:38:26.342Z</time></trkpt><trkpt lat="42.2819655" lon="13.709469"><ele>821.8</ele><time>2026-05-03T08:38:27.345Z</time></trkpt><trkpt lat="42.2818959" lon="13.7095241"><ele>822.0</ele><time>2026-05-03T08:38:28.346Z</time></trkpt><trkpt lat="42.2818104" lon="13.7095891"><ele>822.0</ele><time>2026-05-03T08:38:29.341Z</time></trkpt><trkpt lat="42.2817159" lon="13.7096422"><ele>822.0</ele><time>2026-05-03T08:38:30.34Z</time></trkpt><trkpt lat="42.2816157" lon="13.7096945"><ele>822.0</ele><time>2026-05-03T08:38:31.339Z</time></trkpt><trkpt lat="42.2815254" lon="13.7097649"><ele>822.0</ele><time>2026-05-03T08:38:32.336Z</time></trkpt><trkpt lat="42.2814472" lon="13.7098426"><ele>822.0</ele><time>2026-05-03T08:38:33.348Z</time></trkpt><trkpt lat="42.2813808" lon="13.7099036"><ele>825.0</ele><time>2026-05-03T08:38:34.341Z</time></trkpt><trkpt lat="42.2813049" lon="13.7099475"><ele>828.0</ele><time>2026-05-03T08:38:35.337Z</time></trkpt><trkpt lat="42.2812346" lon="13.7099727"><ele>831.0</ele><time>2026-05-03T08:38:36.341Z</time></trkpt><trkpt lat="42.281166" lon="13.7099927"><ele>834.0</ele><time>2026-05-03T08:38:37.34Z</time></trkpt><trkpt lat="42.2810924" lon="13.7100066"><ele>837.0</ele><time>2026-05-03T08:38:38.339Z</time></trkpt><trkpt lat="42.281021" lon="13.7100287"><ele>840.0</ele><time>2026-05-03T08:38:39.34Z</time></trkpt><trkpt lat="42.2809514" lon="13.7100389"><ele>843.0</ele><time>2026-05-03T08:38:40.342Z</time></trkpt><trkpt lat="42.2808347" lon="13.7100785"><ele>843.0</ele><time>2026-05-03T08:38:42.338Z</time></trkpt><trkpt lat="42.2807357" lon="13.7101037"><ele>843.0</ele><time>2026-05-03T08:38:44.342Z</time></trkpt><trkpt lat="42.2806715" lon="13.7101156"><ele>843.0</ele><time>2026-05-03T08:38:45.344Z</time></trkpt><trkpt lat="42.2806059" lon="13.7101138"><ele>843.0</ele><time>2026-05-03T08:38:46.348Z</time></trkpt><trkpt lat="42.280535" lon="13.7101192"><ele>843.0</ele><time>2026-05-03T08:38:47.344Z</time></trkpt><trkpt lat="42.2804673" lon="13.7101262"><ele>843.0</ele><time>2026-05-03T08:38:48.349Z</time></trkpt><trkpt lat="42.2803991" lon="13.7101327"><ele>843.0</ele><time>2026-05-03T08:38:49.351Z</time></trkpt><trkpt lat="42.280275" lon="13.7101139"><ele>844.8333333333334</ele><time>2026-05-03T08:38:51.348Z</time></trkpt><trkpt lat="42.2801995" lon="13.7101111"><ele>846.6666666666667</ele><time>2026-05-03T08:38:52.345Z</time></trkpt><trkpt lat="42.2801304" lon="13.71013"><ele>848.5</ele><time>2026-05-03T08:38:53.346Z</time></trkpt><trkpt lat="42.2800512" lon="13.7101662"><ele>850.3333333333334</ele><time>2026-05-03T08:38:54.347Z</time></trkpt><trkpt lat="42.2799634" lon="13.7102006"><ele>852.1666666666667</ele><time>2026-05-03T08:38:55.34Z</time></trkpt><trkpt lat="42.2798622" lon="13.7102193"><ele>854.0</ele><time>2026-05-03T08:38:56.344Z</time></trkpt><trkpt lat="42.2797752" lon="13.7102265"><ele>852.8333333333334</ele><time>2026-05-03T08:38:57.345Z</time></trkpt><trkpt lat="42.2796922" lon="13.7102523"><ele>851.6666666666667</ele><time>2026-05-03T08:38:58.341Z</time></trkpt><trkpt lat="42.2796024" lon="13.7102535"><ele>850.5</ele><time>2026-05-03T08:38:59.345Z</time></trkpt><trkpt lat="42.2795055" lon="13.7102444"><ele>849.3333333333333</ele><time>2026-05-03T08:39:00.345Z</time></trkpt><trkpt lat="42.2794067" lon="13.7102355"><ele>848.1666666666666</ele><time>2026-05-03T08:39:01.345Z</time></trkpt><trkpt lat="42.2793322" lon="13.7102382"><ele>847.0</ele><time>2026-05-03T08:39:02.345Z</time></trkpt><trkpt lat="42.2792532" lon="13.7102487"><ele>849.3333333333333</ele><time>2026-05-03T08:39:03.341Z</time></trkpt><trkpt lat="42.2791824" lon="13.7102238"><ele>851.6666666666666</ele><time>2026-05-03T08:39:04.36Z</time></trkpt><trkpt lat="42.2791129" lon="13.7101651"><ele>854.0</ele><time>2026-05-03T08:39:05.35Z</time></trkpt><trkpt lat="42.2790331" lon="13.7101137"><ele>856.3333333333333</ele><time>2026-05-03T08:39:06.344Z</time></trkpt><trkpt lat="42.2789485" lon="13.7101027"><ele>858.6666666666666</ele><time>2026-05-03T08:39:07.342Z</time></trkpt><trkpt lat="42.2788562" lon="13.7100987"><ele>861.0</ele><time>2026-05-03T08:39:08.347Z</time></trkpt><trkpt lat="42.2787533" lon="13.7100947"><ele>864.25</ele><time>2026-05-03T08:39:09.34Z</time></trkpt><trkpt lat="42.2786448" lon="13.710117"><ele>867.5</ele><time>2026-05-03T08:39:10.345Z</time></trkpt><trkpt lat="42.2785156" lon="13.7101401"><ele>870.75</ele><time>2026-05-03T08:39:11.342Z</time></trkpt><trkpt lat="42.2784023" lon="13.7101454"><ele>874.0</ele><time>2026-05-03T08:39:12.337Z</time></trkpt><trkpt lat="42.2783032" lon="13.710157"><ele>874.0</ele><time>2026-05-03T08:39:13.335Z</time></trkpt><trkpt lat="42.2782109" lon="13.7102"><ele>874.0000000000001</ele><time>2026-05-03T08:39:14.339Z</time></trkpt><trkpt lat="42.2781179" lon="13.710246"><ele>874.0000000000001</ele><time>2026-05-03T08:39:15.339Z</time></trkpt><trkpt lat="42.2780391" lon="13.7102744"><ele>874.0</ele><time>2026-05-03T08:39:16.338Z</time></trkpt><trkpt lat="42.2779131" lon="13.7103024"><ele>874.0</ele><time>2026-05-03T08:39:18.345Z</time></trkpt><trkpt lat="42.2778474" lon="13.710313"><ele>874.9999999999999</ele><time>2026-05-03T08:39:19.346Z</time></trkpt><trkpt lat="42.2777766" lon="13.7103011"><ele>876.0</ele><time>2026-05-03T08:39:20.343Z</time></trkpt><trkpt lat="42.2776514" lon="13.7103358"><ele>877.0</ele><time>2026-05-03T08:39:22.351Z</time></trkpt><trkpt lat="42.2775823" lon="13.7103367"><ele>878.0</ele><time>2026-05-03T08:39:23.35Z</time></trkpt><trkpt lat="42.2775154" lon="13.7103453"><ele>878.9999999999999</ele><time>2026-05-03T08:39:24.351Z</time></trkpt><trkpt lat="42.2774512" lon="13.71036"><ele>880.0</ele><time>2026-05-03T08:39:25.352Z</time></trkpt><trkpt lat="42.2773575" lon="13.7104495"><ele>879.9999999999999</ele><time>2026-05-03T08:39:27.348Z</time></trkpt><trkpt lat="42.2773234" lon="13.7105295"><ele>880.0</ele><time>2026-05-03T08:39:28.356Z</time></trkpt><trkpt lat="42.2772666" lon="13.7105766"><ele>880.0</ele><time>2026-05-03T08:39:29.351Z</time></trkpt><trkpt lat="42.2771988" lon="13.7106078"><ele>880.0</ele><time>2026-05-03T08:39:30.354Z</time></trkpt><trkpt lat="42.2771323" lon="13.7106309"><ele>879.9999999999999</ele><time>2026-05-03T08:39:31.352Z</time></trkpt><trkpt lat="42.2770606" lon="13.7106309"><ele>880.0</ele><time>2026-05-03T08:39:32.354Z</time></trkpt><trkpt lat="42.276941" lon="13.7106612"><ele>879.0</ele><time>2026-05-03T08:39:34.352Z</time></trkpt><trkpt lat="42.2768788" lon="13.710696"><ele>878.0</ele><time>2026-05-03T08:39:35.381Z</time></trkpt><trkpt lat="42.2768157" lon="13.7107315"><ele>877.0</ele><time>2026-05-03T08:39:36.352Z</time></trkpt><trkpt lat="42.2767051" lon="13.7107698"><ele>876.0</ele><time>2026-05-03T08:39:38.347Z</time></trkpt><trkpt lat="42.2765963" lon="13.7107645"><ele>875.0</ele><time>2026-05-03T08:39:40.354Z</time></trkpt><trkpt lat="42.2764843" lon="13.7107174"><ele>873.4</ele><time>2026-05-03T08:39:42.353Z</time></trkpt><trkpt lat="42.2763677" lon="13.7107059"><ele>871.8</ele><time>2026-05-03T08:39:44.348Z</time></trkpt><trkpt lat="42.276254" lon="13.7106758"><ele>870.2</ele><time>2026-05-03T08:39:46.347Z</time></trkpt><trkpt lat="42.2761908" lon="13.7106975"><ele>868.6</ele><time>2026-05-03T08:39:47.341Z</time></trkpt><trkpt lat="42.2761293" lon="13.7107584"><ele>867.0</ele><time>2026-05-03T08:39:48.342Z</time></trkpt><trkpt lat="42.2760697" lon="13.7108434"><ele>867.0</ele><time>2026-05-03T08:39:49.352Z</time></trkpt><trkpt lat="42.2759895" lon="13.7109278"><ele>867.0</ele><time>2026-05-03T08:39:50.337Z</time></trkpt><trkpt lat="42.2758961" lon="13.7109998"><ele>867.0</ele><time>2026-05-03T08:39:51.337Z</time></trkpt><trkpt lat="42.2758067" lon="13.7110423"><ele>867.0</ele><time>2026-05-03T08:39:52.337Z</time></trkpt><trkpt lat="42.2757268" lon="13.7110651"><ele>867.0</ele><time>2026-05-03T08:39:53.341Z</time></trkpt><trkpt lat="42.2756544" lon="13.7110838"><ele>868.0</ele><time>2026-05-03T08:39:54.34Z</time></trkpt><trkpt lat="42.2755855" lon="13.7111001"><ele>869.0</ele><time>2026-05-03T08:39:55.34Z</time></trkpt><trkpt lat="42.2755209" lon="13.7111339"><ele>870.0</ele><time>2026-05-03T08:39:56.335Z</time></trkpt><trkpt lat="42.2754495" lon="13.7111889"><ele>871.0</ele><time>2026-05-03T08:39:57.335Z</time></trkpt><trkpt lat="42.2753696" lon="13.7112482"><ele>872.0</ele><time>2026-05-03T08:39:58.341Z</time></trkpt><trkpt lat="42.2752883" lon="13.7112975"><ele>873.0</ele><time>2026-05-03T08:39:59.34Z</time></trkpt><trkpt lat="42.275209" lon="13.7113451"><ele>873.0</ele><time>2026-05-03T08:40:00.339Z</time></trkpt><trkpt lat="42.2751424" lon="13.7114007"><ele>873.0</ele><time>2026-05-03T08:40:01.335Z</time></trkpt><trkpt lat="42.2750794" lon="13.7114682"><ele>873.0</ele><time>2026-05-03T08:40:02.333Z</time></trkpt><trkpt lat="42.2750202" lon="13.7115441"><ele>873.0</ele><time>2026-05-03T08:40:03.329Z</time></trkpt><trkpt lat="42.2749603" lon="13.7116149"><ele>873.0</ele><time>2026-05-03T08:40:04.333Z</time></trkpt><trkpt lat="42.2748995" lon="13.7116789"><ele>873.0</ele><time>2026-05-03T08:40:05.35Z</time></trkpt><trkpt lat="42.2748263" lon="13.7117569"><ele>873.2</ele><time>2026-05-03T08:40:06.34Z</time></trkpt><trkpt lat="42.2747573" lon="13.7118573"><ele>873.4</ele><time>2026-05-03T08:40:07.337Z</time></trkpt><trkpt lat="42.2746864" lon="13.711937"><ele>873.6000000000001</ele><time>2026-05-03T08:40:08.338Z</time></trkpt><trkpt lat="42.2746053" lon="13.7119973"><ele>873.8000000000001</ele><time>2026-05-03T08:40:09.34Z</time></trkpt><trkpt lat="42.2745274" lon="13.7120596"><ele>874.0</ele><time>2026-05-03T08:40:10.34Z</time></trkpt><trkpt lat="42.2744591" lon="13.7121129"><ele>873.9999999999999</ele><time>2026-05-03T08:40:11.338Z</time></trkpt><trkpt lat="42.2743946" lon="13.7121672"><ele>874.0</ele><time>2026-05-03T08:40:12.339Z</time></trkpt><trkpt lat="42.274329" lon="13.7122144"><ele>874.0</ele><time>2026-05-03T08:40:13.33Z</time></trkpt><trkpt lat="42.274272" lon="13.712252"><ele>874.0</ele><time>2026-05-03T08:40:14.333Z</time></trkpt><trkpt lat="42.2741916" lon="13.7122367"><ele>873.9999999999999</ele><time>2026-05-03T08:40:16.331Z</time></trkpt><trkpt lat="42.2741193" lon="13.7121997"><ele>874.0</ele><time>2026-05-03T08:40:18.333Z</time></trkpt><trkpt lat="42.2740555" lon="13.7122747"><ele>874.0</ele><time>2026-05-03T08:40:20.344Z</time></trkpt><trkpt lat="42.273998" lon="13.7123841"><ele>874.0000000000001</ele><time>2026-05-03T08:40:22.343Z</time></trkpt><trkpt lat="42.2739539" lon="13.7125276"><ele>874.0000000000001</ele><time>2026-05-03T08:40:24.353Z</time></trkpt><trkpt lat="42.2739025" lon="13.7125838"><ele>874.0</ele><time>2026-05-03T08:40:26.345Z</time></trkpt><trkpt lat="42.2738649" lon="13.7124965"><ele>874.0</ele><time>2026-05-03T08:40:28.352Z</time></trkpt><trkpt lat="42.2738516" lon="13.712299"><ele>875.2</ele><time>2026-05-03T08:40:30.348Z</time></trkpt><trkpt lat="42.2738455" lon="13.7121663"><ele>876.4000000000001</ele><time>2026-05-03T08:40:31.342Z</time></trkpt><trkpt lat="42.2738243" lon="13.7120216"><ele>877.6</ele><time>2026-05-03T08:40:32.351Z</time></trkpt><trkpt lat="42.2737928" lon="13.7118958"><ele>878.8</ele><time>2026-05-03T08:40:33.346Z</time></trkpt><trkpt lat="42.2737536" lon="13.7117819"><ele>880.0</ele><time>2026-05-03T08:40:34.346Z</time></trkpt><trkpt lat="42.2737107" lon="13.7116696"><ele>879.9999999999999</ele><time>2026-05-03T08:40:35.344Z</time></trkpt><trkpt lat="42.2736708" lon="13.711553"><ele>880.0</ele><time>2026-05-03T08:40:36.358Z</time></trkpt><trkpt lat="42.2736343" lon="13.7114452"><ele>880.0</ele><time>2026-05-03T08:40:37.344Z</time></trkpt><trkpt lat="42.2735957" lon="13.7113327"><ele>880.0</ele><time>2026-05-03T08:40:38.343Z</time></trkpt><trkpt lat="42.2735582" lon="13.7112267"><ele>879.9999999999999</ele><time>2026-05-03T08:40:39.344Z</time></trkpt><trkpt lat="42.2735172" lon="13.711127"><ele>880.0</ele><time>2026-05-03T08:40:40.345Z</time></trkpt><trkpt lat="42.2734642" lon="13.7110204"><ele>879.2</ele><time>2026-05-03T08:40:41.347Z</time></trkpt><trkpt lat="42.2734074" lon="13.710913"><ele>878.4</ele><time>2026-05-03T08:40:42.352Z</time></trkpt><trkpt lat="42.2733589" lon="13.7108024"><ele>877.5999999999999</ele><time>2026-05-03T08:40:43.349Z</time></trkpt><trkpt lat="42.2733072" lon="13.7106917"><ele>876.8</ele><time>2026-05-03T08:40:44.35Z</time></trkpt><trkpt lat="42.2732526" lon="13.710586"><ele>876.0</ele><time>2026-05-03T08:40:45.35Z</time></trkpt><trkpt lat="42.2731958" lon="13.7104968"><ele>876.0</ele><time>2026-05-03T08:40:46.344Z</time></trkpt><trkpt lat="42.2731398" lon="13.7104264"><ele>875.9999999999999</ele><time>2026-05-03T08:40:47.345Z</time></trkpt><trkpt lat="42.2730285" lon="13.7103455"><ele>875.9999999999999</ele><time>2026-05-03T08:40:49.348Z</time></trkpt><trkpt lat="42.2729558" lon="13.7103383"><ele>876.0</ele><time>2026-05-03T08:40:50.346Z</time></trkpt><trkpt lat="42.2728703" lon="13.7103605"><ele>876.0</ele><time>2026-05-03T08:40:51.343Z</time></trkpt><trkpt lat="42.2727684" lon="13.7103767"><ele>877.4</ele><time>2026-05-03T08:40:52.355Z</time></trkpt><trkpt lat="42.2726685" lon="13.7103935"><ele>878.8</ele><time>2026-05-03T08:40:53.353Z</time></trkpt><trkpt lat="42.2725772" lon="13.7104193"><ele>880.1999999999999</ele><time>2026-05-03T08:40:54.351Z</time></trkpt><trkpt lat="42.2725001" lon="13.7104327"><ele>881.5999999999999</ele><time>2026-05-03T08:40:55.351Z</time></trkpt><trkpt lat="42.2724371" lon="13.7104255"><ele>883.0</ele><time>2026-05-03T08:40:56.338Z</time></trkpt><trkpt lat="42.272359" lon="13.7102749"><ele>883.4</ele><time>2026-05-03T08:40:58.348Z</time></trkpt><trkpt lat="42.2723263" lon="13.7101563"><ele>883.8</ele><time>2026-05-03T08:40:59.348Z</time></trkpt><trkpt lat="42.2722825" lon="13.7100792"><ele>884.2</ele><time>2026-05-03T08:41:00.341Z</time></trkpt><trkpt lat="42.2721817" lon="13.7100288"><ele>884.6</ele><time>2026-05-03T08:41:02.348Z</time></trkpt><trkpt lat="42.2721161" lon="13.7100162"><ele>885.0</ele><time>2026-05-03T08:41:03.348Z</time></trkpt><trkpt lat="42.2720232" lon="13.7099111"><ele>884.1428571428571</ele><time>2026-05-03T08:41:05.353Z</time></trkpt><trkpt lat="42.2719729" lon="13.7098409"><ele>883.2857142857142</ele><time>2026-05-03T08:41:06.351Z</time></trkpt><trkpt lat="42.2719261" lon="13.7097671"><ele>882.4285714285714</ele><time>2026-05-03T08:41:07.363Z</time></trkpt><trkpt lat="42.2718827" lon="13.7096966"><ele>881.5714285714286</ele><time>2026-05-03T08:41:08.352Z</time></trkpt><trkpt lat="42.2718422" lon="13.7096228"><ele>880.7142857142858</ele><time>2026-05-03T08:41:09.354Z</time></trkpt><trkpt lat="42.2718058" lon="13.7095381"><ele>879.8571428571429</ele><time>2026-05-03T08:41:10.354Z</time></trkpt><trkpt lat="42.2717733" lon="13.7094462"><ele>879.0</ele><time>2026-05-03T08:41:11.351Z</time></trkpt><trkpt lat="42.2717501" lon="13.7093574"><ele>878.8000000000001</ele><time>2026-05-03T08:41:12.354Z</time></trkpt><trkpt lat="42.271715" lon="13.7092021"><ele>878.6000000000001</ele><time>2026-05-03T08:41:14.354Z</time></trkpt><trkpt lat="42.2716815" lon="13.7090561"><ele>878.4</ele><time>2026-05-03T08:41:16.352Z</time></trkpt><trkpt lat="42.2716367" lon="13.7089026"><ele>878.2</ele><time>2026-05-03T08:41:18.354Z</time></trkpt><trkpt lat="42.2716302" lon="13.7088139"><ele>878.0</ele><time>2026-05-03T08:41:19.352Z</time></trkpt><trkpt lat="42.2716215" lon="13.7087189"><ele>878.0000000000001</ele><time>2026-05-03T08:41:20.35Z</time></trkpt><trkpt lat="42.2716087" lon="13.7086321"><ele>878.0</ele><time>2026-05-03T08:41:21.349Z</time></trkpt><trkpt lat="42.2715971" lon="13.7085395"><ele>878.0</ele><time>2026-05-03T08:41:22.352Z</time></trkpt><trkpt lat="42.2715921" lon="13.7084305"><ele>878.0</ele><time>2026-05-03T08:41:23.349Z</time></trkpt><trkpt lat="42.2715951" lon="13.7083114"><ele>878.0000000000001</ele><time>2026-05-03T08:41:24.351Z</time></trkpt><trkpt lat="42.2715866" lon="13.7081775"><ele>878.0</ele><time>2026-05-03T08:41:25.349Z</time></trkpt><trkpt lat="42.2715832" lon="13.7080439"><ele>877.5000000000001</ele><time>2026-05-03T08:41:26.35Z</time></trkpt><trkpt lat="42.2715834" lon="13.7079237"><ele>877.0</ele><time>2026-05-03T08:41:27.351Z</time></trkpt><trkpt lat="42.2715801" lon="13.7078192"><ele>876.5</ele><time>2026-05-03T08:41:28.352Z</time></trkpt><trkpt lat="42.2715622" lon="13.7077098"><ele>876.0</ele><time>2026-05-03T08:41:29.348Z</time></trkpt><trkpt lat="42.2715536" lon="13.7076031"><ele>875.5000000000001</ele><time>2026-05-03T08:41:30.35Z</time></trkpt><trkpt lat="42.27155" lon="13.7074935"><ele>875.0</ele><time>2026-05-03T08:41:31.351Z</time></trkpt><trkpt lat="42.2715668" lon="13.7073852"><ele>874.2857142857143</ele><time>2026-05-03T08:41:32.348Z</time></trkpt><trkpt lat="42.2715954" lon="13.7072922"><ele>873.5714285714286</ele><time>2026-05-03T08:41:33.352Z</time></trkpt><trkpt lat="42.2716217" lon="13.7071915"><ele>872.8571428571429</ele><time>2026-05-03T08:41:34.349Z</time></trkpt><trkpt lat="42.2716365" lon="13.7070905"><ele>872.1428571428571</ele><time>2026-05-03T08:41:35.349Z</time></trkpt><trkpt lat="42.271642" lon="13.7069889"><ele>871.4285714285714</ele><time>2026-05-03T08:41:36.351Z</time></trkpt><trkpt lat="42.2716445" lon="13.7069011"><ele>870.7142857142858</ele><time>2026-05-03T08:41:37.35Z</time></trkpt><trkpt lat="42.2716538" lon="13.7068134"><ele>870.0</ele><time>2026-05-03T08:41:38.363Z</time></trkpt><trkpt lat="42.2716726" lon="13.7066668"><ele>868.2</ele><time>2026-05-03T08:41:40.351Z</time></trkpt><trkpt lat="42.2716917" lon="13.7065377"><ele>866.4</ele><time>2026-05-03T08:41:42.347Z</time></trkpt><trkpt lat="42.2717095" lon="13.7063936"><ele>864.5999999999999</ele><time>2026-05-03T08:41:44.352Z</time></trkpt><trkpt lat="42.2717132" lon="13.7062261"><ele>862.8</ele><time>2026-05-03T08:41:46.354Z</time></trkpt><trkpt lat="42.2717058" lon="13.7061334"><ele>861.0</ele><time>2026-05-03T08:41:47.355Z</time></trkpt><trkpt lat="42.2717089" lon="13.7059585"><ele>860.0</ele><time>2026-05-03T08:41:49.355Z</time></trkpt><trkpt lat="42.2717106" lon="13.7058594"><ele>859.0</ele><time>2026-05-03T08:41:50.353Z</time></trkpt><trkpt lat="42.2717076" lon="13.7057668"><ele>858.0</ele><time>2026-05-03T08:41:51.35Z</time></trkpt><trkpt lat="42.2717046" lon="13.7056728"><ele>857.0</ele><time>2026-05-03T08:41:52.351Z</time></trkpt><trkpt lat="42.2716956" lon="13.7055855"><ele>856.0</ele><time>2026-05-03T08:41:53.351Z</time></trkpt><trkpt lat="42.2716677" lon="13.7054706"><ele>855.0</ele><time>2026-05-03T08:41:55.359Z</time></trkpt><trkpt lat="42.2716502" lon="13.7053713"><ele>854.0</ele><time>2026-05-03T08:41:57.358Z</time></trkpt><trkpt lat="42.2716219" lon="13.7052734"><ele>853.0</ele><time>2026-05-03T08:41:59.356Z</time></trkpt><trkpt lat="42.2715801" lon="13.7051863"><ele>852.0000000000001</ele><time>2026-05-03T08:42:01.355Z</time></trkpt><trkpt lat="42.2715063" lon="13.7051206"><ele>851.0</ele><time>2026-05-03T08:42:03.355Z</time></trkpt><trkpt lat="42.2714102" lon="13.7050864"><ele>850.0</ele><time>2026-05-03T08:42:05.348Z</time></trkpt><trkpt lat="42.2713372" lon="13.704987"><ele>849.0</ele><time>2026-05-03T08:42:07.354Z</time></trkpt><trkpt lat="42.2712431" lon="13.7049146"><ele>848.1666666666666</ele><time>2026-05-03T08:42:09.361Z</time></trkpt><trkpt lat="42.2711886" lon="13.7048684"><ele>847.3333333333333</ele><time>2026-05-03T08:42:10.345Z</time></trkpt><trkpt lat="42.2711086" lon="13.7047442"><ele>846.5</ele><time>2026-05-03T08:42:12.348Z</time></trkpt><trkpt lat="42.271052" lon="13.7046089"><ele>845.6666666666666</ele><time>2026-05-03T08:42:14.345Z</time></trkpt><trkpt lat="42.271019" lon="13.7045295"><ele>844.8333333333333</ele><time>2026-05-03T08:42:15.348Z</time></trkpt><trkpt lat="42.2709917" lon="13.7044519"><ele>844.0</ele><time>2026-05-03T08:42:16.346Z</time></trkpt><trkpt lat="42.2709276" lon="13.7043205"><ele>842.6</ele><time>2026-05-03T08:42:18.348Z</time></trkpt><trkpt lat="42.2708649" lon="13.7041654"><ele>841.2</ele><time>2026-05-03T08:42:20.359Z</time></trkpt><trkpt lat="42.270823" lon="13.7040924"><ele>839.8000000000001</ele><time>2026-05-03T08:42:21.352Z</time></trkpt><trkpt lat="42.2707142" lon="13.7040133"><ele>838.4000000000001</ele><time>2026-05-03T08:42:23.356Z</time></trkpt><trkpt lat="42.2705996" lon="13.7039907"><ele>837.0</ele><time>2026-05-03T08:42:25.355Z</time></trkpt><trkpt lat="42.2705188" lon="13.7039594"><ele>836.6666666666666</ele><time>2026-05-03T08:42:27.365Z</time></trkpt><trkpt lat="42.2704532" lon="13.7039327"><ele>836.3333333333333</ele><time>2026-05-03T08:42:29.358Z</time></trkpt><trkpt lat="42.2703565" lon="13.7039355"><ele>836.0</ele><time>2026-05-03T08:42:31.356Z</time></trkpt><trkpt lat="42.2702864" lon="13.7039476"><ele>835.6666666666666</ele><time>2026-05-03T08:42:32.357Z</time></trkpt><trkpt lat="42.2702066" lon="13.7039441"><ele>835.3333333333333</ele><time>2026-05-03T08:42:33.36Z</time></trkpt><trkpt lat="42.2700998" lon="13.7039477"><ele>835.0</ele><time>2026-05-03T08:42:35.361Z</time></trkpt><trkpt lat="42.2700087" lon="13.7039036"><ele>834.9999999999999</ele><time>2026-05-03T08:42:37.361Z</time></trkpt><trkpt lat="42.2699475" lon="13.7037637"><ele>835.0</ele><time>2026-05-03T08:42:39.359Z</time></trkpt><trkpt lat="42.2698996" lon="13.7037076"><ele>835.0</ele><time>2026-05-03T08:42:40.368Z</time></trkpt><trkpt lat="42.2698354" lon="13.7036582"><ele>835.0</ele><time>2026-05-03T08:42:41.355Z</time></trkpt><trkpt lat="42.2697638" lon="13.703623"><ele>834.9999999999999</ele><time>2026-05-03T08:42:42.363Z</time></trkpt><trkpt lat="42.2696975" lon="13.7035964"><ele>835.0</ele><time>2026-05-03T08:42:43.36Z</time></trkpt><trkpt lat="42.2696219" lon="13.7035682"><ele>833.5714285714287</ele><time>2026-05-03T08:42:44.362Z</time></trkpt><trkpt lat="42.2695577" lon="13.7035402"><ele>832.1428571428571</ele><time>2026-05-03T08:42:45.361Z</time></trkpt><trkpt lat="42.2694925" lon="13.7035168"><ele>830.7142857142858</ele><time>2026-05-03T08:42:46.363Z</time></trkpt><trkpt lat="42.2694249" lon="13.7034916"><ele>829.2857142857143</ele><time>2026-05-03T08:42:47.36Z</time></trkpt><trkpt lat="42.2693469" lon="13.7034772"><ele>827.8571428571429</ele><time>2026-05-03T08:42:48.358Z</time></trkpt><trkpt lat="42.2692747" lon="13.7034642"><ele>826.4285714285714</ele><time>2026-05-03T08:42:49.363Z</time></trkpt><trkpt lat="42.2692057" lon="13.7034338"><ele>825.0</ele><time>2026-05-03T08:42:50.362Z</time></trkpt><trkpt lat="42.26914" lon="13.7033814"><ele>825.0</ele><time>2026-05-03T08:42:51.354Z</time></trkpt><trkpt lat="42.2690699" lon="13.7033151"><ele>825.0</ele><time>2026-05-03T08:42:52.36Z</time></trkpt><trkpt lat="42.2690011" lon="13.7032659"><ele>825.0</ele><time>2026-05-03T08:42:53.359Z</time></trkpt><trkpt lat="42.2689347" lon="13.7032351"><ele>825.0</ele><time>2026-05-03T08:42:54.358Z</time></trkpt><trkpt lat="42.2688695" lon="13.7032043"><ele>825.0</ele><time>2026-05-03T08:42:55.359Z</time></trkpt><trkpt lat="42.2687689" lon="13.7031551"><ele>825.0</ele><time>2026-05-03T08:42:57.348Z</time></trkpt><trkpt lat="42.2686935" lon="13.7031759"><ele>824.1666666666666</ele><time>2026-05-03T08:42:59.348Z</time></trkpt><trkpt lat="42.2686114" lon="13.7032997"><ele>823.3333333333333</ele><time>2026-05-03T08:43:01.357Z</time></trkpt><trkpt lat="42.2685524" lon="13.7033757"><ele>822.5</ele><time>2026-05-03T08:43:02.355Z</time></trkpt><trkpt lat="42.2685067" lon="13.7034439"><ele>821.6666666666666</ele><time>2026-05-03T08:43:03.355Z</time></trkpt><trkpt lat="42.2684571" lon="13.7035163"><ele>820.8333333333333</ele><time>2026-05-03T08:43:04.358Z</time></trkpt><trkpt lat="42.26841" lon="13.7036007"><ele>820.0</ele><time>2026-05-03T08:43:05.356Z</time></trkpt><trkpt lat="42.2683682" lon="13.7036784"><ele>820.0</ele><time>2026-05-03T08:43:06.362Z</time></trkpt><trkpt lat="42.2683335" lon="13.7037544"><ele>820.0</ele><time>2026-05-03T08:43:07.358Z</time></trkpt><trkpt lat="42.2682959" lon="13.7038254"><ele>820.0</ele><time>2026-05-03T08:43:08.36Z</time></trkpt><trkpt lat="42.2682227" lon="13.7039654"><ele>820.0</ele><time>2026-05-03T08:43:10.364Z</time></trkpt><trkpt lat="42.2681572" lon="13.7041032"><ele>820.0</ele><time>2026-05-03T08:43:12.362Z</time></trkpt><trkpt lat="42.2681292" lon="13.7041966"><ele>819.9999999999999</ele><time>2026-05-03T08:43:13.358Z</time></trkpt><trkpt lat="42.2681127" lon="13.7042972"><ele>820.0</ele><time>2026-05-03T08:43:14.364Z</time></trkpt><trkpt lat="42.2680968" lon="13.7043887"><ele>820.0</ele><time>2026-05-03T08:43:15.357Z</time></trkpt><trkpt lat="42.2680674" lon="13.7044759"><ele>820.0</ele><time>2026-05-03T08:43:16.356Z</time></trkpt><trkpt lat="42.2680357" lon="13.7045544"><ele>819.9999999999999</ele><time>2026-05-03T08:43:17.357Z</time></trkpt><trkpt lat="42.2680052" lon="13.704692"><ele>820.0</ele><time>2026-05-03T08:43:19.353Z</time></trkpt><trkpt lat="42.2679984" lon="13.7048168"><ele>819.5714285714286</ele><time>2026-05-03T08:43:21.349Z</time></trkpt><trkpt lat="42.2679461" lon="13.7049007"><ele>819.1428571428571</ele><time>2026-05-03T08:43:24.353Z</time></trkpt><trkpt lat="42.2679137" lon="13.7048107"><ele>818.7142857142857</ele><time>2026-05-03T08:43:28.35Z</time></trkpt><trkpt lat="42.2679062" lon="13.7046976"><ele>818.2857142857142</ele><time>2026-05-03T08:43:30.353Z</time></trkpt><trkpt lat="42.2678942" lon="13.7046007"><ele>817.8571428571429</ele><time>2026-05-03T08:43:31.35Z</time></trkpt><trkpt lat="42.2678854" lon="13.7045093"><ele>817.4285714285713</ele><time>2026-05-03T08:43:32.352Z</time></trkpt><trkpt lat="42.2678737" lon="13.7044206"><ele>817.0</ele><time>2026-05-03T08:43:33.348Z</time></trkpt><trkpt lat="42.2678595" lon="13.7043357"><ele>816.9999999999999</ele><time>2026-05-03T08:43:34.351Z</time></trkpt><trkpt lat="42.2678365" lon="13.7042074"><ele>817.0</ele><time>2026-05-03T08:43:36.351Z</time></trkpt><trkpt lat="42.2678024" lon="13.704132"><ele>817.0</ele><time>2026-05-03T08:43:38.345Z</time></trkpt><trkpt lat="42.2676899" lon="13.7041488"><ele>817.0</ele><time>2026-05-03T08:43:56.348Z</time></trkpt><trkpt lat="42.2676122" lon="13.7041425"><ele>816.9999999999999</ele><time>2026-05-03T08:43:57.358Z</time></trkpt><trkpt lat="42.2675513" lon="13.7041135"><ele>817.0</ele><time>2026-05-03T08:43:58.345Z</time></trkpt><trkpt lat="42.2674961" lon="13.7040635"><ele>816.9999999999999</ele><time>2026-05-03T08:43:59.352Z</time></trkpt><trkpt lat="42.2674346" lon="13.7040038"><ele>817.0</ele><time>2026-05-03T08:44:00.346Z</time></trkpt><trkpt lat="42.2673767" lon="13.7039416"><ele>817.0</ele><time>2026-05-03T08:44:01.343Z</time></trkpt><trkpt lat="42.2673151" lon="13.7038774"><ele>817.0</ele><time>2026-05-03T08:44:02.347Z</time></trkpt><trkpt lat="42.267249" lon="13.703806"><ele>816.9999999999999</ele><time>2026-05-03T08:44:03.34Z</time></trkpt><trkpt lat="42.2671846" lon="13.7037269"><ele>817.0</ele><time>2026-05-03T08:44:04.346Z</time></trkpt><trkpt lat="42.2671157" lon="13.7036329"><ele>816.0</ele><time>2026-05-03T08:44:05.348Z</time></trkpt><trkpt lat="42.2670415" lon="13.7035379"><ele>815.0</ele><time>2026-05-03T08:44:06.348Z</time></trkpt><trkpt lat="42.2669764" lon="13.703457"><ele>814.0</ele><time>2026-05-03T08:44:07.348Z</time></trkpt><trkpt lat="42.266914" lon="13.7033832"><ele>813.0</ele><time>2026-05-03T08:44:08.352Z</time></trkpt><trkpt lat="42.2668496" lon="13.7032932"><ele>812.0</ele><time>2026-05-03T08:44:09.346Z</time></trkpt><trkpt lat="42.2667828" lon="13.7031936"><ele>812.0000000000001</ele><time>2026-05-03T08:44:10.353Z</time></trkpt><trkpt lat="42.26674" lon="13.7030999"><ele>812.0</ele><time>2026-05-03T08:44:11.352Z</time></trkpt><trkpt lat="42.2667154" lon="13.7030112"><ele>812.0</ele><time>2026-05-03T08:44:12.354Z</time></trkpt><trkpt lat="42.2666496" lon="13.7028924"><ele>812.0</ele><time>2026-05-03T08:44:14.345Z</time></trkpt><trkpt lat="42.2665499" lon="13.7028836"><ele>812.0000000000001</ele><time>2026-05-03T08:44:16.359Z</time></trkpt><trkpt lat="42.2664891" lon="13.7029333"><ele>812.0</ele><time>2026-05-03T08:44:17.348Z</time></trkpt><trkpt lat="42.266408" lon="13.702991"><ele>810.8</ele><time>2026-05-03T08:44:18.351Z</time></trkpt><trkpt lat="42.2663197" lon="13.7030536"><ele>809.6</ele><time>2026-05-03T08:44:19.356Z</time></trkpt><trkpt lat="42.2662233" lon="13.7031321"><ele>808.4</ele><time>2026-05-03T08:44:20.358Z</time></trkpt><trkpt lat="42.2661321" lon="13.7032154"><ele>807.1999999999999</ele><time>2026-05-03T08:44:21.355Z</time></trkpt><trkpt lat="42.2660397" lon="13.7032983"><ele>806.0</ele><time>2026-05-03T08:44:22.349Z</time></trkpt><trkpt lat="42.2659578" lon="13.7033621"><ele>806.0</ele><time>2026-05-03T08:44:23.356Z</time></trkpt><trkpt lat="42.2658774" lon="13.7034152"><ele>806.0</ele><time>2026-05-03T08:44:24.356Z</time></trkpt><trkpt lat="42.2657884" lon="13.7034444"><ele>806.0</ele><time>2026-05-03T08:44:25.346Z</time></trkpt><trkpt lat="42.2656932" lon="13.7034553"><ele>806.0</ele><time>2026-05-03T08:44:26.346Z</time></trkpt><trkpt lat="42.2656034" lon="13.7034498"><ele>806.0</ele><time>2026-05-03T08:44:27.353Z</time></trkpt><trkpt lat="42.2655159" lon="13.7034484"><ele>805.8</ele><time>2026-05-03T08:44:28.353Z</time></trkpt><trkpt lat="42.2654223" lon="13.7034532"><ele>805.5999999999999</ele><time>2026-05-03T08:44:29.352Z</time></trkpt><trkpt lat="42.2653294" lon="13.7034578"><ele>805.4</ele><time>2026-05-03T08:44:30.357Z</time></trkpt><trkpt lat="42.2652363" lon="13.7034589"><ele>805.2</ele><time>2026-05-03T08:44:31.358Z</time></trkpt><trkpt lat="42.26514" lon="13.703464"><ele>805.0</ele><time>2026-05-03T08:44:32.358Z</time></trkpt><trkpt lat="42.2650507" lon="13.703474"><ele>805.0</ele><time>2026-05-03T08:44:33.359Z</time></trkpt><trkpt lat="42.2649511" lon="13.7034775"><ele>805.0</ele><time>2026-05-03T08:44:34.358Z</time></trkpt><trkpt lat="42.2648461" lon="13.7034877"><ele>805.0</ele><time>2026-05-03T08:44:35.358Z</time></trkpt><trkpt lat="42.2647382" lon="13.7034831"><ele>805.0</ele><time>2026-05-03T08:44:36.357Z</time></trkpt><trkpt lat="42.2646262" lon="13.7034666"><ele>805.0</ele><time>2026-05-03T08:44:37.354Z</time></trkpt><trkpt lat="42.2645219" lon="13.703421"><ele>805.4</ele><time>2026-05-03T08:44:38.359Z</time></trkpt><trkpt lat="42.2644261" lon="13.7033694"><ele>805.8</ele><time>2026-05-03T08:44:39.358Z</time></trkpt><trkpt lat="42.2643382" lon="13.7033151"><ele>806.2</ele><time>2026-05-03T08:44:40.353Z</time></trkpt><trkpt lat="42.2642561" lon="13.7032684"><ele>806.6</ele><time>2026-05-03T08:44:41.357Z</time></trkpt><trkpt lat="42.2641834" lon="13.7032135"><ele>807.0</ele><time>2026-05-03T08:44:42.36Z</time></trkpt><trkpt lat="42.2641158" lon="13.7031453"><ele>807.0</ele><time>2026-05-03T08:44:43.371Z</time></trkpt><trkpt lat="42.2640498" lon="13.703073"><ele>807.0</ele><time>2026-05-03T08:44:44.357Z</time></trkpt><trkpt lat="42.2639886" lon="13.7029934"><ele>807.0</ele><time>2026-05-03T08:44:45.355Z</time></trkpt><trkpt lat="42.2639433" lon="13.7028958"><ele>807.0</ele><time>2026-05-03T08:44:46.353Z</time></trkpt><trkpt lat="42.2639049" lon="13.7027921"><ele>807.0</ele><time>2026-05-03T08:44:47.358Z</time></trkpt><trkpt lat="42.2638716" lon="13.7026746"><ele>807.0</ele><time>2026-05-03T08:44:48.359Z</time></trkpt><trkpt lat="42.2638314" lon="13.7025657"><ele>806.6666666666666</ele><time>2026-05-03T08:44:49.356Z</time></trkpt><trkpt lat="42.2637888" lon="13.7024436"><ele>806.3333333333333</ele><time>2026-05-03T08:44:50.339Z</time></trkpt><trkpt lat="42.2637463" lon="13.7023289"><ele>806.0</ele><time>2026-05-03T08:44:51.334Z</time></trkpt><trkpt lat="42.2637157" lon="13.7022265"><ele>805.6666666666666</ele><time>2026-05-03T08:44:52.337Z</time></trkpt><trkpt lat="42.2636893" lon="13.7021449"><ele>805.3333333333333</ele><time>2026-05-03T08:44:53.337Z</time></trkpt><trkpt lat="42.2636412" lon="13.7020596"><ele>805.0</ele><time>2026-05-03T08:44:54.34Z</time></trkpt><trkpt lat="42.2635859" lon="13.7019769"><ele>804.6666666666666</ele><time>2026-05-03T08:44:55.334Z</time></trkpt><trkpt lat="42.2635228" lon="13.7018836"><ele>804.3333333333333</ele><time>2026-05-03T08:44:56.336Z</time></trkpt><trkpt lat="42.2634707" lon="13.7017951"><ele>804.0</ele><time>2026-05-03T08:44:57.335Z</time></trkpt><trkpt lat="42.2634167" lon="13.7017135"><ele>803.6666666666667</ele><time>2026-05-03T08:44:58.343Z</time></trkpt><trkpt lat="42.2633676" lon="13.7016584"><ele>803.3333333333334</ele><time>2026-05-03T08:44:59.338Z</time></trkpt><trkpt lat="42.2632467" lon="13.7016391"><ele>803.0</ele><time>2026-05-03T08:45:01.33Z</time></trkpt><trkpt lat="42.2631171" lon="13.7016772"><ele>806.1666666666667</ele><time>2026-05-03T08:45:03.333Z</time></trkpt><trkpt lat="42.2630433" lon="13.7016812"><ele>809.3333333333334</ele><time>2026-05-03T08:45:04.336Z</time></trkpt><trkpt lat="42.2629578" lon="13.7016931"><ele>812.5</ele><time>2026-05-03T08:45:05.336Z</time></trkpt><trkpt lat="42.2628854" lon="13.7017173"><ele>815.6666666666667</ele><time>2026-05-03T08:45:06.325Z</time></trkpt><trkpt lat="42.2628238" lon="13.7017511"><ele>818.8333333333334</ele><time>2026-05-03T08:45:07.326Z</time></trkpt><trkpt lat="42.2627658" lon="13.7018046"><ele>822.0</ele><time>2026-05-03T08:45:08.329Z</time></trkpt><trkpt lat="42.2627023" lon="13.7018773"><ele>823.8333333333334</ele><time>2026-05-03T08:45:09.331Z</time></trkpt><trkpt lat="42.262638" lon="13.7019382"><ele>825.6666666666667</ele><time>2026-05-03T08:45:10.331Z</time></trkpt><trkpt lat="42.262561" lon="13.7020004"><ele>827.5</ele><time>2026-05-03T08:45:11.322Z</time></trkpt><trkpt lat="42.2624893" lon="13.7020679"><ele>829.3333333333334</ele><time>2026-05-03T08:45:12.323Z</time></trkpt><trkpt lat="42.2624102" lon="13.7021378"><ele>831.1666666666667</ele><time>2026-05-03T08:45:13.316Z</time></trkpt><trkpt lat="42.262329" lon="13.7022071"><ele>833.0</ele><time>2026-05-03T08:45:14.33Z</time></trkpt><trkpt lat="42.26225" lon="13.7022597"><ele>833.0</ele><time>2026-05-03T08:45:15.316Z</time></trkpt><trkpt lat="42.2621669" lon="13.7023176"><ele>833.0</ele><time>2026-05-03T08:45:16.323Z</time></trkpt><trkpt lat="42.2620749" lon="13.7023706"><ele>833.0</ele><time>2026-05-03T08:45:17.314Z</time></trkpt><trkpt lat="42.261993" lon="13.702453"><ele>833.0</ele><time>2026-05-03T08:45:18.316Z</time></trkpt><trkpt lat="42.2619086" lon="13.7025358"><ele>833.0</ele><time>2026-05-03T08:45:19.323Z</time></trkpt><trkpt lat="42.2618156" lon="13.702634"><ele>833.0</ele><time>2026-05-03T08:45:20.319Z</time></trkpt><trkpt lat="42.2617162" lon="13.7027281"><ele>833.0</ele><time>2026-05-03T08:45:21.313Z</time></trkpt><trkpt lat="42.2616285" lon="13.7028338"><ele>833.0</ele><time>2026-05-03T08:45:22.317Z</time></trkpt><trkpt lat="42.2615371" lon="13.7029283"><ele>833.0</ele><time>2026-05-03T08:45:23.317Z</time></trkpt><trkpt lat="42.2614305" lon="13.7030016"><ele>832.4</ele><time>2026-05-03T08:45:24.325Z</time></trkpt><trkpt lat="42.2613252" lon="13.7030659"><ele>831.8</ele><time>2026-05-03T08:45:25.325Z</time></trkpt><trkpt lat="42.2612297" lon="13.7031328"><ele>831.2</ele><time>2026-05-03T08:45:26.321Z</time></trkpt><trkpt lat="42.2611468" lon="13.7031969"><ele>830.6</ele><time>2026-05-03T08:45:27.322Z</time></trkpt><trkpt lat="42.2610596" lon="13.7032489"><ele>830.0</ele><time>2026-05-03T08:45:28.324Z</time></trkpt><trkpt lat="42.2609762" lon="13.7032983"><ele>830.0</ele><time>2026-05-03T08:45:29.325Z</time></trkpt><trkpt lat="42.2608936" lon="13.7033478"><ele>830.0</ele><time>2026-05-03T08:45:30.326Z</time></trkpt><trkpt lat="42.2607983" lon="13.7033967"><ele>830.0</ele><time>2026-05-03T08:45:31.327Z</time></trkpt><trkpt lat="42.2607072" lon="13.7034511"><ele>830.0</ele><time>2026-05-03T08:45:32.329Z</time></trkpt><trkpt lat="42.2606178" lon="13.7034896"><ele>830.0</ele><time>2026-05-03T08:45:33.327Z</time></trkpt><trkpt lat="42.2605146" lon="13.7035059"><ele>830.0</ele><time>2026-05-03T08:45:34.329Z</time></trkpt><trkpt lat="42.2604221" lon="13.7035214"><ele>830.0</ele><time>2026-05-03T08:45:35.33Z</time></trkpt><trkpt lat="42.2603244" lon="13.7035336"><ele>830.0</ele><time>2026-05-03T08:45:36.336Z</time></trkpt><trkpt lat="42.2602253" lon="13.7035524"><ele>830.0</ele><time>2026-05-03T08:45:37.331Z</time></trkpt><trkpt lat="42.2601234" lon="13.7035757"><ele>830.0</ele><time>2026-05-03T08:45:38.33Z</time></trkpt><trkpt lat="42.2600469" lon="13.7035741"><ele>830.0</ele><time>2026-05-03T08:45:39.352Z</time></trkpt><trkpt lat="42.2599263" lon="13.7035213"><ele>830.0</ele><time>2026-05-03T08:45:41.342Z</time></trkpt><trkpt lat="42.2598948" lon="13.7034346"><ele>830.0</ele><time>2026-05-03T08:45:42.344Z</time></trkpt><trkpt lat="42.2598905" lon="13.7033275"><ele>830.0</ele><time>2026-05-03T08:45:43.337Z</time></trkpt><trkpt lat="42.2598834" lon="13.7032082"><ele>830.0</ele><time>2026-05-03T08:45:44.339Z</time></trkpt><trkpt lat="42.259873" lon="13.7030814"><ele>830.0</ele><time>2026-05-03T08:45:45.349Z</time></trkpt><trkpt lat="42.2598655" lon="13.7029336"><ele>830.0</ele><time>2026-05-03T08:45:46.34Z</time></trkpt><trkpt lat="42.2598615" lon="13.702788"><ele>830.0</ele><time>2026-05-03T08:45:47.335Z</time></trkpt><trkpt lat="42.2598475" lon="13.70264"><ele>830.0</ele><time>2026-05-03T08:45:48.336Z</time></trkpt><trkpt lat="42.2598433" lon="13.7024854"><ele>830.0</ele><time>2026-05-03T08:45:49.342Z</time></trkpt><trkpt lat="42.2598379" lon="13.7023438"><ele>831.4</ele><time>2026-05-03T08:45:50.342Z</time></trkpt><trkpt lat="42.2598466" lon="13.7022033"><ele>832.8</ele><time>2026-05-03T08:45:51.336Z</time></trkpt><trkpt lat="42.2598647" lon="13.7020716"><ele>834.2</ele><time>2026-05-03T08:45:52.341Z</time></trkpt><trkpt lat="42.2598758" lon="13.7019421"><ele>835.6</ele><time>2026-05-03T08:45:53.341Z</time></trkpt><trkpt lat="42.2598923" lon="13.7018098"><ele>837.0</ele><time>2026-05-03T08:45:54.342Z</time></trkpt><trkpt lat="42.2599019" lon="13.7016845"><ele>835.8</ele><time>2026-05-03T08:45:55.331Z</time></trkpt><trkpt lat="42.2598835" lon="13.7015677"><ele>834.6</ele><time>2026-05-03T08:45:56.34Z</time></trkpt><trkpt lat="42.2598522" lon="13.7014674"><ele>833.4</ele><time>2026-05-03T08:45:57.34Z</time></trkpt><trkpt lat="42.2597939" lon="13.701371"><ele>832.1999999999999</ele><time>2026-05-03T08:45:58.342Z</time></trkpt><trkpt lat="42.2597089" lon="13.7013027"><ele>831.0</ele><time>2026-05-03T08:45:59.323Z</time></trkpt><trkpt lat="42.2596166" lon="13.7012444"><ele>831.0</ele><time>2026-05-03T08:46:00.334Z</time></trkpt><trkpt lat="42.2595102" lon="13.7011913"><ele>831.0</ele><time>2026-05-03T08:46:01.339Z</time></trkpt><trkpt lat="42.2593949" lon="13.701141"><ele>831.0</ele><time>2026-05-03T08:46:02.329Z</time></trkpt><trkpt lat="42.2592736" lon="13.7010787"><ele>831.0</ele><time>2026-05-03T08:46:03.331Z</time></trkpt><trkpt lat="42.2591568" lon="13.7010146"><ele>836.0</ele><time>2026-05-03T08:46:04.332Z</time></trkpt><trkpt lat="42.2590442" lon="13.7009483"><ele>841.0</ele><time>2026-05-03T08:46:05.331Z</time></trkpt><trkpt lat="42.2589321" lon="13.70089"><ele>846.0</ele><time>2026-05-03T08:46:06.331Z</time></trkpt><trkpt lat="42.2588188" lon="13.7008357"><ele>851.0</ele><time>2026-05-03T08:46:07.325Z</time></trkpt><trkpt lat="42.2587069" lon="13.7007726"><ele>851.0</ele><time>2026-05-03T08:46:08.324Z</time></trkpt><trkpt lat="42.2585969" lon="13.7007207"><ele>851.0</ele><time>2026-05-03T08:46:09.327Z</time></trkpt><trkpt lat="42.2584841" lon="13.7006677"><ele>851.0</ele><time>2026-05-03T08:46:10.325Z</time></trkpt><trkpt lat="42.2583622" lon="13.7006171"><ele>851.0</ele><time>2026-05-03T08:46:11.315Z</time></trkpt><trkpt lat="42.2582274" lon="13.7005666"><ele>853.0</ele><time>2026-05-03T08:46:12.318Z</time></trkpt><trkpt lat="42.2580928" lon="13.7005362"><ele>855.0</ele><time>2026-05-03T08:46:13.316Z</time></trkpt><trkpt lat="42.2579544" lon="13.7005244"><ele>857.0</ele><time>2026-05-03T08:46:14.322Z</time></trkpt><trkpt lat="42.2578201" lon="13.7005215"><ele>859.0</ele><time>2026-05-03T08:46:15.324Z</time></trkpt><trkpt lat="42.2577028" lon="13.7005675"><ele>859.0</ele><time>2026-05-03T08:46:16.334Z</time></trkpt><trkpt lat="42.2575835" lon="13.7005892"><ele>859.0</ele><time>2026-05-03T08:46:17.319Z</time></trkpt><trkpt lat="42.2574635" lon="13.7006563"><ele>859.0</ele><time>2026-05-03T08:46:18.325Z</time></trkpt><trkpt lat="42.2573569" lon="13.7007281"><ele>859.0</ele><time>2026-05-03T08:46:19.326Z</time></trkpt><trkpt lat="42.2572693" lon="13.7007959"><ele>860.4999999999999</ele><time>2026-05-03T08:46:20.318Z</time></trkpt><trkpt lat="42.2571891" lon="13.7008307"><ele>862.0</ele><time>2026-05-03T08:46:21.322Z</time></trkpt><trkpt lat="42.2571049" lon="13.7008129"><ele>863.5</ele><time>2026-05-03T08:46:23.319Z</time></trkpt><trkpt lat="42.257101" lon="13.7007088"><ele>865.0</ele><time>2026-05-03T08:46:25.324Z</time></trkpt><trkpt lat="42.2571043" lon="13.700619"><ele>866.4999999999999</ele><time>2026-05-03T08:46:26.327Z</time></trkpt><trkpt lat="42.257064" lon="13.7004594"><ele>868.0</ele><time>2026-05-03T08:46:28.328Z</time></trkpt><trkpt lat="42.2570366" lon="13.7003538"><ele>867.9999999999999</ele><time>2026-05-03T08:46:29.335Z</time></trkpt><trkpt lat="42.2570208" lon="13.700251"><ele>868.0</ele><time>2026-05-03T08:46:30.336Z</time></trkpt><trkpt lat="42.2569918" lon="13.7001708"><ele>868.0</ele><time>2026-05-03T08:46:31.328Z</time></trkpt><trkpt lat="42.2568928" lon="13.7001335"><ele>868.0</ele><time>2026-05-03T08:46:33.34Z</time></trkpt><trkpt lat="42.2568095" lon="13.700185"><ele>867.9999999999999</ele><time>2026-05-03T08:46:34.33Z</time></trkpt><trkpt lat="42.2567202" lon="13.7002409"><ele>868.0</ele><time>2026-05-03T08:46:35.33Z</time></trkpt><trkpt lat="42.2566179" lon="13.7002897"><ele>868.0</ele><time>2026-05-03T08:46:36.322Z</time></trkpt><trkpt lat="42.2565078" lon="13.700338"><ele>868.0</ele><time>2026-05-03T08:46:37.327Z</time></trkpt><trkpt lat="42.2563953" lon="13.7003862"><ele>868.0</ele><time>2026-05-03T08:46:38.322Z</time></trkpt><trkpt lat="42.2562899" lon="13.700447"><ele>868.0</ele><time>2026-05-03T08:46:39.321Z</time></trkpt><trkpt lat="42.2562044" lon="13.700508"><ele>868.0</ele><time>2026-05-03T08:46:40.318Z</time></trkpt><trkpt lat="42.2561358" lon="13.7005557"><ele>864.8</ele><time>2026-05-03T08:46:41.318Z</time></trkpt><trkpt lat="42.2560287" lon="13.7006438"><ele>861.5999999999999</ele><time>2026-05-03T08:46:43.323Z</time></trkpt><trkpt lat="42.2559734" lon="13.7006923"><ele>858.4000000000001</ele><time>2026-05-03T08:46:44.319Z</time></trkpt><trkpt lat="42.2558952" lon="13.7007371"><ele>855.2</ele><time>2026-05-03T08:46:45.318Z</time></trkpt><trkpt lat="42.2558131" lon="13.7007896"><ele>852.0</ele><time>2026-05-03T08:46:46.314Z</time></trkpt><trkpt lat="42.2557131" lon="13.7008566"><ele>854.25</ele><time>2026-05-03T08:46:47.331Z</time></trkpt><trkpt lat="42.2556024" lon="13.700937"><ele>856.5</ele><time>2026-05-03T08:46:48.322Z</time></trkpt><trkpt lat="42.2554912" lon="13.7010203"><ele>858.75</ele><time>2026-05-03T08:46:49.321Z</time></trkpt><trkpt lat="42.25538" lon="13.7010908"><ele>861.0</ele><time>2026-05-03T08:46:50.325Z</time></trkpt><trkpt lat="42.2552819" lon="13.70115"><ele>861.0</ele><time>2026-05-03T08:46:51.323Z</time></trkpt><trkpt lat="42.2551844" lon="13.701191"><ele>861.0</ele><time>2026-05-03T08:46:52.314Z</time></trkpt><trkpt lat="42.2550632" lon="13.7012226"><ele>861.0</ele><time>2026-05-03T08:46:53.313Z</time></trkpt><trkpt lat="42.2549261" lon="13.7012575"><ele>861.0</ele><time>2026-05-03T08:46:54.316Z</time></trkpt><trkpt lat="42.2547906" lon="13.701278"><ele>858.8</ele><time>2026-05-03T08:46:55.314Z</time></trkpt><trkpt lat="42.2546772" lon="13.7012907"><ele>856.5999999999999</ele><time>2026-05-03T08:46:56.312Z</time></trkpt><trkpt lat="42.2545673" lon="13.7013045"><ele>854.4</ele><time>2026-05-03T08:46:57.32Z</time></trkpt><trkpt lat="42.254458" lon="13.7013109"><ele>852.2</ele><time>2026-05-03T08:46:58.316Z</time></trkpt><trkpt lat="42.2543586" lon="13.7013039"><ele>850.0</ele><time>2026-05-03T08:46:59.315Z</time></trkpt><trkpt lat="42.2542612" lon="13.7012987"><ele>850.0</ele><time>2026-05-03T08:47:00.317Z</time></trkpt><trkpt lat="42.2541609" lon="13.7012962"><ele>850.0</ele><time>2026-05-03T08:47:01.317Z</time></trkpt><trkpt lat="42.2540567" lon="13.7012903"><ele>850.0</ele><time>2026-05-03T08:47:02.32Z</time></trkpt><trkpt lat="42.2539549" lon="13.7012917"><ele>850.0</ele><time>2026-05-03T08:47:03.318Z</time></trkpt><trkpt lat="42.2538657" lon="13.7012916"><ele>850.0</ele><time>2026-05-03T08:47:04.32Z</time></trkpt><trkpt lat="42.2537872" lon="13.7013079"><ele>846.0</ele><time>2026-05-03T08:47:05.306Z</time></trkpt><trkpt lat="42.2537195" lon="13.701355"><ele>842.0</ele><time>2026-05-03T08:47:06.311Z</time></trkpt><trkpt lat="42.2536348" lon="13.7014114"><ele>838.0</ele><time>2026-05-03T08:47:07.319Z</time></trkpt><trkpt lat="42.2535379" lon="13.7014597"><ele>834.0</ele><time>2026-05-03T08:47:08.317Z</time></trkpt><trkpt lat="42.253429" lon="13.7015062"><ele>830.0</ele><time>2026-05-03T08:47:09.326Z</time></trkpt><trkpt lat="42.2533324" lon="13.7015568"><ele>830.0</ele><time>2026-05-03T08:47:10.317Z</time></trkpt><trkpt lat="42.2532555" lon="13.7016264"><ele>830.0</ele><time>2026-05-03T08:47:11.313Z</time></trkpt><trkpt lat="42.2531836" lon="13.7017172"><ele>830.0</ele><time>2026-05-03T08:47:12.323Z</time></trkpt><trkpt lat="42.2530968" lon="13.7018098"><ele>830.0</ele><time>2026-05-03T08:47:13.323Z</time></trkpt><trkpt lat="42.253006" lon="13.7018917"><ele>830.0</ele><time>2026-05-03T08:47:14.327Z</time></trkpt><trkpt lat="42.2529141" lon="13.7019701"><ele>828.6</ele><time>2026-05-03T08:47:15.327Z</time></trkpt><trkpt lat="42.2528328" lon="13.702048"><ele>827.2</ele><time>2026-05-03T08:47:16.323Z</time></trkpt><trkpt lat="42.2527505" lon="13.7021282"><ele>825.8</ele><time>2026-05-03T08:47:17.329Z</time></trkpt><trkpt lat="42.2526752" lon="13.7022092"><ele>824.4</ele><time>2026-05-03T08:47:18.33Z</time></trkpt><trkpt lat="42.252588" lon="13.7022895"><ele>823.0</ele><time>2026-05-03T08:47:19.322Z</time></trkpt><trkpt lat="42.2525032" lon="13.7023724"><ele>823.0</ele><time>2026-05-03T08:47:20.324Z</time></trkpt><trkpt lat="42.2524213" lon="13.702461"><ele>823.0</ele><time>2026-05-03T08:47:21.323Z</time></trkpt><trkpt lat="42.2523484" lon="13.7025234"><ele>823.0</ele><time>2026-05-03T08:47:22.325Z</time></trkpt><trkpt lat="42.2522781" lon="13.7025964"><ele>823.0</ele><time>2026-05-03T08:47:23.323Z</time></trkpt><trkpt lat="42.2522071" lon="13.7026608"><ele>823.0</ele><time>2026-05-03T08:47:24.321Z</time></trkpt><trkpt lat="42.2521364" lon="13.7027238"><ele>822.5999999999999</ele><time>2026-05-03T08:47:25.32Z</time></trkpt><trkpt lat="42.2520663" lon="13.7027739"><ele>822.1999999999999</ele><time>2026-05-03T08:47:26.327Z</time></trkpt><trkpt lat="42.2519997" lon="13.7028192"><ele>821.8</ele><time>2026-05-03T08:47:27.328Z</time></trkpt><trkpt lat="42.2519125" lon="13.7028743"><ele>821.4</ele><time>2026-05-03T08:47:28.325Z</time></trkpt><trkpt lat="42.2518157" lon="13.7029276"><ele>821.0</ele><time>2026-05-03T08:47:29.317Z</time></trkpt><trkpt lat="42.2517044" lon="13.7029643"><ele>821.0</ele><time>2026-05-03T08:47:30.314Z</time></trkpt><trkpt lat="42.2515833" lon="13.702989"><ele>821.0</ele><time>2026-05-03T08:47:31.326Z</time></trkpt><trkpt lat="42.2514809" lon="13.7030062"><ele>821.0</ele><time>2026-05-03T08:47:32.323Z</time></trkpt><trkpt lat="42.2513869" lon="13.7030145"><ele>821.0</ele><time>2026-05-03T08:47:33.326Z</time></trkpt><trkpt lat="42.2513001" lon="13.7030136"><ele>821.0</ele><time>2026-05-03T08:47:34.326Z</time></trkpt><trkpt lat="42.2512113" lon="13.7030119"><ele>819.4</ele><time>2026-05-03T08:47:35.324Z</time></trkpt><trkpt lat="42.2511347" lon="13.7030147"><ele>817.8</ele><time>2026-05-03T08:47:36.326Z</time></trkpt><trkpt lat="42.2510479" lon="13.703039"><ele>816.1999999999999</ele><time>2026-05-03T08:47:37.324Z</time></trkpt><trkpt lat="42.2509499" lon="13.7030844"><ele>814.5999999999999</ele><time>2026-05-03T08:47:38.327Z</time></trkpt><trkpt lat="42.2508393" lon="13.7031645"><ele>813.0</ele><time>2026-05-03T08:47:39.329Z</time></trkpt><trkpt lat="42.2507356" lon="13.7032596"><ele>813.0</ele><time>2026-05-03T08:47:40.333Z</time></trkpt><trkpt lat="42.25063" lon="13.7033405"><ele>813.0</ele><time>2026-05-03T08:47:41.327Z</time></trkpt><trkpt lat="42.2505349" lon="13.7034186"><ele>813.0</ele><time>2026-05-03T08:47:42.331Z</time></trkpt><trkpt lat="42.25044" lon="13.7034933"><ele>813.0</ele><time>2026-05-03T08:47:43.333Z</time></trkpt><trkpt lat="42.2503564" lon="13.7035943"><ele>812.0</ele><time>2026-05-03T08:47:44.324Z</time></trkpt><trkpt lat="42.2502787" lon="13.7036998"><ele>811.0</ele><time>2026-05-03T08:47:45.326Z</time></trkpt><trkpt lat="42.2502031" lon="13.7038035"><ele>810.0</ele><time>2026-05-03T08:47:46.328Z</time></trkpt><trkpt lat="42.2501406" lon="13.7038952"><ele>809.0</ele><time>2026-05-03T08:47:47.325Z</time></trkpt><trkpt lat="42.2500802" lon="13.7039739"><ele>808.0</ele><time>2026-05-03T08:47:48.323Z</time></trkpt><trkpt lat="42.2499946" lon="13.7040463"><ele>807.9999999999999</ele><time>2026-05-03T08:47:50.319Z</time></trkpt><trkpt lat="42.2499648" lon="13.7041339"><ele>808.0</ele><time>2026-05-03T08:47:53.327Z</time></trkpt><trkpt lat="42.2499665" lon="13.7042503"><ele>808.0</ele><time>2026-05-03T08:47:55.329Z</time></trkpt><trkpt lat="42.2499616" lon="13.7043619"><ele>808.0</ele><time>2026-05-03T08:47:57.323Z</time></trkpt><trkpt lat="42.2499175" lon="13.7044261"><ele>807.9999999999999</ele><time>2026-05-03T08:48:04.327Z</time></trkpt><trkpt lat="42.249881" lon="13.7045208"><ele>808.0</ele><time>2026-05-03T08:51:49.326Z</time></trkpt><trkpt lat="42.2498515" lon="13.7046142"><ele>807.8</ele><time>2026-05-03T08:51:51.33Z</time></trkpt><trkpt lat="42.249813" lon="13.7047211"><ele>807.5999999999999</ele><time>2026-05-03T08:51:53.339Z</time></trkpt><trkpt lat="42.2497888" lon="13.704837"><ele>807.4000000000001</ele><time>2026-05-03T08:51:55.338Z</time></trkpt><trkpt lat="42.2497643" lon="13.70494"><ele>807.2</ele><time>2026-05-03T08:51:58.331Z</time></trkpt><trkpt lat="42.2497354" lon="13.7050749"><ele>807.0</ele><time>2026-05-03T08:52:11.336Z</time></trkpt><trkpt lat="42.2496882" lon="13.7052075"><ele>809.6666666666666</ele><time>2026-05-03T08:52:13.337Z</time></trkpt><trkpt lat="42.249604" lon="13.7053223"><ele>812.3333333333333</ele><time>2026-05-03T08:52:15.334Z</time></trkpt><trkpt lat="42.2495468" lon="13.7053758"><ele>815.0</ele><time>2026-05-03T08:52:16.335Z</time></trkpt><trkpt lat="42.2494946" lon="13.7054439"><ele>817.6666666666666</ele><time>2026-05-03T08:52:17.332Z</time></trkpt><trkpt lat="42.2494311" lon="13.7055061"><ele>820.3333333333333</ele><time>2026-05-03T08:52:18.339Z</time></trkpt><trkpt lat="42.249371" lon="13.7055649"><ele>823.0</ele><time>2026-05-03T08:52:19.336Z</time></trkpt><trkpt lat="42.2493122" lon="13.7056268"><ele>823.0</ele><time>2026-05-03T08:52:20.331Z</time></trkpt><trkpt lat="42.2492506" lon="13.7056719"><ele>823.0</ele><time>2026-05-03T08:52:21.329Z</time></trkpt><trkpt lat="42.2491853" lon="13.7057218"><ele>823.0</ele><time>2026-05-03T08:52:22.334Z</time></trkpt><trkpt lat="42.2491194" lon="13.7057696"><ele>823.0</ele><time>2026-05-03T08:52:23.333Z</time></trkpt><trkpt lat="42.2490582" lon="13.7058158"><ele>823.0</ele><time>2026-05-03T08:52:24.337Z</time></trkpt><trkpt lat="42.2489966" lon="13.7058706"><ele>823.0</ele><time>2026-05-03T08:52:25.334Z</time></trkpt><trkpt lat="42.2489348" lon="13.7059243"><ele>823.0</ele><time>2026-05-03T08:52:26.336Z</time></trkpt><trkpt lat="42.2488615" lon="13.7059893"><ele>822.3333333333333</ele><time>2026-05-03T08:52:27.351Z</time></trkpt><trkpt lat="42.2487894" lon="13.7060529"><ele>821.6666666666666</ele><time>2026-05-03T08:52:28.335Z</time></trkpt><trkpt lat="42.2487198" lon="13.7061107"><ele>821.0</ele><time>2026-05-03T08:52:29.34Z</time></trkpt><trkpt lat="42.2486461" lon="13.70617"><ele>820.3333333333333</ele><time>2026-05-03T08:52:30.335Z</time></trkpt><trkpt lat="42.2485774" lon="13.7062294"><ele>819.6666666666666</ele><time>2026-05-03T08:52:31.338Z</time></trkpt><trkpt lat="42.2485157" lon="13.7062984"><ele>819.0</ele><time>2026-05-03T08:52:32.339Z</time></trkpt><trkpt lat="42.2484463" lon="13.706359"><ele>820.8571428571429</ele><time>2026-05-03T08:52:33.335Z</time></trkpt><trkpt lat="42.2483856" lon="13.7064161"><ele>822.7142857142858</ele><time>2026-05-03T08:52:34.34Z</time></trkpt><trkpt lat="42.2483327" lon="13.7064757"><ele>824.5714285714286</ele><time>2026-05-03T08:52:35.335Z</time></trkpt><trkpt lat="42.2482916" lon="13.7065436"><ele>826.4285714285714</ele><time>2026-05-03T08:52:36.336Z</time></trkpt><trkpt lat="42.2482635" lon="13.7066314"><ele>828.2857142857143</ele><time>2026-05-03T08:52:37.336Z</time></trkpt><trkpt lat="42.2482389" lon="13.7067272"><ele>830.1428571428571</ele><time>2026-05-03T08:52:38.338Z</time></trkpt><trkpt lat="42.2482234" lon="13.7068226"><ele>832.0</ele><time>2026-05-03T08:52:39.341Z</time></trkpt><trkpt lat="42.2482225" lon="13.7069101"><ele>831.9999999999999</ele><time>2026-05-03T08:52:40.327Z</time></trkpt><trkpt lat="42.2482393" lon="13.707002"><ele>832.0</ele><time>2026-05-03T08:52:41.342Z</time></trkpt><trkpt lat="42.2482674" lon="13.7070829"><ele>832.0</ele><time>2026-05-03T08:52:42.338Z</time></trkpt><trkpt lat="42.2483034" lon="13.7072215"><ele>832.0</ele><time>2026-05-03T08:52:44.336Z</time></trkpt><trkpt lat="42.2482935" lon="13.7073589"><ele>831.9999999999999</ele><time>2026-05-03T08:52:46.33Z</time></trkpt><trkpt lat="42.248274" lon="13.7074419"><ele>832.0</ele><time>2026-05-03T08:52:47.339Z</time></trkpt><trkpt lat="42.2482553" lon="13.7075244"><ele>831.9999999999999</ele><time>2026-05-03T08:52:48.338Z</time></trkpt><trkpt lat="42.248241" lon="13.7076125"><ele>832.0</ele><time>2026-05-03T08:52:49.334Z</time></trkpt><trkpt lat="42.2482232" lon="13.7077033"><ele>832.0</ele><time>2026-05-03T08:52:50.337Z</time></trkpt><trkpt lat="42.2481979" lon="13.7077859"><ele>832.0</ele><time>2026-05-03T08:52:51.337Z</time></trkpt><trkpt lat="42.248148" lon="13.7079177"><ele>831.9999999999999</ele><time>2026-05-03T08:52:53.342Z</time></trkpt><trkpt lat="42.2480838" lon="13.7080592"><ele>832.0</ele><time>2026-05-03T08:52:55.339Z</time></trkpt><trkpt lat="42.2480591" lon="13.7081466"><ele>829.6666666666666</ele><time>2026-05-03T08:52:56.334Z</time></trkpt><trkpt lat="42.2479717" lon="13.7082622"><ele>827.3333333333333</ele><time>2026-05-03T08:52:58.355Z</time></trkpt><trkpt lat="42.2479155" lon="13.7083097"><ele>825.0</ele><time>2026-05-03T08:52:59.329Z</time></trkpt><trkpt lat="42.2478553" lon="13.7083569"><ele>822.6666666666667</ele><time>2026-05-03T08:53:00.345Z</time></trkpt><trkpt lat="42.2477876" lon="13.7084002"><ele>820.3333333333334</ele><time>2026-05-03T08:53:01.34Z</time></trkpt><trkpt lat="42.2477222" lon="13.7084533"><ele>818.0</ele><time>2026-05-03T08:53:02.34Z</time></trkpt><trkpt lat="42.2476636" lon="13.7085109"><ele>818.0000000000001</ele><time>2026-05-03T08:53:03.339Z</time></trkpt><trkpt lat="42.2476052" lon="13.7085646"><ele>818.0</ele><time>2026-05-03T08:53:04.327Z</time></trkpt><trkpt lat="42.2475175" lon="13.7086343"><ele>818.0</ele><time>2026-05-03T08:53:06.338Z</time></trkpt><trkpt lat="42.247455" lon="13.7086626"><ele>818.0</ele><time>2026-05-03T08:53:08.337Z</time></trkpt><trkpt lat="42.2473904" lon="13.7086483"><ele>818.0000000000001</ele><time>2026-05-03T08:53:17.327Z</time></trkpt><trkpt lat="42.2473117" lon="13.7085973"><ele>818.0</ele><time>2026-05-03T08:53:20.339Z</time></trkpt><trkpt lat="42.2472636" lon="13.7084813"><ele>815.2</ele><time>2026-05-03T08:53:22.334Z</time></trkpt><trkpt lat="42.2472141" lon="13.7083549"><ele>812.4</ele><time>2026-05-03T08:53:24.34Z</time></trkpt><trkpt lat="42.2471788" lon="13.7082166"><ele>809.6</ele><time>2026-05-03T08:53:26.341Z</time></trkpt><trkpt lat="42.2471696" lon="13.7080945"><ele>806.8000000000001</ele><time>2026-05-03T08:53:28.342Z</time></trkpt><trkpt lat="42.2471601" lon="13.707949"><ele>804.0</ele><time>2026-05-03T08:53:30.33Z</time></trkpt><trkpt lat="42.2471545" lon="13.7078538"><ele>804.0</ele><time>2026-05-03T08:53:31.34Z</time></trkpt><trkpt lat="42.2471487" lon="13.7077605"><ele>804.0</ele><time>2026-05-03T08:53:32.339Z</time></trkpt><trkpt lat="42.2471412" lon="13.7076644"><ele>804.0</ele><time>2026-05-03T08:53:33.337Z</time></trkpt><trkpt lat="42.2471398" lon="13.7075707"><ele>804.0</ele><time>2026-05-03T08:53:34.331Z</time></trkpt><trkpt lat="42.247138" lon="13.7074797"><ele>804.0</ele><time>2026-05-03T08:53:35.339Z</time></trkpt><trkpt lat="42.2471366" lon="13.7073045"><ele>804.0</ele><time>2026-05-03T08:53:37.342Z</time></trkpt><trkpt lat="42.2471079" lon="13.707196"><ele>804.3333333333334</ele><time>2026-05-03T08:53:39.34Z</time></trkpt><trkpt lat="42.2470478" lon="13.7071448"><ele>804.6666666666667</ele><time>2026-05-03T08:53:41.331Z</time></trkpt><trkpt lat="42.2469245" lon="13.7071505"><ele>805.0</ele><time>2026-05-03T08:53:43.337Z</time></trkpt><trkpt lat="42.2468489" lon="13.707161"><ele>805.3333333333334</ele><time>2026-05-03T08:53:44.339Z</time></trkpt><trkpt lat="42.2467854" lon="13.707175"><ele>805.6666666666667</ele><time>2026-05-03T08:53:45.339Z</time></trkpt><trkpt lat="42.2467061" lon="13.7071589"><ele>806.0</ele><time>2026-05-03T08:53:47.328Z</time></trkpt><trkpt lat="42.2466747" lon="13.7070629"><ele>806.0000000000001</ele><time>2026-05-03T08:53:50.342Z</time></trkpt><trkpt lat="42.2466611" lon="13.7069637"><ele>806.0</ele><time>2026-05-03T08:53:53.341Z</time></trkpt><trkpt lat="42.2466705" lon="13.7068583"><ele>806.0</ele><time>2026-05-03T08:53:57.336Z</time></trkpt><trkpt lat="42.246673" lon="13.7067444"><ele>806.0</ele><time>2026-05-03T08:54:06.334Z</time></trkpt><trkpt lat="42.246607" lon="13.7066705"><ele>806.0000000000001</ele><time>2026-05-03T08:54:10.332Z</time></trkpt><trkpt lat="42.2465446" lon="13.7066423"><ele>806.0</ele><time>2026-05-03T08:54:13.332Z</time></trkpt><trkpt lat="42.2464917" lon="13.7067001"><ele>806.0000000000001</ele><time>2026-05-03T08:54:17.327Z</time></trkpt><trkpt lat="42.2464657" lon="13.7068034"><ele>806.0</ele><time>2026-05-03T08:54:19.338Z</time></trkpt><trkpt lat="42.2464551" lon="13.7069095"><ele>806.0</ele><time>2026-05-03T08:54:21.33Z</time></trkpt><trkpt lat="42.246477" lon="13.7070291"><ele>806.0</ele><time>2026-05-03T08:54:24.324Z</time></trkpt><trkpt lat="42.2464262" lon="13.7070996"><ele>806.0000000000001</ele><time>2026-05-03T08:54:27.312Z</time></trkpt><trkpt lat="42.2463339" lon="13.7070684"><ele>806.0</ele><time>2026-05-03T08:54:29.319Z</time></trkpt><trkpt lat="42.2462317" lon="13.7070363"><ele>803.4</ele><time>2026-05-03T08:54:31.315Z</time></trkpt><trkpt lat="42.2461536" lon="13.7070351"><ele>800.8</ele><time>2026-05-03T08:54:34.302Z</time></trkpt><trkpt lat="42.2461159" lon="13.7071392"><ele>798.1999999999999</ele><time>2026-05-03T08:54:38.306Z</time></trkpt><trkpt lat="42.246132" lon="13.7073"><ele>795.5999999999999</ele><time>2026-05-03T08:54:40.323Z</time></trkpt><trkpt lat="42.2461351" lon="13.7074053"><ele>793.0</ele><time>2026-05-03T08:54:41.34Z</time></trkpt><trkpt lat="42.2461282" lon="13.7075257"><ele>792.9999999999999</ele><time>2026-05-03T08:54:42.332Z</time></trkpt><trkpt lat="42.2461195" lon="13.7076354"><ele>793.0</ele><time>2026-05-03T08:54:43.334Z</time></trkpt><trkpt lat="42.2461065" lon="13.707736"><ele>793.0</ele><time>2026-05-03T08:54:44.34Z</time></trkpt><trkpt lat="42.2460918" lon="13.7078411"><ele>793.0</ele><time>2026-05-03T08:54:45.335Z</time></trkpt><trkpt lat="42.2460907" lon="13.7079721"><ele>792.9999999999999</ele><time>2026-05-03T08:54:46.339Z</time></trkpt><trkpt lat="42.2460985" lon="13.7081059"><ele>793.0</ele><time>2026-05-03T08:54:47.334Z</time></trkpt><trkpt lat="42.2460782" lon="13.7082591"><ele>792.4</ele><time>2026-05-03T08:54:48.347Z</time></trkpt><trkpt lat="42.2460601" lon="13.7084111"><ele>791.8</ele><time>2026-05-03T08:54:49.348Z</time></trkpt><trkpt lat="42.2460428" lon="13.7085614"><ele>791.2</ele><time>2026-05-03T08:54:50.347Z</time></trkpt><trkpt lat="42.2460266" lon="13.7086964"><ele>790.6</ele><time>2026-05-03T08:54:51.347Z</time></trkpt><trkpt lat="42.2460095" lon="13.7088259"><ele>790.0</ele><time>2026-05-03T08:54:52.345Z</time></trkpt><trkpt lat="42.2460029" lon="13.7089534"><ele>789.2</ele><time>2026-05-03T08:54:53.346Z</time></trkpt><trkpt lat="42.2459961" lon="13.7090776"><ele>788.4</ele><time>2026-05-03T08:54:54.348Z</time></trkpt><trkpt lat="42.2459965" lon="13.7092013"><ele>787.5999999999999</ele><time>2026-05-03T08:54:55.343Z</time></trkpt><trkpt lat="42.2460125" lon="13.709322"><ele>786.8</ele><time>2026-05-03T08:54:56.342Z</time></trkpt><trkpt lat="42.2460341" lon="13.7094567"><ele>786.0</ele><time>2026-05-03T08:54:57.339Z</time></trkpt><trkpt lat="42.2460777" lon="13.7095856"><ele>785.8</ele><time>2026-05-03T08:54:58.356Z</time></trkpt><trkpt lat="42.2461503" lon="13.7097034"><ele>785.5999999999999</ele><time>2026-05-03T08:54:59.354Z</time></trkpt><trkpt lat="42.2462239" lon="13.7098115"><ele>785.4</ele><time>2026-05-03T08:55:00.342Z</time></trkpt><trkpt lat="42.2463011" lon="13.7099071"><ele>785.2</ele><time>2026-05-03T08:55:01.353Z</time></trkpt><trkpt lat="42.2463984" lon="13.7099909"><ele>785.0</ele><time>2026-05-03T08:55:02.339Z</time></trkpt><trkpt lat="42.2465028" lon="13.7100801"><ele>785.75</ele><time>2026-05-03T08:55:03.336Z</time></trkpt><trkpt lat="42.2466236" lon="13.7101418"><ele>786.5</ele><time>2026-05-03T08:55:04.345Z</time></trkpt><trkpt lat="42.2467528" lon="13.71015"><ele>787.25</ele><time>2026-05-03T08:55:05.341Z</time></trkpt><trkpt lat="42.2468874" lon="13.7101266"><ele>788.0</ele><time>2026-05-03T08:55:06.339Z</time></trkpt><trkpt lat="42.2470268" lon="13.7100745"><ele>788.0</ele><time>2026-05-03T08:55:07.333Z</time></trkpt><trkpt lat="42.2471738" lon="13.710024"><ele>788.0</ele><time>2026-05-03T08:55:08.337Z</time></trkpt><trkpt lat="42.2473219" lon="13.7099766"><ele>788.0</ele><time>2026-05-03T08:55:09.337Z</time></trkpt><trkpt lat="42.2474539" lon="13.7099232"><ele>788.0</ele><time>2026-05-03T08:55:10.337Z</time></trkpt><trkpt lat="42.2475766" lon="13.709881"><ele>786.75</ele><time>2026-05-03T08:55:11.338Z</time></trkpt><trkpt lat="42.2477095" lon="13.7098625"><ele>785.5</ele><time>2026-05-03T08:55:12.337Z</time></trkpt><trkpt lat="42.2478434" lon="13.7098577"><ele>784.25</ele><time>2026-05-03T08:55:13.335Z</time></trkpt><trkpt lat="42.2479477" lon="13.7099117"><ele>783.0</ele><time>2026-05-03T08:55:14.342Z</time></trkpt><trkpt lat="42.2480406" lon="13.7099864"><ele>783.0</ele><time>2026-05-03T08:55:15.339Z</time></trkpt><trkpt lat="42.2481168" lon="13.7101027"><ele>783.0</ele><time>2026-05-03T08:55:16.341Z</time></trkpt><trkpt lat="42.2481704" lon="13.7102408"><ele>783.0</ele><time>2026-05-03T08:55:17.341Z</time></trkpt><trkpt lat="42.2481806" lon="13.7103905"><ele>783.0</ele><time>2026-05-03T08:55:18.337Z</time></trkpt><trkpt lat="42.2481612" lon="13.7105497"><ele>779.0</ele><time>2026-05-03T08:55:19.334Z</time></trkpt><trkpt lat="42.2481194" lon="13.7107068"><ele>775.0</ele><time>2026-05-03T08:55:20.33Z</time></trkpt><trkpt lat="42.2480596" lon="13.7108602"><ele>771.0</ele><time>2026-05-03T08:55:21.33Z</time></trkpt><trkpt lat="42.2479984" lon="13.7110185"><ele>767.0</ele><time>2026-05-03T08:55:22.328Z</time></trkpt><trkpt lat="42.2479412" lon="13.7111875"><ele>766.4000000000001</ele><time>2026-05-03T08:55:23.335Z</time></trkpt><trkpt lat="42.2478849" lon="13.7113351"><ele>765.8000000000001</ele><time>2026-05-03T08:55:24.341Z</time></trkpt><trkpt lat="42.2478369" lon="13.7114641"><ele>765.2</ele><time>2026-05-03T08:55:25.334Z</time></trkpt><trkpt lat="42.2478012" lon="13.7115889"><ele>764.6</ele><time>2026-05-03T08:55:26.33Z</time></trkpt><trkpt lat="42.2477624" lon="13.7117108"><ele>764.0</ele><time>2026-05-03T08:55:27.339Z</time></trkpt><trkpt lat="42.2477296" lon="13.7118284"><ele>764.6</ele><time>2026-05-03T08:55:28.344Z</time></trkpt><trkpt lat="42.2477113" lon="13.7119397"><ele>765.2</ele><time>2026-05-03T08:55:29.343Z</time></trkpt><trkpt lat="42.2477033" lon="13.7120625"><ele>765.8000000000001</ele><time>2026-05-03T08:55:30.342Z</time></trkpt><trkpt lat="42.2477158" lon="13.7121967"><ele>766.4000000000001</ele><time>2026-05-03T08:55:31.343Z</time></trkpt><trkpt lat="42.2477273" lon="13.7123408"><ele>767.0</ele><time>2026-05-03T08:55:32.361Z</time></trkpt><trkpt lat="42.2477184" lon="13.7124966"><ele>767.0</ele><time>2026-05-03T08:55:33.342Z</time></trkpt><trkpt lat="42.2477085" lon="13.7126504"><ele>767.0</ele><time>2026-05-03T08:55:34.346Z</time></trkpt><trkpt lat="42.2477018" lon="13.7127862"><ele>767.0</ele><time>2026-05-03T08:55:35.346Z</time></trkpt><trkpt lat="42.2477018" lon="13.7129279"><ele>767.0</ele><time>2026-05-03T08:55:36.348Z</time></trkpt><trkpt lat="42.2476979" lon="13.7130737"><ele>767.0</ele><time>2026-05-03T08:55:37.344Z</time></trkpt><trkpt lat="42.2476889" lon="13.713228"><ele>767.25</ele><time>2026-05-03T08:55:38.344Z</time></trkpt><trkpt lat="42.2476721" lon="13.7133896"><ele>767.5</ele><time>2026-05-03T08:55:39.348Z</time></trkpt><trkpt lat="42.247645" lon="13.7135553"><ele>767.75</ele><time>2026-05-03T08:55:40.353Z</time></trkpt><trkpt lat="42.2476335" lon="13.7137143"><ele>768.0</ele><time>2026-05-03T08:55:41.341Z</time></trkpt><trkpt lat="42.247632" lon="13.7138661"><ele>767.5</ele><time>2026-05-03T08:55:42.344Z</time></trkpt><trkpt lat="42.2476472" lon="13.7140252"><ele>767.0</ele><time>2026-05-03T08:55:43.341Z</time></trkpt><trkpt lat="42.2476733" lon="13.7142059"><ele>766.5</ele><time>2026-05-03T08:55:44.341Z</time></trkpt><trkpt lat="42.2477197" lon="13.7143809"><ele>766.0</ele><time>2026-05-03T08:55:45.353Z</time></trkpt><trkpt lat="42.2477794" lon="13.7145562"><ele>764.0</ele><time>2026-05-03T08:55:46.352Z</time></trkpt><trkpt lat="42.2478513" lon="13.7147126"><ele>762.0</ele><time>2026-05-03T08:55:47.355Z</time></trkpt><trkpt lat="42.2478987" lon="13.7148458"><ele>760.0</ele><time>2026-05-03T08:55:48.343Z</time></trkpt><trkpt lat="42.2479606" lon="13.714969"><ele>758.0</ele><time>2026-05-03T08:55:49.353Z</time></trkpt><trkpt lat="42.2480089" lon="13.715094"><ele>758.0</ele><time>2026-05-03T08:55:50.349Z</time></trkpt><trkpt lat="42.2480664" lon="13.7152078"><ele>758.0</ele><time>2026-05-03T08:55:51.35Z</time></trkpt><trkpt lat="42.248113" lon="13.7153038"><ele>758.0</ele><time>2026-05-03T08:55:52.346Z</time></trkpt><trkpt lat="42.2481707" lon="13.7153919"><ele>758.0</ele><time>2026-05-03T08:55:53.355Z</time></trkpt><trkpt lat="42.2482415" lon="13.715469"><ele>758.0</ele><time>2026-05-03T08:55:54.353Z</time></trkpt><trkpt lat="42.2483173" lon="13.7155423"><ele>760.0</ele><time>2026-05-03T08:55:55.342Z</time></trkpt><trkpt lat="42.2484005" lon="13.7156167"><ele>762.0</ele><time>2026-05-03T08:55:56.342Z</time></trkpt><trkpt lat="42.2484923" lon="13.7157062"><ele>764.0</ele><time>2026-05-03T08:55:57.358Z</time></trkpt><trkpt lat="42.2485818" lon="13.7157887"><ele>766.0</ele><time>2026-05-03T08:55:58.354Z</time></trkpt><trkpt lat="42.2486682" lon="13.71587"><ele>768.0</ele><time>2026-05-03T08:55:59.354Z</time></trkpt><trkpt lat="42.2487583" lon="13.7159604"><ele>768.0</ele><time>2026-05-03T08:56:00.35Z</time></trkpt><trkpt lat="42.2488502" lon="13.716068"><ele>768.0</ele><time>2026-05-03T08:56:01.342Z</time></trkpt><trkpt lat="42.2489702" lon="13.7161566"><ele>768.0</ele><time>2026-05-03T08:56:02.347Z</time></trkpt><trkpt lat="42.2490823" lon="13.7162221"><ele>768.0</ele><time>2026-05-03T08:56:03.367Z</time></trkpt><trkpt lat="42.2491793" lon="13.7162764"><ele>767.5</ele><time>2026-05-03T08:56:04.353Z</time></trkpt><trkpt lat="42.2492573" lon="13.7163283"><ele>767.0</ele><time>2026-05-03T08:56:05.343Z</time></trkpt><trkpt lat="42.2493215" lon="13.7163887"><ele>766.5</ele><time>2026-05-03T08:56:06.357Z</time></trkpt><trkpt lat="42.2493737" lon="13.7164633"><ele>766.0</ele><time>2026-05-03T08:56:07.355Z</time></trkpt><trkpt lat="42.2494052" lon="13.7165585"><ele>765.5</ele><time>2026-05-03T08:56:08.356Z</time></trkpt><trkpt lat="42.2494128" lon="13.7166704"><ele>765.0</ele><time>2026-05-03T08:56:09.331Z</time></trkpt><trkpt lat="42.2494147" lon="13.7167998"><ele>764.0</ele><time>2026-05-03T08:56:10.319Z</time></trkpt><trkpt lat="42.2494459" lon="13.7169278"><ele>763.0</ele><time>2026-05-03T08:56:11.307Z</time></trkpt><trkpt lat="42.2494959" lon="13.7170614"><ele>762.0</ele><time>2026-05-03T08:56:12.319Z</time></trkpt><trkpt lat="42.2495678" lon="13.717187"><ele>761.0</ele><time>2026-05-03T08:56:13.327Z</time></trkpt><trkpt lat="42.2496687" lon="13.7172872"><ele>761.0</ele><time>2026-05-03T08:56:14.333Z</time></trkpt><trkpt lat="42.2497668" lon="13.7173659"><ele>761.0</ele><time>2026-05-03T08:56:15.316Z</time></trkpt><trkpt lat="42.249838" lon="13.7174542"><ele>761.0</ele><time>2026-05-03T08:56:16.315Z</time></trkpt><trkpt lat="42.2498912" lon="13.7175606"><ele>761.0</ele><time>2026-05-03T08:56:17.315Z</time></trkpt><trkpt lat="42.2499266" lon="13.7176813"><ele>761.0</ele><time>2026-05-03T08:56:18.321Z</time></trkpt><trkpt lat="42.2499548" lon="13.7178084"><ele>763.4</ele><time>2026-05-03T08:56:19.329Z</time></trkpt><trkpt lat="42.2499895" lon="13.7179282"><ele>765.8</ele><time>2026-05-03T08:56:20.321Z</time></trkpt><trkpt lat="42.2500485" lon="13.7180459"><ele>768.1999999999999</ele><time>2026-05-03T08:56:21.312Z</time></trkpt><trkpt lat="42.2501179" lon="13.7181689"><ele>770.5999999999999</ele><time>2026-05-03T08:56:22.322Z</time></trkpt><trkpt lat="42.2501945" lon="13.7182792"><ele>773.0</ele><time>2026-05-03T08:56:23.315Z</time></trkpt><trkpt lat="42.2502581" lon="13.7183853"><ele>773.0</ele><time>2026-05-03T08:56:24.331Z</time></trkpt><trkpt lat="42.2503281" lon="13.7184699"><ele>773.0</ele><time>2026-05-03T08:56:25.326Z</time></trkpt><trkpt lat="42.2504146" lon="13.7185586"><ele>773.0</ele><time>2026-05-03T08:56:26.32Z</time></trkpt><trkpt lat="42.2505015" lon="13.7186523"><ele>773.0</ele><time>2026-05-03T08:56:27.328Z</time></trkpt><trkpt lat="42.2505868" lon="13.7187298"><ele>773.0</ele><time>2026-05-03T08:56:28.333Z</time></trkpt><trkpt lat="42.2506754" lon="13.7187752"><ele>773.0</ele><time>2026-05-03T08:56:29.331Z</time></trkpt><trkpt lat="42.2507741" lon="13.7188028"><ele>773.0</ele><time>2026-05-03T08:56:30.321Z</time></trkpt><trkpt lat="42.2508688" lon="13.7188455"><ele>773.0</ele><time>2026-05-03T08:56:31.327Z</time></trkpt><trkpt lat="42.2509674" lon="13.7188978"><ele>773.0</ele><time>2026-05-03T08:56:32.322Z</time></trkpt><trkpt lat="42.2510666" lon="13.7189445"><ele>773.0</ele><time>2026-05-03T08:56:33.323Z</time></trkpt><trkpt lat="42.2511655" lon="13.7190074"><ele>773.0</ele><time>2026-05-03T08:56:34.34Z</time></trkpt><trkpt lat="42.2512623" lon="13.7191039"><ele>773.0</ele><time>2026-05-03T08:56:35.312Z</time></trkpt><trkpt lat="42.2513527" lon="13.71921"><ele>773.0</ele><time>2026-05-03T08:56:36.316Z</time></trkpt><trkpt lat="42.2514196" lon="13.7193201"><ele>773.0</ele><time>2026-05-03T08:56:37.311Z</time></trkpt><trkpt lat="42.2514761" lon="13.719421"><ele>773.0</ele><time>2026-05-03T08:56:38.317Z</time></trkpt><trkpt lat="42.2515378" lon="13.719519"><ele>774.4</ele><time>2026-05-03T08:56:39.32Z</time></trkpt><trkpt lat="42.2516133" lon="13.7196098"><ele>775.8</ele><time>2026-05-03T08:56:40.313Z</time></trkpt><trkpt lat="42.2517108" lon="13.7196909"><ele>777.2</ele><time>2026-05-03T08:56:41.318Z</time></trkpt><trkpt lat="42.2518151" lon="13.719767"><ele>778.6</ele><time>2026-05-03T08:56:42.312Z</time></trkpt><trkpt lat="42.2519094" lon="13.7198414"><ele>780.0</ele><time>2026-05-03T08:56:43.32Z</time></trkpt><trkpt lat="42.2519925" lon="13.7199241"><ele>780.0</ele><time>2026-05-03T08:56:44.318Z</time></trkpt><trkpt lat="42.2520823" lon="13.7200132"><ele>780.0</ele><time>2026-05-03T08:56:45.32Z</time></trkpt><trkpt lat="42.2521792" lon="13.7200968"><ele>780.0</ele><time>2026-05-03T08:56:46.326Z</time></trkpt><trkpt lat="42.2522674" lon="13.7201763"><ele>780.0</ele><time>2026-05-03T08:56:47.327Z</time></trkpt><trkpt lat="42.2523484" lon="13.7202619"><ele>780.0</ele><time>2026-05-03T08:56:48.325Z</time></trkpt><trkpt lat="42.252428" lon="13.7203507"><ele>779.25</ele><time>2026-05-03T08:56:49.325Z</time></trkpt><trkpt lat="42.2525104" lon="13.7204315"><ele>778.5</ele><time>2026-05-03T08:56:50.318Z</time></trkpt><trkpt lat="42.2526015" lon="13.7205073"><ele>777.75</ele><time>2026-05-03T08:56:51.314Z</time></trkpt><trkpt lat="42.2527151" lon="13.7205836"><ele>777.0</ele><time>2026-05-03T08:56:52.315Z</time></trkpt><trkpt lat="42.2528246" lon="13.7206584"><ele>777.0</ele><time>2026-05-03T08:56:53.319Z</time></trkpt><trkpt lat="42.2529375" lon="13.7207232"><ele>777.0</ele><time>2026-05-03T08:56:54.32Z</time></trkpt><trkpt lat="42.2530445" lon="13.7207844"><ele>777.0</ele><time>2026-05-03T08:56:55.324Z</time></trkpt><trkpt lat="42.2531434" lon="13.7208337"><ele>777.0</ele><time>2026-05-03T08:56:56.323Z</time></trkpt><trkpt lat="42.2532477" lon="13.7208799"><ele>777.5</ele><time>2026-05-03T08:56:57.329Z</time></trkpt><trkpt lat="42.2533418" lon="13.7209094"><ele>778.0</ele><time>2026-05-03T08:56:58.33Z</time></trkpt><trkpt lat="42.2534232" lon="13.7209322"><ele>778.5</ele><time>2026-05-03T08:56:59.318Z</time></trkpt><trkpt lat="42.2534993" lon="13.7209584"><ele>779.0</ele><time>2026-05-03T08:57:00.313Z</time></trkpt><trkpt lat="42.2535617" lon="13.7209962"><ele>779.5</ele><time>2026-05-03T08:57:01.33Z</time></trkpt><trkpt lat="42.2536079" lon="13.7210596"><ele>780.0</ele><time>2026-05-03T08:57:02.317Z</time></trkpt><trkpt lat="42.2536493" lon="13.7211526"><ele>780.0</ele><time>2026-05-03T08:57:03.315Z</time></trkpt><trkpt lat="42.2536843" lon="13.7212598"><ele>780.0</ele><time>2026-05-03T08:57:04.32Z</time></trkpt><trkpt lat="42.2537032" lon="13.7213672"><ele>780.0</ele><time>2026-05-03T08:57:05.329Z</time></trkpt><trkpt lat="42.2537258" lon="13.7214602"><ele>780.0</ele><time>2026-05-03T08:57:06.312Z</time></trkpt><trkpt lat="42.2537219" lon="13.721559"><ele>780.0</ele><time>2026-05-03T08:57:07.315Z</time></trkpt><trkpt lat="42.2536975" lon="13.7216608"><ele>780.0</ele><time>2026-05-03T08:57:08.33Z</time></trkpt><trkpt lat="42.2536489" lon="13.7217457"><ele>780.0</ele><time>2026-05-03T08:57:09.33Z</time></trkpt><trkpt lat="42.2535859" lon="13.7218327"><ele>780.0</ele><time>2026-05-03T08:57:10.323Z</time></trkpt><trkpt lat="42.2535146" lon="13.7219299"><ele>780.0</ele><time>2026-05-03T08:57:11.322Z</time></trkpt><trkpt lat="42.253461" lon="13.7220416"><ele>780.0</ele><time>2026-05-03T08:57:12.324Z</time></trkpt><trkpt lat="42.2534085" lon="13.7221461"><ele>780.0</ele><time>2026-05-03T08:57:13.326Z</time></trkpt><trkpt lat="42.2533806" lon="13.7222357"><ele>780.8333333333334</ele><time>2026-05-03T08:57:14.327Z</time></trkpt><trkpt lat="42.2533766" lon="13.722324"><ele>781.6666666666667</ele><time>2026-05-03T08:57:15.313Z</time></trkpt><trkpt lat="42.2533845" lon="13.7224155"><ele>782.5</ele><time>2026-05-03T08:57:16.317Z</time></trkpt><trkpt lat="42.2534043" lon="13.722531"><ele>783.3333333333334</ele><time>2026-05-03T08:57:17.329Z</time></trkpt><trkpt lat="42.2534401" lon="13.7226445"><ele>784.1666666666667</ele><time>2026-05-03T08:57:18.316Z</time></trkpt><trkpt lat="42.2534842" lon="13.7227465"><ele>785.0</ele><time>2026-05-03T08:57:19.327Z</time></trkpt><trkpt lat="42.2535207" lon="13.7228436"><ele>786.0</ele><time>2026-05-03T08:57:20.332Z</time></trkpt><trkpt lat="42.2535702" lon="13.7229394"><ele>787.0</ele><time>2026-05-03T08:57:21.326Z</time></trkpt><trkpt lat="42.2536204" lon="13.723057"><ele>788.0</ele><time>2026-05-03T08:57:22.336Z</time></trkpt><trkpt lat="42.2536641" lon="13.7231811"><ele>789.0</ele><time>2026-05-03T08:57:23.337Z</time></trkpt><trkpt lat="42.2537092" lon="13.7232999"><ele>790.0</ele><time>2026-05-03T08:57:24.34Z</time></trkpt><trkpt lat="42.2537636" lon="13.7234355"><ele>790.6</ele><time>2026-05-03T08:57:25.34Z</time></trkpt><trkpt lat="42.2538122" lon="13.7235738"><ele>791.2</ele><time>2026-05-03T08:57:26.344Z</time></trkpt><trkpt lat="42.2538489" lon="13.7237026"><ele>791.8</ele><time>2026-05-03T08:57:27.335Z</time></trkpt><trkpt lat="42.2538802" lon="13.7238163"><ele>792.4</ele><time>2026-05-03T08:57:28.338Z</time></trkpt><trkpt lat="42.2539098" lon="13.7239155"><ele>793.0</ele><time>2026-05-03T08:57:29.344Z</time></trkpt><trkpt lat="42.2539537" lon="13.7240043"><ele>791.4999999999999</ele><time>2026-05-03T08:57:30.337Z</time></trkpt><trkpt lat="42.2539882" lon="13.7240867"><ele>790.0</ele><time>2026-05-03T08:57:31.337Z</time></trkpt><trkpt lat="42.2540436" lon="13.724145"><ele>788.5</ele><time>2026-05-03T08:57:32.329Z</time></trkpt><trkpt lat="42.2541433" lon="13.7241885"><ele>787.0</ele><time>2026-05-03T08:57:34.335Z</time></trkpt><trkpt lat="42.2542201" lon="13.7241963"><ele>785.4999999999999</ele><time>2026-05-03T08:57:42.333Z</time></trkpt><trkpt lat="42.2543067" lon="13.7242436"><ele>784.0</ele><time>2026-05-03T08:57:44.34Z</time></trkpt><trkpt lat="42.2544194" lon="13.7243224"><ele>784.0</ele><time>2026-05-03T08:57:46.337Z</time></trkpt><trkpt lat="42.2545221" lon="13.724381"><ele>784.0</ele><time>2026-05-03T08:57:48.34Z</time></trkpt><trkpt lat="42.2546442" lon="13.7244497"><ele>784.0</ele><time>2026-05-03T08:57:50.34Z</time></trkpt><trkpt lat="42.2547164" lon="13.7244789"><ele>784.0</ele><time>2026-05-03T08:57:51.341Z</time></trkpt><trkpt lat="42.2547971" lon="13.7245111"><ele>784.0</ele><time>2026-05-03T08:57:52.331Z</time></trkpt><trkpt lat="42.2548833" lon="13.7245423"><ele>780.9999999999999</ele><time>2026-05-03T08:57:53.343Z</time></trkpt><trkpt lat="42.2549709" lon="13.7245752"><ele>778.0</ele><time>2026-05-03T08:57:54.339Z</time></trkpt><trkpt lat="42.2550449" lon="13.7245965"><ele>775.0</ele><time>2026-05-03T08:57:55.343Z</time></trkpt><trkpt lat="42.2551152" lon="13.7246272"><ele>772.0</ele><time>2026-05-03T08:57:56.339Z</time></trkpt><trkpt lat="42.2551743" lon="13.724684"><ele>769.0</ele><time>2026-05-03T08:57:57.342Z</time></trkpt><trkpt lat="42.2552222" lon="13.724753"><ele>766.0</ele><time>2026-05-03T08:57:58.342Z</time></trkpt><trkpt lat="42.2552617" lon="13.7248416"><ele>766.0</ele><time>2026-05-03T08:57:59.338Z</time></trkpt><trkpt lat="42.2553007" lon="13.7249451"><ele>766.0</ele><time>2026-05-03T08:58:00.335Z</time></trkpt><trkpt lat="42.255323" lon="13.7250503"><ele>766.0</ele><time>2026-05-03T08:58:01.341Z</time></trkpt><trkpt lat="42.2553404" lon="13.7251646"><ele>766.0</ele><time>2026-05-03T08:58:02.328Z</time></trkpt><trkpt lat="42.255372" lon="13.7252879"><ele>766.0</ele><time>2026-05-03T08:58:03.322Z</time></trkpt><trkpt lat="42.255406" lon="13.7254063"><ele>766.0</ele><time>2026-05-03T08:58:04.338Z</time></trkpt><trkpt lat="42.2554483" lon="13.7255273"><ele>765.8</ele><time>2026-05-03T08:58:05.332Z</time></trkpt><trkpt lat="42.2554815" lon="13.7256255"><ele>765.5999999999999</ele><time>2026-05-03T08:58:06.341Z</time></trkpt><trkpt lat="42.2555073" lon="13.7257294"><ele>765.4</ele><time>2026-05-03T08:58:07.346Z</time></trkpt><trkpt lat="42.2555452" lon="13.7258369"><ele>765.2</ele><time>2026-05-03T08:58:08.332Z</time></trkpt><trkpt lat="42.2555856" lon="13.7259603"><ele>765.0</ele><time>2026-05-03T08:58:09.335Z</time></trkpt><trkpt lat="42.2556297" lon="13.7260944"><ele>765.0</ele><time>2026-05-03T08:58:10.326Z</time></trkpt><trkpt lat="42.2556734" lon="13.7262231"><ele>765.0</ele><time>2026-05-03T08:58:11.321Z</time></trkpt><trkpt lat="42.255708" lon="13.7263413"><ele>765.0</ele><time>2026-05-03T08:58:12.314Z</time></trkpt><trkpt lat="42.2557334" lon="13.7264502"><ele>765.0</ele><time>2026-05-03T08:58:13.32Z</time></trkpt><trkpt lat="42.2557222" lon="13.7265425"><ele>765.0</ele><time>2026-05-03T08:58:14.313Z</time></trkpt><trkpt lat="42.2557023" lon="13.7266264"><ele>765.0</ele><time>2026-05-03T08:58:15.32Z</time></trkpt><trkpt lat="42.2556563" lon="13.7267022"><ele>762.4</ele><time>2026-05-03T08:58:16.32Z</time></trkpt><trkpt lat="42.2555967" lon="13.726778"><ele>759.8</ele><time>2026-05-03T08:58:17.319Z</time></trkpt><trkpt lat="42.2555381" lon="13.7268396"><ele>757.2</ele><time>2026-05-03T08:58:18.319Z</time></trkpt><trkpt lat="42.255478" lon="13.7269733"><ele>754.6</ele><time>2026-05-03T08:58:20.326Z</time></trkpt><trkpt lat="42.2554774" lon="13.727088"><ele>752.0</ele><time>2026-05-03T08:58:21.309Z</time></trkpt><trkpt lat="42.2554716" lon="13.7272208"><ele>752.3333333333333</ele><time>2026-05-03T08:58:22.318Z</time></trkpt><trkpt lat="42.255455" lon="13.7273393"><ele>752.6666666666666</ele><time>2026-05-03T08:58:23.318Z</time></trkpt><trkpt lat="42.2554384" lon="13.7274408"><ele>753.0</ele><time>2026-05-03T08:58:24.327Z</time></trkpt><trkpt lat="42.2554651" lon="13.7275636"><ele>753.3333333333334</ele><time>2026-05-03T08:58:26.316Z</time></trkpt><trkpt lat="42.255535" lon="13.7275744"><ele>753.6666666666667</ele><time>2026-05-03T08:58:28.344Z</time></trkpt><trkpt lat="42.2556357" lon="13.7275386"><ele>754.0</ele><time>2026-05-03T08:58:30.336Z</time></trkpt><trkpt lat="42.2557002" lon="13.7275212"><ele>754.0</ele><time>2026-05-03T08:58:31.339Z</time></trkpt><trkpt lat="42.255773" lon="13.7275106"><ele>754.0</ele><time>2026-05-03T08:58:32.337Z</time></trkpt><trkpt lat="42.2558438" lon="13.7275305"><ele>754.0</ele><time>2026-05-03T08:58:33.334Z</time></trkpt><trkpt lat="42.2559206" lon="13.7275811"><ele>754.0</ele><time>2026-05-03T08:58:34.318Z</time></trkpt><trkpt lat="42.2560135" lon="13.727646"><ele>754.0</ele><time>2026-05-03T08:58:35.325Z</time></trkpt><trkpt lat="42.25611" lon="13.7277204"><ele>754.0</ele><time>2026-05-03T08:58:36.323Z</time></trkpt><trkpt lat="42.2562046" lon="13.7277959"><ele>749.8000000000001</ele><time>2026-05-03T08:58:37.317Z</time></trkpt><trkpt lat="42.2562897" lon="13.7278589"><ele>745.6</ele><time>2026-05-03T08:58:38.338Z</time></trkpt><trkpt lat="42.2563644" lon="13.7279327"><ele>741.4</ele><time>2026-05-03T08:58:39.323Z</time></trkpt><trkpt lat="42.2564427" lon="13.7279995"><ele>737.2</ele><time>2026-05-03T08:58:40.327Z</time></trkpt><trkpt lat="42.2565243" lon="13.7280744"><ele>733.0</ele><time>2026-05-03T08:58:41.32Z</time></trkpt><trkpt lat="42.2566091" lon="13.7281392"><ele>733.0</ele><time>2026-05-03T08:58:42.325Z</time></trkpt><trkpt lat="42.2566824" lon="13.7281972"><ele>733.0</ele><time>2026-05-03T08:58:43.319Z</time></trkpt><trkpt lat="42.2567828" lon="13.7282799"><ele>733.0</ele><time>2026-05-03T08:58:45.318Z</time></trkpt><trkpt lat="42.2568381" lon="13.7283265"><ele>733.0</ele><time>2026-05-03T08:58:46.321Z</time></trkpt><trkpt lat="42.256916" lon="13.7284288"><ele>733.0</ele><time>2026-05-03T08:58:48.32Z</time></trkpt><trkpt lat="42.2569814" lon="13.7285504"><ele>724.4</ele><time>2026-05-03T08:58:50.321Z</time></trkpt><trkpt lat="42.2570802" lon="13.7286355"><ele>715.8</ele><time>2026-05-03T08:58:52.318Z</time></trkpt><trkpt lat="42.2571701" lon="13.7287348"><ele>707.2</ele><time>2026-05-03T08:58:54.324Z</time></trkpt><trkpt lat="42.257197" lon="13.7288134"><ele>698.6</ele><time>2026-05-03T08:58:55.32Z</time></trkpt><trkpt lat="42.2572415" lon="13.7289632"><ele>690.0</ele><time>2026-05-03T08:58:57.333Z</time></trkpt><trkpt lat="42.257272" lon="13.7290404"><ele>689.0</ele><time>2026-05-03T08:58:58.323Z</time></trkpt><trkpt lat="42.2573062" lon="13.7291295"><ele>688.0</ele><time>2026-05-03T08:58:59.328Z</time></trkpt><trkpt lat="42.2573649" lon="13.7292725"><ele>687.0</ele><time>2026-05-03T08:59:01.321Z</time></trkpt><trkpt lat="42.2574314" lon="13.7293809"><ele>686.0</ele><time>2026-05-03T08:59:03.322Z</time></trkpt><trkpt lat="42.2575354" lon="13.7294621"><ele>685.0</ele><time>2026-05-03T08:59:05.336Z</time></trkpt><trkpt lat="42.257598" lon="13.729477"><ele>685.0</ele><time>2026-05-03T08:59:06.341Z</time></trkpt><trkpt lat="42.2577087" lon="13.7294855"><ele>685.0</ele><time>2026-05-03T08:59:08.345Z</time></trkpt><trkpt lat="42.2578241" lon="13.7295147"><ele>685.0</ele><time>2026-05-03T08:59:10.334Z</time></trkpt><trkpt lat="42.2579471" lon="13.7295378"><ele>685.0</ele><time>2026-05-03T08:59:12.334Z</time></trkpt><trkpt lat="42.2580746" lon="13.729573"><ele>685.8571428571428</ele><time>2026-05-03T08:59:14.339Z</time></trkpt><trkpt lat="42.2581395" lon="13.729597"><ele>686.7142857142858</ele><time>2026-05-03T08:59:15.338Z</time></trkpt><trkpt lat="42.2582041" lon="13.729612"><ele>687.5714285714286</ele><time>2026-05-03T08:59:16.341Z</time></trkpt><trkpt lat="42.2582696" lon="13.7296486"><ele>688.4285714285713</ele><time>2026-05-03T08:59:17.332Z</time></trkpt><trkpt lat="42.2583284" lon="13.729686"><ele>689.2857142857142</ele><time>2026-05-03T08:59:18.34Z</time></trkpt><trkpt lat="42.2583869" lon="13.7297281"><ele>690.1428571428571</ele><time>2026-05-03T08:59:19.339Z</time></trkpt><trkpt lat="42.2584512" lon="13.7297792"><ele>691.0</ele><time>2026-05-03T08:59:20.34Z</time></trkpt><trkpt lat="42.2585129" lon="13.7298292"><ele>691.0</ele><time>2026-05-03T08:59:21.337Z</time></trkpt><trkpt lat="42.2585802" lon="13.7298753"><ele>691.0</ele><time>2026-05-03T08:59:22.332Z</time></trkpt><trkpt lat="42.2586582" lon="13.7299226"><ele>691.0</ele><time>2026-05-03T08:59:23.336Z</time></trkpt><trkpt lat="42.2587407" lon="13.7299654"><ele>691.0</ele><time>2026-05-03T08:59:24.342Z</time></trkpt><trkpt lat="42.2588149" lon="13.7300044"><ele>691.0</ele><time>2026-05-03T08:59:25.337Z</time></trkpt><trkpt lat="42.2589008" lon="13.7300431"><ele>691.0</ele><time>2026-05-03T08:59:26.347Z</time></trkpt><trkpt lat="42.2589896" lon="13.7300848"><ele>692.5999999999999</ele><time>2026-05-03T08:59:27.337Z</time></trkpt><trkpt lat="42.2590803" lon="13.7301193"><ele>694.2</ele><time>2026-05-03T08:59:28.346Z</time></trkpt><trkpt lat="42.2591724" lon="13.7301522"><ele>695.8</ele><time>2026-05-03T08:59:29.335Z</time></trkpt><trkpt lat="42.2592698" lon="13.7301934"><ele>697.4000000000001</ele><time>2026-05-03T08:59:30.343Z</time></trkpt><trkpt lat="42.2593548" lon="13.7302299"><ele>699.0</ele><time>2026-05-03T08:59:31.332Z</time></trkpt><trkpt lat="42.2594366" lon="13.7302766"><ele>694.8571428571428</ele><time>2026-05-03T08:59:32.342Z</time></trkpt><trkpt lat="42.2595113" lon="13.7303146"><ele>690.7142857142858</ele><time>2026-05-03T08:59:33.333Z</time></trkpt><trkpt lat="42.2595728" lon="13.7303472"><ele>686.5714285714286</ele><time>2026-05-03T08:59:34.336Z</time></trkpt><trkpt lat="42.2596374" lon="13.7303783"><ele>682.4285714285713</ele><time>2026-05-03T08:59:35.339Z</time></trkpt><trkpt lat="42.2597074" lon="13.7304082"><ele>678.2857142857142</ele><time>2026-05-03T08:59:36.341Z</time></trkpt><trkpt lat="42.2597716" lon="13.7304375"><ele>674.1428571428571</ele><time>2026-05-03T08:59:37.336Z</time></trkpt><trkpt lat="42.2598402" lon="13.7304598"><ele>670.0</ele><time>2026-05-03T08:59:38.34Z</time></trkpt><trkpt lat="42.2599599" lon="13.7305375"><ele>670.0</ele><time>2026-05-03T08:59:40.349Z</time></trkpt><trkpt lat="42.2600231" lon="13.7305765"><ele>670.0</ele><time>2026-05-03T08:59:41.34Z</time></trkpt><trkpt lat="42.2600842" lon="13.7306081"><ele>670.0</ele><time>2026-05-03T08:59:42.335Z</time></trkpt><trkpt lat="42.2601429" lon="13.7306403"><ele>670.0</ele><time>2026-05-03T08:59:43.334Z</time></trkpt><trkpt lat="42.2602012" lon="13.7306809"><ele>670.0</ele><time>2026-05-03T08:59:44.33Z</time></trkpt><trkpt lat="42.2603046" lon="13.7307576"><ele>670.0</ele><time>2026-05-03T08:59:46.341Z</time></trkpt><trkpt lat="42.2603654" lon="13.7307986"><ele>670.0</ele><time>2026-05-03T08:59:47.34Z</time></trkpt><trkpt lat="42.2604643" lon="13.7308765"><ele>670.0</ele><time>2026-05-03T08:59:49.333Z</time></trkpt><trkpt lat="42.260524" lon="13.7309261"><ele>670.0</ele><time>2026-05-03T08:59:50.337Z</time></trkpt><trkpt lat="42.2605814" lon="13.7309833"><ele>670.0</ele><time>2026-05-03T08:59:51.336Z</time></trkpt><trkpt lat="42.2606333" lon="13.7310364"><ele>670.0</ele><time>2026-05-03T08:59:52.332Z</time></trkpt><trkpt lat="42.2607261" lon="13.7311335"><ele>670.0</ele><time>2026-05-03T08:59:54.326Z</time></trkpt><trkpt lat="42.2608145" lon="13.7312251"><ele>667.0</ele><time>2026-05-03T08:59:56.324Z</time></trkpt><trkpt lat="42.2608661" lon="13.7313312"><ele>664.0</ele><time>2026-05-03T08:59:58.327Z</time></trkpt><trkpt lat="42.2609249" lon="13.7314746"><ele>661.0</ele><time>2026-05-03T09:00:00.325Z</time></trkpt><trkpt lat="42.2609539" lon="13.731558"><ele>658.0</ele><time>2026-05-03T09:00:01.318Z</time></trkpt><trkpt lat="42.2609847" lon="13.7316421"><ele>655.0</ele><time>2026-05-03T09:00:02.319Z</time></trkpt><trkpt lat="42.2610305" lon="13.7317204"><ele>652.0</ele><time>2026-05-03T09:00:03.307Z</time></trkpt><trkpt lat="42.2610804" lon="13.7317929"><ele>652.0</ele><time>2026-05-03T09:00:04.319Z</time></trkpt><trkpt lat="42.2611242" lon="13.7318604"><ele>652.0</ele><time>2026-05-03T09:00:05.324Z</time></trkpt><trkpt lat="42.2612011" lon="13.7319454"><ele>652.0</ele><time>2026-05-03T09:00:07.315Z</time></trkpt><trkpt lat="42.2613108" lon="13.7319593"><ele>652.0</ele><time>2026-05-03T09:00:09.321Z</time></trkpt><trkpt lat="42.2614203" lon="13.7319668"><ele>652.0</ele><time>2026-05-03T09:00:11.334Z</time></trkpt><trkpt lat="42.2615154" lon="13.73203"><ele>651.5</ele><time>2026-05-03T09:00:13.325Z</time></trkpt><trkpt lat="42.2615561" lon="13.7320996"><ele>651.0</ele><time>2026-05-03T09:00:14.32Z</time></trkpt><trkpt lat="42.2616112" lon="13.7322398"><ele>650.5</ele><time>2026-05-03T09:00:16.318Z</time></trkpt><trkpt lat="42.2616307" lon="13.7323245"><ele>650.0</ele><time>2026-05-03T09:00:17.316Z</time></trkpt><trkpt lat="42.2616287" lon="13.7324101"><ele>649.5</ele><time>2026-05-03T09:00:18.317Z</time></trkpt><trkpt lat="42.2616248" lon="13.7325119"><ele>649.0</ele><time>2026-05-03T09:00:19.311Z</time></trkpt><trkpt lat="42.2616126" lon="13.7326083"><ele>648.9999999999999</ele><time>2026-05-03T09:00:20.323Z</time></trkpt><trkpt lat="42.2616069" lon="13.7327079"><ele>649.0</ele><time>2026-05-03T09:00:21.317Z</time></trkpt><trkpt lat="42.2616016" lon="13.7328018"><ele>649.0</ele><time>2026-05-03T09:00:22.316Z</time></trkpt><trkpt lat="42.2616125" lon="13.7328973"><ele>649.0</ele><time>2026-05-03T09:00:23.317Z</time></trkpt><trkpt lat="42.2616273" lon="13.7329885"><ele>649.0</ele><time>2026-05-03T09:00:24.327Z</time></trkpt><trkpt lat="42.2616467" lon="13.7330949"><ele>648.9999999999999</ele><time>2026-05-03T09:00:25.322Z</time></trkpt><trkpt lat="42.2616569" lon="13.7331929"><ele>649.0</ele><time>2026-05-03T09:00:26.318Z</time></trkpt><trkpt lat="42.2616635" lon="13.7332966"><ele>646.5</ele><time>2026-05-03T09:00:27.326Z</time></trkpt><trkpt lat="42.2616741" lon="13.7334078"><ele>644.0</ele><time>2026-05-03T09:00:28.325Z</time></trkpt><trkpt lat="42.2617018" lon="13.7335221"><ele>641.5</ele><time>2026-05-03T09:00:29.32Z</time></trkpt><trkpt lat="42.2617263" lon="13.7336274"><ele>639.0</ele><time>2026-05-03T09:00:30.323Z</time></trkpt><trkpt lat="42.2617475" lon="13.7337253"><ele>636.5</ele><time>2026-05-03T09:00:31.316Z</time></trkpt><trkpt lat="42.2617707" lon="13.7338189"><ele>634.0</ele><time>2026-05-03T09:00:32.32Z</time></trkpt><trkpt lat="42.2617755" lon="13.7339045"><ele>633.1666666666667</ele><time>2026-05-03T09:00:33.308Z</time></trkpt><trkpt lat="42.2617739" lon="13.733995"><ele>632.3333333333334</ele><time>2026-05-03T09:00:34.319Z</time></trkpt><trkpt lat="42.261768" lon="13.7340803"><ele>631.5</ele><time>2026-05-03T09:00:35.312Z</time></trkpt><trkpt lat="42.2617618" lon="13.734178"><ele>630.6666666666666</ele><time>2026-05-03T09:00:36.322Z</time></trkpt><trkpt lat="42.2617361" lon="13.7342865"><ele>629.8333333333333</ele><time>2026-05-03T09:00:37.313Z</time></trkpt><trkpt lat="42.2616975" lon="13.7343946"><ele>629.0</ele><time>2026-05-03T09:00:38.306Z</time></trkpt><trkpt lat="42.2616618" lon="13.7344916"><ele>629.0</ele><time>2026-05-03T09:00:39.311Z</time></trkpt><trkpt lat="42.2616273" lon="13.734602"><ele>629.0</ele><time>2026-05-03T09:00:40.316Z</time></trkpt><trkpt lat="42.2615812" lon="13.7347042"><ele>629.0</ele><time>2026-05-03T09:00:41.308Z</time></trkpt><trkpt lat="42.2615366" lon="13.7347955"><ele>629.0</ele><time>2026-05-03T09:00:42.321Z</time></trkpt><trkpt lat="42.2614799" lon="13.7348688"><ele>629.0</ele><time>2026-05-03T09:00:43.313Z</time></trkpt><trkpt lat="42.2614136" lon="13.7349423"><ele>629.0</ele><time>2026-05-03T09:00:44.317Z</time></trkpt><trkpt lat="42.2613515" lon="13.7350124"><ele>625.3333333333333</ele><time>2026-05-03T09:00:45.316Z</time></trkpt><trkpt lat="42.2613013" lon="13.7350898"><ele>621.6666666666666</ele><time>2026-05-03T09:00:46.318Z</time></trkpt><trkpt lat="42.2612467" lon="13.7351487"><ele>618.0</ele><time>2026-05-03T09:00:47.319Z</time></trkpt><trkpt lat="42.2612094" lon="13.7352176"><ele>614.3333333333334</ele><time>2026-05-03T09:00:48.319Z</time></trkpt><trkpt lat="42.2611677" lon="13.7353605"><ele>610.6666666666667</ele><time>2026-05-03T09:00:50.326Z</time></trkpt><trkpt lat="42.2611467" lon="13.735458"><ele>607.0</ele><time>2026-05-03T09:00:51.329Z</time></trkpt><trkpt lat="42.2611219" lon="13.7355522"><ele>606.5714285714286</ele><time>2026-05-03T09:00:52.33Z</time></trkpt><trkpt lat="42.2611017" lon="13.7356465"><ele>606.1428571428571</ele><time>2026-05-03T09:00:53.332Z</time></trkpt><trkpt lat="42.2610817" lon="13.7357317"><ele>605.7142857142858</ele><time>2026-05-03T09:00:54.334Z</time></trkpt><trkpt lat="42.261064" lon="13.7358165"><ele>605.2857142857142</ele><time>2026-05-03T09:00:55.329Z</time></trkpt><trkpt lat="42.2610532" lon="13.7359056"><ele>604.8571428571429</ele><time>2026-05-03T09:00:56.342Z</time></trkpt><trkpt lat="42.2610365" lon="13.7359911"><ele>604.4285714285714</ele><time>2026-05-03T09:00:57.331Z</time></trkpt><trkpt lat="42.2610216" lon="13.7360779"><ele>604.0</ele><time>2026-05-03T09:00:58.333Z</time></trkpt><trkpt lat="42.2610126" lon="13.7361648"><ele>602.6666666666667</ele><time>2026-05-03T09:00:59.331Z</time></trkpt><trkpt lat="42.2609856" lon="13.7362893"><ele>601.3333333333334</ele><time>2026-05-03T09:01:01.333Z</time></trkpt><trkpt lat="42.2609565" lon="13.7363693"><ele>600.0</ele><time>2026-05-03T09:01:03.329Z</time></trkpt><trkpt lat="42.2610083" lon="13.7364329"><ele>598.6666666666666</ele><time>2026-05-03T09:01:05.328Z</time></trkpt><trkpt lat="42.2611011" lon="13.7365162"><ele>597.3333333333333</ele><time>2026-05-03T09:01:07.322Z</time></trkpt><trkpt lat="42.2611486" lon="13.7365723"><ele>596.0</ele><time>2026-05-03T09:01:08.32Z</time></trkpt><trkpt lat="42.2612382" lon="13.7366857"><ele>596.0</ele><time>2026-05-03T09:01:10.324Z</time></trkpt><trkpt lat="42.2613246" lon="13.736807"><ele>596.0</ele><time>2026-05-03T09:01:12.324Z</time></trkpt><trkpt lat="42.2613824" lon="13.7368619"><ele>596.0</ele><time>2026-05-03T09:01:13.337Z</time></trkpt><trkpt lat="42.2614443" lon="13.7369044"><ele>596.0</ele><time>2026-05-03T09:01:14.332Z</time></trkpt><trkpt lat="42.2615056" lon="13.7369325"><ele>596.0</ele><time>2026-05-03T09:01:15.321Z</time></trkpt><trkpt lat="42.2615688" lon="13.7369551"><ele>596.0</ele><time>2026-05-03T09:01:16.332Z</time></trkpt><trkpt lat="42.261645" lon="13.7369768"><ele>593.8571428571429</ele><time>2026-05-03T09:01:17.329Z</time></trkpt><trkpt lat="42.26172" lon="13.7369951"><ele>591.7142857142857</ele><time>2026-05-03T09:01:18.335Z</time></trkpt><trkpt lat="42.2617864" lon="13.7370176"><ele>589.5714285714286</ele><time>2026-05-03T09:01:19.33Z</time></trkpt><trkpt lat="42.2618529" lon="13.737048"><ele>587.4285714285714</ele><time>2026-05-03T09:01:20.326Z</time></trkpt><trkpt lat="42.2619155" lon="13.7370653"><ele>585.2857142857142</ele><time>2026-05-03T09:01:21.332Z</time></trkpt><trkpt lat="42.2619777" lon="13.7370966"><ele>583.1428571428571</ele><time>2026-05-03T09:01:22.326Z</time></trkpt><trkpt lat="42.2620386" lon="13.737133"><ele>581.0</ele><time>2026-05-03T09:01:23.32Z</time></trkpt><trkpt lat="42.2621041" lon="13.7371839"><ele>581.0</ele><time>2026-05-03T09:01:24.322Z</time></trkpt><trkpt lat="42.2621731" lon="13.7372349"><ele>581.0</ele><time>2026-05-03T09:01:25.314Z</time></trkpt><trkpt lat="42.2622367" lon="13.7372865"><ele>581.0</ele><time>2026-05-03T09:01:26.33Z</time></trkpt><trkpt lat="42.2623052" lon="13.7373348"><ele>581.0</ele><time>2026-05-03T09:01:27.334Z</time></trkpt><trkpt lat="42.2623908" lon="13.7373926"><ele>581.0</ele><time>2026-05-03T09:01:28.328Z</time></trkpt><trkpt lat="42.2624656" lon="13.737445"><ele>581.0</ele><time>2026-05-03T09:01:29.325Z</time></trkpt><trkpt lat="42.2625285" lon="13.737488"><ele>581.8333333333333</ele><time>2026-05-03T09:01:30.326Z</time></trkpt><trkpt lat="42.2625911" lon="13.7375179"><ele>582.6666666666666</ele><time>2026-05-03T09:01:31.328Z</time></trkpt><trkpt lat="42.2627198" lon="13.7375538"><ele>583.5</ele><time>2026-05-03T09:01:33.327Z</time></trkpt><trkpt lat="42.2627912" lon="13.7375602"><ele>584.3333333333334</ele><time>2026-05-03T09:01:34.33Z</time></trkpt><trkpt lat="42.2628704" lon="13.7375787"><ele>585.1666666666667</ele><time>2026-05-03T09:01:35.318Z</time></trkpt><trkpt lat="42.2629411" lon="13.7375935"><ele>586.0</ele><time>2026-05-03T09:01:36.335Z</time></trkpt><trkpt lat="42.2630121" lon="13.7376143"><ele>586.0</ele><time>2026-05-03T09:01:37.323Z</time></trkpt><trkpt lat="42.2630847" lon="13.7376326"><ele>586.0</ele><time>2026-05-03T09:01:38.331Z</time></trkpt><trkpt lat="42.2631639" lon="13.7376587"><ele>586.0</ele><time>2026-05-03T09:01:39.333Z</time></trkpt><trkpt lat="42.2632354" lon="13.7376772"><ele>586.0</ele><time>2026-05-03T09:01:40.329Z</time></trkpt><trkpt lat="42.2633048" lon="13.737682"><ele>586.0</ele><time>2026-05-03T09:01:41.324Z</time></trkpt><trkpt lat="42.2634305" lon="13.7377191"><ele>586.0</ele><time>2026-05-03T09:01:43.318Z</time></trkpt><trkpt lat="42.2635076" lon="13.7377148"><ele>586.0</ele><time>2026-05-03T09:01:45.313Z</time></trkpt><trkpt lat="42.2635797" lon="13.7377443"><ele>586.0</ele><time>2026-05-03T09:01:55.319Z</time></trkpt><trkpt lat="42.2636597" lon="13.7377516"><ele>586.0</ele><time>2026-05-03T09:01:57.317Z</time></trkpt><trkpt lat="42.2637889" lon="13.7377464"><ele>586.0</ele><time>2026-05-03T09:01:59.327Z</time></trkpt><trkpt lat="42.2638541" lon="13.7377368"><ele>586.0</ele><time>2026-05-03T09:02:00.322Z</time></trkpt><trkpt lat="42.2639573" lon="13.7377137"><ele>580.0</ele><time>2026-05-03T09:02:02.327Z</time></trkpt><trkpt lat="42.2640637" lon="13.7377433"><ele>574.0</ele><time>2026-05-03T09:02:04.327Z</time></trkpt><trkpt lat="42.2641777" lon="13.7378039"><ele>568.0</ele><time>2026-05-03T09:02:06.326Z</time></trkpt><trkpt lat="42.2642931" lon="13.7378566"><ele>562.0</ele><time>2026-05-03T09:02:08.321Z</time></trkpt><trkpt lat="42.264363" lon="13.7378767"><ele>556.0</ele><time>2026-05-03T09:02:09.323Z</time></trkpt><trkpt lat="42.2644264" lon="13.7378863"><ele>556.0</ele><time>2026-05-03T09:02:10.326Z</time></trkpt><trkpt lat="42.2644912" lon="13.7379047"><ele>556.0</ele><time>2026-05-03T09:02:11.323Z</time></trkpt><trkpt lat="42.2645591" lon="13.7379141"><ele>556.0</ele><time>2026-05-03T09:02:12.317Z</time></trkpt><trkpt lat="42.2646245" lon="13.7379282"><ele>556.0</ele><time>2026-05-03T09:02:13.323Z</time></trkpt><trkpt lat="42.2647403" lon="13.7379525"><ele>556.0</ele><time>2026-05-03T09:02:15.333Z</time></trkpt><trkpt lat="42.2648319" lon="13.7379747"><ele>556.0</ele><time>2026-05-03T09:02:17.321Z</time></trkpt><trkpt lat="42.2649114" lon="13.7380146"><ele>555.2</ele><time>2026-05-03T09:02:19.32Z</time></trkpt><trkpt lat="42.2650248" lon="13.7380577"><ele>554.4000000000001</ele><time>2026-05-03T09:02:21.322Z</time></trkpt><trkpt lat="42.2651019" lon="13.7380885"><ele>553.6</ele><time>2026-05-03T09:02:22.315Z</time></trkpt><trkpt lat="42.2651943" lon="13.7381163"><ele>552.8000000000001</ele><time>2026-05-03T09:02:23.319Z</time></trkpt><trkpt lat="42.2652954" lon="13.7381145"><ele>552.0</ele><time>2026-05-03T09:02:24.322Z</time></trkpt><trkpt lat="42.2654099" lon="13.7381208"><ele>552.0</ele><time>2026-05-03T09:02:25.321Z</time></trkpt><trkpt lat="42.26553" lon="13.7381248"><ele>552.0</ele><time>2026-05-03T09:02:26.323Z</time></trkpt><trkpt lat="42.2656635" lon="13.7381352"><ele>552.0</ele><time>2026-05-03T09:02:27.332Z</time></trkpt><trkpt lat="42.2657945" lon="13.738135"><ele>552.0</ele><time>2026-05-03T09:02:28.328Z</time></trkpt><trkpt lat="42.2659283" lon="13.7381426"><ele>551.5</ele><time>2026-05-03T09:02:29.327Z</time></trkpt><trkpt lat="42.2660657" lon="13.738147"><ele>551.0</ele><time>2026-05-03T09:02:30.33Z</time></trkpt><trkpt lat="42.2661981" lon="13.7381529"><ele>550.5</ele><time>2026-05-03T09:02:31.325Z</time></trkpt><trkpt lat="42.2663507" lon="13.7381595"><ele>550.0</ele><time>2026-05-03T09:02:32.326Z</time></trkpt><trkpt lat="42.2664898" lon="13.7381742"><ele>549.25</ele><time>2026-05-03T09:02:33.321Z</time></trkpt><trkpt lat="42.2666314" lon="13.7381763"><ele>548.5</ele><time>2026-05-03T09:02:34.321Z</time></trkpt><trkpt lat="42.2667624" lon="13.7381754"><ele>547.75</ele><time>2026-05-03T09:02:35.32Z</time></trkpt><trkpt lat="42.2668929" lon="13.7381806"><ele>547.0</ele><time>2026-05-03T09:02:36.317Z</time></trkpt><trkpt lat="42.2670259" lon="13.7381905"><ele>547.0</ele><time>2026-05-03T09:02:37.327Z</time></trkpt><trkpt lat="42.2671565" lon="13.7381935"><ele>547.0</ele><time>2026-05-03T09:02:38.328Z</time></trkpt><trkpt lat="42.267293" lon="13.7381967"><ele>547.0</ele><time>2026-05-03T09:02:39.334Z</time></trkpt><trkpt lat="42.2674397" lon="13.7382092"><ele>547.0</ele><time>2026-05-03T09:02:40.324Z</time></trkpt><trkpt lat="42.2675896" lon="13.7382163"><ele>546.2</ele><time>2026-05-03T09:02:41.326Z</time></trkpt><trkpt lat="42.2677203" lon="13.7382193"><ele>545.4000000000001</ele><time>2026-05-03T09:02:42.322Z</time></trkpt><trkpt lat="42.2678385" lon="13.7382359"><ele>544.5999999999999</ele><time>2026-05-03T09:02:43.318Z</time></trkpt><trkpt lat="42.2679356" lon="13.7382336"><ele>543.8</ele><time>2026-05-03T09:02:44.32Z</time></trkpt><trkpt lat="42.2680262" lon="13.7382474"><ele>543.0</ele><time>2026-05-03T09:02:45.325Z</time></trkpt><trkpt lat="42.2681097" lon="13.738253"><ele>542.1666666666666</ele><time>2026-05-03T09:02:46.351Z</time></trkpt><trkpt lat="42.2681985" lon="13.7382394"><ele>541.3333333333334</ele><time>2026-05-03T09:02:47.329Z</time></trkpt><trkpt lat="42.2682703" lon="13.7382445"><ele>540.5</ele><time>2026-05-03T09:02:48.317Z</time></trkpt><trkpt lat="42.2683363" lon="13.738247"><ele>539.6666666666667</ele><time>2026-05-03T09:02:49.327Z</time></trkpt><trkpt lat="42.2684028" lon="13.7382452"><ele>538.8333333333334</ele><time>2026-05-03T09:02:50.331Z</time></trkpt><trkpt lat="42.2685122" lon="13.7382595"><ele>538.0</ele><time>2026-05-03T09:02:52.329Z</time></trkpt><trkpt lat="42.2686144" lon="13.7383192"><ele>538.0</ele><time>2026-05-03T09:02:54.329Z</time></trkpt><trkpt lat="42.2686851" lon="13.7383458"><ele>538.0</ele><time>2026-05-03T09:02:55.324Z</time></trkpt><trkpt lat="42.2687742" lon="13.7383678"><ele>538.0</ele><time>2026-05-03T09:02:56.323Z</time></trkpt><trkpt lat="42.2688543" lon="13.7383923"><ele>538.0</ele><time>2026-05-03T09:02:57.33Z</time></trkpt><trkpt lat="42.2689346" lon="13.7384279"><ele>538.0</ele><time>2026-05-03T09:02:58.325Z</time></trkpt><trkpt lat="42.2690114" lon="13.7384697"><ele>538.0</ele><time>2026-05-03T09:02:59.322Z</time></trkpt><trkpt lat="42.2690938" lon="13.7385148"><ele>536.0</ele><time>2026-05-03T09:03:00.318Z</time></trkpt><trkpt lat="42.2691673" lon="13.7385691"><ele>534.0</ele><time>2026-05-03T09:03:01.321Z</time></trkpt><trkpt lat="42.2692259" lon="13.7386184"><ele>532.0</ele><time>2026-05-03T09:03:02.321Z</time></trkpt><trkpt lat="42.2692922" lon="13.7386619"><ele>530.0</ele><time>2026-05-03T09:03:03.322Z</time></trkpt><trkpt lat="42.2693796" lon="13.7387277"><ele>528.0</ele><time>2026-05-03T09:03:05.321Z</time></trkpt><trkpt lat="42.2694253" lon="13.7388592"><ele>526.0</ele><time>2026-05-03T09:03:07.318Z</time></trkpt><trkpt lat="42.2694313" lon="13.7389541"><ele>526.0</ele><time>2026-05-03T09:03:08.319Z</time></trkpt><trkpt lat="42.2694124" lon="13.7390578"><ele>526.0</ele><time>2026-05-03T09:03:09.326Z</time></trkpt><trkpt lat="42.2693841" lon="13.7391371"><ele>526.0</ele><time>2026-05-03T09:03:10.324Z</time></trkpt><trkpt lat="42.2693565" lon="13.7392967"><ele>526.0</ele><time>2026-05-03T09:03:12.324Z</time></trkpt><trkpt lat="42.2693499" lon="13.7393838"><ele>526.0</ele><time>2026-05-03T09:03:13.321Z</time></trkpt><trkpt lat="42.2693156" lon="13.7395462"><ele>524.6666666666667</ele><time>2026-05-03T09:03:15.33Z</time></trkpt><trkpt lat="42.269295" lon="13.7396331"><ele>523.3333333333334</ele><time>2026-05-03T09:03:16.335Z</time></trkpt><trkpt lat="42.269273" lon="13.739719"><ele>522.0</ele><time>2026-05-03T09:03:17.332Z</time></trkpt><trkpt lat="42.2692445" lon="13.7398027"><ele>520.6666666666666</ele><time>2026-05-03T09:03:18.327Z</time></trkpt><trkpt lat="42.2692133" lon="13.7399661"><ele>519.3333333333333</ele><time>2026-05-03T09:03:20.328Z</time></trkpt><trkpt lat="42.2692134" lon="13.7401236"><ele>518.0</ele><time>2026-05-03T09:03:22.325Z</time></trkpt><trkpt lat="42.269177" lon="13.7402725"><ele>514.6</ele><time>2026-05-03T09:03:24.327Z</time></trkpt><trkpt lat="42.2690864" lon="13.7403577"><ele>511.19999999999993</ele><time>2026-05-03T09:03:26.327Z</time></trkpt><trkpt lat="42.2689741" lon="13.7404444"><ele>507.8</ele><time>2026-05-03T09:03:28.335Z</time></trkpt><trkpt lat="42.2689137" lon="13.7404886"><ele>504.4</ele><time>2026-05-03T09:03:29.331Z</time></trkpt><trkpt lat="42.2688525" lon="13.7405253"><ele>501.0</ele><time>2026-05-03T09:03:30.334Z</time></trkpt><trkpt lat="42.2687611" lon="13.7405824"><ele>501.0</ele><time>2026-05-03T09:03:32.323Z</time></trkpt><trkpt lat="42.2686713" lon="13.7406174"><ele>501.0</ele><time>2026-05-03T09:03:34.327Z</time></trkpt><trkpt lat="42.2685903" lon="13.7405769"><ele>501.0</ele><time>2026-05-03T09:03:36.326Z</time></trkpt><trkpt lat="42.2685357" lon="13.7404629"><ele>501.0</ele><time>2026-05-03T09:03:38.324Z</time></trkpt><trkpt lat="42.2685269" lon="13.740322"><ele>501.0</ele><time>2026-05-03T09:03:40.325Z</time></trkpt><trkpt lat="42.2685238" lon="13.7401761"><ele>501.0</ele><time>2026-05-03T09:03:42.316Z</time></trkpt><trkpt lat="42.2685108" lon="13.7400633"><ele>501.0</ele><time>2026-05-03T09:03:44.313Z</time></trkpt><trkpt lat="42.2684237" lon="13.7400202"><ele>501.0</ele><time>2026-05-03T09:03:46.309Z</time></trkpt><trkpt lat="42.2683281" lon="13.7400775"><ele>501.0</ele><time>2026-05-03T09:03:48.32Z</time></trkpt><trkpt lat="42.268299" lon="13.7402047"><ele>501.0</ele><time>2026-05-03T09:03:50.31Z</time></trkpt><trkpt lat="42.2682309" lon="13.7403301"><ele>501.0</ele><time>2026-05-03T09:03:52.318Z</time></trkpt><trkpt lat="42.268113" lon="13.7404"><ele>501.0</ele><time>2026-05-03T09:03:54.325Z</time></trkpt><trkpt lat="42.2680391" lon="13.740424"><ele>501.0</ele><time>2026-05-03T09:03:55.331Z</time></trkpt><trkpt lat="42.2679602" lon="13.7404502"><ele>501.0</ele><time>2026-05-03T09:03:56.322Z</time></trkpt><trkpt lat="42.2678867" lon="13.7404752"><ele>501.0</ele><time>2026-05-03T09:03:57.327Z</time></trkpt><trkpt lat="42.2678229" lon="13.7405032"><ele>501.0</ele><time>2026-05-03T09:03:58.316Z</time></trkpt><trkpt lat="42.2677597" lon="13.7405166"><ele>499.6666666666667</ele><time>2026-05-03T09:03:59.322Z</time></trkpt><trkpt lat="42.2676388" lon="13.7404769"><ele>498.33333333333337</ele><time>2026-05-03T09:04:01.331Z</time></trkpt><trkpt lat="42.2675741" lon="13.7404804"><ele>497.0</ele><time>2026-05-03T09:04:02.314Z</time></trkpt><trkpt lat="42.2674597" lon="13.7404249"><ele>495.6666666666667</ele><time>2026-05-03T09:04:04.323Z</time></trkpt><trkpt lat="42.2674045" lon="13.7403716"><ele>494.33333333333337</ele><time>2026-05-03T09:04:05.324Z</time></trkpt><trkpt lat="42.2673473" lon="13.7403221"><ele>493.0</ele><time>2026-05-03T09:04:06.323Z</time></trkpt><trkpt lat="42.2672904" lon="13.7402853"><ele>491.59999999999997</ele><time>2026-05-03T09:04:07.32Z</time></trkpt><trkpt lat="42.2672333" lon="13.7402421"><ele>490.19999999999993</ele><time>2026-05-03T09:04:08.325Z</time></trkpt><trkpt lat="42.2671195" lon="13.7401921"><ele>488.8</ele><time>2026-05-03T09:04:10.33Z</time></trkpt><trkpt lat="42.2670212" lon="13.740219"><ele>487.4</ele><time>2026-05-03T09:04:12.328Z</time></trkpt><trkpt lat="42.2669012" lon="13.7401829"><ele>486.0</ele><time>2026-05-03T09:04:14.314Z</time></trkpt><trkpt lat="42.266822" lon="13.7401574"><ele>486.1428571428571</ele><time>2026-05-03T09:04:15.325Z</time></trkpt><trkpt lat="42.266749" lon="13.7401558"><ele>486.28571428571433</ele><time>2026-05-03T09:04:16.318Z</time></trkpt><trkpt lat="42.2666853" lon="13.7401689"><ele>486.42857142857144</ele><time>2026-05-03T09:04:17.316Z</time></trkpt><trkpt lat="42.2666132" lon="13.7401852"><ele>486.57142857142856</ele><time>2026-05-03T09:04:18.335Z</time></trkpt><trkpt lat="42.2665417" lon="13.7401952"><ele>486.71428571428567</ele><time>2026-05-03T09:04:19.321Z</time></trkpt><trkpt lat="42.2664707" lon="13.7402164"><ele>486.8571428571429</ele><time>2026-05-03T09:04:20.321Z</time></trkpt><trkpt lat="42.2664065" lon="13.7402429"><ele>487.0</ele><time>2026-05-03T09:04:21.316Z</time></trkpt><trkpt lat="42.2663384" lon="13.740261"><ele>487.00000000000006</ele><time>2026-05-03T09:04:22.319Z</time></trkpt><trkpt lat="42.2662421" lon="13.7402946"><ele>487.0</ele><time>2026-05-03T09:04:24.331Z</time></trkpt><trkpt lat="42.2661503" lon="13.7403898"><ele>487.0</ele><time>2026-05-03T09:04:26.328Z</time></trkpt><trkpt lat="42.2661049" lon="13.7404549"><ele>487.0</ele><time>2026-05-03T09:04:27.323Z</time></trkpt><trkpt lat="42.2660488" lon="13.7405351"><ele>487.00000000000006</ele><time>2026-05-03T09:04:28.322Z</time></trkpt><trkpt lat="42.265987" lon="13.7406047"><ele>487.0</ele><time>2026-05-03T09:04:29.324Z</time></trkpt><trkpt lat="42.2659186" lon="13.7406561"><ele>487.0</ele><time>2026-05-03T09:04:30.328Z</time></trkpt><trkpt lat="42.2658578" lon="13.7407112"><ele>487.0</ele><time>2026-05-03T09:04:31.327Z</time></trkpt><trkpt lat="42.2658066" lon="13.7407736"><ele>487.0</ele><time>2026-05-03T09:04:32.324Z</time></trkpt><trkpt lat="42.2657525" lon="13.7408451"><ele>487.0</ele><time>2026-05-03T09:04:33.325Z</time></trkpt><trkpt lat="42.2656973" lon="13.7409046"><ele>487.0</ele><time>2026-05-03T09:04:34.328Z</time></trkpt><trkpt lat="42.2656349" lon="13.7409392"><ele>487.0</ele><time>2026-05-03T09:04:35.321Z</time></trkpt><trkpt lat="42.2655636" lon="13.7409672"><ele>487.0</ele><time>2026-05-03T09:04:36.327Z</time></trkpt><trkpt lat="42.2654805" lon="13.7409857"><ele>487.00000000000006</ele><time>2026-05-03T09:04:37.321Z</time></trkpt><trkpt lat="42.2654061" lon="13.7409887"><ele>487.0</ele><time>2026-05-03T09:04:38.327Z</time></trkpt><trkpt lat="42.2653419" lon="13.7410036"><ele>487.0</ele><time>2026-05-03T09:04:39.326Z</time></trkpt><trkpt lat="42.2652726" lon="13.7410088"><ele>487.0</ele><time>2026-05-03T09:04:40.322Z</time></trkpt><trkpt lat="42.265197" lon="13.741005"><ele>487.00000000000006</ele><time>2026-05-03T09:04:41.327Z</time></trkpt><trkpt lat="42.2651161" lon="13.7409918"><ele>487.0</ele><time>2026-05-03T09:04:42.323Z</time></trkpt><trkpt lat="42.2650174" lon="13.7409678"><ele>487.00000000000006</ele><time>2026-05-03T09:04:43.309Z</time></trkpt><trkpt lat="42.2649248" lon="13.7409522"><ele>487.0</ele><time>2026-05-03T09:04:44.304Z</time></trkpt><trkpt lat="42.264844" lon="13.7409534"><ele>487.0</ele><time>2026-05-03T09:04:45.306Z</time></trkpt><trkpt lat="42.2647694" lon="13.7409689"><ele>487.0</ele><time>2026-05-03T09:04:46.313Z</time></trkpt><trkpt lat="42.264686" lon="13.7409939"><ele>487.00000000000006</ele><time>2026-05-03T09:04:47.315Z</time></trkpt><trkpt lat="42.2646002" lon="13.7410475"><ele>487.0</ele><time>2026-05-03T09:04:48.308Z</time></trkpt><trkpt lat="42.2645174" lon="13.7411075"><ele>484.83333333333337</ele><time>2026-05-03T09:04:49.317Z</time></trkpt><trkpt lat="42.2644411" lon="13.7411535"><ele>482.6666666666667</ele><time>2026-05-03T09:04:50.311Z</time></trkpt><trkpt lat="42.2643644" lon="13.741184"><ele>480.5</ele><time>2026-05-03T09:04:51.309Z</time></trkpt><trkpt lat="42.2642814" lon="13.7412155"><ele>478.33333333333337</ele><time>2026-05-03T09:04:52.31Z</time></trkpt><trkpt lat="42.2642021" lon="13.7412379"><ele>476.1666666666667</ele><time>2026-05-03T09:04:53.312Z</time></trkpt><trkpt lat="42.2641313" lon="13.7412601"><ele>474.0</ele><time>2026-05-03T09:04:54.315Z</time></trkpt><trkpt lat="42.2640568" lon="13.7412635"><ele>474.0</ele><time>2026-05-03T09:04:55.31Z</time></trkpt><trkpt lat="42.2639738" lon="13.741256"><ele>474.0</ele><time>2026-05-03T09:04:56.312Z</time></trkpt><trkpt lat="42.2638866" lon="13.7412465"><ele>474.0</ele><time>2026-05-03T09:04:57.318Z</time></trkpt><trkpt lat="42.2637981" lon="13.7412517"><ele>474.0</ele><time>2026-05-03T09:04:58.316Z</time></trkpt><trkpt lat="42.2637161" lon="13.7412531"><ele>474.0</ele><time>2026-05-03T09:04:59.306Z</time></trkpt><trkpt lat="42.2636396" lon="13.7412547"><ele>474.0</ele><time>2026-05-03T09:05:00.309Z</time></trkpt><trkpt lat="42.2635413" lon="13.74126"><ele>473.99999999999994</ele><time>2026-05-03T09:05:02.299Z</time></trkpt><trkpt lat="42.2634883" lon="13.7413179"><ele>474.0</ele><time>2026-05-03T09:05:04.306Z</time></trkpt><trkpt lat="42.2634444" lon="13.7414056"><ele>473.99999999999994</ele><time>2026-05-03T09:05:06.307Z</time></trkpt><trkpt lat="42.2633932" lon="13.7414696"><ele>473.99999999999994</ele><time>2026-05-03T09:05:08.307Z</time></trkpt><trkpt lat="42.2633453" lon="13.7415481"><ele>474.0</ele><time>2026-05-03T09:05:10.303Z</time></trkpt><trkpt lat="42.2633311" lon="13.7416468"><ele>473.99999999999994</ele><time>2026-05-03T09:05:12.309Z</time></trkpt><trkpt lat="42.2632862" lon="13.741719"><ele>473.99999999999994</ele><time>2026-05-03T09:05:14.307Z</time></trkpt><trkpt lat="42.2631864" lon="13.7417623"><ele>474.0</ele><time>2026-05-03T09:05:16.312Z</time></trkpt><trkpt lat="42.2631194" lon="13.7418209"><ele>474.0</ele><time>2026-05-03T09:05:18.303Z</time></trkpt><trkpt lat="42.2631203" lon="13.7419425"><ele>474.0</ele><time>2026-05-03T09:05:20.32Z</time></trkpt><trkpt lat="42.2631705" lon="13.7420618"><ele>474.0</ele><time>2026-05-03T09:05:22.307Z</time></trkpt><trkpt lat="42.2631368" lon="13.742166"><ele>474.0</ele><time>2026-05-03T09:05:24.301Z</time></trkpt><trkpt lat="42.2630437" lon="13.7422161"><ele>472.0</ele><time>2026-05-03T09:05:26.302Z</time></trkpt><trkpt lat="42.262991" lon="13.7423064"><ele>470.0</ele><time>2026-05-03T09:05:28.304Z</time></trkpt><trkpt lat="42.2630183" lon="13.7424757"><ele>468.0</ele><time>2026-05-03T09:05:30.307Z</time></trkpt><trkpt lat="42.2630413" lon="13.742568"><ele>466.0</ele><time>2026-05-03T09:05:31.31Z</time></trkpt><trkpt lat="42.2630396" lon="13.742715"><ele>464.0</ele><time>2026-05-03T09:05:33.299Z</time></trkpt><trkpt lat="42.2629442" lon="13.7427909"><ele>462.8333333333333</ele><time>2026-05-03T09:05:35.299Z</time></trkpt><trkpt lat="42.2628745" lon="13.7428"><ele>461.66666666666663</ele><time>2026-05-03T09:05:36.304Z</time></trkpt><trkpt lat="42.2628049" lon="13.7428223"><ele>460.5</ele><time>2026-05-03T09:05:37.301Z</time></trkpt><trkpt lat="42.2627297" lon="13.7428706"><ele>459.33333333333337</ele><time>2026-05-03T09:05:38.305Z</time></trkpt><trkpt lat="42.2626621" lon="13.7429274"><ele>458.1666666666667</ele><time>2026-05-03T09:05:39.308Z</time></trkpt><trkpt lat="42.2625973" lon="13.7429896"><ele>457.0</ele><time>2026-05-03T09:05:40.31Z</time></trkpt><trkpt lat="42.2625426" lon="13.7430414"><ele>457.00000000000006</ele><time>2026-05-03T09:05:41.308Z</time></trkpt><trkpt lat="42.2624827" lon="13.7430811"><ele>457.0</ele><time>2026-05-03T09:05:42.308Z</time></trkpt><trkpt lat="42.2624128" lon="13.7431112"><ele>457.00000000000006</ele><time>2026-05-03T09:05:43.308Z</time></trkpt><trkpt lat="42.2623493" lon="13.7431327"><ele>457.00000000000006</ele><time>2026-05-03T09:05:44.3Z</time></trkpt><trkpt lat="42.262283" lon="13.7431809"><ele>457.0</ele><time>2026-05-03T09:05:45.302Z</time></trkpt><trkpt lat="42.2622254" lon="13.7432593"><ele>457.00000000000006</ele><time>2026-05-03T09:05:46.291Z</time></trkpt><trkpt lat="42.2621895" lon="13.7433603"><ele>457.00000000000006</ele><time>2026-05-03T09:05:47.305Z</time></trkpt><trkpt lat="42.2621628" lon="13.7434655"><ele>457.00000000000006</ele><time>2026-05-03T09:05:48.306Z</time></trkpt><trkpt lat="42.2621444" lon="13.7435564"><ele>457.0</ele><time>2026-05-03T09:05:49.299Z</time></trkpt><trkpt lat="42.2621026" lon="13.7436396"><ele>457.0</ele><time>2026-05-03T09:05:51.312Z</time></trkpt><trkpt lat="42.2621433" lon="13.7437807"><ele>457.0</ele><time>2026-05-03T09:05:54.292Z</time></trkpt><trkpt lat="42.2621947" lon="13.743851"><ele>457.00000000000006</ele><time>2026-05-03T09:05:55.292Z</time></trkpt><trkpt lat="42.2622497" lon="13.7439228"><ele>457.0</ele><time>2026-05-03T09:05:56.3Z</time></trkpt><trkpt lat="42.2623129" lon="13.7439746"><ele>456.20000000000005</ele><time>2026-05-03T09:05:57.288Z</time></trkpt><trkpt lat="42.2623856" lon="13.7439918"><ele>455.40000000000003</ele><time>2026-05-03T09:05:58.302Z</time></trkpt><trkpt lat="42.2624806" lon="13.7439854"><ele>454.59999999999997</ele><time>2026-05-03T09:05:59.291Z</time></trkpt><trkpt lat="42.2625836" lon="13.7439652"><ele>453.79999999999995</ele><time>2026-05-03T09:06:00.296Z</time></trkpt><trkpt lat="42.2626886" lon="13.7439452"><ele>453.0</ele><time>2026-05-03T09:06:01.3Z</time></trkpt><trkpt lat="42.2627902" lon="13.7439254"><ele>453.0</ele><time>2026-05-03T09:06:02.293Z</time></trkpt><trkpt lat="42.2629096" lon="13.7439078"><ele>453.0</ele><time>2026-05-03T09:06:03.291Z</time></trkpt><trkpt lat="42.2630372" lon="13.7439"><ele>453.0</ele><time>2026-05-03T09:06:04.3Z</time></trkpt><trkpt lat="42.2631689" lon="13.7438936"><ele>453.0</ele><time>2026-05-03T09:06:05.302Z</time></trkpt><trkpt lat="42.2632939" lon="13.7438798"><ele>452.25</ele><time>2026-05-03T09:06:06.301Z</time></trkpt><trkpt lat="42.2634305" lon="13.7438787"><ele>451.5</ele><time>2026-05-03T09:06:07.297Z</time></trkpt><trkpt lat="42.2635595" lon="13.7438916"><ele>450.75</ele><time>2026-05-03T09:06:08.297Z</time></trkpt><trkpt lat="42.2636799" lon="13.7439238"><ele>450.0</ele><time>2026-05-03T09:06:09.295Z</time></trkpt><trkpt lat="42.2637921" lon="13.7439589"><ele>450.0</ele><time>2026-05-03T09:06:10.3Z</time></trkpt><trkpt lat="42.2639052" lon="13.7439967"><ele>450.0</ele><time>2026-05-03T09:06:11.291Z</time></trkpt><trkpt lat="42.2640107" lon="13.7440147"><ele>450.0</ele><time>2026-05-03T09:06:12.295Z</time></trkpt><trkpt lat="42.2641232" lon="13.7440313"><ele>450.0</ele><time>2026-05-03T09:06:13.297Z</time></trkpt><trkpt lat="42.2642276" lon="13.7440487"><ele>450.0</ele><time>2026-05-03T09:06:14.3Z</time></trkpt><trkpt lat="42.2643366" lon="13.7440688"><ele>449.6</ele><time>2026-05-03T09:06:15.297Z</time></trkpt><trkpt lat="42.2644397" lon="13.7440879"><ele>449.2</ele><time>2026-05-03T09:06:16.295Z</time></trkpt><trkpt lat="42.2645409" lon="13.7440884"><ele>448.79999999999995</ele><time>2026-05-03T09:06:17.288Z</time></trkpt><trkpt lat="42.2646404" lon="13.7440535"><ele>448.4</ele><time>2026-05-03T09:06:18.293Z</time></trkpt><trkpt lat="42.2647334" lon="13.7440165"><ele>448.0</ele><time>2026-05-03T09:06:19.285Z</time></trkpt><trkpt lat="42.2648188" lon="13.743965"><ele>448.0</ele><time>2026-05-03T09:06:20.291Z</time></trkpt><trkpt lat="42.2648989" lon="13.7438888"><ele>447.99999999999994</ele><time>2026-05-03T09:06:21.29Z</time></trkpt><trkpt lat="42.2649834" lon="13.7438028"><ele>447.99999999999994</ele><time>2026-05-03T09:06:22.303Z</time></trkpt><trkpt lat="42.2650839" lon="13.7437184"><ele>448.0</ele><time>2026-05-03T09:06:23.299Z</time></trkpt><trkpt lat="42.2651812" lon="13.7436503"><ele>448.0</ele><time>2026-05-03T09:06:24.298Z</time></trkpt><trkpt lat="42.2652769" lon="13.7435931"><ele>448.0</ele><time>2026-05-03T09:06:25.3Z</time></trkpt><trkpt lat="42.2653723" lon="13.7435432"><ele>447.99999999999994</ele><time>2026-05-03T09:06:26.298Z</time></trkpt><trkpt lat="42.265464" lon="13.7435113"><ele>447.99999999999994</ele><time>2026-05-03T09:06:27.31Z</time></trkpt><trkpt lat="42.2655576" lon="13.7434907"><ele>448.0</ele><time>2026-05-03T09:06:28.301Z</time></trkpt><trkpt lat="42.265661" lon="13.7434899"><ele>448.0</ele><time>2026-05-03T09:06:29.302Z</time></trkpt><trkpt lat="42.2657686" lon="13.743502"><ele>448.0</ele><time>2026-05-03T09:06:30.303Z</time></trkpt><trkpt lat="42.2658713" lon="13.7435018"><ele>447.99999999999994</ele><time>2026-05-03T09:06:31.305Z</time></trkpt><trkpt lat="42.2659784" lon="13.7434884"><ele>447.99999999999994</ele><time>2026-05-03T09:06:32.3Z</time></trkpt><trkpt lat="42.2660925" lon="13.7434753"><ele>448.0</ele><time>2026-05-03T09:06:33.298Z</time></trkpt><trkpt lat="42.2661946" lon="13.7434854"><ele>448.0</ele><time>2026-05-03T09:06:34.293Z</time></trkpt><trkpt lat="42.266299" lon="13.7435104"><ele>448.0</ele><time>2026-05-03T09:06:35.295Z</time></trkpt><trkpt lat="42.2663921" lon="13.7435452"><ele>447.99999999999994</ele><time>2026-05-03T09:06:36.296Z</time></trkpt><trkpt lat="42.2664927" lon="13.7435692"><ele>447.99999999999994</ele><time>2026-05-03T09:06:37.295Z</time></trkpt><trkpt lat="42.2665923" lon="13.743581"><ele>448.0</ele><time>2026-05-03T09:06:38.296Z</time></trkpt><trkpt lat="42.2666869" lon="13.7435822"><ele>448.0</ele><time>2026-05-03T09:06:39.289Z</time></trkpt><trkpt lat="42.2667882" lon="13.7435728"><ele>447.59999999999997</ele><time>2026-05-03T09:06:40.288Z</time></trkpt><trkpt lat="42.2668832" lon="13.7435474"><ele>447.19999999999993</ele><time>2026-05-03T09:06:41.285Z</time></trkpt><trkpt lat="42.2669747" lon="13.7435244"><ele>446.8</ele><time>2026-05-03T09:06:42.284Z</time></trkpt><trkpt lat="42.2670513" lon="13.7434754"><ele>446.4</ele><time>2026-05-03T09:06:43.287Z</time></trkpt><trkpt lat="42.2671363" lon="13.743429"><ele>446.0</ele><time>2026-05-03T09:06:44.288Z</time></trkpt><trkpt lat="42.2672226" lon="13.7433839"><ele>444.8333333333333</ele><time>2026-05-03T09:06:45.287Z</time></trkpt><trkpt lat="42.2673176" lon="13.7433631"><ele>443.66666666666663</ele><time>2026-05-03T09:06:46.287Z</time></trkpt><trkpt lat="42.2674075" lon="13.7433636"><ele>442.5</ele><time>2026-05-03T09:06:47.292Z</time></trkpt><trkpt lat="42.2674907" lon="13.7433524"><ele>441.33333333333337</ele><time>2026-05-03T09:06:48.293Z</time></trkpt><trkpt lat="42.2675685" lon="13.7433331"><ele>440.1666666666667</ele><time>2026-05-03T09:06:49.293Z</time></trkpt><trkpt lat="42.2676402" lon="13.7433334"><ele>439.0</ele><time>2026-05-03T09:06:50.29Z</time></trkpt><trkpt lat="42.2677121" lon="13.7433551"><ele>439.00000000000006</ele><time>2026-05-03T09:06:51.29Z</time></trkpt><trkpt lat="42.2677853" lon="13.7433833"><ele>439.0</ele><time>2026-05-03T09:06:52.293Z</time></trkpt><trkpt lat="42.2678726" lon="13.7434195"><ele>439.0</ele><time>2026-05-03T09:06:53.306Z</time></trkpt><trkpt lat="42.2679467" lon="13.7434656"><ele>439.0</ele><time>2026-05-03T09:06:54.29Z</time></trkpt><trkpt lat="42.2680225" lon="13.7435201"><ele>439.00000000000006</ele><time>2026-05-03T09:06:55.293Z</time></trkpt><trkpt lat="42.2680938" lon="13.7435807"><ele>439.0</ele><time>2026-05-03T09:06:56.29Z</time></trkpt><trkpt lat="42.2681629" lon="13.7436317"><ele>439.7142857142857</ele><time>2026-05-03T09:06:57.297Z</time></trkpt><trkpt lat="42.2682381" lon="13.7436872"><ele>440.42857142857144</ele><time>2026-05-03T09:06:58.294Z</time></trkpt><trkpt lat="42.268312" lon="13.7437274"><ele>441.1428571428571</ele><time>2026-05-03T09:06:59.292Z</time></trkpt><trkpt lat="42.2683811" lon="13.7437508"><ele>441.8571428571429</ele><time>2026-05-03T09:07:00.287Z</time></trkpt><trkpt lat="42.2684577" lon="13.7437446"><ele>442.5714285714286</ele><time>2026-05-03T09:07:01.289Z</time></trkpt><trkpt lat="42.2685218" lon="13.7437481"><ele>443.2857142857143</ele><time>2026-05-03T09:07:02.287Z</time></trkpt><trkpt lat="42.2685845" lon="13.7437571"><ele>444.0</ele><time>2026-05-03T09:07:03.287Z</time></trkpt><trkpt lat="42.2686487" lon="13.7437674"><ele>444.0</ele><time>2026-05-03T09:07:04.284Z</time></trkpt><trkpt lat="42.2687701" lon="13.7437454"><ele>444.0</ele><time>2026-05-03T09:07:06.282Z</time></trkpt><trkpt lat="42.2688244" lon="13.7436995"><ele>444.0</ele><time>2026-05-03T09:07:07.28Z</time></trkpt><trkpt lat="42.2688884" lon="13.7436249"><ele>444.0</ele><time>2026-05-03T09:07:08.284Z</time></trkpt><trkpt lat="42.2689441" lon="13.7435503"><ele>444.0</ele><time>2026-05-03T09:07:09.283Z</time></trkpt><trkpt lat="42.2689992" lon="13.7434833"><ele>444.0</ele><time>2026-05-03T09:07:10.289Z</time></trkpt><trkpt lat="42.2690452" lon="13.7433432"><ele>442.5</ele><time>2026-05-03T09:07:12.287Z</time></trkpt><trkpt lat="42.2690993" lon="13.7432126"><ele>441.0</ele><time>2026-05-03T09:07:14.287Z</time></trkpt><trkpt lat="42.269218" lon="13.743186"><ele>439.5</ele><time>2026-05-03T09:07:16.299Z</time></trkpt><trkpt lat="42.2692886" lon="13.74318"><ele>438.0</ele><time>2026-05-03T09:07:17.299Z</time></trkpt><trkpt lat="42.2693598" lon="13.7431805"><ele>436.5</ele><time>2026-05-03T09:07:18.307Z</time></trkpt><trkpt lat="42.269425" lon="13.7431727"><ele>435.0</ele><time>2026-05-03T09:07:19.303Z</time></trkpt><trkpt lat="42.2694913" lon="13.7431782"><ele>435.0</ele><time>2026-05-03T09:07:20.307Z</time></trkpt><trkpt lat="42.2695606" lon="13.7432054"><ele>435.0</ele><time>2026-05-03T09:07:21.298Z</time></trkpt><trkpt lat="42.2696252" lon="13.7432381"><ele>435.0</ele><time>2026-05-03T09:07:22.305Z</time></trkpt><trkpt lat="42.2697017" lon="13.7432898"><ele>435.0</ele><time>2026-05-03T09:07:23.305Z</time></trkpt><trkpt lat="42.2697762" lon="13.7433353"><ele>435.0</ele><time>2026-05-03T09:07:24.329Z</time></trkpt><trkpt lat="42.2698567" lon="13.7433777"><ele>435.0</ele><time>2026-05-03T09:07:25.31Z</time></trkpt><trkpt lat="42.2699325" lon="13.7434469"><ele>434.8</ele><time>2026-05-03T09:07:26.314Z</time></trkpt><trkpt lat="42.270014" lon="13.7435213"><ele>434.6</ele><time>2026-05-03T09:07:27.317Z</time></trkpt><trkpt lat="42.2700906" lon="13.7435928"><ele>434.4</ele><time>2026-05-03T09:07:28.31Z</time></trkpt><trkpt lat="42.2701674" lon="13.7436537"><ele>434.2</ele><time>2026-05-03T09:07:29.313Z</time></trkpt><trkpt lat="42.2702468" lon="13.7437033"><ele>434.0</ele><time>2026-05-03T09:07:30.318Z</time></trkpt><trkpt lat="42.2703241" lon="13.7437547"><ele>432.99999999999994</ele><time>2026-05-03T09:07:31.321Z</time></trkpt><trkpt lat="42.2703984" lon="13.7438011"><ele>432.0</ele><time>2026-05-03T09:07:32.315Z</time></trkpt><trkpt lat="42.2704662" lon="13.7438344"><ele>431.0</ele><time>2026-05-03T09:07:33.309Z</time></trkpt><trkpt lat="42.270532" lon="13.7438619"><ele>430.0</ele><time>2026-05-03T09:07:34.318Z</time></trkpt><trkpt lat="42.2706023" lon="13.7438809"><ele>428.99999999999994</ele><time>2026-05-03T09:07:35.317Z</time></trkpt><trkpt lat="42.2706778" lon="13.7439173"><ele>428.0</ele><time>2026-05-03T09:07:36.321Z</time></trkpt><trkpt lat="42.2707604" lon="13.7439556"><ele>427.8333333333333</ele><time>2026-05-03T09:07:37.321Z</time></trkpt><trkpt lat="42.2708322" lon="13.7439876"><ele>427.66666666666663</ele><time>2026-05-03T09:07:38.309Z</time></trkpt><trkpt lat="42.2708869" lon="13.7440454"><ele>427.5</ele><time>2026-05-03T09:07:39.317Z</time></trkpt><trkpt lat="42.2709236" lon="13.7441232"><ele>427.33333333333337</ele><time>2026-05-03T09:07:40.311Z</time></trkpt><trkpt lat="42.2709505" lon="13.7442891"><ele>427.1666666666667</ele><time>2026-05-03T09:07:42.304Z</time></trkpt><trkpt lat="42.270956" lon="13.7443754"><ele>427.0</ele><time>2026-05-03T09:07:43.305Z</time></trkpt><trkpt lat="42.2709799" lon="13.7444703"><ele>426.40000000000003</ele><time>2026-05-03T09:07:44.311Z</time></trkpt><trkpt lat="42.2710133" lon="13.7445776"><ele>425.80000000000007</ele><time>2026-05-03T09:07:45.305Z</time></trkpt><trkpt lat="42.2710578" lon="13.7446929"><ele>425.2</ele><time>2026-05-03T09:07:46.306Z</time></trkpt><trkpt lat="42.2711058" lon="13.7448005"><ele>424.6</ele><time>2026-05-03T09:07:47.307Z</time></trkpt><trkpt lat="42.2711589" lon="13.7449105"><ele>424.0</ele><time>2026-05-03T09:07:48.311Z</time></trkpt><trkpt lat="42.2712093" lon="13.7450096"><ele>424.0</ele><time>2026-05-03T09:07:49.307Z</time></trkpt><trkpt lat="42.271268" lon="13.7451195"><ele>424.0</ele><time>2026-05-03T09:07:50.313Z</time></trkpt><trkpt lat="42.2713283" lon="13.7452356"><ele>424.0</ele><time>2026-05-03T09:07:51.31Z</time></trkpt><trkpt lat="42.271382" lon="13.7453356"><ele>424.0</ele><time>2026-05-03T09:07:52.308Z</time></trkpt><trkpt lat="42.271425" lon="13.7454334"><ele>424.0</ele><time>2026-05-03T09:07:53.309Z</time></trkpt><trkpt lat="42.2714586" lon="13.7455312"><ele>423.83333333333337</ele><time>2026-05-03T09:07:54.322Z</time></trkpt><trkpt lat="42.2714835" lon="13.7456406"><ele>423.6666666666667</ele><time>2026-05-03T09:07:55.311Z</time></trkpt><trkpt lat="42.2714895" lon="13.7457486"><ele>423.5</ele><time>2026-05-03T09:07:56.312Z</time></trkpt><trkpt lat="42.2714996" lon="13.7458653"><ele>423.33333333333337</ele><time>2026-05-03T09:07:57.317Z</time></trkpt><trkpt lat="42.2715104" lon="13.7459724"><ele>423.1666666666667</ele><time>2026-05-03T09:07:58.307Z</time></trkpt><trkpt lat="42.2715254" lon="13.7460715"><ele>423.0</ele><time>2026-05-03T09:07:59.312Z</time></trkpt><trkpt lat="42.2715471" lon="13.7461744"><ele>423.0</ele><time>2026-05-03T09:08:00.313Z</time></trkpt><trkpt lat="42.2715786" lon="13.7462808"><ele>423.0</ele><time>2026-05-03T09:08:01.314Z</time></trkpt><trkpt lat="42.271611" lon="13.7464037"><ele>423.0</ele><time>2026-05-03T09:08:02.312Z</time></trkpt><trkpt lat="42.2716558" lon="13.7465293"><ele>423.0</ele><time>2026-05-03T09:08:03.305Z</time></trkpt><trkpt lat="42.2717121" lon="13.7466515"><ele>423.0</ele><time>2026-05-03T09:08:04.309Z</time></trkpt><trkpt lat="42.2717596" lon="13.7467576"><ele>423.0</ele><time>2026-05-03T09:08:05.31Z</time></trkpt><trkpt lat="42.2718042" lon="13.7468536"><ele>423.0</ele><time>2026-05-03T09:08:06.308Z</time></trkpt><trkpt lat="42.2718593" lon="13.7469427"><ele>423.0</ele><time>2026-05-03T09:08:07.309Z</time></trkpt><trkpt lat="42.2719056" lon="13.7470377"><ele>423.0</ele><time>2026-05-03T09:08:08.311Z</time></trkpt><trkpt lat="42.2719522" lon="13.7471363"><ele>423.0</ele><time>2026-05-03T09:08:09.31Z</time></trkpt><trkpt lat="42.2720016" lon="13.7472517"><ele>423.0</ele><time>2026-05-03T09:08:10.311Z</time></trkpt><trkpt lat="42.2720553" lon="13.7473549"><ele>423.5</ele><time>2026-05-03T09:08:11.305Z</time></trkpt><trkpt lat="42.2721199" lon="13.7474481"><ele>424.0</ele><time>2026-05-03T09:08:12.314Z</time></trkpt><trkpt lat="42.2721873" lon="13.7475528"><ele>424.5</ele><time>2026-05-03T09:08:13.315Z</time></trkpt><trkpt lat="42.2722361" lon="13.7476513"><ele>425.0</ele><time>2026-05-03T09:08:14.314Z</time></trkpt><trkpt lat="42.2722911" lon="13.7477338"><ele>425.5</ele><time>2026-05-03T09:08:15.313Z</time></trkpt><trkpt lat="42.2723432" lon="13.7478051"><ele>426.0</ele><time>2026-05-03T09:08:16.311Z</time></trkpt><trkpt lat="42.2724338" lon="13.7478844"><ele>426.0</ele><time>2026-05-03T09:08:18.307Z</time></trkpt><trkpt lat="42.2725333" lon="13.7479313"><ele>426.0</ele><time>2026-05-03T09:08:20.312Z</time></trkpt><trkpt lat="42.272638" lon="13.7480169"><ele>426.0</ele><time>2026-05-03T09:08:22.317Z</time></trkpt><trkpt lat="42.2727021" lon="13.7480816"><ele>426.0</ele><time>2026-05-03T09:08:23.317Z</time></trkpt><trkpt lat="42.2727627" lon="13.7481484"><ele>426.0</ele><time>2026-05-03T09:08:24.319Z</time></trkpt><trkpt lat="42.2728236" lon="13.7482262"><ele>426.0</ele><time>2026-05-03T09:08:25.327Z</time></trkpt><trkpt lat="42.2728777" lon="13.7483156"><ele>426.0</ele><time>2026-05-03T09:08:26.315Z</time></trkpt><trkpt lat="42.2729449" lon="13.7484123"><ele>426.0</ele><time>2026-05-03T09:08:27.319Z</time></trkpt><trkpt lat="42.2730091" lon="13.748511"><ele>426.0</ele><time>2026-05-03T09:08:28.318Z</time></trkpt><trkpt lat="42.2730767" lon="13.7486146"><ele>426.0</ele><time>2026-05-03T09:08:29.322Z</time></trkpt><trkpt lat="42.2731516" lon="13.748731"><ele>424.6</ele><time>2026-05-03T09:08:30.317Z</time></trkpt><trkpt lat="42.2732336" lon="13.7488367"><ele>423.20000000000005</ele><time>2026-05-03T09:08:31.317Z</time></trkpt><trkpt lat="42.2733133" lon="13.7489256"><ele>421.79999999999995</ele><time>2026-05-03T09:08:32.314Z</time></trkpt><trkpt lat="42.2733998" lon="13.7490149"><ele>420.4</ele><time>2026-05-03T09:08:33.317Z</time></trkpt><trkpt lat="42.2734851" lon="13.7491038"><ele>419.0</ele><time>2026-05-03T09:08:34.313Z</time></trkpt><trkpt lat="42.2735761" lon="13.7491907"><ele>419.0</ele><time>2026-05-03T09:08:35.302Z</time></trkpt><trkpt lat="42.2736795" lon="13.7492665"><ele>419.0</ele><time>2026-05-03T09:08:36.313Z</time></trkpt><trkpt lat="42.2737804" lon="13.7493273"><ele>419.0</ele><time>2026-05-03T09:08:37.312Z</time></trkpt><trkpt lat="42.2738627" lon="13.7493738"><ele>419.0</ele><time>2026-05-03T09:08:38.307Z</time></trkpt><trkpt lat="42.2739258" lon="13.7494271"><ele>419.0</ele><time>2026-05-03T09:08:39.306Z</time></trkpt><trkpt lat="42.2739717" lon="13.749498"><ele>419.0</ele><time>2026-05-03T09:08:40.305Z</time></trkpt><trkpt lat="42.2739902" lon="13.7495896"><ele>419.0</ele><time>2026-05-03T09:08:41.321Z</time></trkpt><trkpt lat="42.2739843" lon="13.7496926"><ele>419.0</ele><time>2026-05-03T09:08:42.322Z</time></trkpt><trkpt lat="42.273943" lon="13.7498078"><ele>419.0</ele><time>2026-05-03T09:08:43.311Z</time></trkpt><trkpt lat="42.2738948" lon="13.7499337"><ele>419.0</ele><time>2026-05-03T09:08:44.31Z</time></trkpt><trkpt lat="42.2738397" lon="13.7500588"><ele>419.0</ele><time>2026-05-03T09:08:45.308Z</time></trkpt><trkpt lat="42.2737759" lon="13.7501912"><ele>419.0</ele><time>2026-05-03T09:08:46.311Z</time></trkpt><trkpt lat="42.2737135" lon="13.750328"><ele>419.0</ele><time>2026-05-03T09:08:47.313Z</time></trkpt><trkpt lat="42.2736658" lon="13.7504383"><ele>419.0</ele><time>2026-05-03T09:08:48.314Z</time></trkpt><trkpt lat="42.2736313" lon="13.75053"><ele>419.0</ele><time>2026-05-03T09:08:49.313Z</time></trkpt><trkpt lat="42.273611" lon="13.7506162"><ele>418.99999999999994</ele><time>2026-05-03T09:08:50.323Z</time></trkpt><trkpt lat="42.273615" lon="13.7507241"><ele>419.0</ele><time>2026-05-03T09:08:51.311Z</time></trkpt><trkpt lat="42.273644" lon="13.7508351"><ele>419.0</ele><time>2026-05-03T09:08:52.314Z</time></trkpt><trkpt lat="42.2736907" lon="13.7509471"><ele>419.0</ele><time>2026-05-03T09:08:53.312Z</time></trkpt><trkpt lat="42.2737457" lon="13.7510444"><ele>418.99999999999994</ele><time>2026-05-03T09:08:54.312Z</time></trkpt><trkpt lat="42.2738002" lon="13.751124"><ele>419.0</ele><time>2026-05-03T09:08:55.304Z</time></trkpt><trkpt lat="42.2738603" lon="13.7511773"><ele>418.66666666666663</ele><time>2026-05-03T09:08:56.311Z</time></trkpt><trkpt lat="42.273924" lon="13.7512136"><ele>418.3333333333333</ele><time>2026-05-03T09:08:57.321Z</time></trkpt><trkpt lat="42.2739975" lon="13.7512197"><ele>418.0</ele><time>2026-05-03T09:08:58.31Z</time></trkpt><trkpt lat="42.2740794" lon="13.7511904"><ele>417.66666666666663</ele><time>2026-05-03T09:08:59.314Z</time></trkpt><trkpt lat="42.2741651" lon="13.7511422"><ele>417.3333333333333</ele><time>2026-05-03T09:09:00.312Z</time></trkpt><trkpt lat="42.274251" lon="13.7510892"><ele>417.0</ele><time>2026-05-03T09:09:01.316Z</time></trkpt><trkpt lat="42.2743325" lon="13.7510417"><ele>416.8</ele><time>2026-05-03T09:09:02.319Z</time></trkpt><trkpt lat="42.2744127" lon="13.751012"><ele>416.6</ele><time>2026-05-03T09:09:03.316Z</time></trkpt><trkpt lat="42.274511" lon="13.7509851"><ele>416.40000000000003</ele><time>2026-05-03T09:09:04.32Z</time></trkpt><trkpt lat="42.2746128" lon="13.7509628"><ele>416.20000000000005</ele><time>2026-05-03T09:09:05.314Z</time></trkpt><trkpt lat="42.2747097" lon="13.7509362"><ele>416.0</ele><time>2026-05-03T09:09:06.32Z</time></trkpt><trkpt lat="42.2748034" lon="13.7509147"><ele>415.0</ele><time>2026-05-03T09:09:07.313Z</time></trkpt><trkpt lat="42.2749077" lon="13.7509096"><ele>414.0</ele><time>2026-05-03T09:09:08.313Z</time></trkpt><trkpt lat="42.2750248" lon="13.750909"><ele>413.0</ele><time>2026-05-03T09:09:09.308Z</time></trkpt><trkpt lat="42.2751485" lon="13.7509201"><ele>412.0</ele><time>2026-05-03T09:09:10.313Z</time></trkpt><trkpt lat="42.2752599" lon="13.750933"><ele>412.0</ele><time>2026-05-03T09:09:11.313Z</time></trkpt><trkpt lat="42.2753714" lon="13.7509427"><ele>412.0</ele><time>2026-05-03T09:09:12.31Z</time></trkpt><trkpt lat="42.2756001" lon="13.750959"><ele>412.0</ele><time>2026-05-03T09:09:14.314Z</time></trkpt><trkpt lat="42.2756921" lon="13.7509713"><ele>412.0</ele><time>2026-05-03T09:09:15.314Z</time></trkpt><trkpt lat="42.2757937" lon="13.7509791"><ele>411.50000000000006</ele><time>2026-05-03T09:09:16.314Z</time></trkpt><trkpt lat="42.2758797" lon="13.7509879"><ele>411.0</ele><time>2026-05-03T09:09:17.316Z</time></trkpt><trkpt lat="42.275961" lon="13.7509994"><ele>410.5</ele><time>2026-05-03T09:09:18.317Z</time></trkpt><trkpt lat="42.2760425" lon="13.751013"><ele>410.0</ele><time>2026-05-03T09:09:19.304Z</time></trkpt><trkpt lat="42.2761074" lon="13.7510625"><ele>409.50000000000006</ele><time>2026-05-03T09:09:20.319Z</time></trkpt><trkpt lat="42.2761707" lon="13.75115"><ele>409.0</ele><time>2026-05-03T09:09:21.311Z</time></trkpt><trkpt lat="42.2762448" lon="13.7512565"><ele>408.2</ele><time>2026-05-03T09:09:22.318Z</time></trkpt><trkpt lat="42.2763219" lon="13.7513693"><ele>407.4</ele><time>2026-05-03T09:09:23.313Z</time></trkpt><trkpt lat="42.276398" lon="13.7514633"><ele>406.6</ele><time>2026-05-03T09:09:24.312Z</time></trkpt><trkpt lat="42.2764749" lon="13.7515404"><ele>405.8</ele><time>2026-05-03T09:09:25.317Z</time></trkpt><trkpt lat="42.2765517" lon="13.7515876"><ele>405.0</ele><time>2026-05-03T09:09:26.313Z</time></trkpt><trkpt lat="42.2766356" lon="13.7516289"><ele>404.4</ele><time>2026-05-03T09:09:27.321Z</time></trkpt><trkpt lat="42.2767265" lon="13.7516577"><ele>403.8</ele><time>2026-05-03T09:09:28.314Z</time></trkpt><trkpt lat="42.2768193" lon="13.751687"><ele>403.20000000000005</ele><time>2026-05-03T09:09:29.316Z</time></trkpt><trkpt lat="42.2769015" lon="13.7517126"><ele>402.6</ele><time>2026-05-03T09:09:30.316Z</time></trkpt><trkpt lat="42.2769899" lon="13.7517454"><ele>402.0</ele><time>2026-05-03T09:09:31.314Z</time></trkpt><trkpt lat="42.2770774" lon="13.7517716"><ele>402.0</ele><time>2026-05-03T09:09:32.31Z</time></trkpt><trkpt lat="42.2771712" lon="13.7517887"><ele>402.0</ele><time>2026-05-03T09:09:33.317Z</time></trkpt><trkpt lat="42.2772664" lon="13.7517967"><ele>402.0</ele><time>2026-05-03T09:09:34.311Z</time></trkpt><trkpt lat="42.277355" lon="13.7518043"><ele>402.0</ele><time>2026-05-03T09:09:35.308Z</time></trkpt><trkpt lat="42.2774324" lon="13.7518299"><ele>402.0</ele><time>2026-05-03T09:09:36.308Z</time></trkpt><trkpt lat="42.2775174" lon="13.7518761"><ele>402.8</ele><time>2026-05-03T09:09:38.312Z</time></trkpt><trkpt lat="42.2775999" lon="13.751929"><ele>403.6</ele><time>2026-05-03T09:09:40.312Z</time></trkpt><trkpt lat="42.2777268" lon="13.7520007"><ele>404.40000000000003</ele><time>2026-05-03T09:09:42.307Z</time></trkpt><trkpt lat="42.2778147" lon="13.7520275"><ele>405.20000000000005</ele><time>2026-05-03T09:09:43.309Z</time></trkpt><trkpt lat="42.2779066" lon="13.7520498"><ele>406.0</ele><time>2026-05-03T09:09:44.317Z</time></trkpt><trkpt lat="42.2780103" lon="13.7520835"><ele>405.20000000000005</ele><time>2026-05-03T09:09:45.317Z</time></trkpt><trkpt lat="42.2781072" lon="13.7521124"><ele>404.40000000000003</ele><time>2026-05-03T09:09:46.314Z</time></trkpt><trkpt lat="42.2782121" lon="13.7521491"><ele>403.6</ele><time>2026-05-03T09:09:47.322Z</time></trkpt><trkpt lat="42.2783176" lon="13.7521725"><ele>402.8</ele><time>2026-05-03T09:09:48.314Z</time></trkpt><trkpt lat="42.278425" lon="13.7521791"><ele>402.0</ele><time>2026-05-03T09:09:49.313Z</time></trkpt><trkpt lat="42.278543" lon="13.7521807"><ele>402.0</ele><time>2026-05-03T09:09:50.314Z</time></trkpt><trkpt lat="42.2786682" lon="13.7521866"><ele>402.0</ele><time>2026-05-03T09:09:51.314Z</time></trkpt><trkpt lat="42.2787951" lon="13.7521918"><ele>402.0</ele><time>2026-05-03T09:09:52.313Z</time></trkpt><trkpt lat="42.278928" lon="13.7521893"><ele>402.0</ele><time>2026-05-03T09:09:53.318Z</time></trkpt><trkpt lat="42.2790587" lon="13.7521782"><ele>400.66666666666663</ele><time>2026-05-03T09:09:54.316Z</time></trkpt><trkpt lat="42.2792012" lon="13.752171"><ele>399.3333333333333</ele><time>2026-05-03T09:09:55.317Z</time></trkpt><trkpt lat="42.2793701" lon="13.7521638"><ele>398.0</ele><time>2026-05-03T09:09:56.314Z</time></trkpt><trkpt lat="42.2795471" lon="13.7521546"><ele>398.0</ele><time>2026-05-03T09:09:57.315Z</time></trkpt><trkpt lat="42.2797244" lon="13.7521605"><ele>398.0</ele><time>2026-05-03T09:09:58.33Z</time></trkpt><trkpt lat="42.2798793" lon="13.7521499"><ele>398.0</ele><time>2026-05-03T09:09:59.315Z</time></trkpt><trkpt lat="42.2800225" lon="13.7521433"><ele>396.25</ele><time>2026-05-03T09:10:00.317Z</time></trkpt><trkpt lat="42.2801625" lon="13.7521541"><ele>394.5</ele><time>2026-05-03T09:10:01.317Z</time></trkpt><trkpt lat="42.2802922" lon="13.7521794"><ele>392.75</ele><time>2026-05-03T09:10:02.32Z</time></trkpt><trkpt lat="42.2804269" lon="13.7522109"><ele>391.0</ele><time>2026-05-03T09:10:03.309Z</time></trkpt><trkpt lat="42.2805603" lon="13.7522706"><ele>390.5</ele><time>2026-05-03T09:10:04.311Z</time></trkpt><trkpt lat="42.2806818" lon="13.7523371"><ele>390.0</ele><time>2026-05-03T09:10:05.314Z</time></trkpt><trkpt lat="42.2808159" lon="13.7524287"><ele>389.5</ele><time>2026-05-03T09:10:06.305Z</time></trkpt><trkpt lat="42.2809375" lon="13.7525248"><ele>389.0</ele><time>2026-05-03T09:10:07.315Z</time></trkpt><trkpt lat="42.2810548" lon="13.7526321"><ele>389.0</ele><time>2026-05-03T09:10:08.313Z</time></trkpt><trkpt lat="42.2811707" lon="13.7527443"><ele>389.0</ele><time>2026-05-03T09:10:09.314Z</time></trkpt><trkpt lat="42.2812739" lon="13.7528541"><ele>389.0</ele><time>2026-05-03T09:10:10.313Z</time></trkpt><trkpt lat="42.2813857" lon="13.7529797"><ele>389.0</ele><time>2026-05-03T09:10:11.311Z</time></trkpt><trkpt lat="42.2814943" lon="13.7531073"><ele>389.0</ele><time>2026-05-03T09:10:12.31Z</time></trkpt><trkpt lat="42.2816189" lon="13.7532273"><ele>389.0</ele><time>2026-05-03T09:10:13.313Z</time></trkpt><trkpt lat="42.2817326" lon="13.7533695"><ele>389.0</ele><time>2026-05-03T09:10:14.311Z</time></trkpt><trkpt lat="42.2818461" lon="13.753499"><ele>389.5</ele><time>2026-05-03T09:10:15.314Z</time></trkpt><trkpt lat="42.2819655" lon="13.7536262"><ele>390.0</ele><time>2026-05-03T09:10:16.315Z</time></trkpt><trkpt lat="42.2820819" lon="13.7537472"><ele>390.5</ele><time>2026-05-03T09:10:17.314Z</time></trkpt><trkpt lat="42.282207" lon="13.7538394"><ele>391.0</ele><time>2026-05-03T09:10:18.314Z</time></trkpt><trkpt lat="42.2823632" lon="13.7539371"><ele>391.0</ele><time>2026-05-03T09:10:19.312Z</time></trkpt><trkpt lat="42.2825095" lon="13.7540321"><ele>391.0</ele><time>2026-05-03T09:10:20.316Z</time></trkpt><trkpt lat="42.2826566" lon="13.7541252"><ele>391.0</ele><time>2026-05-03T09:10:21.31Z</time></trkpt><trkpt lat="42.282799" lon="13.7541992"><ele>391.0</ele><time>2026-05-03T09:10:22.315Z</time></trkpt><trkpt lat="42.282929" lon="13.754267"><ele>391.0</ele><time>2026-05-03T09:10:23.314Z</time></trkpt><trkpt lat="42.2830483" lon="13.7543357"><ele>391.0</ele><time>2026-05-03T09:10:24.321Z</time></trkpt><trkpt lat="42.2831451" lon="13.7543912"><ele>391.0</ele><time>2026-05-03T09:10:25.321Z</time></trkpt><trkpt lat="42.2832367" lon="13.7544443"><ele>390.33333333333337</ele><time>2026-05-03T09:10:26.313Z</time></trkpt><trkpt lat="42.2833306" lon="13.754494"><ele>389.6666666666667</ele><time>2026-05-03T09:10:27.324Z</time></trkpt><trkpt lat="42.2834097" lon="13.7545342"><ele>389.0</ele><time>2026-05-03T09:10:28.307Z</time></trkpt><trkpt lat="42.2834759" lon="13.7545491"><ele>388.33333333333337</ele><time>2026-05-03T09:10:29.318Z</time></trkpt><trkpt lat="42.2835529" lon="13.7545527"><ele>387.6666666666667</ele><time>2026-05-03T09:10:31.312Z</time></trkpt><trkpt lat="42.2836139" lon="13.7545154"><ele>387.0</ele><time>2026-05-03T09:10:33.311Z</time></trkpt><trkpt lat="42.2836181" lon="13.7543866"><ele>386.20000000000005</ele><time>2026-05-03T09:10:35.316Z</time></trkpt><trkpt lat="42.2835937" lon="13.7542755"><ele>385.4</ele><time>2026-05-03T09:10:36.307Z</time></trkpt><trkpt lat="42.2835581" lon="13.7541429"><ele>384.6</ele><time>2026-05-03T09:10:37.306Z</time></trkpt><trkpt lat="42.2835266" lon="13.7539922"><ele>383.79999999999995</ele><time>2026-05-03T09:10:38.299Z</time></trkpt><trkpt lat="42.2835043" lon="13.7538196"><ele>383.0</ele><time>2026-05-03T09:10:39.309Z</time></trkpt><trkpt lat="42.2834847" lon="13.7536539"><ele>383.5</ele><time>2026-05-03T09:10:40.311Z</time></trkpt><trkpt lat="42.2834591" lon="13.7534807"><ele>384.0</ele><time>2026-05-03T09:10:41.305Z</time></trkpt><trkpt lat="42.2834282" lon="13.7533132"><ele>384.5</ele><time>2026-05-03T09:10:42.308Z</time></trkpt><trkpt lat="42.2834006" lon="13.7531567"><ele>385.0</ele><time>2026-05-03T09:10:43.307Z</time></trkpt><trkpt lat="42.2833878" lon="13.7529885"><ele>385.0</ele><time>2026-05-03T09:10:44.307Z</time></trkpt><trkpt lat="42.2833764" lon="13.7528283"><ele>385.0</ele><time>2026-05-03T09:10:45.3Z</time></trkpt><trkpt lat="42.2833717" lon="13.7526824"><ele>385.0</ele><time>2026-05-03T09:10:46.302Z</time></trkpt><trkpt lat="42.2833727" lon="13.7525629"><ele>385.0</ele><time>2026-05-03T09:10:47.31Z</time></trkpt><trkpt lat="42.2833689" lon="13.7524569"><ele>385.0</ele><time>2026-05-03T09:10:48.302Z</time></trkpt><trkpt lat="42.2833761" lon="13.7523594"><ele>385.1666666666667</ele><time>2026-05-03T09:10:49.309Z</time></trkpt><trkpt lat="42.2833857" lon="13.7522668"><ele>385.33333333333337</ele><time>2026-05-03T09:10:50.306Z</time></trkpt><trkpt lat="42.283423" lon="13.7521919"><ele>385.5</ele><time>2026-05-03T09:10:51.311Z</time></trkpt><trkpt lat="42.2834874" lon="13.7521595"><ele>385.66666666666663</ele><time>2026-05-03T09:10:52.306Z</time></trkpt><trkpt lat="42.2835763" lon="13.7521779"><ele>385.8333333333333</ele><time>2026-05-03T09:10:53.3Z</time></trkpt><trkpt lat="42.2836714" lon="13.7522089"><ele>386.0</ele><time>2026-05-03T09:10:54.302Z</time></trkpt><trkpt lat="42.2837847" lon="13.7522521"><ele>386.0</ele><time>2026-05-03T09:10:55.304Z</time></trkpt><trkpt lat="42.2839066" lon="13.7522893"><ele>386.0</ele><time>2026-05-03T09:10:56.3Z</time></trkpt><trkpt lat="42.2840389" lon="13.7523085"><ele>386.0</ele><time>2026-05-03T09:10:57.309Z</time></trkpt><trkpt lat="42.2841779" lon="13.7523473"><ele>386.0</ele><time>2026-05-03T09:10:58.307Z</time></trkpt><trkpt lat="42.2843106" lon="13.7523871"><ele>385.5</ele><time>2026-05-03T09:10:59.305Z</time></trkpt><trkpt lat="42.2844378" lon="13.7524292"><ele>385.0</ele><time>2026-05-03T09:11:00.317Z</time></trkpt><trkpt lat="42.2845601" lon="13.7524802"><ele>384.5</ele><time>2026-05-03T09:11:01.306Z</time></trkpt><trkpt lat="42.2846735" lon="13.7525232"><ele>384.0</ele><time>2026-05-03T09:11:02.305Z</time></trkpt><trkpt lat="42.2847781" lon="13.7525578"><ele>384.0</ele><time>2026-05-03T09:11:03.303Z</time></trkpt><trkpt lat="42.2848809" lon="13.7525956"><ele>384.0</ele><time>2026-05-03T09:11:04.307Z</time></trkpt><trkpt lat="42.284982" lon="13.7526449"><ele>384.0</ele><time>2026-05-03T09:11:05.306Z</time></trkpt><trkpt lat="42.2850871" lon="13.7527031"><ele>384.0</ele><time>2026-05-03T09:11:06.307Z</time></trkpt><trkpt lat="42.2851837" lon="13.7527612"><ele>384.0</ele><time>2026-05-03T09:11:07.308Z</time></trkpt><trkpt lat="42.2852877" lon="13.752817"><ele>383.6</ele><time>2026-05-03T09:11:08.308Z</time></trkpt><trkpt lat="42.2853899" lon="13.7528618"><ele>383.2</ele><time>2026-05-03T09:11:09.307Z</time></trkpt><trkpt lat="42.2854874" lon="13.7528946"><ele>382.8</ele><time>2026-05-03T09:11:10.307Z</time></trkpt><trkpt lat="42.2855929" lon="13.7529298"><ele>382.40000000000003</ele><time>2026-05-03T09:11:11.307Z</time></trkpt><trkpt lat="42.2856929" lon="13.7529647"><ele>382.0</ele><time>2026-05-03T09:11:12.302Z</time></trkpt><trkpt lat="42.2857903" lon="13.75299"><ele>381.66666666666663</ele><time>2026-05-03T09:11:13.306Z</time></trkpt><trkpt lat="42.2858819" lon="13.7530286"><ele>381.3333333333333</ele><time>2026-05-03T09:11:14.31Z</time></trkpt><trkpt lat="42.2859743" lon="13.7530566"><ele>381.0</ele><time>2026-05-03T09:11:15.298Z</time></trkpt><trkpt lat="42.286053" lon="13.7530827"><ele>380.6666666666667</ele><time>2026-05-03T09:11:16.31Z</time></trkpt><trkpt lat="42.2861145" lon="13.7531108"><ele>380.33333333333337</ele><time>2026-05-03T09:11:17.302Z</time></trkpt><trkpt lat="42.2861787" lon="13.7531275"><ele>380.0</ele><time>2026-05-03T09:11:27.305Z</time></trkpt><trkpt lat="42.2862718" lon="13.7531438"><ele>380.0</ele><time>2026-05-03T09:11:29.305Z</time></trkpt><trkpt lat="42.2863356" lon="13.7531592"><ele>380.0</ele><time>2026-05-03T09:11:30.307Z</time></trkpt><trkpt lat="42.2864168" lon="13.7531822"><ele>380.0</ele><time>2026-05-03T09:11:31.32Z</time></trkpt><trkpt lat="42.2865172" lon="13.7532146"><ele>380.0</ele><time>2026-05-03T09:11:32.307Z</time></trkpt><trkpt lat="42.2866194" lon="13.753242"><ele>380.0</ele><time>2026-05-03T09:11:33.307Z</time></trkpt><trkpt lat="42.2867337" lon="13.7532691"><ele>379.5</ele><time>2026-05-03T09:11:34.307Z</time></trkpt><trkpt lat="42.2868556" lon="13.7532875"><ele>379.0</ele><time>2026-05-03T09:11:35.305Z</time></trkpt><trkpt lat="42.2869787" lon="13.7533188"><ele>378.5</ele><time>2026-05-03T09:11:36.312Z</time></trkpt><trkpt lat="42.2870934" lon="13.7533692"><ele>378.0</ele><time>2026-05-03T09:11:37.306Z</time></trkpt><trkpt lat="42.2872071" lon="13.7534339"><ele>377.4</ele><time>2026-05-03T09:11:38.311Z</time></trkpt><trkpt lat="42.2873191" lon="13.7535088"><ele>376.79999999999995</ele><time>2026-05-03T09:11:39.308Z</time></trkpt><trkpt lat="42.2874218" lon="13.7535769"><ele>376.2</ele><time>2026-05-03T09:11:40.308Z</time></trkpt><trkpt lat="42.287524" lon="13.7536384"><ele>375.6</ele><time>2026-05-03T09:11:41.308Z</time></trkpt><trkpt lat="42.2876115" lon="13.7536927"><ele>375.0</ele><time>2026-05-03T09:11:42.311Z</time></trkpt><trkpt lat="42.2877014" lon="13.7537478"><ele>375.0</ele><time>2026-05-03T09:11:43.304Z</time></trkpt><trkpt lat="42.2877759" lon="13.7537869"><ele>375.0</ele><time>2026-05-03T09:11:44.304Z</time></trkpt><trkpt lat="42.287883" lon="13.753779"><ele>375.0</ele><time>2026-05-03T09:11:46.302Z</time></trkpt><trkpt lat="42.2879368" lon="13.7537178"><ele>375.0</ele><time>2026-05-03T09:11:47.301Z</time></trkpt><trkpt lat="42.2879829" lon="13.7536311"><ele>375.0</ele><time>2026-05-03T09:11:48.305Z</time></trkpt><trkpt lat="42.2880175" lon="13.7535411"><ele>375.0</ele><time>2026-05-03T09:11:49.305Z</time></trkpt><trkpt lat="42.2880629" lon="13.7534516"><ele>374.8</ele><time>2026-05-03T09:11:50.305Z</time></trkpt><trkpt lat="42.2881245" lon="13.7533662"><ele>374.6</ele><time>2026-05-03T09:11:51.303Z</time></trkpt><trkpt lat="42.2881972" lon="13.7532725"><ele>374.4</ele><time>2026-05-03T09:11:52.308Z</time></trkpt><trkpt lat="42.2882699" lon="13.7531739"><ele>374.2</ele><time>2026-05-03T09:11:53.308Z</time></trkpt><trkpt lat="42.2883353" lon="13.7530812"><ele>374.0</ele><time>2026-05-03T09:11:54.306Z</time></trkpt><trkpt lat="42.2883959" lon="13.7530071"><ele>374.0</ele><time>2026-05-03T09:11:55.308Z</time></trkpt><trkpt lat="42.2884458" lon="13.7529221"><ele>374.0</ele><time>2026-05-03T09:11:56.306Z</time></trkpt><trkpt lat="42.2884942" lon="13.7528275"><ele>374.0</ele><time>2026-05-03T09:11:57.311Z</time></trkpt><trkpt lat="42.2885509" lon="13.7527206"><ele>374.0</ele><time>2026-05-03T09:11:58.308Z</time></trkpt><trkpt lat="42.288614" lon="13.7526201"><ele>374.0</ele><time>2026-05-03T09:11:59.302Z</time></trkpt><trkpt lat="42.2886791" lon="13.7525117"><ele>374.6</ele><time>2026-05-03T09:12:00.308Z</time></trkpt><trkpt lat="42.2887457" lon="13.7524147"><ele>375.2</ele><time>2026-05-03T09:12:01.307Z</time></trkpt><trkpt lat="42.2888102" lon="13.7523023"><ele>375.8</ele><time>2026-05-03T09:12:02.325Z</time></trkpt><trkpt lat="42.288865" lon="13.7521821"><ele>376.40000000000003</ele><time>2026-05-03T09:12:03.304Z</time></trkpt><trkpt lat="42.2889237" lon="13.7520594"><ele>377.0</ele><time>2026-05-03T09:12:04.307Z</time></trkpt><trkpt lat="42.28898" lon="13.7519225"><ele>378.25</ele><time>2026-05-03T09:12:05.303Z</time></trkpt><trkpt lat="42.2890436" lon="13.7517824"><ele>379.5</ele><time>2026-05-03T09:12:06.303Z</time></trkpt><trkpt lat="42.2890982" lon="13.7516254"><ele>380.75</ele><time>2026-05-03T09:12:07.305Z</time></trkpt><trkpt lat="42.2891524" lon="13.7514815"><ele>382.0</ele><time>2026-05-03T09:12:08.305Z</time></trkpt><trkpt lat="42.2892052" lon="13.75134"><ele>382.0</ele><time>2026-05-03T09:12:09.306Z</time></trkpt><trkpt lat="42.2892555" lon="13.7511993"><ele>382.0</ele><time>2026-05-03T09:12:10.306Z</time></trkpt><trkpt lat="42.2893015" lon="13.7510655"><ele>382.0</ele><time>2026-05-03T09:12:11.306Z</time></trkpt><trkpt lat="42.2893606" lon="13.7509396"><ele>382.0</ele><time>2026-05-03T09:12:12.302Z</time></trkpt><trkpt lat="42.2894219" lon="13.7508095"><ele>382.0</ele><time>2026-05-03T09:12:13.306Z</time></trkpt><trkpt lat="42.2894775" lon="13.7506716"><ele>382.0</ele><time>2026-05-03T09:12:14.309Z</time></trkpt><trkpt lat="42.2895392" lon="13.750536"><ele>382.0</ele><time>2026-05-03T09:12:15.303Z</time></trkpt><trkpt lat="42.2896106" lon="13.7503992"><ele>382.0</ele><time>2026-05-03T09:12:16.306Z</time></trkpt><trkpt lat="42.2896946" lon="13.7502881"><ele>382.0</ele><time>2026-05-03T09:12:17.304Z</time></trkpt><trkpt lat="42.2897745" lon="13.750181"><ele>381.75</ele><time>2026-05-03T09:12:18.307Z</time></trkpt><trkpt lat="42.2898466" lon="13.750068"><ele>381.5</ele><time>2026-05-03T09:12:19.305Z</time></trkpt><trkpt lat="42.2899073" lon="13.7499403"><ele>381.25</ele><time>2026-05-03T09:12:20.313Z</time></trkpt><trkpt lat="42.2899685" lon="13.7498041"><ele>381.0</ele><time>2026-05-03T09:12:21.308Z</time></trkpt><trkpt lat="42.2900369" lon="13.7496622"><ele>381.0</ele><time>2026-05-03T09:12:22.309Z</time></trkpt><trkpt lat="42.2900998" lon="13.7495208"><ele>381.0</ele><time>2026-05-03T09:12:23.308Z</time></trkpt><trkpt lat="42.2901469" lon="13.7493669"><ele>381.0</ele><time>2026-05-03T09:12:24.308Z</time></trkpt><trkpt lat="42.2902052" lon="13.7492297"><ele>381.0</ele><time>2026-05-03T09:12:25.305Z</time></trkpt><trkpt lat="42.2902837" lon="13.7491114"><ele>381.0</ele><time>2026-05-03T09:12:26.31Z</time></trkpt><trkpt lat="42.290363" lon="13.7489975"><ele>381.0</ele><time>2026-05-03T09:12:27.312Z</time></trkpt><trkpt lat="42.2904452" lon="13.7488845"><ele>381.0</ele><time>2026-05-03T09:12:28.31Z</time></trkpt><trkpt lat="42.2905207" lon="13.7487688"><ele>381.0</ele><time>2026-05-03T09:12:29.308Z</time></trkpt><trkpt lat="42.290594" lon="13.7486439"><ele>381.20000000000005</ele><time>2026-05-03T09:12:30.307Z</time></trkpt><trkpt lat="42.2906633" lon="13.7485223"><ele>381.40000000000003</ele><time>2026-05-03T09:12:31.306Z</time></trkpt><trkpt lat="42.2907315" lon="13.748394"><ele>381.6</ele><time>2026-05-03T09:12:32.316Z</time></trkpt><trkpt lat="42.290805" lon="13.74829"><ele>381.8</ele><time>2026-05-03T09:12:33.302Z</time></trkpt><trkpt lat="42.2908741" lon="13.748178"><ele>382.0</ele><time>2026-05-03T09:12:34.309Z</time></trkpt><trkpt lat="42.2909499" lon="13.7480546"><ele>382.0</ele><time>2026-05-03T09:12:35.308Z</time></trkpt><trkpt lat="42.2910183" lon="13.7479375"><ele>382.0</ele><time>2026-05-03T09:12:36.311Z</time></trkpt><trkpt lat="42.2910837" lon="13.7478233"><ele>382.0</ele><time>2026-05-03T09:12:37.308Z</time></trkpt><trkpt lat="42.2911532" lon="13.7476977"><ele>382.0</ele><time>2026-05-03T09:12:38.313Z</time></trkpt><trkpt lat="42.2912219" lon="13.7475691"><ele>382.5</ele><time>2026-05-03T09:12:39.308Z</time></trkpt><trkpt lat="42.2912843" lon="13.747446"><ele>383.0</ele><time>2026-05-03T09:12:40.315Z</time></trkpt><trkpt lat="42.2913459" lon="13.7473152"><ele>383.5</ele><time>2026-05-03T09:12:41.311Z</time></trkpt><trkpt lat="42.2914156" lon="13.7471821"><ele>384.0</ele><time>2026-05-03T09:12:42.308Z</time></trkpt><trkpt lat="42.2914884" lon="13.7470762"><ele>384.2</ele><time>2026-05-03T09:12:43.311Z</time></trkpt><trkpt lat="42.2915665" lon="13.7469852"><ele>384.4</ele><time>2026-05-03T09:12:44.312Z</time></trkpt><trkpt lat="42.291626" lon="13.7468894"><ele>384.6</ele><time>2026-05-03T09:12:45.311Z</time></trkpt><trkpt lat="42.291671" lon="13.7467891"><ele>384.8</ele><time>2026-05-03T09:12:46.309Z</time></trkpt><trkpt lat="42.2917077" lon="13.7466969"><ele>385.0</ele><time>2026-05-03T09:12:47.308Z</time></trkpt><trkpt lat="42.2917772" lon="13.7465739"><ele>385.4</ele><time>2026-05-03T09:12:49.313Z</time></trkpt><trkpt lat="42.2918511" lon="13.7465262"><ele>385.8</ele><time>2026-05-03T09:12:51.302Z</time></trkpt><trkpt lat="42.2919628" lon="13.7466273"><ele>386.20000000000005</ele><time>2026-05-03T09:12:53.3Z</time></trkpt><trkpt lat="42.2920265" lon="13.7467021"><ele>386.6</ele><time>2026-05-03T09:12:54.303Z</time></trkpt><trkpt lat="42.2921114" lon="13.7467812"><ele>387.0</ele><time>2026-05-03T09:12:55.304Z</time></trkpt><trkpt lat="42.2922008" lon="13.7468525"><ele>385.75</ele><time>2026-05-03T09:12:56.303Z</time></trkpt><trkpt lat="42.292295" lon="13.7469209"><ele>384.5</ele><time>2026-05-03T09:12:57.31Z</time></trkpt><trkpt lat="42.2923964" lon="13.746984"><ele>383.25</ele><time>2026-05-03T09:12:58.304Z</time></trkpt><trkpt lat="42.2925028" lon="13.747049"><ele>382.0</ele><time>2026-05-03T09:12:59.307Z</time></trkpt><trkpt lat="42.292614" lon="13.7471141"><ele>382.0</ele><time>2026-05-03T09:13:00.307Z</time></trkpt><trkpt lat="42.292717" lon="13.7471778"><ele>382.0</ele><time>2026-05-03T09:13:01.309Z</time></trkpt><trkpt lat="42.2928173" lon="13.7472403"><ele>382.0</ele><time>2026-05-03T09:13:02.308Z</time></trkpt><trkpt lat="42.2929174" lon="13.7472745"><ele>382.0</ele><time>2026-05-03T09:13:03.313Z</time></trkpt><trkpt lat="42.2930081" lon="13.7472978"><ele>382.0</ele><time>2026-05-03T09:13:04.305Z</time></trkpt><trkpt lat="42.2930989" lon="13.7473302"><ele>383.0</ele><time>2026-05-03T09:13:05.305Z</time></trkpt><trkpt lat="42.2931884" lon="13.7473737"><ele>384.0</ele><time>2026-05-03T09:13:06.309Z</time></trkpt><trkpt lat="42.2932753" lon="13.747429"><ele>385.0</ele><time>2026-05-03T09:13:07.307Z</time></trkpt><trkpt lat="42.2933596" lon="13.7474973"><ele>386.0</ele><time>2026-05-03T09:13:08.31Z</time></trkpt><trkpt lat="42.2934509" lon="13.7475657"><ele>387.0</ele><time>2026-05-03T09:13:09.309Z</time></trkpt><trkpt lat="42.2935504" lon="13.7476239"><ele>387.0</ele><time>2026-05-03T09:13:10.308Z</time></trkpt><trkpt lat="42.2936533" lon="13.7476867"><ele>387.0</ele><time>2026-05-03T09:13:11.308Z</time></trkpt><trkpt lat="42.2937661" lon="13.7477464"><ele>387.0</ele><time>2026-05-03T09:13:12.309Z</time></trkpt><trkpt lat="42.2938759" lon="13.7478067"><ele>387.0</ele><time>2026-05-03T09:13:13.308Z</time></trkpt><trkpt lat="42.2939856" lon="13.7478592"><ele>387.0</ele><time>2026-05-03T09:13:14.314Z</time></trkpt><trkpt lat="42.2941081" lon="13.7479166"><ele>387.0</ele><time>2026-05-03T09:13:15.311Z</time></trkpt><trkpt lat="42.294226" lon="13.7479711"><ele>387.0</ele><time>2026-05-03T09:13:16.313Z</time></trkpt><trkpt lat="42.2943353" lon="13.7480445"><ele>387.0</ele><time>2026-05-03T09:13:17.312Z</time></trkpt><trkpt lat="42.2944358" lon="13.7481082"><ele>387.0</ele><time>2026-05-03T09:13:18.312Z</time></trkpt><trkpt lat="42.2945409" lon="13.7481713"><ele>387.0</ele><time>2026-05-03T09:13:19.316Z</time></trkpt><trkpt lat="42.2946444" lon="13.7482354"><ele>387.0</ele><time>2026-05-03T09:13:20.315Z</time></trkpt><trkpt lat="42.2947366" lon="13.7483041"><ele>387.0</ele><time>2026-05-03T09:13:21.314Z</time></trkpt><trkpt lat="42.2948235" lon="13.7483617"><ele>387.0</ele><time>2026-05-03T09:13:22.309Z</time></trkpt><trkpt lat="42.2949065" lon="13.7484091"><ele>388.3333333333333</ele><time>2026-05-03T09:13:23.316Z</time></trkpt><trkpt lat="42.2949824" lon="13.7484608"><ele>389.66666666666663</ele><time>2026-05-03T09:13:24.317Z</time></trkpt><trkpt lat="42.2950474" lon="13.7485088"><ele>391.0</ele><time>2026-05-03T09:13:25.312Z</time></trkpt><trkpt lat="42.2951052" lon="13.7485444"><ele>392.3333333333333</ele><time>2026-05-03T09:13:26.31Z</time></trkpt><trkpt lat="42.2951756" lon="13.7485945"><ele>393.66666666666663</ele><time>2026-05-03T09:13:28.31Z</time></trkpt><trkpt lat="42.2952777" lon="13.7486887"><ele>395.0</ele><time>2026-05-03T09:13:37.308Z</time></trkpt><trkpt lat="42.2953635" lon="13.7487431"><ele>395.5</ele><time>2026-05-03T09:13:38.304Z</time></trkpt><trkpt lat="42.2954608" lon="13.7487984"><ele>396.0</ele><time>2026-05-03T09:13:39.308Z</time></trkpt><trkpt lat="42.2955698" lon="13.7488429"><ele>396.5</ele><time>2026-05-03T09:13:40.308Z</time></trkpt><trkpt lat="42.2956846" lon="13.7488981"><ele>397.0</ele><time>2026-05-03T09:13:41.312Z</time></trkpt><trkpt lat="42.2957999" lon="13.7489537"><ele>400.0</ele><time>2026-05-03T09:13:42.313Z</time></trkpt><trkpt lat="42.2959051" lon="13.7490318"><ele>403.0</ele><time>2026-05-03T09:13:43.315Z</time></trkpt><trkpt lat="42.2959915" lon="13.7491289"><ele>406.0</ele><time>2026-05-03T09:13:44.308Z</time></trkpt><trkpt lat="42.2960738" lon="13.7492456"><ele>409.0</ele><time>2026-05-03T09:13:45.312Z</time></trkpt><trkpt lat="42.2961496" lon="13.7493618"><ele>411.0</ele><time>2026-05-03T09:13:46.314Z</time></trkpt><trkpt lat="42.2962209" lon="13.749467"><ele>413.0</ele><time>2026-05-03T09:13:47.304Z</time></trkpt><trkpt lat="42.2962962" lon="13.7495419"><ele>415.0</ele><time>2026-05-03T09:13:48.311Z</time></trkpt><trkpt lat="42.2963791" lon="13.7496012"><ele>417.0</ele><time>2026-05-03T09:13:49.311Z</time></trkpt><trkpt lat="42.2964617" lon="13.7496398"><ele>419.0</ele><time>2026-05-03T09:13:50.311Z</time></trkpt><trkpt lat="42.2965525" lon="13.7496878"><ele>420.0</ele><time>2026-05-03T09:13:51.313Z</time></trkpt><trkpt lat="42.2966328" lon="13.7497479"><ele>421.0</ele><time>2026-05-03T09:13:52.317Z</time></trkpt><trkpt lat="42.2967128" lon="13.749813"><ele>422.0</ele><time>2026-05-03T09:13:53.314Z</time></trkpt><trkpt lat="42.296788" lon="13.7498847"><ele>423.0</ele><time>2026-05-03T09:13:54.314Z</time></trkpt><trkpt lat="42.2968586" lon="13.7499688"><ele>424.0</ele><time>2026-05-03T09:13:55.314Z</time></trkpt><trkpt lat="42.2969251" lon="13.7500558"><ele>424.00000000000006</ele><time>2026-05-03T09:13:56.317Z</time></trkpt><trkpt lat="42.2969831" lon="13.7501336"><ele>424.0</ele><time>2026-05-03T09:13:57.318Z</time></trkpt><trkpt lat="42.2970288" lon="13.7502027"><ele>424.0</ele><time>2026-05-03T09:13:58.313Z</time></trkpt><trkpt lat="42.2970824" lon="13.7502625"><ele>424.0</ele><time>2026-05-03T09:13:59.314Z</time></trkpt><trkpt lat="42.2971477" lon="13.7503103"><ele>424.00000000000006</ele><time>2026-05-03T09:14:00.315Z</time></trkpt><trkpt lat="42.2972156" lon="13.7503448"><ele>424.0</ele><time>2026-05-03T09:14:01.318Z</time></trkpt><trkpt lat="42.2972965" lon="13.7503908"><ele>424.2</ele><time>2026-05-03T09:14:02.311Z</time></trkpt><trkpt lat="42.2973698" lon="13.7504268"><ele>424.4</ele><time>2026-05-03T09:14:03.31Z</time></trkpt><trkpt lat="42.2974649" lon="13.7504447"><ele>424.6</ele><time>2026-05-03T09:14:05.326Z</time></trkpt><trkpt lat="42.297534" lon="13.7503831"><ele>424.8</ele><time>2026-05-03T09:14:07.31Z</time></trkpt><trkpt lat="42.2975968" lon="13.7502255"><ele>425.0</ele><time>2026-05-03T09:14:09.309Z</time></trkpt><trkpt lat="42.297639" lon="13.7501495"><ele>425.49999999999994</ele><time>2026-05-03T09:14:10.308Z</time></trkpt><trkpt lat="42.2976989" lon="13.7501009"><ele>426.0</ele><time>2026-05-03T09:14:11.303Z</time></trkpt><trkpt lat="42.2977626" lon="13.7500729"><ele>426.5</ele><time>2026-05-03T09:14:12.304Z</time></trkpt><trkpt lat="42.2978372" lon="13.7500452"><ele>427.0</ele><time>2026-05-03T09:14:13.304Z</time></trkpt><trkpt lat="42.2979147" lon="13.7500186"><ele>427.49999999999994</ele><time>2026-05-03T09:14:14.309Z</time></trkpt><trkpt lat="42.2980045" lon="13.7499923"><ele>428.0</ele><time>2026-05-03T09:14:15.302Z</time></trkpt><trkpt lat="42.2981114" lon="13.7499887"><ele>428.4</ele><time>2026-05-03T09:14:16.305Z</time></trkpt><trkpt lat="42.29822" lon="13.7499935"><ele>428.79999999999995</ele><time>2026-05-03T09:14:17.309Z</time></trkpt><trkpt lat="42.2983118" lon="13.7500062"><ele>429.2</ele><time>2026-05-03T09:14:18.31Z</time></trkpt><trkpt lat="42.2984003" lon="13.7500179"><ele>429.6</ele><time>2026-05-03T09:14:19.312Z</time></trkpt><trkpt lat="42.2984897" lon="13.7500278"><ele>430.0</ele><time>2026-05-03T09:14:20.308Z</time></trkpt><trkpt lat="42.2985821" lon="13.7500101"><ele>430.0</ele><time>2026-05-03T09:14:21.307Z</time></trkpt><trkpt lat="42.2986806" lon="13.7499846"><ele>430.0</ele><time>2026-05-03T09:14:22.305Z</time></trkpt><trkpt lat="42.2987777" lon="13.7499625"><ele>430.0</ele><time>2026-05-03T09:14:23.306Z</time></trkpt><trkpt lat="42.2988686" lon="13.7499468"><ele>430.0</ele><time>2026-05-03T09:14:24.309Z</time></trkpt><trkpt lat="42.2989562" lon="13.7499208"><ele>430.0</ele><time>2026-05-03T09:14:25.305Z</time></trkpt><trkpt lat="42.2990643" lon="13.7498948"><ele>429.4</ele><time>2026-05-03T09:14:26.308Z</time></trkpt><trkpt lat="42.2991704" lon="13.7498826"><ele>428.8</ele><time>2026-05-03T09:14:27.308Z</time></trkpt><trkpt lat="42.299276" lon="13.7498611"><ele>428.20000000000005</ele><time>2026-05-03T09:14:28.307Z</time></trkpt><trkpt lat="42.2993788" lon="13.7498581"><ele>427.6</ele><time>2026-05-03T09:14:29.305Z</time></trkpt><trkpt lat="42.2994714" lon="13.7498521"><ele>427.0</ele><time>2026-05-03T09:14:30.31Z</time></trkpt><trkpt lat="42.2995626" lon="13.7498402"><ele>427.0</ele><time>2026-05-03T09:14:31.312Z</time></trkpt><trkpt lat="42.2996582" lon="13.7498181"><ele>427.00000000000006</ele><time>2026-05-03T09:14:32.31Z</time></trkpt><trkpt lat="42.2997423" lon="13.7497771"><ele>427.00000000000006</ele><time>2026-05-03T09:14:33.308Z</time></trkpt><trkpt lat="42.2998253" lon="13.7497267"><ele>427.0</ele><time>2026-05-03T09:14:34.306Z</time></trkpt><trkpt lat="42.2999038" lon="13.7496749"><ele>427.0</ele><time>2026-05-03T09:14:35.306Z</time></trkpt><trkpt lat="42.2999861" lon="13.749629"><ele>426.20000000000005</ele><time>2026-05-03T09:14:36.316Z</time></trkpt><trkpt lat="42.3000809" lon="13.7495926"><ele>425.40000000000003</ele><time>2026-05-03T09:14:37.305Z</time></trkpt><trkpt lat="42.300177" lon="13.7495705"><ele>424.6</ele><time>2026-05-03T09:14:38.305Z</time></trkpt><trkpt lat="42.3002662" lon="13.749549"><ele>423.79999999999995</ele><time>2026-05-03T09:14:39.305Z</time></trkpt><trkpt lat="42.3003454" lon="13.749517"><ele>423.0</ele><time>2026-05-03T09:14:40.305Z</time></trkpt><trkpt lat="42.3004337" lon="13.7494922"><ele>423.0</ele><time>2026-05-03T09:14:41.304Z</time></trkpt><trkpt lat="42.3005204" lon="13.7494616"><ele>423.0</ele><time>2026-05-03T09:14:42.304Z</time></trkpt><trkpt lat="42.3006103" lon="13.7494181"><ele>423.0</ele><time>2026-05-03T09:14:43.303Z</time></trkpt><trkpt lat="42.3007161" lon="13.7493883"><ele>423.0</ele><time>2026-05-03T09:14:44.31Z</time></trkpt><trkpt lat="42.3008339" lon="13.7493642"><ele>423.0</ele><time>2026-05-03T09:14:45.306Z</time></trkpt><trkpt lat="42.3009507" lon="13.7493414"><ele>427.0</ele><time>2026-05-03T09:14:46.305Z</time></trkpt><trkpt lat="42.301059" lon="13.7493198"><ele>431.0</ele><time>2026-05-03T09:14:47.305Z</time></trkpt><trkpt lat="42.3011512" lon="13.7492946"><ele>434.99999999999994</ele><time>2026-05-03T09:14:48.304Z</time></trkpt><trkpt lat="42.3012422" lon="13.7492563"><ele>439.0</ele><time>2026-05-03T09:14:49.305Z</time></trkpt><trkpt lat="42.3013305" lon="13.7492162"><ele>443.0</ele><time>2026-05-03T09:14:50.305Z</time></trkpt><trkpt lat="42.3013917" lon="13.7491679"><ele>441.2857142857143</ele><time>2026-05-03T09:14:51.3Z</time></trkpt><trkpt lat="42.3014371" lon="13.7490923"><ele>439.57142857142856</ele><time>2026-05-03T09:14:52.316Z</time></trkpt><trkpt lat="42.3014739" lon="13.7490188"><ele>437.8571428571429</ele><time>2026-05-03T09:14:53.312Z</time></trkpt><trkpt lat="42.301511" lon="13.7489426"><ele>436.1428571428571</ele><time>2026-05-03T09:14:54.315Z</time></trkpt><trkpt lat="42.3015447" lon="13.7488628"><ele>434.4285714285714</ele><time>2026-05-03T09:14:55.316Z</time></trkpt><trkpt lat="42.301583" lon="13.7487821"><ele>432.7142857142857</ele><time>2026-05-03T09:14:56.313Z</time></trkpt><trkpt lat="42.301627" lon="13.7487045"><ele>431.0</ele><time>2026-05-03T09:14:57.316Z</time></trkpt><trkpt lat="42.3016814" lon="13.7486434"><ele>430.99999999999994</ele><time>2026-05-03T09:14:58.316Z</time></trkpt><trkpt lat="42.3017358" lon="13.7485814"><ele>431.0</ele><time>2026-05-03T09:14:59.311Z</time></trkpt><trkpt lat="42.3017966" lon="13.7485179"><ele>431.0</ele><time>2026-05-03T09:15:00.311Z</time></trkpt><trkpt lat="42.3018528" lon="13.7484502"><ele>431.0</ele><time>2026-05-03T09:15:01.313Z</time></trkpt><trkpt lat="42.3019177" lon="13.7483765"><ele>430.99999999999994</ele><time>2026-05-03T09:15:02.311Z</time></trkpt><trkpt lat="42.3020074" lon="13.7483142"><ele>431.0</ele><time>2026-05-03T09:15:03.313Z</time></trkpt><trkpt lat="42.3020994" lon="13.7482575"><ele>433.7142857142857</ele><time>2026-05-03T09:15:04.314Z</time></trkpt><trkpt lat="42.3021822" lon="13.7482015"><ele>436.42857142857144</ele><time>2026-05-03T09:15:05.314Z</time></trkpt><trkpt lat="42.3022447" lon="13.7481453"><ele>439.14285714285717</ele><time>2026-05-03T09:15:06.313Z</time></trkpt><trkpt lat="42.3022999" lon="13.7480916"><ele>441.8571428571429</ele><time>2026-05-03T09:15:07.322Z</time></trkpt><trkpt lat="42.302358" lon="13.748043"><ele>444.57142857142856</ele><time>2026-05-03T09:15:08.313Z</time></trkpt><trkpt lat="42.3024216" lon="13.7480068"><ele>447.28571428571433</ele><time>2026-05-03T09:15:09.315Z</time></trkpt><trkpt lat="42.3024853" lon="13.7479673"><ele>450.00000000000006</ele><time>2026-05-03T09:15:10.313Z</time></trkpt><trkpt lat="42.3025558" lon="13.7479324"><ele>450.00000000000006</ele><time>2026-05-03T09:15:11.314Z</time></trkpt><trkpt lat="42.3026328" lon="13.7478993"><ele>450.0</ele><time>2026-05-03T09:15:12.317Z</time></trkpt><trkpt lat="42.3027025" lon="13.747878"><ele>450.00000000000006</ele><time>2026-05-03T09:15:13.316Z</time></trkpt><trkpt lat="42.3027639" lon="13.7478524"><ele>450.00000000000006</ele><time>2026-05-03T09:15:14.315Z</time></trkpt><trkpt lat="42.3028369" lon="13.7478398"><ele>450.0</ele><time>2026-05-03T09:15:15.314Z</time></trkpt><trkpt lat="42.3029146" lon="13.7478449"><ele>450.00000000000006</ele><time>2026-05-03T09:15:16.316Z</time></trkpt><trkpt lat="42.3029895" lon="13.7478605"><ele>450.00000000000006</ele><time>2026-05-03T09:15:17.313Z</time></trkpt><trkpt lat="42.3030722" lon="13.7478747"><ele>451.0</ele><time>2026-05-03T09:15:18.315Z</time></trkpt><trkpt lat="42.3031523" lon="13.7478882"><ele>452.0</ele><time>2026-05-03T09:15:19.319Z</time></trkpt><trkpt lat="42.303234" lon="13.7479093"><ele>453.0</ele><time>2026-05-03T09:15:20.318Z</time></trkpt><trkpt lat="42.3033203" lon="13.7479357"><ele>454.0</ele><time>2026-05-03T09:15:21.317Z</time></trkpt><trkpt lat="42.303407" lon="13.747944"><ele>455.0</ele><time>2026-05-03T09:15:22.321Z</time></trkpt><trkpt lat="42.3034949" lon="13.7479502"><ele>456.0</ele><time>2026-05-03T09:15:23.313Z</time></trkpt><trkpt lat="42.3035886" lon="13.7479747"><ele>456.0</ele><time>2026-05-03T09:15:24.319Z</time></trkpt><trkpt lat="42.303682" lon="13.7479978"><ele>456.0</ele><time>2026-05-03T09:15:25.315Z</time></trkpt><trkpt lat="42.3037668" lon="13.7480158"><ele>456.0</ele><time>2026-05-03T09:15:26.312Z</time></trkpt><trkpt lat="42.3038432" lon="13.7480235"><ele>456.0</ele><time>2026-05-03T09:15:27.318Z</time></trkpt><trkpt lat="42.303929" lon="13.7480491"><ele>456.0</ele><time>2026-05-03T09:15:28.316Z</time></trkpt><trkpt lat="42.3040139" lon="13.7480749"><ele>456.0</ele><time>2026-05-03T09:15:29.31Z</time></trkpt><trkpt lat="42.3040955" lon="13.7481106"><ele>459.20000000000005</ele><time>2026-05-03T09:15:30.315Z</time></trkpt><trkpt lat="42.3041822" lon="13.7481663"><ele>462.40000000000003</ele><time>2026-05-03T09:15:31.32Z</time></trkpt><trkpt lat="42.3042787" lon="13.7482313"><ele>465.6</ele><time>2026-05-03T09:15:32.315Z</time></trkpt><trkpt lat="42.3043816" lon="13.7482936"><ele>468.8</ele><time>2026-05-03T09:15:33.317Z</time></trkpt><trkpt lat="42.3044773" lon="13.7483419"><ele>472.0</ele><time>2026-05-03T09:15:34.313Z</time></trkpt><trkpt lat="42.3045735" lon="13.7483777"><ele>472.00000000000006</ele><time>2026-05-03T09:15:35.316Z</time></trkpt><trkpt lat="42.3046715" lon="13.7484"><ele>472.0</ele><time>2026-05-03T09:15:36.312Z</time></trkpt><trkpt lat="42.3047541" lon="13.7483878"><ele>472.0</ele><time>2026-05-03T09:15:37.31Z</time></trkpt><trkpt lat="42.3048188" lon="13.7483624"><ele>472.0</ele><time>2026-05-03T09:15:38.319Z</time></trkpt><trkpt lat="42.3048878" lon="13.7483306"><ele>472.00000000000006</ele><time>2026-05-03T09:15:39.313Z</time></trkpt><trkpt lat="42.3049548" lon="13.748304"><ele>472.0</ele><time>2026-05-03T09:15:40.315Z</time></trkpt><trkpt lat="42.3050395" lon="13.7483037"><ele>475.0</ele><time>2026-05-03T09:15:41.319Z</time></trkpt><trkpt lat="42.3051081" lon="13.7483212"><ele>478.00000000000006</ele><time>2026-05-03T09:15:42.314Z</time></trkpt><trkpt lat="42.3052006" lon="13.7484061"><ele>481.00000000000006</ele><time>2026-05-03T09:15:44.319Z</time></trkpt><trkpt lat="42.3053068" lon="13.7484759"><ele>484.0</ele><time>2026-05-03T09:15:46.32Z</time></trkpt><trkpt lat="42.3053743" lon="13.748486"><ele>487.0</ele><time>2026-05-03T09:15:47.321Z</time></trkpt><trkpt lat="42.3054826" lon="13.7484843"><ele>487.00000000000006</ele><time>2026-05-03T09:15:49.324Z</time></trkpt><trkpt lat="42.3055611" lon="13.7484838"><ele>487.0</ele><time>2026-05-03T09:15:50.323Z</time></trkpt><trkpt lat="42.3056432" lon="13.7484715"><ele>487.0</ele><time>2026-05-03T09:15:51.329Z</time></trkpt><trkpt lat="42.3057164" lon="13.7484621"><ele>487.0</ele><time>2026-05-03T09:15:52.325Z</time></trkpt><trkpt lat="42.3057853" lon="13.7484273"><ele>487.00000000000006</ele><time>2026-05-03T09:15:53.32Z</time></trkpt><trkpt lat="42.3058573" lon="13.7483841"><ele>487.0</ele><time>2026-05-03T09:15:54.323Z</time></trkpt><trkpt lat="42.305918" lon="13.7483352"><ele>488.00000000000006</ele><time>2026-05-03T09:15:55.323Z</time></trkpt><trkpt lat="42.3059859" lon="13.7482871"><ele>489.0</ele><time>2026-05-03T09:15:56.322Z</time></trkpt><trkpt lat="42.3060563" lon="13.7482458"><ele>490.0</ele><time>2026-05-03T09:15:57.324Z</time></trkpt><trkpt lat="42.3061383" lon="13.7482122"><ele>491.0</ele><time>2026-05-03T09:15:58.322Z</time></trkpt><trkpt lat="42.3062223" lon="13.7481871"><ele>492.00000000000006</ele><time>2026-05-03T09:15:59.322Z</time></trkpt><trkpt lat="42.3063038" lon="13.7481548"><ele>493.0</ele><time>2026-05-03T09:16:00.32Z</time></trkpt><trkpt lat="42.306383" lon="13.7481185"><ele>492.50000000000006</ele><time>2026-05-03T09:16:01.323Z</time></trkpt><trkpt lat="42.3064635" lon="13.7480825"><ele>492.0</ele><time>2026-05-03T09:16:02.322Z</time></trkpt><trkpt lat="42.3065424" lon="13.748035"><ele>491.5</ele><time>2026-05-03T09:16:03.318Z</time></trkpt><trkpt lat="42.3066341" lon="13.7479928"><ele>491.0</ele><time>2026-05-03T09:16:04.321Z</time></trkpt><trkpt lat="42.3067254" lon="13.7479555"><ele>490.50000000000006</ele><time>2026-05-03T09:16:05.317Z</time></trkpt><trkpt lat="42.3068072" lon="13.7479316"><ele>490.0</ele><time>2026-05-03T09:16:06.316Z</time></trkpt><trkpt lat="42.3068898" lon="13.7479239"><ele>490.00000000000006</ele><time>2026-05-03T09:16:07.318Z</time></trkpt><trkpt lat="42.3069828" lon="13.7479166"><ele>490.0</ele><time>2026-05-03T09:16:08.318Z</time></trkpt><trkpt lat="42.3070613" lon="13.7478996"><ele>490.0</ele><time>2026-05-03T09:16:09.331Z</time></trkpt><trkpt lat="42.3071277" lon="13.7478847"><ele>490.0</ele><time>2026-05-03T09:16:10.321Z</time></trkpt><trkpt lat="42.3072036" lon="13.7478862"><ele>490.00000000000006</ele><time>2026-05-03T09:16:11.317Z</time></trkpt><trkpt lat="42.3072839" lon="13.747896"><ele>490.0</ele><time>2026-05-03T09:16:12.323Z</time></trkpt><trkpt lat="42.3073695" lon="13.7479009"><ele>489.33333333333337</ele><time>2026-05-03T09:16:13.32Z</time></trkpt><trkpt lat="42.3074528" lon="13.7478927"><ele>488.6666666666667</ele><time>2026-05-03T09:16:14.32Z</time></trkpt><trkpt lat="42.3075333" lon="13.7478897"><ele>488.0</ele><time>2026-05-03T09:16:15.317Z</time></trkpt><trkpt lat="42.3076178" lon="13.7478868"><ele>487.33333333333337</ele><time>2026-05-03T09:16:16.318Z</time></trkpt><trkpt lat="42.3077043" lon="13.7478826"><ele>486.6666666666667</ele><time>2026-05-03T09:16:17.32Z</time></trkpt><trkpt lat="42.3077874" lon="13.7478796"><ele>486.0</ele><time>2026-05-03T09:16:18.319Z</time></trkpt><trkpt lat="42.3078769" lon="13.7478742"><ele>486.0</ele><time>2026-05-03T09:16:19.319Z</time></trkpt><trkpt lat="42.3079643" lon="13.7478728"><ele>486.0</ele><time>2026-05-03T09:16:20.318Z</time></trkpt><trkpt lat="42.3080517" lon="13.7478677"><ele>486.0</ele><time>2026-05-03T09:16:21.322Z</time></trkpt><trkpt lat="42.3081356" lon="13.7478585"><ele>486.0</ele><time>2026-05-03T09:16:22.321Z</time></trkpt><trkpt lat="42.308221" lon="13.7478549"><ele>486.0</ele><time>2026-05-03T09:16:23.32Z</time></trkpt><trkpt lat="42.3083052" lon="13.7478258"><ele>486.0</ele><time>2026-05-03T09:16:24.327Z</time></trkpt><trkpt lat="42.3083847" lon="13.7477896"><ele>486.1666666666667</ele><time>2026-05-03T09:16:25.321Z</time></trkpt><trkpt lat="42.3084539" lon="13.7477685"><ele>486.33333333333337</ele><time>2026-05-03T09:16:26.323Z</time></trkpt><trkpt lat="42.3085702" lon="13.7477654"><ele>486.5</ele><time>2026-05-03T09:16:28.325Z</time></trkpt><trkpt lat="42.308641" lon="13.7477787"><ele>486.6666666666667</ele><time>2026-05-03T09:16:29.323Z</time></trkpt><trkpt lat="42.3087128" lon="13.747774"><ele>486.83333333333337</ele><time>2026-05-03T09:16:30.328Z</time></trkpt><trkpt lat="42.3087834" lon="13.7477679"><ele>487.0</ele><time>2026-05-03T09:16:31.326Z</time></trkpt><trkpt lat="42.3088503" lon="13.7477545"><ele>488.6</ele><time>2026-05-03T09:16:32.321Z</time></trkpt><trkpt lat="42.3089428" lon="13.7476873"><ele>490.20000000000005</ele><time>2026-05-03T09:16:34.318Z</time></trkpt><trkpt lat="42.3089698" lon="13.7475174"><ele>491.8</ele><time>2026-05-03T09:16:36.323Z</time></trkpt><trkpt lat="42.308976" lon="13.7474005"><ele>493.4</ele><time>2026-05-03T09:16:37.318Z</time></trkpt><trkpt lat="42.3089964" lon="13.7472872"><ele>495.0</ele><time>2026-05-03T09:16:38.315Z</time></trkpt><trkpt lat="42.3090359" lon="13.747196"><ele>495.0</ele><time>2026-05-03T09:16:39.313Z</time></trkpt><trkpt lat="42.309093" lon="13.7471106"><ele>495.0</ele><time>2026-05-03T09:16:40.34Z</time></trkpt><trkpt lat="42.309149" lon="13.7470318"><ele>495.0</ele><time>2026-05-03T09:16:41.32Z</time></trkpt><trkpt lat="42.3091968" lon="13.7469448"><ele>495.0</ele><time>2026-05-03T09:16:42.318Z</time></trkpt><trkpt lat="42.3092461" lon="13.7468577"><ele>495.0</ele><time>2026-05-03T09:16:43.305Z</time></trkpt><trkpt lat="42.3092994" lon="13.7467697"><ele>495.0</ele><time>2026-05-03T09:16:44.318Z</time></trkpt><trkpt lat="42.3093534" lon="13.7466952"><ele>498.5</ele><time>2026-05-03T09:16:45.318Z</time></trkpt><trkpt lat="42.3094027" lon="13.7466138"><ele>502.0</ele><time>2026-05-03T09:16:46.313Z</time></trkpt><trkpt lat="42.3094524" lon="13.7465374"><ele>505.5</ele><time>2026-05-03T09:16:47.316Z</time></trkpt><trkpt lat="42.309505" lon="13.7464728"><ele>509.0</ele><time>2026-05-03T09:16:48.319Z</time></trkpt><trkpt lat="42.3095985" lon="13.7463997"><ele>512.5</ele><time>2026-05-03T09:16:50.313Z</time></trkpt><trkpt lat="42.3096847" lon="13.7463872"><ele>516.0</ele><time>2026-05-03T09:16:53.315Z</time></trkpt><trkpt lat="42.3097648" lon="13.7464807"><ele>516.0</ele><time>2026-05-03T09:16:55.323Z</time></trkpt><trkpt lat="42.309821" lon="13.746528"><ele>516.0</ele><time>2026-05-03T09:16:56.322Z</time></trkpt><trkpt lat="42.3098852" lon="13.7465802"><ele>516.0</ele><time>2026-05-03T09:16:57.33Z</time></trkpt><trkpt lat="42.309946" lon="13.7466318"><ele>516.0</ele><time>2026-05-03T09:16:58.322Z</time></trkpt><trkpt lat="42.3100443" lon="13.74671"><ele>516.0</ele><time>2026-05-03T09:17:00.325Z</time></trkpt><trkpt lat="42.3100983" lon="13.746761"><ele>516.0</ele><time>2026-05-03T09:17:01.328Z</time></trkpt><trkpt lat="42.310158" lon="13.7468055"><ele>515.9999999999999</ele><time>2026-05-03T09:17:02.323Z</time></trkpt><trkpt lat="42.3102323" lon="13.7468422"><ele>516.0</ele><time>2026-05-03T09:17:03.326Z</time></trkpt><trkpt lat="42.3103037" lon="13.7468832"><ele>516.0</ele><time>2026-05-03T09:17:04.324Z</time></trkpt><trkpt lat="42.3103656" lon="13.7469167"><ele>516.0</ele><time>2026-05-03T09:17:05.324Z</time></trkpt><trkpt lat="42.3104286" lon="13.7469414"><ele>516.0</ele><time>2026-05-03T09:17:06.324Z</time></trkpt><trkpt lat="42.3104975" lon="13.7469729"><ele>515.9999999999999</ele><time>2026-05-03T09:17:07.326Z</time></trkpt><trkpt lat="42.3105716" lon="13.7470111"><ele>516.0</ele><time>2026-05-03T09:17:08.327Z</time></trkpt><trkpt lat="42.3106557" lon="13.7470556"><ele>512.5</ele><time>2026-05-03T09:17:09.324Z</time></trkpt><trkpt lat="42.3107302" lon="13.7470907"><ele>509.0</ele><time>2026-05-03T09:17:10.337Z</time></trkpt><trkpt lat="42.3108092" lon="13.7471294"><ele>505.5</ele><time>2026-05-03T09:17:11.323Z</time></trkpt><trkpt lat="42.3108842" lon="13.7471684"><ele>502.0</ele><time>2026-05-03T09:17:12.321Z</time></trkpt><trkpt lat="42.3109565" lon="13.7471989"><ele>498.5</ele><time>2026-05-03T09:17:13.328Z</time></trkpt><trkpt lat="42.3110241" lon="13.7472281"><ele>495.0</ele><time>2026-05-03T09:17:14.326Z</time></trkpt><trkpt lat="42.3111025" lon="13.7472661"><ele>495.0</ele><time>2026-05-03T09:17:15.322Z</time></trkpt><trkpt lat="42.3111861" lon="13.7473161"><ele>495.0</ele><time>2026-05-03T09:17:16.323Z</time></trkpt><trkpt lat="42.3112849" lon="13.747363"><ele>495.0</ele><time>2026-05-03T09:17:17.322Z</time></trkpt><trkpt lat="42.3113781" lon="13.7474108"><ele>495.0</ele><time>2026-05-03T09:17:18.326Z</time></trkpt><trkpt lat="42.3114609" lon="13.7474547"><ele>495.0</ele><time>2026-05-03T09:17:19.328Z</time></trkpt><trkpt lat="42.3115596" lon="13.7475042"><ele>497.0</ele><time>2026-05-03T09:17:20.326Z</time></trkpt><trkpt lat="42.311658" lon="13.7475586"><ele>499.0</ele><time>2026-05-03T09:17:21.327Z</time></trkpt><trkpt lat="42.311744" lon="13.7476035"><ele>501.0</ele><time>2026-05-03T09:17:22.328Z</time></trkpt><trkpt lat="42.3118344" lon="13.7476627"><ele>503.0</ele><time>2026-05-03T09:17:23.323Z</time></trkpt><trkpt lat="42.3119182" lon="13.7477033"><ele>505.0</ele><time>2026-05-03T09:17:24.326Z</time></trkpt><trkpt lat="42.3119853" lon="13.7477413"><ele>500.1666666666667</ele><time>2026-05-03T09:17:25.324Z</time></trkpt><trkpt lat="42.3120714" lon="13.747781"><ele>495.33333333333337</ele><time>2026-05-03T09:17:26.325Z</time></trkpt><trkpt lat="42.3121541" lon="13.747814"><ele>490.5</ele><time>2026-05-03T09:17:27.326Z</time></trkpt><trkpt lat="42.3122274" lon="13.7478499"><ele>485.66666666666663</ele><time>2026-05-03T09:17:28.326Z</time></trkpt><trkpt lat="42.3122867" lon="13.7478842"><ele>480.8333333333333</ele><time>2026-05-03T09:17:29.326Z</time></trkpt><trkpt lat="42.3123686" lon="13.7479258"><ele>476.0</ele><time>2026-05-03T09:17:30.325Z</time></trkpt><trkpt lat="42.3124529" lon="13.7479736"><ele>475.66666666666663</ele><time>2026-05-03T09:17:31.327Z</time></trkpt><trkpt lat="42.3125372" lon="13.7480161"><ele>475.3333333333333</ele><time>2026-05-03T09:17:32.323Z</time></trkpt><trkpt lat="42.3126139" lon="13.7480573"><ele>475.0</ele><time>2026-05-03T09:17:33.322Z</time></trkpt><trkpt lat="42.3126848" lon="13.7480969"><ele>474.66666666666663</ele><time>2026-05-03T09:17:34.321Z</time></trkpt><trkpt lat="42.3127732" lon="13.7481428"><ele>474.3333333333333</ele><time>2026-05-03T09:17:35.326Z</time></trkpt><trkpt lat="42.3128643" lon="13.7481909"><ele>474.0</ele><time>2026-05-03T09:17:36.326Z</time></trkpt><trkpt lat="42.3129532" lon="13.7482465"><ele>474.0</ele><time>2026-05-03T09:17:37.326Z</time></trkpt><trkpt lat="42.3130351" lon="13.7482959"><ele>474.0</ele><time>2026-05-03T09:17:38.325Z</time></trkpt><trkpt lat="42.3131176" lon="13.7483352"><ele>474.0</ele><time>2026-05-03T09:17:39.322Z</time></trkpt><trkpt lat="42.3132181" lon="13.7483784"><ele>474.0</ele><time>2026-05-03T09:17:40.321Z</time></trkpt><trkpt lat="42.3133204" lon="13.748417"><ele>474.0</ele><time>2026-05-03T09:17:41.337Z</time></trkpt><trkpt lat="42.313411" lon="13.7484558"><ele>473.6666666666667</ele><time>2026-05-03T09:17:42.322Z</time></trkpt><trkpt lat="42.3134955" lon="13.7485062"><ele>473.33333333333337</ele><time>2026-05-03T09:17:43.33Z</time></trkpt><trkpt lat="42.3135785" lon="13.7485486"><ele>473.0</ele><time>2026-05-03T09:17:44.326Z</time></trkpt><trkpt lat="42.3136493" lon="13.7485895"><ele>472.6666666666667</ele><time>2026-05-03T09:17:45.324Z</time></trkpt><trkpt lat="42.3137202" lon="13.7486056"><ele>472.33333333333337</ele><time>2026-05-03T09:17:46.32Z</time></trkpt><trkpt lat="42.3137991" lon="13.7485984"><ele>472.0</ele><time>2026-05-03T09:17:47.328Z</time></trkpt><trkpt lat="42.3139016" lon="13.7485846"><ele>467.40000000000003</ele><time>2026-05-03T09:17:48.331Z</time></trkpt><trkpt lat="42.3139929" lon="13.748577"><ele>462.80000000000007</ele><time>2026-05-03T09:17:49.33Z</time></trkpt><trkpt lat="42.3140818" lon="13.7485792"><ele>458.2</ele><time>2026-05-03T09:17:50.335Z</time></trkpt><trkpt lat="42.3141736" lon="13.7485781"><ele>453.6</ele><time>2026-05-03T09:17:51.338Z</time></trkpt><trkpt lat="42.31426" lon="13.7485872"><ele>449.0</ele><time>2026-05-03T09:17:52.334Z</time></trkpt><trkpt lat="42.3143548" lon="13.7486077"><ele>448.99999999999994</ele><time>2026-05-03T09:17:53.33Z</time></trkpt><trkpt lat="42.314439" lon="13.7486146"><ele>449.0</ele><time>2026-05-03T09:17:54.334Z</time></trkpt><trkpt lat="42.3145247" lon="13.7486072"><ele>449.0</ele><time>2026-05-03T09:17:55.327Z</time></trkpt><trkpt lat="42.3146072" lon="13.7485967"><ele>449.0</ele><time>2026-05-03T09:17:56.336Z</time></trkpt><trkpt lat="42.3146837" lon="13.7485933"><ele>448.99999999999994</ele><time>2026-05-03T09:17:57.332Z</time></trkpt><trkpt lat="42.3147568" lon="13.748594"><ele>449.0</ele><time>2026-05-03T09:17:58.33Z</time></trkpt><trkpt lat="42.3148501" lon="13.7486158"><ele>448.79999999999995</ele><time>2026-05-03T09:17:59.328Z</time></trkpt><trkpt lat="42.3149398" lon="13.748617"><ele>448.59999999999997</ele><time>2026-05-03T09:18:00.333Z</time></trkpt><trkpt lat="42.3150244" lon="13.7486093"><ele>448.4</ele><time>2026-05-03T09:18:01.333Z</time></trkpt><trkpt lat="42.3151182" lon="13.7486098"><ele>448.2</ele><time>2026-05-03T09:18:02.333Z</time></trkpt><trkpt lat="42.315219" lon="13.7486191"><ele>448.0</ele><time>2026-05-03T09:18:03.33Z</time></trkpt><trkpt lat="42.3153254" lon="13.7486234"><ele>448.00000000000006</ele><time>2026-05-03T09:18:04.329Z</time></trkpt><trkpt lat="42.3154048" lon="13.7486297"><ele>448.0</ele><time>2026-05-03T09:18:05.335Z</time></trkpt><trkpt lat="42.3154905" lon="13.7486243"><ele>448.0</ele><time>2026-05-03T09:18:06.334Z</time></trkpt><trkpt lat="42.3155764" lon="13.7486142"><ele>448.0</ele><time>2026-05-03T09:18:07.336Z</time></trkpt><trkpt lat="42.3156578" lon="13.7486095"><ele>448.00000000000006</ele><time>2026-05-03T09:18:08.323Z</time></trkpt><trkpt lat="42.3157321" lon="13.7485848"><ele>448.0</ele><time>2026-05-03T09:18:09.332Z</time></trkpt><trkpt lat="42.3158062" lon="13.7485735"><ele>448.50000000000006</ele><time>2026-05-03T09:18:10.328Z</time></trkpt><trkpt lat="42.3158855" lon="13.7486062"><ele>449.0</ele><time>2026-05-03T09:18:11.326Z</time></trkpt><trkpt lat="42.3160022" lon="13.7486305"><ele>449.5</ele><time>2026-05-03T09:18:12.343Z</time></trkpt><trkpt lat="42.3160986" lon="13.748646"><ele>450.0</ele><time>2026-05-03T09:18:13.327Z</time></trkpt><trkpt lat="42.3161757" lon="13.7486478"><ele>450.50000000000006</ele><time>2026-05-03T09:18:14.33Z</time></trkpt><trkpt lat="42.3162456" lon="13.7486448"><ele>451.0</ele><time>2026-05-03T09:18:15.33Z</time></trkpt><trkpt lat="42.3163149" lon="13.7486473"><ele>451.00000000000006</ele><time>2026-05-03T09:18:16.333Z</time></trkpt><trkpt lat="42.3163812" lon="13.7486583"><ele>451.0</ele><time>2026-05-03T09:18:17.328Z</time></trkpt><trkpt lat="42.3164606" lon="13.7486963"><ele>451.0</ele><time>2026-05-03T09:18:18.328Z</time></trkpt><trkpt lat="42.3165231" lon="13.7487434"><ele>451.0</ele><time>2026-05-03T09:18:19.333Z</time></trkpt><trkpt lat="42.3165865" lon="13.7487901"><ele>451.00000000000006</ele><time>2026-05-03T09:18:20.334Z</time></trkpt><trkpt lat="42.3166454" lon="13.7488608"><ele>451.0</ele><time>2026-05-03T09:18:21.332Z</time></trkpt><trkpt lat="42.3167019" lon="13.7489595"><ele>450.33333333333337</ele><time>2026-05-03T09:18:22.333Z</time></trkpt><trkpt lat="42.3167618" lon="13.7490578"><ele>449.6666666666667</ele><time>2026-05-03T09:18:23.335Z</time></trkpt><trkpt lat="42.3168169" lon="13.7491436"><ele>449.0</ele><time>2026-05-03T09:18:24.333Z</time></trkpt><trkpt lat="42.3168707" lon="13.7492195"><ele>448.33333333333337</ele><time>2026-05-03T09:18:25.337Z</time></trkpt><trkpt lat="42.3169295" lon="13.7492924"><ele>447.6666666666667</ele><time>2026-05-03T09:18:26.332Z</time></trkpt><trkpt lat="42.316985" lon="13.7493456"><ele>447.0</ele><time>2026-05-03T09:18:27.332Z</time></trkpt><trkpt lat="42.3170497" lon="13.7493903"><ele>447.0</ele><time>2026-05-03T09:18:28.332Z</time></trkpt><trkpt lat="42.3171141" lon="13.7494338"><ele>447.00000000000006</ele><time>2026-05-03T09:18:29.324Z</time></trkpt><trkpt lat="42.3171946" lon="13.7494962"><ele>447.00000000000006</ele><time>2026-05-03T09:18:30.326Z</time></trkpt><trkpt lat="42.3172904" lon="13.7495688"><ele>447.0</ele><time>2026-05-03T09:18:31.323Z</time></trkpt><trkpt lat="42.3173811" lon="13.7496479"><ele>447.0</ele><time>2026-05-03T09:18:32.325Z</time></trkpt><trkpt lat="42.3174702" lon="13.7497199"><ele>448.0</ele><time>2026-05-03T09:18:33.329Z</time></trkpt><trkpt lat="42.3175458" lon="13.7497664"><ele>449.0</ele><time>2026-05-03T09:18:34.318Z</time></trkpt><trkpt lat="42.3176206" lon="13.749784"><ele>450.0</ele><time>2026-05-03T09:18:35.322Z</time></trkpt><trkpt lat="42.3176921" lon="13.7498031"><ele>451.0</ele><time>2026-05-03T09:18:36.317Z</time></trkpt><trkpt lat="42.3177505" lon="13.7498739"><ele>452.0</ele><time>2026-05-03T09:18:37.311Z</time></trkpt><trkpt lat="42.3178199" lon="13.7499491"><ele>453.0</ele><time>2026-05-03T09:18:38.317Z</time></trkpt><trkpt lat="42.3178963" lon="13.7500071"><ele>453.0</ele><time>2026-05-03T09:18:39.324Z</time></trkpt><trkpt lat="42.3179673" lon="13.7500491"><ele>453.0</ele><time>2026-05-03T09:18:40.317Z</time></trkpt><trkpt lat="42.3180385" lon="13.7500915"><ele>453.0</ele><time>2026-05-03T09:18:41.32Z</time></trkpt><trkpt lat="42.318098" lon="13.7501268"><ele>453.0</ele><time>2026-05-03T09:18:42.326Z</time></trkpt><trkpt lat="42.3181996" lon="13.7501731"><ele>453.0</ele><time>2026-05-03T09:18:44.319Z</time></trkpt><trkpt lat="42.3182443" lon="13.7502333"><ele>453.0</ele><time>2026-05-03T09:18:46.317Z</time></trkpt><trkpt lat="42.3181919" lon="13.750369"><ele>452.59999999999997</ele><time>2026-05-03T09:18:48.32Z</time></trkpt><trkpt lat="42.3181168" lon="13.7504507"><ele>452.19999999999993</ele><time>2026-05-03T09:18:49.315Z</time></trkpt><trkpt lat="42.3180365" lon="13.7505432"><ele>451.8</ele><time>2026-05-03T09:18:50.31Z</time></trkpt><trkpt lat="42.31797" lon="13.7506395"><ele>451.4</ele><time>2026-05-03T09:18:51.317Z</time></trkpt><trkpt lat="42.3179277" lon="13.7507331"><ele>451.0</ele><time>2026-05-03T09:18:52.307Z</time></trkpt><trkpt lat="42.3178834" lon="13.7508309"><ele>449.6666666666667</ele><time>2026-05-03T09:18:53.316Z</time></trkpt><trkpt lat="42.3178315" lon="13.7509214"><ele>448.33333333333337</ele><time>2026-05-03T09:18:54.317Z</time></trkpt><trkpt lat="42.3177813" lon="13.7510127"><ele>447.0</ele><time>2026-05-03T09:18:55.318Z</time></trkpt><trkpt lat="42.317738" lon="13.7510957"><ele>445.66666666666663</ele><time>2026-05-03T09:18:56.314Z</time></trkpt><trkpt lat="42.3177046" lon="13.7511772"><ele>444.3333333333333</ele><time>2026-05-03T09:18:57.318Z</time></trkpt><trkpt lat="42.3176798" lon="13.7513274"><ele>443.0</ele><time>2026-05-03T09:18:59.313Z</time></trkpt><trkpt lat="42.3176544" lon="13.7514238"><ele>441.79999999999995</ele><time>2026-05-03T09:19:01.312Z</time></trkpt><trkpt lat="42.3176149" lon="13.7515262"><ele>440.59999999999997</ele><time>2026-05-03T09:19:05.306Z</time></trkpt><trkpt lat="42.3177366" lon="13.7515301"><ele>439.40000000000003</ele><time>2026-05-03T09:19:08.316Z</time></trkpt><trkpt lat="42.3178235" lon="13.7515198"><ele>438.20000000000005</ele><time>2026-05-03T09:19:09.317Z</time></trkpt><trkpt lat="42.3179167" lon="13.7515155"><ele>437.0</ele><time>2026-05-03T09:19:10.317Z</time></trkpt><trkpt lat="42.3179991" lon="13.7514904"><ele>437.49999999999994</ele><time>2026-05-03T09:19:11.31Z</time></trkpt><trkpt lat="42.3180876" lon="13.751448"><ele>438.0</ele><time>2026-05-03T09:19:12.316Z</time></trkpt><trkpt lat="42.3181784" lon="13.7514005"><ele>438.5</ele><time>2026-05-03T09:19:13.313Z</time></trkpt><trkpt lat="42.318271" lon="13.7513509"><ele>439.0</ele><time>2026-05-03T09:19:14.327Z</time></trkpt><trkpt lat="42.3183506" lon="13.7513204"><ele>439.49999999999994</ele><time>2026-05-03T09:19:15.312Z</time></trkpt><trkpt lat="42.3184207" lon="13.751295"><ele>440.0</ele><time>2026-05-03T09:19:16.313Z</time></trkpt><trkpt lat="42.3185233" lon="13.751259"><ele>440.0</ele><time>2026-05-03T09:19:18.311Z</time></trkpt><trkpt lat="42.318615" lon="13.7512606"><ele>440.0</ele><time>2026-05-03T09:19:20.318Z</time></trkpt><trkpt lat="42.3187357" lon="13.7512843"><ele>440.0</ele><time>2026-05-03T09:19:22.317Z</time></trkpt><trkpt lat="42.3188507" lon="13.7513077"><ele>440.0</ele><time>2026-05-03T09:19:24.318Z</time></trkpt><trkpt lat="42.3189198" lon="13.7513224"><ele>440.0</ele><time>2026-05-03T09:19:25.312Z</time></trkpt><trkpt lat="42.3190441" lon="13.7513424"><ele>440.99999999999994</ele><time>2026-05-03T09:19:27.32Z</time></trkpt><trkpt lat="42.3191369" lon="13.7513699"><ele>442.0</ele><time>2026-05-03T09:19:29.318Z</time></trkpt><trkpt lat="42.3191926" lon="13.7514886"><ele>443.0</ele><time>2026-05-03T09:19:31.309Z</time></trkpt><trkpt lat="42.3192194" lon="13.751587"><ele>444.0</ele><time>2026-05-03T09:19:32.324Z</time></trkpt><trkpt lat="42.3192487" lon="13.751688"><ele>444.99999999999994</ele><time>2026-05-03T09:19:33.319Z</time></trkpt><trkpt lat="42.3192795" lon="13.7517883"><ele>446.0</ele><time>2026-05-03T09:19:34.321Z</time></trkpt><trkpt lat="42.3193136" lon="13.7518855"><ele>443.8333333333333</ele><time>2026-05-03T09:19:35.319Z</time></trkpt><trkpt lat="42.3193556" lon="13.7519645"><ele>441.66666666666663</ele><time>2026-05-03T09:19:36.315Z</time></trkpt><trkpt lat="42.3194056" lon="13.7520456"><ele>439.5</ele><time>2026-05-03T09:19:37.316Z</time></trkpt><trkpt lat="42.3194543" lon="13.7521306"><ele>437.33333333333337</ele><time>2026-05-03T09:19:38.317Z</time></trkpt><trkpt lat="42.3194974" lon="13.7522215"><ele>435.1666666666667</ele><time>2026-05-03T09:19:39.318Z</time></trkpt><trkpt lat="42.319543" lon="13.752315"><ele>433.0</ele><time>2026-05-03T09:19:40.318Z</time></trkpt><trkpt lat="42.3195772" lon="13.7524222"><ele>433.00000000000006</ele><time>2026-05-03T09:19:41.318Z</time></trkpt><trkpt lat="42.3196092" lon="13.7525375"><ele>433.0</ele><time>2026-05-03T09:19:42.321Z</time></trkpt><trkpt lat="42.3196362" lon="13.7526463"><ele>433.0</ele><time>2026-05-03T09:19:43.321Z</time></trkpt><trkpt lat="42.3196569" lon="13.7527477"><ele>433.0</ele><time>2026-05-03T09:19:44.321Z</time></trkpt><trkpt lat="42.3196823" lon="13.752854"><ele>433.00000000000006</ele><time>2026-05-03T09:19:45.33Z</time></trkpt><trkpt lat="42.3197151" lon="13.7529779"><ele>433.0</ele><time>2026-05-03T09:19:46.324Z</time></trkpt><trkpt lat="42.3197549" lon="13.7531124"><ele>432.5</ele><time>2026-05-03T09:19:47.319Z</time></trkpt><trkpt lat="42.3197993" lon="13.7532543"><ele>432.0</ele><time>2026-05-03T09:19:48.318Z</time></trkpt><trkpt lat="42.3198421" lon="13.753425"><ele>431.5</ele><time>2026-05-03T09:19:49.319Z</time></trkpt><trkpt lat="42.3198866" lon="13.7535867"><ele>431.0</ele><time>2026-05-03T09:19:50.321Z</time></trkpt><trkpt lat="42.3199306" lon="13.7537308"><ele>431.0</ele><time>2026-05-03T09:19:51.315Z</time></trkpt><trkpt lat="42.3199707" lon="13.7538612"><ele>431.0</ele><time>2026-05-03T09:19:52.321Z</time></trkpt><trkpt lat="42.3200101" lon="13.7539842"><ele>431.0</ele><time>2026-05-03T09:19:53.319Z</time></trkpt><trkpt lat="42.3200373" lon="13.7540989"><ele>431.0</ele><time>2026-05-03T09:19:54.318Z</time></trkpt><trkpt lat="42.3200675" lon="13.7541986"><ele>431.0</ele><time>2026-05-03T09:19:55.318Z</time></trkpt><trkpt lat="42.3201007" lon="13.7542985"><ele>430.66666666666663</ele><time>2026-05-03T09:19:56.314Z</time></trkpt><trkpt lat="42.3201447" lon="13.7544029"><ele>430.3333333333333</ele><time>2026-05-03T09:19:57.319Z</time></trkpt><trkpt lat="42.3202044" lon="13.7545082"><ele>430.0</ele><time>2026-05-03T09:19:58.315Z</time></trkpt><trkpt lat="42.3202486" lon="13.75461"><ele>429.66666666666663</ele><time>2026-05-03T09:19:59.318Z</time></trkpt><trkpt lat="42.3202956" lon="13.7547006"><ele>429.3333333333333</ele><time>2026-05-03T09:20:00.317Z</time></trkpt><trkpt lat="42.3203274" lon="13.7547972"><ele>429.0</ele><time>2026-05-03T09:20:01.32Z</time></trkpt><trkpt lat="42.3203594" lon="13.7549089"><ele>429.0</ele><time>2026-05-03T09:20:02.318Z</time></trkpt><trkpt lat="42.3203998" lon="13.7550254"><ele>429.0</ele><time>2026-05-03T09:20:03.32Z</time></trkpt><trkpt lat="42.320427" lon="13.7551285"><ele>429.0</ele><time>2026-05-03T09:20:04.317Z</time></trkpt><trkpt lat="42.3204579" lon="13.7552276"><ele>429.0</ele><time>2026-05-03T09:20:05.314Z</time></trkpt><trkpt lat="42.3204894" lon="13.7553098"><ele>429.0</ele><time>2026-05-03T09:20:06.31Z</time></trkpt><trkpt lat="42.3205263" lon="13.7553871"><ele>429.0</ele><time>2026-05-03T09:20:07.314Z</time></trkpt><trkpt lat="42.3205987" lon="13.7554722"><ele>430.3333333333333</ele><time>2026-05-03T09:20:09.313Z</time></trkpt><trkpt lat="42.3206878" lon="13.7555428"><ele>431.66666666666663</ele><time>2026-05-03T09:20:11.311Z</time></trkpt><trkpt lat="42.3207858" lon="13.7556452"><ele>433.0</ele><time>2026-05-03T09:20:13.311Z</time></trkpt><trkpt lat="42.3208464" lon="13.7557037"><ele>434.3333333333333</ele><time>2026-05-03T09:20:14.312Z</time></trkpt><trkpt lat="42.3209002" lon="13.7557564"><ele>435.66666666666663</ele><time>2026-05-03T09:20:15.308Z</time></trkpt><trkpt lat="42.3209599" lon="13.7558014"><ele>437.0</ele><time>2026-05-03T09:20:16.321Z</time></trkpt><trkpt lat="42.3210282" lon="13.7558382"><ele>437.0</ele><time>2026-05-03T09:20:17.309Z</time></trkpt><trkpt lat="42.3211027" lon="13.7559008"><ele>437.00000000000006</ele><time>2026-05-03T09:20:18.304Z</time></trkpt><trkpt lat="42.3211824" lon="13.7559782"><ele>437.00000000000006</ele><time>2026-05-03T09:20:19.304Z</time></trkpt><trkpt lat="42.3212366" lon="13.756085"><ele>437.0</ele><time>2026-05-03T09:20:20.305Z</time></trkpt><trkpt lat="42.3213068" lon="13.7562059"><ele>437.0</ele><time>2026-05-03T09:20:21.316Z</time></trkpt><trkpt lat="42.3213798" lon="13.756317"><ele>439.5</ele><time>2026-05-03T09:20:22.312Z</time></trkpt><trkpt lat="42.321461" lon="13.7564148"><ele>442.0</ele><time>2026-05-03T09:20:23.307Z</time></trkpt><trkpt lat="42.3215525" lon="13.7565052"><ele>444.5</ele><time>2026-05-03T09:20:24.311Z</time></trkpt><trkpt lat="42.3216536" lon="13.7566179"><ele>447.0</ele><time>2026-05-03T09:20:25.315Z</time></trkpt><trkpt lat="42.3217603" lon="13.7567283"><ele>447.0</ele><time>2026-05-03T09:20:26.305Z</time></trkpt><trkpt lat="42.3218464" lon="13.7568163"><ele>447.00000000000006</ele><time>2026-05-03T09:20:27.303Z</time></trkpt><trkpt lat="42.321937" lon="13.7568733"><ele>447.00000000000006</ele><time>2026-05-03T09:20:28.307Z</time></trkpt><trkpt lat="42.3220313" lon="13.7569111"><ele>447.0</ele><time>2026-05-03T09:20:29.303Z</time></trkpt><trkpt lat="42.3221091" lon="13.7569264"><ele>447.0</ele><time>2026-05-03T09:20:30.308Z</time></trkpt><trkpt lat="42.3221808" lon="13.7569589"><ele>448.8333333333333</ele><time>2026-05-03T09:20:31.315Z</time></trkpt><trkpt lat="42.3222497" lon="13.7570131"><ele>450.66666666666663</ele><time>2026-05-03T09:20:32.308Z</time></trkpt><trkpt lat="42.3223093" lon="13.7570874"><ele>452.5</ele><time>2026-05-03T09:20:33.309Z</time></trkpt><trkpt lat="42.3223564" lon="13.7571793"><ele>454.3333333333333</ele><time>2026-05-03T09:20:34.309Z</time></trkpt><trkpt lat="42.3224107" lon="13.7572709"><ele>456.16666666666663</ele><time>2026-05-03T09:20:35.306Z</time></trkpt><trkpt lat="42.3224575" lon="13.7573446"><ele>458.0</ele><time>2026-05-03T09:20:36.308Z</time></trkpt><trkpt lat="42.3225036" lon="13.7574151"><ele>458.0</ele><time>2026-05-03T09:20:37.302Z</time></trkpt><trkpt lat="42.3225386" lon="13.7575026"><ele>457.99999999999994</ele><time>2026-05-03T09:20:38.307Z</time></trkpt><trkpt lat="42.3225717" lon="13.7576257"><ele>457.99999999999994</ele><time>2026-05-03T09:20:39.308Z</time></trkpt><trkpt lat="42.3226141" lon="13.7577636"><ele>458.0</ele><time>2026-05-03T09:20:40.309Z</time></trkpt><trkpt lat="42.3226516" lon="13.757897"><ele>458.0</ele><time>2026-05-03T09:20:41.306Z</time></trkpt><trkpt lat="42.3226857" lon="13.7579931"><ele>458.49999999999994</ele><time>2026-05-03T09:20:42.306Z</time></trkpt><trkpt lat="42.3227175" lon="13.7580753"><ele>459.0</ele><time>2026-05-03T09:20:43.305Z</time></trkpt><trkpt lat="42.3227684" lon="13.7581801"><ele>459.5</ele><time>2026-05-03T09:20:45.304Z</time></trkpt><trkpt lat="42.3228688" lon="13.7582224"><ele>460.0</ele><time>2026-05-03T09:20:47.315Z</time></trkpt><trkpt lat="42.3229337" lon="13.7582316"><ele>460.49999999999994</ele><time>2026-05-03T09:20:48.304Z</time></trkpt><trkpt lat="42.3230053" lon="13.7582357"><ele>461.0</ele><time>2026-05-03T09:20:49.302Z</time></trkpt><trkpt lat="42.3230869" lon="13.7582554"><ele>462.66666666666663</ele><time>2026-05-03T09:20:50.311Z</time></trkpt><trkpt lat="42.3231683" lon="13.7582866"><ele>464.3333333333333</ele><time>2026-05-03T09:20:51.309Z</time></trkpt><trkpt lat="42.3232483" lon="13.7583147"><ele>466.0</ele><time>2026-05-03T09:20:52.308Z</time></trkpt><trkpt lat="42.3233297" lon="13.7583504"><ele>467.66666666666663</ele><time>2026-05-03T09:20:53.307Z</time></trkpt><trkpt lat="42.3234112" lon="13.7583916"><ele>469.3333333333333</ele><time>2026-05-03T09:20:54.311Z</time></trkpt><trkpt lat="42.3235025" lon="13.7584264"><ele>471.0</ele><time>2026-05-03T09:20:55.303Z</time></trkpt><trkpt lat="42.3235874" lon="13.7584558"><ele>471.0</ele><time>2026-05-03T09:20:56.305Z</time></trkpt><trkpt lat="42.3236653" lon="13.7584989"><ele>471.0</ele><time>2026-05-03T09:20:57.305Z</time></trkpt><trkpt lat="42.3237457" lon="13.7585579"><ele>471.0</ele><time>2026-05-03T09:20:58.302Z</time></trkpt><trkpt lat="42.3238144" lon="13.7586239"><ele>471.0</ele><time>2026-05-03T09:20:59.303Z</time></trkpt><trkpt lat="42.3238752" lon="13.7587199"><ele>471.0</ele><time>2026-05-03T09:21:00.3Z</time></trkpt><trkpt lat="42.3239201" lon="13.7588149"><ele>471.0</ele><time>2026-05-03T09:21:01.305Z</time></trkpt><trkpt lat="42.3239466" lon="13.7589198"><ele>472.5</ele><time>2026-05-03T09:21:02.314Z</time></trkpt><trkpt lat="42.3239547" lon="13.7590286"><ele>474.0</ele><time>2026-05-03T09:21:03.306Z</time></trkpt><trkpt lat="42.3239716" lon="13.7591318"><ele>475.5</ele><time>2026-05-03T09:21:04.302Z</time></trkpt><trkpt lat="42.3239802" lon="13.7592266"><ele>477.0</ele><time>2026-05-03T09:21:05.296Z</time></trkpt><trkpt lat="42.3239835" lon="13.7593721"><ele>478.5</ele><time>2026-05-03T09:21:07.297Z</time></trkpt><trkpt lat="42.3240251" lon="13.7594925"><ele>480.0</ele><time>2026-05-03T09:21:09.303Z</time></trkpt><trkpt lat="42.3241248" lon="13.7595352"><ele>481.4</ele><time>2026-05-03T09:21:11.293Z</time></trkpt><trkpt lat="42.3242023" lon="13.7595284"><ele>482.8</ele><time>2026-05-03T09:21:12.292Z</time></trkpt><trkpt lat="42.3242723" lon="13.7595245"><ele>484.20000000000005</ele><time>2026-05-03T09:21:13.288Z</time></trkpt><trkpt lat="42.3243986" lon="13.7595176"><ele>485.6</ele><time>2026-05-03T09:21:15.293Z</time></trkpt><trkpt lat="42.3245102" lon="13.7595152"><ele>487.0</ele><time>2026-05-03T09:21:17.293Z</time></trkpt><trkpt lat="42.3246084" lon="13.7595139"><ele>487.0</ele><time>2026-05-03T09:21:19.294Z</time></trkpt><trkpt lat="42.3246686" lon="13.7594867"><ele>487.0</ele><time>2026-05-03T09:21:20.298Z</time></trkpt><trkpt lat="42.3247312" lon="13.7594353"><ele>487.0</ele><time>2026-05-03T09:21:21.298Z</time></trkpt><trkpt lat="42.3247831" lon="13.7593622"><ele>487.0</ele><time>2026-05-03T09:21:22.298Z</time></trkpt><trkpt lat="42.3248314" lon="13.7592739"><ele>487.0</ele><time>2026-05-03T09:21:23.298Z</time></trkpt><trkpt lat="42.3248629" lon="13.7591927"><ele>487.0</ele><time>2026-05-03T09:21:24.293Z</time></trkpt><trkpt lat="42.3248835" lon="13.7591022"><ele>487.0</ele><time>2026-05-03T09:21:25.289Z</time></trkpt><trkpt lat="42.3248946" lon="13.7590046"><ele>487.8</ele><time>2026-05-03T09:21:26.298Z</time></trkpt><trkpt lat="42.3249011" lon="13.7588526"><ele>488.6</ele><time>2026-05-03T09:21:28.303Z</time></trkpt><trkpt lat="42.3249423" lon="13.7587706"><ele>489.40000000000003</ele><time>2026-05-03T09:21:30.298Z</time></trkpt><trkpt lat="42.3249751" lon="13.7589401"><ele>490.20000000000005</ele><time>2026-05-03T09:21:33.303Z</time></trkpt><trkpt lat="42.3249669" lon="13.7590594"><ele>491.0</ele><time>2026-05-03T09:21:34.3Z</time></trkpt><trkpt lat="42.3249486" lon="13.7591655"><ele>490.99999999999994</ele><time>2026-05-03T09:21:35.293Z</time></trkpt><trkpt lat="42.32495" lon="13.7593058"><ele>491.0</ele><time>2026-05-03T09:21:37.31Z</time></trkpt><trkpt lat="42.3249624" lon="13.7594286"><ele>491.0</ele><time>2026-05-03T09:21:39.299Z</time></trkpt><trkpt lat="42.3250016" lon="13.7595453"><ele>491.0</ele><time>2026-05-03T09:21:41.305Z</time></trkpt><trkpt lat="42.3249985" lon="13.7596519"><ele>490.99999999999994</ele><time>2026-05-03T09:21:44.306Z</time></trkpt><trkpt lat="42.3249762" lon="13.7597328"><ele>491.0</ele><time>2026-05-03T09:21:47.297Z</time></trkpt><trkpt lat="42.3250523" lon="13.759744"><ele>491.66666666666663</ele><time>2026-05-03T10:05:43.3Z</time></trkpt><trkpt lat="42.3250716" lon="13.7596584"><ele>492.3333333333333</ele><time>2026-05-03T10:05:47.297Z</time></trkpt><trkpt lat="42.3251337" lon="13.7595946"><ele>493.0</ele><time>2026-05-03T10:06:06.296Z</time></trkpt><trkpt lat="42.325207" lon="13.7596266"><ele>493.66666666666663</ele><time>2026-05-03T10:06:10.298Z</time></trkpt><trkpt lat="42.3252444" lon="13.7597051"><ele>494.3333333333333</ele><time>2026-05-03T10:06:12.295Z</time></trkpt><trkpt lat="42.3252871" lon="13.7598228"><ele>495.0</ele><time>2026-05-03T10:06:14.297Z</time></trkpt><trkpt lat="42.3253242" lon="13.7599027"><ele>495.0</ele><time>2026-05-03T10:06:15.296Z</time></trkpt><trkpt lat="42.3253764" lon="13.7599914"><ele>495.0</ele><time>2026-05-03T10:06:16.296Z</time></trkpt><trkpt lat="42.3254318" lon="13.760067"><ele>495.0</ele><time>2026-05-03T10:06:17.297Z</time></trkpt><trkpt lat="42.3254703" lon="13.7601443"><ele>495.0</ele><time>2026-05-03T10:06:18.297Z</time></trkpt><trkpt lat="42.3255052" lon="13.7602231"><ele>495.0</ele><time>2026-05-03T10:06:19.296Z</time></trkpt><trkpt lat="42.3255759" lon="13.7603123"><ele>495.0</ele><time>2026-05-03T10:06:21.295Z</time></trkpt><trkpt lat="42.3256245" lon="13.760387"><ele>496.0</ele><time>2026-05-03T10:06:24.293Z</time></trkpt><trkpt lat="42.3256015" lon="13.7604934"><ele>497.0</ele><time>2026-05-03T10:06:26.29Z</time></trkpt><trkpt lat="42.3255213" lon="13.7605542"><ele>498.0</ele><time>2026-05-03T10:06:28.293Z</time></trkpt><trkpt lat="42.3254244" lon="13.7605591"><ele>499.0</ele><time>2026-05-03T10:06:30.295Z</time></trkpt><trkpt lat="42.3253378" lon="13.7605854"><ele>500.0</ele><time>2026-05-03T10:06:33.289Z</time></trkpt><trkpt lat="42.3252336" lon="13.7605739"><ele>499.99999999999994</ele><time>2026-05-03T10:06:55.297Z</time></trkpt><trkpt lat="42.3251645" lon="13.7605861"><ele>500.0</ele><time>2026-05-03T10:06:56.292Z</time></trkpt><trkpt lat="42.3250996" lon="13.76058"><ele>500.0</ele><time>2026-05-03T10:06:57.293Z</time></trkpt><trkpt lat="42.3250057" lon="13.7605525"><ele>500.0</ele><time>2026-05-03T10:06:59.289Z</time></trkpt><trkpt lat="42.3248955" lon="13.7605818"><ele>499.99999999999994</ele><time>2026-05-03T10:07:01.293Z</time></trkpt><trkpt lat="42.3248399" lon="13.7606404"><ele>500.0</ele><time>2026-05-03T10:07:02.295Z</time></trkpt><trkpt lat="42.3247907" lon="13.7607112"><ele>500.0</ele><time>2026-05-03T10:07:03.294Z</time></trkpt><trkpt lat="42.3247075" lon="13.7608252"><ele>500.0</ele><time>2026-05-03T10:07:05.291Z</time></trkpt><trkpt lat="42.3246482" lon="13.7608544"><ele>500.0</ele><time>2026-05-03T10:07:06.298Z</time></trkpt><trkpt lat="42.3245759" lon="13.7608824"><ele>500.0</ele><time>2026-05-03T10:07:07.294Z</time></trkpt><trkpt lat="42.3244879" lon="13.7609004"><ele>500.0</ele><time>2026-05-03T10:07:08.294Z</time></trkpt><trkpt lat="42.3243772" lon="13.7608941"><ele>500.0</ele><time>2026-05-03T10:07:09.31Z</time></trkpt><trkpt lat="42.3242658" lon="13.760888"><ele>500.0</ele><time>2026-05-03T10:07:10.303Z</time></trkpt><trkpt lat="42.3241488" lon="13.7608738"><ele>500.0</ele><time>2026-05-03T10:07:11.3Z</time></trkpt><trkpt lat="42.324041" lon="13.7608678"><ele>500.0</ele><time>2026-05-03T10:07:12.294Z</time></trkpt><trkpt lat="42.323956" lon="13.7608794"><ele>500.0</ele><time>2026-05-03T10:07:13.296Z</time></trkpt><trkpt lat="42.3238748" lon="13.7608622"><ele>499.8</ele><time>2026-05-03T10:07:14.299Z</time></trkpt><trkpt lat="42.3237861" lon="13.7608451"><ele>499.6</ele><time>2026-05-03T10:07:15.302Z</time></trkpt><trkpt lat="42.3236911" lon="13.7608329"><ele>499.4</ele><time>2026-05-03T10:07:16.299Z</time></trkpt><trkpt lat="42.3235925" lon="13.7608378"><ele>499.2</ele><time>2026-05-03T10:07:17.3Z</time></trkpt><trkpt lat="42.3234962" lon="13.7608445"><ele>499.0</ele><time>2026-05-03T10:07:18.309Z</time></trkpt><trkpt lat="42.3234057" lon="13.7608559"><ele>499.0</ele><time>2026-05-03T10:07:19.305Z</time></trkpt><trkpt lat="42.3233221" lon="13.7608681"><ele>499.0</ele><time>2026-05-03T10:07:20.307Z</time></trkpt><trkpt lat="42.3232269" lon="13.7608742"><ele>499.0</ele><time>2026-05-03T10:07:21.306Z</time></trkpt><trkpt lat="42.3231274" lon="13.760907"><ele>499.0</ele><time>2026-05-03T10:07:22.302Z</time></trkpt><trkpt lat="42.3230313" lon="13.7609544"><ele>499.0</ele><time>2026-05-03T10:07:23.303Z</time></trkpt><trkpt lat="42.3229284" lon="13.7610108"><ele>498.5</ele><time>2026-05-03T10:07:24.304Z</time></trkpt><trkpt lat="42.3228232" lon="13.7610803"><ele>498.0</ele><time>2026-05-03T10:07:25.306Z</time></trkpt><trkpt lat="42.3227092" lon="13.7611494"><ele>497.5</ele><time>2026-05-03T10:07:26.299Z</time></trkpt><trkpt lat="42.3225916" lon="13.7612427"><ele>497.0</ele><time>2026-05-03T10:07:27.302Z</time></trkpt><trkpt lat="42.3224767" lon="13.7613218"><ele>497.0</ele><time>2026-05-03T10:07:28.303Z</time></trkpt><trkpt lat="42.3223508" lon="13.7614049"><ele>497.0</ele><time>2026-05-03T10:07:29.301Z</time></trkpt><trkpt lat="42.3222605" lon="13.7615052"><ele>497.0</ele><time>2026-05-03T10:07:30.304Z</time></trkpt><trkpt lat="42.3221394" lon="13.7615523"><ele>497.0</ele><time>2026-05-03T10:07:31.305Z</time></trkpt><trkpt lat="42.3220425" lon="13.7616245"><ele>495.16666666666663</ele><time>2026-05-03T10:07:32.296Z</time></trkpt><trkpt lat="42.3219554" lon="13.7616539"><ele>493.3333333333333</ele><time>2026-05-03T10:07:33.301Z</time></trkpt><trkpt lat="42.3218853" lon="13.7616966"><ele>491.5</ele><time>2026-05-03T10:07:34.302Z</time></trkpt><trkpt lat="42.3218129" lon="13.7617468"><ele>489.66666666666663</ele><time>2026-05-03T10:07:35.303Z</time></trkpt><trkpt lat="42.32175" lon="13.7617874"><ele>487.8333333333333</ele><time>2026-05-03T10:07:36.304Z</time></trkpt><trkpt lat="42.3216532" lon="13.7618553"><ele>486.0</ele><time>2026-05-03T10:07:38.294Z</time></trkpt><trkpt lat="42.3215875" lon="13.7618193"><ele>486.0</ele><time>2026-05-03T10:07:39.295Z</time></trkpt><trkpt lat="42.321539" lon="13.7617506"><ele>486.0</ele><time>2026-05-03T10:07:40.303Z</time></trkpt><trkpt lat="42.3214907" lon="13.7616847"><ele>486.0</ele><time>2026-05-03T10:07:41.298Z</time></trkpt><trkpt lat="42.321449" lon="13.7616147"><ele>486.0</ele><time>2026-05-03T10:07:42.3Z</time></trkpt><trkpt lat="42.3213997" lon="13.7614791"><ele>486.0</ele><time>2026-05-03T10:07:44.299Z</time></trkpt><trkpt lat="42.321377" lon="13.7613364"><ele>486.0</ele><time>2026-05-03T10:07:46.297Z</time></trkpt><trkpt lat="42.3213894" lon="13.7612325"><ele>486.0</ele><time>2026-05-03T10:07:47.291Z</time></trkpt><trkpt lat="42.3214012" lon="13.7611318"><ele>486.0</ele><time>2026-05-03T10:07:48.297Z</time></trkpt><trkpt lat="42.3214112" lon="13.7610381"><ele>486.0</ele><time>2026-05-03T10:07:49.295Z</time></trkpt><trkpt lat="42.3213894" lon="13.7609079"><ele>486.0</ele><time>2026-05-03T10:07:51.29Z</time></trkpt><trkpt lat="42.3213578" lon="13.7608034"><ele>486.0</ele><time>2026-05-03T10:07:53.293Z</time></trkpt><trkpt lat="42.3212985" lon="13.7607207"><ele>486.0</ele><time>2026-05-03T10:07:55.302Z</time></trkpt><trkpt lat="42.3212499" lon="13.7605933"><ele>482.8</ele><time>2026-05-03T10:07:57.299Z</time></trkpt><trkpt lat="42.3212334" lon="13.760493"><ele>479.6</ele><time>2026-05-03T10:07:59.297Z</time></trkpt><trkpt lat="42.321126" lon="13.7604639"><ele>476.4</ele><time>2026-05-03T10:08:05.28Z</time></trkpt><trkpt lat="42.3210448" lon="13.7605172"><ele>473.2</ele><time>2026-05-03T10:08:06.278Z</time></trkpt><trkpt lat="42.3209578" lon="13.7605823"><ele>470.0</ele><time>2026-05-03T10:08:07.282Z</time></trkpt><trkpt lat="42.3208761" lon="13.7606506"><ele>469.99999999999994</ele><time>2026-05-03T10:08:08.277Z</time></trkpt><trkpt lat="42.3207912" lon="13.7606826"><ele>470.0</ele><time>2026-05-03T10:08:09.277Z</time></trkpt><trkpt lat="42.3207335" lon="13.7607306"><ele>470.0</ele><time>2026-05-03T10:08:10.275Z</time></trkpt><trkpt lat="42.3206359" lon="13.7608366"><ele>470.0</ele><time>2026-05-03T10:08:12.284Z</time></trkpt><trkpt lat="42.3205739" lon="13.760895"><ele>469.99999999999994</ele><time>2026-05-03T10:08:13.284Z</time></trkpt><trkpt lat="42.3205073" lon="13.7609447"><ele>470.0</ele><time>2026-05-03T10:08:14.293Z</time></trkpt><trkpt lat="42.3204407" lon="13.7610208"><ele>469.3333333333333</ele><time>2026-05-03T10:08:15.294Z</time></trkpt><trkpt lat="42.3203769" lon="13.7610877"><ele>468.66666666666663</ele><time>2026-05-03T10:08:16.292Z</time></trkpt><trkpt lat="42.3203281" lon="13.7611442"><ele>468.0</ele><time>2026-05-03T10:08:17.289Z</time></trkpt><trkpt lat="42.3202514" lon="13.7612449"><ele>467.33333333333337</ele><time>2026-05-03T10:08:19.283Z</time></trkpt><trkpt lat="42.3201651" lon="13.761336"><ele>466.6666666666667</ele><time>2026-05-03T10:08:21.301Z</time></trkpt><trkpt lat="42.3201013" lon="13.761395"><ele>466.0</ele><time>2026-05-03T10:08:22.295Z</time></trkpt><trkpt lat="42.3200407" lon="13.7614513"><ele>466.00000000000006</ele><time>2026-05-03T10:08:23.301Z</time></trkpt><trkpt lat="42.319984" lon="13.7615136"><ele>466.0</ele><time>2026-05-03T10:08:24.305Z</time></trkpt><trkpt lat="42.3199113" lon="13.7615737"><ele>466.0</ele><time>2026-05-03T10:08:25.304Z</time></trkpt><trkpt lat="42.31984" lon="13.7616275"><ele>466.0</ele><time>2026-05-03T10:08:26.3Z</time></trkpt><trkpt lat="42.3197642" lon="13.7616762"><ele>466.00000000000006</ele><time>2026-05-03T10:08:27.303Z</time></trkpt><trkpt lat="42.3196803" lon="13.7617384"><ele>466.0</ele><time>2026-05-03T10:08:28.303Z</time></trkpt><trkpt lat="42.3195856" lon="13.7618023"><ele>465.6</ele><time>2026-05-03T10:08:29.297Z</time></trkpt><trkpt lat="42.3194911" lon="13.761876"><ele>465.20000000000005</ele><time>2026-05-03T10:08:30.294Z</time></trkpt><trkpt lat="42.3193989" lon="13.7619356"><ele>464.79999999999995</ele><time>2026-05-03T10:08:31.293Z</time></trkpt><trkpt lat="42.319301" lon="13.7620104"><ele>464.4</ele><time>2026-05-03T10:08:32.298Z</time></trkpt><trkpt lat="42.3192031" lon="13.7620839"><ele>464.0</ele><time>2026-05-03T10:08:33.295Z</time></trkpt><trkpt lat="42.319112" lon="13.7621481"><ele>464.0</ele><time>2026-05-03T10:08:34.298Z</time></trkpt><trkpt lat="42.3190204" lon="13.7622053"><ele>464.0</ele><time>2026-05-03T10:08:35.294Z</time></trkpt><trkpt lat="42.3189193" lon="13.7622621"><ele>464.0</ele><time>2026-05-03T10:08:36.298Z</time></trkpt><trkpt lat="42.3188232" lon="13.7623229"><ele>464.0</ele><time>2026-05-03T10:08:37.291Z</time></trkpt><trkpt lat="42.3187419" lon="13.7623917"><ele>464.0</ele><time>2026-05-03T10:08:38.292Z</time></trkpt><trkpt lat="42.3186653" lon="13.7624579"><ele>463.79999999999995</ele><time>2026-05-03T10:08:39.297Z</time></trkpt><trkpt lat="42.3185902" lon="13.7625212"><ele>463.59999999999997</ele><time>2026-05-03T10:08:40.299Z</time></trkpt><trkpt lat="42.3185132" lon="13.7625984"><ele>463.4</ele><time>2026-05-03T10:08:41.297Z</time></trkpt><trkpt lat="42.3184327" lon="13.7626777"><ele>463.2</ele><time>2026-05-03T10:08:42.305Z</time></trkpt><trkpt lat="42.3183481" lon="13.7627528"><ele>463.0</ele><time>2026-05-03T10:08:43.296Z</time></trkpt><trkpt lat="42.3182554" lon="13.7628211"><ele>463.0</ele><time>2026-05-03T10:08:44.302Z</time></trkpt><trkpt lat="42.3181738" lon="13.7628919"><ele>462.99999999999994</ele><time>2026-05-03T10:08:45.3Z</time></trkpt><trkpt lat="42.3180985" lon="13.762977"><ele>462.99999999999994</ele><time>2026-05-03T10:08:46.3Z</time></trkpt><trkpt lat="42.3180137" lon="13.7630556"><ele>463.0</ele><time>2026-05-03T10:08:47.297Z</time></trkpt><trkpt lat="42.3179264" lon="13.763138"><ele>463.0</ele><time>2026-05-03T10:08:48.3Z</time></trkpt><trkpt lat="42.3178394" lon="13.7632118"><ele>462.2</ele><time>2026-05-03T10:08:49.301Z</time></trkpt><trkpt lat="42.3177539" lon="13.763282"><ele>461.4</ele><time>2026-05-03T10:08:50.295Z</time></trkpt><trkpt lat="42.3176776" lon="13.7633479"><ele>460.59999999999997</ele><time>2026-05-03T10:08:51.299Z</time></trkpt><trkpt lat="42.3175956" lon="13.7634198"><ele>459.79999999999995</ele><time>2026-05-03T10:08:52.29Z</time></trkpt><trkpt lat="42.3175267" lon="13.7634973"><ele>459.0</ele><time>2026-05-03T10:08:53.289Z</time></trkpt><trkpt lat="42.3174622" lon="13.7635862"><ele>459.0</ele><time>2026-05-03T10:08:54.298Z</time></trkpt><trkpt lat="42.317409" lon="13.7636973"><ele>459.0</ele><time>2026-05-03T10:08:55.292Z</time></trkpt><trkpt lat="42.3173517" lon="13.7638109"><ele>459.0</ele><time>2026-05-03T10:08:56.294Z</time></trkpt><trkpt lat="42.317289" lon="13.763946"><ele>459.0</ele><time>2026-05-03T10:08:57.3Z</time></trkpt><trkpt lat="42.3172187" lon="13.7640742"><ele>459.0</ele><time>2026-05-03T10:08:58.304Z</time></trkpt><trkpt lat="42.317152" lon="13.7642015"><ele>457.75</ele><time>2026-05-03T10:08:59.295Z</time></trkpt><trkpt lat="42.3170721" lon="13.7643478"><ele>456.5</ele><time>2026-05-03T10:09:00.301Z</time></trkpt><trkpt lat="42.3170004" lon="13.7644646"><ele>455.25</ele><time>2026-05-03T10:09:01.303Z</time></trkpt><trkpt lat="42.3169206" lon="13.7645771"><ele>454.0</ele><time>2026-05-03T10:09:02.301Z</time></trkpt><trkpt lat="42.3168303" lon="13.7646946"><ele>454.0</ele><time>2026-05-03T10:09:03.3Z</time></trkpt><trkpt lat="42.3167431" lon="13.7648209"><ele>454.0</ele><time>2026-05-03T10:09:04.302Z</time></trkpt><trkpt lat="42.3166575" lon="13.7649242"><ele>454.0</ele><time>2026-05-03T10:09:05.299Z</time></trkpt><trkpt lat="42.3165743" lon="13.7650182"><ele>454.0</ele><time>2026-05-03T10:09:06.3Z</time></trkpt><trkpt lat="42.3164826" lon="13.7651022"><ele>454.6</ele><time>2026-05-03T10:09:07.303Z</time></trkpt><trkpt lat="42.3163926" lon="13.7651749"><ele>455.2</ele><time>2026-05-03T10:09:08.302Z</time></trkpt><trkpt lat="42.3162963" lon="13.7652443"><ele>455.80000000000007</ele><time>2026-05-03T10:09:09.301Z</time></trkpt><trkpt lat="42.3162065" lon="13.7653112"><ele>456.40000000000003</ele><time>2026-05-03T10:09:10.302Z</time></trkpt><trkpt lat="42.3161137" lon="13.765377"><ele>457.0</ele><time>2026-05-03T10:09:11.3Z</time></trkpt><trkpt lat="42.3160208" lon="13.7654492"><ele>457.0</ele><time>2026-05-03T10:09:12.299Z</time></trkpt><trkpt lat="42.3159301" lon="13.7655238"><ele>457.00000000000006</ele><time>2026-05-03T10:09:13.307Z</time></trkpt><trkpt lat="42.3158535" lon="13.7656167"><ele>457.00000000000006</ele><time>2026-05-03T10:09:14.301Z</time></trkpt><trkpt lat="42.3157929" lon="13.7657247"><ele>457.0</ele><time>2026-05-03T10:09:15.3Z</time></trkpt><trkpt lat="42.3157445" lon="13.7658468"><ele>457.0</ele><time>2026-05-03T10:09:16.302Z</time></trkpt><trkpt lat="42.3156918" lon="13.7659773"><ele>457.8</ele><time>2026-05-03T10:09:17.296Z</time></trkpt><trkpt lat="42.3156287" lon="13.7661032"><ele>458.6</ele><time>2026-05-03T10:09:18.299Z</time></trkpt><trkpt lat="42.3155712" lon="13.7662248"><ele>459.40000000000003</ele><time>2026-05-03T10:09:19.299Z</time></trkpt><trkpt lat="42.3155173" lon="13.7663394"><ele>460.20000000000005</ele><time>2026-05-03T10:09:20.3Z</time></trkpt><trkpt lat="42.3154531" lon="13.7664536"><ele>461.0</ele><time>2026-05-03T10:09:21.3Z</time></trkpt><trkpt lat="42.3153809" lon="13.7665678"><ele>461.0</ele><time>2026-05-03T10:09:22.299Z</time></trkpt><trkpt lat="42.315315" lon="13.7666617"><ele>461.0</ele><time>2026-05-03T10:09:23.298Z</time></trkpt><trkpt lat="42.3152441" lon="13.7667422"><ele>461.0</ele><time>2026-05-03T10:09:24.301Z</time></trkpt><trkpt lat="42.3151533" lon="13.7668178"><ele>461.0</ele><time>2026-05-03T10:09:25.305Z</time></trkpt><trkpt lat="42.3150601" lon="13.7668932"><ele>461.0</ele><time>2026-05-03T10:09:26.303Z</time></trkpt><trkpt lat="42.314974" lon="13.7669647"><ele>461.75</ele><time>2026-05-03T10:09:27.299Z</time></trkpt><trkpt lat="42.3148899" lon="13.7670456"><ele>462.5</ele><time>2026-05-03T10:09:28.303Z</time></trkpt><trkpt lat="42.3147995" lon="13.7671403"><ele>463.25</ele><time>2026-05-03T10:09:29.306Z</time></trkpt><trkpt lat="42.3147129" lon="13.7672556"><ele>464.0</ele><time>2026-05-03T10:09:30.3Z</time></trkpt><trkpt lat="42.3146231" lon="13.7673671"><ele>464.0</ele><time>2026-05-03T10:09:31.313Z</time></trkpt><trkpt lat="42.3145451" lon="13.7674756"><ele>464.0</ele><time>2026-05-03T10:09:32.3Z</time></trkpt><trkpt lat="42.3144881" lon="13.767581"><ele>464.0</ele><time>2026-05-03T10:09:33.293Z</time></trkpt><trkpt lat="42.3144433" lon="13.7676582"><ele>464.0</ele><time>2026-05-03T10:09:34.307Z</time></trkpt><trkpt lat="42.3143435" lon="13.7677532"><ele>464.0</ele><time>2026-05-03T10:09:36.317Z</time></trkpt><trkpt lat="42.3142708" lon="13.7677595"><ele>464.8333333333333</ele><time>2026-05-03T10:09:37.312Z</time></trkpt><trkpt lat="42.3141942" lon="13.7677865"><ele>465.66666666666663</ele><time>2026-05-03T10:09:38.31Z</time></trkpt><trkpt lat="42.3141246" lon="13.7678056"><ele>466.5</ele><time>2026-05-03T10:09:39.306Z</time></trkpt><trkpt lat="42.314053" lon="13.7678452"><ele>467.33333333333337</ele><time>2026-05-03T10:09:40.309Z</time></trkpt><trkpt lat="42.3139854" lon="13.7679156"><ele>468.1666666666667</ele><time>2026-05-03T10:09:41.303Z</time></trkpt><trkpt lat="42.3139277" lon="13.7679959"><ele>469.0</ele><time>2026-05-03T10:09:42.306Z</time></trkpt><trkpt lat="42.3138742" lon="13.7680874"><ele>465.00000000000006</ele><time>2026-05-03T10:09:43.308Z</time></trkpt><trkpt lat="42.3138339" lon="13.7681825"><ele>461.0</ele><time>2026-05-03T10:09:44.321Z</time></trkpt><trkpt lat="42.3137984" lon="13.7682851"><ele>457.0</ele><time>2026-05-03T10:09:45.312Z</time></trkpt><trkpt lat="42.3137616" lon="13.7683818"><ele>453.0</ele><time>2026-05-03T10:09:46.309Z</time></trkpt><trkpt lat="42.3137201" lon="13.7684894"><ele>449.00000000000006</ele><time>2026-05-03T10:09:47.307Z</time></trkpt><trkpt lat="42.3136731" lon="13.7685937"><ele>445.0</ele><time>2026-05-03T10:09:48.306Z</time></trkpt><trkpt lat="42.3136159" lon="13.7686947"><ele>445.0</ele><time>2026-05-03T10:09:49.307Z</time></trkpt><trkpt lat="42.3135588" lon="13.7688032"><ele>445.0</ele><time>2026-05-03T10:09:50.306Z</time></trkpt><trkpt lat="42.3135127" lon="13.7689189"><ele>445.0</ele><time>2026-05-03T10:09:51.307Z</time></trkpt><trkpt lat="42.3134642" lon="13.7690462"><ele>445.0</ele><time>2026-05-03T10:09:52.312Z</time></trkpt><trkpt lat="42.3134209" lon="13.7691647"><ele>445.0</ele><time>2026-05-03T10:09:53.31Z</time></trkpt><trkpt lat="42.3133713" lon="13.7692802"><ele>445.4</ele><time>2026-05-03T10:09:54.305Z</time></trkpt><trkpt lat="42.3133152" lon="13.7693929"><ele>445.8</ele><time>2026-05-03T10:09:55.309Z</time></trkpt><trkpt lat="42.3132622" lon="13.7694956"><ele>446.20000000000005</ele><time>2026-05-03T10:09:56.305Z</time></trkpt><trkpt lat="42.3132036" lon="13.7696043"><ele>446.6</ele><time>2026-05-03T10:09:57.305Z</time></trkpt><trkpt lat="42.3131295" lon="13.769725"><ele>447.0</ele><time>2026-05-03T10:09:58.302Z</time></trkpt><trkpt lat="42.3130368" lon="13.769841"><ele>443.25</ele><time>2026-05-03T10:09:59.296Z</time></trkpt><trkpt lat="42.3129239" lon="13.76994"><ele>439.5</ele><time>2026-05-03T10:10:00.306Z</time></trkpt><trkpt lat="42.3128065" lon="13.7700004"><ele>435.75</ele><time>2026-05-03T10:10:01.312Z</time></trkpt><trkpt lat="42.3126863" lon="13.7700794"><ele>432.0</ele><time>2026-05-03T10:10:02.311Z</time></trkpt><trkpt lat="42.312563" lon="13.7701315"><ele>432.0</ele><time>2026-05-03T10:10:03.307Z</time></trkpt><trkpt lat="42.3124822" lon="13.7701882"><ele>432.0</ele><time>2026-05-03T10:10:04.301Z</time></trkpt><trkpt lat="42.3123676" lon="13.7701971"><ele>432.0</ele><time>2026-05-03T10:10:05.306Z</time></trkpt><trkpt lat="42.3122396" lon="13.7702222"><ele>432.0</ele><time>2026-05-03T10:10:06.302Z</time></trkpt><trkpt lat="42.3121242" lon="13.7702194"><ele>433.5</ele><time>2026-05-03T10:10:07.305Z</time></trkpt><trkpt lat="42.3120205" lon="13.7702379"><ele>435.0</ele><time>2026-05-03T10:10:08.299Z</time></trkpt><trkpt lat="42.3119358" lon="13.7702569"><ele>436.5</ele><time>2026-05-03T10:10:09.305Z</time></trkpt><trkpt lat="42.3118558" lon="13.7702861"><ele>438.0</ele><time>2026-05-03T10:10:10.307Z</time></trkpt><trkpt lat="42.3117771" lon="13.7703195"><ele>439.5</ele><time>2026-05-03T10:10:11.301Z</time></trkpt><trkpt lat="42.3116887" lon="13.7703217"><ele>441.0</ele><time>2026-05-03T10:10:12.304Z</time></trkpt><trkpt lat="42.3116138" lon="13.7703391"><ele>441.0</ele><time>2026-05-03T10:10:13.3Z</time></trkpt><trkpt lat="42.311539" lon="13.770383"><ele>441.0</ele><time>2026-05-03T10:10:14.303Z</time></trkpt><trkpt lat="42.3114445" lon="13.7704567"><ele>441.0</ele><time>2026-05-03T10:10:15.31Z</time></trkpt><trkpt lat="42.3113501" lon="13.7705554"><ele>441.0</ele><time>2026-05-03T10:10:16.299Z</time></trkpt><trkpt lat="42.3112467" lon="13.7706492"><ele>441.0</ele><time>2026-05-03T10:10:17.299Z</time></trkpt><trkpt lat="42.3111528" lon="13.7707332"><ele>440.3333333333333</ele><time>2026-05-03T10:10:18.299Z</time></trkpt><trkpt lat="42.311074" lon="13.7708022"><ele>439.66666666666663</ele><time>2026-05-03T10:10:19.294Z</time></trkpt><trkpt lat="42.3110074" lon="13.770857"><ele>439.0</ele><time>2026-05-03T10:10:20.303Z</time></trkpt><trkpt lat="42.3109378" lon="13.770874"><ele>438.3333333333333</ele><time>2026-05-03T10:10:21.304Z</time></trkpt><trkpt lat="42.3108637" lon="13.7708594"><ele>437.66666666666663</ele><time>2026-05-03T10:10:22.303Z</time></trkpt><trkpt lat="42.3107904" lon="13.7708249"><ele>437.0</ele><time>2026-05-03T10:10:23.304Z</time></trkpt><trkpt lat="42.3107029" lon="13.7708093"><ele>436.99999999999994</ele><time>2026-05-03T10:10:24.304Z</time></trkpt><trkpt lat="42.3106209" lon="13.7707822"><ele>437.0</ele><time>2026-05-03T10:10:25.303Z</time></trkpt><trkpt lat="42.3105362" lon="13.7707852"><ele>437.0</ele><time>2026-05-03T10:10:26.305Z</time></trkpt><trkpt lat="42.310449" lon="13.7708103"><ele>437.0</ele><time>2026-05-03T10:10:27.305Z</time></trkpt><trkpt lat="42.3103568" lon="13.7708497"><ele>436.99999999999994</ele><time>2026-05-03T10:10:28.299Z</time></trkpt><trkpt lat="42.3102661" lon="13.7708755"><ele>437.0</ele><time>2026-05-03T10:10:29.298Z</time></trkpt><trkpt lat="42.3101865" lon="13.7708854"><ele>436.49999999999994</ele><time>2026-05-03T10:10:30.296Z</time></trkpt><trkpt lat="42.3100993" lon="13.7709066"><ele>436.0</ele><time>2026-05-03T10:10:31.305Z</time></trkpt><trkpt lat="42.3100252" lon="13.7709032"><ele>435.5</ele><time>2026-05-03T10:10:32.298Z</time></trkpt><trkpt lat="42.3099464" lon="13.7709302"><ele>435.0</ele><time>2026-05-03T10:10:33.304Z</time></trkpt><trkpt lat="42.3098686" lon="13.7709528"><ele>434.49999999999994</ele><time>2026-05-03T10:10:34.298Z</time></trkpt><trkpt lat="42.3097969" lon="13.7709962"><ele>434.0</ele><time>2026-05-03T10:10:35.303Z</time></trkpt><trkpt lat="42.3097431" lon="13.7710443"><ele>435.66666666666663</ele><time>2026-05-03T10:10:36.302Z</time></trkpt><trkpt lat="42.3096885" lon="13.7710901"><ele>437.3333333333333</ele><time>2026-05-03T10:10:37.307Z</time></trkpt><trkpt lat="42.3096309" lon="13.7712104"><ele>439.0</ele><time>2026-05-03T10:10:39.314Z</time></trkpt><trkpt lat="42.3096096" lon="13.7713059"><ele>440.66666666666663</ele><time>2026-05-03T10:10:41.309Z</time></trkpt><trkpt lat="42.3095612" lon="13.7713837"><ele>442.3333333333333</ele><time>2026-05-03T10:10:44.309Z</time></trkpt><trkpt lat="42.3094936" lon="13.7714098"><ele>444.0</ele><time>2026-05-03T10:11:09.317Z</time></trkpt><trkpt lat="42.3095765" lon="13.7713517"><ele>444.0</ele><time>2026-05-03T10:11:20.304Z</time></trkpt><trkpt lat="42.3096178" lon="13.7712781"><ele>444.0</ele><time>2026-05-03T10:11:22.31Z</time></trkpt><trkpt lat="42.3096431" lon="13.7711786"><ele>444.0</ele><time>2026-05-03T10:11:24.314Z</time></trkpt><trkpt lat="42.3096053" lon="13.7712616"><ele>444.0</ele><time>2026-05-03T10:11:30.311Z</time></trkpt><trkpt lat="42.3095745" lon="13.771358"><ele>444.0</ele><time>2026-05-03T10:11:32.308Z</time></trkpt><trkpt lat="42.3094772" lon="13.7714753"><ele>444.0</ele><time>2026-05-03T10:11:34.308Z</time></trkpt><trkpt lat="42.309403" lon="13.7715371"><ele>444.0</ele><time>2026-05-03T10:11:35.306Z</time></trkpt><trkpt lat="42.3093139" lon="13.7715771"><ele>444.0</ele><time>2026-05-03T10:11:36.303Z</time></trkpt><trkpt lat="42.3092208" lon="13.7716246"><ele>444.0</ele><time>2026-05-03T10:11:37.3Z</time></trkpt><trkpt lat="42.3091118" lon="13.7716753"><ele>444.0</ele><time>2026-05-03T10:11:38.309Z</time></trkpt><trkpt lat="42.3090146" lon="13.7717451"><ele>444.0</ele><time>2026-05-03T10:11:39.298Z</time></trkpt><trkpt lat="42.3089436" lon="13.7718265"><ele>443.79999999999995</ele><time>2026-05-03T10:11:40.309Z</time></trkpt><trkpt lat="42.3088708" lon="13.7719252"><ele>443.59999999999997</ele><time>2026-05-03T10:11:41.311Z</time></trkpt><trkpt lat="42.3087992" lon="13.7720193"><ele>443.4</ele><time>2026-05-03T10:11:42.309Z</time></trkpt><trkpt lat="42.3087466" lon="13.7720959"><ele>443.2</ele><time>2026-05-03T10:11:43.312Z</time></trkpt><trkpt lat="42.3086886" lon="13.7721803"><ele>443.0</ele><time>2026-05-03T10:11:44.312Z</time></trkpt><trkpt lat="42.3086109" lon="13.7722631"><ele>443.0</ele><time>2026-05-03T10:11:45.316Z</time></trkpt><trkpt lat="42.3085239" lon="13.7723475"><ele>442.99999999999994</ele><time>2026-05-03T10:11:46.317Z</time></trkpt><trkpt lat="42.3084406" lon="13.7724485"><ele>442.99999999999994</ele><time>2026-05-03T10:11:47.312Z</time></trkpt><trkpt lat="42.30837" lon="13.7725594"><ele>443.0</ele><time>2026-05-03T10:11:48.319Z</time></trkpt><trkpt lat="42.3083007" lon="13.7726605"><ele>443.0</ele><time>2026-05-03T10:11:49.313Z</time></trkpt><trkpt lat="42.3082395" lon="13.7727497"><ele>443.8333333333333</ele><time>2026-05-03T10:11:50.318Z</time></trkpt><trkpt lat="42.3081801" lon="13.7728388"><ele>444.66666666666663</ele><time>2026-05-03T10:11:51.311Z</time></trkpt><trkpt lat="42.308116" lon="13.7729149"><ele>445.5</ele><time>2026-05-03T10:11:52.307Z</time></trkpt><trkpt lat="42.3080495" lon="13.7729804"><ele>446.33333333333337</ele><time>2026-05-03T10:11:53.306Z</time></trkpt><trkpt lat="42.307982" lon="13.773054"><ele>447.1666666666667</ele><time>2026-05-03T10:11:54.311Z</time></trkpt><trkpt lat="42.3079121" lon="13.7731226"><ele>448.0</ele><time>2026-05-03T10:11:55.311Z</time></trkpt><trkpt lat="42.3078301" lon="13.7731891"><ele>446.00000000000006</ele><time>2026-05-03T10:11:56.306Z</time></trkpt><trkpt lat="42.307752" lon="13.7732388"><ele>444.0</ele><time>2026-05-03T10:11:57.307Z</time></trkpt><trkpt lat="42.3076893" lon="13.7732912"><ele>442.0</ele><time>2026-05-03T10:11:58.295Z</time></trkpt><trkpt lat="42.3075913" lon="13.7734045"><ele>440.0</ele><time>2026-05-03T10:12:00.309Z</time></trkpt><trkpt lat="42.3075476" lon="13.7734741"><ele>438.00000000000006</ele><time>2026-05-03T10:12:01.311Z</time></trkpt><trkpt lat="42.3074983" lon="13.7735312"><ele>436.0</ele><time>2026-05-03T10:12:02.307Z</time></trkpt><trkpt lat="42.3074197" lon="13.7736228"><ele>436.00000000000006</ele><time>2026-05-03T10:12:04.311Z</time></trkpt><trkpt lat="42.3073649" lon="13.7736879"><ele>436.0</ele><time>2026-05-03T10:12:06.312Z</time></trkpt><trkpt lat="42.3072796" lon="13.7737575"><ele>436.0</ele><time>2026-05-03T10:12:08.301Z</time></trkpt><trkpt lat="42.3072212" lon="13.7738188"><ele>436.0</ele><time>2026-05-03T10:12:09.299Z</time></trkpt><trkpt lat="42.3071407" lon="13.7738737"><ele>436.00000000000006</ele><time>2026-05-03T10:12:10.309Z</time></trkpt><trkpt lat="42.3070752" lon="13.7739413"><ele>436.0</ele><time>2026-05-03T10:12:11.307Z</time></trkpt><trkpt lat="42.3070256" lon="13.7740008"><ele>434.6666666666667</ele><time>2026-05-03T10:12:12.306Z</time></trkpt><trkpt lat="42.3069574" lon="13.7741269"><ele>433.33333333333337</ele><time>2026-05-03T10:12:14.308Z</time></trkpt><trkpt lat="42.3069116" lon="13.7742093"><ele>432.0</ele><time>2026-05-03T10:12:15.31Z</time></trkpt><trkpt lat="42.306852" lon="13.7742854"><ele>430.66666666666663</ele><time>2026-05-03T10:12:16.305Z</time></trkpt><trkpt lat="42.3067915" lon="13.7743565"><ele>429.3333333333333</ele><time>2026-05-03T10:12:17.308Z</time></trkpt><trkpt lat="42.3067409" lon="13.7744292"><ele>428.0</ele><time>2026-05-03T10:12:18.31Z</time></trkpt><trkpt lat="42.3066837" lon="13.774509"><ele>427.99999999999994</ele><time>2026-05-03T10:12:19.318Z</time></trkpt><trkpt lat="42.3066339" lon="13.7745918"><ele>428.0</ele><time>2026-05-03T10:12:20.308Z</time></trkpt><trkpt lat="42.306582" lon="13.7746818"><ele>428.0</ele><time>2026-05-03T10:12:21.308Z</time></trkpt><trkpt lat="42.3065397" lon="13.774766"><ele>428.0</ele><time>2026-05-03T10:12:22.309Z</time></trkpt><trkpt lat="42.3065012" lon="13.7748594"><ele>427.99999999999994</ele><time>2026-05-03T10:12:23.307Z</time></trkpt><trkpt lat="42.3064659" lon="13.774945"><ele>428.0</ele><time>2026-05-03T10:12:24.309Z</time></trkpt><trkpt lat="42.3064378" lon="13.7750348"><ele>428.79999999999995</ele><time>2026-05-03T10:12:25.312Z</time></trkpt><trkpt lat="42.3064088" lon="13.7751753"><ele>429.59999999999997</ele><time>2026-05-03T10:12:27.294Z</time></trkpt><trkpt lat="42.3064631" lon="13.7752731"><ele>430.40000000000003</ele><time>2026-05-03T10:12:29.316Z</time></trkpt><trkpt lat="42.3065598" lon="13.7753432"><ele>431.20000000000005</ele><time>2026-05-03T10:12:31.3Z</time></trkpt><trkpt lat="42.3066839" lon="13.7753864"><ele>432.0</ele><time>2026-05-03T10:12:33.299Z</time></trkpt><trkpt lat="42.3067449" lon="13.7754351"><ele>432.0</ele><time>2026-05-03T10:12:34.308Z</time></trkpt><trkpt lat="42.3067979" lon="13.7754964"><ele>432.0</ele><time>2026-05-03T10:12:35.306Z</time></trkpt><trkpt lat="42.3068403" lon="13.7755608"><ele>432.0</ele><time>2026-05-03T10:12:36.302Z</time></trkpt><trkpt lat="42.3068886" lon="13.7756357"><ele>432.0</ele><time>2026-05-03T10:12:37.305Z</time></trkpt><trkpt lat="42.306938" lon="13.7757082"><ele>432.0</ele><time>2026-05-03T10:12:38.305Z</time></trkpt><trkpt lat="42.3069961" lon="13.7757649"><ele>432.0</ele><time>2026-05-03T10:12:39.298Z</time></trkpt><trkpt lat="42.3070588" lon="13.7758591"><ele>432.0</ele><time>2026-05-03T10:12:41.302Z</time></trkpt><trkpt lat="42.3070719" lon="13.775973"><ele>432.0</ele><time>2026-05-03T10:12:43.292Z</time></trkpt><trkpt lat="42.3070773" lon="13.7761315"><ele>432.00000000000006</ele><time>2026-05-03T10:12:45.306Z</time></trkpt><trkpt lat="42.3070934" lon="13.7762898"><ele>432.00000000000006</ele><time>2026-05-03T10:12:47.302Z</time></trkpt><trkpt lat="42.307112" lon="13.7764246"><ele>432.0</ele><time>2026-05-03T10:12:49.303Z</time></trkpt><trkpt lat="42.3071316" lon="13.7765491"><ele>432.0</ele><time>2026-05-03T10:12:51.308Z</time></trkpt><trkpt lat="42.3071848" lon="13.7766164"><ele>432.0</ele><time>2026-05-03T10:12:53.301Z</time></trkpt><trkpt lat="42.3072154" lon="13.7765251"><ele>432.0</ele><time>2026-05-03T10:12:59.306Z</time></trkpt><trkpt lat="42.3071608" lon="13.7764298"><ele>432.0</ele><time>2026-05-03T10:13:01.312Z</time></trkpt><trkpt lat="42.3070845" lon="13.7763099"><ele>432.0</ele><time>2026-05-03T10:13:03.3Z</time></trkpt><trkpt lat="42.3070681" lon="13.7762051"><ele>432.0</ele><time>2026-05-03T10:13:04.302Z</time></trkpt><trkpt lat="42.3070633" lon="13.7761072"><ele>432.0</ele><time>2026-05-03T10:13:05.303Z</time></trkpt><trkpt lat="42.3070498" lon="13.7759446"><ele>432.0</ele><time>2026-05-03T10:13:07.302Z</time></trkpt><trkpt lat="42.307027" lon="13.775815"><ele>432.0</ele><time>2026-05-03T10:13:09.303Z</time></trkpt><trkpt lat="42.3069586" lon="13.7757128"><ele>432.0</ele><time>2026-05-03T10:13:11.299Z</time></trkpt><trkpt lat="42.3068996" lon="13.7756627"><ele>432.0</ele><time>2026-05-03T10:13:12.303Z</time></trkpt><trkpt lat="42.3068462" lon="13.7756153"><ele>432.0</ele><time>2026-05-03T10:13:13.302Z</time></trkpt><trkpt lat="42.3068016" lon="13.7755491"><ele>432.0</ele><time>2026-05-03T10:13:14.301Z</time></trkpt><trkpt lat="42.3067553" lon="13.7754859"><ele>432.0</ele><time>2026-05-03T10:13:15.303Z</time></trkpt><trkpt lat="42.3066614" lon="13.7753977"><ele>432.00000000000006</ele><time>2026-05-03T10:13:17.3Z</time></trkpt><trkpt lat="42.3065686" lon="13.7753373"><ele>432.00000000000006</ele><time>2026-05-03T10:13:19.304Z</time></trkpt><trkpt lat="42.3064656" lon="13.7753269"><ele>432.0</ele><time>2026-05-03T10:13:21.312Z</time></trkpt><trkpt lat="42.3063874" lon="13.7753303"><ele>432.0</ele><time>2026-05-03T10:13:23.289Z</time></trkpt><trkpt lat="42.3063223" lon="13.7754441"><ele>430.6666666666667</ele><time>2026-05-03T10:13:25.295Z</time></trkpt><trkpt lat="42.3062939" lon="13.7755457"><ele>429.33333333333337</ele><time>2026-05-03T10:13:26.292Z</time></trkpt><trkpt lat="42.3062659" lon="13.7756576"><ele>428.0</ele><time>2026-05-03T10:13:27.299Z</time></trkpt><trkpt lat="42.3062354" lon="13.7757624"><ele>426.6666666666667</ele><time>2026-05-03T10:13:28.305Z</time></trkpt><trkpt lat="42.3062111" lon="13.7758601"><ele>425.33333333333337</ele><time>2026-05-03T10:13:29.309Z</time></trkpt><trkpt lat="42.3061899" lon="13.7759562"><ele>424.0</ele><time>2026-05-03T10:13:30.304Z</time></trkpt><trkpt lat="42.3061654" lon="13.7760716"><ele>423.79999999999995</ele><time>2026-05-03T10:13:31.305Z</time></trkpt><trkpt lat="42.3061423" lon="13.7761922"><ele>423.59999999999997</ele><time>2026-05-03T10:13:32.301Z</time></trkpt><trkpt lat="42.3061243" lon="13.7762987"><ele>423.4</ele><time>2026-05-03T10:13:33.298Z</time></trkpt><trkpt lat="42.3060976" lon="13.7764094"><ele>423.2</ele><time>2026-05-03T10:13:34.301Z</time></trkpt><trkpt lat="42.3060768" lon="13.7765115"><ele>423.0</ele><time>2026-05-03T10:13:35.298Z</time></trkpt><trkpt lat="42.3060513" lon="13.7766698"><ele>423.0</ele><time>2026-05-03T10:13:37.305Z</time></trkpt><trkpt lat="42.3060867" lon="13.7768429"><ele>423.0</ele><time>2026-05-03T10:13:39.304Z</time></trkpt><trkpt lat="42.3061097" lon="13.7769361"><ele>423.0</ele><time>2026-05-03T10:13:40.298Z</time></trkpt><trkpt lat="42.3061377" lon="13.7770129"><ele>423.0</ele><time>2026-05-03T10:13:41.299Z</time></trkpt><trkpt lat="42.3061705" lon="13.7771743"><ele>423.0</ele><time>2026-05-03T10:13:43.298Z</time></trkpt><trkpt lat="42.306162" lon="13.7773206"><ele>422.8333333333333</ele><time>2026-05-03T10:13:45.298Z</time></trkpt><trkpt lat="42.3060972" lon="13.7774849"><ele>422.66666666666663</ele><time>2026-05-03T10:13:47.298Z</time></trkpt><trkpt lat="42.3060569" lon="13.7775654"><ele>422.5</ele><time>2026-05-03T10:13:48.3Z</time></trkpt><trkpt lat="42.3060131" lon="13.7776354"><ele>422.3333333333333</ele><time>2026-05-03T10:13:49.298Z</time></trkpt><trkpt lat="42.3059664" lon="13.7776983"><ele>422.16666666666663</ele><time>2026-05-03T10:13:50.299Z</time></trkpt><trkpt lat="42.305914" lon="13.7777674"><ele>422.0</ele><time>2026-05-03T10:13:51.303Z</time></trkpt><trkpt lat="42.3058603" lon="13.7778295"><ele>421.8571428571429</ele><time>2026-05-03T10:13:52.312Z</time></trkpt><trkpt lat="42.3058062" lon="13.7778821"><ele>421.7142857142857</ele><time>2026-05-03T10:13:53.297Z</time></trkpt><trkpt lat="42.3057547" lon="13.777951"><ele>421.57142857142856</ele><time>2026-05-03T10:13:54.303Z</time></trkpt><trkpt lat="42.3056983" lon="13.7780231"><ele>421.42857142857144</ele><time>2026-05-03T10:13:55.303Z</time></trkpt><trkpt lat="42.3056429" lon="13.7780864"><ele>421.2857142857143</ele><time>2026-05-03T10:13:56.298Z</time></trkpt><trkpt lat="42.305592" lon="13.7781427"><ele>421.14285714285717</ele><time>2026-05-03T10:13:57.294Z</time></trkpt><trkpt lat="42.3055246" lon="13.7781724"><ele>421.0</ele><time>2026-05-03T10:13:58.307Z</time></trkpt><trkpt lat="42.305445" lon="13.7782063"><ele>419.6</ele><time>2026-05-03T10:13:59.299Z</time></trkpt><trkpt lat="42.3053738" lon="13.7782666"><ele>418.20000000000005</ele><time>2026-05-03T10:14:00.293Z</time></trkpt><trkpt lat="42.3053118" lon="13.7783516"><ele>416.79999999999995</ele><time>2026-05-03T10:14:01.294Z</time></trkpt><trkpt lat="42.3052538" lon="13.7784484"><ele>415.4</ele><time>2026-05-03T10:14:02.298Z</time></trkpt><trkpt lat="42.3051952" lon="13.7785438"><ele>414.0</ele><time>2026-05-03T10:14:03.296Z</time></trkpt><trkpt lat="42.3051358" lon="13.7786651"><ele>414.0</ele><time>2026-05-03T10:14:04.298Z</time></trkpt><trkpt lat="42.3050834" lon="13.7787847"><ele>414.0</ele><time>2026-05-03T10:14:05.298Z</time></trkpt><trkpt lat="42.305033" lon="13.7788938"><ele>414.0</ele><time>2026-05-03T10:14:06.297Z</time></trkpt><trkpt lat="42.3049687" lon="13.7790039"><ele>414.0</ele><time>2026-05-03T10:14:07.3Z</time></trkpt><trkpt lat="42.3048993" lon="13.7791046"><ele>414.0</ele><time>2026-05-03T10:14:08.304Z</time></trkpt><trkpt lat="42.3048327" lon="13.7791961"><ele>414.0</ele><time>2026-05-03T10:14:09.295Z</time></trkpt><trkpt lat="42.3047694" lon="13.779295"><ele>414.0</ele><time>2026-05-03T10:14:10.304Z</time></trkpt><trkpt lat="42.3047044" lon="13.7793902"><ele>414.0</ele><time>2026-05-03T10:14:11.301Z</time></trkpt><trkpt lat="42.3046424" lon="13.7794922"><ele>414.0</ele><time>2026-05-03T10:14:12.3Z</time></trkpt><trkpt lat="42.3045778" lon="13.779582"><ele>414.0</ele><time>2026-05-03T10:14:13.298Z</time></trkpt><trkpt lat="42.3045082" lon="13.7796519"><ele>412.6666666666667</ele><time>2026-05-03T10:14:14.294Z</time></trkpt><trkpt lat="42.3044282" lon="13.7797074"><ele>411.33333333333337</ele><time>2026-05-03T10:14:15.294Z</time></trkpt><trkpt lat="42.3043494" lon="13.7797465"><ele>410.0</ele><time>2026-05-03T10:14:16.299Z</time></trkpt><trkpt lat="42.3042629" lon="13.779776"><ele>408.6666666666667</ele><time>2026-05-03T10:14:17.296Z</time></trkpt><trkpt lat="42.3041865" lon="13.7798251"><ele>407.33333333333337</ele><time>2026-05-03T10:14:18.291Z</time></trkpt><trkpt lat="42.3041295" lon="13.7799056"><ele>406.0</ele><time>2026-05-03T10:14:19.292Z</time></trkpt><trkpt lat="42.3040789" lon="13.780002"><ele>406.00000000000006</ele><time>2026-05-03T10:14:20.297Z</time></trkpt><trkpt lat="42.3040343" lon="13.7800985"><ele>406.0</ele><time>2026-05-03T10:14:21.304Z</time></trkpt><trkpt lat="42.3039902" lon="13.7801829"><ele>406.0</ele><time>2026-05-03T10:14:22.297Z</time></trkpt><trkpt lat="42.3039081" lon="13.7802577"><ele>406.0</ele><time>2026-05-03T10:14:24.294Z</time></trkpt><trkpt lat="42.3038144" lon="13.7802859"><ele>406.00000000000006</ele><time>2026-05-03T10:14:28.298Z</time></trkpt><trkpt lat="42.3037623" lon="13.7803664"><ele>406.0</ele><time>2026-05-03T10:14:30.295Z</time></trkpt><trkpt lat="42.3037094" lon="13.7804934"><ele>406.14285714285717</ele><time>2026-05-03T10:14:32.296Z</time></trkpt><trkpt lat="42.3036671" lon="13.7805955"><ele>406.2857142857143</ele><time>2026-05-03T10:14:33.297Z</time></trkpt><trkpt lat="42.3036334" lon="13.78068"><ele>406.42857142857144</ele><time>2026-05-03T10:14:34.299Z</time></trkpt><trkpt lat="42.303598" lon="13.7807683"><ele>406.57142857142856</ele><time>2026-05-03T10:14:35.297Z</time></trkpt><trkpt lat="42.3035767" lon="13.7808559"><ele>406.7142857142857</ele><time>2026-05-03T10:14:36.301Z</time></trkpt><trkpt lat="42.3035431" lon="13.7809416"><ele>406.8571428571429</ele><time>2026-05-03T10:14:37.292Z</time></trkpt><trkpt lat="42.3034876" lon="13.7810089"><ele>407.0</ele><time>2026-05-03T10:14:38.293Z</time></trkpt><trkpt lat="42.3034108" lon="13.7810628"><ele>407.0</ele><time>2026-05-03T10:14:39.295Z</time></trkpt><trkpt lat="42.303327" lon="13.7811175"><ele>407.0</ele><time>2026-05-03T10:14:40.299Z</time></trkpt><trkpt lat="42.3032443" lon="13.7811744"><ele>407.0</ele><time>2026-05-03T10:14:41.304Z</time></trkpt><trkpt lat="42.3031598" lon="13.7812502"><ele>407.0</ele><time>2026-05-03T10:14:42.293Z</time></trkpt><trkpt lat="42.3030795" lon="13.7813522"><ele>407.0</ele><time>2026-05-03T10:14:43.299Z</time></trkpt><trkpt lat="42.3029883" lon="13.7814964"><ele>405.0</ele><time>2026-05-03T10:14:44.301Z</time></trkpt><trkpt lat="42.3029028" lon="13.7816248"><ele>403.0</ele><time>2026-05-03T10:14:45.299Z</time></trkpt><trkpt lat="42.3028252" lon="13.7817492"><ele>401.0</ele><time>2026-05-03T10:14:46.298Z</time></trkpt><trkpt lat="42.3027542" lon="13.7818691"><ele>399.0</ele><time>2026-05-03T10:14:47.295Z</time></trkpt><trkpt lat="42.3026902" lon="13.7819748"><ele>399.0</ele><time>2026-05-03T10:14:48.298Z</time></trkpt><trkpt lat="42.3026248" lon="13.7820868"><ele>399.0</ele><time>2026-05-03T10:14:49.299Z</time></trkpt><trkpt lat="42.302561" lon="13.7821925"><ele>399.0</ele><time>2026-05-03T10:14:50.292Z</time></trkpt><trkpt lat="42.3024886" lon="13.7822795"><ele>399.0</ele><time>2026-05-03T10:14:51.289Z</time></trkpt><trkpt lat="42.3024007" lon="13.7823509"><ele>399.0</ele><time>2026-05-03T10:14:52.298Z</time></trkpt><trkpt lat="42.3023202" lon="13.78241"><ele>399.0</ele><time>2026-05-03T10:14:53.303Z</time></trkpt><trkpt lat="42.3022548" lon="13.7824455"><ele>399.0</ele><time>2026-05-03T10:14:54.306Z</time></trkpt><trkpt lat="42.3021633" lon="13.7824695"><ele>399.0</ele><time>2026-05-03T10:14:56.287Z</time></trkpt><trkpt lat="42.3021091" lon="13.782349"><ele>399.0</ele><time>2026-05-03T10:14:58.303Z</time></trkpt><trkpt lat="42.3021047" lon="13.7822495"><ele>399.0</ele><time>2026-05-03T10:14:59.303Z</time></trkpt><trkpt lat="42.3020936" lon="13.782136"><ele>399.0</ele><time>2026-05-03T10:15:00.303Z</time></trkpt><trkpt lat="42.3020788" lon="13.7820359"><ele>397.5</ele><time>2026-05-03T10:15:01.305Z</time></trkpt><trkpt lat="42.3020723" lon="13.7819397"><ele>396.0</ele><time>2026-05-03T10:15:02.302Z</time></trkpt><trkpt lat="42.3020649" lon="13.7818528"><ele>394.5</ele><time>2026-05-03T10:15:03.3Z</time></trkpt><trkpt lat="42.3020378" lon="13.7817148"><ele>393.0</ele><time>2026-05-03T10:15:05.298Z</time></trkpt><trkpt lat="42.3020259" lon="13.7816302"><ele>391.5</ele><time>2026-05-03T10:15:06.297Z</time></trkpt><trkpt lat="42.3020097" lon="13.7815172"><ele>390.0</ele><time>2026-05-03T10:15:07.295Z</time></trkpt><trkpt lat="42.3019847" lon="13.7813931"><ele>388.8</ele><time>2026-05-03T10:15:08.3Z</time></trkpt><trkpt lat="42.3019695" lon="13.781274"><ele>387.6</ele><time>2026-05-03T10:15:09.3Z</time></trkpt><trkpt lat="42.3019554" lon="13.7811552"><ele>386.4</ele><time>2026-05-03T10:15:10.303Z</time></trkpt><trkpt lat="42.3019469" lon="13.7810179"><ele>385.2</ele><time>2026-05-03T10:15:11.295Z</time></trkpt><trkpt lat="42.3019259" lon="13.7808746"><ele>384.0</ele><time>2026-05-03T10:15:12.3Z</time></trkpt><trkpt lat="42.3019053" lon="13.7807459"><ele>384.0</ele><time>2026-05-03T10:15:13.298Z</time></trkpt><trkpt lat="42.3018952" lon="13.7806285"><ele>384.0</ele><time>2026-05-03T10:15:14.3Z</time></trkpt><trkpt lat="42.3018937" lon="13.78052"><ele>384.0</ele><time>2026-05-03T10:15:15.303Z</time></trkpt><trkpt lat="42.3018822" lon="13.7804218"><ele>384.0</ele><time>2026-05-03T10:15:16.303Z</time></trkpt><trkpt lat="42.3018848" lon="13.7802768"><ele>384.0</ele><time>2026-05-03T10:15:18.296Z</time></trkpt><trkpt lat="42.3019573" lon="13.7801497"><ele>383.6</ele><time>2026-05-03T10:15:20.301Z</time></trkpt><trkpt lat="42.3019675" lon="13.780003"><ele>383.2</ele><time>2026-05-03T10:15:22.302Z</time></trkpt><trkpt lat="42.301927" lon="13.779903"><ele>382.8</ele><time>2026-05-03T10:15:23.294Z</time></trkpt><trkpt lat="42.3018765" lon="13.7797849"><ele>382.40000000000003</ele><time>2026-05-03T10:15:24.305Z</time></trkpt><trkpt lat="42.3018279" lon="13.7796575"><ele>382.0</ele><time>2026-05-03T10:15:25.299Z</time></trkpt><trkpt lat="42.301782" lon="13.7795398"><ele>382.0</ele><time>2026-05-03T10:15:26.296Z</time></trkpt><trkpt lat="42.3017256" lon="13.7794118"><ele>382.0</ele><time>2026-05-03T10:15:27.295Z</time></trkpt><trkpt lat="42.3016733" lon="13.7792613"><ele>382.0</ele><time>2026-05-03T10:15:28.294Z</time></trkpt><trkpt lat="42.3016262" lon="13.7791049"><ele>382.0</ele><time>2026-05-03T10:15:29.303Z</time></trkpt><trkpt lat="42.3015901" lon="13.7789505"><ele>381.25</ele><time>2026-05-03T10:15:30.298Z</time></trkpt><trkpt lat="42.3015565" lon="13.7787884"><ele>380.5</ele><time>2026-05-03T10:15:31.304Z</time></trkpt><trkpt lat="42.301516" lon="13.7786475"><ele>379.75</ele><time>2026-05-03T10:15:32.301Z</time></trkpt><trkpt lat="42.3014834" lon="13.7785104"><ele>379.0</ele><time>2026-05-03T10:15:33.296Z</time></trkpt><trkpt lat="42.301463" lon="13.7783604"><ele>378.2</ele><time>2026-05-03T10:15:34.296Z</time></trkpt><trkpt lat="42.3014223" lon="13.7782117"><ele>377.4</ele><time>2026-05-03T10:15:35.3Z</time></trkpt><trkpt lat="42.3013759" lon="13.7780702"><ele>376.6</ele><time>2026-05-03T10:15:36.298Z</time></trkpt><trkpt lat="42.3013282" lon="13.7779457"><ele>375.8</ele><time>2026-05-03T10:15:37.299Z</time></trkpt><trkpt lat="42.3012941" lon="13.7778241"><ele>375.0</ele><time>2026-05-03T10:15:38.301Z</time></trkpt><trkpt lat="42.3012619" lon="13.7777093"><ele>373.2</ele><time>2026-05-03T10:15:39.3Z</time></trkpt><trkpt lat="42.3012389" lon="13.7775876"><ele>371.4</ele><time>2026-05-03T10:15:40.3Z</time></trkpt><trkpt lat="42.301229" lon="13.777454"><ele>369.6</ele><time>2026-05-03T10:15:41.302Z</time></trkpt><trkpt lat="42.3012286" lon="13.7773113"><ele>367.8</ele><time>2026-05-03T10:15:42.301Z</time></trkpt><trkpt lat="42.3012413" lon="13.7771643"><ele>366.0</ele><time>2026-05-03T10:15:43.303Z</time></trkpt><trkpt lat="42.3012528" lon="13.7770344"><ele>366.0</ele><time>2026-05-03T10:15:44.299Z</time></trkpt><trkpt lat="42.3012614" lon="13.7769216"><ele>366.0</ele><time>2026-05-03T10:15:45.3Z</time></trkpt><trkpt lat="42.3012597" lon="13.776821"><ele>366.0</ele><time>2026-05-03T10:15:46.299Z</time></trkpt><trkpt lat="42.3012419" lon="13.7767224"><ele>366.0</ele><time>2026-05-03T10:15:47.295Z</time></trkpt><trkpt lat="42.3012031" lon="13.7766149"><ele>366.0</ele><time>2026-05-03T10:15:48.295Z</time></trkpt><trkpt lat="42.3011367" lon="13.7764956"><ele>366.0</ele><time>2026-05-03T10:15:49.298Z</time></trkpt><trkpt lat="42.301073" lon="13.7763823"><ele>366.1666666666667</ele><time>2026-05-03T10:15:50.296Z</time></trkpt><trkpt lat="42.3010048" lon="13.7762929"><ele>366.3333333333333</ele><time>2026-05-03T10:15:51.296Z</time></trkpt><trkpt lat="42.300936" lon="13.7762302"><ele>366.5</ele><time>2026-05-03T10:15:52.301Z</time></trkpt><trkpt lat="42.3008731" lon="13.7761793"><ele>366.66666666666663</ele><time>2026-05-03T10:15:53.297Z</time></trkpt><trkpt lat="42.3008144" lon="13.7760828"><ele>366.8333333333333</ele><time>2026-05-03T10:15:55.307Z</time></trkpt><trkpt lat="42.3008268" lon="13.7759613"><ele>367.0</ele><time>2026-05-03T10:15:57.299Z</time></trkpt><trkpt lat="42.3008649" lon="13.7758293"><ele>367.6</ele><time>2026-05-03T10:15:59.293Z</time></trkpt><trkpt lat="42.3008209" lon="13.7757455"><ele>368.20000000000005</ele><time>2026-05-03T10:16:01.298Z</time></trkpt><trkpt lat="42.3007028" lon="13.7756762"><ele>368.8</ele><time>2026-05-03T10:16:03.297Z</time></trkpt><trkpt lat="42.3006184" lon="13.7755676"><ele>369.4</ele><time>2026-05-03T10:16:05.292Z</time></trkpt><trkpt lat="42.3004963" lon="13.7755399"><ele>370.0</ele><time>2026-05-03T10:16:07.293Z</time></trkpt><trkpt lat="42.3004127" lon="13.7754565"><ele>368.0</ele><time>2026-05-03T10:16:09.303Z</time></trkpt><trkpt lat="42.3003604" lon="13.7753103"><ele>366.0</ele><time>2026-05-03T10:16:11.309Z</time></trkpt><trkpt lat="42.3002805" lon="13.7751878"><ele>364.0</ele><time>2026-05-03T10:16:13.305Z</time></trkpt><trkpt lat="42.3002202" lon="13.7751303"><ele>362.0</ele><time>2026-05-03T10:16:14.312Z</time></trkpt><trkpt lat="42.3001255" lon="13.7750372"><ele>360.0</ele><time>2026-05-03T10:16:16.308Z</time></trkpt><trkpt lat="42.3000265" lon="13.7749925"><ele>360.0</ele><time>2026-05-03T10:16:18.302Z</time></trkpt><trkpt lat="42.2999347" lon="13.7750688"><ele>360.0</ele><time>2026-05-03T10:16:20.297Z</time></trkpt><trkpt lat="42.2998967" lon="13.7751392"><ele>360.0</ele><time>2026-05-03T10:16:21.302Z</time></trkpt><trkpt lat="42.2998423" lon="13.7752167"><ele>360.0</ele><time>2026-05-03T10:16:22.303Z</time></trkpt><trkpt lat="42.299772" lon="13.7753026"><ele>360.0</ele><time>2026-05-03T10:16:23.308Z</time></trkpt><trkpt lat="42.2996928" lon="13.7753942"><ele>359.6666666666667</ele><time>2026-05-03T10:16:24.308Z</time></trkpt><trkpt lat="42.2996178" lon="13.7754691"><ele>359.3333333333333</ele><time>2026-05-03T10:16:25.305Z</time></trkpt><trkpt lat="42.2995656" lon="13.775519"><ele>359.0</ele><time>2026-05-03T10:16:26.303Z</time></trkpt><trkpt lat="42.2994588" lon="13.7755726"><ele>358.66666666666663</ele><time>2026-05-03T10:16:28.298Z</time></trkpt><trkpt lat="42.2993916" lon="13.7755537"><ele>358.3333333333333</ele><time>2026-05-03T10:16:29.297Z</time></trkpt><trkpt lat="42.2993221" lon="13.7755127"><ele>358.0</ele><time>2026-05-03T10:16:30.295Z</time></trkpt><trkpt lat="42.2992475" lon="13.7754462"><ele>358.0</ele><time>2026-05-03T10:16:31.307Z</time></trkpt><trkpt lat="42.2991763" lon="13.775381"><ele>358.0</ele><time>2026-05-03T10:16:32.306Z</time></trkpt><trkpt lat="42.2991235" lon="13.7753248"><ele>358.0</ele><time>2026-05-03T10:16:33.301Z</time></trkpt><trkpt lat="42.2990438" lon="13.7752817"><ele>358.0</ele><time>2026-05-03T10:16:35.311Z</time></trkpt><trkpt lat="42.29897" lon="13.7753793"><ele>358.0</ele><time>2026-05-03T10:16:37.298Z</time></trkpt><trkpt lat="42.2989323" lon="13.7754669"><ele>358.0</ele><time>2026-05-03T10:16:38.306Z</time></trkpt><trkpt lat="42.2989054" lon="13.7755852"><ele>357.5</ele><time>2026-05-03T10:16:39.297Z</time></trkpt><trkpt lat="42.2988652" lon="13.7757296"><ele>357.0</ele><time>2026-05-03T10:16:40.307Z</time></trkpt><trkpt lat="42.2988186" lon="13.7758856"><ele>356.5</ele><time>2026-05-03T10:16:41.299Z</time></trkpt><trkpt lat="42.2987806" lon="13.7760544"><ele>356.0</ele><time>2026-05-03T10:16:42.308Z</time></trkpt><trkpt lat="42.2987515" lon="13.7762337"><ele>356.0</ele><time>2026-05-03T10:16:43.314Z</time></trkpt><trkpt lat="42.2987224" lon="13.7763958"><ele>356.0</ele><time>2026-05-03T10:16:44.312Z</time></trkpt><trkpt lat="42.2986884" lon="13.7765647"><ele>356.0</ele><time>2026-05-03T10:16:45.313Z</time></trkpt><trkpt lat="42.2986527" lon="13.776714"><ele>356.0</ele><time>2026-05-03T10:16:46.307Z</time></trkpt><trkpt lat="42.2986168" lon="13.7768532"><ele>356.25</ele><time>2026-05-03T10:16:47.302Z</time></trkpt><trkpt lat="42.2985699" lon="13.7769998"><ele>356.5</ele><time>2026-05-03T10:16:48.308Z</time></trkpt><trkpt lat="42.2985227" lon="13.7771489"><ele>356.75</ele><time>2026-05-03T10:16:49.304Z</time></trkpt><trkpt lat="42.2984786" lon="13.7772883"><ele>357.0</ele><time>2026-05-03T10:16:50.305Z</time></trkpt><trkpt lat="42.2984495" lon="13.7774184"><ele>357.0</ele><time>2026-05-03T10:16:51.307Z</time></trkpt><trkpt lat="42.2984205" lon="13.7775415"><ele>357.0</ele><time>2026-05-03T10:16:52.306Z</time></trkpt><trkpt lat="42.2983954" lon="13.7776395"><ele>357.0</ele><time>2026-05-03T10:16:53.302Z</time></trkpt><trkpt lat="42.2983406" lon="13.7777689"><ele>357.0</ele><time>2026-05-03T10:16:55.305Z</time></trkpt><trkpt lat="42.2982885" lon="13.7778252"><ele>357.0</ele><time>2026-05-03T10:16:56.301Z</time></trkpt><trkpt lat="42.2982147" lon="13.7778702"><ele>357.0</ele><time>2026-05-03T10:16:57.307Z</time></trkpt><trkpt lat="42.2981263" lon="13.7779254"><ele>356.25</ele><time>2026-05-03T10:16:58.298Z</time></trkpt><trkpt lat="42.2980373" lon="13.77801"><ele>355.5</ele><time>2026-05-03T10:16:59.311Z</time></trkpt><trkpt lat="42.2979488" lon="13.7781415"><ele>354.75</ele><time>2026-05-03T10:17:00.302Z</time></trkpt><trkpt lat="42.2978465" lon="13.778277"><ele>354.0</ele><time>2026-05-03T10:17:01.305Z</time></trkpt><trkpt lat="42.2977403" lon="13.7783965"><ele>353.5</ele><time>2026-05-03T10:17:02.305Z</time></trkpt><trkpt lat="42.2976428" lon="13.7785301"><ele>353.0</ele><time>2026-05-03T10:17:03.305Z</time></trkpt><trkpt lat="42.2975612" lon="13.7786548"><ele>352.5</ele><time>2026-05-03T10:17:04.309Z</time></trkpt><trkpt lat="42.2974532" lon="13.7787569"><ele>352.0</ele><time>2026-05-03T10:17:05.311Z</time></trkpt><trkpt lat="42.2973468" lon="13.778864"><ele>351.0</ele><time>2026-05-03T10:17:06.306Z</time></trkpt><trkpt lat="42.2972289" lon="13.7789769"><ele>350.0</ele><time>2026-05-03T10:17:07.307Z</time></trkpt><trkpt lat="42.2971079" lon="13.7790852"><ele>349.0</ele><time>2026-05-03T10:17:08.31Z</time></trkpt><trkpt lat="42.2970074" lon="13.7791816"><ele>348.0</ele><time>2026-05-03T10:17:09.311Z</time></trkpt><trkpt lat="42.2969069" lon="13.7792705"><ele>348.75</ele><time>2026-05-03T10:17:10.309Z</time></trkpt><trkpt lat="42.2968248" lon="13.779379"><ele>349.5</ele><time>2026-05-03T10:17:11.305Z</time></trkpt><trkpt lat="42.2967419" lon="13.7795028"><ele>350.25</ele><time>2026-05-03T10:17:12.306Z</time></trkpt><trkpt lat="42.2966637" lon="13.7796377"><ele>351.0</ele><time>2026-05-03T10:17:13.307Z</time></trkpt><trkpt lat="42.2965836" lon="13.7797861"><ele>351.0</ele><time>2026-05-03T10:17:14.314Z</time></trkpt><trkpt lat="42.2964998" lon="13.7799433"><ele>351.0</ele><time>2026-05-03T10:17:15.31Z</time></trkpt><trkpt lat="42.2964188" lon="13.7800781"><ele>351.0</ele><time>2026-05-03T10:17:16.311Z</time></trkpt><trkpt lat="42.2963409" lon="13.7801943"><ele>351.0</ele><time>2026-05-03T10:17:17.306Z</time></trkpt><trkpt lat="42.2962733" lon="13.7803069"><ele>351.5</ele><time>2026-05-03T10:17:18.307Z</time></trkpt><trkpt lat="42.2962092" lon="13.7804302"><ele>352.0</ele><time>2026-05-03T10:17:19.305Z</time></trkpt><trkpt lat="42.2961504" lon="13.7805674"><ele>352.5</ele><time>2026-05-03T10:17:20.309Z</time></trkpt><trkpt lat="42.2961044" lon="13.7807098"><ele>353.0</ele><time>2026-05-03T10:17:21.309Z</time></trkpt><trkpt lat="42.2960355" lon="13.780838"><ele>353.0</ele><time>2026-05-03T10:17:22.309Z</time></trkpt><trkpt lat="42.29595" lon="13.7809747"><ele>353.0</ele><time>2026-05-03T10:17:23.309Z</time></trkpt><trkpt lat="42.2958622" lon="13.7811002"><ele>353.0</ele><time>2026-05-03T10:17:24.313Z</time></trkpt><trkpt lat="42.2957802" lon="13.7812271"><ele>353.0</ele><time>2026-05-03T10:17:25.312Z</time></trkpt><trkpt lat="42.2957021" lon="13.7813641"><ele>352.75</ele><time>2026-05-03T10:17:26.309Z</time></trkpt><trkpt lat="42.2956226" lon="13.7814847"><ele>352.5</ele><time>2026-05-03T10:17:27.3Z</time></trkpt><trkpt lat="42.2955522" lon="13.7815941"><ele>352.25</ele><time>2026-05-03T10:17:28.316Z</time></trkpt><trkpt lat="42.2954624" lon="13.7817093"><ele>352.0</ele><time>2026-05-03T10:17:29.309Z</time></trkpt><trkpt lat="42.2953694" lon="13.7818003"><ele>352.0</ele><time>2026-05-03T10:17:30.309Z</time></trkpt><trkpt lat="42.2952664" lon="13.7818769"><ele>352.0</ele><time>2026-05-03T10:17:31.317Z</time></trkpt><trkpt lat="42.2951672" lon="13.7819606"><ele>352.0</ele><time>2026-05-03T10:17:32.31Z</time></trkpt><trkpt lat="42.2950716" lon="13.7820469"><ele>352.0</ele><time>2026-05-03T10:17:33.31Z</time></trkpt><trkpt lat="42.294974" lon="13.7821468"><ele>352.0</ele><time>2026-05-03T10:17:34.306Z</time></trkpt><trkpt lat="42.2948806" lon="13.7822494"><ele>352.0</ele><time>2026-05-03T10:17:35.31Z</time></trkpt><trkpt lat="42.2947862" lon="13.7823552"><ele>352.0</ele><time>2026-05-03T10:17:36.31Z</time></trkpt><trkpt lat="42.2946925" lon="13.7824659"><ele>352.0</ele><time>2026-05-03T10:17:37.311Z</time></trkpt><trkpt lat="42.2946" lon="13.782574"><ele>351.5</ele><time>2026-05-03T10:17:38.304Z</time></trkpt><trkpt lat="42.2945085" lon="13.7826969"><ele>351.0</ele><time>2026-05-03T10:17:39.309Z</time></trkpt><trkpt lat="42.2944244" lon="13.7828243"><ele>350.5</ele><time>2026-05-03T10:17:40.314Z</time></trkpt><trkpt lat="42.2943417" lon="13.7829388"><ele>350.0</ele><time>2026-05-03T10:17:41.309Z</time></trkpt><trkpt lat="42.2942531" lon="13.7830541"><ele>350.0</ele><time>2026-05-03T10:17:42.307Z</time></trkpt><trkpt lat="42.2941708" lon="13.7831598"><ele>350.0</ele><time>2026-05-03T10:17:43.305Z</time></trkpt><trkpt lat="42.2940861" lon="13.7832722"><ele>350.0</ele><time>2026-05-03T10:17:44.311Z</time></trkpt><trkpt lat="42.2940118" lon="13.7833883"><ele>350.0</ele><time>2026-05-03T10:17:45.313Z</time></trkpt><trkpt lat="42.293938" lon="13.7835125"><ele>350.2</ele><time>2026-05-03T10:17:46.305Z</time></trkpt><trkpt lat="42.2938666" lon="13.7836356"><ele>350.4</ele><time>2026-05-03T10:17:47.308Z</time></trkpt><trkpt lat="42.2937925" lon="13.7837402"><ele>350.6</ele><time>2026-05-03T10:17:48.309Z</time></trkpt><trkpt lat="42.2937241" lon="13.7838343"><ele>350.8</ele><time>2026-05-03T10:17:49.307Z</time></trkpt><trkpt lat="42.2936529" lon="13.7839156"><ele>351.0</ele><time>2026-05-03T10:17:50.311Z</time></trkpt><trkpt lat="42.2935799" lon="13.7839946"><ele>351.0</ele><time>2026-05-03T10:17:51.309Z</time></trkpt><trkpt lat="42.2935061" lon="13.7840741"><ele>351.0</ele><time>2026-05-03T10:17:52.307Z</time></trkpt><trkpt lat="42.2934197" lon="13.784157"><ele>351.0</ele><time>2026-05-03T10:17:53.302Z</time></trkpt><trkpt lat="42.2933319" lon="13.7842414"><ele>351.0</ele><time>2026-05-03T10:17:54.308Z</time></trkpt><trkpt lat="42.2932412" lon="13.7843367"><ele>351.0</ele><time>2026-05-03T10:17:55.312Z</time></trkpt><trkpt lat="42.2931482" lon="13.784433"><ele>351.20000000000005</ele><time>2026-05-03T10:17:56.307Z</time></trkpt><trkpt lat="42.2930654" lon="13.7845085"><ele>351.40000000000003</ele><time>2026-05-03T10:17:57.307Z</time></trkpt><trkpt lat="42.2929907" lon="13.7845731"><ele>351.6</ele><time>2026-05-03T10:17:58.308Z</time></trkpt><trkpt lat="42.2929104" lon="13.7846308"><ele>351.8</ele><time>2026-05-03T10:17:59.316Z</time></trkpt><trkpt lat="42.2928218" lon="13.7846943"><ele>352.0</ele><time>2026-05-03T10:18:00.309Z</time></trkpt><trkpt lat="42.2927285" lon="13.7847451"><ele>352.0</ele><time>2026-05-03T10:18:01.31Z</time></trkpt><trkpt lat="42.2926452" lon="13.7847885"><ele>352.0</ele><time>2026-05-03T10:18:02.308Z</time></trkpt><trkpt lat="42.2925618" lon="13.7848345"><ele>352.0</ele><time>2026-05-03T10:18:03.306Z</time></trkpt><trkpt lat="42.292472" lon="13.7848851"><ele>352.0</ele><time>2026-05-03T10:18:04.305Z</time></trkpt><trkpt lat="42.2923746" lon="13.7849245"><ele>352.0</ele><time>2026-05-03T10:18:05.305Z</time></trkpt><trkpt lat="42.292276" lon="13.784966"><ele>352.20000000000005</ele><time>2026-05-03T10:18:06.305Z</time></trkpt><trkpt lat="42.2921735" lon="13.7850071"><ele>352.4</ele><time>2026-05-03T10:18:07.308Z</time></trkpt><trkpt lat="42.292076" lon="13.7850443"><ele>352.6</ele><time>2026-05-03T10:18:08.309Z</time></trkpt><trkpt lat="42.2919715" lon="13.7850823"><ele>352.79999999999995</ele><time>2026-05-03T10:18:09.308Z</time></trkpt><trkpt lat="42.2918594" lon="13.7851319"><ele>353.0</ele><time>2026-05-03T10:18:10.307Z</time></trkpt><trkpt lat="42.2917535" lon="13.7851927"><ele>353.0</ele><time>2026-05-03T10:18:11.304Z</time></trkpt><trkpt lat="42.2916554" lon="13.7852629"><ele>353.0</ele><time>2026-05-03T10:18:12.306Z</time></trkpt><trkpt lat="42.2915564" lon="13.7853424"><ele>353.0</ele><time>2026-05-03T10:18:13.304Z</time></trkpt><trkpt lat="42.2914702" lon="13.785417"><ele>353.0</ele><time>2026-05-03T10:18:14.305Z</time></trkpt><trkpt lat="42.2913893" lon="13.78549"><ele>353.0</ele><time>2026-05-03T10:18:15.3Z</time></trkpt><trkpt lat="42.2913131" lon="13.785541"><ele>352.59999999999997</ele><time>2026-05-03T10:18:16.304Z</time></trkpt><trkpt lat="42.2912239" lon="13.7855979"><ele>352.2</ele><time>2026-05-03T10:18:17.298Z</time></trkpt><trkpt lat="42.2911325" lon="13.7856533"><ele>351.8</ele><time>2026-05-03T10:18:18.309Z</time></trkpt><trkpt lat="42.2910425" lon="13.7857059"><ele>351.4</ele><time>2026-05-03T10:18:19.302Z</time></trkpt><trkpt lat="42.2909441" lon="13.7857632"><ele>351.0</ele><time>2026-05-03T10:18:20.299Z</time></trkpt><trkpt lat="42.2908649" lon="13.785834"><ele>351.0</ele><time>2026-05-03T10:18:21.306Z</time></trkpt><trkpt lat="42.2907911" lon="13.7858953"><ele>351.0</ele><time>2026-05-03T10:18:22.301Z</time></trkpt><trkpt lat="42.2907167" lon="13.7859587"><ele>351.0</ele><time>2026-05-03T10:18:23.307Z</time></trkpt><trkpt lat="42.2906334" lon="13.7860255"><ele>351.0</ele><time>2026-05-03T10:18:24.308Z</time></trkpt><trkpt lat="42.2905562" lon="13.786079"><ele>351.0</ele><time>2026-05-03T10:18:25.307Z</time></trkpt><trkpt lat="42.2904804" lon="13.7861288"><ele>351.0</ele><time>2026-05-03T10:18:26.304Z</time></trkpt><trkpt lat="42.2904027" lon="13.7861915"><ele>351.1666666666667</ele><time>2026-05-03T10:18:27.306Z</time></trkpt><trkpt lat="42.290338" lon="13.7862634"><ele>351.3333333333333</ele><time>2026-05-03T10:18:28.306Z</time></trkpt><trkpt lat="42.2902686" lon="13.7863292"><ele>351.5</ele><time>2026-05-03T10:18:29.303Z</time></trkpt><trkpt lat="42.2901917" lon="13.7863947"><ele>351.66666666666663</ele><time>2026-05-03T10:18:30.314Z</time></trkpt><trkpt lat="42.290117" lon="13.7864507"><ele>351.8333333333333</ele><time>2026-05-03T10:18:31.312Z</time></trkpt><trkpt lat="42.2900306" lon="13.7865069"><ele>352.0</ele><time>2026-05-03T10:18:32.303Z</time></trkpt><trkpt lat="42.2899456" lon="13.7865661"><ele>352.0</ele><time>2026-05-03T10:18:33.306Z</time></trkpt><trkpt lat="42.2898721" lon="13.7866196"><ele>352.0</ele><time>2026-05-03T10:18:34.306Z</time></trkpt><trkpt lat="42.2897963" lon="13.7866785"><ele>352.0</ele><time>2026-05-03T10:18:35.305Z</time></trkpt><trkpt lat="42.2897121" lon="13.7867425"><ele>352.0</ele><time>2026-05-03T10:18:36.306Z</time></trkpt><trkpt lat="42.2896215" lon="13.7868099"><ele>352.0</ele><time>2026-05-03T10:18:37.306Z</time></trkpt><trkpt lat="42.2895297" lon="13.7868864"><ele>352.6</ele><time>2026-05-03T10:18:38.305Z</time></trkpt><trkpt lat="42.2894388" lon="13.7869576"><ele>353.20000000000005</ele><time>2026-05-03T10:18:39.306Z</time></trkpt><trkpt lat="42.2893518" lon="13.7870241"><ele>353.8</ele><time>2026-05-03T10:18:40.304Z</time></trkpt><trkpt lat="42.2892666" lon="13.7870872"><ele>354.4</ele><time>2026-05-03T10:18:41.305Z</time></trkpt><trkpt lat="42.2891834" lon="13.787145"><ele>355.0</ele><time>2026-05-03T10:18:42.309Z</time></trkpt><trkpt lat="42.2891047" lon="13.7872118"><ele>355.0</ele><time>2026-05-03T10:18:43.31Z</time></trkpt><trkpt lat="42.2890321" lon="13.787277"><ele>355.0</ele><time>2026-05-03T10:18:44.31Z</time></trkpt><trkpt lat="42.2889643" lon="13.7873498"><ele>355.0</ele><time>2026-05-03T10:18:45.31Z</time></trkpt><trkpt lat="42.2888957" lon="13.7874213"><ele>355.0</ele><time>2026-05-03T10:18:46.31Z</time></trkpt><trkpt lat="42.2888146" lon="13.7874944"><ele>355.0</ele><time>2026-05-03T10:18:47.308Z</time></trkpt><trkpt lat="42.2887351" lon="13.7875588"><ele>355.0</ele><time>2026-05-03T10:18:48.31Z</time></trkpt><trkpt lat="42.2886553" lon="13.7876265"><ele>355.0</ele><time>2026-05-03T10:18:49.314Z</time></trkpt><trkpt lat="42.2885681" lon="13.7876969"><ele>355.0</ele><time>2026-05-03T10:18:50.311Z</time></trkpt><trkpt lat="42.288479" lon="13.787767"><ele>355.0</ele><time>2026-05-03T10:18:51.312Z</time></trkpt><trkpt lat="42.2883949" lon="13.7878323"><ele>355.0</ele><time>2026-05-03T10:18:52.313Z</time></trkpt><trkpt lat="42.288313" lon="13.7878956"><ele>356.0</ele><time>2026-05-03T10:18:53.312Z</time></trkpt><trkpt lat="42.2882276" lon="13.787965"><ele>357.0</ele><time>2026-05-03T10:18:54.312Z</time></trkpt><trkpt lat="42.2881426" lon="13.788021"><ele>358.0</ele><time>2026-05-03T10:18:55.312Z</time></trkpt><trkpt lat="42.2880545" lon="13.7880673"><ele>359.0</ele><time>2026-05-03T10:18:56.301Z</time></trkpt><trkpt lat="42.2879579" lon="13.7880881"><ele>360.0</ele><time>2026-05-03T10:18:57.303Z</time></trkpt><trkpt lat="42.2878602" lon="13.7880994"><ele>360.4</ele><time>2026-05-03T10:18:58.306Z</time></trkpt><trkpt lat="42.2877577" lon="13.7881217"><ele>360.8</ele><time>2026-05-03T10:18:59.303Z</time></trkpt><trkpt lat="42.2876594" lon="13.7881655"><ele>361.20000000000005</ele><time>2026-05-03T10:19:00.312Z</time></trkpt><trkpt lat="42.2875591" lon="13.7882251"><ele>361.6</ele><time>2026-05-03T10:19:01.306Z</time></trkpt><trkpt lat="42.2874564" lon="13.7882872"><ele>362.0</ele><time>2026-05-03T10:19:02.3Z</time></trkpt><trkpt lat="42.2873588" lon="13.7883386"><ele>362.0</ele><time>2026-05-03T10:19:03.298Z</time></trkpt><trkpt lat="42.2872598" lon="13.7883842"><ele>362.0</ele><time>2026-05-03T10:19:04.291Z</time></trkpt><trkpt lat="42.2871682" lon="13.7884353"><ele>362.0</ele><time>2026-05-03T10:19:05.292Z</time></trkpt><trkpt lat="42.2870791" lon="13.7884833"><ele>362.0</ele><time>2026-05-03T10:19:06.3Z</time></trkpt><trkpt lat="42.2869843" lon="13.7885535"><ele>362.0</ele><time>2026-05-03T10:19:07.299Z</time></trkpt><trkpt lat="42.2869058" lon="13.7886009"><ele>362.0</ele><time>2026-05-03T10:19:08.305Z</time></trkpt><trkpt lat="42.2868308" lon="13.7886394"><ele>362.0</ele><time>2026-05-03T10:19:09.303Z</time></trkpt><trkpt lat="42.2867721" lon="13.7886749"><ele>362.0</ele><time>2026-05-03T10:19:10.308Z</time></trkpt><trkpt lat="42.2866663" lon="13.7887053"><ele>362.0</ele><time>2026-05-03T10:19:12.295Z</time></trkpt><trkpt lat="42.2866105" lon="13.7886388"><ele>362.0</ele><time>2026-05-03T10:19:14.308Z</time></trkpt><trkpt lat="42.2865852" lon="13.7885447"><ele>362.0</ele><time>2026-05-03T10:19:16.314Z</time></trkpt><trkpt lat="42.2865804" lon="13.7884452"><ele>361.20000000000005</ele><time>2026-05-03T10:19:18.315Z</time></trkpt><trkpt lat="42.2865751" lon="13.7883268"><ele>360.4</ele><time>2026-05-03T10:19:20.3Z</time></trkpt><trkpt lat="42.286558" lon="13.7882212"><ele>359.6</ele><time>2026-05-03T10:19:21.302Z</time></trkpt><trkpt lat="42.2865466" lon="13.7880874"><ele>358.79999999999995</ele><time>2026-05-03T10:19:22.305Z</time></trkpt><trkpt lat="42.2865334" lon="13.7879267"><ele>358.0</ele><time>2026-05-03T10:19:23.307Z</time></trkpt><trkpt lat="42.2865155" lon="13.787765"><ele>356.75</ele><time>2026-05-03T10:19:24.308Z</time></trkpt><trkpt lat="42.2864993" lon="13.7876064"><ele>355.5</ele><time>2026-05-03T10:19:25.309Z</time></trkpt><trkpt lat="42.2864833" lon="13.7874319"><ele>354.25</ele><time>2026-05-03T10:19:26.303Z</time></trkpt><trkpt lat="42.2864686" lon="13.7872465"><ele>353.0</ele><time>2026-05-03T10:19:27.312Z</time></trkpt><trkpt lat="42.286445" lon="13.7870629"><ele>352.25</ele><time>2026-05-03T10:19:28.315Z</time></trkpt><trkpt lat="42.2864279" lon="13.7868811"><ele>351.5</ele><time>2026-05-03T10:19:29.317Z</time></trkpt><trkpt lat="42.286399" lon="13.7867097"><ele>350.75</ele><time>2026-05-03T10:19:30.315Z</time></trkpt><trkpt lat="42.2863647" lon="13.7865305"><ele>350.0</ele><time>2026-05-03T10:19:31.323Z</time></trkpt><trkpt lat="42.2863322" lon="13.7863365"><ele>348.0</ele><time>2026-05-03T10:19:32.311Z</time></trkpt><trkpt lat="42.2863037" lon="13.7861149"><ele>346.0</ele><time>2026-05-03T10:19:33.304Z</time></trkpt><trkpt lat="42.2862635" lon="13.7858952"><ele>344.0</ele><time>2026-05-03T10:19:34.301Z</time></trkpt><trkpt lat="42.2862393" lon="13.7856622"><ele>343.75</ele><time>2026-05-03T10:19:35.307Z</time></trkpt><trkpt lat="42.2862175" lon="13.7854571"><ele>343.5</ele><time>2026-05-03T10:19:36.305Z</time></trkpt><trkpt lat="42.2862021" lon="13.7852744"><ele>343.25</ele><time>2026-05-03T10:19:37.307Z</time></trkpt><trkpt lat="42.2861826" lon="13.7850898"><ele>343.0</ele><time>2026-05-03T10:19:38.31Z</time></trkpt><trkpt lat="42.2861567" lon="13.7848907"><ele>343.0</ele><time>2026-05-03T10:19:39.309Z</time></trkpt><trkpt lat="42.2861252" lon="13.7846879"><ele>343.0</ele><time>2026-05-03T10:19:40.312Z</time></trkpt><trkpt lat="42.2860989" lon="13.7844882"><ele>343.0</ele><time>2026-05-03T10:19:41.307Z</time></trkpt><trkpt lat="42.2860684" lon="13.7842858"><ele>343.66666666666663</ele><time>2026-05-03T10:19:42.312Z</time></trkpt><trkpt lat="42.286038" lon="13.7840751"><ele>344.3333333333333</ele><time>2026-05-03T10:19:43.309Z</time></trkpt><trkpt lat="42.2860316" lon="13.78385"><ele>345.0</ele><time>2026-05-03T10:19:44.31Z</time></trkpt><trkpt lat="42.2859967" lon="13.7836378"><ele>345.3333333333333</ele><time>2026-05-03T10:19:45.311Z</time></trkpt><trkpt lat="42.2859691" lon="13.7834279"><ele>345.66666666666663</ele><time>2026-05-03T10:19:46.312Z</time></trkpt><trkpt lat="42.2859493" lon="13.7832134"><ele>346.0</ele><time>2026-05-03T10:19:47.31Z</time></trkpt><trkpt lat="42.285929" lon="13.7830039"><ele>346.0</ele><time>2026-05-03T10:19:48.309Z</time></trkpt><trkpt lat="42.2858983" lon="13.7827717"><ele>346.0</ele><time>2026-05-03T10:19:49.313Z</time></trkpt><trkpt lat="42.2858637" lon="13.7825541"><ele>346.0</ele><time>2026-05-03T10:19:50.312Z</time></trkpt><trkpt lat="42.2858206" lon="13.7823354"><ele>345.3333333333333</ele><time>2026-05-03T10:19:51.313Z</time></trkpt><trkpt lat="42.2857542" lon="13.782137"><ele>344.6666666666667</ele><time>2026-05-03T10:19:52.31Z</time></trkpt><trkpt lat="42.2856736" lon="13.7819455"><ele>344.0</ele><time>2026-05-03T10:19:53.305Z</time></trkpt><trkpt lat="42.2855898" lon="13.7817493"><ele>344.0</ele><time>2026-05-03T10:19:54.311Z</time></trkpt><trkpt lat="42.285507" lon="13.7815523"><ele>344.0</ele><time>2026-05-03T10:19:55.312Z</time></trkpt><trkpt lat="42.2854239" lon="13.7813509"><ele>344.0</ele><time>2026-05-03T10:19:56.309Z</time></trkpt><trkpt lat="42.2853463" lon="13.7811467"><ele>343.6666666666667</ele><time>2026-05-03T10:19:57.319Z</time></trkpt><trkpt lat="42.2852682" lon="13.780942"><ele>343.3333333333333</ele><time>2026-05-03T10:19:58.317Z</time></trkpt><trkpt lat="42.2851821" lon="13.7807379"><ele>343.0</ele><time>2026-05-03T10:19:59.317Z</time></trkpt><trkpt lat="42.2850943" lon="13.7805317"><ele>343.0</ele><time>2026-05-03T10:20:00.318Z</time></trkpt><trkpt lat="42.2850093" lon="13.7803209"><ele>343.0</ele><time>2026-05-03T10:20:01.322Z</time></trkpt><trkpt lat="42.2849294" lon="13.7801182"><ele>343.0</ele><time>2026-05-03T10:20:02.324Z</time></trkpt><trkpt lat="42.2848516" lon="13.7799232"><ele>343.0</ele><time>2026-05-03T10:20:03.315Z</time></trkpt><trkpt lat="42.2847697" lon="13.7797306"><ele>343.0</ele><time>2026-05-03T10:20:04.318Z</time></trkpt><trkpt lat="42.2846974" lon="13.7795431"><ele>343.0</ele><time>2026-05-03T10:20:05.317Z</time></trkpt><trkpt lat="42.2846242" lon="13.7793489"><ele>343.0</ele><time>2026-05-03T10:20:06.316Z</time></trkpt><trkpt lat="42.2845424" lon="13.7791557"><ele>343.0</ele><time>2026-05-03T10:20:07.315Z</time></trkpt><trkpt lat="42.2844681" lon="13.778963"><ele>343.0</ele><time>2026-05-03T10:20:08.314Z</time></trkpt><trkpt lat="42.2843852" lon="13.7787653"><ele>343.0</ele><time>2026-05-03T10:20:09.313Z</time></trkpt><trkpt lat="42.2843028" lon="13.7785725"><ele>343.0</ele><time>2026-05-03T10:20:10.314Z</time></trkpt><trkpt lat="42.2842256" lon="13.7783828"><ele>343.0</ele><time>2026-05-03T10:20:11.313Z</time></trkpt><trkpt lat="42.2841464" lon="13.778193"><ele>343.3333333333333</ele><time>2026-05-03T10:20:12.312Z</time></trkpt><trkpt lat="42.2840705" lon="13.7780048"><ele>343.6666666666667</ele><time>2026-05-03T10:20:13.313Z</time></trkpt><trkpt lat="42.2839955" lon="13.7778212"><ele>344.0</ele><time>2026-05-03T10:20:14.312Z</time></trkpt><trkpt lat="42.2839241" lon="13.7776308"><ele>344.33333333333337</ele><time>2026-05-03T10:20:15.315Z</time></trkpt><trkpt lat="42.2838512" lon="13.7774437"><ele>344.6666666666667</ele><time>2026-05-03T10:20:16.312Z</time></trkpt><trkpt lat="42.2837683" lon="13.7772589"><ele>345.0</ele><time>2026-05-03T10:20:17.312Z</time></trkpt><trkpt lat="42.2836869" lon="13.7770724"><ele>345.0</ele><time>2026-05-03T10:20:18.311Z</time></trkpt><trkpt lat="42.2836084" lon="13.776883"><ele>345.0</ele><time>2026-05-03T10:20:19.308Z</time></trkpt><trkpt lat="42.2835313" lon="13.7766974"><ele>345.0</ele><time>2026-05-03T10:20:20.317Z</time></trkpt><trkpt lat="42.283457" lon="13.776505"><ele>345.0</ele><time>2026-05-03T10:20:21.311Z</time></trkpt><trkpt lat="42.2833822" lon="13.7763025"><ele>345.0</ele><time>2026-05-03T10:20:22.318Z</time></trkpt><trkpt lat="42.283298" lon="13.7760922"><ele>345.0</ele><time>2026-05-03T10:20:23.31Z</time></trkpt><trkpt lat="42.2832065" lon="13.7758679"><ele>345.0</ele><time>2026-05-03T10:20:24.311Z</time></trkpt><trkpt lat="42.2831175" lon="13.7756638"><ele>345.0</ele><time>2026-05-03T10:20:25.314Z</time></trkpt><trkpt lat="42.2830404" lon="13.7754873"><ele>345.0</ele><time>2026-05-03T10:20:26.309Z</time></trkpt><trkpt lat="42.2829744" lon="13.7753311"><ele>345.75</ele><time>2026-05-03T10:20:27.31Z</time></trkpt><trkpt lat="42.282898" lon="13.7751675"><ele>346.5</ele><time>2026-05-03T10:20:28.306Z</time></trkpt><trkpt lat="42.2828141" lon="13.7750191"><ele>347.25</ele><time>2026-05-03T10:20:29.305Z</time></trkpt><trkpt lat="42.2827018" lon="13.7748753"><ele>348.0</ele><time>2026-05-03T10:20:30.307Z</time></trkpt><trkpt lat="42.2825958" lon="13.774762"><ele>348.0</ele><time>2026-05-03T10:20:31.286Z</time></trkpt><trkpt lat="42.2824568" lon="13.7746894"><ele>348.0</ele><time>2026-05-03T10:20:32.298Z</time></trkpt><trkpt lat="42.28229" lon="13.7746501"><ele>348.0</ele><time>2026-05-03T10:20:33.312Z</time></trkpt><trkpt lat="42.2821184" lon="13.7746213"><ele>348.25</ele><time>2026-05-03T10:20:34.302Z</time></trkpt><trkpt lat="42.2819608" lon="13.7745905"><ele>348.5</ele><time>2026-05-03T10:20:35.298Z</time></trkpt><trkpt lat="42.2818174" lon="13.7745494"><ele>348.75</ele><time>2026-05-03T10:20:36.302Z</time></trkpt><trkpt lat="42.2816893" lon="13.774481"><ele>349.0</ele><time>2026-05-03T10:20:37.295Z</time></trkpt><trkpt lat="42.2815808" lon="13.7743994"><ele>349.5</ele><time>2026-05-03T10:20:38.298Z</time></trkpt><trkpt lat="42.2814921" lon="13.7742731"><ele>350.0</ele><time>2026-05-03T10:20:39.299Z</time></trkpt><trkpt lat="42.2814001" lon="13.774136"><ele>350.5</ele><time>2026-05-03T10:20:40.306Z</time></trkpt><trkpt lat="42.2812967" lon="13.7739886"><ele>351.0</ele><time>2026-05-03T10:20:41.31Z</time></trkpt><trkpt lat="42.2811871" lon="13.7738532"><ele>351.0</ele><time>2026-05-03T10:20:42.309Z</time></trkpt><trkpt lat="42.2810691" lon="13.7737037"><ele>351.0</ele><time>2026-05-03T10:20:43.309Z</time></trkpt><trkpt lat="42.280958" lon="13.7735673"><ele>351.0</ele><time>2026-05-03T10:20:44.307Z</time></trkpt><trkpt lat="42.2808611" lon="13.773407"><ele>351.5</ele><time>2026-05-03T10:20:45.302Z</time></trkpt><trkpt lat="42.2807869" lon="13.7732301"><ele>352.0</ele><time>2026-05-03T10:20:46.309Z</time></trkpt><trkpt lat="42.2807102" lon="13.7730606"><ele>352.5</ele><time>2026-05-03T10:20:47.306Z</time></trkpt><trkpt lat="42.2806272" lon="13.7728995"><ele>353.0</ele><time>2026-05-03T10:20:48.308Z</time></trkpt><trkpt lat="42.2805415" lon="13.7727362"><ele>353.5</ele><time>2026-05-03T10:20:49.313Z</time></trkpt><trkpt lat="42.2804527" lon="13.7725793"><ele>354.0</ele><time>2026-05-03T10:20:50.311Z</time></trkpt><trkpt lat="42.2803675" lon="13.7724272"><ele>354.5</ele><time>2026-05-03T10:20:51.316Z</time></trkpt><trkpt lat="42.2802887" lon="13.7722895"><ele>355.0</ele><time>2026-05-03T10:20:52.31Z</time></trkpt><trkpt lat="42.2802031" lon="13.7721833"><ele>355.0</ele><time>2026-05-03T10:20:53.319Z</time></trkpt><trkpt lat="42.2800948" lon="13.7721029"><ele>355.0</ele><time>2026-05-03T10:20:54.315Z</time></trkpt><trkpt lat="42.2799903" lon="13.7720396"><ele>355.0</ele><time>2026-05-03T10:20:55.319Z</time></trkpt><trkpt lat="42.2798931" lon="13.7719714"><ele>355.0</ele><time>2026-05-03T10:20:56.313Z</time></trkpt><trkpt lat="42.2798094" lon="13.7719106"><ele>355.0</ele><time>2026-05-03T10:20:57.31Z</time></trkpt><trkpt lat="42.2797331" lon="13.771831"><ele>355.4</ele><time>2026-05-03T10:20:58.315Z</time></trkpt><trkpt lat="42.2796656" lon="13.7717139"><ele>355.8</ele><time>2026-05-03T10:20:59.305Z</time></trkpt><trkpt lat="42.2796091" lon="13.7715853"><ele>356.20000000000005</ele><time>2026-05-03T10:21:00.308Z</time></trkpt><trkpt lat="42.2795604" lon="13.7714492"><ele>356.6</ele><time>2026-05-03T10:21:01.319Z</time></trkpt><trkpt lat="42.279512" lon="13.7713217"><ele>357.0</ele><time>2026-05-03T10:21:02.304Z</time></trkpt><trkpt lat="42.2794773" lon="13.7711803"><ele>357.0</ele><time>2026-05-03T10:21:03.315Z</time></trkpt><trkpt lat="42.2794372" lon="13.7710409"><ele>357.0</ele><time>2026-05-03T10:21:04.322Z</time></trkpt><trkpt lat="42.2793909" lon="13.7709091"><ele>357.0</ele><time>2026-05-03T10:21:05.312Z</time></trkpt><trkpt lat="42.2793404" lon="13.7707692"><ele>357.0</ele><time>2026-05-03T10:21:06.314Z</time></trkpt><trkpt lat="42.2792956" lon="13.7706161"><ele>357.5</ele><time>2026-05-03T10:21:07.316Z</time></trkpt><trkpt lat="42.2792431" lon="13.7704588"><ele>358.0</ele><time>2026-05-03T10:21:08.316Z</time></trkpt><trkpt lat="42.2791867" lon="13.7703081"><ele>358.5</ele><time>2026-05-03T10:21:09.315Z</time></trkpt><trkpt lat="42.2791291" lon="13.770173"><ele>359.0</ele><time>2026-05-03T10:21:10.314Z</time></trkpt><trkpt lat="42.2790802" lon="13.7700332"><ele>359.2</ele><time>2026-05-03T10:21:11.316Z</time></trkpt><trkpt lat="42.2790282" lon="13.7698976"><ele>359.4</ele><time>2026-05-03T10:21:12.316Z</time></trkpt><trkpt lat="42.2789828" lon="13.7697757"><ele>359.6</ele><time>2026-05-03T10:21:13.317Z</time></trkpt><trkpt lat="42.2789337" lon="13.769668"><ele>359.8</ele><time>2026-05-03T10:21:14.316Z</time></trkpt><trkpt lat="42.2788963" lon="13.769563"><ele>360.0</ele><time>2026-05-03T10:21:15.313Z</time></trkpt><trkpt lat="42.278872" lon="13.769476"><ele>360.0</ele><time>2026-05-03T10:21:16.316Z</time></trkpt><trkpt lat="42.2788154" lon="13.7693729"><ele>360.0</ele><time>2026-05-03T10:21:18.312Z</time></trkpt><trkpt lat="42.2787136" lon="13.7693872"><ele>360.0</ele><time>2026-05-03T10:21:20.317Z</time></trkpt><trkpt lat="42.2786496" lon="13.7694542"><ele>360.0</ele><time>2026-05-03T10:21:21.308Z</time></trkpt><trkpt lat="42.2785752" lon="13.7695394"><ele>360.0</ele><time>2026-05-03T10:21:22.318Z</time></trkpt><trkpt lat="42.2785027" lon="13.7696439"><ele>360.0</ele><time>2026-05-03T10:21:23.315Z</time></trkpt><trkpt lat="42.2784164" lon="13.7697502"><ele>360.0</ele><time>2026-05-03T10:21:24.309Z</time></trkpt><trkpt lat="42.2783248" lon="13.7698603"><ele>360.0</ele><time>2026-05-03T10:21:25.298Z</time></trkpt><trkpt lat="42.2782151" lon="13.7699889"><ele>360.0</ele><time>2026-05-03T10:21:26.308Z</time></trkpt><trkpt lat="42.2780987" lon="13.7701226"><ele>358.5</ele><time>2026-05-03T10:21:27.314Z</time></trkpt><trkpt lat="42.2779821" lon="13.7702461"><ele>357.0</ele><time>2026-05-03T10:21:28.313Z</time></trkpt><trkpt lat="42.2778674" lon="13.770363"><ele>355.5</ele><time>2026-05-03T10:21:29.313Z</time></trkpt><trkpt lat="42.277762" lon="13.7704754"><ele>354.0</ele><time>2026-05-03T10:21:30.32Z</time></trkpt><trkpt lat="42.2776671" lon="13.7705761"><ele>354.0</ele><time>2026-05-03T10:21:31.32Z</time></trkpt><trkpt lat="42.2775656" lon="13.7706701"><ele>354.0</ele><time>2026-05-03T10:21:32.308Z</time></trkpt><trkpt lat="42.2774505" lon="13.770728"><ele>354.0</ele><time>2026-05-03T10:21:33.305Z</time></trkpt><trkpt lat="42.277326" lon="13.7707437"><ele>354.0</ele><time>2026-05-03T10:21:34.306Z</time></trkpt><trkpt lat="42.2771955" lon="13.7707412"><ele>352.5</ele><time>2026-05-03T10:21:35.308Z</time></trkpt><trkpt lat="42.277061" lon="13.7707278"><ele>351.0</ele><time>2026-05-03T10:21:36.308Z</time></trkpt><trkpt lat="42.2769207" lon="13.7707139"><ele>349.5</ele><time>2026-05-03T10:21:37.311Z</time></trkpt><trkpt lat="42.2767748" lon="13.7706946"><ele>348.0</ele><time>2026-05-03T10:21:38.309Z</time></trkpt><trkpt lat="42.2766135" lon="13.7706869"><ele>348.0</ele><time>2026-05-03T10:21:39.314Z</time></trkpt><trkpt lat="42.2764553" lon="13.770666"><ele>348.0</ele><time>2026-05-03T10:21:40.308Z</time></trkpt><trkpt lat="42.2762844" lon="13.7706389"><ele>348.0</ele><time>2026-05-03T10:21:41.312Z</time></trkpt><trkpt lat="42.276114" lon="13.7705966"><ele>346.6666666666667</ele><time>2026-05-03T10:21:42.303Z</time></trkpt><trkpt lat="42.275948" lon="13.7705668"><ele>345.33333333333337</ele><time>2026-05-03T10:21:43.307Z</time></trkpt><trkpt lat="42.275802" lon="13.7705306"><ele>344.0</ele><time>2026-05-03T10:21:44.309Z</time></trkpt><trkpt lat="42.2756638" lon="13.7705097"><ele>346.0</ele><time>2026-05-03T10:21:45.307Z</time></trkpt><trkpt lat="42.2755231" lon="13.770503"><ele>348.0</ele><time>2026-05-03T10:21:46.303Z</time></trkpt><trkpt lat="42.2754008" lon="13.770532"><ele>350.0</ele><time>2026-05-03T10:21:47.302Z</time></trkpt><trkpt lat="42.2752757" lon="13.7705818"><ele>352.0</ele><time>2026-05-03T10:21:48.307Z</time></trkpt><trkpt lat="42.2751642" lon="13.7706498"><ele>352.0</ele><time>2026-05-03T10:21:49.303Z</time></trkpt><trkpt lat="42.2750739" lon="13.7707265"><ele>352.0</ele><time>2026-05-03T10:21:50.309Z</time></trkpt><trkpt lat="42.2749899" lon="13.7708094"><ele>352.0</ele><time>2026-05-03T10:21:51.302Z</time></trkpt><trkpt lat="42.274925" lon="13.7709187"><ele>352.0</ele><time>2026-05-03T10:21:52.313Z</time></trkpt><trkpt lat="42.2748852" lon="13.7710418"><ele>352.0</ele><time>2026-05-03T10:21:53.311Z</time></trkpt><trkpt lat="42.2748698" lon="13.7711795"><ele>353.25</ele><time>2026-05-03T10:21:54.317Z</time></trkpt><trkpt lat="42.2748472" lon="13.7713289"><ele>354.5</ele><time>2026-05-03T10:21:55.32Z</time></trkpt><trkpt lat="42.274826" lon="13.7714846"><ele>355.75</ele><time>2026-05-03T10:21:56.313Z</time></trkpt><trkpt lat="42.274803" lon="13.7716491"><ele>357.0</ele><time>2026-05-03T10:21:57.317Z</time></trkpt><trkpt lat="42.2747664" lon="13.7718124"><ele>356.25</ele><time>2026-05-03T10:21:58.317Z</time></trkpt><trkpt lat="42.2747272" lon="13.7719797"><ele>355.5</ele><time>2026-05-03T10:21:59.315Z</time></trkpt><trkpt lat="42.274698" lon="13.7721469"><ele>354.75</ele><time>2026-05-03T10:22:00.318Z</time></trkpt><trkpt lat="42.2746582" lon="13.7722998"><ele>354.0</ele><time>2026-05-03T10:22:01.318Z</time></trkpt><trkpt lat="42.2746104" lon="13.7724449"><ele>354.0</ele><time>2026-05-03T10:22:02.315Z</time></trkpt><trkpt lat="42.274552" lon="13.7725881"><ele>354.0</ele><time>2026-05-03T10:22:03.308Z</time></trkpt><trkpt lat="42.2744725" lon="13.7727183"><ele>354.0</ele><time>2026-05-03T10:22:04.309Z</time></trkpt><trkpt lat="42.2743783" lon="13.7728272"><ele>354.0</ele><time>2026-05-03T10:22:05.314Z</time></trkpt><trkpt lat="42.2742809" lon="13.7729298"><ele>353.5</ele><time>2026-05-03T10:22:06.322Z</time></trkpt><trkpt lat="42.2741916" lon="13.7730343"><ele>353.0</ele><time>2026-05-03T10:22:07.305Z</time></trkpt><trkpt lat="42.274098" lon="13.7731447"><ele>352.5</ele><time>2026-05-03T10:22:08.306Z</time></trkpt><trkpt lat="42.2740062" lon="13.7732698"><ele>352.0</ele><time>2026-05-03T10:22:09.308Z</time></trkpt><trkpt lat="42.2739126" lon="13.7733871"><ele>352.5</ele><time>2026-05-03T10:22:10.309Z</time></trkpt><trkpt lat="42.2738124" lon="13.7735063"><ele>353.0</ele><time>2026-05-03T10:22:11.306Z</time></trkpt><trkpt lat="42.2737054" lon="13.7736301"><ele>353.5</ele><time>2026-05-03T10:22:12.306Z</time></trkpt><trkpt lat="42.2735864" lon="13.7737541"><ele>354.0</ele><time>2026-05-03T10:22:13.306Z</time></trkpt><trkpt lat="42.2734574" lon="13.7738973"><ele>354.0</ele><time>2026-05-03T10:22:14.309Z</time></trkpt><trkpt lat="42.2733378" lon="13.7740318"><ele>354.0</ele><time>2026-05-03T10:22:15.308Z</time></trkpt><trkpt lat="42.2732305" lon="13.774173"><ele>354.0</ele><time>2026-05-03T10:22:16.307Z</time></trkpt><trkpt lat="42.2731288" lon="13.7743324"><ele>355.0</ele><time>2026-05-03T10:22:17.303Z</time></trkpt><trkpt lat="42.2730293" lon="13.7744945"><ele>356.0</ele><time>2026-05-03T10:22:18.312Z</time></trkpt><trkpt lat="42.2729362" lon="13.7746537"><ele>357.0</ele><time>2026-05-03T10:22:19.307Z</time></trkpt><trkpt lat="42.2728437" lon="13.774823"><ele>357.0</ele><time>2026-05-03T10:22:20.311Z</time></trkpt><trkpt lat="42.2727568" lon="13.7749903"><ele>357.0</ele><time>2026-05-03T10:22:21.309Z</time></trkpt><trkpt lat="42.272662" lon="13.7751416"><ele>357.0</ele><time>2026-05-03T10:22:22.307Z</time></trkpt><trkpt lat="42.2725757" lon="13.7752732"><ele>357.0</ele><time>2026-05-03T10:22:23.308Z</time></trkpt><trkpt lat="42.2724945" lon="13.7754202"><ele>356.0</ele><time>2026-05-03T10:22:24.31Z</time></trkpt><trkpt lat="42.2724323" lon="13.7755457"><ele>355.0</ele><time>2026-05-03T10:22:25.31Z</time></trkpt><trkpt lat="42.2723758" lon="13.7756744"><ele>354.0</ele><time>2026-05-03T10:22:26.311Z</time></trkpt><trkpt lat="42.2723383" lon="13.7758092"><ele>353.0</ele><time>2026-05-03T10:22:27.306Z</time></trkpt><trkpt lat="42.2722993" lon="13.7759668"><ele>352.5</ele><time>2026-05-03T10:22:28.297Z</time></trkpt><trkpt lat="42.2722813" lon="13.7761308"><ele>352.0</ele><time>2026-05-03T10:22:29.295Z</time></trkpt><trkpt lat="42.2722708" lon="13.7763209"><ele>351.5</ele><time>2026-05-03T10:22:30.309Z</time></trkpt><trkpt lat="42.2722511" lon="13.7765342"><ele>351.0</ele><time>2026-05-03T10:22:31.309Z</time></trkpt><trkpt lat="42.2722267" lon="13.7767689"><ele>350.0</ele><time>2026-05-03T10:22:32.316Z</time></trkpt><trkpt lat="42.2721952" lon="13.777002"><ele>349.0</ele><time>2026-05-03T10:22:33.309Z</time></trkpt><trkpt lat="42.2721729" lon="13.777212"><ele>348.0</ele><time>2026-05-03T10:22:34.317Z</time></trkpt><trkpt lat="42.272155" lon="13.7774124"><ele>348.0</ele><time>2026-05-03T10:22:35.316Z</time></trkpt><trkpt lat="42.2721375" lon="13.7776105"><ele>348.0</ele><time>2026-05-03T10:22:36.318Z</time></trkpt><trkpt lat="42.2721143" lon="13.7778213"><ele>348.0</ele><time>2026-05-03T10:22:37.327Z</time></trkpt><trkpt lat="42.2721026" lon="13.7780359"><ele>347.3333333333333</ele><time>2026-05-03T10:22:38.314Z</time></trkpt><trkpt lat="42.272076" lon="13.7782384"><ele>346.66666666666663</ele><time>2026-05-03T10:22:39.317Z</time></trkpt><trkpt lat="42.2720569" lon="13.7784403"><ele>346.0</ele><time>2026-05-03T10:22:40.314Z</time></trkpt><trkpt lat="42.2720384" lon="13.7786384"><ele>345.25</ele><time>2026-05-03T10:22:41.314Z</time></trkpt><trkpt lat="42.272027" lon="13.7788306"><ele>344.5</ele><time>2026-05-03T10:22:42.312Z</time></trkpt><trkpt lat="42.2720025" lon="13.7790406"><ele>343.75</ele><time>2026-05-03T10:22:43.309Z</time></trkpt><trkpt lat="42.2719763" lon="13.779216"><ele>343.0</ele><time>2026-05-03T10:22:44.309Z</time></trkpt><trkpt lat="42.2719529" lon="13.7793657"><ele>342.4</ele><time>2026-05-03T10:22:45.309Z</time></trkpt><trkpt lat="42.2719278" lon="13.7795004"><ele>341.79999999999995</ele><time>2026-05-03T10:22:46.313Z</time></trkpt><trkpt lat="42.2718944" lon="13.7796261"><ele>341.2</ele><time>2026-05-03T10:22:47.31Z</time></trkpt><trkpt lat="42.2718604" lon="13.7797432"><ele>340.6</ele><time>2026-05-03T10:22:48.31Z</time></trkpt><trkpt lat="42.2718084" lon="13.779853"><ele>340.0</ele><time>2026-05-03T10:22:49.309Z</time></trkpt><trkpt lat="42.2717505" lon="13.7799638"><ele>340.0</ele><time>2026-05-03T10:22:50.308Z</time></trkpt><trkpt lat="42.2716715" lon="13.780069"><ele>340.0</ele><time>2026-05-03T10:22:51.304Z</time></trkpt><trkpt lat="42.2715885" lon="13.7801925"><ele>340.0</ele><time>2026-05-03T10:22:52.313Z</time></trkpt><trkpt lat="42.2714945" lon="13.7803198"><ele>340.0</ele><time>2026-05-03T10:22:53.306Z</time></trkpt><trkpt lat="42.271395" lon="13.780457"><ele>340.2</ele><time>2026-05-03T10:22:54.311Z</time></trkpt><trkpt lat="42.271314" lon="13.7805797"><ele>340.4</ele><time>2026-05-03T10:22:55.316Z</time></trkpt><trkpt lat="42.2712446" lon="13.780697"><ele>340.6</ele><time>2026-05-03T10:22:56.305Z</time></trkpt><trkpt lat="42.2711784" lon="13.7808139"><ele>340.8</ele><time>2026-05-03T10:22:57.307Z</time></trkpt><trkpt lat="42.2711263" lon="13.7809083"><ele>341.0</ele><time>2026-05-03T10:22:58.308Z</time></trkpt><trkpt lat="42.2710818" lon="13.7809855"><ele>340.1666666666667</ele><time>2026-05-03T10:22:59.31Z</time></trkpt><trkpt lat="42.2710352" lon="13.7810834"><ele>339.33333333333337</ele><time>2026-05-03T10:23:01.307Z</time></trkpt><trkpt lat="42.2709922" lon="13.7811625"><ele>338.5</ele><time>2026-05-03T10:23:04.302Z</time></trkpt><trkpt lat="42.270943" lon="13.7812244"><ele>337.6666666666667</ele><time>2026-05-03T10:23:06.302Z</time></trkpt><trkpt lat="42.2708563" lon="13.7813197"><ele>336.8333333333333</ele><time>2026-05-03T10:23:08.305Z</time></trkpt><trkpt lat="42.2707935" lon="13.7813848"><ele>336.0</ele><time>2026-05-03T10:23:09.302Z</time></trkpt><trkpt lat="42.2707091" lon="13.7814514"><ele>336.0</ele><time>2026-05-03T10:23:10.307Z</time></trkpt><trkpt lat="42.2706136" lon="13.781496"><ele>336.0</ele><time>2026-05-03T10:23:11.295Z</time></trkpt><trkpt lat="42.2705037" lon="13.7815361"><ele>336.0</ele><time>2026-05-03T10:23:12.298Z</time></trkpt><trkpt lat="42.2703934" lon="13.7816072"><ele>336.0</ele><time>2026-05-03T10:23:13.295Z</time></trkpt><trkpt lat="42.2702879" lon="13.7816886"><ele>336.0</ele><time>2026-05-03T10:23:14.297Z</time></trkpt><trkpt lat="42.2701892" lon="13.7817694"><ele>336.0</ele><time>2026-05-03T10:23:15.299Z</time></trkpt><trkpt lat="42.270089" lon="13.7818323"><ele>336.0</ele><time>2026-05-03T10:23:16.302Z</time></trkpt><trkpt lat="42.2700003" lon="13.7818932"><ele>336.0</ele><time>2026-05-03T10:23:17.3Z</time></trkpt><trkpt lat="42.2699197" lon="13.781931"><ele>336.0</ele><time>2026-05-03T10:23:18.305Z</time></trkpt><trkpt lat="42.2698431" lon="13.781961"><ele>336.6666666666667</ele><time>2026-05-03T10:23:19.303Z</time></trkpt><trkpt lat="42.2697643" lon="13.7819964"><ele>337.3333333333333</ele><time>2026-05-03T10:23:20.302Z</time></trkpt><trkpt lat="42.2696809" lon="13.7820281"><ele>338.0</ele><time>2026-05-03T10:23:21.301Z</time></trkpt><trkpt lat="42.2695951" lon="13.7820532"><ele>338.66666666666663</ele><time>2026-05-03T10:23:22.302Z</time></trkpt><trkpt lat="42.2695033" lon="13.7820916"><ele>339.3333333333333</ele><time>2026-05-03T10:23:23.3Z</time></trkpt><trkpt lat="42.2694369" lon="13.7821551"><ele>340.0</ele><time>2026-05-03T10:23:24.301Z</time></trkpt><trkpt lat="42.2693924" lon="13.782258"><ele>340.0</ele><time>2026-05-03T10:23:25.301Z</time></trkpt><trkpt lat="42.2693556" lon="13.7823681"><ele>340.0</ele><time>2026-05-03T10:23:26.304Z</time></trkpt><trkpt lat="42.2693307" lon="13.7824939"><ele>340.0</ele><time>2026-05-03T10:23:27.296Z</time></trkpt><trkpt lat="42.2693166" lon="13.7826332"><ele>340.0</ele><time>2026-05-03T10:23:28.295Z</time></trkpt><trkpt lat="42.2692997" lon="13.7827794"><ele>340.0</ele><time>2026-05-03T10:23:29.303Z</time></trkpt><trkpt lat="42.2692863" lon="13.7829406"><ele>340.0</ele><time>2026-05-03T10:23:30.307Z</time></trkpt><trkpt lat="42.2692654" lon="13.7830896"><ele>340.0</ele><time>2026-05-03T10:23:31.306Z</time></trkpt><trkpt lat="42.2692357" lon="13.7832406"><ele>340.0</ele><time>2026-05-03T10:23:32.307Z</time></trkpt><trkpt lat="42.2692061" lon="13.7833955"><ele>340.0</ele><time>2026-05-03T10:23:33.307Z</time></trkpt><trkpt lat="42.2691565" lon="13.783551"><ele>340.0</ele><time>2026-05-03T10:23:34.304Z</time></trkpt><trkpt lat="42.2691043" lon="13.7836976"><ele>340.0</ele><time>2026-05-03T10:23:35.311Z</time></trkpt><trkpt lat="42.2690476" lon="13.7838382"><ele>340.0</ele><time>2026-05-03T10:23:36.308Z</time></trkpt><trkpt lat="42.2689875" lon="13.7839896"><ele>340.0</ele><time>2026-05-03T10:23:37.311Z</time></trkpt><trkpt lat="42.2689117" lon="13.7841335"><ele>340.75</ele><time>2026-05-03T10:23:38.314Z</time></trkpt><trkpt lat="42.2688297" lon="13.784286"><ele>341.5</ele><time>2026-05-03T10:23:39.32Z</time></trkpt><trkpt lat="42.2687599" lon="13.7844365"><ele>342.25</ele><time>2026-05-03T10:23:40.313Z</time></trkpt><trkpt lat="42.2686705" lon="13.7845819"><ele>343.0</ele><time>2026-05-03T10:23:41.314Z</time></trkpt><trkpt lat="42.2685642" lon="13.7847143"><ele>343.0</ele><time>2026-05-03T10:23:42.312Z</time></trkpt><trkpt lat="42.2684533" lon="13.7848356"><ele>343.0</ele><time>2026-05-03T10:23:43.308Z</time></trkpt><trkpt lat="42.2683385" lon="13.7849558"><ele>343.0</ele><time>2026-05-03T10:23:44.312Z</time></trkpt><trkpt lat="42.2682172" lon="13.7850634"><ele>343.0</ele><time>2026-05-03T10:23:45.315Z</time></trkpt><trkpt lat="42.2680912" lon="13.785172"><ele>344.0</ele><time>2026-05-03T10:23:46.312Z</time></trkpt><trkpt lat="42.2679731" lon="13.7852697"><ele>345.0</ele><time>2026-05-03T10:23:47.311Z</time></trkpt><trkpt lat="42.2678541" lon="13.7853776"><ele>346.0</ele><time>2026-05-03T10:23:48.314Z</time></trkpt><trkpt lat="42.2677325" lon="13.7854715"><ele>347.0</ele><time>2026-05-03T10:23:49.311Z</time></trkpt><trkpt lat="42.2676241" lon="13.785575"><ele>347.0</ele><time>2026-05-03T10:23:50.311Z</time></trkpt><trkpt lat="42.2675204" lon="13.7857063"><ele>347.0</ele><time>2026-05-03T10:23:51.316Z</time></trkpt><trkpt lat="42.2674215" lon="13.7858364"><ele>347.0</ele><time>2026-05-03T10:23:52.313Z</time></trkpt><trkpt lat="42.2673078" lon="13.78596"><ele>347.0</ele><time>2026-05-03T10:23:53.31Z</time></trkpt><trkpt lat="42.2672153" lon="13.7860724"><ele>347.25</ele><time>2026-05-03T10:23:54.309Z</time></trkpt><trkpt lat="42.2671105" lon="13.786195"><ele>347.5</ele><time>2026-05-03T10:23:55.315Z</time></trkpt><trkpt lat="42.2670106" lon="13.7863123"><ele>347.75</ele><time>2026-05-03T10:23:56.31Z</time></trkpt><trkpt lat="42.2669093" lon="13.7864442"><ele>348.0</ele><time>2026-05-03T10:23:57.317Z</time></trkpt><trkpt lat="42.2668137" lon="13.7865744"><ele>348.0</ele><time>2026-05-03T10:23:58.304Z</time></trkpt><trkpt lat="42.266722" lon="13.7867002"><ele>348.0</ele><time>2026-05-03T10:23:59.324Z</time></trkpt><trkpt lat="42.266628" lon="13.7868399"><ele>348.0</ele><time>2026-05-03T10:24:00.314Z</time></trkpt><trkpt lat="42.2665477" lon="13.7869911"><ele>348.0</ele><time>2026-05-03T10:24:01.318Z</time></trkpt><trkpt lat="42.2664592" lon="13.7871439"><ele>348.5</ele><time>2026-05-03T10:24:02.317Z</time></trkpt><trkpt lat="42.2663705" lon="13.7872913"><ele>349.0</ele><time>2026-05-03T10:24:03.315Z</time></trkpt><trkpt lat="42.2662988" lon="13.7874226"><ele>349.5</ele><time>2026-05-03T10:24:04.319Z</time></trkpt><trkpt lat="42.2662371" lon="13.7875548"><ele>350.0</ele><time>2026-05-03T10:24:05.314Z</time></trkpt><trkpt lat="42.2661824" lon="13.7876748"><ele>349.4</ele><time>2026-05-03T10:24:06.307Z</time></trkpt><trkpt lat="42.2661346" lon="13.7877754"><ele>348.8</ele><time>2026-05-03T10:24:07.315Z</time></trkpt><trkpt lat="42.266082" lon="13.7878791"><ele>348.20000000000005</ele><time>2026-05-03T10:24:08.322Z</time></trkpt><trkpt lat="42.2660299" lon="13.7879839"><ele>347.6</ele><time>2026-05-03T10:24:09.312Z</time></trkpt><trkpt lat="42.265964" lon="13.7880805"><ele>347.0</ele><time>2026-05-03T10:24:10.323Z</time></trkpt><trkpt lat="42.265892" lon="13.7881835"><ele>347.0</ele><time>2026-05-03T10:24:11.323Z</time></trkpt><trkpt lat="42.2658201" lon="13.7882973"><ele>347.0</ele><time>2026-05-03T10:24:12.322Z</time></trkpt><trkpt lat="42.2657484" lon="13.7884066"><ele>347.0</ele><time>2026-05-03T10:24:13.321Z</time></trkpt><trkpt lat="42.2656765" lon="13.7885186"><ele>347.0</ele><time>2026-05-03T10:24:14.319Z</time></trkpt><trkpt lat="42.265607" lon="13.7886423"><ele>347.0</ele><time>2026-05-03T10:24:15.321Z</time></trkpt><trkpt lat="42.2655356" lon="13.7887644"><ele>347.75</ele><time>2026-05-03T10:24:16.325Z</time></trkpt><trkpt lat="42.2654613" lon="13.7888874"><ele>348.5</ele><time>2026-05-03T10:24:17.319Z</time></trkpt><trkpt lat="42.2653867" lon="13.789028"><ele>349.25</ele><time>2026-05-03T10:24:18.321Z</time></trkpt><trkpt lat="42.2653195" lon="13.789174"><ele>350.0</ele><time>2026-05-03T10:24:19.316Z</time></trkpt><trkpt lat="42.26526" lon="13.7893367"><ele>349.0</ele><time>2026-05-03T10:24:20.314Z</time></trkpt><trkpt lat="42.2652028" lon="13.789521"><ele>348.0</ele><time>2026-05-03T10:24:21.317Z</time></trkpt><trkpt lat="42.2651489" lon="13.7897182"><ele>347.0</ele><time>2026-05-03T10:24:22.325Z</time></trkpt><trkpt lat="42.2650738" lon="13.7899126"><ele>347.0</ele><time>2026-05-03T10:24:23.32Z</time></trkpt><trkpt lat="42.2650045" lon="13.7901248"><ele>347.0</ele><time>2026-05-03T10:24:24.319Z</time></trkpt><trkpt lat="42.2649309" lon="13.7903056"><ele>347.0</ele><time>2026-05-03T10:24:25.326Z</time></trkpt><trkpt lat="42.2648755" lon="13.7904905"><ele>346.5</ele><time>2026-05-03T10:24:26.32Z</time></trkpt><trkpt lat="42.2648212" lon="13.7906777"><ele>346.0</ele><time>2026-05-03T10:24:27.312Z</time></trkpt><trkpt lat="42.2647635" lon="13.7908543"><ele>345.5</ele><time>2026-05-03T10:24:28.316Z</time></trkpt><trkpt lat="42.2647083" lon="13.7910076"><ele>345.0</ele><time>2026-05-03T10:24:29.32Z</time></trkpt><trkpt lat="42.2646643" lon="13.7911661"><ele>345.8</ele><time>2026-05-03T10:24:30.324Z</time></trkpt><trkpt lat="42.2646251" lon="13.7913074"><ele>346.6</ele><time>2026-05-03T10:24:31.32Z</time></trkpt><trkpt lat="42.2645792" lon="13.7914419"><ele>347.4</ele><time>2026-05-03T10:24:32.321Z</time></trkpt><trkpt lat="42.2645379" lon="13.7915686"><ele>348.2</ele><time>2026-05-03T10:24:33.318Z</time></trkpt><trkpt lat="42.264494" lon="13.7916936"><ele>349.0</ele><time>2026-05-03T10:24:34.321Z</time></trkpt><trkpt lat="42.264453" lon="13.7918089"><ele>348.25</ele><time>2026-05-03T10:24:35.31Z</time></trkpt><trkpt lat="42.2644086" lon="13.7919437"><ele>347.5</ele><time>2026-05-03T10:24:36.319Z</time></trkpt><trkpt lat="42.2643768" lon="13.7920812"><ele>346.75</ele><time>2026-05-03T10:24:37.311Z</time></trkpt><trkpt lat="42.2643422" lon="13.7922311"><ele>346.0</ele><time>2026-05-03T10:24:38.316Z</time></trkpt><trkpt lat="42.2643038" lon="13.7923907"><ele>346.0</ele><time>2026-05-03T10:24:39.319Z</time></trkpt><trkpt lat="42.2642632" lon="13.7925641"><ele>346.0</ele><time>2026-05-03T10:24:40.317Z</time></trkpt><trkpt lat="42.2642126" lon="13.7927504"><ele>346.0</ele><time>2026-05-03T10:24:41.323Z</time></trkpt><trkpt lat="42.2641587" lon="13.7929586"><ele>346.0</ele><time>2026-05-03T10:24:42.314Z</time></trkpt><trkpt lat="42.2640903" lon="13.7931608"><ele>346.0</ele><time>2026-05-03T10:24:43.318Z</time></trkpt><trkpt lat="42.2640131" lon="13.7933648"><ele>346.0</ele><time>2026-05-03T10:24:44.318Z</time></trkpt><trkpt lat="42.2639372" lon="13.7935702"><ele>346.0</ele><time>2026-05-03T10:24:45.317Z</time></trkpt><trkpt lat="42.2638811" lon="13.7937671"><ele>346.0</ele><time>2026-05-03T10:24:46.312Z</time></trkpt><trkpt lat="42.263835" lon="13.7939377"><ele>346.0</ele><time>2026-05-03T10:24:47.318Z</time></trkpt><trkpt lat="42.2637806" lon="13.7941036"><ele>346.0</ele><time>2026-05-03T10:24:48.314Z</time></trkpt><trkpt lat="42.2637214" lon="13.7942527"><ele>346.0</ele><time>2026-05-03T10:24:49.31Z</time></trkpt><trkpt lat="42.2636604" lon="13.7943802"><ele>345.0</ele><time>2026-05-03T10:24:50.315Z</time></trkpt><trkpt lat="42.2635941" lon="13.7945022"><ele>344.0</ele><time>2026-05-03T10:24:51.313Z</time></trkpt><trkpt lat="42.2635271" lon="13.7946274"><ele>343.0</ele><time>2026-05-03T10:24:52.317Z</time></trkpt><trkpt lat="42.2634464" lon="13.794752"><ele>342.0</ele><time>2026-05-03T10:24:53.314Z</time></trkpt><trkpt lat="42.2633685" lon="13.7948659"><ele>342.0</ele><time>2026-05-03T10:24:54.315Z</time></trkpt><trkpt lat="42.2632844" lon="13.7950032"><ele>342.0</ele><time>2026-05-03T10:24:55.313Z</time></trkpt><trkpt lat="42.2632093" lon="13.7951362"><ele>342.0</ele><time>2026-05-03T10:24:56.311Z</time></trkpt><trkpt lat="42.2631291" lon="13.7952653"><ele>342.0</ele><time>2026-05-03T10:24:57.31Z</time></trkpt><trkpt lat="42.2630485" lon="13.7954094"><ele>342.8</ele><time>2026-05-03T10:24:58.308Z</time></trkpt><trkpt lat="42.2629707" lon="13.7955484"><ele>343.6</ele><time>2026-05-03T10:24:59.305Z</time></trkpt><trkpt lat="42.2628965" lon="13.79567"><ele>344.40000000000003</ele><time>2026-05-03T10:25:00.31Z</time></trkpt><trkpt lat="42.2628318" lon="13.7957837"><ele>345.20000000000005</ele><time>2026-05-03T10:25:01.314Z</time></trkpt><trkpt lat="42.2627745" lon="13.7958795"><ele>346.0</ele><time>2026-05-03T10:25:02.31Z</time></trkpt><trkpt lat="42.2627207" lon="13.7959719"><ele>345.6</ele><time>2026-05-03T10:25:03.307Z</time></trkpt><trkpt lat="42.2626682" lon="13.7960488"><ele>345.20000000000005</ele><time>2026-05-03T10:25:04.312Z</time></trkpt><trkpt lat="42.2626223" lon="13.7961308"><ele>344.79999999999995</ele><time>2026-05-03T10:25:05.314Z</time></trkpt><trkpt lat="42.2625662" lon="13.7962471"><ele>344.4</ele><time>2026-05-03T10:25:07.306Z</time></trkpt><trkpt lat="42.2626417" lon="13.7963341"><ele>344.0</ele><time>2026-05-03T10:25:09.309Z</time></trkpt><trkpt lat="42.2627834" lon="13.7963729"><ele>344.0</ele><time>2026-05-03T10:25:11.306Z</time></trkpt><trkpt lat="42.2628893" lon="13.7963781"><ele>344.0</ele><time>2026-05-03T10:25:12.322Z</time></trkpt><trkpt lat="42.2630086" lon="13.7963799"><ele>344.0</ele><time>2026-05-03T10:25:13.315Z</time></trkpt><trkpt lat="42.2631213" lon="13.7963812"><ele>344.0</ele><time>2026-05-03T10:25:14.322Z</time></trkpt><trkpt lat="42.2632376" lon="13.7963907"><ele>342.75</ele><time>2026-05-03T10:25:15.32Z</time></trkpt><trkpt lat="42.2633478" lon="13.7964132"><ele>341.5</ele><time>2026-05-03T10:25:16.316Z</time></trkpt><trkpt lat="42.2634703" lon="13.7964446"><ele>340.25</ele><time>2026-05-03T10:25:17.314Z</time></trkpt><trkpt lat="42.2636098" lon="13.7964769"><ele>339.0</ele><time>2026-05-03T10:25:18.319Z</time></trkpt><trkpt lat="42.2637384" lon="13.796514"><ele>339.0</ele><time>2026-05-03T10:25:19.319Z</time></trkpt><trkpt lat="42.2638677" lon="13.7965427"><ele>339.0</ele><time>2026-05-03T10:25:20.32Z</time></trkpt><trkpt lat="42.2639958" lon="13.796567"><ele>339.0</ele><time>2026-05-03T10:25:21.325Z</time></trkpt><trkpt lat="42.2641178" lon="13.7965984"><ele>339.0</ele><time>2026-05-03T10:25:22.323Z</time></trkpt><trkpt lat="42.264238" lon="13.7966325"><ele>338.2</ele><time>2026-05-03T10:25:23.317Z</time></trkpt><trkpt lat="42.2643526" lon="13.7966787"><ele>337.4</ele><time>2026-05-03T10:25:24.316Z</time></trkpt><trkpt lat="42.2644511" lon="13.796754"><ele>336.6</ele><time>2026-05-03T10:25:25.318Z</time></trkpt><trkpt lat="42.2645351" lon="13.7968531"><ele>335.8</ele><time>2026-05-03T10:25:26.318Z</time></trkpt><trkpt lat="42.2646065" lon="13.7969518"><ele>335.0</ele><time>2026-05-03T10:25:27.318Z</time></trkpt><trkpt lat="42.2646693" lon="13.7970499"><ele>333.6</ele><time>2026-05-03T10:25:28.316Z</time></trkpt><trkpt lat="42.2647281" lon="13.7971563"><ele>332.2</ele><time>2026-05-03T10:25:29.32Z</time></trkpt><trkpt lat="42.2647869" lon="13.7972702"><ele>330.79999999999995</ele><time>2026-05-03T10:25:30.317Z</time></trkpt><trkpt lat="42.2648317" lon="13.7973929"><ele>329.4</ele><time>2026-05-03T10:25:31.311Z</time></trkpt><trkpt lat="42.2648542" lon="13.7975015"><ele>328.0</ele><time>2026-05-03T10:25:32.314Z</time></trkpt><trkpt lat="42.2648601" lon="13.7976558"><ele>327.66666666666663</ele><time>2026-05-03T10:25:34.301Z</time></trkpt><trkpt lat="42.2648569" lon="13.7977408"><ele>327.3333333333333</ele><time>2026-05-03T10:27:18.302Z</time></trkpt><trkpt lat="42.2648705" lon="13.7978623"><ele>327.0</ele><time>2026-05-03T10:27:20.305Z</time></trkpt><trkpt lat="42.2648804" lon="13.7979662"><ele>326.6666666666667</ele><time>2026-05-03T10:27:21.315Z</time></trkpt><trkpt lat="42.2648903" lon="13.7980792"><ele>326.33333333333337</ele><time>2026-05-03T10:27:22.314Z</time></trkpt><trkpt lat="42.2648962" lon="13.7981815"><ele>326.0</ele><time>2026-05-03T10:27:23.311Z</time></trkpt><trkpt lat="42.2649109" lon="13.79829"><ele>326.0</ele><time>2026-05-03T10:27:24.314Z</time></trkpt><trkpt lat="42.2649325" lon="13.7983962"><ele>326.0</ele><time>2026-05-03T10:27:25.314Z</time></trkpt><trkpt lat="42.2649583" lon="13.7984958"><ele>326.0</ele><time>2026-05-03T10:27:26.31Z</time></trkpt><trkpt lat="42.264988" lon="13.7985916"><ele>326.0</ele><time>2026-05-03T10:27:27.31Z</time></trkpt><trkpt lat="42.2650188" lon="13.7986734"><ele>326.0</ele><time>2026-05-03T10:27:28.312Z</time></trkpt><trkpt lat="42.2650463" lon="13.7987504"><ele>326.0</ele><time>2026-05-03T10:27:29.307Z</time></trkpt><trkpt lat="42.2650995" lon="13.7988763"><ele>326.6</ele><time>2026-05-03T10:27:31.323Z</time></trkpt><trkpt lat="42.2651527" lon="13.798992"><ele>327.20000000000005</ele><time>2026-05-03T10:27:33.313Z</time></trkpt><trkpt lat="42.2651568" lon="13.7991198"><ele>327.79999999999995</ele><time>2026-05-03T10:27:35.307Z</time></trkpt><trkpt lat="42.2650979" lon="13.7992475"><ele>328.4</ele><time>2026-05-03T10:27:37.309Z</time></trkpt><trkpt lat="42.2650443" lon="13.7993087"><ele>329.0</ele><time>2026-05-03T10:27:38.301Z</time></trkpt><trkpt lat="42.2649206" lon="13.7993548"><ele>329.4</ele><time>2026-05-03T10:27:40.295Z</time></trkpt><trkpt lat="42.2648043" lon="13.799359"><ele>329.79999999999995</ele><time>2026-05-03T10:27:42.313Z</time></trkpt><trkpt lat="42.2646863" lon="13.799331"><ele>330.20000000000005</ele><time>2026-05-03T10:27:44.31Z</time></trkpt><trkpt lat="42.264613" lon="13.7993204"><ele>330.6</ele><time>2026-05-03T10:27:45.31Z</time></trkpt><trkpt lat="42.2645273" lon="13.7993295"><ele>331.0</ele><time>2026-05-03T10:27:46.311Z</time></trkpt><trkpt lat="42.2644357" lon="13.7993627"><ele>332.20000000000005</ele><time>2026-05-03T10:27:47.311Z</time></trkpt><trkpt lat="42.2643582" lon="13.7994116"><ele>333.40000000000003</ele><time>2026-05-03T10:27:48.295Z</time></trkpt><trkpt lat="42.2642761" lon="13.799498"><ele>334.6</ele><time>2026-05-03T10:27:49.299Z</time></trkpt><trkpt lat="42.2642003" lon="13.7996158"><ele>335.8</ele><time>2026-05-03T10:27:50.311Z</time></trkpt><trkpt lat="42.2641256" lon="13.7997122"><ele>337.0</ele><time>2026-05-03T10:27:51.308Z</time></trkpt><trkpt lat="42.2640368" lon="13.7997759"><ele>337.0</ele><time>2026-05-03T10:27:52.306Z</time></trkpt><trkpt lat="42.2639492" lon="13.7998135"><ele>337.0</ele><time>2026-05-03T10:27:53.309Z</time></trkpt><trkpt lat="42.2638683" lon="13.7998652"><ele>337.0</ele><time>2026-05-03T10:27:54.318Z</time></trkpt><trkpt lat="42.2637816" lon="13.7999204"><ele>337.0</ele><time>2026-05-03T10:27:55.315Z</time></trkpt><trkpt lat="42.2636837" lon="13.799973"><ele>337.0</ele><time>2026-05-03T10:27:56.315Z</time></trkpt><trkpt lat="42.2635862" lon="13.8000266"><ele>336.40000000000003</ele><time>2026-05-03T10:27:57.315Z</time></trkpt><trkpt lat="42.263495" lon="13.8000653"><ele>335.8</ele><time>2026-05-03T10:27:58.318Z</time></trkpt><trkpt lat="42.2633922" lon="13.8000814"><ele>335.2</ele><time>2026-05-03T10:27:59.312Z</time></trkpt><trkpt lat="42.2632896" lon="13.8000939"><ele>334.6</ele><time>2026-05-03T10:28:00.306Z</time></trkpt><trkpt lat="42.2632063" lon="13.8000929"><ele>334.0</ele><time>2026-05-03T10:28:01.314Z</time></trkpt><trkpt lat="42.2631181" lon="13.8000982"><ele>333.79999999999995</ele><time>2026-05-03T10:28:02.305Z</time></trkpt><trkpt lat="42.263033" lon="13.8000803"><ele>333.59999999999997</ele><time>2026-05-03T10:28:03.313Z</time></trkpt><trkpt lat="42.2629497" lon="13.8000436"><ele>333.4</ele><time>2026-05-03T10:28:04.313Z</time></trkpt><trkpt lat="42.262858" lon="13.7999923"><ele>333.2</ele><time>2026-05-03T10:28:05.314Z</time></trkpt><trkpt lat="42.2627593" lon="13.7999375"><ele>333.0</ele><time>2026-05-03T10:28:06.313Z</time></trkpt><trkpt lat="42.2626661" lon="13.7998962"><ele>333.0</ele><time>2026-05-03T10:28:07.307Z</time></trkpt><trkpt lat="42.2625598" lon="13.7998787"><ele>333.0</ele><time>2026-05-03T10:28:08.308Z</time></trkpt><trkpt lat="42.2624431" lon="13.7998703"><ele>333.0</ele><time>2026-05-03T10:28:09.312Z</time></trkpt><trkpt lat="42.2623147" lon="13.7998543"><ele>333.0</ele><time>2026-05-03T10:28:10.308Z</time></trkpt><trkpt lat="42.2621899" lon="13.7998339"><ele>332.79999999999995</ele><time>2026-05-03T10:28:11.309Z</time></trkpt><trkpt lat="42.2620728" lon="13.7998275"><ele>332.6</ele><time>2026-05-03T10:28:12.309Z</time></trkpt><trkpt lat="42.2619712" lon="13.7998262"><ele>332.4</ele><time>2026-05-03T10:28:13.305Z</time></trkpt><trkpt lat="42.2618835" lon="13.7998353"><ele>332.20000000000005</ele><time>2026-05-03T10:28:14.311Z</time></trkpt><trkpt lat="42.2617987" lon="13.7998515"><ele>332.0</ele><time>2026-05-03T10:28:15.309Z</time></trkpt><trkpt lat="42.2617097" lon="13.7999018"><ele>332.0</ele><time>2026-05-03T10:28:16.313Z</time></trkpt><trkpt lat="42.2616146" lon="13.7999662"><ele>332.0</ele><time>2026-05-03T10:28:17.309Z</time></trkpt><trkpt lat="42.2615377" lon="13.8000444"><ele>332.0</ele><time>2026-05-03T10:28:18.307Z</time></trkpt><trkpt lat="42.2614526" lon="13.8001139"><ele>332.0</ele><time>2026-05-03T10:28:19.306Z</time></trkpt><trkpt lat="42.2613663" lon="13.8001914"><ele>332.0</ele><time>2026-05-03T10:28:20.307Z</time></trkpt><trkpt lat="42.2612844" lon="13.8002648"><ele>332.0</ele><time>2026-05-03T10:28:21.313Z</time></trkpt><trkpt lat="42.2612131" lon="13.8003287"><ele>332.0</ele><time>2026-05-03T10:28:22.305Z</time></trkpt><trkpt lat="42.2611511" lon="13.8003959"><ele>332.0</ele><time>2026-05-03T10:28:23.307Z</time></trkpt><trkpt lat="42.2610941" lon="13.800474"><ele>332.0</ele><time>2026-05-03T10:28:24.311Z</time></trkpt><trkpt lat="42.2610391" lon="13.8005479"><ele>332.0</ele><time>2026-05-03T10:28:25.305Z</time></trkpt><trkpt lat="42.2609861" lon="13.8006279"><ele>332.0</ele><time>2026-05-03T10:28:26.305Z</time></trkpt><trkpt lat="42.2609219" lon="13.8007163"><ele>332.0</ele><time>2026-05-03T10:28:27.305Z</time></trkpt><trkpt lat="42.2608473" lon="13.8008046"><ele>332.0</ele><time>2026-05-03T10:28:28.3Z</time></trkpt><trkpt lat="42.260766" lon="13.8008979"><ele>332.0</ele><time>2026-05-03T10:28:29.31Z</time></trkpt><trkpt lat="42.2606836" lon="13.8009804"><ele>332.0</ele><time>2026-05-03T10:28:30.301Z</time></trkpt><trkpt lat="42.2605924" lon="13.8010531"><ele>332.0</ele><time>2026-05-03T10:28:31.306Z</time></trkpt><trkpt lat="42.260512" lon="13.8011283"><ele>331.8</ele><time>2026-05-03T10:28:32.305Z</time></trkpt><trkpt lat="42.260432" lon="13.8012095"><ele>331.6</ele><time>2026-05-03T10:28:33.303Z</time></trkpt><trkpt lat="42.2603505" lon="13.801285"><ele>331.40000000000003</ele><time>2026-05-03T10:28:34.305Z</time></trkpt><trkpt lat="42.2602648" lon="13.8013584"><ele>331.20000000000005</ele><time>2026-05-03T10:28:35.302Z</time></trkpt><trkpt lat="42.2601916" lon="13.8014347"><ele>331.0</ele><time>2026-05-03T10:28:36.303Z</time></trkpt><trkpt lat="42.260112" lon="13.8015258"><ele>331.0</ele><time>2026-05-03T10:28:37.301Z</time></trkpt><trkpt lat="42.2600336" lon="13.8016224"><ele>331.0</ele><time>2026-05-03T10:28:38.306Z</time></trkpt><trkpt lat="42.2599578" lon="13.8017192"><ele>331.0</ele><time>2026-05-03T10:28:39.3Z</time></trkpt><trkpt lat="42.2598771" lon="13.8018268"><ele>331.0</ele><time>2026-05-03T10:28:40.305Z</time></trkpt><trkpt lat="42.2598017" lon="13.8019447"><ele>331.0</ele><time>2026-05-03T10:28:41.306Z</time></trkpt><trkpt lat="42.2597279" lon="13.8020573"><ele>331.8</ele><time>2026-05-03T10:28:42.306Z</time></trkpt><trkpt lat="42.2596447" lon="13.8021531"><ele>332.6</ele><time>2026-05-03T10:28:43.299Z</time></trkpt><trkpt lat="42.2595585" lon="13.8022131"><ele>333.4</ele><time>2026-05-03T10:28:44.305Z</time></trkpt><trkpt lat="42.2594761" lon="13.8022776"><ele>334.2</ele><time>2026-05-03T10:28:45.302Z</time></trkpt><trkpt lat="42.2593881" lon="13.8023459"><ele>335.0</ele><time>2026-05-03T10:28:46.302Z</time></trkpt><trkpt lat="42.2592895" lon="13.8023899"><ele>335.0</ele><time>2026-05-03T10:28:47.307Z</time></trkpt><trkpt lat="42.2591842" lon="13.8024267"><ele>335.0</ele><time>2026-05-03T10:28:48.302Z</time></trkpt><trkpt lat="42.2590872" lon="13.8024415"><ele>335.0</ele><time>2026-05-03T10:28:49.315Z</time></trkpt><trkpt lat="42.2589872" lon="13.802459"><ele>335.0</ele><time>2026-05-03T10:28:50.313Z</time></trkpt><trkpt lat="42.258889" lon="13.8024319"><ele>335.0</ele><time>2026-05-03T10:28:51.302Z</time></trkpt><trkpt lat="42.2587922" lon="13.8023916"><ele>335.6</ele><time>2026-05-03T10:28:52.303Z</time></trkpt><trkpt lat="42.258702" lon="13.8023501"><ele>336.2</ele><time>2026-05-03T10:28:53.304Z</time></trkpt><trkpt lat="42.2586126" lon="13.8023059"><ele>336.79999999999995</ele><time>2026-05-03T10:28:54.309Z</time></trkpt><trkpt lat="42.2585103" lon="13.8022568"><ele>337.4</ele><time>2026-05-03T10:28:55.306Z</time></trkpt><trkpt lat="42.2584102" lon="13.8022056"><ele>338.0</ele><time>2026-05-03T10:28:56.306Z</time></trkpt><trkpt lat="42.2583101" lon="13.8021542"><ele>338.0</ele><time>2026-05-03T10:28:57.308Z</time></trkpt><trkpt lat="42.2582257" lon="13.8021012"><ele>338.0</ele><time>2026-05-03T10:28:58.296Z</time></trkpt><trkpt lat="42.2581502" lon="13.8020401"><ele>338.0</ele><time>2026-05-03T10:28:59.31Z</time></trkpt><trkpt lat="42.258078" lon="13.8019778"><ele>338.0</ele><time>2026-05-03T10:29:00.302Z</time></trkpt><trkpt lat="42.2580304" lon="13.8018911"><ele>338.0</ele><time>2026-05-03T10:29:01.302Z</time></trkpt><trkpt lat="42.2579816" lon="13.8017861"><ele>338.0</ele><time>2026-05-03T10:29:02.299Z</time></trkpt><trkpt lat="42.2579361" lon="13.8016674"><ele>337.33333333333337</ele><time>2026-05-03T10:29:03.297Z</time></trkpt><trkpt lat="42.2578887" lon="13.8015647"><ele>336.6666666666667</ele><time>2026-05-03T10:29:04.301Z</time></trkpt><trkpt lat="42.2578389" lon="13.8014736"><ele>336.0</ele><time>2026-05-03T10:29:05.299Z</time></trkpt><trkpt lat="42.2577935" lon="13.8013926"><ele>335.3333333333333</ele><time>2026-05-03T10:29:06.3Z</time></trkpt><trkpt lat="42.2577397" lon="13.8013205"><ele>334.66666666666663</ele><time>2026-05-03T10:29:07.303Z</time></trkpt><trkpt lat="42.2576805" lon="13.8012619"><ele>334.0</ele><time>2026-05-03T10:29:08.303Z</time></trkpt><trkpt lat="42.2576182" lon="13.8012137"><ele>334.0</ele><time>2026-05-03T10:29:09.305Z</time></trkpt><trkpt lat="42.2575417" lon="13.8011915"><ele>334.0</ele><time>2026-05-03T10:29:10.302Z</time></trkpt><trkpt lat="42.2574637" lon="13.8011902"><ele>334.0</ele><time>2026-05-03T10:29:11.302Z</time></trkpt><trkpt lat="42.2573901" lon="13.8012243"><ele>334.0</ele><time>2026-05-03T10:29:12.313Z</time></trkpt><trkpt lat="42.2573072" lon="13.8012971"><ele>334.0</ele><time>2026-05-03T10:29:13.303Z</time></trkpt><trkpt lat="42.2572195" lon="13.8013676"><ele>334.0</ele><time>2026-05-03T10:29:14.305Z</time></trkpt><trkpt lat="42.2571389" lon="13.8014373"><ele>334.2</ele><time>2026-05-03T10:29:15.31Z</time></trkpt><trkpt lat="42.2570559" lon="13.8015189"><ele>334.4</ele><time>2026-05-03T10:29:16.307Z</time></trkpt><trkpt lat="42.2569766" lon="13.8016044"><ele>334.6</ele><time>2026-05-03T10:29:17.302Z</time></trkpt><trkpt lat="42.2569009" lon="13.8017082"><ele>334.8</ele><time>2026-05-03T10:29:18.296Z</time></trkpt><trkpt lat="42.2568349" lon="13.8018163"><ele>335.0</ele><time>2026-05-03T10:29:19.304Z</time></trkpt><trkpt lat="42.2567792" lon="13.8019245"><ele>335.0</ele><time>2026-05-03T10:29:20.309Z</time></trkpt><trkpt lat="42.2567044" lon="13.8020264"><ele>335.0</ele><time>2026-05-03T10:29:21.305Z</time></trkpt><trkpt lat="42.256617" lon="13.8021398"><ele>335.0</ele><time>2026-05-03T10:29:22.303Z</time></trkpt><trkpt lat="42.256531" lon="13.8022462"><ele>335.0</ele><time>2026-05-03T10:29:23.295Z</time></trkpt><trkpt lat="42.2564444" lon="13.8023392"><ele>334.0</ele><time>2026-05-03T10:29:24.3Z</time></trkpt><trkpt lat="42.256351" lon="13.802406"><ele>333.0</ele><time>2026-05-03T10:29:25.303Z</time></trkpt><trkpt lat="42.2562577" lon="13.802457"><ele>332.0</ele><time>2026-05-03T10:29:26.3Z</time></trkpt><trkpt lat="42.2561524" lon="13.8024897"><ele>331.0</ele><time>2026-05-03T10:29:27.305Z</time></trkpt><trkpt lat="42.2560414" lon="13.8024936"><ele>330.0</ele><time>2026-05-03T10:29:28.303Z</time></trkpt><trkpt lat="42.2559331" lon="13.8025031"><ele>330.0</ele><time>2026-05-03T10:29:29.316Z</time></trkpt><trkpt lat="42.2558319" lon="13.8025252"><ele>330.0</ele><time>2026-05-03T10:29:30.315Z</time></trkpt><trkpt lat="42.2557296" lon="13.8025645"><ele>330.0</ele><time>2026-05-03T10:29:31.311Z</time></trkpt><trkpt lat="42.2556443" lon="13.8025906"><ele>330.0</ele><time>2026-05-03T10:29:32.311Z</time></trkpt><trkpt lat="42.2555747" lon="13.8026177"><ele>330.0</ele><time>2026-05-03T10:29:33.302Z</time></trkpt><trkpt lat="42.2555068" lon="13.8026612"><ele>330.0</ele><time>2026-05-03T10:29:34.308Z</time></trkpt><trkpt lat="42.2554455" lon="13.8027103"><ele>330.8333333333333</ele><time>2026-05-03T10:29:35.302Z</time></trkpt><trkpt lat="42.2553839" lon="13.8027659"><ele>331.6666666666667</ele><time>2026-05-03T10:29:36.311Z</time></trkpt><trkpt lat="42.2553133" lon="13.8028239"><ele>332.5</ele><time>2026-05-03T10:29:37.306Z</time></trkpt><trkpt lat="42.2552391" lon="13.8028747"><ele>333.33333333333337</ele><time>2026-05-03T10:29:38.309Z</time></trkpt><trkpt lat="42.2551599" lon="13.8029158"><ele>334.1666666666667</ele><time>2026-05-03T10:29:39.307Z</time></trkpt><trkpt lat="42.2550686" lon="13.8029488"><ele>335.0</ele><time>2026-05-03T10:29:40.309Z</time></trkpt><trkpt lat="42.2549816" lon="13.8029776"><ele>335.0</ele><time>2026-05-03T10:29:41.307Z</time></trkpt><trkpt lat="42.2548815" lon="13.8030083"><ele>335.0</ele><time>2026-05-03T10:29:42.309Z</time></trkpt><trkpt lat="42.2547802" lon="13.8030435"><ele>335.0</ele><time>2026-05-03T10:29:43.311Z</time></trkpt><trkpt lat="42.2546811" lon="13.803049"><ele>335.0</ele><time>2026-05-03T10:29:44.317Z</time></trkpt><trkpt lat="42.2545824" lon="13.8030456"><ele>335.0</ele><time>2026-05-03T10:29:45.315Z</time></trkpt><trkpt lat="42.2544932" lon="13.8030506"><ele>334.0</ele><time>2026-05-03T10:29:46.316Z</time></trkpt><trkpt lat="42.2544075" lon="13.8030629"><ele>333.0</ele><time>2026-05-03T10:29:47.311Z</time></trkpt><trkpt lat="42.2543161" lon="13.8030862"><ele>332.0</ele><time>2026-05-03T10:29:48.306Z</time></trkpt><trkpt lat="42.2542047" lon="13.8031315"><ele>331.0</ele><time>2026-05-03T10:29:49.313Z</time></trkpt><trkpt lat="42.2540835" lon="13.8031894"><ele>330.0</ele><time>2026-05-03T10:29:50.316Z</time></trkpt><trkpt lat="42.2539666" lon="13.8032478"><ele>328.6</ele><time>2026-05-03T10:29:51.32Z</time></trkpt><trkpt lat="42.2538625" lon="13.8032886"><ele>327.2</ele><time>2026-05-03T10:29:52.31Z</time></trkpt><trkpt lat="42.2537683" lon="13.8033195"><ele>325.79999999999995</ele><time>2026-05-03T10:29:53.306Z</time></trkpt><trkpt lat="42.2536812" lon="13.8033478"><ele>324.4</ele><time>2026-05-03T10:29:54.303Z</time></trkpt><trkpt lat="42.2536042" lon="13.8033888"><ele>323.0</ele><time>2026-05-03T10:29:55.305Z</time></trkpt><trkpt lat="42.2535273" lon="13.8034293"><ele>323.0</ele><time>2026-05-03T10:29:56.305Z</time></trkpt><trkpt lat="42.2534522" lon="13.803496"><ele>323.0</ele><time>2026-05-03T10:29:57.315Z</time></trkpt><trkpt lat="42.253372" lon="13.8035753"><ele>323.0</ele><time>2026-05-03T10:29:58.307Z</time></trkpt><trkpt lat="42.2532785" lon="13.803661"><ele>323.0</ele><time>2026-05-03T10:29:59.311Z</time></trkpt><trkpt lat="42.2531897" lon="13.8037557"><ele>323.0</ele><time>2026-05-03T10:30:00.307Z</time></trkpt><trkpt lat="42.2530991" lon="13.803838"><ele>323.79999999999995</ele><time>2026-05-03T10:30:01.306Z</time></trkpt><trkpt lat="42.2530157" lon="13.8038979"><ele>324.6</ele><time>2026-05-03T10:30:02.307Z</time></trkpt><trkpt lat="42.2529179" lon="13.8039682"><ele>325.4</ele><time>2026-05-03T10:30:03.3Z</time></trkpt><trkpt lat="42.2528212" lon="13.8040125"><ele>326.20000000000005</ele><time>2026-05-03T10:30:04.29Z</time></trkpt><trkpt lat="42.2527012" lon="13.8040569"><ele>327.0</ele><time>2026-05-03T10:30:05.302Z</time></trkpt><trkpt lat="42.2525967" lon="13.8040888"><ele>327.0</ele><time>2026-05-03T10:30:06.306Z</time></trkpt><trkpt lat="42.2525009" lon="13.8041056"><ele>327.0</ele><time>2026-05-03T10:30:07.311Z</time></trkpt><trkpt lat="42.2524055" lon="13.8041234"><ele>327.0</ele><time>2026-05-03T10:30:08.309Z</time></trkpt><trkpt lat="42.2523191" lon="13.8041146"><ele>327.0</ele><time>2026-05-03T10:30:09.312Z</time></trkpt><trkpt lat="42.2522219" lon="13.8041066"><ele>327.0</ele><time>2026-05-03T10:30:10.309Z</time></trkpt><trkpt lat="42.2521208" lon="13.8040863"><ele>329.0</ele><time>2026-05-03T10:30:11.307Z</time></trkpt><trkpt lat="42.2520268" lon="13.8040398"><ele>331.0</ele><time>2026-05-03T10:30:12.307Z</time></trkpt><trkpt lat="42.2519389" lon="13.8039825"><ele>333.0</ele><time>2026-05-03T10:30:13.303Z</time></trkpt><trkpt lat="42.2518621" lon="13.8039171"><ele>335.0</ele><time>2026-05-03T10:30:14.305Z</time></trkpt><trkpt lat="42.2517925" lon="13.8038402"><ele>337.0</ele><time>2026-05-03T10:30:15.31Z</time></trkpt><trkpt lat="42.2517373" lon="13.8037646"><ele>337.0</ele><time>2026-05-03T10:30:16.303Z</time></trkpt><trkpt lat="42.2516749" lon="13.8036659"><ele>337.0</ele><time>2026-05-03T10:30:18.3Z</time></trkpt><trkpt lat="42.2516015" lon="13.8036216"><ele>337.0</ele><time>2026-05-03T10:30:21.3Z</time></trkpt><trkpt lat="42.2515138" lon="13.8035477"><ele>337.0</ele><time>2026-05-03T10:30:23.297Z</time></trkpt><trkpt lat="42.2514434" lon="13.8035097"><ele>337.0</ele><time>2026-05-03T10:30:24.301Z</time></trkpt><trkpt lat="42.2513564" lon="13.8034669"><ele>337.0</ele><time>2026-05-03T10:30:25.298Z</time></trkpt><trkpt lat="42.2512474" lon="13.8034317"><ele>335.6</ele><time>2026-05-03T10:30:26.304Z</time></trkpt><trkpt lat="42.2511511" lon="13.803398"><ele>334.20000000000005</ele><time>2026-05-03T10:30:27.309Z</time></trkpt><trkpt lat="42.2510582" lon="13.8033561"><ele>332.8</ele><time>2026-05-03T10:30:28.31Z</time></trkpt><trkpt lat="42.2509666" lon="13.8033285"><ele>331.4</ele><time>2026-05-03T10:30:29.31Z</time></trkpt><trkpt lat="42.2508671" lon="13.8033109"><ele>330.0</ele><time>2026-05-03T10:30:30.306Z</time></trkpt><trkpt lat="42.2507622" lon="13.8033239"><ele>330.0</ele><time>2026-05-03T10:30:31.308Z</time></trkpt><trkpt lat="42.2506569" lon="13.8033478"><ele>330.0</ele><time>2026-05-03T10:30:32.306Z</time></trkpt><trkpt lat="42.2505622" lon="13.8033774"><ele>330.0</ele><time>2026-05-03T10:30:33.302Z</time></trkpt><trkpt lat="42.2504663" lon="13.8034235"><ele>330.0</ele><time>2026-05-03T10:30:34.305Z</time></trkpt><trkpt lat="42.2503756" lon="13.8034835"><ele>330.0</ele><time>2026-05-03T10:30:35.306Z</time></trkpt><trkpt lat="42.2502913" lon="13.8035504"><ele>331.0</ele><time>2026-05-03T10:30:36.303Z</time></trkpt><trkpt lat="42.2502111" lon="13.8036352"><ele>332.0</ele><time>2026-05-03T10:30:37.296Z</time></trkpt><trkpt lat="42.2501404" lon="13.8037086"><ele>333.0</ele><time>2026-05-03T10:30:38.301Z</time></trkpt><trkpt lat="42.250081" lon="13.8037638"><ele>334.0</ele><time>2026-05-03T10:30:39.302Z</time></trkpt><trkpt lat="42.2500115" lon="13.8038382"><ele>335.0</ele><time>2026-05-03T10:30:40.304Z</time></trkpt><trkpt lat="42.2499398" lon="13.8039126"><ele>336.0</ele><time>2026-05-03T10:30:41.291Z</time></trkpt><trkpt lat="42.2498715" lon="13.8039871"><ele>336.0</ele><time>2026-05-03T10:30:42.292Z</time></trkpt><trkpt lat="42.2497977" lon="13.8040964"><ele>336.0</ele><time>2026-05-03T10:30:43.288Z</time></trkpt><trkpt lat="42.2497333" lon="13.8042126"><ele>336.0</ele><time>2026-05-03T10:30:44.295Z</time></trkpt><trkpt lat="42.2496859" lon="13.8043204"><ele>336.0</ele><time>2026-05-03T10:30:45.296Z</time></trkpt><trkpt lat="42.2496317" lon="13.8044185"><ele>336.0</ele><time>2026-05-03T10:30:46.295Z</time></trkpt><trkpt lat="42.2495594" lon="13.80451"><ele>336.1666666666667</ele><time>2026-05-03T10:30:47.297Z</time></trkpt><trkpt lat="42.2494898" lon="13.8045934"><ele>336.3333333333333</ele><time>2026-05-03T10:30:48.302Z</time></trkpt><trkpt lat="42.249434" lon="13.8046766"><ele>336.5</ele><time>2026-05-03T10:30:49.305Z</time></trkpt><trkpt lat="42.2493823" lon="13.8047615"><ele>336.66666666666663</ele><time>2026-05-03T10:30:50.302Z</time></trkpt><trkpt lat="42.2493231" lon="13.8048531"><ele>336.8333333333333</ele><time>2026-05-03T10:30:51.307Z</time></trkpt><trkpt lat="42.2492579" lon="13.8049434"><ele>337.0</ele><time>2026-05-03T10:30:52.304Z</time></trkpt><trkpt lat="42.2491974" lon="13.8050334"><ele>337.0</ele><time>2026-05-03T10:30:53.311Z</time></trkpt><trkpt lat="42.2491294" lon="13.8051045"><ele>337.0</ele><time>2026-05-03T10:30:54.297Z</time></trkpt><trkpt lat="42.2490553" lon="13.8051649"><ele>337.0</ele><time>2026-05-03T10:30:55.295Z</time></trkpt><trkpt lat="42.2489645" lon="13.8052052"><ele>337.0</ele><time>2026-05-03T10:30:56.299Z</time></trkpt><trkpt lat="42.2488753" lon="13.8052229"><ele>337.0</ele><time>2026-05-03T10:30:57.303Z</time></trkpt><trkpt lat="42.2487741" lon="13.8052404"><ele>336.6</ele><time>2026-05-03T10:30:58.307Z</time></trkpt><trkpt lat="42.2486788" lon="13.8052627"><ele>336.20000000000005</ele><time>2026-05-03T10:30:59.302Z</time></trkpt><trkpt lat="42.2485827" lon="13.8053112"><ele>335.8</ele><time>2026-05-03T10:31:00.302Z</time></trkpt><trkpt lat="42.2484961" lon="13.8053725"><ele>335.4</ele><time>2026-05-03T10:31:01.308Z</time></trkpt><trkpt lat="42.2484173" lon="13.8054412"><ele>335.0</ele><time>2026-05-03T10:31:02.307Z</time></trkpt><trkpt lat="42.2483567" lon="13.8055047"><ele>335.0</ele><time>2026-05-03T10:31:03.303Z</time></trkpt><trkpt lat="42.2483067" lon="13.8055564"><ele>335.0</ele><time>2026-05-03T10:31:04.298Z</time></trkpt><trkpt lat="42.2482475" lon="13.8056656"><ele>335.0</ele><time>2026-05-03T10:31:06.302Z</time></trkpt><trkpt lat="42.248212" lon="13.8057983"><ele>335.0</ele><time>2026-05-03T10:31:08.298Z</time></trkpt><trkpt lat="42.2481201" lon="13.8059288"><ele>335.0</ele><time>2026-05-03T10:31:10.307Z</time></trkpt><trkpt lat="42.2480778" lon="13.8060048"><ele>333.2</ele><time>2026-05-03T10:31:11.31Z</time></trkpt><trkpt lat="42.248042" lon="13.8060903"><ele>331.4</ele><time>2026-05-03T10:31:12.295Z</time></trkpt><trkpt lat="42.2480069" lon="13.8061774"><ele>329.6</ele><time>2026-05-03T10:31:13.306Z</time></trkpt><trkpt lat="42.2479467" lon="13.8062867"><ele>327.8</ele><time>2026-05-03T10:31:14.297Z</time></trkpt><trkpt lat="42.2478811" lon="13.8064021"><ele>326.0</ele><time>2026-05-03T10:31:15.305Z</time></trkpt><trkpt lat="42.2478288" lon="13.8065185"><ele>326.0</ele><time>2026-05-03T10:31:16.301Z</time></trkpt><trkpt lat="42.2477957" lon="13.8066283"><ele>326.0</ele><time>2026-05-03T10:31:17.3Z</time></trkpt><trkpt lat="42.247781" lon="13.8067504"><ele>326.0</ele><time>2026-05-03T10:31:18.304Z</time></trkpt><trkpt lat="42.2477684" lon="13.806887"><ele>326.0</ele><time>2026-05-03T10:31:19.303Z</time></trkpt><trkpt lat="42.2477589" lon="13.8070156"><ele>326.0</ele><time>2026-05-03T10:31:20.3Z</time></trkpt><trkpt lat="42.2477341" lon="13.8071323"><ele>326.33333333333337</ele><time>2026-05-03T10:31:21.3Z</time></trkpt><trkpt lat="42.2477045" lon="13.8072235"><ele>326.6666666666667</ele><time>2026-05-03T10:31:22.297Z</time></trkpt><trkpt lat="42.2476706" lon="13.8073019"><ele>327.0</ele><time>2026-05-03T10:31:23.296Z</time></trkpt><trkpt lat="42.2476241" lon="13.8073764"><ele>327.3333333333333</ele><time>2026-05-03T10:31:24.306Z</time></trkpt><trkpt lat="42.2475509" lon="13.8074623"><ele>327.66666666666663</ele><time>2026-05-03T10:31:25.291Z</time></trkpt><trkpt lat="42.2474612" lon="13.8075369"><ele>328.0</ele><time>2026-05-03T10:31:26.291Z</time></trkpt><trkpt lat="42.2473629" lon="13.8075962"><ele>327.4</ele><time>2026-05-03T10:31:27.298Z</time></trkpt><trkpt lat="42.2472751" lon="13.8076473"><ele>326.79999999999995</ele><time>2026-05-03T10:31:28.291Z</time></trkpt><trkpt lat="42.2471903" lon="13.8077351"><ele>326.2</ele><time>2026-05-03T10:31:29.303Z</time></trkpt><trkpt lat="42.2471102" lon="13.8078219"><ele>325.6</ele><time>2026-05-03T10:31:30.296Z</time></trkpt><trkpt lat="42.2470313" lon="13.807909"><ele>325.0</ele><time>2026-05-03T10:31:31.301Z</time></trkpt><trkpt lat="42.2469693" lon="13.8079863"><ele>325.0</ele><time>2026-05-03T10:31:32.31Z</time></trkpt><trkpt lat="42.2468884" lon="13.8081178"><ele>325.0</ele><time>2026-05-03T10:31:34.316Z</time></trkpt><trkpt lat="42.2468502" lon="13.8082124"><ele>325.0</ele><time>2026-05-03T10:31:35.3Z</time></trkpt><trkpt lat="42.2468024" lon="13.8083325"><ele>325.0</ele><time>2026-05-03T10:31:36.298Z</time></trkpt><trkpt lat="42.2467719" lon="13.8084563"><ele>325.0</ele><time>2026-05-03T10:31:37.302Z</time></trkpt><trkpt lat="42.2467513" lon="13.8085889"><ele>324.8</ele><time>2026-05-03T10:31:38.307Z</time></trkpt><trkpt lat="42.2467305" lon="13.8087134"><ele>324.6</ele><time>2026-05-03T10:31:39.31Z</time></trkpt><trkpt lat="42.246713" lon="13.8088352"><ele>324.4</ele><time>2026-05-03T10:31:40.304Z</time></trkpt><trkpt lat="42.2466786" lon="13.8089713"><ele>324.2</ele><time>2026-05-03T10:31:41.304Z</time></trkpt><trkpt lat="42.2466446" lon="13.8091155"><ele>324.0</ele><time>2026-05-03T10:31:42.311Z</time></trkpt><trkpt lat="42.2466042" lon="13.8092585"><ele>324.25</ele><time>2026-05-03T10:31:43.308Z</time></trkpt><trkpt lat="42.246565" lon="13.809416"><ele>324.5</ele><time>2026-05-03T10:31:44.312Z</time></trkpt><trkpt lat="42.2465292" lon="13.8095692"><ele>324.75</ele><time>2026-05-03T10:31:45.314Z</time></trkpt><trkpt lat="42.2464899" lon="13.8097108"><ele>325.0</ele><time>2026-05-03T10:31:46.313Z</time></trkpt><trkpt lat="42.2464458" lon="13.8098509"><ele>325.0</ele><time>2026-05-03T10:31:47.309Z</time></trkpt><trkpt lat="42.2464027" lon="13.8099759"><ele>325.0</ele><time>2026-05-03T10:31:48.308Z</time></trkpt><trkpt lat="42.2463606" lon="13.8100906"><ele>325.0</ele><time>2026-05-03T10:31:49.308Z</time></trkpt><trkpt lat="42.2463127" lon="13.8101911"><ele>325.0</ele><time>2026-05-03T10:31:50.304Z</time></trkpt><trkpt lat="42.2462635" lon="13.8102922"><ele>325.0</ele><time>2026-05-03T10:31:51.303Z</time></trkpt><trkpt lat="42.2462026" lon="13.8103625"><ele>325.0</ele><time>2026-05-03T10:31:52.305Z</time></trkpt><trkpt lat="42.2461395" lon="13.8104396"><ele>325.0</ele><time>2026-05-03T10:31:53.297Z</time></trkpt><trkpt lat="42.2460596" lon="13.8105199"><ele>325.0</ele><time>2026-05-03T10:31:54.301Z</time></trkpt><trkpt lat="42.2459714" lon="13.8105987"><ele>325.0</ele><time>2026-05-03T10:31:55.316Z</time></trkpt><trkpt lat="42.2458957" lon="13.8106737"><ele>325.0</ele><time>2026-05-03T10:31:56.308Z</time></trkpt><trkpt lat="42.2458195" lon="13.8107641"><ele>325.0</ele><time>2026-05-03T10:31:57.307Z</time></trkpt><trkpt lat="42.2457537" lon="13.810861"><ele>325.0</ele><time>2026-05-03T10:31:58.301Z</time></trkpt><trkpt lat="42.2456875" lon="13.810966"><ele>325.0</ele><time>2026-05-03T10:31:59.305Z</time></trkpt><trkpt lat="42.2456117" lon="13.8110596"><ele>325.0</ele><time>2026-05-03T10:32:00.307Z</time></trkpt><trkpt lat="42.245521" lon="13.811161"><ele>325.0</ele><time>2026-05-03T10:32:01.308Z</time></trkpt><trkpt lat="42.2454413" lon="13.811236"><ele>324.8333333333333</ele><time>2026-05-03T10:32:02.312Z</time></trkpt><trkpt lat="42.2453672" lon="13.8113037"><ele>324.66666666666663</ele><time>2026-05-03T10:32:03.302Z</time></trkpt><trkpt lat="42.2452908" lon="13.8113696"><ele>324.5</ele><time>2026-05-03T10:32:04.306Z</time></trkpt><trkpt lat="42.2452363" lon="13.811446"><ele>324.3333333333333</ele><time>2026-05-03T10:32:05.306Z</time></trkpt><trkpt lat="42.24518" lon="13.8115354"><ele>324.1666666666667</ele><time>2026-05-03T10:32:06.305Z</time></trkpt><trkpt lat="42.2451368" lon="13.8116282"><ele>324.0</ele><time>2026-05-03T10:32:07.303Z</time></trkpt><trkpt lat="42.245114" lon="13.811712"><ele>324.79999999999995</ele><time>2026-05-03T10:32:08.312Z</time></trkpt><trkpt lat="42.2450915" lon="13.811868"><ele>325.59999999999997</ele><time>2026-05-03T10:32:10.319Z</time></trkpt><trkpt lat="42.2450744" lon="13.811957"><ele>326.4</ele><time>2026-05-03T10:32:11.325Z</time></trkpt><trkpt lat="42.2450589" lon="13.8120508"><ele>327.2</ele><time>2026-05-03T10:32:12.317Z</time></trkpt><trkpt lat="42.2450609" lon="13.8121433"><ele>328.0</ele><time>2026-05-03T10:32:13.315Z</time></trkpt><trkpt lat="42.2450301" lon="13.8123074"><ele>328.0</ele><time>2026-05-03T10:32:15.323Z</time></trkpt><trkpt lat="42.2449557" lon="13.8124323"><ele>328.0</ele><time>2026-05-03T10:32:17.313Z</time></trkpt><trkpt lat="42.2449008" lon="13.8124898"><ele>328.0</ele><time>2026-05-03T10:32:18.318Z</time></trkpt><trkpt lat="42.2448305" lon="13.8125449"><ele>328.0</ele><time>2026-05-03T10:32:19.309Z</time></trkpt><trkpt lat="42.244755" lon="13.8125745"><ele>328.0</ele><time>2026-05-03T10:32:20.305Z</time></trkpt><trkpt lat="42.2446812" lon="13.8126086"><ele>328.0</ele><time>2026-05-03T10:32:21.31Z</time></trkpt><trkpt lat="42.2445986" lon="13.8126362"><ele>328.5</ele><time>2026-05-03T10:32:22.305Z</time></trkpt><trkpt lat="42.244504" lon="13.8126519"><ele>329.0</ele><time>2026-05-03T10:32:23.313Z</time></trkpt><trkpt lat="42.2444227" lon="13.8126523"><ele>329.5</ele><time>2026-05-03T10:32:24.319Z</time></trkpt><trkpt lat="42.244356" lon="13.8126568"><ele>330.0</ele><time>2026-05-03T10:32:25.313Z</time></trkpt><trkpt lat="42.2442782" lon="13.8126828"><ele>330.5</ele><time>2026-05-03T10:32:26.315Z</time></trkpt><trkpt lat="42.2442018" lon="13.8127293"><ele>331.0</ele><time>2026-05-03T10:32:27.313Z</time></trkpt><trkpt lat="42.2441288" lon="13.8127751"><ele>331.0</ele><time>2026-05-03T10:32:28.316Z</time></trkpt><trkpt lat="42.2440339" lon="13.812844"><ele>331.0</ele><time>2026-05-03T10:32:29.307Z</time></trkpt><trkpt lat="42.2439207" lon="13.8128924"><ele>331.0</ele><time>2026-05-03T10:32:30.309Z</time></trkpt><trkpt lat="42.2438026" lon="13.8129465"><ele>331.0</ele><time>2026-05-03T10:32:31.315Z</time></trkpt><trkpt lat="42.2436981" lon="13.8129831"><ele>329.8</ele><time>2026-05-03T10:32:32.311Z</time></trkpt><trkpt lat="42.2436041" lon="13.8130337"><ele>328.6</ele><time>2026-05-03T10:32:33.311Z</time></trkpt><trkpt lat="42.2435286" lon="13.8130939"><ele>327.4</ele><time>2026-05-03T10:32:34.312Z</time></trkpt><trkpt lat="42.2434615" lon="13.8131766"><ele>326.2</ele><time>2026-05-03T10:32:35.308Z</time></trkpt><trkpt lat="42.2433908" lon="13.8132553"><ele>325.0</ele><time>2026-05-03T10:32:36.308Z</time></trkpt><trkpt lat="42.2433216" lon="13.8133355"><ele>325.0</ele><time>2026-05-03T10:32:37.308Z</time></trkpt><trkpt lat="42.2432527" lon="13.813431"><ele>325.0</ele><time>2026-05-03T10:32:38.306Z</time></trkpt><trkpt lat="42.2431746" lon="13.8135297"><ele>325.0</ele><time>2026-05-03T10:32:39.306Z</time></trkpt><trkpt lat="42.2431051" lon="13.8136341"><ele>325.0</ele><time>2026-05-03T10:32:40.31Z</time></trkpt><trkpt lat="42.2430315" lon="13.8137325"><ele>325.0</ele><time>2026-05-03T10:32:41.303Z</time></trkpt><trkpt lat="42.2429529" lon="13.8138317"><ele>324.0</ele><time>2026-05-03T10:32:42.313Z</time></trkpt><trkpt lat="42.2428601" lon="13.8139156"><ele>323.0</ele><time>2026-05-03T10:32:43.308Z</time></trkpt><trkpt lat="42.2427703" lon="13.8140025"><ele>322.0</ele><time>2026-05-03T10:32:44.31Z</time></trkpt><trkpt lat="42.2426821" lon="13.814094"><ele>321.0</ele><time>2026-05-03T10:32:45.308Z</time></trkpt><trkpt lat="42.242594" lon="13.8141858"><ele>320.0</ele><time>2026-05-03T10:32:46.312Z</time></trkpt><trkpt lat="42.2425159" lon="13.8142825"><ele>319.8</ele><time>2026-05-03T10:32:47.307Z</time></trkpt><trkpt lat="42.2424353" lon="13.8143632"><ele>319.6</ele><time>2026-05-03T10:32:48.303Z</time></trkpt><trkpt lat="42.2423458" lon="13.8144337"><ele>319.4</ele><time>2026-05-03T10:32:49.308Z</time></trkpt><trkpt lat="42.2422794" lon="13.8144735"><ele>319.2</ele><time>2026-05-03T10:32:50.31Z</time></trkpt><trkpt lat="42.2422189" lon="13.8145023"><ele>319.0</ele><time>2026-05-03T10:32:51.311Z</time></trkpt><trkpt lat="42.2420909" lon="13.8145127"><ele>319.0</ele><time>2026-05-03T10:32:53.312Z</time></trkpt><trkpt lat="42.242012" lon="13.8145103"><ele>319.0</ele><time>2026-05-03T10:32:54.312Z</time></trkpt><trkpt lat="42.2419488" lon="13.8145408"><ele>319.0</ele><time>2026-05-03T10:32:55.308Z</time></trkpt><trkpt lat="42.2418826" lon="13.8146446"><ele>319.0</ele><time>2026-05-03T10:32:57.319Z</time></trkpt><trkpt lat="42.2418873" lon="13.8147995"><ele>319.0</ele><time>2026-05-03T10:32:59.312Z</time></trkpt><trkpt lat="42.2418769" lon="13.8148976"><ele>319.0</ele><time>2026-05-03T10:33:00.303Z</time></trkpt><trkpt lat="42.2418399" lon="13.8150011"><ele>319.0</ele><time>2026-05-03T10:33:01.305Z</time></trkpt><trkpt lat="42.2418156" lon="13.8151051"><ele>319.0</ele><time>2026-05-03T10:33:02.301Z</time></trkpt><trkpt lat="42.2417876" lon="13.8152174"><ele>319.0</ele><time>2026-05-03T10:33:03.302Z</time></trkpt><trkpt lat="42.2417549" lon="13.8153321"><ele>319.0</ele><time>2026-05-03T10:33:04.307Z</time></trkpt><trkpt lat="42.2417103" lon="13.8154402"><ele>319.0</ele><time>2026-05-03T10:33:05.302Z</time></trkpt><trkpt lat="42.2416785" lon="13.8155426"><ele>319.0</ele><time>2026-05-03T10:33:06.307Z</time></trkpt><trkpt lat="42.2416677" lon="13.815636"><ele>319.3333333333333</ele><time>2026-05-03T10:33:07.302Z</time></trkpt><trkpt lat="42.2416782" lon="13.8158038"><ele>319.66666666666663</ele><time>2026-05-03T10:33:09.305Z</time></trkpt><trkpt lat="42.2416593" lon="13.8158964"><ele>320.0</ele><time>2026-05-03T10:33:10.301Z</time></trkpt><trkpt lat="42.2416204" lon="13.8159766"><ele>320.3333333333333</ele><time>2026-05-03T10:33:11.3Z</time></trkpt><trkpt lat="42.2415645" lon="13.8160534"><ele>320.6666666666667</ele><time>2026-05-03T10:33:12.303Z</time></trkpt><trkpt lat="42.2414971" lon="13.8161186"><ele>321.0</ele><time>2026-05-03T10:33:13.301Z</time></trkpt><trkpt lat="42.2414266" lon="13.8161805"><ele>322.3333333333333</ele><time>2026-05-03T10:33:14.3Z</time></trkpt><trkpt lat="42.2413581" lon="13.816228"><ele>323.6666666666667</ele><time>2026-05-03T10:33:15.308Z</time></trkpt><trkpt lat="42.2412874" lon="13.8162587"><ele>325.0</ele><time>2026-05-03T10:33:16.3Z</time></trkpt><trkpt lat="42.2412118" lon="13.8162877"><ele>326.33333333333337</ele><time>2026-05-03T10:33:17.304Z</time></trkpt><trkpt lat="42.2411275" lon="13.8163009"><ele>327.6666666666667</ele><time>2026-05-03T10:33:18.299Z</time></trkpt><trkpt lat="42.2410368" lon="13.8163176"><ele>329.0</ele><time>2026-05-03T10:33:19.308Z</time></trkpt><trkpt lat="42.2409372" lon="13.816323"><ele>329.0</ele><time>2026-05-03T10:33:20.304Z</time></trkpt><trkpt lat="42.240832" lon="13.8163075"><ele>329.0</ele><time>2026-05-03T10:33:21.31Z</time></trkpt><trkpt lat="42.2407323" lon="13.8162991"><ele>329.0</ele><time>2026-05-03T10:33:22.305Z</time></trkpt><trkpt lat="42.240637" lon="13.8162965"><ele>329.0</ele><time>2026-05-03T10:33:23.308Z</time></trkpt><trkpt lat="42.2405332" lon="13.8162981"><ele>329.0</ele><time>2026-05-03T10:33:24.307Z</time></trkpt><trkpt lat="42.2404239" lon="13.8163059"><ele>328.6</ele><time>2026-05-03T10:33:25.309Z</time></trkpt><trkpt lat="42.2403123" lon="13.8163064"><ele>328.2</ele><time>2026-05-03T10:33:26.307Z</time></trkpt><trkpt lat="42.2402065" lon="13.8163085"><ele>327.8</ele><time>2026-05-03T10:33:27.31Z</time></trkpt><trkpt lat="42.240097" lon="13.8163287"><ele>327.40000000000003</ele><time>2026-05-03T10:33:28.314Z</time></trkpt><trkpt lat="42.2399943" lon="13.8163552"><ele>327.0</ele><time>2026-05-03T10:33:29.308Z</time></trkpt><trkpt lat="42.2398923" lon="13.8163882"><ele>326.20000000000005</ele><time>2026-05-03T10:33:30.303Z</time></trkpt><trkpt lat="42.2397979" lon="13.8164462"><ele>325.4</ele><time>2026-05-03T10:33:31.302Z</time></trkpt><trkpt lat="42.2396977" lon="13.8164878"><ele>324.6</ele><time>2026-05-03T10:33:32.304Z</time></trkpt><trkpt lat="42.2396019" lon="13.8165151"><ele>323.79999999999995</ele><time>2026-05-03T10:33:33.305Z</time></trkpt><trkpt lat="42.2395368" lon="13.8165235"><ele>323.0</ele><time>2026-05-03T10:33:34.304Z</time></trkpt><trkpt lat="42.2394564" lon="13.8164771"><ele>323.0</ele><time>2026-05-03T10:33:36.308Z</time></trkpt><trkpt lat="42.239393" lon="13.8163507"><ele>323.0</ele><time>2026-05-03T10:33:38.313Z</time></trkpt><trkpt lat="42.2393502" lon="13.8162425"><ele>323.0</ele><time>2026-05-03T10:33:40.312Z</time></trkpt><trkpt lat="42.2392582" lon="13.8161661"><ele>323.0</ele><time>2026-05-03T10:33:42.31Z</time></trkpt><trkpt lat="42.2391893" lon="13.8161492"><ele>323.0</ele><time>2026-05-03T10:33:43.309Z</time></trkpt><trkpt lat="42.2391156" lon="13.8161496"><ele>323.0</ele><time>2026-05-03T10:33:44.311Z</time></trkpt><trkpt lat="42.2390278" lon="13.81615"><ele>323.0</ele><time>2026-05-03T10:33:45.315Z</time></trkpt><trkpt lat="42.2389303" lon="13.8161349"><ele>323.0</ele><time>2026-05-03T10:33:46.312Z</time></trkpt><trkpt lat="42.2388246" lon="13.8161102"><ele>323.0</ele><time>2026-05-03T10:33:47.312Z</time></trkpt><trkpt lat="42.2387016" lon="13.8160994"><ele>323.0</ele><time>2026-05-03T10:33:48.314Z</time></trkpt><trkpt lat="42.2385752" lon="13.816094"><ele>322.0</ele><time>2026-05-03T10:33:49.31Z</time></trkpt><trkpt lat="42.2384461" lon="13.8161172"><ele>321.0</ele><time>2026-05-03T10:33:50.31Z</time></trkpt><trkpt lat="42.2383188" lon="13.8161625"><ele>320.0</ele><time>2026-05-03T10:33:51.306Z</time></trkpt><trkpt lat="42.2381877" lon="13.8162294"><ele>319.0</ele><time>2026-05-03T10:33:52.311Z</time></trkpt><trkpt lat="42.2380564" lon="13.8163065"><ele>319.0</ele><time>2026-05-03T10:33:53.31Z</time></trkpt><trkpt lat="42.2379453" lon="13.8163694"><ele>319.0</ele><time>2026-05-03T10:33:54.313Z</time></trkpt><trkpt lat="42.2378279" lon="13.8164336"><ele>319.0</ele><time>2026-05-03T10:33:55.314Z</time></trkpt><trkpt lat="42.2377089" lon="13.8164833"><ele>319.0</ele><time>2026-05-03T10:33:56.313Z</time></trkpt><trkpt lat="42.2375777" lon="13.816558"><ele>319.0</ele><time>2026-05-03T10:33:57.317Z</time></trkpt><trkpt lat="42.2374435" lon="13.8166148"><ele>319.0</ele><time>2026-05-03T10:33:58.315Z</time></trkpt><trkpt lat="42.23731" lon="13.816669"><ele>319.0</ele><time>2026-05-03T10:33:59.324Z</time></trkpt><trkpt lat="42.2371862" lon="13.8167121"><ele>319.0</ele><time>2026-05-03T10:34:00.311Z</time></trkpt><trkpt lat="42.23706" lon="13.8167534"><ele>319.25</ele><time>2026-05-03T10:34:01.308Z</time></trkpt><trkpt lat="42.2369347" lon="13.8167769"><ele>319.5</ele><time>2026-05-03T10:34:02.304Z</time></trkpt><trkpt lat="42.2368087" lon="13.816788"><ele>319.75</ele><time>2026-05-03T10:34:03.303Z</time></trkpt><trkpt lat="42.2366851" lon="13.8167538"><ele>320.0</ele><time>2026-05-03T10:34:04.309Z</time></trkpt><trkpt lat="42.2365599" lon="13.8167062"><ele>320.5</ele><time>2026-05-03T10:34:05.308Z</time></trkpt><trkpt lat="42.2364436" lon="13.816637"><ele>321.0</ele><time>2026-05-03T10:34:06.311Z</time></trkpt><trkpt lat="42.2363373" lon="13.8165522"><ele>321.5</ele><time>2026-05-03T10:34:07.306Z</time></trkpt><trkpt lat="42.2362416" lon="13.8164677"><ele>322.0</ele><time>2026-05-03T10:34:08.306Z</time></trkpt><trkpt lat="42.2361443" lon="13.8163916"><ele>322.0</ele><time>2026-05-03T10:34:09.291Z</time></trkpt><trkpt lat="42.2360558" lon="13.816316"><ele>322.0</ele><time>2026-05-03T10:34:10.221Z</time></trkpt><trkpt lat="42.2359746" lon="13.816237"><ele>322.0</ele><time>2026-05-03T10:34:11.265Z</time></trkpt><trkpt lat="42.2358926" lon="13.8161898"><ele>322.0</ele><time>2026-05-03T10:34:12.252Z</time></trkpt><trkpt lat="42.2357952" lon="13.8161802"><ele>322.0</ele><time>2026-05-03T10:34:13.262Z</time></trkpt><trkpt lat="42.2356955" lon="13.81621"><ele>321.20000000000005</ele><time>2026-05-03T10:34:14.255Z</time></trkpt><trkpt lat="42.2355979" lon="13.8162555"><ele>320.40000000000003</ele><time>2026-05-03T10:34:15.258Z</time></trkpt><trkpt lat="42.2355123" lon="13.8163195"><ele>319.6</ele><time>2026-05-03T10:34:16.252Z</time></trkpt><trkpt lat="42.2354312" lon="13.8164039"><ele>318.8</ele><time>2026-05-03T10:34:17.262Z</time></trkpt><trkpt lat="42.2353679" lon="13.816495"><ele>318.0</ele><time>2026-05-03T10:34:18.254Z</time></trkpt><trkpt lat="42.2353102" lon="13.8166036"><ele>318.0</ele><time>2026-05-03T10:34:19.26Z</time></trkpt><trkpt lat="42.2352575" lon="13.8167201"><ele>318.0</ele><time>2026-05-03T10:34:20.261Z</time></trkpt><trkpt lat="42.2352076" lon="13.8168448"><ele>318.0</ele><time>2026-05-03T10:34:21.272Z</time></trkpt><trkpt lat="42.2351481" lon="13.8169752"><ele>318.0</ele><time>2026-05-03T10:34:22.276Z</time></trkpt><trkpt lat="42.2350821" lon="13.8171177"><ele>318.0</ele><time>2026-05-03T10:34:23.275Z</time></trkpt><trkpt lat="42.2350125" lon="13.8172629"><ele>318.75</ele><time>2026-05-03T10:34:24.28Z</time></trkpt><trkpt lat="42.2349329" lon="13.8174206"><ele>319.5</ele><time>2026-05-03T10:34:25.282Z</time></trkpt><trkpt lat="42.2348466" lon="13.8175729"><ele>320.25</ele><time>2026-05-03T10:34:26.283Z</time></trkpt><trkpt lat="42.2347501" lon="13.8177138"><ele>321.0</ele><time>2026-05-03T10:34:27.286Z</time></trkpt><trkpt lat="42.2346381" lon="13.8178483"><ele>322.25</ele><time>2026-05-03T10:34:28.285Z</time></trkpt><trkpt lat="42.2345224" lon="13.8179781"><ele>323.5</ele><time>2026-05-03T10:34:29.294Z</time></trkpt><trkpt lat="42.23441" lon="13.8181102"><ele>324.75</ele><time>2026-05-03T10:34:30.298Z</time></trkpt><trkpt lat="42.2342941" lon="13.8182274"><ele>326.0</ele><time>2026-05-03T10:34:31.296Z</time></trkpt><trkpt lat="42.2341637" lon="13.8183282"><ele>326.0</ele><time>2026-05-03T10:34:32.295Z</time></trkpt><trkpt lat="42.2340165" lon="13.8184331"><ele>326.0</ele><time>2026-05-03T10:34:33.291Z</time></trkpt><trkpt lat="42.2338599" lon="13.8185327"><ele>326.0</ele><time>2026-05-03T10:34:34.294Z</time></trkpt><trkpt lat="42.2337096" lon="13.8186308"><ele>327.25</ele><time>2026-05-03T10:34:35.306Z</time></trkpt><trkpt lat="42.2335684" lon="13.8187141"><ele>328.5</ele><time>2026-05-03T10:34:36.298Z</time></trkpt><trkpt lat="42.2334449" lon="13.8187604"><ele>329.75</ele><time>2026-05-03T10:34:37.298Z</time></trkpt><trkpt lat="42.2333252" lon="13.8188018"><ele>331.0</ele><time>2026-05-03T10:34:38.303Z</time></trkpt><trkpt lat="42.2331975" lon="13.818865"><ele>328.5</ele><time>2026-05-03T10:34:39.312Z</time></trkpt><trkpt lat="42.2330722" lon="13.8189123"><ele>326.0</ele><time>2026-05-03T10:34:40.313Z</time></trkpt><trkpt lat="42.2329429" lon="13.8189645"><ele>323.5</ele><time>2026-05-03T10:34:41.304Z</time></trkpt><trkpt lat="42.2328059" lon="13.8190058"><ele>321.0</ele><time>2026-05-03T10:34:42.31Z</time></trkpt><trkpt lat="42.2326694" lon="13.8190339"><ele>321.0</ele><time>2026-05-03T10:34:43.302Z</time></trkpt><trkpt lat="42.232528" lon="13.8190287"><ele>321.0</ele><time>2026-05-03T10:34:44.311Z</time></trkpt><trkpt lat="42.2323777" lon="13.8190369"><ele>321.0</ele><time>2026-05-03T10:34:45.316Z</time></trkpt><trkpt lat="42.2322264" lon="13.8190497"><ele>321.0</ele><time>2026-05-03T10:34:46.31Z</time></trkpt><trkpt lat="42.2320712" lon="13.8190548"><ele>320.6666666666667</ele><time>2026-05-03T10:34:47.31Z</time></trkpt><trkpt lat="42.231901" lon="13.8190763"><ele>320.33333333333337</ele><time>2026-05-03T10:34:48.315Z</time></trkpt><trkpt lat="42.2317436" lon="13.8191113"><ele>320.0</ele><time>2026-05-03T10:34:49.307Z</time></trkpt><trkpt lat="42.2316143" lon="13.8191656"><ele>320.0</ele><time>2026-05-03T10:34:50.301Z</time></trkpt><trkpt lat="42.2314903" lon="13.819237"><ele>320.0</ele><time>2026-05-03T10:34:51.305Z</time></trkpt><trkpt lat="42.2313881" lon="13.8193136"><ele>320.0</ele><time>2026-05-03T10:34:52.306Z</time></trkpt><trkpt lat="42.2312836" lon="13.8193816"><ele>320.0</ele><time>2026-05-03T10:34:53.309Z</time></trkpt><trkpt lat="42.2311859" lon="13.8194529"><ele>321.25</ele><time>2026-05-03T10:34:54.304Z</time></trkpt><trkpt lat="42.2310839" lon="13.8195107"><ele>322.5</ele><time>2026-05-03T10:34:55.312Z</time></trkpt><trkpt lat="42.2309457" lon="13.8195587"><ele>323.75</ele><time>2026-05-03T10:34:56.308Z</time></trkpt><trkpt lat="42.2308087" lon="13.8195823"><ele>325.0</ele><time>2026-05-03T10:34:57.309Z</time></trkpt><trkpt lat="42.2306652" lon="13.8195994"><ele>322.66666666666663</ele><time>2026-05-03T10:34:58.31Z</time></trkpt><trkpt lat="42.2305122" lon="13.8196082"><ele>320.3333333333333</ele><time>2026-05-03T10:34:59.315Z</time></trkpt><trkpt lat="42.2303552" lon="13.8196273"><ele>318.0</ele><time>2026-05-03T10:35:00.312Z</time></trkpt><trkpt lat="42.2302107" lon="13.8196644"><ele>318.0</ele><time>2026-05-03T10:35:01.318Z</time></trkpt><trkpt lat="42.2300673" lon="13.8196908"><ele>318.0</ele><time>2026-05-03T10:35:02.306Z</time></trkpt><trkpt lat="42.229923" lon="13.8197135"><ele>318.0</ele><time>2026-05-03T10:35:03.307Z</time></trkpt><trkpt lat="42.2297794" lon="13.8197135"><ele>318.0</ele><time>2026-05-03T10:35:04.304Z</time></trkpt><trkpt lat="42.2296369" lon="13.8196937"><ele>318.0</ele><time>2026-05-03T10:35:05.308Z</time></trkpt><trkpt lat="42.2294911" lon="13.8197019"><ele>318.0</ele><time>2026-05-03T10:35:06.302Z</time></trkpt><trkpt lat="42.2293491" lon="13.8197166"><ele>318.0</ele><time>2026-05-03T10:35:07.301Z</time></trkpt><trkpt lat="42.2292136" lon="13.8197227"><ele>318.0</ele><time>2026-05-03T10:35:08.301Z</time></trkpt><trkpt lat="42.22908" lon="13.8197414"><ele>319.75</ele><time>2026-05-03T10:35:09.306Z</time></trkpt><trkpt lat="42.2289468" lon="13.8197569"><ele>321.5</ele><time>2026-05-03T10:35:10.298Z</time></trkpt><trkpt lat="42.2288225" lon="13.8197674"><ele>323.25</ele><time>2026-05-03T10:35:11.298Z</time></trkpt><trkpt lat="42.2286888" lon="13.8198003"><ele>325.0</ele><time>2026-05-03T10:35:12.3Z</time></trkpt><trkpt lat="42.2285578" lon="13.8198102"><ele>325.0</ele><time>2026-05-03T10:35:13.303Z</time></trkpt><trkpt lat="42.2284332" lon="13.8197838"><ele>325.0</ele><time>2026-05-03T10:35:14.311Z</time></trkpt><trkpt lat="42.2283096" lon="13.819741"><ele>325.0</ele><time>2026-05-03T10:35:15.307Z</time></trkpt><trkpt lat="42.228185" lon="13.8196916"><ele>325.0</ele><time>2026-05-03T10:35:16.308Z</time></trkpt><trkpt lat="42.2280621" lon="13.8196433"><ele>325.0</ele><time>2026-05-03T10:35:17.305Z</time></trkpt><trkpt lat="42.2279354" lon="13.8195931"><ele>325.0</ele><time>2026-05-03T10:35:18.309Z</time></trkpt><trkpt lat="42.2278044" lon="13.8195556"><ele>325.0</ele><time>2026-05-03T10:35:19.314Z</time></trkpt><trkpt lat="42.2276707" lon="13.8195454"><ele>325.0</ele><time>2026-05-03T10:35:20.306Z</time></trkpt><trkpt lat="42.2275324" lon="13.8195584"><ele>325.0</ele><time>2026-05-03T10:35:21.308Z</time></trkpt><trkpt lat="42.227386" lon="13.8195852"><ele>325.0</ele><time>2026-05-03T10:35:22.3Z</time></trkpt><trkpt lat="42.2272527" lon="13.8195991"><ele>325.0</ele><time>2026-05-03T10:35:23.302Z</time></trkpt><trkpt lat="42.2271034" lon="13.819622"><ele>325.0</ele><time>2026-05-03T10:35:24.302Z</time></trkpt><trkpt lat="42.2269605" lon="13.8196486"><ele>324.5</ele><time>2026-05-03T10:35:25.304Z</time></trkpt><trkpt lat="42.2268273" lon="13.8196823"><ele>324.0</ele><time>2026-05-03T10:35:26.303Z</time></trkpt><trkpt lat="42.2267299" lon="13.8197341"><ele>323.5</ele><time>2026-05-03T10:35:27.3Z</time></trkpt><trkpt lat="42.2266249" lon="13.8198114"><ele>323.0</ele><time>2026-05-03T10:35:28.291Z</time></trkpt><trkpt lat="42.2265237" lon="13.8199152"><ele>321.75</ele><time>2026-05-03T10:35:29.299Z</time></trkpt><trkpt lat="42.2264286" lon="13.8200399"><ele>320.5</ele><time>2026-05-03T10:35:30.296Z</time></trkpt><trkpt lat="42.2263365" lon="13.8201734"><ele>319.25</ele><time>2026-05-03T10:35:31.297Z</time></trkpt><trkpt lat="42.2262468" lon="13.8203076"><ele>318.0</ele><time>2026-05-03T10:35:32.308Z</time></trkpt><trkpt lat="42.2261699" lon="13.8204561"><ele>318.0</ele><time>2026-05-03T10:35:33.297Z</time></trkpt><trkpt lat="42.2260985" lon="13.8206094"><ele>318.0</ele><time>2026-05-03T10:35:34.298Z</time></trkpt><trkpt lat="42.2260221" lon="13.8207689"><ele>318.0</ele><time>2026-05-03T10:35:35.299Z</time></trkpt><trkpt lat="42.2259413" lon="13.8209305"><ele>318.0</ele><time>2026-05-03T10:35:36.299Z</time></trkpt><trkpt lat="42.2258666" lon="13.8210858"><ele>318.25</ele><time>2026-05-03T10:35:37.299Z</time></trkpt><trkpt lat="42.2257813" lon="13.821227"><ele>318.5</ele><time>2026-05-03T10:35:38.296Z</time></trkpt><trkpt lat="42.2256628" lon="13.8213464"><ele>318.75</ele><time>2026-05-03T10:35:39.291Z</time></trkpt><trkpt lat="42.2255411" lon="13.8214345"><ele>319.0</ele><time>2026-05-03T10:35:40.289Z</time></trkpt><trkpt lat="42.2254137" lon="13.821509"><ele>319.0</ele><time>2026-05-03T10:35:41.299Z</time></trkpt><trkpt lat="42.2252745" lon="13.8215868"><ele>319.0</ele><time>2026-05-03T10:35:42.296Z</time></trkpt><trkpt lat="42.2251339" lon="13.8216433"><ele>319.0</ele><time>2026-05-03T10:35:43.298Z</time></trkpt><trkpt lat="42.2250086" lon="13.8216858"><ele>319.0</ele><time>2026-05-03T10:35:44.299Z</time></trkpt><trkpt lat="42.2248729" lon="13.8217241"><ele>318.75</ele><time>2026-05-03T10:35:45.299Z</time></trkpt><trkpt lat="42.2247332" lon="13.821758"><ele>318.5</ele><time>2026-05-03T10:35:46.298Z</time></trkpt><trkpt lat="42.2245912" lon="13.8218151"><ele>318.25</ele><time>2026-05-03T10:35:47.299Z</time></trkpt><trkpt lat="42.2244442" lon="13.8218828"><ele>318.0</ele><time>2026-05-03T10:35:48.3Z</time></trkpt><trkpt lat="42.224295" lon="13.8219696"><ele>318.6666666666667</ele><time>2026-05-03T10:35:49.307Z</time></trkpt><trkpt lat="42.2241498" lon="13.8220661"><ele>319.33333333333337</ele><time>2026-05-03T10:35:50.306Z</time></trkpt><trkpt lat="42.2240248" lon="13.8221902"><ele>320.0</ele><time>2026-05-03T10:35:51.306Z</time></trkpt><trkpt lat="42.2239095" lon="13.8223082"><ele>320.0</ele><time>2026-05-03T10:35:52.307Z</time></trkpt><trkpt lat="42.2237851" lon="13.8224229"><ele>320.0</ele><time>2026-05-03T10:35:53.305Z</time></trkpt><trkpt lat="42.223664" lon="13.8225205"><ele>320.0</ele><time>2026-05-03T10:35:54.301Z</time></trkpt><trkpt lat="42.2235342" lon="13.8226069"><ele>320.0</ele><time>2026-05-03T10:35:55.302Z</time></trkpt><trkpt lat="42.2234158" lon="13.8226578"><ele>322.0</ele><time>2026-05-03T10:35:56.303Z</time></trkpt><trkpt lat="42.2232929" lon="13.8227149"><ele>324.0</ele><time>2026-05-03T10:35:57.304Z</time></trkpt><trkpt lat="42.2231607" lon="13.8227485"><ele>326.0</ele><time>2026-05-03T10:35:58.299Z</time></trkpt><trkpt lat="42.2230411" lon="13.8227482"><ele>328.0</ele><time>2026-05-03T10:35:59.302Z</time></trkpt><trkpt lat="42.2229114" lon="13.8227384"><ele>328.0</ele><time>2026-05-03T10:36:00.301Z</time></trkpt><trkpt lat="42.2227834" lon="13.8227199"><ele>328.0</ele><time>2026-05-03T10:36:01.301Z</time></trkpt><trkpt lat="42.2226476" lon="13.8226867"><ele>328.0</ele><time>2026-05-03T10:36:02.294Z</time></trkpt><trkpt lat="42.2225112" lon="13.822649"><ele>328.0</ele><time>2026-05-03T10:36:03.31Z</time></trkpt><trkpt lat="42.2223777" lon="13.8226141"><ele>327.5</ele><time>2026-05-03T10:36:04.304Z</time></trkpt><trkpt lat="42.222244" lon="13.8225692"><ele>327.0</ele><time>2026-05-03T10:36:05.304Z</time></trkpt><trkpt lat="42.2221201" lon="13.8225275"><ele>326.5</ele><time>2026-05-03T10:36:06.301Z</time></trkpt><trkpt lat="42.2219982" lon="13.8224835"><ele>326.0</ele><time>2026-05-03T10:36:07.302Z</time></trkpt><trkpt lat="42.2218721" lon="13.8224326"><ele>326.0</ele><time>2026-05-03T10:36:08.303Z</time></trkpt><trkpt lat="42.2217528" lon="13.8223718"><ele>326.0</ele><time>2026-05-03T10:36:09.302Z</time></trkpt><trkpt lat="42.2216416" lon="13.822314"><ele>326.0</ele><time>2026-05-03T10:36:10.3Z</time></trkpt><trkpt lat="42.2215308" lon="13.8222718"><ele>326.0</ele><time>2026-05-03T10:36:11.302Z</time></trkpt><trkpt lat="42.2214136" lon="13.82224"><ele>326.75</ele><time>2026-05-03T10:36:12.306Z</time></trkpt><trkpt lat="42.2212954" lon="13.8222255"><ele>327.5</ele><time>2026-05-03T10:36:13.302Z</time></trkpt><trkpt lat="42.2211776" lon="13.8222163"><ele>328.25</ele><time>2026-05-03T10:36:14.304Z</time></trkpt><trkpt lat="42.2210603" lon="13.822213"><ele>329.0</ele><time>2026-05-03T10:36:15.305Z</time></trkpt><trkpt lat="42.2209461" lon="13.8222201"><ele>329.0</ele><time>2026-05-03T10:36:16.299Z</time></trkpt><trkpt lat="42.2208418" lon="13.8222526"><ele>329.0</ele><time>2026-05-03T10:36:17.296Z</time></trkpt><trkpt lat="42.2207408" lon="13.8223042"><ele>329.0</ele><time>2026-05-03T10:36:18.293Z</time></trkpt><trkpt lat="42.2206493" lon="13.8223939"><ele>329.0</ele><time>2026-05-03T10:36:19.309Z</time></trkpt><trkpt lat="42.2205651" lon="13.8225104"><ele>329.0</ele><time>2026-05-03T10:36:20.306Z</time></trkpt><trkpt lat="42.2204901" lon="13.8226254"><ele>327.75</ele><time>2026-05-03T10:36:21.313Z</time></trkpt><trkpt lat="42.2204056" lon="13.8227481"><ele>326.5</ele><time>2026-05-03T10:36:22.306Z</time></trkpt><trkpt lat="42.2203224" lon="13.8228739"><ele>325.25</ele><time>2026-05-03T10:36:23.307Z</time></trkpt><trkpt lat="42.2202283" lon="13.8229948"><ele>324.0</ele><time>2026-05-03T10:36:24.303Z</time></trkpt><trkpt lat="42.2201235" lon="13.8231087"><ele>324.0</ele><time>2026-05-03T10:36:25.309Z</time></trkpt><trkpt lat="42.2200194" lon="13.82321"><ele>324.0</ele><time>2026-05-03T10:36:26.306Z</time></trkpt><trkpt lat="42.219919" lon="13.8233131"><ele>324.0</ele><time>2026-05-03T10:36:27.304Z</time></trkpt><trkpt lat="42.2198266" lon="13.8234147"><ele>324.0</ele><time>2026-05-03T10:36:28.304Z</time></trkpt><trkpt lat="42.2197361" lon="13.8235145"><ele>323.25</ele><time>2026-05-03T10:36:29.311Z</time></trkpt><trkpt lat="42.2196448" lon="13.8236254"><ele>322.5</ele><time>2026-05-03T10:36:30.308Z</time></trkpt><trkpt lat="42.2195566" lon="13.8237106"><ele>321.75</ele><time>2026-05-03T10:36:31.297Z</time></trkpt><trkpt lat="42.2194514" lon="13.8237931"><ele>321.0</ele><time>2026-05-03T10:36:32.296Z</time></trkpt><trkpt lat="42.2193283" lon="13.8238682"><ele>321.0</ele><time>2026-05-03T10:36:33.294Z</time></trkpt><trkpt lat="42.2191935" lon="13.823928"><ele>321.0</ele><time>2026-05-03T10:36:34.306Z</time></trkpt><trkpt lat="42.2190509" lon="13.8239836"><ele>321.0</ele><time>2026-05-03T10:36:35.305Z</time></trkpt><trkpt lat="42.2189275" lon="13.8240394"><ele>321.0</ele><time>2026-05-03T10:36:36.294Z</time></trkpt><trkpt lat="42.2188289" lon="13.8240982"><ele>321.20000000000005</ele><time>2026-05-03T10:36:37.301Z</time></trkpt><trkpt lat="42.2187387" lon="13.824144"><ele>321.40000000000003</ele><time>2026-05-03T10:36:38.3Z</time></trkpt><trkpt lat="42.218645" lon="13.8241814"><ele>321.6</ele><time>2026-05-03T10:36:39.3Z</time></trkpt><trkpt lat="42.2185535" lon="13.8242169"><ele>321.8</ele><time>2026-05-03T10:36:40.303Z</time></trkpt><trkpt lat="42.2184564" lon="13.8242619"><ele>322.0</ele><time>2026-05-03T10:36:41.301Z</time></trkpt><trkpt lat="42.2183685" lon="13.8243028"><ele>322.40000000000003</ele><time>2026-05-03T10:36:42.303Z</time></trkpt><trkpt lat="42.2182849" lon="13.8243337"><ele>322.8</ele><time>2026-05-03T10:36:43.303Z</time></trkpt><trkpt lat="42.2182082" lon="13.8243631"><ele>323.2</ele><time>2026-05-03T10:36:44.304Z</time></trkpt><trkpt lat="42.2181446" lon="13.8243792"><ele>323.6</ele><time>2026-05-03T10:36:45.306Z</time></trkpt><trkpt lat="42.2180447" lon="13.8243948"><ele>324.0</ele><time>2026-05-03T10:36:47.303Z</time></trkpt><trkpt lat="42.217913" lon="13.8244349"><ele>324.0</ele><time>2026-05-03T10:36:49.303Z</time></trkpt><trkpt lat="42.2178326" lon="13.8244838"><ele>324.0</ele><time>2026-05-03T10:36:50.302Z</time></trkpt><trkpt lat="42.2177471" lon="13.8245453"><ele>324.0</ele><time>2026-05-03T10:36:51.306Z</time></trkpt><trkpt lat="42.2176637" lon="13.8245967"><ele>324.0</ele><time>2026-05-03T10:36:52.302Z</time></trkpt><trkpt lat="42.2175872" lon="13.8246461"><ele>324.0</ele><time>2026-05-03T10:36:53.3Z</time></trkpt><trkpt lat="42.2175185" lon="13.8246878"><ele>324.0</ele><time>2026-05-03T10:36:54.309Z</time></trkpt><trkpt lat="42.2174514" lon="13.8247289"><ele>324.0</ele><time>2026-05-03T10:36:55.31Z</time></trkpt><trkpt lat="42.2173793" lon="13.8247721"><ele>324.0</ele><time>2026-05-03T10:36:56.301Z</time></trkpt><trkpt lat="42.2173078" lon="13.8248074"><ele>324.0</ele><time>2026-05-03T10:36:57.303Z</time></trkpt><trkpt lat="42.2172331" lon="13.8248549"><ele>324.0</ele><time>2026-05-03T10:36:58.302Z</time></trkpt><trkpt lat="42.2171642" lon="13.8248886"><ele>324.0</ele><time>2026-05-03T10:36:59.308Z</time></trkpt><trkpt lat="42.2171025" lon="13.8249092"><ele>324.0</ele><time>2026-05-03T10:37:00.299Z</time></trkpt><trkpt lat="42.2169855" lon="13.824854"><ele>323.6</ele><time>2026-05-03T10:37:02.294Z</time></trkpt><trkpt lat="42.2169276" lon="13.8247686"><ele>323.2</ele><time>2026-05-03T10:37:03.307Z</time></trkpt><trkpt lat="42.21687" lon="13.8246462"><ele>322.8</ele><time>2026-05-03T10:37:04.301Z</time></trkpt><trkpt lat="42.216827" lon="13.8245067"><ele>322.40000000000003</ele><time>2026-05-03T10:37:05.306Z</time></trkpt><trkpt lat="42.2167863" lon="13.8243533"><ele>322.0</ele><time>2026-05-03T10:37:06.304Z</time></trkpt><trkpt lat="42.2167336" lon="13.824205"><ele>321.25</ele><time>2026-05-03T10:37:07.304Z</time></trkpt><trkpt lat="42.2166753" lon="13.824058"><ele>320.5</ele><time>2026-05-03T10:37:08.305Z</time></trkpt><trkpt lat="42.2166152" lon="13.8239134"><ele>319.75</ele><time>2026-05-03T10:37:09.305Z</time></trkpt><trkpt lat="42.2165464" lon="13.8237596"><ele>319.0</ele><time>2026-05-03T10:37:10.306Z</time></trkpt><trkpt lat="42.2164794" lon="13.8236047"><ele>317.8</ele><time>2026-05-03T10:37:11.302Z</time></trkpt><trkpt lat="42.2164259" lon="13.8234726"><ele>316.59999999999997</ele><time>2026-05-03T10:37:12.303Z</time></trkpt><trkpt lat="42.2163785" lon="13.8233533"><ele>315.4</ele><time>2026-05-03T10:37:13.305Z</time></trkpt><trkpt lat="42.2163274" lon="13.8232309"><ele>314.2</ele><time>2026-05-03T10:37:14.304Z</time></trkpt><trkpt lat="42.2162788" lon="13.8231152"><ele>313.0</ele><time>2026-05-03T10:37:15.306Z</time></trkpt><trkpt lat="42.2162361" lon="13.8230016"><ele>313.0</ele><time>2026-05-03T10:37:16.302Z</time></trkpt><trkpt lat="42.2161905" lon="13.8228991"><ele>313.0</ele><time>2026-05-03T10:37:17.301Z</time></trkpt><trkpt lat="42.2161477" lon="13.8228037"><ele>313.0</ele><time>2026-05-03T10:37:18.306Z</time></trkpt><trkpt lat="42.2161008" lon="13.8226994"><ele>313.0</ele><time>2026-05-03T10:37:19.308Z</time></trkpt><trkpt lat="42.2160481" lon="13.8225937"><ele>313.0</ele><time>2026-05-03T10:37:20.305Z</time></trkpt><trkpt lat="42.2159901" lon="13.8224856"><ele>313.5</ele><time>2026-05-03T10:37:21.305Z</time></trkpt><trkpt lat="42.2159183" lon="13.8223905"><ele>314.0</ele><time>2026-05-03T10:37:22.295Z</time></trkpt><trkpt lat="42.2158239" lon="13.8223094"><ele>314.5</ele><time>2026-05-03T10:37:23.312Z</time></trkpt><trkpt lat="42.2157057" lon="13.8222758"><ele>315.0</ele><time>2026-05-03T10:37:24.294Z</time></trkpt><trkpt lat="42.2155856" lon="13.822259"><ele>315.5</ele><time>2026-05-03T10:37:25.313Z</time></trkpt><trkpt lat="42.2154695" lon="13.8222951"><ele>316.0</ele><time>2026-05-03T10:37:26.301Z</time></trkpt><trkpt lat="42.2153586" lon="13.8223566"><ele>316.5</ele><time>2026-05-03T10:37:27.302Z</time></trkpt><trkpt lat="42.2152481" lon="13.822433"><ele>317.0</ele><time>2026-05-03T10:37:28.305Z</time></trkpt><trkpt lat="42.2151393" lon="13.8225078"><ele>317.0</ele><time>2026-05-03T10:37:29.3Z</time></trkpt><trkpt lat="42.2150415" lon="13.822563"><ele>317.0</ele><time>2026-05-03T10:37:30.301Z</time></trkpt><trkpt lat="42.2149522" lon="13.8226194"><ele>317.0</ele><time>2026-05-03T10:37:31.302Z</time></trkpt><trkpt lat="42.2148585" lon="13.8226978"><ele>317.0</ele><time>2026-05-03T10:37:32.298Z</time></trkpt><trkpt lat="42.2147675" lon="13.8227559"><ele>317.0</ele><time>2026-05-03T10:37:33.297Z</time></trkpt><trkpt lat="42.2146889" lon="13.8227982"><ele>317.0</ele><time>2026-05-03T10:37:34.291Z</time></trkpt><trkpt lat="42.2146066" lon="13.8228201"><ele>317.0</ele><time>2026-05-03T10:37:35.283Z</time></trkpt><trkpt lat="42.2145182" lon="13.8228322"><ele>317.0</ele><time>2026-05-03T10:37:36.313Z</time></trkpt><trkpt lat="42.2144299" lon="13.8228058"><ele>317.0</ele><time>2026-05-03T10:37:37.299Z</time></trkpt><trkpt lat="42.2143446" lon="13.8227501"><ele>317.0</ele><time>2026-05-03T10:37:38.304Z</time></trkpt><trkpt lat="42.2142621" lon="13.8226612"><ele>317.0</ele><time>2026-05-03T10:37:39.301Z</time></trkpt><trkpt lat="42.2141869" lon="13.8225749"><ele>317.0</ele><time>2026-05-03T10:37:40.299Z</time></trkpt><trkpt lat="42.2141334" lon="13.822489"><ele>317.0</ele><time>2026-05-03T10:37:41.301Z</time></trkpt><trkpt lat="42.2140937" lon="13.8224058"><ele>317.0</ele><time>2026-05-03T10:37:42.297Z</time></trkpt><trkpt lat="42.2140473" lon="13.8222817"><ele>317.0</ele><time>2026-05-03T10:37:44.294Z</time></trkpt><trkpt lat="42.2140205" lon="13.8221953"><ele>317.0</ele><time>2026-05-03T10:37:46.3Z</time></trkpt><trkpt lat="42.2139698" lon="13.8221313"><ele>317.0</ele><time>2026-05-03T10:37:49.306Z</time></trkpt><trkpt lat="42.2139488" lon="13.8220372"><ele>317.0</ele><time>2026-05-03T10:37:52.303Z</time></trkpt><trkpt lat="42.2138853" lon="13.8220611"><ele>317.0</ele><time>2026-05-03T10:38:24.309Z</time></trkpt><trkpt lat="42.2138093" lon="13.8220231"><ele>317.0</ele><time>2026-05-03T10:38:26.296Z</time></trkpt><trkpt lat="42.2137587" lon="13.8218542"><ele>317.0</ele><time>2026-05-03T10:38:28.311Z</time></trkpt><trkpt lat="42.213765" lon="13.8217636"><ele>317.0</ele><time>2026-05-03T10:38:29.317Z</time></trkpt><trkpt lat="42.213766" lon="13.8216719"><ele>317.0</ele><time>2026-05-03T10:38:35.306Z</time></trkpt><trkpt lat="42.2137596" lon="13.8215575"><ele>317.0</ele><time>2026-05-03T10:38:39.305Z</time></trkpt><trkpt lat="42.2137409" lon="13.8216881"><ele>317.0</ele><time>2026-05-03T10:38:46.294Z</time></trkpt><trkpt lat="42.2137622" lon="13.8218752"><ele>317.0</ele><time>2026-05-03T10:38:48.305Z</time></trkpt><trkpt lat="42.2137831" lon="13.8219588"><ele>317.0</ele><time>2026-05-03T10:38:49.303Z</time></trkpt><trkpt lat="42.2138052" lon="13.8220646"><ele>317.0</ele><time>2026-05-03T10:38:51.3Z</time></trkpt><trkpt lat="42.2137499" lon="13.8221163"><ele>317.0</ele><time>2026-05-03T10:38:53.299Z</time></trkpt><trkpt lat="42.2136147" lon="13.8221511"><ele>317.0</ele><time>2026-05-03T10:38:55.299Z</time></trkpt><trkpt lat="42.2135148" lon="13.8221794"><ele>317.0</ele><time>2026-05-03T10:38:56.304Z</time></trkpt><trkpt lat="42.2134132" lon="13.822224"><ele>317.0</ele><time>2026-05-03T10:38:57.297Z</time></trkpt><trkpt lat="42.2133212" lon="13.8222594"><ele>317.0</ele><time>2026-05-03T10:38:58.305Z</time></trkpt><trkpt lat="42.2132441" lon="13.8222849"><ele>317.0</ele><time>2026-05-03T10:38:59.296Z</time></trkpt><trkpt lat="42.2131168" lon="13.8222742"><ele>317.0</ele><time>2026-05-03T10:39:01.312Z</time></trkpt><trkpt lat="42.2130902" lon="13.8221838"><ele>317.0</ele><time>2026-05-03T10:39:02.302Z</time></trkpt><trkpt lat="42.2130971" lon="13.8220548"><ele>317.0</ele><time>2026-05-03T10:39:03.311Z</time></trkpt><trkpt lat="42.2131126" lon="13.8218876"><ele>317.25</ele><time>2026-05-03T10:39:04.304Z</time></trkpt><trkpt lat="42.2131329" lon="13.8217229"><ele>317.5</ele><time>2026-05-03T10:39:05.302Z</time></trkpt><trkpt lat="42.2131578" lon="13.8215513"><ele>317.75</ele><time>2026-05-03T10:39:06.302Z</time></trkpt><trkpt lat="42.2131867" lon="13.8213759"><ele>318.0</ele><time>2026-05-03T10:39:07.298Z</time></trkpt><trkpt lat="42.2132054" lon="13.8211948"><ele>318.0</ele><time>2026-05-03T10:39:08.303Z</time></trkpt><trkpt lat="42.2132184" lon="13.8210339"><ele>318.0</ele><time>2026-05-03T10:39:09.308Z</time></trkpt><trkpt lat="42.2132331" lon="13.8208803"><ele>318.0</ele><time>2026-05-03T10:39:10.293Z</time></trkpt><trkpt lat="42.2132413" lon="13.8207393"><ele>318.0</ele><time>2026-05-03T10:39:11.298Z</time></trkpt><trkpt lat="42.2132307" lon="13.8205857"><ele>317.4</ele><time>2026-05-03T10:39:12.288Z</time></trkpt><trkpt lat="42.213208" lon="13.8204317"><ele>316.8</ele><time>2026-05-03T10:39:13.302Z</time></trkpt><trkpt lat="42.2131893" lon="13.8202906"><ele>316.2</ele><time>2026-05-03T10:39:14.301Z</time></trkpt><trkpt lat="42.2131865" lon="13.8201725"><ele>315.6</ele><time>2026-05-03T10:39:15.297Z</time></trkpt><trkpt lat="42.2132056" lon="13.8200594"><ele>315.0</ele><time>2026-05-03T10:39:16.309Z</time></trkpt><trkpt lat="42.2132706" lon="13.8199764"><ele>315.0</ele><time>2026-05-03T10:39:17.308Z</time></trkpt><trkpt lat="42.2133672" lon="13.8199482"><ele>315.0</ele><time>2026-05-03T10:39:18.308Z</time></trkpt><trkpt lat="42.2134628" lon="13.8199744"><ele>315.0</ele><time>2026-05-03T10:39:19.31Z</time></trkpt><trkpt lat="42.2135446" lon="13.8200505"><ele>315.0</ele><time>2026-05-03T10:39:20.307Z</time></trkpt><trkpt lat="42.2135908" lon="13.8201636"><ele>315.0</ele><time>2026-05-03T10:39:21.296Z</time></trkpt><trkpt lat="42.2136003" lon="13.8202781"><ele>315.0</ele><time>2026-05-03T10:39:22.308Z</time></trkpt><trkpt lat="42.2135734" lon="13.8203947"><ele>315.0</ele><time>2026-05-03T10:39:23.299Z</time></trkpt><trkpt lat="42.2135216" lon="13.8204906"><ele>315.0</ele><time>2026-05-03T10:39:24.312Z</time></trkpt><trkpt lat="42.2134434" lon="13.8205683"><ele>315.0</ele><time>2026-05-03T10:39:25.304Z</time></trkpt><trkpt lat="42.2133388" lon="13.8206284"><ele>315.0</ele><time>2026-05-03T10:39:26.304Z</time></trkpt><trkpt lat="42.2132273" lon="13.8207002"><ele>315.0</ele><time>2026-05-03T10:39:27.307Z</time></trkpt><trkpt lat="42.2131121" lon="13.8207792"><ele>315.0</ele><time>2026-05-03T10:39:28.305Z</time></trkpt><trkpt lat="42.2129902" lon="13.8208683"><ele>315.0</ele><time>2026-05-03T10:39:29.306Z</time></trkpt><trkpt lat="42.2128568" lon="13.8209672"><ele>315.0</ele><time>2026-05-03T10:39:30.299Z</time></trkpt><trkpt lat="42.2127066" lon="13.8210569"><ele>315.0</ele><time>2026-05-03T10:39:31.305Z</time></trkpt><trkpt lat="42.2125613" lon="13.8211486"><ele>315.0</ele><time>2026-05-03T10:39:32.302Z</time></trkpt><trkpt lat="42.2124223" lon="13.8212432"><ele>315.0</ele><time>2026-05-03T10:39:33.3Z</time></trkpt><trkpt lat="42.212294" lon="13.8213259"><ele>315.25</ele><time>2026-05-03T10:39:34.3Z</time></trkpt><trkpt lat="42.2121615" lon="13.8214175"><ele>315.5</ele><time>2026-05-03T10:39:35.301Z</time></trkpt><trkpt lat="42.2120231" lon="13.8215044"><ele>315.75</ele><time>2026-05-03T10:39:36.298Z</time></trkpt><trkpt lat="42.2118906" lon="13.8215896"><ele>316.0</ele><time>2026-05-03T10:39:37.299Z</time></trkpt><trkpt lat="42.2117641" lon="13.8216644"><ele>316.0</ele><time>2026-05-03T10:39:38.3Z</time></trkpt><trkpt lat="42.2116354" lon="13.8217471"><ele>316.0</ele><time>2026-05-03T10:39:39.303Z</time></trkpt><trkpt lat="42.2115074" lon="13.8218375"><ele>316.0</ele><time>2026-05-03T10:39:40.316Z</time></trkpt><trkpt lat="42.2113767" lon="13.8219242"><ele>316.0</ele><time>2026-05-03T10:39:41.302Z</time></trkpt><trkpt lat="42.2112384" lon="13.8220002"><ele>315.0</ele><time>2026-05-03T10:39:42.303Z</time></trkpt><trkpt lat="42.2111039" lon="13.8220793"><ele>314.0</ele><time>2026-05-03T10:39:43.303Z</time></trkpt><trkpt lat="42.2109728" lon="13.822169"><ele>313.0</ele><time>2026-05-03T10:39:44.307Z</time></trkpt><trkpt lat="42.2108365" lon="13.8222566"><ele>312.0</ele><time>2026-05-03T10:39:45.305Z</time></trkpt><trkpt lat="42.210695" lon="13.8223525"><ele>311.75</ele><time>2026-05-03T10:39:46.299Z</time></trkpt><trkpt lat="42.2105584" lon="13.8224438"><ele>311.5</ele><time>2026-05-03T10:39:47.294Z</time></trkpt><trkpt lat="42.2104239" lon="13.8225273"><ele>311.25</ele><time>2026-05-03T10:39:48.298Z</time></trkpt><trkpt lat="42.2102965" lon="13.8226115"><ele>311.0</ele><time>2026-05-03T10:39:49.3Z</time></trkpt><trkpt lat="42.2101804" lon="13.8226861"><ele>311.0</ele><time>2026-05-03T10:39:50.3Z</time></trkpt><trkpt lat="42.2100643" lon="13.8227606"><ele>311.0</ele><time>2026-05-03T10:39:51.305Z</time></trkpt><trkpt lat="42.2099458" lon="13.8228373"><ele>311.0</ele><time>2026-05-03T10:39:52.302Z</time></trkpt><trkpt lat="42.2098289" lon="13.8229152"><ele>311.0</ele><time>2026-05-03T10:39:53.301Z</time></trkpt><trkpt lat="42.209712" lon="13.8229949"><ele>312.5</ele><time>2026-05-03T10:39:54.303Z</time></trkpt><trkpt lat="42.2095963" lon="13.8230757"><ele>314.0</ele><time>2026-05-03T10:39:55.304Z</time></trkpt><trkpt lat="42.2094783" lon="13.8231605"><ele>315.5</ele><time>2026-05-03T10:39:56.301Z</time></trkpt><trkpt lat="42.2093625" lon="13.8232483"><ele>317.0</ele><time>2026-05-03T10:39:57.298Z</time></trkpt><trkpt lat="42.2092477" lon="13.8233307"><ele>317.0</ele><time>2026-05-03T10:39:58.308Z</time></trkpt><trkpt lat="42.2091311" lon="13.8234112"><ele>317.0</ele><time>2026-05-03T10:39:59.302Z</time></trkpt><trkpt lat="42.2090133" lon="13.8234915"><ele>317.0</ele><time>2026-05-03T10:40:00.306Z</time></trkpt><trkpt lat="42.2088926" lon="13.8235751"><ele>317.0</ele><time>2026-05-03T10:40:01.304Z</time></trkpt><trkpt lat="42.208772" lon="13.8236658"><ele>317.5</ele><time>2026-05-03T10:40:02.298Z</time></trkpt><trkpt lat="42.2086525" lon="13.8237653"><ele>318.0</ele><time>2026-05-03T10:40:03.294Z</time></trkpt><trkpt lat="42.2085327" lon="13.823882"><ele>318.5</ele><time>2026-05-03T10:40:04.295Z</time></trkpt><trkpt lat="42.2084169" lon="13.8240078"><ele>319.0</ele><time>2026-05-03T10:40:05.29Z</time></trkpt><trkpt lat="42.2082967" lon="13.8241491"><ele>319.0</ele><time>2026-05-03T10:40:06.294Z</time></trkpt><trkpt lat="42.2081629" lon="13.8242979"><ele>319.0</ele><time>2026-05-03T10:40:07.293Z</time></trkpt><trkpt lat="42.2080299" lon="13.8244568"><ele>319.0</ele><time>2026-05-03T10:40:08.284Z</time></trkpt><trkpt lat="42.2079075" lon="13.824624"><ele>317.0</ele><time>2026-05-03T10:40:09.277Z</time></trkpt><trkpt lat="42.2077872" lon="13.8248057"><ele>315.0</ele><time>2026-05-03T10:40:10.276Z</time></trkpt><trkpt lat="42.2076785" lon="13.8249975"><ele>313.0</ele><time>2026-05-03T10:40:11.287Z</time></trkpt><trkpt lat="42.2075766" lon="13.8251942"><ele>313.0</ele><time>2026-05-03T10:40:12.281Z</time></trkpt><trkpt lat="42.207478" lon="13.8254014"><ele>313.0</ele><time>2026-05-03T10:40:13.28Z</time></trkpt><trkpt lat="42.2073778" lon="13.8256106"><ele>313.0</ele><time>2026-05-03T10:40:14.277Z</time></trkpt><trkpt lat="42.2072823" lon="13.8258216"><ele>313.0</ele><time>2026-05-03T10:40:15.283Z</time></trkpt><trkpt lat="42.2071905" lon="13.8260156"><ele>313.0</ele><time>2026-05-03T10:40:16.275Z</time></trkpt><trkpt lat="42.2070806" lon="13.8261884"><ele>313.0</ele><time>2026-05-03T10:40:17.275Z</time></trkpt><trkpt lat="42.2069544" lon="13.8263546"><ele>313.0</ele><time>2026-05-03T10:40:18.272Z</time></trkpt><trkpt lat="42.2068433" lon="13.8265257"><ele>313.0</ele><time>2026-05-03T10:40:19.274Z</time></trkpt><trkpt lat="42.2067264" lon="13.8266871"><ele>313.0</ele><time>2026-05-03T10:40:20.263Z</time></trkpt><trkpt lat="42.2065902" lon="13.8268445"><ele>316.66666666666663</ele><time>2026-05-03T10:40:21.274Z</time></trkpt><trkpt lat="42.2064621" lon="13.8270056"><ele>320.3333333333333</ele><time>2026-05-03T10:40:22.279Z</time></trkpt><trkpt lat="42.2063468" lon="13.8271768"><ele>324.0</ele><time>2026-05-03T10:40:23.271Z</time></trkpt><trkpt lat="42.2062262" lon="13.8273468"><ele>324.0</ele><time>2026-05-03T10:40:24.278Z</time></trkpt><trkpt lat="42.20613" lon="13.8275229"><ele>324.0</ele><time>2026-05-03T10:40:25.279Z</time></trkpt><trkpt lat="42.2060368" lon="13.8277082"><ele>324.0</ele><time>2026-05-03T10:40:26.282Z</time></trkpt><trkpt lat="42.2059536" lon="13.8279056"><ele>317.6666666666667</ele><time>2026-05-03T10:40:27.279Z</time></trkpt><trkpt lat="42.2058991" lon="13.8281248"><ele>311.33333333333337</ele><time>2026-05-03T10:40:28.28Z</time></trkpt><trkpt lat="42.2058511" lon="13.8283578"><ele>305.0</ele><time>2026-05-03T10:40:29.282Z</time></trkpt><trkpt lat="42.2058195" lon="13.8285876"><ele>301.6666666666667</ele><time>2026-05-03T10:40:30.281Z</time></trkpt><trkpt lat="42.2057861" lon="13.8288209"><ele>298.3333333333333</ele><time>2026-05-03T10:40:31.288Z</time></trkpt><trkpt lat="42.2057418" lon="13.8290525"><ele>295.0</ele><time>2026-05-03T10:40:32.282Z</time></trkpt><trkpt lat="42.2057025" lon="13.8292925"><ele>290.0</ele><time>2026-05-03T10:40:33.293Z</time></trkpt><trkpt lat="42.2056722" lon="13.8295317"><ele>285.0</ele><time>2026-05-03T10:40:34.294Z</time></trkpt><trkpt lat="42.2056452" lon="13.8297726"><ele>280.0</ele><time>2026-05-03T10:40:35.289Z</time></trkpt><trkpt lat="42.2056174" lon="13.8300148"><ele>288.0</ele><time>2026-05-03T10:40:36.29Z</time></trkpt><trkpt lat="42.2055747" lon="13.8302484"><ele>296.0</ele><time>2026-05-03T10:40:37.287Z</time></trkpt><trkpt lat="42.2055296" lon="13.8304714"><ele>304.0</ele><time>2026-05-03T10:40:38.291Z</time></trkpt><trkpt lat="42.2054885" lon="13.8306923"><ele>304.0</ele><time>2026-05-03T10:40:39.292Z</time></trkpt><trkpt lat="42.2054561" lon="13.8309086"><ele>304.0</ele><time>2026-05-03T10:40:40.299Z</time></trkpt><trkpt lat="42.2054135" lon="13.8311266"><ele>304.0</ele><time>2026-05-03T10:40:41.294Z</time></trkpt><trkpt lat="42.2053749" lon="13.8313479"><ele>301.3333333333333</ele><time>2026-05-03T10:40:42.302Z</time></trkpt><trkpt lat="42.2053195" lon="13.8315584"><ele>298.6666666666667</ele><time>2026-05-03T10:40:43.292Z</time></trkpt><trkpt lat="42.2052608" lon="13.8317765"><ele>296.0</ele><time>2026-05-03T10:40:44.292Z</time></trkpt><trkpt lat="42.2051914" lon="13.8319917"><ele>291.33333333333337</ele><time>2026-05-03T10:40:45.294Z</time></trkpt><trkpt lat="42.2051218" lon="13.8322084"><ele>286.6666666666667</ele><time>2026-05-03T10:40:46.293Z</time></trkpt><trkpt lat="42.2050555" lon="13.8324246"><ele>282.0</ele><time>2026-05-03T10:40:47.287Z</time></trkpt><trkpt lat="42.2049764" lon="13.8326395"><ele>277.3333333333333</ele><time>2026-05-03T10:40:48.293Z</time></trkpt><trkpt lat="42.2049049" lon="13.8328486"><ele>272.66666666666663</ele><time>2026-05-03T10:40:49.293Z</time></trkpt><trkpt lat="42.2048213" lon="13.8330571"><ele>268.0</ele><time>2026-05-03T10:40:50.293Z</time></trkpt><trkpt lat="42.2047496" lon="13.8332606"><ele>272.66666666666663</ele><time>2026-05-03T10:40:51.298Z</time></trkpt><trkpt lat="42.2046474" lon="13.8334735"><ele>277.3333333333333</ele><time>2026-05-03T10:40:52.294Z</time></trkpt><trkpt lat="42.2045555" lon="13.8336929"><ele>282.0</ele><time>2026-05-03T10:40:53.291Z</time></trkpt><trkpt lat="42.2044719" lon="13.8339111"><ele>282.0</ele><time>2026-05-03T10:40:54.296Z</time></trkpt><trkpt lat="42.2043816" lon="13.8341275"><ele>282.0</ele><time>2026-05-03T10:40:55.293Z</time></trkpt><trkpt lat="42.2042995" lon="13.8343428"><ele>282.0</ele><time>2026-05-03T10:40:56.293Z</time></trkpt><trkpt lat="42.204205" lon="13.8345585"><ele>279.6666666666667</ele><time>2026-05-03T10:40:57.292Z</time></trkpt><trkpt lat="42.2041156" lon="13.8347711"><ele>277.33333333333337</ele><time>2026-05-03T10:40:58.294Z</time></trkpt><trkpt lat="42.2040212" lon="13.8349766"><ele>275.0</ele><time>2026-05-03T10:40:59.294Z</time></trkpt><trkpt lat="42.2039386" lon="13.835185"><ele>275.0</ele><time>2026-05-03T10:41:00.294Z</time></trkpt><trkpt lat="42.2038608" lon="13.835391"><ele>275.0</ele><time>2026-05-03T10:41:01.291Z</time></trkpt><trkpt lat="42.2037855" lon="13.8355894"><ele>275.0</ele><time>2026-05-03T10:41:02.293Z</time></trkpt><trkpt lat="42.2037039" lon="13.8357818"><ele>275.0</ele><time>2026-05-03T10:41:03.29Z</time></trkpt><trkpt lat="42.2035958" lon="13.8359662"><ele>275.0</ele><time>2026-05-03T10:41:04.29Z</time></trkpt><trkpt lat="42.2034793" lon="13.8361246"><ele>275.0</ele><time>2026-05-03T10:41:05.292Z</time></trkpt><trkpt lat="42.203357" lon="13.8362903"><ele>271.33333333333337</ele><time>2026-05-03T10:41:06.292Z</time></trkpt><trkpt lat="42.203232" lon="13.836445"><ele>267.6666666666667</ele><time>2026-05-03T10:41:07.285Z</time></trkpt><trkpt lat="42.2030873" lon="13.8365812"><ele>264.0</ele><time>2026-05-03T10:41:08.296Z</time></trkpt><trkpt lat="42.2029346" lon="13.8367019"><ele>260.6666666666667</ele><time>2026-05-03T10:41:09.293Z</time></trkpt><trkpt lat="42.2027798" lon="13.8368169"><ele>257.33333333333337</ele><time>2026-05-03T10:41:10.294Z</time></trkpt><trkpt lat="42.2026217" lon="13.8369265"><ele>254.0</ele><time>2026-05-03T10:41:11.297Z</time></trkpt><trkpt lat="42.2024661" lon="13.8370045"><ele>254.0</ele><time>2026-05-03T10:41:12.295Z</time></trkpt><trkpt lat="42.2023036" lon="13.8370784"><ele>254.0</ele><time>2026-05-03T10:41:13.306Z</time></trkpt><trkpt lat="42.2021423" lon="13.8371413"><ele>254.0</ele><time>2026-05-03T10:41:14.296Z</time></trkpt><trkpt lat="42.2019742" lon="13.8371988"><ele>254.0</ele><time>2026-05-03T10:41:15.294Z</time></trkpt><trkpt lat="42.2017984" lon="13.8372421"><ele>254.0</ele><time>2026-05-03T10:41:16.297Z</time></trkpt><trkpt lat="42.2016197" lon="13.8372716"><ele>254.0</ele><time>2026-05-03T10:41:17.298Z</time></trkpt><trkpt lat="42.2014539" lon="13.8372873"><ele>255.0</ele><time>2026-05-03T10:41:18.298Z</time></trkpt><trkpt lat="42.2012917" lon="13.8373039"><ele>256.0</ele><time>2026-05-03T10:41:19.295Z</time></trkpt><trkpt lat="42.2011254" lon="13.8373307"><ele>257.0</ele><time>2026-05-03T10:41:20.292Z</time></trkpt><trkpt lat="42.2009595" lon="13.8373548"><ele>257.0</ele><time>2026-05-03T10:41:21.303Z</time></trkpt><trkpt lat="42.2007871" lon="13.8373825"><ele>257.0</ele><time>2026-05-03T10:41:22.3Z</time></trkpt><trkpt lat="42.2006214" lon="13.8374077"><ele>257.0</ele><time>2026-05-03T10:41:23.297Z</time></trkpt><trkpt lat="42.2004572" lon="13.8374327"><ele>259.0</ele><time>2026-05-03T10:41:24.301Z</time></trkpt><trkpt lat="42.2002911" lon="13.8374576"><ele>261.0</ele><time>2026-05-03T10:41:25.3Z</time></trkpt><trkpt lat="42.20012" lon="13.8374849"><ele>263.0</ele><time>2026-05-03T10:41:26.298Z</time></trkpt><trkpt lat="42.1999552" lon="13.8375116"><ele>265.0</ele><time>2026-05-03T10:41:27.297Z</time></trkpt><trkpt lat="42.199806" lon="13.8375318"><ele>267.0</ele><time>2026-05-03T10:41:28.298Z</time></trkpt><trkpt lat="42.1996428" lon="13.8375703"><ele>269.0</ele><time>2026-05-03T10:41:29.298Z</time></trkpt><trkpt lat="42.1994867" lon="13.8375994"><ele>269.0</ele><time>2026-05-03T10:41:30.295Z</time></trkpt><trkpt lat="42.199329" lon="13.8376169"><ele>269.0</ele><time>2026-05-03T10:41:31.301Z</time></trkpt><trkpt lat="42.1991685" lon="13.8376256"><ele>269.0</ele><time>2026-05-03T10:41:32.294Z</time></trkpt><trkpt lat="42.1990042" lon="13.8376262"><ele>268.0</ele><time>2026-05-03T10:41:33.295Z</time></trkpt><trkpt lat="42.1988408" lon="13.837612"><ele>267.0</ele><time>2026-05-03T10:41:34.288Z</time></trkpt><trkpt lat="42.1986765" lon="13.8375749"><ele>266.0</ele><time>2026-05-03T10:41:35.286Z</time></trkpt><trkpt lat="42.1985143" lon="13.8375246"><ele>266.0</ele><time>2026-05-03T10:41:36.288Z</time></trkpt><trkpt lat="42.198351" lon="13.8374641"><ele>266.0</ele><time>2026-05-03T10:41:37.29Z</time></trkpt><trkpt lat="42.1981896" lon="13.8374248"><ele>266.0</ele><time>2026-05-03T10:41:38.285Z</time></trkpt><trkpt lat="42.1980213" lon="13.8374131"><ele>265.33333333333337</ele><time>2026-05-03T10:41:39.283Z</time></trkpt><trkpt lat="42.1978531" lon="13.8374313"><ele>264.6666666666667</ele><time>2026-05-03T10:41:40.294Z</time></trkpt><trkpt lat="42.1976962" lon="13.8374727"><ele>264.0</ele><time>2026-05-03T10:41:41.293Z</time></trkpt><trkpt lat="42.1975353" lon="13.8375434"><ele>264.0</ele><time>2026-05-03T10:41:42.302Z</time></trkpt><trkpt lat="42.197375" lon="13.8376112"><ele>264.0</ele><time>2026-05-03T10:41:43.295Z</time></trkpt><trkpt lat="42.1972186" lon="13.8377038"><ele>264.0</ele><time>2026-05-03T10:41:44.299Z</time></trkpt><trkpt lat="42.1970679" lon="13.8378043"><ele>265.6666666666667</ele><time>2026-05-03T10:41:45.303Z</time></trkpt><trkpt lat="42.1969143" lon="13.8379232"><ele>267.33333333333337</ele><time>2026-05-03T10:41:46.293Z</time></trkpt><trkpt lat="42.1967902" lon="13.8380625"><ele>269.0</ele><time>2026-05-03T10:41:47.298Z</time></trkpt><trkpt lat="42.196678" lon="13.8382121"><ele>269.0</ele><time>2026-05-03T10:41:48.298Z</time></trkpt><trkpt lat="42.1965652" lon="13.8383908"><ele>269.0</ele><time>2026-05-03T10:41:49.293Z</time></trkpt><trkpt lat="42.1964512" lon="13.8385823"><ele>269.0</ele><time>2026-05-03T10:41:50.285Z</time></trkpt><trkpt lat="42.1963513" lon="13.8387808"><ele>273.0</ele><time>2026-05-03T10:41:51.289Z</time></trkpt><trkpt lat="42.1962565" lon="13.8389838"><ele>277.0</ele><time>2026-05-03T10:41:52.282Z</time></trkpt><trkpt lat="42.1961746" lon="13.8392064"><ele>281.0</ele><time>2026-05-03T10:41:53.28Z</time></trkpt><trkpt lat="42.1961111" lon="13.8394294"><ele>281.0</ele><time>2026-05-03T10:41:54.284Z</time></trkpt><trkpt lat="42.1960526" lon="13.8396503"><ele>281.0</ele><time>2026-05-03T10:41:55.282Z</time></trkpt><trkpt lat="42.1960119" lon="13.8398848"><ele>281.0</ele><time>2026-05-03T10:41:56.276Z</time></trkpt><trkpt lat="42.1959915" lon="13.8401138"><ele>279.0</ele><time>2026-05-03T10:41:57.282Z</time></trkpt><trkpt lat="42.1959967" lon="13.8403442"><ele>277.0</ele><time>2026-05-03T10:41:58.285Z</time></trkpt><trkpt lat="42.1959914" lon="13.84057"><ele>275.0</ele><time>2026-05-03T10:41:59.288Z</time></trkpt><trkpt lat="42.1959805" lon="13.8407893"><ele>272.33333333333337</ele><time>2026-05-03T10:42:00.286Z</time></trkpt><trkpt lat="42.1959549" lon="13.8410148"><ele>269.6666666666667</ele><time>2026-05-03T10:42:01.293Z</time></trkpt><trkpt lat="42.1959354" lon="13.8412396"><ele>267.0</ele><time>2026-05-03T10:42:02.292Z</time></trkpt><trkpt lat="42.1959154" lon="13.8414623"><ele>267.0</ele><time>2026-05-03T10:42:03.286Z</time></trkpt><trkpt lat="42.1958793" lon="13.8416886"><ele>267.0</ele><time>2026-05-03T10:42:04.288Z</time></trkpt><trkpt lat="42.195843" lon="13.8418913"><ele>267.0</ele><time>2026-05-03T10:42:05.283Z</time></trkpt><trkpt lat="42.1957867" lon="13.8421004"><ele>263.3333333333333</ele><time>2026-05-03T10:42:06.287Z</time></trkpt><trkpt lat="42.1956992" lon="13.8422923"><ele>259.66666666666663</ele><time>2026-05-03T10:42:07.286Z</time></trkpt><trkpt lat="42.1956001" lon="13.8424646"><ele>256.0</ele><time>2026-05-03T10:42:08.28Z</time></trkpt><trkpt lat="42.195496" lon="13.8426303"><ele>280.66666666666663</ele><time>2026-05-03T10:42:09.277Z</time></trkpt><trkpt lat="42.1953739" lon="13.8427838"><ele>305.3333333333333</ele><time>2026-05-03T10:42:10.277Z</time></trkpt><trkpt lat="42.195227" lon="13.8429366"><ele>330.0</ele><time>2026-05-03T10:42:11.27Z</time></trkpt><trkpt lat="42.1950921" lon="13.843082"><ele>330.0</ele><time>2026-05-03T10:42:12.254Z</time></trkpt><trkpt lat="42.1950329" lon="13.8432228"><ele>330.0</ele><time>2026-05-03T10:42:13.25Z</time></trkpt><trkpt lat="42.1949104" lon="13.8433718"><ele>330.0</ele><time>2026-05-03T10:42:14.24Z</time></trkpt><trkpt lat="42.194783" lon="13.8435492"><ele>340.0</ele><time>2026-05-03T10:42:15.238Z</time></trkpt><trkpt lat="42.194662" lon="13.8437002"><ele>350.0</ele><time>2026-05-03T10:42:16.196Z</time></trkpt><trkpt lat="42.194541" lon="13.8438512"><ele>360.0</ele><time>2026-05-03T10:42:17.17Z</time></trkpt><trkpt lat="42.1916989" lon="13.8464751"><ele>322.6666666666667</ele><time>2026-05-03T10:42:36.268Z</time></trkpt><trkpt lat="42.1915509" lon="13.8466157"><ele>285.33333333333337</ele><time>2026-05-03T10:42:37.263Z</time></trkpt><trkpt lat="42.191423" lon="13.8467627"><ele>248.0</ele><time>2026-05-03T10:42:38.265Z</time></trkpt><trkpt lat="42.1912927" lon="13.8469098"><ele>247.0</ele><time>2026-05-03T10:42:39.296Z</time></trkpt><trkpt lat="42.1911712" lon="13.8470359"><ele>246.0</ele><time>2026-05-03T10:42:40.294Z</time></trkpt><trkpt lat="42.1910594" lon="13.8471247"><ele>245.0</ele><time>2026-05-03T10:42:41.294Z</time></trkpt><trkpt lat="42.1909287" lon="13.8472507"><ele>244.0</ele><time>2026-05-03T10:42:42.284Z</time></trkpt><trkpt lat="42.1908114" lon="13.847353"><ele>244.0</ele><time>2026-05-03T10:42:43.291Z</time></trkpt><trkpt lat="42.190714" lon="13.8474474"><ele>244.0</ele><time>2026-05-03T10:42:44.297Z</time></trkpt><trkpt lat="42.1906138" lon="13.8475266"><ele>244.0</ele><time>2026-05-03T10:42:45.294Z</time></trkpt><trkpt lat="42.1905107" lon="13.8475738"><ele>244.0</ele><time>2026-05-03T10:42:46.295Z</time></trkpt><trkpt lat="42.1903898" lon="13.8476026"><ele>245.79999999999998</ele><time>2026-05-03T10:42:47.295Z</time></trkpt><trkpt lat="42.190287" lon="13.8476406"><ele>247.59999999999997</ele><time>2026-05-03T10:42:48.29Z</time></trkpt><trkpt lat="42.1902063" lon="13.8477048"><ele>249.4</ele><time>2026-05-03T10:42:49.284Z</time></trkpt><trkpt lat="42.1901432" lon="13.8478076"><ele>251.2</ele><time>2026-05-03T10:42:50.297Z</time></trkpt><trkpt lat="42.1901172" lon="13.8479345"><ele>253.0</ele><time>2026-05-03T10:42:51.299Z</time></trkpt><trkpt lat="42.1901328" lon="13.848061"><ele>253.0</ele><time>2026-05-03T10:42:52.283Z</time></trkpt><trkpt lat="42.1901797" lon="13.8481748"><ele>253.0</ele><time>2026-05-03T10:42:53.288Z</time></trkpt><trkpt lat="42.1902777" lon="13.8482593"><ele>253.0</ele><time>2026-05-03T10:42:54.284Z</time></trkpt><trkpt lat="42.1904016" lon="13.848321"><ele>253.0</ele><time>2026-05-03T10:42:55.284Z</time></trkpt><trkpt lat="42.190532" lon="13.848399"><ele>251.5</ele><time>2026-05-03T10:42:56.289Z</time></trkpt><trkpt lat="42.1906449" lon="13.8485201"><ele>250.0</ele><time>2026-05-03T10:42:57.286Z</time></trkpt><trkpt lat="42.1907387" lon="13.8486705"><ele>248.5</ele><time>2026-05-03T10:42:58.288Z</time></trkpt><trkpt lat="42.1908314" lon="13.8488382"><ele>247.0</ele><time>2026-05-03T10:42:59.292Z</time></trkpt><trkpt lat="42.1909163" lon="13.8490141"><ele>247.0</ele><time>2026-05-03T10:43:00.288Z</time></trkpt><trkpt lat="42.1910056" lon="13.8492012"><ele>247.0</ele><time>2026-05-03T10:43:01.293Z</time></trkpt><trkpt lat="42.1911022" lon="13.8493917"><ele>247.0</ele><time>2026-05-03T10:43:02.285Z</time></trkpt><trkpt lat="42.1912081" lon="13.8495822"><ele>254.66666666666666</ele><time>2026-05-03T10:43:03.286Z</time></trkpt><trkpt lat="42.1913043" lon="13.8497618"><ele>262.3333333333333</ele><time>2026-05-03T10:43:04.291Z</time></trkpt><trkpt lat="42.1914053" lon="13.849948"><ele>270.0</ele><time>2026-05-03T10:43:05.279Z</time></trkpt><trkpt lat="42.1915039" lon="13.8501226"><ele>267.3333333333333</ele><time>2026-05-03T10:43:06.282Z</time></trkpt><trkpt lat="42.1916373" lon="13.8502813"><ele>264.66666666666663</ele><time>2026-05-03T10:43:07.279Z</time></trkpt><trkpt lat="42.1917712" lon="13.850435"><ele>262.0</ele><time>2026-05-03T10:43:08.275Z</time></trkpt><trkpt lat="42.1918963" lon="13.8505835"><ele>262.0</ele><time>2026-05-03T10:43:09.275Z</time></trkpt><trkpt lat="42.1920405" lon="13.8507236"><ele>262.0</ele><time>2026-05-03T10:43:10.278Z</time></trkpt><trkpt lat="42.1921865" lon="13.8508792"><ele>262.0</ele><time>2026-05-03T10:43:11.278Z</time></trkpt><trkpt lat="42.1923344" lon="13.8510181"><ele>262.3333333333333</ele><time>2026-05-03T10:43:12.276Z</time></trkpt><trkpt lat="42.1924745" lon="13.8511483"><ele>262.6666666666667</ele><time>2026-05-03T10:43:13.274Z</time></trkpt><trkpt lat="42.1926137" lon="13.8512711"><ele>263.0</ele><time>2026-05-03T10:43:14.275Z</time></trkpt><trkpt lat="42.1927516" lon="13.851401"><ele>263.0</ele><time>2026-05-03T10:43:15.279Z</time></trkpt><trkpt lat="42.192881" lon="13.8515416"><ele>263.0</ele><time>2026-05-03T10:43:16.271Z</time></trkpt><trkpt lat="42.1930145" lon="13.8516829"><ele>263.0</ele><time>2026-05-03T10:43:17.279Z</time></trkpt><trkpt lat="42.1931569" lon="13.8518081"><ele>268.33333333333337</ele><time>2026-05-03T10:43:18.271Z</time></trkpt><trkpt lat="42.1933039" lon="13.8519068"><ele>273.6666666666667</ele><time>2026-05-03T10:43:19.264Z</time></trkpt><trkpt lat="42.1934747" lon="13.8519657"><ele>279.0</ele><time>2026-05-03T10:43:20.27Z</time></trkpt><trkpt lat="42.193648" lon="13.851986"><ele>279.0</ele><time>2026-05-03T10:43:21.269Z</time></trkpt><trkpt lat="42.1938194" lon="13.8520021"><ele>279.0</ele><time>2026-05-03T10:43:22.274Z</time></trkpt><trkpt lat="42.1939842" lon="13.8520099"><ele>279.0</ele><time>2026-05-03T10:43:23.271Z</time></trkpt><trkpt lat="42.1941491" lon="13.8520177"><ele>272.3333333333333</ele><time>2026-05-03T10:43:24.273Z</time></trkpt><trkpt lat="42.1943167" lon="13.8520458"><ele>265.66666666666663</ele><time>2026-05-03T10:43:25.279Z</time></trkpt><trkpt lat="42.194493" lon="13.8520908"><ele>259.0</ele><time>2026-05-03T10:43:26.282Z</time></trkpt><trkpt lat="42.19465" lon="13.8521534"><ele>259.0</ele><time>2026-05-03T10:43:27.284Z</time></trkpt><trkpt lat="42.1948008" lon="13.8522373"><ele>259.0</ele><time>2026-05-03T10:43:28.291Z</time></trkpt><trkpt lat="42.1949341" lon="13.8523581"><ele>259.0</ele><time>2026-05-03T10:43:29.281Z</time></trkpt><trkpt lat="42.1950616" lon="13.8524889"><ele>261.0</ele><time>2026-05-03T10:43:30.276Z</time></trkpt><trkpt lat="42.1951687" lon="13.8526531"><ele>263.0</ele><time>2026-05-03T10:43:31.275Z</time></trkpt><trkpt lat="42.195267" lon="13.8528507"><ele>265.0</ele><time>2026-05-03T10:43:32.278Z</time></trkpt><trkpt lat="42.1953656" lon="13.8530649"><ele>265.0</ele><time>2026-05-03T10:43:33.273Z</time></trkpt><trkpt lat="42.195455" lon="13.8532876"><ele>265.0</ele><time>2026-05-03T10:43:34.278Z</time></trkpt><trkpt lat="42.1955327" lon="13.8535198"><ele>265.0</ele><time>2026-05-03T10:43:35.28Z</time></trkpt><trkpt lat="42.1955888" lon="13.8537584"><ele>270.0</ele><time>2026-05-03T10:43:36.282Z</time></trkpt><trkpt lat="42.1956619" lon="13.8539909"><ele>275.0</ele><time>2026-05-03T10:43:37.284Z</time></trkpt><trkpt lat="42.1957356" lon="13.8542248"><ele>280.0</ele><time>2026-05-03T10:43:38.283Z</time></trkpt><trkpt lat="42.1958089" lon="13.8544566"><ele>269.66666666666663</ele><time>2026-05-03T10:43:39.281Z</time></trkpt><trkpt lat="42.1958693" lon="13.8546897"><ele>259.3333333333333</ele><time>2026-05-03T10:43:40.279Z</time></trkpt><trkpt lat="42.195929" lon="13.8549058"><ele>249.0</ele><time>2026-05-03T10:43:41.267Z</time></trkpt><trkpt lat="42.195959" lon="13.8551294"><ele>249.0</ele><time>2026-05-03T10:43:42.272Z</time></trkpt><trkpt lat="42.195959" lon="13.8553598"><ele>249.0</ele><time>2026-05-03T10:43:43.276Z</time></trkpt><trkpt lat="42.195935" lon="13.8555866"><ele>249.0</ele><time>2026-05-03T10:43:44.277Z</time></trkpt><trkpt lat="42.195896" lon="13.8558126"><ele>248.33333333333331</ele><time>2026-05-03T10:43:45.279Z</time></trkpt><trkpt lat="42.195864" lon="13.856035"><ele>247.66666666666666</ele><time>2026-05-03T10:43:46.281Z</time></trkpt><trkpt lat="42.1958487" lon="13.8562706"><ele>247.0</ele><time>2026-05-03T10:43:47.28Z</time></trkpt><trkpt lat="42.1958485" lon="13.8565081"><ele>247.0</ele><time>2026-05-03T10:43:48.28Z</time></trkpt><trkpt lat="42.1958345" lon="13.8567386"><ele>247.0</ele><time>2026-05-03T10:43:49.283Z</time></trkpt><trkpt lat="42.1958113" lon="13.8569575"><ele>247.0</ele><time>2026-05-03T10:43:50.281Z</time></trkpt><trkpt lat="42.1958004" lon="13.8571828"><ele>247.33333333333331</ele><time>2026-05-03T10:43:51.287Z</time></trkpt><trkpt lat="42.1957851" lon="13.8573985"><ele>247.66666666666669</ele><time>2026-05-03T10:43:52.284Z</time></trkpt><trkpt lat="42.1957624" lon="13.8576145"><ele>248.0</ele><time>2026-05-03T10:43:53.282Z</time></trkpt><trkpt lat="42.195741" lon="13.8578342"><ele>247.0</ele><time>2026-05-03T10:43:54.287Z</time></trkpt><trkpt lat="42.1957212" lon="13.8580489"><ele>246.0</ele><time>2026-05-03T10:43:55.288Z</time></trkpt><trkpt lat="42.1957025" lon="13.8582598"><ele>245.0</ele><time>2026-05-03T10:43:56.283Z</time></trkpt><trkpt lat="42.1956894" lon="13.8584784"><ele>243.66666666666669</ele><time>2026-05-03T10:43:57.292Z</time></trkpt><trkpt lat="42.1956708" lon="13.8586976"><ele>242.33333333333331</ele><time>2026-05-03T10:43:58.293Z</time></trkpt><trkpt lat="42.195654" lon="13.8589143"><ele>241.0</ele><time>2026-05-03T10:43:59.293Z</time></trkpt><trkpt lat="42.1956284" lon="13.8591401"><ele>252.66666666666666</ele><time>2026-05-03T10:44:00.295Z</time></trkpt><trkpt lat="42.1955969" lon="13.8593619"><ele>264.3333333333333</ele><time>2026-05-03T10:44:01.292Z</time></trkpt><trkpt lat="42.1955737" lon="13.8595805"><ele>276.0</ele><time>2026-05-03T10:44:02.288Z</time></trkpt><trkpt lat="42.1955736" lon="13.8597966"><ele>276.0</ele><time>2026-05-03T10:44:03.29Z</time></trkpt><trkpt lat="42.1955733" lon="13.8600113"><ele>276.0</ele><time>2026-05-03T10:44:04.29Z</time></trkpt><trkpt lat="42.1955607" lon="13.8602273"><ele>276.0</ele><time>2026-05-03T10:44:05.294Z</time></trkpt><trkpt lat="42.1955496" lon="13.8604507"><ele>275.3333333333333</ele><time>2026-05-03T10:44:06.298Z</time></trkpt><trkpt lat="42.1955453" lon="13.860681"><ele>274.66666666666663</ele><time>2026-05-03T10:44:07.295Z</time></trkpt><trkpt lat="42.1955494" lon="13.8609068"><ele>274.0</ele><time>2026-05-03T10:44:08.295Z</time></trkpt><trkpt lat="42.1955415" lon="13.8611208"><ele>273.66666666666663</ele><time>2026-05-03T10:44:09.294Z</time></trkpt><trkpt lat="42.1955359" lon="13.8613304"><ele>273.3333333333333</ele><time>2026-05-03T10:44:10.286Z</time></trkpt><trkpt lat="42.1955417" lon="13.8615418"><ele>273.0</ele><time>2026-05-03T10:44:11.295Z</time></trkpt><trkpt lat="42.1955489" lon="13.8617459"><ele>275.3333333333333</ele><time>2026-05-03T10:44:12.295Z</time></trkpt><trkpt lat="42.1955501" lon="13.861953"><ele>277.66666666666663</ele><time>2026-05-03T10:44:13.291Z</time></trkpt><trkpt lat="42.1955752" lon="13.8621584"><ele>280.0</ele><time>2026-05-03T10:44:14.291Z</time></trkpt><trkpt lat="42.1956142" lon="13.8623605"><ele>280.0</ele><time>2026-05-03T10:44:15.294Z</time></trkpt><trkpt lat="42.1956615" lon="13.8625688"><ele>280.0</ele><time>2026-05-03T10:44:16.295Z</time></trkpt><trkpt lat="42.1957217" lon="13.8627773"><ele>280.0</ele><time>2026-05-03T10:44:17.298Z</time></trkpt><trkpt lat="42.1957933" lon="13.862988"><ele>274.0</ele><time>2026-05-03T10:44:18.294Z</time></trkpt><trkpt lat="42.1958557" lon="13.8632074"><ele>268.0</ele><time>2026-05-03T10:44:19.302Z</time></trkpt><trkpt lat="42.1959297" lon="13.8634164"><ele>262.0</ele><time>2026-05-03T10:44:20.293Z</time></trkpt><trkpt lat="42.196016" lon="13.8636174"><ele>262.0</ele><time>2026-05-03T10:44:21.292Z</time></trkpt><trkpt lat="42.1961039" lon="13.8638207"><ele>262.0</ele><time>2026-05-03T10:44:22.29Z</time></trkpt><trkpt lat="42.19619" lon="13.8640232"><ele>262.0</ele><time>2026-05-03T10:44:23.293Z</time></trkpt><trkpt lat="42.1962726" lon="13.8642343"><ele>267.0</ele><time>2026-05-03T10:44:24.291Z</time></trkpt><trkpt lat="42.1963582" lon="13.8644313"><ele>272.0</ele><time>2026-05-03T10:44:25.288Z</time></trkpt><trkpt lat="42.1964393" lon="13.8646389"><ele>277.0</ele><time>2026-05-03T10:44:26.291Z</time></trkpt><trkpt lat="42.1965071" lon="13.8648539"><ele>266.3333333333333</ele><time>2026-05-03T10:44:27.294Z</time></trkpt><trkpt lat="42.196583" lon="13.8650648"><ele>255.66666666666669</ele><time>2026-05-03T10:44:28.287Z</time></trkpt><trkpt lat="42.1966543" lon="13.8652782"><ele>245.0</ele><time>2026-05-03T10:44:29.29Z</time></trkpt><trkpt lat="42.1967145" lon="13.8654907"><ele>245.0</ele><time>2026-05-03T10:44:30.291Z</time></trkpt><trkpt lat="42.1967749" lon="13.8656996"><ele>245.0</ele><time>2026-05-03T10:44:31.289Z</time></trkpt><trkpt lat="42.1968245" lon="13.8659054"><ele>245.0</ele><time>2026-05-03T10:44:32.285Z</time></trkpt><trkpt lat="42.1968751" lon="13.8661145"><ele>248.33333333333334</ele><time>2026-05-03T10:44:33.287Z</time></trkpt><trkpt lat="42.1969223" lon="13.8663184"><ele>251.66666666666669</ele><time>2026-05-03T10:44:34.284Z</time></trkpt><trkpt lat="42.1969798" lon="13.8665242"><ele>255.0</ele><time>2026-05-03T10:44:35.277Z</time></trkpt><trkpt lat="42.1970324" lon="13.8667418"><ele>257.6666666666667</ele><time>2026-05-03T10:44:36.281Z</time></trkpt><trkpt lat="42.1970733" lon="13.8669505"><ele>260.33333333333337</ele><time>2026-05-03T10:44:37.29Z</time></trkpt><trkpt lat="42.1971081" lon="13.8671572"><ele>263.0</ele><time>2026-05-03T10:44:38.284Z</time></trkpt><trkpt lat="42.1971572" lon="13.867374"><ele>263.0</ele><time>2026-05-03T10:44:39.29Z</time></trkpt><trkpt lat="42.1972094" lon="13.8675925"><ele>263.0</ele><time>2026-05-03T10:44:40.288Z</time></trkpt><trkpt lat="42.1972596" lon="13.8678084"><ele>263.0</ele><time>2026-05-03T10:44:41.289Z</time></trkpt><trkpt lat="42.197302" lon="13.8680213"><ele>255.0</ele><time>2026-05-03T10:44:42.291Z</time></trkpt><trkpt lat="42.1973481" lon="13.8682351"><ele>247.0</ele><time>2026-05-03T10:44:43.29Z</time></trkpt><trkpt lat="42.1973984" lon="13.8684581"><ele>239.0</ele><time>2026-05-03T10:44:44.29Z</time></trkpt><trkpt lat="42.197422" lon="13.86868"><ele>239.0</ele><time>2026-05-03T10:44:45.294Z</time></trkpt><trkpt lat="42.1974473" lon="13.8689039"><ele>239.0</ele><time>2026-05-03T10:44:46.291Z</time></trkpt><trkpt lat="42.1974764" lon="13.8691317"><ele>239.0</ele><time>2026-05-03T10:44:47.291Z</time></trkpt><trkpt lat="42.1975063" lon="13.8693628"><ele>238.33333333333334</ele><time>2026-05-03T10:44:48.292Z</time></trkpt><trkpt lat="42.1975316" lon="13.8695822"><ele>237.66666666666669</ele><time>2026-05-03T10:44:49.29Z</time></trkpt><trkpt lat="42.1975534" lon="13.8698027"><ele>237.0</ele><time>2026-05-03T10:44:50.295Z</time></trkpt><trkpt lat="42.1975748" lon="13.8700322"><ele>237.0</ele><time>2026-05-03T10:44:51.294Z</time></trkpt><trkpt lat="42.1975943" lon="13.8702551"><ele>237.0</ele><time>2026-05-03T10:44:52.296Z</time></trkpt><trkpt lat="42.1976186" lon="13.8704775"><ele>237.0</ele><time>2026-05-03T10:44:53.285Z</time></trkpt><trkpt lat="42.1976473" lon="13.8706982"><ele>237.0</ele><time>2026-05-03T10:44:54.294Z</time></trkpt><trkpt lat="42.1976739" lon="13.870918"><ele>237.0</ele><time>2026-05-03T10:44:55.29Z</time></trkpt><trkpt lat="42.1977002" lon="13.8711417"><ele>237.0</ele><time>2026-05-03T10:44:56.297Z</time></trkpt><trkpt lat="42.1977215" lon="13.8713594"><ele>238.0</ele><time>2026-05-03T10:44:57.293Z</time></trkpt><trkpt lat="42.1977438" lon="13.8715821"><ele>239.0</ele><time>2026-05-03T10:44:58.293Z</time></trkpt><trkpt lat="42.1977675" lon="13.8718084"><ele>240.0</ele><time>2026-05-03T10:44:59.297Z</time></trkpt><trkpt lat="42.1977928" lon="13.8720311"><ele>242.0</ele><time>2026-05-03T10:45:00.295Z</time></trkpt><trkpt lat="42.1978439" lon="13.8722494"><ele>244.0</ele><time>2026-05-03T10:45:01.293Z</time></trkpt><trkpt lat="42.1978867" lon="13.8724716"><ele>246.0</ele><time>2026-05-03T10:45:02.29Z</time></trkpt><trkpt lat="42.1979246" lon="13.872699"><ele>246.0</ele><time>2026-05-03T10:45:03.289Z</time></trkpt><trkpt lat="42.1979592" lon="13.8729252"><ele>246.0</ele><time>2026-05-03T10:45:04.289Z</time></trkpt><trkpt lat="42.1979949" lon="13.8731547"><ele>246.0</ele><time>2026-05-03T10:45:05.288Z</time></trkpt><trkpt lat="42.1980474" lon="13.8733786"><ele>250.66666666666669</ele><time>2026-05-03T10:45:06.287Z</time></trkpt><trkpt lat="42.198087" lon="13.8736034"><ele>255.33333333333334</ele><time>2026-05-03T10:45:07.291Z</time></trkpt><trkpt lat="42.1981282" lon="13.8738367"><ele>260.0</ele><time>2026-05-03T10:45:08.293Z</time></trkpt><trkpt lat="42.1981686" lon="13.8740559"><ele>250.66666666666669</ele><time>2026-05-03T10:45:09.285Z</time></trkpt><trkpt lat="42.1982048" lon="13.8742756"><ele>241.33333333333331</ele><time>2026-05-03T10:45:10.293Z</time></trkpt><trkpt lat="42.1982445" lon="13.8744905"><ele>232.0</ele><time>2026-05-03T10:45:11.294Z</time></trkpt><trkpt lat="42.1982907" lon="13.8746967"><ele>232.0</ele><time>2026-05-03T10:45:12.293Z</time></trkpt><trkpt lat="42.1983261" lon="13.874905"><ele>232.0</ele><time>2026-05-03T10:45:13.286Z</time></trkpt><trkpt lat="42.198335" lon="13.8751212"><ele>232.0</ele><time>2026-05-03T10:45:14.292Z</time></trkpt><trkpt lat="42.1983466" lon="13.8753443"><ele>229.33333333333331</ele><time>2026-05-03T10:45:15.289Z</time></trkpt><trkpt lat="42.1983491" lon="13.8755749"><ele>226.66666666666669</ele><time>2026-05-03T10:45:16.287Z</time></trkpt><trkpt lat="42.1983161" lon="13.8757934"><ele>224.0</ele><time>2026-05-03T10:45:17.285Z</time></trkpt><trkpt lat="42.1982581" lon="13.8759997"><ele>223.66666666666669</ele><time>2026-05-03T10:45:18.294Z</time></trkpt><trkpt lat="42.1981981" lon="13.876198"><ele>223.33333333333331</ele><time>2026-05-03T10:45:19.299Z</time></trkpt><trkpt lat="42.1981368" lon="13.8763922"><ele>223.0</ele><time>2026-05-03T10:45:20.29Z</time></trkpt><trkpt lat="42.1980923" lon="13.8765784"><ele>233.0</ele><time>2026-05-03T10:45:21.308Z</time></trkpt><trkpt lat="42.1980548" lon="13.8767611"><ele>243.0</ele><time>2026-05-03T10:45:22.296Z</time></trkpt><trkpt lat="42.1980126" lon="13.8769511"><ele>253.0</ele><time>2026-05-03T10:45:23.301Z</time></trkpt><trkpt lat="42.1979662" lon="13.8771396"><ele>263.0</ele><time>2026-05-03T10:45:24.302Z</time></trkpt><trkpt lat="42.1979509" lon="13.8773158"><ele>263.0</ele><time>2026-05-03T10:45:25.293Z</time></trkpt><trkpt lat="42.1979616" lon="13.8775021"><ele>263.0</ele><time>2026-05-03T10:45:26.295Z</time></trkpt><trkpt lat="42.1979862" lon="13.8776858"><ele>263.0</ele><time>2026-05-03T10:45:27.299Z</time></trkpt><trkpt lat="42.1980328" lon="13.8778627"><ele>263.0</ele><time>2026-05-03T10:45:28.3Z</time></trkpt><trkpt lat="42.1980989" lon="13.8780378"><ele>255.0</ele><time>2026-05-03T10:45:29.3Z</time></trkpt><trkpt lat="42.1981729" lon="13.8782199"><ele>247.0</ele><time>2026-05-03T10:45:30.303Z</time></trkpt><trkpt lat="42.1982472" lon="13.8784023"><ele>239.0</ele><time>2026-05-03T10:45:31.302Z</time></trkpt><trkpt lat="42.1983392" lon="13.8785806"><ele>239.0</ele><time>2026-05-03T10:45:32.297Z</time></trkpt><trkpt lat="42.1984446" lon="13.8787419"><ele>239.0</ele><time>2026-05-03T10:45:33.294Z</time></trkpt><trkpt lat="42.1985598" lon="13.8788934"><ele>239.0</ele><time>2026-05-03T10:45:34.295Z</time></trkpt><trkpt lat="42.1986851" lon="13.8790436"><ele>239.0</ele><time>2026-05-03T10:45:35.296Z</time></trkpt><trkpt lat="42.1988226" lon="13.8791901"><ele>239.0</ele><time>2026-05-03T10:45:36.298Z</time></trkpt><trkpt lat="42.1989581" lon="13.8793368"><ele>239.0</ele><time>2026-05-03T10:45:37.302Z</time></trkpt><trkpt lat="42.1990736" lon="13.8794899"><ele>238.25</ele><time>2026-05-03T10:45:38.299Z</time></trkpt><trkpt lat="42.1991745" lon="13.8796458"><ele>237.5</ele><time>2026-05-03T10:45:39.298Z</time></trkpt><trkpt lat="42.1992489" lon="13.8798223"><ele>236.75</ele><time>2026-05-03T10:45:40.295Z</time></trkpt><trkpt lat="42.1993045" lon="13.8799984"><ele>236.0</ele><time>2026-05-03T10:45:41.294Z</time></trkpt><trkpt lat="42.1993393" lon="13.8801946"><ele>236.0</ele><time>2026-05-03T10:45:42.293Z</time></trkpt><trkpt lat="42.1993234" lon="13.8803925"><ele>236.0</ele><time>2026-05-03T10:45:43.289Z</time></trkpt><trkpt lat="42.1992925" lon="13.8806012"><ele>236.0</ele><time>2026-05-03T10:45:44.294Z</time></trkpt><trkpt lat="42.1992709" lon="13.8808033"><ele>233.0</ele><time>2026-05-03T10:45:45.291Z</time></trkpt><trkpt lat="42.1992376" lon="13.8809995"><ele>230.0</ele><time>2026-05-03T10:45:46.294Z</time></trkpt><trkpt lat="42.1992199" lon="13.8811962"><ele>227.0</ele><time>2026-05-03T10:45:47.296Z</time></trkpt><trkpt lat="42.1992188" lon="13.8814069"><ele>227.0</ele><time>2026-05-03T10:45:48.289Z</time></trkpt><trkpt lat="42.1992381" lon="13.8816078"><ele>227.0</ele><time>2026-05-03T10:45:49.287Z</time></trkpt><trkpt lat="42.1992842" lon="13.8818109"><ele>227.0</ele><time>2026-05-03T10:45:50.295Z</time></trkpt><trkpt lat="42.1993317" lon="13.8820063"><ele>229.0</ele><time>2026-05-03T10:45:51.294Z</time></trkpt><trkpt lat="42.1994164" lon="13.8821885"><ele>231.0</ele><time>2026-05-03T10:45:52.303Z</time></trkpt><trkpt lat="42.1994939" lon="13.8823743"><ele>233.0</ele><time>2026-05-03T10:45:53.297Z</time></trkpt><trkpt lat="42.1995493" lon="13.8825837"><ele>239.66666666666669</ele><time>2026-05-03T10:45:54.298Z</time></trkpt><trkpt lat="42.199593" lon="13.8827838"><ele>246.33333333333331</ele><time>2026-05-03T10:45:55.294Z</time></trkpt><trkpt lat="42.1996796" lon="13.88296"><ele>253.0</ele><time>2026-05-03T10:45:56.284Z</time></trkpt><trkpt lat="42.1997852" lon="13.8831291"><ele>248.33333333333331</ele><time>2026-05-03T10:45:57.298Z</time></trkpt><trkpt lat="42.1999159" lon="13.8832844"><ele>243.66666666666669</ele><time>2026-05-03T10:45:58.289Z</time></trkpt><trkpt lat="42.2000456" lon="13.8834559"><ele>239.0</ele><time>2026-05-03T10:45:59.295Z</time></trkpt><trkpt lat="42.2001706" lon="13.8836188"><ele>239.0</ele><time>2026-05-03T10:46:00.287Z</time></trkpt><trkpt lat="42.2002969" lon="13.8837638"><ele>239.0</ele><time>2026-05-03T10:46:01.299Z</time></trkpt><trkpt lat="42.2004061" lon="13.8839114"><ele>239.0</ele><time>2026-05-03T10:46:02.293Z</time></trkpt><trkpt lat="42.2004961" lon="13.8840761"><ele>243.66666666666669</ele><time>2026-05-03T10:46:03.297Z</time></trkpt><trkpt lat="42.2005765" lon="13.884294"><ele>248.33333333333331</ele><time>2026-05-03T10:46:04.285Z</time></trkpt><trkpt lat="42.200653" lon="13.88453"><ele>253.0</ele><time>2026-05-03T10:46:05.297Z</time></trkpt><trkpt lat="42.2007198" lon="13.8847537"><ele>247.0</ele><time>2026-05-03T10:46:06.29Z</time></trkpt><trkpt lat="42.2007779" lon="13.8849649"><ele>241.0</ele><time>2026-05-03T10:46:07.288Z</time></trkpt><trkpt lat="42.2008435" lon="13.8851572"><ele>235.0</ele><time>2026-05-03T10:46:08.286Z</time></trkpt><trkpt lat="42.2009077" lon="13.8853276"><ele>235.0</ele><time>2026-05-03T10:46:09.289Z</time></trkpt><trkpt lat="42.2010155" lon="13.8854875"><ele>235.0</ele><time>2026-05-03T10:46:10.301Z</time></trkpt><trkpt lat="42.2011233" lon="13.8856253"><ele>235.0</ele><time>2026-05-03T10:46:11.289Z</time></trkpt><trkpt lat="42.2012511" lon="13.88577"><ele>235.0</ele><time>2026-05-03T10:46:12.295Z</time></trkpt><trkpt lat="42.2013835" lon="13.8859169"><ele>235.0</ele><time>2026-05-03T10:46:13.289Z</time></trkpt><trkpt lat="42.2015165" lon="13.8860502"><ele>235.0</ele><time>2026-05-03T10:46:14.284Z</time></trkpt><trkpt lat="42.2016298" lon="13.8861624"><ele>233.8</ele><time>2026-05-03T10:46:15.29Z</time></trkpt><trkpt lat="42.2017359" lon="13.8862639"><ele>232.6</ele><time>2026-05-03T10:46:16.288Z</time></trkpt><trkpt lat="42.2018184" lon="13.8863537"><ele>231.39999999999998</ele><time>2026-05-03T10:46:17.287Z</time></trkpt><trkpt lat="42.2018939" lon="13.8864366"><ele>230.2</ele><time>2026-05-03T10:46:18.285Z</time></trkpt><trkpt lat="42.2019468" lon="13.8865224"><ele>229.0</ele><time>2026-05-03T10:46:19.286Z</time></trkpt><trkpt lat="42.2020002" lon="13.8865894"><ele>228.99999999999997</ele><time>2026-05-03T10:46:20.29Z</time></trkpt><trkpt lat="42.2020903" lon="13.8866926"><ele>229.0</ele><time>2026-05-03T10:46:22.288Z</time></trkpt><trkpt lat="42.2021477" lon="13.8867616"><ele>229.0</ele><time>2026-05-03T10:46:23.294Z</time></trkpt><trkpt lat="42.2021959" lon="13.8868228"><ele>229.0</ele><time>2026-05-03T10:46:24.288Z</time></trkpt><trkpt lat="42.202239" lon="13.8868883"><ele>228.99999999999997</ele><time>2026-05-03T10:46:25.292Z</time></trkpt><trkpt lat="42.2022914" lon="13.8869764"><ele>229.0</ele><time>2026-05-03T10:46:26.286Z</time></trkpt><trkpt lat="42.2023493" lon="13.8870835"><ele>227.66666666666666</ele><time>2026-05-03T10:46:27.29Z</time></trkpt><trkpt lat="42.2024089" lon="13.8871861"><ele>226.33333333333331</ele><time>2026-05-03T10:46:28.288Z</time></trkpt><trkpt lat="42.2024589" lon="13.8872701"><ele>225.0</ele><time>2026-05-03T10:46:29.289Z</time></trkpt><trkpt lat="42.2025045" lon="13.8873428"><ele>223.66666666666669</ele><time>2026-05-03T10:46:30.285Z</time></trkpt><trkpt lat="42.2025627" lon="13.8874542"><ele>222.33333333333334</ele><time>2026-05-03T10:46:32.283Z</time></trkpt><trkpt lat="42.2026351" lon="13.8875434"><ele>221.0</ele><time>2026-05-03T10:46:34.277Z</time></trkpt><trkpt lat="42.2027018" lon="13.8876473"><ele>225.0</ele><time>2026-05-03T10:46:36.284Z</time></trkpt><trkpt lat="42.2027626" lon="13.8877491"><ele>229.00000000000003</ele><time>2026-05-03T10:46:38.284Z</time></trkpt><trkpt lat="42.2028262" lon="13.8878574"><ele>233.00000000000003</ele><time>2026-05-03T10:46:40.289Z</time></trkpt><trkpt lat="42.2028833" lon="13.8879758"><ele>237.0</ele><time>2026-05-03T10:46:42.289Z</time></trkpt><trkpt lat="42.2029521" lon="13.8881003"><ele>241.0</ele><time>2026-05-03T10:46:44.291Z</time></trkpt><trkpt lat="42.2030193" lon="13.8882105"><ele>240.99999999999997</ele><time>2026-05-03T10:46:46.286Z</time></trkpt><trkpt lat="42.2031015" lon="13.8883361"><ele>241.0</ele><time>2026-05-03T10:46:48.289Z</time></trkpt><trkpt lat="42.2031489" lon="13.888402"><ele>241.0</ele><time>2026-05-03T10:46:49.292Z</time></trkpt><trkpt lat="42.2031912" lon="13.8884677"><ele>241.0</ele><time>2026-05-03T10:46:50.291Z</time></trkpt><trkpt lat="42.2032345" lon="13.8885327"><ele>240.99999999999997</ele><time>2026-05-03T10:46:51.292Z</time></trkpt><trkpt lat="42.2032771" lon="13.8885987"><ele>241.0</ele><time>2026-05-03T10:46:52.294Z</time></trkpt><trkpt lat="42.2033523" lon="13.8886975"><ele>241.4</ele><time>2026-05-03T10:46:54.309Z</time></trkpt><trkpt lat="42.2034086" lon="13.8887933"><ele>241.8</ele><time>2026-05-03T10:46:56.308Z</time></trkpt><trkpt lat="42.2034675" lon="13.8889144"><ele>242.20000000000002</ele><time>2026-05-03T10:46:58.311Z</time></trkpt><trkpt lat="42.2035437" lon="13.8890344"><ele>242.60000000000002</ele><time>2026-05-03T10:47:00.305Z</time></trkpt><trkpt lat="42.2035957" lon="13.8891273"><ele>243.0</ele><time>2026-05-03T10:47:02.302Z</time></trkpt><trkpt lat="42.203667" lon="13.8892067"><ele>244.16666666666666</ele><time>2026-05-03T10:47:04.295Z</time></trkpt><trkpt lat="42.2037122" lon="13.8892719"><ele>245.33333333333331</ele><time>2026-05-03T10:47:05.302Z</time></trkpt><trkpt lat="42.2037558" lon="13.8893345"><ele>246.5</ele><time>2026-05-03T10:47:06.299Z</time></trkpt><trkpt lat="42.2037995" lon="13.8893963"><ele>247.66666666666666</ele><time>2026-05-03T10:47:07.299Z</time></trkpt><trkpt lat="42.2038461" lon="13.8894554"><ele>248.83333333333331</ele><time>2026-05-03T10:47:08.303Z</time></trkpt><trkpt lat="42.2039206" lon="13.8895719"><ele>250.0</ele><time>2026-05-03T10:47:10.298Z</time></trkpt><trkpt lat="42.2039755" lon="13.8896797"><ele>245.6</ele><time>2026-05-03T10:47:12.304Z</time></trkpt><trkpt lat="42.2040489" lon="13.8898199"><ele>241.2</ele><time>2026-05-03T10:47:14.308Z</time></trkpt><trkpt lat="42.2040968" lon="13.8898785"><ele>236.8</ele><time>2026-05-03T10:47:15.305Z</time></trkpt><trkpt lat="42.204175" lon="13.8899845"><ele>232.4</ele><time>2026-05-03T10:47:17.296Z</time></trkpt><trkpt lat="42.2042637" lon="13.8900261"><ele>228.0</ele><time>2026-05-03T10:47:19.296Z</time></trkpt><trkpt lat="42.2043295" lon="13.8901062"><ele>228.0</ele><time>2026-05-03T10:47:21.296Z</time></trkpt><trkpt lat="42.2043899" lon="13.890239"><ele>228.0</ele><time>2026-05-03T10:47:23.294Z</time></trkpt><trkpt lat="42.2044181" lon="13.8903153"><ele>228.0</ele><time>2026-05-03T10:47:24.294Z</time></trkpt><trkpt lat="42.2044671" lon="13.8904481"><ele>228.0</ele><time>2026-05-03T10:47:26.289Z</time></trkpt><trkpt lat="42.204513" lon="13.8905068"><ele>228.0</ele><time>2026-05-03T10:47:27.296Z</time></trkpt><trkpt lat="42.2045817" lon="13.890637"><ele>228.0</ele><time>2026-05-03T10:47:29.291Z</time></trkpt><trkpt lat="42.204665" lon="13.8907388"><ele>228.0</ele><time>2026-05-03T10:47:31.291Z</time></trkpt><trkpt lat="42.2047347" lon="13.8908366"><ele>228.0</ele><time>2026-05-03T10:47:33.296Z</time></trkpt><trkpt lat="42.2047983" lon="13.8909583"><ele>228.0</ele><time>2026-05-03T10:47:35.291Z</time></trkpt><trkpt lat="42.204864" lon="13.8910683"><ele>228.0</ele><time>2026-05-03T10:47:37.287Z</time></trkpt><trkpt lat="42.2049369" lon="13.8911734"><ele>227.60000000000002</ele><time>2026-05-03T10:47:39.284Z</time></trkpt><trkpt lat="42.2050121" lon="13.8912588"><ele>227.20000000000002</ele><time>2026-05-03T10:47:41.291Z</time></trkpt><trkpt lat="42.2050738" lon="13.8913537"><ele>226.8</ele><time>2026-05-03T10:47:43.295Z</time></trkpt><trkpt lat="42.205127" lon="13.8914546"><ele>226.4</ele><time>2026-05-03T10:47:45.299Z</time></trkpt><trkpt lat="42.2052103" lon="13.8915593"><ele>226.0</ele><time>2026-05-03T10:47:47.295Z</time></trkpt><trkpt lat="42.2052598" lon="13.891612"><ele>226.0</ele><time>2026-05-03T10:47:48.296Z</time></trkpt><trkpt lat="42.2053309" lon="13.8917197"><ele>226.0</ele><time>2026-05-03T10:47:50.295Z</time></trkpt><trkpt lat="42.2053991" lon="13.8918338"><ele>226.0</ele><time>2026-05-03T10:47:52.294Z</time></trkpt><trkpt lat="42.2054736" lon="13.891954"><ele>226.0</ele><time>2026-05-03T10:47:54.301Z</time></trkpt><trkpt lat="42.2055621" lon="13.8920675"><ele>226.0</ele><time>2026-05-03T10:47:56.311Z</time></trkpt><trkpt lat="42.2056059" lon="13.8921294"><ele>226.0</ele><time>2026-05-03T10:47:57.304Z</time></trkpt><trkpt lat="42.2056597" lon="13.8921826"><ele>226.0</ele><time>2026-05-03T10:47:58.304Z</time></trkpt><trkpt lat="42.2057136" lon="13.8922412"><ele>226.0</ele><time>2026-05-03T10:47:59.306Z</time></trkpt><trkpt lat="42.2057573" lon="13.8923056"><ele>226.0</ele><time>2026-05-03T10:48:00.306Z</time></trkpt><trkpt lat="42.2058087" lon="13.8923684"><ele>226.0</ele><time>2026-05-03T10:48:01.309Z</time></trkpt><trkpt lat="42.205859" lon="13.8924286"><ele>226.0</ele><time>2026-05-03T10:48:02.305Z</time></trkpt><trkpt lat="42.2059086" lon="13.8924904"><ele>230.25</ele><time>2026-05-03T10:48:03.301Z</time></trkpt><trkpt lat="42.2059907" lon="13.89259"><ele>234.5</ele><time>2026-05-03T10:48:05.301Z</time></trkpt><trkpt lat="42.2060752" lon="13.8927107"><ele>238.75</ele><time>2026-05-03T10:48:07.299Z</time></trkpt><trkpt lat="42.2061514" lon="13.8928107"><ele>243.0</ele><time>2026-05-03T10:48:09.299Z</time></trkpt><trkpt lat="42.2062203" lon="13.8929264"><ele>243.0</ele><time>2026-05-03T10:48:11.295Z</time></trkpt><trkpt lat="42.2063007" lon="13.8930512"><ele>243.0</ele><time>2026-05-03T10:48:13.3Z</time></trkpt><trkpt lat="42.2063848" lon="13.8931713"><ele>243.0</ele><time>2026-05-03T10:48:15.311Z</time></trkpt><trkpt lat="42.2064602" lon="13.8932893"><ele>243.0</ele><time>2026-05-03T10:48:17.314Z</time></trkpt><trkpt lat="42.2065325" lon="13.893383"><ele>241.83333333333334</ele><time>2026-05-03T10:48:19.315Z</time></trkpt><trkpt lat="42.2065973" lon="13.8934775"><ele>240.66666666666669</ele><time>2026-05-03T10:48:21.309Z</time></trkpt><trkpt lat="42.2066479" lon="13.8935866"><ele>239.5</ele><time>2026-05-03T10:48:23.306Z</time></trkpt><trkpt lat="42.2066971" lon="13.8936464"><ele>238.33333333333334</ele><time>2026-05-03T10:48:24.313Z</time></trkpt><trkpt lat="42.2067479" lon="13.8936976"><ele>237.16666666666669</ele><time>2026-05-03T10:48:25.318Z</time></trkpt><trkpt lat="42.2067974" lon="13.8937607"><ele>236.0</ele><time>2026-05-03T10:48:26.305Z</time></trkpt><trkpt lat="42.2068536" lon="13.8938301"><ele>236.00000000000003</ele><time>2026-05-03T10:48:27.316Z</time></trkpt><trkpt lat="42.2068937" lon="13.8939094"><ele>236.0</ele><time>2026-05-03T10:48:28.31Z</time></trkpt><trkpt lat="42.206935" lon="13.8939902"><ele>236.0</ele><time>2026-05-03T10:48:29.315Z</time></trkpt><trkpt lat="42.2069879" lon="13.8940651"><ele>236.0</ele><time>2026-05-03T10:48:30.308Z</time></trkpt><trkpt lat="42.2070389" lon="13.8941366"><ele>236.00000000000003</ele><time>2026-05-03T10:48:31.31Z</time></trkpt><trkpt lat="42.2071185" lon="13.8942565"><ele>236.0</ele><time>2026-05-03T10:48:33.302Z</time></trkpt><trkpt lat="42.207175" lon="13.8943153"><ele>236.66666666666669</ele><time>2026-05-03T10:48:34.296Z</time></trkpt><trkpt lat="42.2072456" lon="13.8944153"><ele>237.33333333333334</ele><time>2026-05-03T10:48:36.309Z</time></trkpt><trkpt lat="42.2072981" lon="13.8944911"><ele>238.0</ele><time>2026-05-03T10:48:38.314Z</time></trkpt><trkpt lat="42.207346" lon="13.8945987"><ele>238.66666666666669</ele><time>2026-05-03T10:48:40.302Z</time></trkpt><trkpt lat="42.2073874" lon="13.8946703"><ele>239.33333333333334</ele><time>2026-05-03T10:48:41.306Z</time></trkpt><trkpt lat="42.2074294" lon="13.8947406"><ele>240.0</ele><time>2026-05-03T10:48:42.312Z</time></trkpt><trkpt lat="42.207476" lon="13.8948125"><ele>238.2</ele><time>2026-05-03T10:48:43.314Z</time></trkpt><trkpt lat="42.2075618" lon="13.8949257"><ele>236.4</ele><time>2026-05-03T10:48:45.319Z</time></trkpt><trkpt lat="42.2076355" lon="13.8950418"><ele>234.60000000000002</ele><time>2026-05-03T10:48:47.316Z</time></trkpt><trkpt lat="42.2076837" lon="13.8951179"><ele>232.8</ele><time>2026-05-03T10:48:49.305Z</time></trkpt><trkpt lat="42.2077268" lon="13.8952246"><ele>231.0</ele><time>2026-05-03T10:48:52.305Z</time></trkpt><trkpt lat="42.2077778" lon="13.8953074"><ele>231.0</ele><time>2026-05-03T10:48:56.304Z</time></trkpt><trkpt lat="42.2078377" lon="13.8953554"><ele>231.00000000000003</ele><time>2026-05-03T10:48:58.311Z</time></trkpt><trkpt lat="42.2079019" lon="13.8954313"><ele>231.00000000000003</ele><time>2026-05-03T10:49:00.303Z</time></trkpt><trkpt lat="42.2079759" lon="13.8955291"><ele>231.0</ele><time>2026-05-03T10:49:02.303Z</time></trkpt><trkpt lat="42.2080603" lon="13.8956281"><ele>231.0</ele><time>2026-05-03T10:49:04.305Z</time></trkpt><trkpt lat="42.2081322" lon="13.8957642"><ele>230.8</ele><time>2026-05-03T10:49:06.302Z</time></trkpt><trkpt lat="42.2081993" lon="13.8958838"><ele>230.60000000000002</ele><time>2026-05-03T10:49:08.296Z</time></trkpt><trkpt lat="42.2082764" lon="13.8959846"><ele>230.4</ele><time>2026-05-03T10:49:10.301Z</time></trkpt><trkpt lat="42.2083575" lon="13.8961077"><ele>230.2</ele><time>2026-05-03T10:49:12.299Z</time></trkpt><trkpt lat="42.2084234" lon="13.896209"><ele>230.0</ele><time>2026-05-03T10:49:14.279Z</time></trkpt><trkpt lat="42.2085099" lon="13.8962935"><ele>230.0</ele><time>2026-05-03T10:49:16.303Z</time></trkpt><trkpt lat="42.2085846" lon="13.8964012"><ele>230.0</ele><time>2026-05-03T10:49:18.298Z</time></trkpt><trkpt lat="42.2086249" lon="13.8964665"><ele>230.0</ele><time>2026-05-03T10:49:19.303Z</time></trkpt><trkpt lat="42.208715" lon="13.8965899"><ele>230.0</ele><time>2026-05-03T10:49:21.301Z</time></trkpt><trkpt lat="42.2088018" lon="13.8967158"><ele>230.0</ele><time>2026-05-03T10:49:23.3Z</time></trkpt><trkpt lat="42.2088681" lon="13.8968322"><ele>230.83333333333334</ele><time>2026-05-03T10:49:25.307Z</time></trkpt><trkpt lat="42.2089414" lon="13.896977"><ele>231.66666666666669</ele><time>2026-05-03T10:49:27.302Z</time></trkpt><trkpt lat="42.208998" lon="13.8970426"><ele>232.5</ele><time>2026-05-03T10:49:28.309Z</time></trkpt><trkpt lat="42.209048" lon="13.8971075"><ele>233.33333333333331</ele><time>2026-05-03T10:49:29.317Z</time></trkpt><trkpt lat="42.2090949" lon="13.897174"><ele>234.16666666666666</ele><time>2026-05-03T10:49:30.315Z</time></trkpt><trkpt lat="42.2091468" lon="13.8972444"><ele>235.0</ele><time>2026-05-03T10:49:31.311Z</time></trkpt><trkpt lat="42.2091999" lon="13.8973122"><ele>235.0</ele><time>2026-05-03T10:49:32.311Z</time></trkpt><trkpt lat="42.2092408" lon="13.8973956"><ele>234.99999999999997</ele><time>2026-05-03T10:49:33.311Z</time></trkpt><trkpt lat="42.2092792" lon="13.8974707"><ele>235.0</ele><time>2026-05-03T10:49:34.313Z</time></trkpt><trkpt lat="42.209324" lon="13.8975463"><ele>235.0</ele><time>2026-05-03T10:49:35.311Z</time></trkpt><trkpt lat="42.2093776" lon="13.8976179"><ele>234.99999999999997</ele><time>2026-05-03T10:49:36.309Z</time></trkpt><trkpt lat="42.2094231" lon="13.8976968"><ele>235.0</ele><time>2026-05-03T10:49:37.3Z</time></trkpt><trkpt lat="42.2094793" lon="13.8977718"><ele>235.0</ele><time>2026-05-03T10:49:38.304Z</time></trkpt><trkpt lat="42.2095196" lon="13.8978541"><ele>236.0</ele><time>2026-05-03T10:49:39.314Z</time></trkpt><trkpt lat="42.2095661" lon="13.8979245"><ele>237.0</ele><time>2026-05-03T10:49:40.313Z</time></trkpt><trkpt lat="42.2096074" lon="13.8979891"><ele>238.0</ele><time>2026-05-03T10:49:41.312Z</time></trkpt><trkpt lat="42.2096456" lon="13.8981405"><ele>239.0</ele><time>2026-05-03T10:49:43.308Z</time></trkpt><trkpt lat="42.2097013" lon="13.8982833"><ele>240.0</ele><time>2026-05-03T10:49:45.311Z</time></trkpt><trkpt lat="42.2097969" lon="13.8983158"><ele>239.0</ele><time>2026-05-03T10:49:47.3Z</time></trkpt><trkpt lat="42.2098792" lon="13.8983172"><ele>238.0</ele><time>2026-05-03T10:49:49.308Z</time></trkpt><trkpt lat="42.2099618" lon="13.8983811"><ele>237.0</ele><time>2026-05-03T10:49:51.31Z</time></trkpt><trkpt lat="42.2099936" lon="13.8984764"><ele>236.0</ele><time>2026-05-03T10:49:53.308Z</time></trkpt><trkpt lat="42.2100384" lon="13.898576"><ele>235.0</ele><time>2026-05-03T10:49:55.311Z</time></trkpt><trkpt lat="42.2101153" lon="13.8986971"><ele>234.99999999999997</ele><time>2026-05-03T10:49:57.313Z</time></trkpt><trkpt lat="42.2101493" lon="13.89877"><ele>235.0</ele><time>2026-05-03T10:49:58.314Z</time></trkpt><trkpt lat="42.2102371" lon="13.8988892"><ele>235.0</ele><time>2026-05-03T10:50:00.311Z</time></trkpt><trkpt lat="42.2103076" lon="13.8989834"><ele>235.0</ele><time>2026-05-03T10:50:02.307Z</time></trkpt><trkpt lat="42.2103565" lon="13.8990433"><ele>234.99999999999997</ele><time>2026-05-03T10:50:03.303Z</time></trkpt><trkpt lat="42.2103935" lon="13.8991141"><ele>235.0</ele><time>2026-05-03T10:50:04.307Z</time></trkpt><trkpt lat="42.2104335" lon="13.8991865"><ele>235.33333333333331</ele><time>2026-05-03T10:50:05.31Z</time></trkpt><trkpt lat="42.2104745" lon="13.8992572"><ele>235.66666666666666</ele><time>2026-05-03T10:50:06.308Z</time></trkpt><trkpt lat="42.2105543" lon="13.8994033"><ele>236.0</ele><time>2026-05-03T10:50:08.311Z</time></trkpt><trkpt lat="42.2105865" lon="13.8994899"><ele>236.33333333333331</ele><time>2026-05-03T10:50:09.308Z</time></trkpt><trkpt lat="42.2106276" lon="13.8995842"><ele>236.66666666666666</ele><time>2026-05-03T10:50:10.309Z</time></trkpt><trkpt lat="42.2106904" lon="13.8996738"><ele>237.0</ele><time>2026-05-03T10:50:11.307Z</time></trkpt><trkpt lat="42.2107619" lon="13.8997631"><ele>235.16666666666666</ele><time>2026-05-03T10:50:12.305Z</time></trkpt><trkpt lat="42.2108187" lon="13.8998811"><ele>233.33333333333331</ele><time>2026-05-03T10:50:13.301Z</time></trkpt><trkpt lat="42.2108613" lon="13.8999883"><ele>231.5</ele><time>2026-05-03T10:50:14.304Z</time></trkpt><trkpt lat="42.2109139" lon="13.9000806"><ele>229.66666666666666</ele><time>2026-05-03T10:50:15.321Z</time></trkpt><trkpt lat="42.2109667" lon="13.9001639"><ele>227.83333333333331</ele><time>2026-05-03T10:50:16.313Z</time></trkpt><trkpt lat="42.2110196" lon="13.900223"><ele>226.0</ele><time>2026-05-03T10:50:17.315Z</time></trkpt><trkpt lat="42.2110637" lon="13.9002896"><ele>226.0</ele><time>2026-05-03T10:50:18.318Z</time></trkpt><trkpt lat="42.2111378" lon="13.9004071"><ele>226.00000000000003</ele><time>2026-05-03T10:50:20.315Z</time></trkpt><trkpt lat="42.2112101" lon="13.9005589"><ele>226.00000000000003</ele><time>2026-05-03T10:50:22.304Z</time></trkpt><trkpt lat="42.2112569" lon="13.900638"><ele>226.0</ele><time>2026-05-03T10:50:23.305Z</time></trkpt><trkpt lat="42.2113632" lon="13.9006996"><ele>226.0</ele><time>2026-05-03T10:50:25.31Z</time></trkpt><trkpt lat="42.2114711" lon="13.9006433"><ele>225.60000000000002</ele><time>2026-05-03T10:50:27.297Z</time></trkpt><trkpt lat="42.2115305" lon="13.9005815"><ele>225.20000000000002</ele><time>2026-05-03T10:50:29.3Z</time></trkpt><trkpt lat="42.2116033" lon="13.9006543"><ele>224.79999999999998</ele><time>2026-05-03T10:50:32.298Z</time></trkpt><trkpt lat="42.2116467" lon="13.900819"><ele>224.39999999999998</ele><time>2026-05-03T10:50:34.305Z</time></trkpt><trkpt lat="42.2116885" lon="13.9009599"><ele>224.0</ele><time>2026-05-03T10:50:36.307Z</time></trkpt><trkpt lat="42.2117208" lon="13.9010832"><ele>224.00000000000003</ele><time>2026-05-03T10:50:38.307Z</time></trkpt><trkpt lat="42.2117657" lon="13.9012496"><ele>224.0</ele><time>2026-05-03T10:50:40.313Z</time></trkpt><trkpt lat="42.2118072" lon="13.9013264"><ele>224.0</ele><time>2026-05-03T10:50:41.314Z</time></trkpt><trkpt lat="42.2118626" lon="13.901384"><ele>224.0</ele><time>2026-05-03T10:50:42.312Z</time></trkpt><trkpt lat="42.2119215" lon="13.9014308"><ele>224.00000000000003</ele><time>2026-05-03T10:50:43.31Z</time></trkpt><trkpt lat="42.2119812" lon="13.9014745"><ele>224.0</ele><time>2026-05-03T10:50:44.308Z</time></trkpt><trkpt lat="42.2120396" lon="13.9015302"><ele>224.0</ele><time>2026-05-03T10:50:45.301Z</time></trkpt><trkpt lat="42.2121101" lon="13.9015856"><ele>223.99999999999997</ele><time>2026-05-03T10:50:46.303Z</time></trkpt><trkpt lat="42.2121761" lon="13.9016477"><ele>223.99999999999997</ele><time>2026-05-03T10:50:47.308Z</time></trkpt><trkpt lat="42.2122551" lon="13.9017115"><ele>224.0</ele><time>2026-05-03T10:50:48.302Z</time></trkpt><trkpt lat="42.2123361" lon="13.9017843"><ele>224.0</ele><time>2026-05-03T10:50:49.309Z</time></trkpt><trkpt lat="42.2124253" lon="13.9018559"><ele>222.5</ele><time>2026-05-03T10:50:50.304Z</time></trkpt><trkpt lat="42.2125117" lon="13.9019319"><ele>221.0</ele><time>2026-05-03T10:50:51.305Z</time></trkpt><trkpt lat="42.2126088" lon="13.9020108"><ele>219.5</ele><time>2026-05-03T10:50:52.301Z</time></trkpt><trkpt lat="42.2127096" lon="13.9021035"><ele>218.0</ele><time>2026-05-03T10:50:53.306Z</time></trkpt><trkpt lat="42.2128182" lon="13.9021964"><ele>218.0</ele><time>2026-05-03T10:50:54.306Z</time></trkpt><trkpt lat="42.2129366" lon="13.9023168"><ele>218.0</ele><time>2026-05-03T10:50:55.306Z</time></trkpt><trkpt lat="42.213054" lon="13.9024298"><ele>218.0</ele><time>2026-05-03T10:50:56.29Z</time></trkpt><trkpt lat="42.2131781" lon="13.9025355"><ele>218.0</ele><time>2026-05-03T10:50:57.306Z</time></trkpt><trkpt lat="42.2133003" lon="13.9026497"><ele>217.5</ele><time>2026-05-03T10:50:58.306Z</time></trkpt><trkpt lat="42.2134262" lon="13.9027616"><ele>217.0</ele><time>2026-05-03T10:50:59.314Z</time></trkpt><trkpt lat="42.2135452" lon="13.9028726"><ele>216.5</ele><time>2026-05-03T10:51:00.305Z</time></trkpt><trkpt lat="42.2136524" lon="13.9029621"><ele>216.0</ele><time>2026-05-03T10:51:01.304Z</time></trkpt><trkpt lat="42.2137554" lon="13.9030561"><ele>216.0</ele><time>2026-05-03T10:51:02.309Z</time></trkpt><trkpt lat="42.2138624" lon="13.9031462"><ele>216.0</ele><time>2026-05-03T10:51:03.301Z</time></trkpt><trkpt lat="42.2139761" lon="13.9032361"><ele>216.0</ele><time>2026-05-03T10:51:04.302Z</time></trkpt><trkpt lat="42.2140868" lon="13.9033288"><ele>216.0</ele><time>2026-05-03T10:51:05.301Z</time></trkpt><trkpt lat="42.2141944" lon="13.9034309"><ele>216.25</ele><time>2026-05-03T10:51:06.303Z</time></trkpt><trkpt lat="42.2143058" lon="13.9035282"><ele>216.5</ele><time>2026-05-03T10:51:07.303Z</time></trkpt><trkpt lat="42.2144137" lon="13.9036236"><ele>216.75</ele><time>2026-05-03T10:51:08.303Z</time></trkpt><trkpt lat="42.2145253" lon="13.9037158"><ele>217.0</ele><time>2026-05-03T10:51:09.304Z</time></trkpt><trkpt lat="42.2146327" lon="13.9038057"><ele>217.0</ele><time>2026-05-03T10:51:10.307Z</time></trkpt><trkpt lat="42.2147459" lon="13.9038954"><ele>217.0</ele><time>2026-05-03T10:51:11.304Z</time></trkpt><trkpt lat="42.2148598" lon="13.9039866"><ele>217.0</ele><time>2026-05-03T10:51:12.303Z</time></trkpt><trkpt lat="42.2149684" lon="13.9040755"><ele>217.0</ele><time>2026-05-03T10:51:13.306Z</time></trkpt><trkpt lat="42.2150874" lon="13.9041681"><ele>218.5</ele><time>2026-05-03T10:51:14.301Z</time></trkpt><trkpt lat="42.2152014" lon="13.9042579"><ele>220.0</ele><time>2026-05-03T10:51:15.299Z</time></trkpt><trkpt lat="42.2153155" lon="13.9043372"><ele>221.5</ele><time>2026-05-03T10:51:16.301Z</time></trkpt><trkpt lat="42.2154128" lon="13.904403"><ele>223.0</ele><time>2026-05-03T10:51:17.301Z</time></trkpt><trkpt lat="42.2155132" lon="13.9044702"><ele>223.0</ele><time>2026-05-03T10:51:18.307Z</time></trkpt><trkpt lat="42.2156183" lon="13.9045252"><ele>223.0</ele><time>2026-05-03T10:51:19.304Z</time></trkpt><trkpt lat="42.2157246" lon="13.9045961"><ele>223.0</ele><time>2026-05-03T10:51:20.307Z</time></trkpt><trkpt lat="42.2158326" lon="13.9046659"><ele>223.0</ele><time>2026-05-03T10:51:21.3Z</time></trkpt><trkpt lat="42.2159419" lon="13.9047244"><ele>223.33333333333331</ele><time>2026-05-03T10:51:22.304Z</time></trkpt><trkpt lat="42.2160371" lon="13.9047957"><ele>223.66666666666666</ele><time>2026-05-03T10:51:23.293Z</time></trkpt><trkpt lat="42.2161103" lon="13.9048621"><ele>224.0</ele><time>2026-05-03T10:51:24.301Z</time></trkpt><trkpt lat="42.2161667" lon="13.9049405"><ele>224.33333333333331</ele><time>2026-05-03T10:51:25.29Z</time></trkpt><trkpt lat="42.216202" lon="13.9050433"><ele>224.66666666666666</ele><time>2026-05-03T10:51:26.294Z</time></trkpt><trkpt lat="42.2162145" lon="13.9051508"><ele>225.0</ele><time>2026-05-03T10:51:27.292Z</time></trkpt><trkpt lat="42.2161911" lon="13.9052552"><ele>225.0</ele><time>2026-05-03T10:51:28.295Z</time></trkpt><trkpt lat="42.2161549" lon="13.9053671"><ele>225.0</ele><time>2026-05-03T10:51:29.299Z</time></trkpt><trkpt lat="42.2161369" lon="13.9054719"><ele>225.0</ele><time>2026-05-03T10:51:30.288Z</time></trkpt><trkpt lat="42.2161449" lon="13.9055836"><ele>225.0</ele><time>2026-05-03T10:51:31.292Z</time></trkpt><trkpt lat="42.2161766" lon="13.905706"><ele>225.0</ele><time>2026-05-03T10:51:32.292Z</time></trkpt><trkpt lat="42.2162344" lon="13.9058182"><ele>225.0</ele><time>2026-05-03T10:51:33.302Z</time></trkpt><trkpt lat="42.2163236" lon="13.9059009"><ele>225.0</ele><time>2026-05-03T10:51:34.302Z</time></trkpt><trkpt lat="42.2164454" lon="13.9059513"><ele>225.0</ele><time>2026-05-03T10:51:35.298Z</time></trkpt><trkpt lat="42.2165774" lon="13.905977"><ele>225.0</ele><time>2026-05-03T10:51:36.291Z</time></trkpt><trkpt lat="42.2167032" lon="13.9059992"><ele>226.5</ele><time>2026-05-03T10:51:37.296Z</time></trkpt><trkpt lat="42.2168247" lon="13.9060226"><ele>228.0</ele><time>2026-05-03T10:51:38.288Z</time></trkpt><trkpt lat="42.2169426" lon="13.9060482"><ele>229.5</ele><time>2026-05-03T10:51:39.297Z</time></trkpt><trkpt lat="42.2170573" lon="13.9060805"><ele>231.0</ele><time>2026-05-03T10:51:40.297Z</time></trkpt><trkpt lat="42.217168" lon="13.9061167"><ele>231.0</ele><time>2026-05-03T10:51:41.298Z</time></trkpt><trkpt lat="42.2172734" lon="13.9061736"><ele>231.0</ele><time>2026-05-03T10:51:42.297Z</time></trkpt><trkpt lat="42.217373" lon="13.906244"><ele>231.0</ele><time>2026-05-03T10:51:43.298Z</time></trkpt><trkpt lat="42.2174786" lon="13.9063329"><ele>231.0</ele><time>2026-05-03T10:51:44.292Z</time></trkpt><trkpt lat="42.2175783" lon="13.9064416"><ele>230.60000000000002</ele><time>2026-05-03T10:51:45.303Z</time></trkpt><trkpt lat="42.2176685" lon="13.9065541"><ele>230.20000000000002</ele><time>2026-05-03T10:51:46.3Z</time></trkpt><trkpt lat="42.2177367" lon="13.9066487"><ele>229.79999999999998</ele><time>2026-05-03T10:51:47.302Z</time></trkpt><trkpt lat="42.2177804" lon="13.9067474"><ele>229.39999999999998</ele><time>2026-05-03T10:51:48.303Z</time></trkpt><trkpt lat="42.2178033" lon="13.9068641"><ele>229.0</ele><time>2026-05-03T10:51:49.297Z</time></trkpt><trkpt lat="42.2177941" lon="13.9069804"><ele>230.0</ele><time>2026-05-03T10:51:50.303Z</time></trkpt><trkpt lat="42.2177598" lon="13.9070877"><ele>230.99999999999997</ele><time>2026-05-03T10:51:51.302Z</time></trkpt><trkpt lat="42.2176979" lon="13.9071846"><ele>231.99999999999997</ele><time>2026-05-03T10:51:52.293Z</time></trkpt><trkpt lat="42.2176124" lon="13.9072688"><ele>233.0</ele><time>2026-05-03T10:51:53.302Z</time></trkpt><trkpt lat="42.2175113" lon="13.9073303"><ele>234.0</ele><time>2026-05-03T10:51:54.29Z</time></trkpt><trkpt lat="42.2174027" lon="13.9073524"><ele>235.39999999999998</ele><time>2026-05-03T10:51:55.305Z</time></trkpt><trkpt lat="42.2172908" lon="13.9073328"><ele>236.79999999999998</ele><time>2026-05-03T10:51:56.292Z</time></trkpt><trkpt lat="42.2171756" lon="13.9073003"><ele>238.20000000000002</ele><time>2026-05-03T10:51:57.295Z</time></trkpt><trkpt lat="42.2170718" lon="13.9072655"><ele>239.60000000000002</ele><time>2026-05-03T10:51:58.295Z</time></trkpt><trkpt lat="42.2169664" lon="13.9072535"><ele>241.0</ele><time>2026-05-03T10:51:59.291Z</time></trkpt><trkpt lat="42.2168649" lon="13.9072837"><ele>241.0</ele><time>2026-05-03T10:52:00.288Z</time></trkpt><trkpt lat="42.2167607" lon="13.9073402"><ele>241.0</ele><time>2026-05-03T10:52:01.295Z</time></trkpt><trkpt lat="42.2166609" lon="13.9074015"><ele>241.0</ele><time>2026-05-03T10:52:02.294Z</time></trkpt><trkpt lat="42.216559" lon="13.9074695"><ele>241.0</ele><time>2026-05-03T10:52:03.295Z</time></trkpt><trkpt lat="42.2164504" lon="13.9075365"><ele>245.0</ele><time>2026-05-03T10:52:04.306Z</time></trkpt><trkpt lat="42.2163386" lon="13.9075947"><ele>249.0</ele><time>2026-05-03T10:52:05.298Z</time></trkpt><trkpt lat="42.2162275" lon="13.9076433"><ele>253.0</ele><time>2026-05-03T10:52:06.29Z</time></trkpt><trkpt lat="42.216112" lon="13.9076522"><ele>257.0</ele><time>2026-05-03T10:52:07.3Z</time></trkpt><trkpt lat="42.2159923" lon="13.9076217"><ele>256.0</ele><time>2026-05-03T10:52:08.299Z</time></trkpt><trkpt lat="42.2158699" lon="13.9075582"><ele>255.0</ele><time>2026-05-03T10:52:09.294Z</time></trkpt><trkpt lat="42.2157431" lon="13.9074749"><ele>254.0</ele><time>2026-05-03T10:52:10.299Z</time></trkpt><trkpt lat="42.215623" lon="13.9074041"><ele>253.0</ele><time>2026-05-03T10:52:11.299Z</time></trkpt><trkpt lat="42.215521" lon="13.90733"><ele>252.99999999999997</ele><time>2026-05-03T10:52:12.292Z</time></trkpt><trkpt lat="42.2154407" lon="13.9072342"><ele>253.0</ele><time>2026-05-03T10:52:13.305Z</time></trkpt><trkpt lat="42.2153871" lon="13.9071363"><ele>253.0</ele><time>2026-05-03T10:52:14.298Z</time></trkpt><trkpt lat="42.2153317" lon="13.9070923"><ele>253.0</ele><time>2026-05-03T10:52:15.31Z</time></trkpt><trkpt lat="42.2152708" lon="13.9071157"><ele>252.99999999999997</ele><time>2026-05-03T10:52:16.307Z</time></trkpt><trkpt lat="42.2152272" lon="13.9071928"><ele>253.0</ele><time>2026-05-03T10:52:17.304Z</time></trkpt><trkpt lat="42.2152136" lon="13.9073021"><ele>253.0</ele><time>2026-05-03T10:52:18.306Z</time></trkpt><trkpt lat="42.2152358" lon="13.9074185"><ele>253.0</ele><time>2026-05-03T10:52:19.302Z</time></trkpt><trkpt lat="42.2152872" lon="13.9075388"><ele>253.0</ele><time>2026-05-03T10:52:20.289Z</time></trkpt><trkpt lat="42.2153348" lon="13.9076737"><ele>253.0</ele><time>2026-05-03T10:52:21.291Z</time></trkpt><trkpt lat="42.2153769" lon="13.9078183"><ele>253.0</ele><time>2026-05-03T10:52:22.304Z</time></trkpt><trkpt lat="42.2154164" lon="13.9079728"><ele>255.5</ele><time>2026-05-03T10:52:23.292Z</time></trkpt><trkpt lat="42.2154611" lon="13.9081298"><ele>258.0</ele><time>2026-05-03T10:52:24.298Z</time></trkpt><trkpt lat="42.21553" lon="13.9082918"><ele>260.5</ele><time>2026-05-03T10:52:25.305Z</time></trkpt><trkpt lat="42.2156196" lon="13.908462"><ele>263.0</ele><time>2026-05-03T10:52:26.295Z</time></trkpt><trkpt lat="42.2157125" lon="13.90864"><ele>263.0</ele><time>2026-05-03T10:52:27.298Z</time></trkpt><trkpt lat="42.2158295" lon="13.9088516"><ele>263.0</ele><time>2026-05-03T10:52:28.296Z</time></trkpt><trkpt lat="42.2159602" lon="13.9090552"><ele>263.0</ele><time>2026-05-03T10:52:29.305Z</time></trkpt><trkpt lat="42.2160615" lon="13.9092677"><ele>265.6666666666667</ele><time>2026-05-03T10:52:30.296Z</time></trkpt><trkpt lat="42.2161498" lon="13.9094694"><ele>268.3333333333333</ele><time>2026-05-03T10:52:31.305Z</time></trkpt><trkpt lat="42.2162409" lon="13.9096515"><ele>271.0</ele><time>2026-05-03T10:52:32.298Z</time></trkpt><trkpt lat="42.2163201" lon="13.9098198"><ele>271.0</ele><time>2026-05-03T10:52:33.297Z</time></trkpt><trkpt lat="42.2164113" lon="13.9099642"><ele>271.0</ele><time>2026-05-03T10:52:34.295Z</time></trkpt><trkpt lat="42.2165137" lon="13.9101126"><ele>271.0</ele><time>2026-05-03T10:52:35.303Z</time></trkpt><trkpt lat="42.2166072" lon="13.9102663"><ele>271.0</ele><time>2026-05-03T10:52:36.293Z</time></trkpt><trkpt lat="42.2166902" lon="13.9104127"><ele>271.40000000000003</ele><time>2026-05-03T10:52:37.284Z</time></trkpt><trkpt lat="42.2167688" lon="13.9105431"><ele>271.8</ele><time>2026-05-03T10:52:38.301Z</time></trkpt><trkpt lat="42.2168326" lon="13.9106624"><ele>272.20000000000005</ele><time>2026-05-03T10:52:39.302Z</time></trkpt><trkpt lat="42.2168819" lon="13.9107902"><ele>272.6</ele><time>2026-05-03T10:52:40.299Z</time></trkpt><trkpt lat="42.2168881" lon="13.9109121"><ele>273.0</ele><time>2026-05-03T10:52:41.297Z</time></trkpt><trkpt lat="42.216868" lon="13.9110278"><ele>276.0</ele><time>2026-05-03T10:52:42.31Z</time></trkpt><trkpt lat="42.2168033" lon="13.9111177"><ele>279.0</ele><time>2026-05-03T10:52:43.291Z</time></trkpt><trkpt lat="42.2167222" lon="13.9111846"><ele>282.0</ele><time>2026-05-03T10:52:44.309Z</time></trkpt><trkpt lat="42.2166088" lon="13.9112092"><ele>285.0</ele><time>2026-05-03T10:52:45.309Z</time></trkpt><trkpt lat="42.2164762" lon="13.9111946"><ele>288.0</ele><time>2026-05-03T10:52:46.307Z</time></trkpt><trkpt lat="42.2163416" lon="13.9111496"><ele>289.25</ele><time>2026-05-03T10:52:47.306Z</time></trkpt><trkpt lat="42.2162177" lon="13.9110756"><ele>290.5</ele><time>2026-05-03T10:52:48.291Z</time></trkpt><trkpt lat="42.2160803" lon="13.9110373"><ele>291.75</ele><time>2026-05-03T10:52:49.284Z</time></trkpt><trkpt lat="42.2159265" lon="13.9110298"><ele>293.0</ele><time>2026-05-03T10:52:50.289Z</time></trkpt><trkpt lat="42.2157681" lon="13.9109842"><ele>293.0</ele><time>2026-05-03T10:52:51.296Z</time></trkpt><trkpt lat="42.2156231" lon="13.9109064"><ele>293.0</ele><time>2026-05-03T10:52:52.304Z</time></trkpt><trkpt lat="42.2154938" lon="13.9108038"><ele>293.0</ele><time>2026-05-03T10:52:53.292Z</time></trkpt><trkpt lat="42.2154251" lon="13.9106808"><ele>293.0</ele><time>2026-05-03T10:52:54.295Z</time></trkpt><trkpt lat="42.2153537" lon="13.91058"><ele>293.0</ele><time>2026-05-03T10:52:55.304Z</time></trkpt><trkpt lat="42.2152658" lon="13.9105366"><ele>293.0</ele><time>2026-05-03T10:52:56.299Z</time></trkpt><trkpt lat="42.2151869" lon="13.9105404"><ele>293.0</ele><time>2026-05-03T10:52:57.297Z</time></trkpt><trkpt lat="42.2150926" lon="13.9105891"><ele>293.0</ele><time>2026-05-03T10:52:58.307Z</time></trkpt><trkpt lat="42.2150136" lon="13.9107025"><ele>293.0</ele><time>2026-05-03T10:52:59.306Z</time></trkpt><trkpt lat="42.2149888" lon="13.9108429"><ele>296.5</ele><time>2026-05-03T10:53:00.305Z</time></trkpt><trkpt lat="42.2149678" lon="13.9110099"><ele>300.0</ele><time>2026-05-03T10:53:01.306Z</time></trkpt><trkpt lat="42.2149761" lon="13.9111949"><ele>303.5</ele><time>2026-05-03T10:53:02.299Z</time></trkpt><trkpt lat="42.215024" lon="13.9113857"><ele>307.0</ele><time>2026-05-03T10:53:03.284Z</time></trkpt><trkpt lat="42.2150983" lon="13.9115504"><ele>307.0</ele><time>2026-05-03T10:53:04.282Z</time></trkpt><trkpt lat="42.2151924" lon="13.9116859"><ele>307.0</ele><time>2026-05-03T10:53:05.278Z</time></trkpt><trkpt lat="42.2153148" lon="13.9117909"><ele>307.0</ele><time>2026-05-03T10:53:06.296Z</time></trkpt><trkpt lat="42.21543" lon="13.9118848"><ele>307.0</ele><time>2026-05-03T10:53:07.284Z</time></trkpt><trkpt lat="42.2155619" lon="13.9119841"><ele>310.0</ele><time>2026-05-03T10:53:08.285Z</time></trkpt><trkpt lat="42.2157048" lon="13.9120665"><ele>313.0</ele><time>2026-05-03T10:53:09.284Z</time></trkpt><trkpt lat="42.2158361" lon="13.9121451"><ele>316.0</ele><time>2026-05-03T10:53:10.285Z</time></trkpt><trkpt lat="42.2159788" lon="13.9122099"><ele>316.0</ele><time>2026-05-03T10:53:11.289Z</time></trkpt><trkpt lat="42.2161362" lon="13.9122713"><ele>316.0</ele><time>2026-05-03T10:53:12.292Z</time></trkpt><trkpt lat="42.2162792" lon="13.9123113"><ele>316.0</ele><time>2026-05-03T10:53:13.285Z</time></trkpt><trkpt lat="42.2164103" lon="13.9123412"><ele>316.0</ele><time>2026-05-03T10:53:14.288Z</time></trkpt><trkpt lat="42.2165333" lon="13.9123613"><ele>315.0</ele><time>2026-05-03T10:53:15.292Z</time></trkpt><trkpt lat="42.2166503" lon="13.9124009"><ele>314.0</ele><time>2026-05-03T10:53:16.288Z</time></trkpt><trkpt lat="42.21676" lon="13.9124425"><ele>313.0</ele><time>2026-05-03T10:53:17.291Z</time></trkpt><trkpt lat="42.216868" lon="13.9125087"><ele>312.0</ele><time>2026-05-03T10:53:18.287Z</time></trkpt><trkpt lat="42.2169739" lon="13.9125737"><ele>315.25</ele><time>2026-05-03T10:53:19.293Z</time></trkpt><trkpt lat="42.2170582" lon="13.9126669"><ele>318.5</ele><time>2026-05-03T10:53:20.29Z</time></trkpt><trkpt lat="42.2171261" lon="13.9127821"><ele>321.75</ele><time>2026-05-03T10:53:21.29Z</time></trkpt><trkpt lat="42.217194" lon="13.9129181"><ele>325.0</ele><time>2026-05-03T10:53:22.293Z</time></trkpt><trkpt lat="42.2172543" lon="13.9130617"><ele>325.0</ele><time>2026-05-03T10:53:23.295Z</time></trkpt><trkpt lat="42.2173154" lon="13.9131982"><ele>325.0</ele><time>2026-05-03T10:53:24.302Z</time></trkpt><trkpt lat="42.2173914" lon="13.913314"><ele>325.0</ele><time>2026-05-03T10:53:25.305Z</time></trkpt><trkpt lat="42.2174678" lon="13.9134045"><ele>325.0</ele><time>2026-05-03T10:53:26.298Z</time></trkpt><trkpt lat="42.2175496" lon="13.9134732"><ele>325.0</ele><time>2026-05-03T10:53:27.296Z</time></trkpt><trkpt lat="42.2176316" lon="13.9135485"><ele>325.0</ele><time>2026-05-03T10:53:28.298Z</time></trkpt><trkpt lat="42.2177005" lon="13.9136372"><ele>325.0</ele><time>2026-05-03T10:53:29.302Z</time></trkpt><trkpt lat="42.2177599" lon="13.9137306"><ele>325.0</ele><time>2026-05-03T10:53:30.299Z</time></trkpt><trkpt lat="42.2177945" lon="13.9138494"><ele>325.0</ele><time>2026-05-03T10:53:31.292Z</time></trkpt><trkpt lat="42.2178118" lon="13.9139818"><ele>325.0</ele><time>2026-05-03T10:53:32.303Z</time></trkpt><trkpt lat="42.2177983" lon="13.9141282"><ele>324.4</ele><time>2026-05-03T10:53:33.303Z</time></trkpt><trkpt lat="42.2177781" lon="13.9142663"><ele>323.8</ele><time>2026-05-03T10:53:34.301Z</time></trkpt><trkpt lat="42.2177446" lon="13.9143993"><ele>323.20000000000005</ele><time>2026-05-03T10:53:35.299Z</time></trkpt><trkpt lat="42.2177088" lon="13.9145277"><ele>322.6</ele><time>2026-05-03T10:53:36.296Z</time></trkpt><trkpt lat="42.2176533" lon="13.9146504"><ele>322.0</ele><time>2026-05-03T10:53:37.306Z</time></trkpt><trkpt lat="42.2175866" lon="13.9147422"><ele>322.0</ele><time>2026-05-03T10:53:38.296Z</time></trkpt><trkpt lat="42.2175069" lon="13.9148076"><ele>322.0</ele><time>2026-05-03T10:53:39.298Z</time></trkpt><trkpt lat="42.217407" lon="13.9148304"><ele>322.0</ele><time>2026-05-03T10:53:40.305Z</time></trkpt><trkpt lat="42.217303" lon="13.9148209"><ele>322.0</ele><time>2026-05-03T10:53:41.304Z</time></trkpt><trkpt lat="42.2171998" lon="13.9147704"><ele>322.0</ele><time>2026-05-03T10:53:42.292Z</time></trkpt><trkpt lat="42.2170946" lon="13.914706"><ele>323.0</ele><time>2026-05-03T10:53:43.291Z</time></trkpt><trkpt lat="42.216989" lon="13.9146296"><ele>324.0</ele><time>2026-05-03T10:53:44.288Z</time></trkpt><trkpt lat="42.2168729" lon="13.914554"><ele>325.0</ele><time>2026-05-03T10:53:45.302Z</time></trkpt><trkpt lat="42.2167565" lon="13.9144826"><ele>326.0</ele><time>2026-05-03T10:53:46.297Z</time></trkpt><trkpt lat="42.2166465" lon="13.9144145"><ele>326.0</ele><time>2026-05-03T10:53:47.298Z</time></trkpt><trkpt lat="42.216543" lon="13.9143427"><ele>326.0</ele><time>2026-05-03T10:53:48.297Z</time></trkpt><trkpt lat="42.2164561" lon="13.9142755"><ele>326.0</ele><time>2026-05-03T10:53:49.29Z</time></trkpt><trkpt lat="42.2163765" lon="13.914222"><ele>326.0</ele><time>2026-05-03T10:53:50.292Z</time></trkpt><trkpt lat="42.2163079" lon="13.9141721"><ele>326.0</ele><time>2026-05-03T10:53:51.293Z</time></trkpt><trkpt lat="42.2162426" lon="13.9141266"><ele>327.5</ele><time>2026-05-03T10:53:52.296Z</time></trkpt><trkpt lat="42.2161606" lon="13.9140262"><ele>329.0</ele><time>2026-05-03T10:53:54.3Z</time></trkpt><trkpt lat="42.2160928" lon="13.9139869"><ele>330.5</ele><time>2026-05-03T10:53:55.297Z</time></trkpt><trkpt lat="42.2160056" lon="13.9139272"><ele>332.0</ele><time>2026-05-03T10:53:57.285Z</time></trkpt><trkpt lat="42.2159082" lon="13.9139209"><ele>333.5</ele><time>2026-05-03T10:54:00.286Z</time></trkpt><trkpt lat="42.2158457" lon="13.9138883"><ele>335.0</ele><time>2026-05-03T10:54:02.291Z</time></trkpt><trkpt lat="42.2159162" lon="13.9139341"><ele>335.0</ele><time>2026-05-03T10:54:06.297Z</time></trkpt><trkpt lat="42.216014" lon="13.9139887"><ele>335.0</ele><time>2026-05-03T10:54:08.304Z</time></trkpt><trkpt lat="42.2161188" lon="13.9140502"><ele>335.0</ele><time>2026-05-03T10:54:10.298Z</time></trkpt><trkpt lat="42.2161735" lon="13.9141391"><ele>335.0</ele><time>2026-05-03T10:54:12.302Z</time></trkpt><trkpt lat="42.2161238" lon="13.9142563"><ele>335.0</ele><time>2026-05-03T10:54:14.289Z</time></trkpt><trkpt lat="42.2160882" lon="13.9143307"><ele>334.5</ele><time>2026-05-03T10:54:15.291Z</time></trkpt><trkpt lat="42.2160409" lon="13.9144083"><ele>334.0</ele><time>2026-05-03T10:54:16.283Z</time></trkpt><trkpt lat="42.2159685" lon="13.9144667"><ele>333.5</ele><time>2026-05-03T10:54:17.29Z</time></trkpt><trkpt lat="42.2158827" lon="13.9145275"><ele>333.0</ele><time>2026-05-03T10:54:18.282Z</time></trkpt><trkpt lat="42.2158128" lon="13.9145954"><ele>332.5</ele><time>2026-05-03T10:54:19.288Z</time></trkpt><trkpt lat="42.2157332" lon="13.9146448"><ele>332.0</ele><time>2026-05-03T10:54:20.299Z</time></trkpt><trkpt lat="42.2156379" lon="13.9146985"><ele>332.0</ele><time>2026-05-03T10:54:21.281Z</time></trkpt><trkpt lat="42.2155656" lon="13.9147406"><ele>332.0</ele><time>2026-05-03T10:54:22.282Z</time></trkpt><trkpt lat="42.2154958" lon="13.9148076"><ele>332.0</ele><time>2026-05-03T10:54:23.28Z</time></trkpt><trkpt lat="42.2154261" lon="13.914868"><ele>332.0</ele><time>2026-05-03T10:54:24.292Z</time></trkpt><trkpt lat="42.2153535" lon="13.9149129"><ele>332.0</ele><time>2026-05-03T10:54:25.295Z</time></trkpt><trkpt lat="42.2152688" lon="13.9149374"><ele>332.0</ele><time>2026-05-03T10:54:26.291Z</time></trkpt><trkpt lat="42.2151908" lon="13.9149576"><ele>332.0</ele><time>2026-05-03T10:54:27.29Z</time></trkpt><trkpt lat="42.2151202" lon="13.9149765"><ele>332.0</ele><time>2026-05-03T10:54:28.302Z</time></trkpt><trkpt lat="42.2150522" lon="13.9150395"><ele>332.0</ele><time>2026-05-03T10:54:29.304Z</time></trkpt><trkpt lat="42.2149963" lon="13.9151345"><ele>332.0</ele><time>2026-05-03T10:54:30.291Z</time></trkpt><trkpt lat="42.2149253" lon="13.9152309"><ele>332.0</ele><time>2026-05-03T10:54:31.287Z</time></trkpt><trkpt lat="42.2148311" lon="13.9153101"><ele>330.6</ele><time>2026-05-03T10:54:32.284Z</time></trkpt><trkpt lat="42.214745" lon="13.9153839"><ele>329.20000000000005</ele><time>2026-05-03T10:54:33.286Z</time></trkpt><trkpt lat="42.2146728" lon="13.9154504"><ele>327.8</ele><time>2026-05-03T10:54:34.285Z</time></trkpt><trkpt lat="42.2145875" lon="13.9155112"><ele>326.4</ele><time>2026-05-03T10:54:35.295Z</time></trkpt><trkpt lat="42.214488" lon="13.9155812"><ele>325.0</ele><time>2026-05-03T10:54:36.294Z</time></trkpt><trkpt lat="42.2143935" lon="13.9156547"><ele>325.0</ele><time>2026-05-03T10:54:37.298Z</time></trkpt><trkpt lat="42.2143159" lon="13.9157362"><ele>325.0</ele><time>2026-05-03T10:54:38.292Z</time></trkpt><trkpt lat="42.2142415" lon="13.9158208"><ele>325.0</ele><time>2026-05-03T10:54:39.309Z</time></trkpt><trkpt lat="42.2141686" lon="13.915897"><ele>325.0</ele><time>2026-05-03T10:54:40.3Z</time></trkpt><trkpt lat="42.2141021" lon="13.9159905"><ele>325.0</ele><time>2026-05-03T10:54:41.293Z</time></trkpt><trkpt lat="42.2140276" lon="13.9160702"><ele>323.5</ele><time>2026-05-03T10:54:42.299Z</time></trkpt><trkpt lat="42.2139294" lon="13.9161679"><ele>322.0</ele><time>2026-05-03T10:54:43.296Z</time></trkpt><trkpt lat="42.2138171" lon="13.9162622"><ele>320.5</ele><time>2026-05-03T10:54:44.295Z</time></trkpt><trkpt lat="42.2137139" lon="13.9163298"><ele>319.0</ele><time>2026-05-03T10:54:45.299Z</time></trkpt><trkpt lat="42.2136171" lon="13.9163949"><ele>319.0</ele><time>2026-05-03T10:54:46.3Z</time></trkpt><trkpt lat="42.2135427" lon="13.9164697"><ele>319.0</ele><time>2026-05-03T10:54:47.306Z</time></trkpt><trkpt lat="42.2134865" lon="13.9165756"><ele>319.0</ele><time>2026-05-03T10:54:48.304Z</time></trkpt><trkpt lat="42.2134448" lon="13.9166966"><ele>319.0</ele><time>2026-05-03T10:54:49.309Z</time></trkpt><trkpt lat="42.213426" lon="13.9168463"><ele>319.0</ele><time>2026-05-03T10:54:50.293Z</time></trkpt><trkpt lat="42.2134371" lon="13.9170096"><ele>319.5</ele><time>2026-05-03T10:54:51.295Z</time></trkpt><trkpt lat="42.2134596" lon="13.9171721"><ele>320.0</ele><time>2026-05-03T10:54:52.301Z</time></trkpt><trkpt lat="42.2134798" lon="13.9173367"><ele>320.5</ele><time>2026-05-03T10:54:53.297Z</time></trkpt><trkpt lat="42.2134816" lon="13.9175111"><ele>321.0</ele><time>2026-05-03T10:54:54.301Z</time></trkpt><trkpt lat="42.2134811" lon="13.9176784"><ele>321.8</ele><time>2026-05-03T10:54:55.305Z</time></trkpt><trkpt lat="42.2134712" lon="13.9178307"><ele>322.6</ele><time>2026-05-03T10:54:56.306Z</time></trkpt><trkpt lat="42.2134622" lon="13.9179755"><ele>323.4</ele><time>2026-05-03T10:54:57.304Z</time></trkpt><trkpt lat="42.2134504" lon="13.9180798"><ele>324.2</ele><time>2026-05-03T10:54:58.315Z</time></trkpt><trkpt lat="42.2135165" lon="13.9181466"><ele>325.0</ele><time>2026-05-03T10:55:03.298Z</time></trkpt><trkpt lat="42.2136176" lon="13.9181843"><ele>325.0</ele><time>2026-05-03T10:55:05.302Z</time></trkpt><trkpt lat="42.2136834" lon="13.9182197"><ele>325.0</ele><time>2026-05-03T10:55:06.308Z</time></trkpt><trkpt lat="42.213741" lon="13.9182774"><ele>325.0</ele><time>2026-05-03T10:55:07.305Z</time></trkpt><trkpt lat="42.2138096" lon="13.9183544"><ele>325.0</ele><time>2026-05-03T10:55:08.31Z</time></trkpt><trkpt lat="42.2138697" lon="13.9184383"><ele>325.0</ele><time>2026-05-03T10:55:09.314Z</time></trkpt><trkpt lat="42.2139301" lon="13.9185254"><ele>325.0</ele><time>2026-05-03T10:55:10.323Z</time></trkpt><trkpt lat="42.2139927" lon="13.9186287"><ele>324.75</ele><time>2026-05-03T10:55:11.313Z</time></trkpt><trkpt lat="42.2140548" lon="13.9187468"><ele>324.5</ele><time>2026-05-03T10:55:12.315Z</time></trkpt><trkpt lat="42.2141413" lon="13.9188583"><ele>324.25</ele><time>2026-05-03T10:55:13.309Z</time></trkpt><trkpt lat="42.2142363" lon="13.9189611"><ele>324.0</ele><time>2026-05-03T10:55:14.313Z</time></trkpt><trkpt lat="42.214334" lon="13.9190724"><ele>324.0</ele><time>2026-05-03T10:55:15.314Z</time></trkpt><trkpt lat="42.2144395" lon="13.9191675"><ele>324.0</ele><time>2026-05-03T10:55:16.309Z</time></trkpt><trkpt lat="42.2145484" lon="13.9192713"><ele>324.0</ele><time>2026-05-03T10:55:17.311Z</time></trkpt><trkpt lat="42.2146784" lon="13.9193685"><ele>324.0</ele><time>2026-05-03T10:55:18.314Z</time></trkpt><trkpt lat="42.214807" lon="13.9194614"><ele>323.75</ele><time>2026-05-03T10:55:19.316Z</time></trkpt><trkpt lat="42.2149269" lon="13.9195489"><ele>323.5</ele><time>2026-05-03T10:55:20.315Z</time></trkpt><trkpt lat="42.2150304" lon="13.9196404"><ele>323.25</ele><time>2026-05-03T10:55:21.315Z</time></trkpt><trkpt lat="42.2151386" lon="13.9197359"><ele>323.0</ele><time>2026-05-03T10:55:22.314Z</time></trkpt><trkpt lat="42.2152487" lon="13.9198307"><ele>323.0</ele><time>2026-05-03T10:55:23.314Z</time></trkpt><trkpt lat="42.2153515" lon="13.9199296"><ele>323.0</ele><time>2026-05-03T10:55:24.317Z</time></trkpt><trkpt lat="42.2154496" lon="13.920024"><ele>323.0</ele><time>2026-05-03T10:55:25.32Z</time></trkpt><trkpt lat="42.2155498" lon="13.9201192"><ele>323.0</ele><time>2026-05-03T10:55:26.317Z</time></trkpt><trkpt lat="42.2156452" lon="13.9202205"><ele>322.25</ele><time>2026-05-03T10:55:27.316Z</time></trkpt><trkpt lat="42.2157338" lon="13.9203251"><ele>321.5</ele><time>2026-05-03T10:55:28.321Z</time></trkpt><trkpt lat="42.2158283" lon="13.9204363"><ele>320.75</ele><time>2026-05-03T10:55:29.311Z</time></trkpt><trkpt lat="42.2159179" lon="13.9205386"><ele>320.0</ele><time>2026-05-03T10:55:30.319Z</time></trkpt><trkpt lat="42.2160125" lon="13.9206389"><ele>320.0</ele><time>2026-05-03T10:55:31.318Z</time></trkpt><trkpt lat="42.2161053" lon="13.9207415"><ele>320.0</ele><time>2026-05-03T10:55:32.316Z</time></trkpt><trkpt lat="42.2161886" lon="13.9208518"><ele>320.0</ele><time>2026-05-03T10:55:33.31Z</time></trkpt><trkpt lat="42.2162615" lon="13.9209596"><ele>320.0</ele><time>2026-05-03T10:55:34.312Z</time></trkpt><trkpt lat="42.2163315" lon="13.9210707"><ele>319.75</ele><time>2026-05-03T10:55:35.313Z</time></trkpt><trkpt lat="42.2164088" lon="13.9211756"><ele>319.5</ele><time>2026-05-03T10:55:36.314Z</time></trkpt><trkpt lat="42.2164892" lon="13.9212811"><ele>319.25</ele><time>2026-05-03T10:55:37.316Z</time></trkpt><trkpt lat="42.2165674" lon="13.9213963"><ele>319.0</ele><time>2026-05-03T10:55:38.315Z</time></trkpt><trkpt lat="42.2166544" lon="13.9214997"><ele>319.0</ele><time>2026-05-03T10:55:39.317Z</time></trkpt><trkpt lat="42.2167315" lon="13.9215958"><ele>319.0</ele><time>2026-05-03T10:55:40.317Z</time></trkpt><trkpt lat="42.2168076" lon="13.921686"><ele>319.0</ele><time>2026-05-03T10:55:41.323Z</time></trkpt><trkpt lat="42.2168797" lon="13.9217734"><ele>319.0</ele><time>2026-05-03T10:55:42.317Z</time></trkpt><trkpt lat="42.2169489" lon="13.9218713"><ele>319.0</ele><time>2026-05-03T10:55:43.316Z</time></trkpt><trkpt lat="42.2170154" lon="13.9219705"><ele>318.59999999999997</ele><time>2026-05-03T10:55:44.315Z</time></trkpt><trkpt lat="42.217069" lon="13.9220929"><ele>318.2</ele><time>2026-05-03T10:55:45.314Z</time></trkpt><trkpt lat="42.2171113" lon="13.9222111"><ele>317.79999999999995</ele><time>2026-05-03T10:55:46.321Z</time></trkpt><trkpt lat="42.2171507" lon="13.9223406"><ele>317.4</ele><time>2026-05-03T10:55:47.315Z</time></trkpt><trkpt lat="42.2171923" lon="13.922474"><ele>317.0</ele><time>2026-05-03T10:55:48.318Z</time></trkpt><trkpt lat="42.2172336" lon="13.9226039"><ele>316.2</ele><time>2026-05-03T10:55:49.318Z</time></trkpt><trkpt lat="42.2172752" lon="13.9227458"><ele>315.4</ele><time>2026-05-03T10:55:50.323Z</time></trkpt><trkpt lat="42.217321" lon="13.9228815"><ele>314.6</ele><time>2026-05-03T10:55:51.321Z</time></trkpt><trkpt lat="42.217364" lon="13.9230133"><ele>313.8</ele><time>2026-05-03T10:55:52.318Z</time></trkpt><trkpt lat="42.2174101" lon="13.9231288"><ele>313.0</ele><time>2026-05-03T10:55:53.309Z</time></trkpt><trkpt lat="42.2174632" lon="13.9232262"><ele>312.6</ele><time>2026-05-03T10:55:54.315Z</time></trkpt><trkpt lat="42.2175328" lon="13.923296"><ele>312.20000000000005</ele><time>2026-05-03T10:55:55.316Z</time></trkpt><trkpt lat="42.2176086" lon="13.9233496"><ele>311.8</ele><time>2026-05-03T10:55:56.314Z</time></trkpt><trkpt lat="42.2176924" lon="13.9234007"><ele>311.40000000000003</ele><time>2026-05-03T10:55:57.316Z</time></trkpt><trkpt lat="42.2177743" lon="13.9234623"><ele>311.0</ele><time>2026-05-03T10:55:58.322Z</time></trkpt><trkpt lat="42.2178633" lon="13.9235261"><ele>310.40000000000003</ele><time>2026-05-03T10:55:59.325Z</time></trkpt><trkpt lat="42.2179531" lon="13.9235882"><ele>309.8</ele><time>2026-05-03T10:56:00.319Z</time></trkpt><trkpt lat="42.2180481" lon="13.923649"><ele>309.20000000000005</ele><time>2026-05-03T10:56:01.324Z</time></trkpt><trkpt lat="42.2181398" lon="13.9237218"><ele>308.6</ele><time>2026-05-03T10:56:02.311Z</time></trkpt><trkpt lat="42.2182353" lon="13.9238051"><ele>308.0</ele><time>2026-05-03T10:56:03.316Z</time></trkpt><trkpt lat="42.2183353" lon="13.9239069"><ele>308.0</ele><time>2026-05-03T10:56:04.321Z</time></trkpt><trkpt lat="42.2184455" lon="13.9239981"><ele>308.0</ele><time>2026-05-03T10:56:05.315Z</time></trkpt><trkpt lat="42.2185435" lon="13.924073"><ele>308.0</ele><time>2026-05-03T10:56:06.321Z</time></trkpt><trkpt lat="42.2186317" lon="13.9241442"><ele>308.0</ele><time>2026-05-03T10:56:07.319Z</time></trkpt><trkpt lat="42.2187145" lon="13.9242113"><ele>308.0</ele><time>2026-05-03T10:56:08.319Z</time></trkpt><trkpt lat="42.2187995" lon="13.9242665"><ele>307.4</ele><time>2026-05-03T10:56:09.318Z</time></trkpt><trkpt lat="42.2188937" lon="13.9243162"><ele>306.8</ele><time>2026-05-03T10:56:10.317Z</time></trkpt><trkpt lat="42.2189924" lon="13.9243675"><ele>306.2</ele><time>2026-05-03T10:56:11.316Z</time></trkpt><trkpt lat="42.219086" lon="13.9244114"><ele>305.6</ele><time>2026-05-03T10:56:12.325Z</time></trkpt><trkpt lat="42.2191665" lon="13.9244588"><ele>305.0</ele><time>2026-05-03T10:56:13.316Z</time></trkpt><trkpt lat="42.2192495" lon="13.9245072"><ele>304.4</ele><time>2026-05-03T10:56:14.322Z</time></trkpt><trkpt lat="42.21933" lon="13.9245774"><ele>303.8</ele><time>2026-05-03T10:56:15.318Z</time></trkpt><trkpt lat="42.219413" lon="13.9246716"><ele>303.2</ele><time>2026-05-03T10:56:16.312Z</time></trkpt><trkpt lat="42.2194815" lon="13.9247579"><ele>302.6</ele><time>2026-05-03T10:56:17.312Z</time></trkpt><trkpt lat="42.2195423" lon="13.9248481"><ele>302.0</ele><time>2026-05-03T10:56:18.319Z</time></trkpt><trkpt lat="42.2195946" lon="13.9249367"><ele>302.0</ele><time>2026-05-03T10:56:19.306Z</time></trkpt><trkpt lat="42.2196497" lon="13.9250306"><ele>302.0</ele><time>2026-05-03T10:56:20.321Z</time></trkpt><trkpt lat="42.2197193" lon="13.9251245"><ele>302.0</ele><time>2026-05-03T10:56:21.316Z</time></trkpt><trkpt lat="42.2197766" lon="13.9252152"><ele>302.0</ele><time>2026-05-03T10:56:22.32Z</time></trkpt><trkpt lat="42.2198351" lon="13.925305"><ele>302.0</ele><time>2026-05-03T10:56:23.321Z</time></trkpt><trkpt lat="42.2199107" lon="13.9253871"><ele>301.2</ele><time>2026-05-03T10:56:24.325Z</time></trkpt><trkpt lat="42.2199856" lon="13.9254646"><ele>300.4</ele><time>2026-05-03T10:56:25.315Z</time></trkpt><trkpt lat="42.2200642" lon="13.9255312"><ele>299.6</ele><time>2026-05-03T10:56:26.32Z</time></trkpt><trkpt lat="42.2201449" lon="13.9255814"><ele>298.8</ele><time>2026-05-03T10:56:27.31Z</time></trkpt><trkpt lat="42.2202326" lon="13.9256048"><ele>298.0</ele><time>2026-05-03T10:56:28.315Z</time></trkpt><trkpt lat="42.220326" lon="13.9256072"><ele>298.0</ele><time>2026-05-03T10:56:29.322Z</time></trkpt><trkpt lat="42.2204089" lon="13.9256038"><ele>298.0</ele><time>2026-05-03T10:56:30.32Z</time></trkpt><trkpt lat="42.2204789" lon="13.9256123"><ele>298.0</ele><time>2026-05-03T10:56:31.313Z</time></trkpt><trkpt lat="42.2205531" lon="13.9256224"><ele>298.0</ele><time>2026-05-03T10:56:33.315Z</time></trkpt><trkpt lat="42.2206176" lon="13.9256173"><ele>298.0</ele><time>2026-05-03T10:56:35.305Z</time></trkpt><trkpt lat="42.2207324" lon="13.9255576"><ele>298.0</ele><time>2026-05-03T10:56:37.315Z</time></trkpt><trkpt lat="42.2208014" lon="13.9255215"><ele>297.1428571428571</ele><time>2026-05-03T10:56:38.319Z</time></trkpt><trkpt lat="42.2208693" lon="13.9255084"><ele>296.2857142857143</ele><time>2026-05-03T10:56:39.313Z</time></trkpt><trkpt lat="42.2209443" lon="13.9255003"><ele>295.42857142857144</ele><time>2026-05-03T10:56:40.319Z</time></trkpt><trkpt lat="42.2210177" lon="13.925507"><ele>294.57142857142856</ele><time>2026-05-03T10:56:41.321Z</time></trkpt><trkpt lat="42.2210947" lon="13.9255183"><ele>293.7142857142857</ele><time>2026-05-03T10:56:42.322Z</time></trkpt><trkpt lat="42.2211657" lon="13.925527"><ele>292.85714285714283</ele><time>2026-05-03T10:56:43.328Z</time></trkpt><trkpt lat="42.2212371" lon="13.925534"><ele>292.0</ele><time>2026-05-03T10:56:44.32Z</time></trkpt><trkpt lat="42.2213229" lon="13.9255394"><ele>292.0</ele><time>2026-05-03T10:56:45.321Z</time></trkpt><trkpt lat="42.2214085" lon="13.9255404"><ele>292.0</ele><time>2026-05-03T10:56:46.323Z</time></trkpt><trkpt lat="42.2214868" lon="13.9255446"><ele>292.0</ele><time>2026-05-03T10:56:47.321Z</time></trkpt><trkpt lat="42.221558" lon="13.9255543"><ele>292.0</ele><time>2026-05-03T10:56:48.318Z</time></trkpt><trkpt lat="42.2216204" lon="13.9255705"><ele>292.0</ele><time>2026-05-03T10:56:49.318Z</time></trkpt><trkpt lat="42.2216846" lon="13.9255801"><ele>292.0</ele><time>2026-05-03T10:56:50.318Z</time></trkpt><trkpt lat="42.2217508" lon="13.9255967"><ele>292.0</ele><time>2026-05-03T10:56:51.32Z</time></trkpt><trkpt lat="42.2218169" lon="13.9256074"><ele>290.3333333333333</ele><time>2026-05-03T10:56:52.32Z</time></trkpt><trkpt lat="42.2218858" lon="13.9256216"><ele>288.66666666666663</ele><time>2026-05-03T10:56:53.319Z</time></trkpt><trkpt lat="42.2219543" lon="13.9256419"><ele>287.0</ele><time>2026-05-03T10:56:54.324Z</time></trkpt><trkpt lat="42.2220197" lon="13.9256714"><ele>285.3333333333333</ele><time>2026-05-03T10:56:55.32Z</time></trkpt><trkpt lat="42.2220849" lon="13.9257065"><ele>283.6666666666667</ele><time>2026-05-03T10:56:56.31Z</time></trkpt><trkpt lat="42.2221703" lon="13.9257545"><ele>282.0</ele><time>2026-05-03T10:56:58.314Z</time></trkpt><trkpt lat="42.2222398" lon="13.9258203"><ele>280.0</ele><time>2026-05-03T10:57:00.316Z</time></trkpt><trkpt lat="42.2222796" lon="13.9259023"><ele>278.0</ele><time>2026-05-03T10:57:02.316Z</time></trkpt><trkpt lat="42.222304" lon="13.9259909"><ele>276.0</ele><time>2026-05-03T10:57:17.318Z</time></trkpt><trkpt lat="42.2222755" lon="13.926084"><ele>274.0</ele><time>2026-05-03T10:57:21.316Z</time></trkpt><trkpt lat="42.2222486" lon="13.9261756"><ele>272.0</ele><time>2026-05-03T10:57:23.318Z</time></trkpt><trkpt lat="42.2222007" lon="13.9262424"><ele>270.0</ele><time>2026-05-03T10:57:25.316Z</time></trkpt><trkpt lat="42.2221432" lon="13.9263047"><ele>268.0</ele><time>2026-05-03T10:57:27.307Z</time></trkpt><trkpt lat="42.2220774" lon="13.9263581"><ele>268.0</ele><time>2026-05-03T10:57:30.306Z</time></trkpt><trkpt lat="42.222021" lon="13.9264041"><ele>268.0</ele><time>2026-05-03T10:57:45.321Z</time></trkpt><trkpt lat="42.2220482" lon="13.9263253"><ele>268.0</ele><time>2026-05-03T10:57:55.305Z</time></trkpt><trkpt lat="42.222123" lon="13.9262687"><ele>268.0</ele><time>2026-05-03T10:57:57.311Z</time></trkpt><trkpt lat="42.2222006" lon="13.9262235"><ele>268.0</ele><time>2026-05-03T10:57:59.312Z</time></trkpt><trkpt lat="42.2222553" lon="13.9261006"><ele>268.0</ele><time>2026-05-03T10:58:01.322Z</time></trkpt><trkpt lat="42.2222836" lon="13.9259806"><ele>268.0</ele><time>2026-05-03T10:58:03.32Z</time></trkpt><trkpt lat="42.2222721" lon="13.9258939"><ele>268.0</ele><time>2026-05-03T10:58:05.31Z</time></trkpt><trkpt lat="42.222206" lon="13.9258144"><ele>268.0</ele><time>2026-05-03T10:58:07.307Z</time></trkpt><trkpt lat="42.2221456" lon="13.9257508"><ele>268.0</ele><time>2026-05-03T10:58:20.308Z</time></trkpt><trkpt lat="42.2222264" lon="13.9257368"><ele>268.0</ele><time>2026-05-03T10:58:26.315Z</time></trkpt><trkpt lat="42.2222998" lon="13.9257894"><ele>268.0</ele><time>2026-05-03T10:58:28.313Z</time></trkpt><trkpt lat="42.2224113" lon="13.9258291"><ele>268.0</ele><time>2026-05-03T10:58:30.313Z</time></trkpt><trkpt lat="42.2224942" lon="13.9258493"><ele>268.0</ele><time>2026-05-03T10:58:32.306Z</time></trkpt><trkpt lat="42.2225713" lon="13.9258409"><ele>268.0</ele><time>2026-05-03T10:58:34.316Z</time></trkpt><trkpt lat="42.2226593" lon="13.9258296"><ele>268.0</ele><time>2026-05-03T10:58:36.307Z</time></trkpt><trkpt lat="42.2227564" lon="13.925825"><ele>268.0</ele><time>2026-05-03T10:58:38.316Z</time></trkpt><trkpt lat="42.2228413" lon="13.9258421"><ele>268.0</ele><time>2026-05-03T10:58:40.31Z</time></trkpt><trkpt lat="42.2229303" lon="13.9258809"><ele>266.16666666666663</ele><time>2026-05-03T10:58:43.31Z</time></trkpt><trkpt lat="42.2229642" lon="13.9259616"><ele>264.3333333333333</ele><time>2026-05-03T10:58:45.315Z</time></trkpt><trkpt lat="42.2229711" lon="13.926056"><ele>262.5</ele><time>2026-05-03T10:58:47.32Z</time></trkpt><trkpt lat="42.2229445" lon="13.9261701"><ele>260.6666666666667</ele><time>2026-05-03T10:58:49.314Z</time></trkpt><trkpt lat="42.2228965" lon="13.926267"><ele>258.83333333333337</ele><time>2026-05-03T10:58:51.311Z</time></trkpt><trkpt lat="42.222871" lon="13.9263867"><ele>257.0</ele><time>2026-05-03T10:58:53.315Z</time></trkpt><trkpt lat="42.2228318" lon="13.926499"><ele>257.0</ele><time>2026-05-03T10:58:55.31Z</time></trkpt><trkpt lat="42.2227725" lon="13.9266392"><ele>257.0</ele><time>2026-05-03T10:58:57.305Z</time></trkpt><trkpt lat="42.2227448" lon="13.9267292"><ele>257.0</ele><time>2026-05-03T10:58:58.323Z</time></trkpt><trkpt lat="42.2227332" lon="13.9268132"><ele>257.0</ele><time>2026-05-03T10:58:59.31Z</time></trkpt><trkpt lat="42.222697" lon="13.9269687"><ele>257.0</ele><time>2026-05-03T10:59:01.318Z</time></trkpt><trkpt lat="42.2226459" lon="13.9270888"><ele>255.0</ele><time>2026-05-03T10:59:03.307Z</time></trkpt><trkpt lat="42.2225746" lon="13.9272059"><ele>253.0</ele><time>2026-05-03T10:59:05.306Z</time></trkpt><trkpt lat="42.2225488" lon="13.9272934"><ele>251.0</ele><time>2026-05-03T10:59:06.312Z</time></trkpt><trkpt lat="42.2225283" lon="13.9273755"><ele>249.0</ele><time>2026-05-03T10:59:07.314Z</time></trkpt><trkpt lat="42.222472" lon="13.9275203"><ele>247.0</ele><time>2026-05-03T10:59:09.307Z</time></trkpt><trkpt lat="42.2224085" lon="13.9276704"><ele>247.66666666666666</ele><time>2026-05-03T10:59:11.307Z</time></trkpt><trkpt lat="42.2223803" lon="13.9277752"><ele>248.33333333333331</ele><time>2026-05-03T10:59:12.317Z</time></trkpt><trkpt lat="42.2223572" lon="13.927876"><ele>249.0</ele><time>2026-05-03T10:59:13.316Z</time></trkpt><trkpt lat="42.2223393" lon="13.9279675"><ele>249.66666666666669</ele><time>2026-05-03T10:59:14.312Z</time></trkpt><trkpt lat="42.2223194" lon="13.9280603"><ele>250.33333333333334</ele><time>2026-05-03T10:59:15.319Z</time></trkpt><trkpt lat="42.2222628" lon="13.9282194"><ele>251.0</ele><time>2026-05-03T10:59:17.315Z</time></trkpt><trkpt lat="42.2222256" lon="13.9283224"><ele>250.20000000000002</ele><time>2026-05-03T10:59:18.32Z</time></trkpt><trkpt lat="42.2221797" lon="13.9284314"><ele>249.40000000000003</ele><time>2026-05-03T10:59:19.31Z</time></trkpt><trkpt lat="42.2221268" lon="13.9285442"><ele>248.6</ele><time>2026-05-03T10:59:20.315Z</time></trkpt><trkpt lat="42.2220709" lon="13.928665"><ele>247.8</ele><time>2026-05-03T10:59:21.309Z</time></trkpt><trkpt lat="42.2220229" lon="13.9287713"><ele>247.0</ele><time>2026-05-03T10:59:22.307Z</time></trkpt><trkpt lat="42.2219712" lon="13.9288817"><ele>247.0</ele><time>2026-05-03T10:59:23.313Z</time></trkpt><trkpt lat="42.2219204" lon="13.9289875"><ele>247.0</ele><time>2026-05-03T10:59:24.319Z</time></trkpt><trkpt lat="42.2218632" lon="13.9291072"><ele>247.0</ele><time>2026-05-03T10:59:25.318Z</time></trkpt><trkpt lat="42.2218051" lon="13.9292353"><ele>247.0</ele><time>2026-05-03T10:59:26.314Z</time></trkpt><trkpt lat="42.2217463" lon="13.9293639"><ele>247.0</ele><time>2026-05-03T10:59:27.315Z</time></trkpt><trkpt lat="42.2216855" lon="13.9295065"><ele>246.5</ele><time>2026-05-03T10:59:28.319Z</time></trkpt><trkpt lat="42.2216216" lon="13.929651"><ele>246.0</ele><time>2026-05-03T10:59:29.317Z</time></trkpt><trkpt lat="42.2215525" lon="13.9298051"><ele>245.5</ele><time>2026-05-03T10:59:30.318Z</time></trkpt><trkpt lat="42.221484" lon="13.9299601"><ele>245.0</ele><time>2026-05-03T10:59:31.326Z</time></trkpt><trkpt lat="42.2214194" lon="13.9301127"><ele>249.25</ele><time>2026-05-03T10:59:32.323Z</time></trkpt><trkpt lat="42.2213494" lon="13.9302652"><ele>253.5</ele><time>2026-05-03T10:59:33.321Z</time></trkpt><trkpt lat="42.2212747" lon="13.9304086"><ele>257.75</ele><time>2026-05-03T10:59:34.321Z</time></trkpt><trkpt lat="42.2211889" lon="13.930543"><ele>262.0</ele><time>2026-05-03T10:59:35.313Z</time></trkpt><trkpt lat="42.2210895" lon="13.9306575"><ele>262.0</ele><time>2026-05-03T10:59:36.317Z</time></trkpt><trkpt lat="42.2209782" lon="13.9307503"><ele>262.0</ele><time>2026-05-03T10:59:37.316Z</time></trkpt><trkpt lat="42.2208724" lon="13.9308251"><ele>262.0</ele><time>2026-05-03T10:59:38.313Z</time></trkpt><trkpt lat="42.2207726" lon="13.930868"><ele>262.0</ele><time>2026-05-03T10:59:39.303Z</time></trkpt><trkpt lat="42.2206866" lon="13.9308854"><ele>262.0</ele><time>2026-05-03T10:59:40.306Z</time></trkpt><trkpt lat="42.2206142" lon="13.930892"><ele>260.75</ele><time>2026-05-03T10:59:41.309Z</time></trkpt><trkpt lat="42.2205263" lon="13.9310076"><ele>259.5</ele><time>2026-05-03T10:59:43.307Z</time></trkpt><trkpt lat="42.2205613" lon="13.9311748"><ele>258.25</ele><time>2026-05-03T10:59:45.305Z</time></trkpt><trkpt lat="42.2206171" lon="13.9312917"><ele>257.0</ele><time>2026-05-03T10:59:46.307Z</time></trkpt><trkpt lat="42.2206649" lon="13.9314415"><ele>257.0</ele><time>2026-05-03T10:59:47.306Z</time></trkpt><trkpt lat="42.2207002" lon="13.931598"><ele>257.0</ele><time>2026-05-03T10:59:48.308Z</time></trkpt><trkpt lat="42.2207199" lon="13.931745"><ele>257.0</ele><time>2026-05-03T10:59:49.314Z</time></trkpt><trkpt lat="42.220758" lon="13.9318852"><ele>257.0</ele><time>2026-05-03T10:59:50.32Z</time></trkpt><trkpt lat="42.2207921" lon="13.9320254"><ele>255.0</ele><time>2026-05-03T10:59:51.318Z</time></trkpt><trkpt lat="42.2208343" lon="13.932172"><ele>253.0</ele><time>2026-05-03T10:59:52.318Z</time></trkpt><trkpt lat="42.2208786" lon="13.932308"><ele>251.0</ele><time>2026-05-03T10:59:53.322Z</time></trkpt><trkpt lat="42.2209299" lon="13.9324445"><ele>249.0</ele><time>2026-05-03T10:59:54.318Z</time></trkpt><trkpt lat="42.2209967" lon="13.9325733"><ele>246.75</ele><time>2026-05-03T10:59:55.314Z</time></trkpt><trkpt lat="42.2210771" lon="13.9326793"><ele>244.5</ele><time>2026-05-03T10:59:56.312Z</time></trkpt><trkpt lat="42.2211619" lon="13.9327768"><ele>242.25</ele><time>2026-05-03T10:59:57.316Z</time></trkpt><trkpt lat="42.2212514" lon="13.9328753"><ele>240.0</ele><time>2026-05-03T10:59:58.324Z</time></trkpt><trkpt lat="42.2213383" lon="13.9329822"><ele>240.0</ele><time>2026-05-03T10:59:59.318Z</time></trkpt><trkpt lat="42.2214181" lon="13.9330993"><ele>240.0</ele><time>2026-05-03T11:00:00.31Z</time></trkpt><trkpt lat="42.2214892" lon="13.9332119"><ele>240.0</ele><time>2026-05-03T11:00:01.311Z</time></trkpt><trkpt lat="42.2215568" lon="13.9333304"><ele>240.0</ele><time>2026-05-03T11:00:02.315Z</time></trkpt><trkpt lat="42.2216258" lon="13.9334592"><ele>237.0</ele><time>2026-05-03T11:00:03.315Z</time></trkpt><trkpt lat="42.2217041" lon="13.9335819"><ele>234.0</ele><time>2026-05-03T11:00:04.313Z</time></trkpt><trkpt lat="42.2217896" lon="13.9336971"><ele>231.0</ele><time>2026-05-03T11:00:05.304Z</time></trkpt><trkpt lat="42.221894" lon="13.9337737"><ele>228.0</ele><time>2026-05-03T11:00:06.31Z</time></trkpt><trkpt lat="42.2220106" lon="13.9338002"><ele>228.0</ele><time>2026-05-03T11:00:07.305Z</time></trkpt><trkpt lat="42.2221221" lon="13.9338099"><ele>228.0</ele><time>2026-05-03T11:00:08.308Z</time></trkpt><trkpt lat="42.2222214" lon="13.9338469"><ele>228.0</ele><time>2026-05-03T11:00:09.321Z</time></trkpt><trkpt lat="42.2222895" lon="13.9339292"><ele>228.0</ele><time>2026-05-03T11:00:10.319Z</time></trkpt><trkpt lat="42.2223238" lon="13.9340452"><ele>228.0</ele><time>2026-05-03T11:00:11.308Z</time></trkpt><trkpt lat="42.2223389" lon="13.9341654"><ele>225.2</ele><time>2026-05-03T11:00:12.314Z</time></trkpt><trkpt lat="42.2223354" lon="13.9342908"><ele>222.4</ele><time>2026-05-03T11:00:13.309Z</time></trkpt><trkpt lat="42.2223392" lon="13.9344119"><ele>219.59999999999997</ele><time>2026-05-03T11:00:14.312Z</time></trkpt><trkpt lat="42.2223486" lon="13.9345301"><ele>216.79999999999998</ele><time>2026-05-03T11:00:15.313Z</time></trkpt><trkpt lat="42.2223657" lon="13.9346526"><ele>214.0</ele><time>2026-05-03T11:00:16.311Z</time></trkpt><trkpt lat="42.2223943" lon="13.9347744"><ele>214.0</ele><time>2026-05-03T11:00:17.313Z</time></trkpt><trkpt lat="42.2224335" lon="13.934884"><ele>213.99999999999997</ele><time>2026-05-03T11:00:18.307Z</time></trkpt><trkpt lat="42.2224996" lon="13.9349656"><ele>213.99999999999997</ele><time>2026-05-03T11:00:19.311Z</time></trkpt><trkpt lat="42.2225836" lon="13.9350239"><ele>214.0</ele><time>2026-05-03T11:00:20.323Z</time></trkpt><trkpt lat="42.2226726" lon="13.9350623"><ele>214.0</ele><time>2026-05-03T11:00:21.318Z</time></trkpt><trkpt lat="42.222769" lon="13.9350951"><ele>212.79999999999998</ele><time>2026-05-03T11:00:22.31Z</time></trkpt><trkpt lat="42.2228723" lon="13.9351336"><ele>211.59999999999997</ele><time>2026-05-03T11:00:23.316Z</time></trkpt><trkpt lat="42.2229669" lon="13.935173"><ele>210.4</ele><time>2026-05-03T11:00:24.312Z</time></trkpt><trkpt lat="42.2230639" lon="13.935239"><ele>209.2</ele><time>2026-05-03T11:00:25.31Z</time></trkpt><trkpt lat="42.2231587" lon="13.9353328"><ele>208.0</ele><time>2026-05-03T11:00:26.308Z</time></trkpt><trkpt lat="42.2232526" lon="13.9354424"><ele>207.2</ele><time>2026-05-03T11:00:27.309Z</time></trkpt><trkpt lat="42.2233365" lon="13.9355595"><ele>206.4</ele><time>2026-05-03T11:00:28.308Z</time></trkpt><trkpt lat="42.223411" lon="13.9356741"><ele>205.6</ele><time>2026-05-03T11:00:29.314Z</time></trkpt><trkpt lat="42.2234693" lon="13.9357854"><ele>204.79999999999998</ele><time>2026-05-03T11:00:30.304Z</time></trkpt><trkpt lat="42.2235211" lon="13.9359011"><ele>204.0</ele><time>2026-05-03T11:00:31.307Z</time></trkpt><trkpt lat="42.2235565" lon="13.9360224"><ele>203.6</ele><time>2026-05-03T11:00:32.308Z</time></trkpt><trkpt lat="42.2235757" lon="13.9361379"><ele>203.2</ele><time>2026-05-03T11:00:33.306Z</time></trkpt><trkpt lat="42.2236167" lon="13.9362551"><ele>202.79999999999998</ele><time>2026-05-03T11:00:34.315Z</time></trkpt><trkpt lat="42.2236925" lon="13.9363417"><ele>202.39999999999998</ele><time>2026-05-03T11:00:35.315Z</time></trkpt><trkpt lat="42.223789" lon="13.9363894"><ele>202.0</ele><time>2026-05-03T11:00:36.312Z</time></trkpt><trkpt lat="42.2238911" lon="13.9363831"><ele>201.2</ele><time>2026-05-03T11:00:37.3Z</time></trkpt><trkpt lat="42.2239831" lon="13.9363663"><ele>200.39999999999998</ele><time>2026-05-03T11:00:38.315Z</time></trkpt><trkpt lat="42.2240762" lon="13.9363757"><ele>199.60000000000002</ele><time>2026-05-03T11:00:39.31Z</time></trkpt><trkpt lat="42.224162" lon="13.93644"><ele>198.8</ele><time>2026-05-03T11:00:40.3Z</time></trkpt><trkpt lat="42.2242547" lon="13.9365345"><ele>198.0</ele><time>2026-05-03T11:00:41.306Z</time></trkpt><trkpt lat="42.2243546" lon="13.9366043"><ele>198.0</ele><time>2026-05-03T11:00:42.302Z</time></trkpt><trkpt lat="42.2244723" lon="13.9366369"><ele>198.0</ele><time>2026-05-03T11:00:43.307Z</time></trkpt><trkpt lat="42.2245965" lon="13.9366635"><ele>198.0</ele><time>2026-05-03T11:00:44.308Z</time></trkpt><trkpt lat="42.2247301" lon="13.9366985"><ele>198.0</ele><time>2026-05-03T11:00:45.308Z</time></trkpt><trkpt lat="42.2248669" lon="13.9367432"><ele>197.5</ele><time>2026-05-03T11:00:46.313Z</time></trkpt><trkpt lat="42.2250063" lon="13.9367922"><ele>197.0</ele><time>2026-05-03T11:00:47.311Z</time></trkpt><trkpt lat="42.2251276" lon="13.9368349"><ele>196.5</ele><time>2026-05-03T11:00:48.309Z</time></trkpt><trkpt lat="42.2252433" lon="13.9368769"><ele>196.0</ele><time>2026-05-03T11:00:49.31Z</time></trkpt><trkpt lat="42.2253434" lon="13.9369133"><ele>195.99999999999997</ele><time>2026-05-03T11:00:50.314Z</time></trkpt><trkpt lat="42.2254312" lon="13.9369475"><ele>196.0</ele><time>2026-05-03T11:00:51.313Z</time></trkpt><trkpt lat="42.2255131" lon="13.9369781"><ele>196.0</ele><time>2026-05-03T11:00:52.311Z</time></trkpt><trkpt lat="42.2255869" lon="13.9370358"><ele>196.0</ele><time>2026-05-03T11:00:53.303Z</time></trkpt><trkpt lat="42.2256515" lon="13.9371005"><ele>195.99999999999997</ele><time>2026-05-03T11:00:54.31Z</time></trkpt><trkpt lat="42.2257057" lon="13.9371933"><ele>196.0</ele><time>2026-05-03T11:00:55.306Z</time></trkpt><trkpt lat="42.225744" lon="13.9373012"><ele>195.8</ele><time>2026-05-03T11:00:56.303Z</time></trkpt><trkpt lat="42.2257667" lon="13.9374208"><ele>195.60000000000002</ele><time>2026-05-03T11:00:57.304Z</time></trkpt><trkpt lat="42.2257811" lon="13.9375521"><ele>195.4</ele><time>2026-05-03T11:00:58.309Z</time></trkpt><trkpt lat="42.2257774" lon="13.9376892"><ele>195.2</ele><time>2026-05-03T11:00:59.306Z</time></trkpt><trkpt lat="42.2257683" lon="13.9378388"><ele>195.0</ele><time>2026-05-03T11:01:00.311Z</time></trkpt><trkpt lat="42.2257569" lon="13.9380011"><ele>195.0</ele><time>2026-05-03T11:01:01.318Z</time></trkpt><trkpt lat="42.2257508" lon="13.9381738"><ele>195.0</ele><time>2026-05-03T11:01:02.313Z</time></trkpt><trkpt lat="42.2257475" lon="13.9383542"><ele>195.0</ele><time>2026-05-03T11:01:03.313Z</time></trkpt><trkpt lat="42.2257437" lon="13.9385336"><ele>195.0</ele><time>2026-05-03T11:01:04.313Z</time></trkpt><trkpt lat="42.2257358" lon="13.9387031"><ele>195.0</ele><time>2026-05-03T11:01:05.31Z</time></trkpt><trkpt lat="42.2257356" lon="13.9388777"><ele>195.0</ele><time>2026-05-03T11:01:06.312Z</time></trkpt><trkpt lat="42.225733" lon="13.9390589"><ele>195.0</ele><time>2026-05-03T11:01:07.314Z</time></trkpt><trkpt lat="42.2257297" lon="13.9392457"><ele>195.0</ele><time>2026-05-03T11:01:08.31Z</time></trkpt><trkpt lat="42.2257211" lon="13.9394446"><ele>195.0</ele><time>2026-05-03T11:01:09.317Z</time></trkpt><trkpt lat="42.2257115" lon="13.9396458"><ele>195.0</ele><time>2026-05-03T11:01:10.315Z</time></trkpt><trkpt lat="42.2257169" lon="13.9398396"><ele>195.0</ele><time>2026-05-03T11:01:11.318Z</time></trkpt><trkpt lat="42.2257141" lon="13.940038"><ele>195.0</ele><time>2026-05-03T11:01:12.317Z</time></trkpt><trkpt lat="42.2257049" lon="13.9402418"><ele>194.75</ele><time>2026-05-03T11:01:13.311Z</time></trkpt><trkpt lat="42.2257144" lon="13.9404387"><ele>194.5</ele><time>2026-05-03T11:01:14.318Z</time></trkpt><trkpt lat="42.2257275" lon="13.9406293"><ele>194.25</ele><time>2026-05-03T11:01:15.316Z</time></trkpt><trkpt lat="42.2257588" lon="13.9408319"><ele>194.0</ele><time>2026-05-03T11:01:16.313Z</time></trkpt><trkpt lat="42.2257988" lon="13.9410359"><ele>194.66666666666669</ele><time>2026-05-03T11:01:17.316Z</time></trkpt><trkpt lat="42.2258425" lon="13.941235"><ele>195.33333333333331</ele><time>2026-05-03T11:01:18.314Z</time></trkpt><trkpt lat="42.2258887" lon="13.9414299"><ele>196.0</ele><time>2026-05-03T11:01:19.315Z</time></trkpt><trkpt lat="42.2259452" lon="13.9416249"><ele>195.0</ele><time>2026-05-03T11:01:20.317Z</time></trkpt><trkpt lat="42.2260111" lon="13.9418278"><ele>194.0</ele><time>2026-05-03T11:01:21.326Z</time></trkpt><trkpt lat="42.2260676" lon="13.942035"><ele>193.0</ele><time>2026-05-03T11:01:22.32Z</time></trkpt><trkpt lat="42.2261336" lon="13.9422481"><ele>193.0</ele><time>2026-05-03T11:01:23.324Z</time></trkpt><trkpt lat="42.2262009" lon="13.9424624"><ele>193.0</ele><time>2026-05-03T11:01:24.325Z</time></trkpt><trkpt lat="42.2262527" lon="13.9426808"><ele>193.0</ele><time>2026-05-03T11:01:25.316Z</time></trkpt><trkpt lat="42.2263142" lon="13.9428968"><ele>193.0</ele><time>2026-05-03T11:01:26.319Z</time></trkpt><trkpt lat="42.2263756" lon="13.9431159"><ele>193.0</ele><time>2026-05-03T11:01:27.314Z</time></trkpt><trkpt lat="42.2264347" lon="13.9433358"><ele>193.0</ele><time>2026-05-03T11:01:28.316Z</time></trkpt><trkpt lat="42.2264946" lon="13.9435595"><ele>194.0</ele><time>2026-05-03T11:01:29.314Z</time></trkpt><trkpt lat="42.2265653" lon="13.9437855"><ele>195.0</ele><time>2026-05-03T11:01:30.314Z</time></trkpt><trkpt lat="42.2266378" lon="13.9440053"><ele>196.0</ele><time>2026-05-03T11:01:31.322Z</time></trkpt><trkpt lat="42.2267039" lon="13.9442233"><ele>196.66666666666666</ele><time>2026-05-03T11:01:32.317Z</time></trkpt><trkpt lat="42.2267564" lon="13.9444323"><ele>197.33333333333331</ele><time>2026-05-03T11:01:33.316Z</time></trkpt><trkpt lat="42.2268105" lon="13.9446372"><ele>198.0</ele><time>2026-05-03T11:01:34.314Z</time></trkpt><trkpt lat="42.2268647" lon="13.9448371"><ele>198.0</ele><time>2026-05-03T11:01:35.309Z</time></trkpt><trkpt lat="42.2269254" lon="13.9450486"><ele>198.0</ele><time>2026-05-03T11:01:36.318Z</time></trkpt><trkpt lat="42.2269901" lon="13.9452575"><ele>198.0</ele><time>2026-05-03T11:01:37.311Z</time></trkpt><trkpt lat="42.2270574" lon="13.9454671"><ele>198.0</ele><time>2026-05-03T11:01:38.317Z</time></trkpt><trkpt lat="42.2271098" lon="13.9456915"><ele>198.0</ele><time>2026-05-03T11:01:39.328Z</time></trkpt><trkpt lat="42.2271665" lon="13.9459118"><ele>198.0</ele><time>2026-05-03T11:01:40.315Z</time></trkpt><trkpt lat="42.2272504" lon="13.9461385"><ele>199.0</ele><time>2026-05-03T11:01:41.314Z</time></trkpt><trkpt lat="42.2273298" lon="13.946365"><ele>200.0</ele><time>2026-05-03T11:01:42.322Z</time></trkpt><trkpt lat="42.2274022" lon="13.9465961"><ele>201.0</ele><time>2026-05-03T11:01:43.316Z</time></trkpt><trkpt lat="42.2274586" lon="13.9468301"><ele>202.0</ele><time>2026-05-03T11:01:44.313Z</time></trkpt><trkpt lat="42.2275171" lon="13.9470509"><ele>203.0</ele><time>2026-05-03T11:01:45.316Z</time></trkpt><trkpt lat="42.227577" lon="13.9472704"><ele>204.0</ele><time>2026-05-03T11:01:46.318Z</time></trkpt><trkpt lat="42.2276434" lon="13.9474866"><ele>205.0</ele><time>2026-05-03T11:01:47.32Z</time></trkpt><trkpt lat="42.227703" lon="13.947698"><ele>206.0</ele><time>2026-05-03T11:01:48.317Z</time></trkpt><trkpt lat="42.2277588" lon="13.9479092"><ele>207.0</ele><time>2026-05-03T11:01:49.315Z</time></trkpt><trkpt lat="42.2278252" lon="13.9481038"><ele>207.0</ele><time>2026-05-03T11:01:50.308Z</time></trkpt><trkpt lat="42.2279172" lon="13.9482777"><ele>207.0</ele><time>2026-05-03T11:01:51.307Z</time></trkpt><trkpt lat="42.2280389" lon="13.9484351"><ele>207.0</ele><time>2026-05-03T11:01:52.317Z</time></trkpt><trkpt lat="42.2281709" lon="13.9485651"><ele>208.0</ele><time>2026-05-03T11:01:53.313Z</time></trkpt><trkpt lat="42.2283189" lon="13.9486827"><ele>209.0</ele><time>2026-05-03T11:01:54.327Z</time></trkpt><trkpt lat="42.2284676" lon="13.9487976"><ele>210.0</ele><time>2026-05-03T11:01:55.318Z</time></trkpt><trkpt lat="42.2286108" lon="13.9489313"><ele>210.0</ele><time>2026-05-03T11:01:56.317Z</time></trkpt><trkpt lat="42.2287533" lon="13.9490668"><ele>210.0</ele><time>2026-05-03T11:01:57.312Z</time></trkpt><trkpt lat="42.2289002" lon="13.949197"><ele>210.0</ele><time>2026-05-03T11:01:58.32Z</time></trkpt><trkpt lat="42.22904" lon="13.9493433"><ele>213.33333333333331</ele><time>2026-05-03T11:01:59.307Z</time></trkpt><trkpt lat="42.2291876" lon="13.9494774"><ele>216.66666666666666</ele><time>2026-05-03T11:02:00.315Z</time></trkpt><trkpt lat="42.2293339" lon="13.9496051"><ele>220.0</ele><time>2026-05-03T11:02:01.316Z</time></trkpt><trkpt lat="42.2294743" lon="13.9497302"><ele>220.0</ele><time>2026-05-03T11:02:02.315Z</time></trkpt><trkpt lat="42.2296096" lon="13.9498481"><ele>220.0</ele><time>2026-05-03T11:02:03.315Z</time></trkpt><trkpt lat="42.2297443" lon="13.949954"><ele>220.0</ele><time>2026-05-03T11:02:04.31Z</time></trkpt><trkpt lat="42.2298859" lon="13.9500391"><ele>223.0</ele><time>2026-05-03T11:02:05.3Z</time></trkpt><trkpt lat="42.230032" lon="13.9500979"><ele>226.0</ele><time>2026-05-03T11:02:06.302Z</time></trkpt><trkpt lat="42.2301929" lon="13.950126"><ele>229.0</ele><time>2026-05-03T11:02:07.306Z</time></trkpt><trkpt lat="42.230353" lon="13.9501416"><ele>229.0</ele><time>2026-05-03T11:02:08.308Z</time></trkpt><trkpt lat="42.2305136" lon="13.9501608"><ele>229.0</ele><time>2026-05-03T11:02:09.312Z</time></trkpt><trkpt lat="42.2306749" lon="13.9501856"><ele>229.0</ele><time>2026-05-03T11:02:10.311Z</time></trkpt><trkpt lat="42.2308419" lon="13.9502184"><ele>233.0</ele><time>2026-05-03T11:02:11.309Z</time></trkpt><trkpt lat="42.2310128" lon="13.9502658"><ele>237.0</ele><time>2026-05-03T11:02:12.318Z</time></trkpt><trkpt lat="42.2311796" lon="13.9503196"><ele>241.0</ele><time>2026-05-03T11:02:13.31Z</time></trkpt><trkpt lat="42.2313476" lon="13.9503711"><ele>242.0</ele><time>2026-05-03T11:02:14.31Z</time></trkpt><trkpt lat="42.2315217" lon="13.9504192"><ele>243.0</ele><time>2026-05-03T11:02:15.315Z</time></trkpt><trkpt lat="42.2316977" lon="13.9504802"><ele>244.0</ele><time>2026-05-03T11:02:16.315Z</time></trkpt><trkpt lat="42.2318724" lon="13.9505407"><ele>244.0</ele><time>2026-05-03T11:02:17.315Z</time></trkpt><trkpt lat="42.2320518" lon="13.9505916"><ele>244.0</ele><time>2026-05-03T11:02:18.312Z</time></trkpt><trkpt lat="42.2322332" lon="13.9506419"><ele>244.0</ele><time>2026-05-03T11:02:19.313Z</time></trkpt><trkpt lat="42.2324071" lon="13.9506914"><ele>244.33333333333331</ele><time>2026-05-03T11:02:20.31Z</time></trkpt><trkpt lat="42.2325779" lon="13.9507479"><ele>244.66666666666669</ele><time>2026-05-03T11:02:21.311Z</time></trkpt><trkpt lat="42.2327423" lon="13.950795"><ele>245.0</ele><time>2026-05-03T11:02:22.31Z</time></trkpt><trkpt lat="42.2329127" lon="13.9508417"><ele>244.0</ele><time>2026-05-03T11:02:23.319Z</time></trkpt><trkpt lat="42.2330764" lon="13.9508878"><ele>243.0</ele><time>2026-05-03T11:02:24.314Z</time></trkpt><trkpt lat="42.2332319" lon="13.9509371"><ele>242.0</ele><time>2026-05-03T11:02:25.313Z</time></trkpt><trkpt lat="42.2333905" lon="13.9509881"><ele>242.0</ele><time>2026-05-03T11:02:26.312Z</time></trkpt><trkpt lat="42.2335456" lon="13.9510404"><ele>242.0</ele><time>2026-05-03T11:02:27.314Z</time></trkpt><trkpt lat="42.2337122" lon="13.9510848"><ele>242.0</ele><time>2026-05-03T11:02:28.321Z</time></trkpt><trkpt lat="42.2338771" lon="13.9511362"><ele>239.0</ele><time>2026-05-03T11:02:29.31Z</time></trkpt><trkpt lat="42.2340438" lon="13.9511888"><ele>236.0</ele><time>2026-05-03T11:02:30.312Z</time></trkpt><trkpt lat="42.234214" lon="13.9512412"><ele>233.0</ele><time>2026-05-03T11:02:31.318Z</time></trkpt><trkpt lat="42.2343851" lon="13.9512985"><ele>233.0</ele><time>2026-05-03T11:02:32.318Z</time></trkpt><trkpt lat="42.234558" lon="13.9513529"><ele>233.0</ele><time>2026-05-03T11:02:33.315Z</time></trkpt><trkpt lat="42.2347298" lon="13.9514046"><ele>233.0</ele><time>2026-05-03T11:02:34.314Z</time></trkpt><trkpt lat="42.2349045" lon="13.9514518"><ele>231.0</ele><time>2026-05-03T11:02:35.313Z</time></trkpt><trkpt lat="42.2350836" lon="13.9515089"><ele>229.0</ele><time>2026-05-03T11:02:36.311Z</time></trkpt><trkpt lat="42.2352587" lon="13.951572"><ele>227.0</ele><time>2026-05-03T11:02:37.313Z</time></trkpt><trkpt lat="42.2354245" lon="13.9516554"><ele>225.66666666666669</ele><time>2026-05-03T11:02:38.303Z</time></trkpt><trkpt lat="42.235579" lon="13.9517694"><ele>224.33333333333331</ele><time>2026-05-03T11:02:39.306Z</time></trkpt><trkpt lat="42.2357213" lon="13.9519069"><ele>223.0</ele><time>2026-05-03T11:02:40.308Z</time></trkpt><trkpt lat="42.235854" lon="13.9520593"><ele>223.0</ele><time>2026-05-03T11:02:41.311Z</time></trkpt><trkpt lat="42.2359757" lon="13.9522205"><ele>223.0</ele><time>2026-05-03T11:02:42.306Z</time></trkpt><trkpt lat="42.2360933" lon="13.9524002"><ele>223.0</ele><time>2026-05-03T11:02:43.314Z</time></trkpt><trkpt lat="42.2362428" lon="13.9525483"><ele>224.66666666666666</ele><time>2026-05-03T11:02:44.297Z</time></trkpt><trkpt lat="42.2363818" lon="13.9526855"><ele>226.33333333333331</ele><time>2026-05-03T11:02:45.318Z</time></trkpt><trkpt lat="42.2365382" lon="13.9527813"><ele>228.0</ele><time>2026-05-03T11:02:46.304Z</time></trkpt><trkpt lat="42.2367085" lon="13.952826"><ele>228.0</ele><time>2026-05-03T11:02:47.305Z</time></trkpt><trkpt lat="42.2368889" lon="13.9528709"><ele>228.0</ele><time>2026-05-03T11:02:48.306Z</time></trkpt><trkpt lat="42.2370762" lon="13.952928"><ele>228.0</ele><time>2026-05-03T11:02:49.311Z</time></trkpt><trkpt lat="42.2372587" lon="13.952988"><ele>224.33333333333331</ele><time>2026-05-03T11:02:50.318Z</time></trkpt><trkpt lat="42.2374379" lon="13.9530403"><ele>220.66666666666666</ele><time>2026-05-03T11:02:51.318Z</time></trkpt><trkpt lat="42.237607" lon="13.9530966"><ele>217.0</ele><time>2026-05-03T11:02:52.32Z</time></trkpt><trkpt lat="42.2377635" lon="13.9531544"><ele>217.0</ele><time>2026-05-03T11:02:53.325Z</time></trkpt><trkpt lat="42.2379173" lon="13.953204"><ele>217.0</ele><time>2026-05-03T11:02:54.33Z</time></trkpt><trkpt lat="42.2380694" lon="13.953256"><ele>217.0</ele><time>2026-05-03T11:02:55.322Z</time></trkpt><trkpt lat="42.2382241" lon="13.9533018"><ele>217.33333333333331</ele><time>2026-05-03T11:02:56.321Z</time></trkpt><trkpt lat="42.2383757" lon="13.9533443"><ele>217.66666666666669</ele><time>2026-05-03T11:02:57.313Z</time></trkpt><trkpt lat="42.2385455" lon="13.953351"><ele>218.0</ele><time>2026-05-03T11:02:58.31Z</time></trkpt><trkpt lat="42.2387139" lon="13.9533368"><ele>218.0</ele><time>2026-05-03T11:02:59.305Z</time></trkpt><trkpt lat="42.2388751" lon="13.9532912"><ele>218.0</ele><time>2026-05-03T11:03:00.318Z</time></trkpt><trkpt lat="42.2390144" lon="13.9531839"><ele>218.0</ele><time>2026-05-03T11:03:01.31Z</time></trkpt><trkpt lat="42.2391419" lon="13.9530347"><ele>217.0</ele><time>2026-05-03T11:03:02.301Z</time></trkpt><trkpt lat="42.2392541" lon="13.9528708"><ele>216.0</ele><time>2026-05-03T11:03:03.302Z</time></trkpt><trkpt lat="42.2393386" lon="13.9526763"><ele>215.0</ele><time>2026-05-03T11:03:04.294Z</time></trkpt><trkpt lat="42.2393909" lon="13.9524603"><ele>213.0</ele><time>2026-05-03T11:03:05.306Z</time></trkpt><trkpt lat="42.2394127" lon="13.9522548"><ele>211.0</ele><time>2026-05-03T11:03:06.304Z</time></trkpt><trkpt lat="42.2394283" lon="13.9520224"><ele>209.0</ele><time>2026-05-03T11:03:07.307Z</time></trkpt><trkpt lat="42.2394457" lon="13.9518034"><ele>206.66666666666669</ele><time>2026-05-03T11:03:08.291Z</time></trkpt><trkpt lat="42.239481" lon="13.9515929"><ele>204.33333333333331</ele><time>2026-05-03T11:03:09.297Z</time></trkpt><trkpt lat="42.2395061" lon="13.951376"><ele>202.0</ele><time>2026-05-03T11:03:10.294Z</time></trkpt><trkpt lat="42.2395222" lon="13.9511895"><ele>202.0</ele><time>2026-05-03T11:03:11.293Z</time></trkpt><trkpt lat="42.2395837" lon="13.9510451"><ele>202.0</ele><time>2026-05-03T11:03:12.308Z</time></trkpt><trkpt lat="42.2396627" lon="13.9509167"><ele>202.0</ele><time>2026-05-03T11:03:13.287Z</time></trkpt><trkpt lat="42.2397578" lon="13.9508146"><ele>202.0</ele><time>2026-05-03T11:03:14.309Z</time></trkpt><trkpt lat="42.2399131" lon="13.9507432"><ele>200.0</ele><time>2026-05-03T11:03:15.295Z</time></trkpt><trkpt lat="42.2400835" lon="13.9506838"><ele>198.0</ele><time>2026-05-03T11:03:16.303Z</time></trkpt><trkpt lat="42.2402412" lon="13.9506418"><ele>196.0</ele><time>2026-05-03T11:03:17.299Z</time></trkpt><trkpt lat="42.2404044" lon="13.9506214"><ele>196.0</ele><time>2026-05-03T11:03:18.301Z</time></trkpt><trkpt lat="42.2405804" lon="13.9506482"><ele>196.0</ele><time>2026-05-03T11:03:19.302Z</time></trkpt><trkpt lat="42.2407629" lon="13.9506967"><ele>196.0</ele><time>2026-05-03T11:03:20.305Z</time></trkpt><trkpt lat="42.2409577" lon="13.9507569"><ele>195.33333333333331</ele><time>2026-05-03T11:03:21.302Z</time></trkpt><trkpt lat="42.2411403" lon="13.9508429"><ele>194.66666666666669</ele><time>2026-05-03T11:03:22.303Z</time></trkpt><trkpt lat="42.2413211" lon="13.9509313"><ele>194.0</ele><time>2026-05-03T11:03:23.31Z</time></trkpt><trkpt lat="42.2414995" lon="13.9509946"><ele>193.33333333333334</ele><time>2026-05-03T11:03:24.315Z</time></trkpt><trkpt lat="42.241668" lon="13.9510718"><ele>192.66666666666669</ele><time>2026-05-03T11:03:25.32Z</time></trkpt><trkpt lat="42.2418365" lon="13.9511325"><ele>192.0</ele><time>2026-05-03T11:03:26.309Z</time></trkpt><trkpt lat="42.2420075" lon="13.9511812"><ele>192.0</ele><time>2026-05-03T11:03:27.31Z</time></trkpt><trkpt lat="42.2421754" lon="13.9512178"><ele>192.0</ele><time>2026-05-03T11:03:28.307Z</time></trkpt><trkpt lat="42.2423382" lon="13.9512385"><ele>192.0</ele><time>2026-05-03T11:03:29.306Z</time></trkpt><trkpt lat="42.2425034" lon="13.9512361"><ele>189.66666666666666</ele><time>2026-05-03T11:03:30.298Z</time></trkpt><trkpt lat="42.2426703" lon="13.951202"><ele>187.33333333333331</ele><time>2026-05-03T11:03:31.302Z</time></trkpt><trkpt lat="42.2428339" lon="13.9511375"><ele>185.0</ele><time>2026-05-03T11:03:32.31Z</time></trkpt><trkpt lat="42.2430001" lon="13.9510687"><ele>184.33333333333331</ele><time>2026-05-03T11:03:33.315Z</time></trkpt><trkpt lat="42.2431747" lon="13.9509913"><ele>183.66666666666666</ele><time>2026-05-03T11:03:34.313Z</time></trkpt><trkpt lat="42.2433497" lon="13.9509143"><ele>183.0</ele><time>2026-05-03T11:03:35.306Z</time></trkpt><trkpt lat="42.2435331" lon="13.9508281"><ele>179.33333333333334</ele><time>2026-05-03T11:03:36.308Z</time></trkpt><trkpt lat="42.2437019" lon="13.9507548"><ele>175.66666666666669</ele><time>2026-05-03T11:03:37.312Z</time></trkpt><trkpt lat="42.2438646" lon="13.950684"><ele>172.0</ele><time>2026-05-03T11:03:38.308Z</time></trkpt><trkpt lat="42.2440339" lon="13.9506353"><ele>170.66666666666669</ele><time>2026-05-03T11:03:39.302Z</time></trkpt><trkpt lat="42.244207" lon="13.9506064"><ele>169.33333333333334</ele><time>2026-05-03T11:03:40.308Z</time></trkpt><trkpt lat="42.2443904" lon="13.9505942"><ele>168.0</ele><time>2026-05-03T11:03:41.314Z</time></trkpt><trkpt lat="42.2445689" lon="13.9505968"><ele>168.0</ele><time>2026-05-03T11:03:42.31Z</time></trkpt><trkpt lat="42.2447455" lon="13.950602"><ele>168.0</ele><time>2026-05-03T11:03:43.318Z</time></trkpt><trkpt lat="42.2449163" lon="13.9506142"><ele>168.0</ele><time>2026-05-03T11:03:44.317Z</time></trkpt><trkpt lat="42.245082" lon="13.9506421"><ele>165.66666666666666</ele><time>2026-05-03T11:03:45.313Z</time></trkpt><trkpt lat="42.2452405" lon="13.9506959"><ele>163.33333333333331</ele><time>2026-05-03T11:03:46.312Z</time></trkpt><trkpt lat="42.2454043" lon="13.9507748"><ele>161.0</ele><time>2026-05-03T11:03:47.314Z</time></trkpt><trkpt lat="42.2455748" lon="13.9508589"><ele>158.66666666666666</ele><time>2026-05-03T11:03:48.318Z</time></trkpt><trkpt lat="42.2457218" lon="13.9509541"><ele>156.33333333333334</ele><time>2026-05-03T11:03:49.311Z</time></trkpt><trkpt lat="42.2458592" lon="13.9510597"><ele>154.0</ele><time>2026-05-03T11:03:50.308Z</time></trkpt><trkpt lat="42.2459816" lon="13.9511916"><ele>154.0</ele><time>2026-05-03T11:03:51.305Z</time></trkpt><trkpt lat="42.2460899" lon="13.9513538"><ele>154.0</ele><time>2026-05-03T11:03:52.305Z</time></trkpt><trkpt lat="42.246204" lon="13.951528"><ele>154.0</ele><time>2026-05-03T11:03:53.315Z</time></trkpt><trkpt lat="42.2463335" lon="13.9516945"><ele>154.25</ele><time>2026-05-03T11:03:54.322Z</time></trkpt><trkpt lat="42.2464409" lon="13.9518473"><ele>154.5</ele><time>2026-05-03T11:03:55.311Z</time></trkpt><trkpt lat="42.2465487" lon="13.9519767"><ele>154.75</ele><time>2026-05-03T11:03:56.316Z</time></trkpt><trkpt lat="42.2466748" lon="13.9520644"><ele>155.0</ele><time>2026-05-03T11:03:57.306Z</time></trkpt><trkpt lat="42.2468217" lon="13.952114"><ele>151.66666666666666</ele><time>2026-05-03T11:03:58.306Z</time></trkpt><trkpt lat="42.2469672" lon="13.9521137"><ele>148.33333333333334</ele><time>2026-05-03T11:03:59.296Z</time></trkpt><trkpt lat="42.2471305" lon="13.9521006"><ele>145.0</ele><time>2026-05-03T11:04:00.3Z</time></trkpt><trkpt lat="42.2472912" lon="13.9520747"><ele>143.33333333333334</ele><time>2026-05-03T11:04:01.304Z</time></trkpt><trkpt lat="42.2474545" lon="13.9520478"><ele>141.66666666666666</ele><time>2026-05-03T11:04:02.305Z</time></trkpt><trkpt lat="42.2476282" lon="13.952032"><ele>140.0</ele><time>2026-05-03T11:04:03.305Z</time></trkpt><trkpt lat="42.2477979" lon="13.9520236"><ele>140.0</ele><time>2026-05-03T11:04:04.306Z</time></trkpt><trkpt lat="42.2479563" lon="13.951992"><ele>140.0</ele><time>2026-05-03T11:04:05.309Z</time></trkpt><trkpt lat="42.2481313" lon="13.9519835"><ele>140.0</ele><time>2026-05-03T11:04:06.304Z</time></trkpt><trkpt lat="42.2483022" lon="13.951967"><ele>139.33333333333331</ele><time>2026-05-03T11:04:07.306Z</time></trkpt><trkpt lat="42.2484694" lon="13.9519524"><ele>138.66666666666666</ele><time>2026-05-03T11:04:08.308Z</time></trkpt><trkpt lat="42.2486401" lon="13.9519411"><ele>138.0</ele><time>2026-05-03T11:04:09.309Z</time></trkpt><trkpt lat="42.248804" lon="13.9519225"><ele>139.0</ele><time>2026-05-03T11:04:10.309Z</time></trkpt><trkpt lat="42.2489707" lon="13.9518962"><ele>140.0</ele><time>2026-05-03T11:04:11.309Z</time></trkpt><trkpt lat="42.2491368" lon="13.9518816"><ele>141.0</ele><time>2026-05-03T11:04:12.307Z</time></trkpt><trkpt lat="42.2492968" lon="13.9518497"><ele>141.0</ele><time>2026-05-03T11:04:13.306Z</time></trkpt><trkpt lat="42.2494501" lon="13.9518283"><ele>141.0</ele><time>2026-05-03T11:04:14.3Z</time></trkpt><trkpt lat="42.2495999" lon="13.9518206"><ele>141.0</ele><time>2026-05-03T11:04:15.309Z</time></trkpt><trkpt lat="42.2497534" lon="13.9518093"><ele>140.0</ele><time>2026-05-03T11:04:16.318Z</time></trkpt><trkpt lat="42.2499139" lon="13.9517943"><ele>139.0</ele><time>2026-05-03T11:04:17.307Z</time></trkpt><trkpt lat="42.2500809" lon="13.95178"><ele>138.0</ele><time>2026-05-03T11:04:18.308Z</time></trkpt><trkpt lat="42.2502434" lon="13.9517545"><ele>138.0</ele><time>2026-05-03T11:04:19.306Z</time></trkpt><trkpt lat="42.250403" lon="13.9517403"><ele>138.0</ele><time>2026-05-03T11:04:20.306Z</time></trkpt><trkpt lat="42.2505415" lon="13.9517168"><ele>138.0</ele><time>2026-05-03T11:04:21.304Z</time></trkpt><trkpt lat="42.2506765" lon="13.9517063"><ele>138.0</ele><time>2026-05-03T11:04:22.306Z</time></trkpt><trkpt lat="42.250807" lon="13.9517012"><ele>137.75</ele><time>2026-05-03T11:04:23.307Z</time></trkpt><trkpt lat="42.2509481" lon="13.9516798"><ele>137.5</ele><time>2026-05-03T11:04:24.315Z</time></trkpt><trkpt lat="42.2510872" lon="13.9516606"><ele>137.25</ele><time>2026-05-03T11:04:25.307Z</time></trkpt><trkpt lat="42.2512192" lon="13.9516586"><ele>137.0</ele><time>2026-05-03T11:04:26.312Z</time></trkpt><trkpt lat="42.2513466" lon="13.9516826"><ele>136.0</ele><time>2026-05-03T11:04:27.316Z</time></trkpt><trkpt lat="42.2514644" lon="13.9517213"><ele>135.0</ele><time>2026-05-03T11:04:28.313Z</time></trkpt><trkpt lat="42.2515608" lon="13.9517471"><ele>134.0</ele><time>2026-05-03T11:04:29.308Z</time></trkpt><trkpt lat="42.2516586" lon="13.9517688"><ele>133.0</ele><time>2026-05-03T11:04:30.304Z</time></trkpt><trkpt lat="42.2517466" lon="13.9517852"><ele>132.0</ele><time>2026-05-03T11:04:31.304Z</time></trkpt><trkpt lat="42.2518289" lon="13.9518022"><ele>132.0</ele><time>2026-05-03T11:04:32.304Z</time></trkpt><trkpt lat="42.2519078" lon="13.951814"><ele>132.0</ele><time>2026-05-03T11:04:33.307Z</time></trkpt><trkpt lat="42.2519839" lon="13.9518369"><ele>132.0</ele><time>2026-05-03T11:04:34.301Z</time></trkpt><trkpt lat="42.2520469" lon="13.9518578"><ele>132.0</ele><time>2026-05-03T11:04:35.306Z</time></trkpt><trkpt lat="42.2521373" lon="13.9518585"><ele>132.0</ele><time>2026-05-03T11:04:37.301Z</time></trkpt><trkpt lat="42.2522029" lon="13.95183"><ele>132.0</ele><time>2026-05-03T11:05:41.29Z</time></trkpt><trkpt lat="42.2522813" lon="13.9518282"><ele>131.4</ele><time>2026-05-03T11:05:43.288Z</time></trkpt><trkpt lat="42.2523927" lon="13.9518341"><ele>130.79999999999998</ele><time>2026-05-03T11:05:46.298Z</time></trkpt><trkpt lat="42.2525052" lon="13.9518566"><ele>130.2</ele><time>2026-05-03T11:05:48.295Z</time></trkpt><trkpt lat="42.2525766" lon="13.9518701"><ele>129.6</ele><time>2026-05-03T11:05:49.302Z</time></trkpt><trkpt lat="42.2526568" lon="13.9518873"><ele>129.0</ele><time>2026-05-03T11:05:50.298Z</time></trkpt><trkpt lat="42.2527368" lon="13.9519078"><ele>129.0</ele><time>2026-05-03T11:05:51.298Z</time></trkpt><trkpt lat="42.2528065" lon="13.9519282"><ele>129.0</ele><time>2026-05-03T11:05:52.296Z</time></trkpt><trkpt lat="42.2528809" lon="13.9519411"><ele>129.0</ele><time>2026-05-03T11:05:53.296Z</time></trkpt><trkpt lat="42.2529585" lon="13.9519643"><ele>129.0</ele><time>2026-05-03T11:05:54.301Z</time></trkpt><trkpt lat="42.2530331" lon="13.9519804"><ele>129.0</ele><time>2026-05-03T11:05:55.297Z</time></trkpt><trkpt lat="42.2531061" lon="13.9519969"><ele>129.0</ele><time>2026-05-03T11:05:56.295Z</time></trkpt><trkpt lat="42.253182" lon="13.9520133"><ele>129.4</ele><time>2026-05-03T11:05:57.293Z</time></trkpt><trkpt lat="42.2532534" lon="13.9520294"><ele>129.8</ele><time>2026-05-03T11:05:58.3Z</time></trkpt><trkpt lat="42.2533282" lon="13.9520511"><ele>130.2</ele><time>2026-05-03T11:05:59.293Z</time></trkpt><trkpt lat="42.2534172" lon="13.9520605"><ele>130.6</ele><time>2026-05-03T11:06:00.295Z</time></trkpt><trkpt lat="42.2535254" lon="13.9520525"><ele>131.0</ele><time>2026-05-03T11:06:01.295Z</time></trkpt><trkpt lat="42.2536376" lon="13.9520212"><ele>131.0</ele><time>2026-05-03T11:06:02.293Z</time></trkpt><trkpt lat="42.253752" lon="13.9519702"><ele>131.0</ele><time>2026-05-03T11:06:03.291Z</time></trkpt><trkpt lat="42.2538621" lon="13.9519205"><ele>131.0</ele><time>2026-05-03T11:06:04.295Z</time></trkpt><trkpt lat="42.25397" lon="13.9518705"><ele>131.0</ele><time>2026-05-03T11:06:05.292Z</time></trkpt><trkpt lat="42.2540808" lon="13.9518267"><ele>132.25</ele><time>2026-05-03T11:06:06.293Z</time></trkpt><trkpt lat="42.254208" lon="13.9517902"><ele>133.5</ele><time>2026-05-03T11:06:07.288Z</time></trkpt><trkpt lat="42.2543415" lon="13.951744"><ele>134.75</ele><time>2026-05-03T11:06:08.282Z</time></trkpt><trkpt lat="42.2544867" lon="13.951697"><ele>136.0</ele><time>2026-05-03T11:06:09.291Z</time></trkpt><trkpt lat="42.254613" lon="13.9516554"><ele>136.0</ele><time>2026-05-03T11:06:10.287Z</time></trkpt><trkpt lat="42.2547258" lon="13.9516057"><ele>136.0</ele><time>2026-05-03T11:06:11.286Z</time></trkpt><trkpt lat="42.2548582" lon="13.9515938"><ele>136.0</ele><time>2026-05-03T11:06:12.291Z</time></trkpt><trkpt lat="42.254985" lon="13.9515795"><ele>136.0</ele><time>2026-05-03T11:06:13.287Z</time></trkpt><trkpt lat="42.2551077" lon="13.9515444"><ele>137.25</ele><time>2026-05-03T11:06:14.286Z</time></trkpt><trkpt lat="42.2552416" lon="13.9515087"><ele>138.5</ele><time>2026-05-03T11:06:15.29Z</time></trkpt><trkpt lat="42.255366" lon="13.951477"><ele>139.75</ele><time>2026-05-03T11:06:16.29Z</time></trkpt><trkpt lat="42.2554917" lon="13.9514367"><ele>141.0</ele><time>2026-05-03T11:06:17.3Z</time></trkpt><trkpt lat="42.2556262" lon="13.9513885"><ele>141.5</ele><time>2026-05-03T11:06:18.295Z</time></trkpt><trkpt lat="42.2557643" lon="13.9513476"><ele>142.0</ele><time>2026-05-03T11:06:19.288Z</time></trkpt><trkpt lat="42.255898" lon="13.9513088"><ele>142.5</ele><time>2026-05-03T11:06:20.293Z</time></trkpt><trkpt lat="42.2560403" lon="13.9512664"><ele>143.0</ele><time>2026-05-03T11:06:21.294Z</time></trkpt><trkpt lat="42.2561683" lon="13.9512056"><ele>143.0</ele><time>2026-05-03T11:06:22.295Z</time></trkpt><trkpt lat="42.2563035" lon="13.9511899"><ele>143.0</ele><time>2026-05-03T11:06:23.297Z</time></trkpt><trkpt lat="42.2564321" lon="13.9511532"><ele>143.0</ele><time>2026-05-03T11:06:24.293Z</time></trkpt><trkpt lat="42.2565614" lon="13.9511302"><ele>143.0</ele><time>2026-05-03T11:06:25.293Z</time></trkpt><trkpt lat="42.256695" lon="13.9511132"><ele>143.25</ele><time>2026-05-03T11:06:26.294Z</time></trkpt><trkpt lat="42.2568312" lon="13.9511218"><ele>143.5</ele><time>2026-05-03T11:06:27.295Z</time></trkpt><trkpt lat="42.2569599" lon="13.9511287"><ele>143.75</ele><time>2026-05-03T11:06:28.299Z</time></trkpt><trkpt lat="42.2571009" lon="13.9511427"><ele>144.0</ele><time>2026-05-03T11:06:29.293Z</time></trkpt><trkpt lat="42.2572482" lon="13.9511458"><ele>143.75</ele><time>2026-05-03T11:06:30.29Z</time></trkpt><trkpt lat="42.2573923" lon="13.9511514"><ele>143.5</ele><time>2026-05-03T11:06:31.306Z</time></trkpt><trkpt lat="42.2575368" lon="13.951157"><ele>143.25</ele><time>2026-05-03T11:06:32.299Z</time></trkpt><trkpt lat="42.2576802" lon="13.9511612"><ele>143.0</ele><time>2026-05-03T11:06:33.295Z</time></trkpt><trkpt lat="42.2578308" lon="13.9511625"><ele>143.0</ele><time>2026-05-03T11:06:34.301Z</time></trkpt><trkpt lat="42.2579804" lon="13.951191"><ele>143.0</ele><time>2026-05-03T11:06:35.297Z</time></trkpt><trkpt lat="42.2581286" lon="13.9512309"><ele>143.0</ele><time>2026-05-03T11:06:36.297Z</time></trkpt><trkpt lat="42.2582773" lon="13.9512738"><ele>143.66666666666666</ele><time>2026-05-03T11:06:37.3Z</time></trkpt><trkpt lat="42.258425" lon="13.9513191"><ele>144.33333333333334</ele><time>2026-05-03T11:06:38.297Z</time></trkpt><trkpt lat="42.2585732" lon="13.9513773"><ele>145.0</ele><time>2026-05-03T11:06:39.298Z</time></trkpt><trkpt lat="42.2587162" lon="13.9514481"><ele>145.0</ele><time>2026-05-03T11:06:40.298Z</time></trkpt><trkpt lat="42.2588605" lon="13.9515129"><ele>145.0</ele><time>2026-05-03T11:06:41.297Z</time></trkpt><trkpt lat="42.2590113" lon="13.9515891"><ele>145.0</ele><time>2026-05-03T11:06:42.297Z</time></trkpt><trkpt lat="42.2591481" lon="13.9516701"><ele>146.0</ele><time>2026-05-03T11:06:43.3Z</time></trkpt><trkpt lat="42.259294" lon="13.951769"><ele>147.0</ele><time>2026-05-03T11:06:44.299Z</time></trkpt><trkpt lat="42.2594272" lon="13.9518928"><ele>148.0</ele><time>2026-05-03T11:06:45.299Z</time></trkpt><trkpt lat="42.2595596" lon="13.9520178"><ele>148.0</ele><time>2026-05-03T11:06:46.295Z</time></trkpt><trkpt lat="42.2596798" lon="13.95216"><ele>148.0</ele><time>2026-05-03T11:06:47.299Z</time></trkpt><trkpt lat="42.259802" lon="13.9523073"><ele>148.0</ele><time>2026-05-03T11:06:48.299Z</time></trkpt><trkpt lat="42.2599258" lon="13.9524635"><ele>147.66666666666669</ele><time>2026-05-03T11:06:49.298Z</time></trkpt><trkpt lat="42.2600395" lon="13.952637"><ele>147.33333333333334</ele><time>2026-05-03T11:06:50.296Z</time></trkpt><trkpt lat="42.2601471" lon="13.9528064"><ele>147.0</ele><time>2026-05-03T11:06:51.301Z</time></trkpt><trkpt lat="42.2602508" lon="13.9529955"><ele>147.0</ele><time>2026-05-03T11:06:52.299Z</time></trkpt><trkpt lat="42.260348" lon="13.9531793"><ele>147.0</ele><time>2026-05-03T11:06:53.305Z</time></trkpt><trkpt lat="42.2604306" lon="13.953376"><ele>147.0</ele><time>2026-05-03T11:06:54.305Z</time></trkpt><trkpt lat="42.2605157" lon="13.9535766"><ele>149.0</ele><time>2026-05-03T11:06:55.301Z</time></trkpt><trkpt lat="42.2605865" lon="13.9537892"><ele>151.0</ele><time>2026-05-03T11:06:56.298Z</time></trkpt><trkpt lat="42.2606628" lon="13.9540103"><ele>153.0</ele><time>2026-05-03T11:06:57.297Z</time></trkpt><trkpt lat="42.2607219" lon="13.9542494"><ele>148.0</ele><time>2026-05-03T11:06:58.298Z</time></trkpt><trkpt lat="42.2607706" lon="13.9544762"><ele>143.0</ele><time>2026-05-03T11:06:59.292Z</time></trkpt><trkpt lat="42.2608182" lon="13.9546976"><ele>138.0</ele><time>2026-05-03T11:07:00.301Z</time></trkpt><trkpt lat="42.2608597" lon="13.9549162"><ele>138.0</ele><time>2026-05-03T11:07:01.294Z</time></trkpt><trkpt lat="42.2609116" lon="13.9551355"><ele>138.0</ele><time>2026-05-03T11:07:02.305Z</time></trkpt><trkpt lat="42.2609575" lon="13.9553556"><ele>138.0</ele><time>2026-05-03T11:07:03.294Z</time></trkpt><trkpt lat="42.2610019" lon="13.9555564"><ele>138.0</ele><time>2026-05-03T11:07:04.295Z</time></trkpt><trkpt lat="42.2610434" lon="13.9557308"><ele>138.0</ele><time>2026-05-03T11:07:05.287Z</time></trkpt><trkpt lat="42.2610772" lon="13.9558913"><ele>138.0</ele><time>2026-05-03T11:07:06.292Z</time></trkpt><trkpt lat="42.2611085" lon="13.9560406"><ele>138.0</ele><time>2026-05-03T11:07:07.294Z</time></trkpt><trkpt lat="42.2611288" lon="13.9561809"><ele>138.33333333333334</ele><time>2026-05-03T11:07:08.294Z</time></trkpt><trkpt lat="42.2611527" lon="13.9563014"><ele>138.66666666666666</ele><time>2026-05-03T11:07:09.296Z</time></trkpt><trkpt lat="42.2611789" lon="13.9564175"><ele>139.0</ele><time>2026-05-03T11:07:10.296Z</time></trkpt><trkpt lat="42.2611985" lon="13.9565218"><ele>139.33333333333331</ele><time>2026-05-03T11:07:11.297Z</time></trkpt><trkpt lat="42.2612208" lon="13.9566166"><ele>139.66666666666666</ele><time>2026-05-03T11:07:12.297Z</time></trkpt><trkpt lat="42.2612439" lon="13.9567053"><ele>140.0</ele><time>2026-05-03T11:07:13.297Z</time></trkpt><trkpt lat="42.2612882" lon="13.9568593"><ele>141.2</ele><time>2026-05-03T11:07:15.294Z</time></trkpt><trkpt lat="42.2612652" lon="13.9569944"><ele>142.4</ele><time>2026-05-03T11:07:17.292Z</time></trkpt><trkpt lat="42.2611551" lon="13.9570851"><ele>143.6</ele><time>2026-05-03T11:07:19.293Z</time></trkpt><trkpt lat="42.2610875" lon="13.9571267"><ele>144.8</ele><time>2026-05-03T11:07:20.295Z</time></trkpt><trkpt lat="42.2610109" lon="13.9571818"><ele>146.0</ele><time>2026-05-03T11:07:21.293Z</time></trkpt><trkpt lat="42.2609206" lon="13.957253"><ele>146.0</ele><time>2026-05-03T11:07:22.302Z</time></trkpt><trkpt lat="42.2608181" lon="13.9573264"><ele>146.0</ele><time>2026-05-03T11:07:23.297Z</time></trkpt><trkpt lat="42.260701" lon="13.9573922"><ele>146.0</ele><time>2026-05-03T11:07:24.303Z</time></trkpt><trkpt lat="42.2605826" lon="13.9574491"><ele>146.0</ele><time>2026-05-03T11:07:25.297Z</time></trkpt><trkpt lat="42.2604724" lon="13.9575011"><ele>149.5</ele><time>2026-05-03T11:07:26.298Z</time></trkpt><trkpt lat="42.2603641" lon="13.9575501"><ele>153.0</ele><time>2026-05-03T11:07:27.299Z</time></trkpt><trkpt lat="42.2602555" lon="13.9576075"><ele>156.5</ele><time>2026-05-03T11:07:28.302Z</time></trkpt><trkpt lat="42.2601485" lon="13.9576688"><ele>160.0</ele><time>2026-05-03T11:07:29.304Z</time></trkpt><trkpt lat="42.2600472" lon="13.957731"><ele>160.0</ele><time>2026-05-03T11:07:30.3Z</time></trkpt><trkpt lat="42.2599467" lon="13.9577987"><ele>160.0</ele><time>2026-05-03T11:07:31.303Z</time></trkpt><trkpt lat="42.2598505" lon="13.9578716"><ele>160.0</ele><time>2026-05-03T11:07:32.298Z</time></trkpt><trkpt lat="42.2597498" lon="13.9579487"><ele>160.0</ele><time>2026-05-03T11:07:33.303Z</time></trkpt><trkpt lat="42.2596546" lon="13.958022"><ele>160.0</ele><time>2026-05-03T11:07:34.298Z</time></trkpt><trkpt lat="42.2595599" lon="13.9580915"><ele>161.6</ele><time>2026-05-03T11:07:35.296Z</time></trkpt><trkpt lat="42.2594593" lon="13.9581677"><ele>163.2</ele><time>2026-05-03T11:07:36.296Z</time></trkpt><trkpt lat="42.2593602" lon="13.9582415"><ele>164.8</ele><time>2026-05-03T11:07:37.297Z</time></trkpt><trkpt lat="42.2592663" lon="13.9583161"><ele>166.4</ele><time>2026-05-03T11:07:38.3Z</time></trkpt><trkpt lat="42.2591702" lon="13.958387"><ele>168.0</ele><time>2026-05-03T11:07:39.299Z</time></trkpt><trkpt lat="42.2590817" lon="13.9584529"><ele>169.2</ele><time>2026-05-03T11:07:40.297Z</time></trkpt><trkpt lat="42.2589894" lon="13.958516"><ele>170.4</ele><time>2026-05-03T11:07:41.296Z</time></trkpt><trkpt lat="42.2588915" lon="13.9585764"><ele>171.6</ele><time>2026-05-03T11:07:42.299Z</time></trkpt><trkpt lat="42.2587975" lon="13.9586288"><ele>172.79999999999998</ele><time>2026-05-03T11:07:43.303Z</time></trkpt><trkpt lat="42.2586983" lon="13.9586834"><ele>174.0</ele><time>2026-05-03T11:07:44.305Z</time></trkpt><trkpt lat="42.2585953" lon="13.958734"><ele>175.79999999999998</ele><time>2026-05-03T11:07:45.308Z</time></trkpt><trkpt lat="42.2584881" lon="13.958794"><ele>177.6</ele><time>2026-05-03T11:07:46.304Z</time></trkpt><trkpt lat="42.258391" lon="13.9588504"><ele>179.4</ele><time>2026-05-03T11:07:47.306Z</time></trkpt><trkpt lat="42.2582892" lon="13.9589168"><ele>181.2</ele><time>2026-05-03T11:07:48.303Z</time></trkpt><trkpt lat="42.2581875" lon="13.9589769"><ele>183.0</ele><time>2026-05-03T11:07:49.298Z</time></trkpt><trkpt lat="42.2580779" lon="13.9590477"><ele>185.4</ele><time>2026-05-03T11:07:50.305Z</time></trkpt><trkpt lat="42.2579676" lon="13.9591141"><ele>187.8</ele><time>2026-05-03T11:07:51.307Z</time></trkpt><trkpt lat="42.257861" lon="13.9591718"><ele>190.2</ele><time>2026-05-03T11:07:52.302Z</time></trkpt><trkpt lat="42.2577626" lon="13.9592313"><ele>192.6</ele><time>2026-05-03T11:07:53.306Z</time></trkpt><trkpt lat="42.2576704" lon="13.9592837"><ele>195.0</ele><time>2026-05-03T11:07:54.302Z</time></trkpt><trkpt lat="42.2575834" lon="13.9593333"><ele>195.6</ele><time>2026-05-03T11:07:55.299Z</time></trkpt><trkpt lat="42.2574968" lon="13.9593891"><ele>196.2</ele><time>2026-05-03T11:07:56.302Z</time></trkpt><trkpt lat="42.2574115" lon="13.9594409"><ele>196.8</ele><time>2026-05-03T11:07:57.301Z</time></trkpt><trkpt lat="42.2573306" lon="13.9594922"><ele>197.4</ele><time>2026-05-03T11:07:58.311Z</time></trkpt><trkpt lat="42.2572509" lon="13.9595367"><ele>198.0</ele><time>2026-05-03T11:07:59.307Z</time></trkpt><trkpt lat="42.2571708" lon="13.9595757"><ele>198.0</ele><time>2026-05-03T11:08:00.309Z</time></trkpt><trkpt lat="42.2570959" lon="13.9596044"><ele>198.0</ele><time>2026-05-03T11:08:01.31Z</time></trkpt><trkpt lat="42.2570365" lon="13.9596398"><ele>198.0</ele><time>2026-05-03T11:08:02.307Z</time></trkpt><trkpt lat="42.2569817" lon="13.959686"><ele>198.0</ele><time>2026-05-03T11:08:03.291Z</time></trkpt><trkpt lat="42.2569346" lon="13.9598286"><ele>198.0</ele><time>2026-05-03T11:08:05.293Z</time></trkpt><trkpt lat="42.2569835" lon="13.9599942"><ele>197.60000000000002</ele><time>2026-05-03T11:08:07.296Z</time></trkpt><trkpt lat="42.2570281" lon="13.9600803"><ele>197.20000000000002</ele><time>2026-05-03T11:08:08.299Z</time></trkpt><trkpt lat="42.2570742" lon="13.9601651"><ele>196.8</ele><time>2026-05-03T11:08:09.299Z</time></trkpt><trkpt lat="42.257113" lon="13.9602714"><ele>196.4</ele><time>2026-05-03T11:08:10.305Z</time></trkpt><trkpt lat="42.2571539" lon="13.9603913"><ele>196.0</ele><time>2026-05-03T11:08:11.303Z</time></trkpt><trkpt lat="42.2572036" lon="13.9605217"><ele>196.0</ele><time>2026-05-03T11:08:12.302Z</time></trkpt><trkpt lat="42.257247" lon="13.9606562"><ele>196.0</ele><time>2026-05-03T11:08:13.303Z</time></trkpt><trkpt lat="42.2572906" lon="13.9607801"><ele>196.0</ele><time>2026-05-03T11:08:14.306Z</time></trkpt><trkpt lat="42.2573451" lon="13.9609113"><ele>196.0</ele><time>2026-05-03T11:08:15.303Z</time></trkpt><trkpt lat="42.2573971" lon="13.9610393"><ele>196.0</ele><time>2026-05-03T11:08:16.302Z</time></trkpt><trkpt lat="42.2574486" lon="13.961172"><ele>196.75</ele><time>2026-05-03T11:08:17.299Z</time></trkpt><trkpt lat="42.2574937" lon="13.9613068"><ele>197.5</ele><time>2026-05-03T11:08:18.299Z</time></trkpt><trkpt lat="42.2575453" lon="13.9614454"><ele>198.25</ele><time>2026-05-03T11:08:19.299Z</time></trkpt><trkpt lat="42.2575971" lon="13.9615893"><ele>199.0</ele><time>2026-05-03T11:08:20.299Z</time></trkpt><trkpt lat="42.2576532" lon="13.9617342"><ele>199.0</ele><time>2026-05-03T11:08:21.299Z</time></trkpt><trkpt lat="42.2577073" lon="13.961877"><ele>199.0</ele><time>2026-05-03T11:08:22.302Z</time></trkpt><trkpt lat="42.2577606" lon="13.9620094"><ele>199.0</ele><time>2026-05-03T11:08:23.298Z</time></trkpt><trkpt lat="42.2578136" lon="13.9621354"><ele>199.0</ele><time>2026-05-03T11:08:24.306Z</time></trkpt><trkpt lat="42.2578693" lon="13.9622628"><ele>199.0</ele><time>2026-05-03T11:08:25.301Z</time></trkpt><trkpt lat="42.2579178" lon="13.962392"><ele>199.0</ele><time>2026-05-03T11:08:26.304Z</time></trkpt><trkpt lat="42.2579608" lon="13.9625059"><ele>199.0</ele><time>2026-05-03T11:08:27.3Z</time></trkpt><trkpt lat="42.2580095" lon="13.9626228"><ele>199.0</ele><time>2026-05-03T11:08:28.303Z</time></trkpt><trkpt lat="42.2580547" lon="13.9627465"><ele>199.0</ele><time>2026-05-03T11:08:29.302Z</time></trkpt><trkpt lat="42.2581079" lon="13.9628659"><ele>199.0</ele><time>2026-05-03T11:08:30.299Z</time></trkpt><trkpt lat="42.2581616" lon="13.9629928"><ele>200.0</ele><time>2026-05-03T11:08:31.305Z</time></trkpt><trkpt lat="42.2582155" lon="13.9631125"><ele>201.0</ele><time>2026-05-03T11:08:32.304Z</time></trkpt><trkpt lat="42.2582732" lon="13.9632318"><ele>202.0</ele><time>2026-05-03T11:08:33.299Z</time></trkpt><trkpt lat="42.2583167" lon="13.9633438"><ele>203.0</ele><time>2026-05-03T11:08:34.302Z</time></trkpt><trkpt lat="42.258348" lon="13.9634521"><ele>204.0</ele><time>2026-05-03T11:08:35.308Z</time></trkpt><trkpt lat="42.2583772" lon="13.963555"><ele>204.16666666666666</ele><time>2026-05-03T11:08:36.296Z</time></trkpt><trkpt lat="42.2584047" lon="13.9636321"><ele>204.33333333333331</ele><time>2026-05-03T11:08:37.298Z</time></trkpt><trkpt lat="42.258443" lon="13.9637474"><ele>204.5</ele><time>2026-05-03T11:08:39.298Z</time></trkpt><trkpt lat="42.2584604" lon="13.9638725"><ele>204.66666666666666</ele><time>2026-05-03T11:08:41.297Z</time></trkpt><trkpt lat="42.2584603" lon="13.963994"><ele>204.83333333333331</ele><time>2026-05-03T11:08:43.292Z</time></trkpt><trkpt lat="42.2584308" lon="13.9640697"><ele>205.0</ele><time>2026-05-03T11:08:45.304Z</time></trkpt><trkpt lat="42.2584319" lon="13.9641594"><ele>204.99999999999997</ele><time>2026-05-03T11:08:51.301Z</time></trkpt><trkpt lat="42.2584546" lon="13.9640232"><ele>205.0</ele><time>2026-05-03T11:08:55.301Z</time></trkpt><trkpt lat="42.258438" lon="13.9639165"><ele>205.0</ele><time>2026-05-03T11:08:57.299Z</time></trkpt><trkpt lat="42.2584296" lon="13.963813"><ele>205.0</ele><time>2026-05-03T11:08:59.295Z</time></trkpt><trkpt lat="42.2584736" lon="13.9637375"><ele>204.99999999999997</ele><time>2026-05-03T11:09:01.299Z</time></trkpt><trkpt lat="42.2585525" lon="13.9637599"><ele>205.0</ele><time>2026-05-03T11:09:03.283Z</time></trkpt><trkpt lat="42.258608" lon="13.9638962"><ele>204.99999999999997</ele><time>2026-05-03T11:09:05.299Z</time></trkpt><trkpt lat="42.2586299" lon="13.963979"><ele>205.0</ele><time>2026-05-03T11:09:06.305Z</time></trkpt><trkpt lat="42.2586585" lon="13.9640623"><ele>205.0</ele><time>2026-05-03T11:09:07.291Z</time></trkpt><trkpt lat="42.2587011" lon="13.9641618"><ele>205.0</ele><time>2026-05-03T11:09:08.295Z</time></trkpt><trkpt lat="42.2587497" lon="13.964267"><ele>204.99999999999997</ele><time>2026-05-03T11:09:09.298Z</time></trkpt><trkpt lat="42.2587988" lon="13.96437"><ele>205.0</ele><time>2026-05-03T11:09:10.297Z</time></trkpt><trkpt lat="42.2588527" lon="13.9644666"><ele>205.16666666666666</ele><time>2026-05-03T11:09:11.296Z</time></trkpt><trkpt lat="42.2588964" lon="13.9645598"><ele>205.33333333333331</ele><time>2026-05-03T11:09:12.296Z</time></trkpt><trkpt lat="42.258945" lon="13.9646464"><ele>205.5</ele><time>2026-05-03T11:09:13.297Z</time></trkpt><trkpt lat="42.2589917" lon="13.9647378"><ele>205.66666666666669</ele><time>2026-05-03T11:09:14.3Z</time></trkpt><trkpt lat="42.259035" lon="13.9648275"><ele>205.83333333333334</ele><time>2026-05-03T11:09:15.297Z</time></trkpt><trkpt lat="42.2590791" lon="13.9649136"><ele>206.0</ele><time>2026-05-03T11:09:16.298Z</time></trkpt><trkpt lat="42.2591231" lon="13.9649939"><ele>206.33333333333334</ele><time>2026-05-03T11:09:17.302Z</time></trkpt><trkpt lat="42.2591618" lon="13.9650757"><ele>206.66666666666669</ele><time>2026-05-03T11:09:18.299Z</time></trkpt><trkpt lat="42.2592047" lon="13.9651535"><ele>207.0</ele><time>2026-05-03T11:09:19.299Z</time></trkpt><trkpt lat="42.2592379" lon="13.9652372"><ele>207.33333333333331</ele><time>2026-05-03T11:09:20.301Z</time></trkpt><trkpt lat="42.2592738" lon="13.965315"><ele>207.66666666666666</ele><time>2026-05-03T11:09:21.3Z</time></trkpt><trkpt lat="42.2593183" lon="13.9653899"><ele>208.0</ele><time>2026-05-03T11:09:22.311Z</time></trkpt><trkpt lat="42.2593847" lon="13.9655183"><ele>208.0</ele><time>2026-05-03T11:09:24.313Z</time></trkpt><trkpt lat="42.2594266" lon="13.9656189"><ele>208.0</ele><time>2026-05-03T11:09:26.302Z</time></trkpt><trkpt lat="42.2594692" lon="13.9657093"><ele>208.0</ele><time>2026-05-03T11:09:28.309Z</time></trkpt><trkpt lat="42.2595015" lon="13.9657852"><ele>208.0</ele><time>2026-05-03T11:09:30.306Z</time></trkpt><trkpt lat="42.2595603" lon="13.9658292"><ele>208.0</ele><time>2026-05-03T11:09:33.301Z</time></trkpt><trkpt lat="42.2595836" lon="13.9659137"><ele>208.0</ele><time>2026-05-03T11:09:44.307Z</time></trkpt><trkpt lat="42.2596146" lon="13.96599"><ele>208.0</ele><time>2026-05-03T11:09:46.306Z</time></trkpt><trkpt lat="42.2596441" lon="13.9660684"><ele>208.33333333333331</ele><time>2026-05-03T11:09:48.301Z</time></trkpt><trkpt lat="42.2596492" lon="13.9661635"><ele>208.66666666666666</ele><time>2026-05-03T11:09:50.301Z</time></trkpt><trkpt lat="42.259617" lon="13.9662383"><ele>209.0</ele><time>2026-05-03T11:09:54.312Z</time></trkpt><trkpt lat="42.2595932" lon="13.9663424"><ele>209.33333333333331</ele><time>2026-05-03T11:10:10.302Z</time></trkpt><trkpt lat="42.2595702" lon="13.9664435"><ele>209.66666666666666</ele><time>2026-05-03T11:10:13.303Z</time></trkpt><trkpt lat="42.2596121" lon="13.9665889"><ele>210.0</ele><time>2026-05-03T11:10:16.297Z</time></trkpt><trkpt lat="42.2596149" lon="13.9667191"><ele>210.66666666666666</ele><time>2026-05-03T11:10:18.295Z</time></trkpt><trkpt lat="42.2595821" lon="13.9668237"><ele>211.33333333333331</ele><time>2026-05-03T11:10:20.305Z</time></trkpt><trkpt lat="42.2595733" lon="13.9669481"><ele>212.0</ele><time>2026-05-03T11:10:22.303Z</time></trkpt><trkpt lat="42.2596074" lon="13.9670284"><ele>212.66666666666666</ele><time>2026-05-03T11:10:23.289Z</time></trkpt><trkpt lat="42.259676" lon="13.9671633"><ele>213.33333333333331</ele><time>2026-05-03T11:10:25.299Z</time></trkpt><trkpt lat="42.2597099" lon="13.9672386"><ele>214.0</ele><time>2026-05-03T11:10:26.302Z</time></trkpt><trkpt lat="42.2597458" lon="13.9673237"><ele>213.99999999999997</ele><time>2026-05-03T11:10:27.298Z</time></trkpt><trkpt lat="42.2597805" lon="13.9674171"><ele>214.0</ele><time>2026-05-03T11:10:28.305Z</time></trkpt><trkpt lat="42.2598125" lon="13.9675176"><ele>214.0</ele><time>2026-05-03T11:10:29.303Z</time></trkpt><trkpt lat="42.2598406" lon="13.9676191"><ele>214.0</ele><time>2026-05-03T11:10:30.297Z</time></trkpt><trkpt lat="42.25987" lon="13.9677274"><ele>213.99999999999997</ele><time>2026-05-03T11:10:31.3Z</time></trkpt><trkpt lat="42.2598929" lon="13.9678272"><ele>214.0</ele><time>2026-05-03T11:10:32.295Z</time></trkpt><trkpt lat="42.2599111" lon="13.9679215"><ele>210.83333333333331</ele><time>2026-05-03T11:10:33.284Z</time></trkpt><trkpt lat="42.2599464" lon="13.9679963"><ele>207.66666666666666</ele><time>2026-05-03T11:10:34.289Z</time></trkpt><trkpt lat="42.2600005" lon="13.9680662"><ele>204.5</ele><time>2026-05-03T11:10:35.294Z</time></trkpt><trkpt lat="42.2600529" lon="13.9681564"><ele>201.33333333333331</ele><time>2026-05-03T11:10:36.292Z</time></trkpt><trkpt lat="42.260099" lon="13.9682571"><ele>198.16666666666666</ele><time>2026-05-03T11:10:37.294Z</time></trkpt><trkpt lat="42.2601366" lon="13.9683617"><ele>195.0</ele><time>2026-05-03T11:10:38.295Z</time></trkpt><trkpt lat="42.2601799" lon="13.9684672"><ele>194.83333333333334</ele><time>2026-05-03T11:10:39.302Z</time></trkpt><trkpt lat="42.2602157" lon="13.9685582"><ele>194.66666666666669</ele><time>2026-05-03T11:10:40.296Z</time></trkpt><trkpt lat="42.2602465" lon="13.968652"><ele>194.5</ele><time>2026-05-03T11:10:41.296Z</time></trkpt><trkpt lat="42.2602873" lon="13.9687551"><ele>194.33333333333334</ele><time>2026-05-03T11:10:42.292Z</time></trkpt><trkpt lat="42.2603338" lon="13.9688585"><ele>194.16666666666669</ele><time>2026-05-03T11:10:43.297Z</time></trkpt><trkpt lat="42.2603718" lon="13.9689668"><ele>194.0</ele><time>2026-05-03T11:10:44.295Z</time></trkpt><trkpt lat="42.2604106" lon="13.9690676"><ele>194.00000000000003</ele><time>2026-05-03T11:10:45.3Z</time></trkpt><trkpt lat="42.2604449" lon="13.9691672"><ele>194.0</ele><time>2026-05-03T11:10:46.299Z</time></trkpt><trkpt lat="42.2604834" lon="13.9692711"><ele>194.0</ele><time>2026-05-03T11:10:47.295Z</time></trkpt><trkpt lat="42.260513" lon="13.9693801"><ele>194.0</ele><time>2026-05-03T11:10:48.297Z</time></trkpt><trkpt lat="42.260552" lon="13.9694899"><ele>194.00000000000003</ele><time>2026-05-03T11:10:49.295Z</time></trkpt><trkpt lat="42.2605923" lon="13.9696068"><ele>194.0</ele><time>2026-05-03T11:10:50.297Z</time></trkpt><trkpt lat="42.2606356" lon="13.9697286"><ele>194.39999999999998</ele><time>2026-05-03T11:10:51.296Z</time></trkpt><trkpt lat="42.2606774" lon="13.9698481"><ele>194.8</ele><time>2026-05-03T11:10:52.295Z</time></trkpt><trkpt lat="42.2607216" lon="13.9699728"><ele>195.2</ele><time>2026-05-03T11:10:53.297Z</time></trkpt><trkpt lat="42.260762" lon="13.9700849"><ele>195.60000000000002</ele><time>2026-05-03T11:10:54.298Z</time></trkpt><trkpt lat="42.260807" lon="13.9702012"><ele>196.0</ele><time>2026-05-03T11:10:55.294Z</time></trkpt><trkpt lat="42.2608576" lon="13.9703064"><ele>195.99999999999997</ele><time>2026-05-03T11:10:56.29Z</time></trkpt><trkpt lat="42.2608921" lon="13.9703963"><ele>196.0</ele><time>2026-05-03T11:10:57.298Z</time></trkpt><trkpt lat="42.2609307" lon="13.970474"><ele>196.0</ele><time>2026-05-03T11:10:58.298Z</time></trkpt><trkpt lat="42.2609587" lon="13.9705631"><ele>196.0</ele><time>2026-05-03T11:10:59.298Z</time></trkpt><trkpt lat="42.2609872" lon="13.9706527"><ele>195.99999999999997</ele><time>2026-05-03T11:11:00.3Z</time></trkpt><trkpt lat="42.2610198" lon="13.9707505"><ele>196.0</ele><time>2026-05-03T11:11:01.303Z</time></trkpt><trkpt lat="42.2610609" lon="13.9708508"><ele>196.83333333333331</ele><time>2026-05-03T11:11:02.295Z</time></trkpt><trkpt lat="42.2611033" lon="13.9709521"><ele>197.66666666666666</ele><time>2026-05-03T11:11:03.297Z</time></trkpt><trkpt lat="42.2611437" lon="13.9710549"><ele>198.5</ele><time>2026-05-03T11:11:04.298Z</time></trkpt><trkpt lat="42.2611816" lon="13.97115"><ele>199.33333333333331</ele><time>2026-05-03T11:11:05.296Z</time></trkpt><trkpt lat="42.2612088" lon="13.9712547"><ele>200.16666666666666</ele><time>2026-05-03T11:11:06.295Z</time></trkpt><trkpt lat="42.2612204" lon="13.9713492"><ele>201.0</ele><time>2026-05-03T11:11:07.291Z</time></trkpt><trkpt lat="42.2612387" lon="13.9714337"><ele>201.0</ele><time>2026-05-03T11:11:08.295Z</time></trkpt><trkpt lat="42.2613139" lon="13.9715824"><ele>201.0</ele><time>2026-05-03T11:11:10.3Z</time></trkpt><trkpt lat="42.2613603" lon="13.9716718"><ele>201.0</ele><time>2026-05-03T11:11:11.296Z</time></trkpt><trkpt lat="42.2614075" lon="13.971765"><ele>201.0</ele><time>2026-05-03T11:11:12.299Z</time></trkpt><trkpt lat="42.2614522" lon="13.9718523"><ele>201.0</ele><time>2026-05-03T11:11:13.299Z</time></trkpt><trkpt lat="42.2614844" lon="13.9719451"><ele>199.83333333333334</ele><time>2026-05-03T11:11:14.295Z</time></trkpt><trkpt lat="42.2615101" lon="13.9720468"><ele>198.66666666666669</ele><time>2026-05-03T11:11:15.299Z</time></trkpt><trkpt lat="42.2615389" lon="13.972137"><ele>197.5</ele><time>2026-05-03T11:11:16.299Z</time></trkpt><trkpt lat="42.2615688" lon="13.9722289"><ele>196.33333333333334</ele><time>2026-05-03T11:11:17.301Z</time></trkpt><trkpt lat="42.2616005" lon="13.9723263"><ele>195.16666666666669</ele><time>2026-05-03T11:11:18.298Z</time></trkpt><trkpt lat="42.2616365" lon="13.9724275"><ele>194.0</ele><time>2026-05-03T11:11:19.299Z</time></trkpt><trkpt lat="42.2616795" lon="13.9725184"><ele>193.83333333333334</ele><time>2026-05-03T11:11:20.299Z</time></trkpt><trkpt lat="42.2617288" lon="13.9726143"><ele>193.66666666666669</ele><time>2026-05-03T11:11:21.3Z</time></trkpt><trkpt lat="42.2617779" lon="13.9727023"><ele>193.5</ele><time>2026-05-03T11:11:22.297Z</time></trkpt><trkpt lat="42.2618277" lon="13.972787"><ele>193.33333333333331</ele><time>2026-05-03T11:11:23.297Z</time></trkpt><trkpt lat="42.2618659" lon="13.9728794"><ele>193.16666666666666</ele><time>2026-05-03T11:11:24.299Z</time></trkpt><trkpt lat="42.2618996" lon="13.9729694"><ele>193.0</ele><time>2026-05-03T11:11:25.295Z</time></trkpt><trkpt lat="42.2619241" lon="13.9730644"><ele>193.00000000000003</ele><time>2026-05-03T11:11:26.296Z</time></trkpt><trkpt lat="42.2619523" lon="13.9731535"><ele>193.0</ele><time>2026-05-03T11:11:27.295Z</time></trkpt><trkpt lat="42.2619911" lon="13.9732446"><ele>193.0</ele><time>2026-05-03T11:11:28.297Z</time></trkpt><trkpt lat="42.2620238" lon="13.9733297"><ele>193.0</ele><time>2026-05-03T11:11:29.296Z</time></trkpt><trkpt lat="42.2620448" lon="13.9734161"><ele>193.0</ele><time>2026-05-03T11:11:30.297Z</time></trkpt><trkpt lat="42.2620643" lon="13.9734996"><ele>193.00000000000003</ele><time>2026-05-03T11:11:31.292Z</time></trkpt><trkpt lat="42.2620748" lon="13.9735957"><ele>193.0</ele><time>2026-05-03T11:11:32.295Z</time></trkpt><trkpt lat="42.2621043" lon="13.9736883"><ele>192.66666666666666</ele><time>2026-05-03T11:11:33.297Z</time></trkpt><trkpt lat="42.2621435" lon="13.9737808"><ele>192.33333333333331</ele><time>2026-05-03T11:11:34.297Z</time></trkpt><trkpt lat="42.2621747" lon="13.9738634"><ele>192.0</ele><time>2026-05-03T11:11:35.289Z</time></trkpt><trkpt lat="42.2622315" lon="13.9740181"><ele>191.66666666666666</ele><time>2026-05-03T11:11:37.291Z</time></trkpt><trkpt lat="42.2622642" lon="13.9741049"><ele>191.33333333333331</ele><time>2026-05-03T11:11:38.294Z</time></trkpt><trkpt lat="42.2622974" lon="13.9741916"><ele>191.0</ele><time>2026-05-03T11:11:39.295Z</time></trkpt><trkpt lat="42.2623279" lon="13.9742799"><ele>191.0</ele><time>2026-05-03T11:11:40.29Z</time></trkpt><trkpt lat="42.2623762" lon="13.9743753"><ele>191.0</ele><time>2026-05-03T11:11:41.3Z</time></trkpt><trkpt lat="42.2624151" lon="13.9744769"><ele>191.0</ele><time>2026-05-03T11:11:42.287Z</time></trkpt><trkpt lat="42.262449" lon="13.9745974"><ele>191.0</ele><time>2026-05-03T11:11:43.284Z</time></trkpt><trkpt lat="42.2624682" lon="13.9747295"><ele>191.0</ele><time>2026-05-03T11:11:44.292Z</time></trkpt><trkpt lat="42.2624828" lon="13.974858"><ele>191.0</ele><time>2026-05-03T11:11:45.299Z</time></trkpt><trkpt lat="42.2625" lon="13.9749805"><ele>191.0</ele><time>2026-05-03T11:11:46.297Z</time></trkpt><trkpt lat="42.2625204" lon="13.975102"><ele>191.0</ele><time>2026-05-03T11:11:47.297Z</time></trkpt><trkpt lat="42.2625411" lon="13.9752181"><ele>191.0</ele><time>2026-05-03T11:11:48.298Z</time></trkpt><trkpt lat="42.262555" lon="13.9753321"><ele>191.0</ele><time>2026-05-03T11:11:49.297Z</time></trkpt><trkpt lat="42.2625705" lon="13.975446"><ele>191.0</ele><time>2026-05-03T11:11:50.299Z</time></trkpt><trkpt lat="42.2625829" lon="13.975562"><ele>192.66666666666666</ele><time>2026-05-03T11:11:51.299Z</time></trkpt><trkpt lat="42.2625942" lon="13.9756707"><ele>194.33333333333331</ele><time>2026-05-03T11:11:52.291Z</time></trkpt><trkpt lat="42.2626174" lon="13.9757523"><ele>196.0</ele><time>2026-05-03T11:11:53.289Z</time></trkpt><trkpt lat="42.2626223" lon="13.9758858"><ele>197.66666666666666</ele><time>2026-05-03T11:11:55.29Z</time></trkpt><trkpt lat="42.2625635" lon="13.9760033"><ele>199.33333333333334</ele><time>2026-05-03T11:11:57.288Z</time></trkpt><trkpt lat="42.2625047" lon="13.9760982"><ele>201.0</ele><time>2026-05-03T11:11:59.304Z</time></trkpt><trkpt lat="42.2624844" lon="13.9761827"><ele>202.60000000000002</ele><time>2026-05-03T11:12:01.303Z</time></trkpt><trkpt lat="42.2624799" lon="13.9762969"><ele>204.2</ele><time>2026-05-03T11:12:03.294Z</time></trkpt><trkpt lat="42.2625093" lon="13.9764685"><ele>205.8</ele><time>2026-05-03T11:12:05.289Z</time></trkpt><trkpt lat="42.2625307" lon="13.976569"><ele>207.39999999999998</ele><time>2026-05-03T11:12:06.294Z</time></trkpt><trkpt lat="42.2625603" lon="13.9766788"><ele>209.0</ele><time>2026-05-03T11:12:07.292Z</time></trkpt><trkpt lat="42.2625939" lon="13.9768021"><ele>210.75</ele><time>2026-05-03T11:12:08.292Z</time></trkpt><trkpt lat="42.2626283" lon="13.9769381"><ele>212.5</ele><time>2026-05-03T11:12:09.289Z</time></trkpt><trkpt lat="42.2626635" lon="13.9770868"><ele>214.25</ele><time>2026-05-03T11:12:10.291Z</time></trkpt><trkpt lat="42.2626967" lon="13.9772422"><ele>216.0</ele><time>2026-05-03T11:12:11.29Z</time></trkpt><trkpt lat="42.2627352" lon="13.977384"><ele>217.60000000000002</ele><time>2026-05-03T11:12:12.298Z</time></trkpt><trkpt lat="42.262777" lon="13.9775234"><ele>219.20000000000002</ele><time>2026-05-03T11:12:13.29Z</time></trkpt><trkpt lat="42.2628056" lon="13.9776632"><ele>220.79999999999998</ele><time>2026-05-03T11:12:14.292Z</time></trkpt><trkpt lat="42.2628363" lon="13.9778079"><ele>222.39999999999998</ele><time>2026-05-03T11:12:15.294Z</time></trkpt><trkpt lat="42.2628652" lon="13.9779567"><ele>224.0</ele><time>2026-05-03T11:12:16.294Z</time></trkpt><trkpt lat="42.2628922" lon="13.9780951"><ele>224.0</ele><time>2026-05-03T11:12:17.291Z</time></trkpt><trkpt lat="42.2629166" lon="13.9782499"><ele>224.0</ele><time>2026-05-03T11:12:18.291Z</time></trkpt><trkpt lat="42.2629416" lon="13.9784002"><ele>224.0</ele><time>2026-05-03T11:12:19.286Z</time></trkpt><trkpt lat="42.2629628" lon="13.9785548"><ele>224.0</ele><time>2026-05-03T11:12:20.288Z</time></trkpt><trkpt lat="42.262978" lon="13.9787031"><ele>225.2</ele><time>2026-05-03T11:12:21.294Z</time></trkpt><trkpt lat="42.2630057" lon="13.9788613"><ele>226.39999999999998</ele><time>2026-05-03T11:12:22.293Z</time></trkpt><trkpt lat="42.2630209" lon="13.9790235"><ele>227.6</ele><time>2026-05-03T11:12:23.293Z</time></trkpt><trkpt lat="42.2630273" lon="13.9791744"><ele>228.8</ele><time>2026-05-03T11:12:24.284Z</time></trkpt><trkpt lat="42.2630246" lon="13.9792972"><ele>230.0</ele><time>2026-05-03T11:12:25.29Z</time></trkpt><trkpt lat="42.2630237" lon="13.9793924"><ele>230.2</ele><time>2026-05-03T11:12:26.291Z</time></trkpt><trkpt lat="42.2630195" lon="13.979541"><ele>230.4</ele><time>2026-05-03T11:12:28.278Z</time></trkpt><trkpt lat="42.2630801" lon="13.9796043"><ele>230.60000000000002</ele><time>2026-05-03T11:12:30.294Z</time></trkpt><trkpt lat="42.263194" lon="13.9796927"><ele>230.8</ele><time>2026-05-03T11:12:32.285Z</time></trkpt><trkpt lat="42.2632551" lon="13.979758"><ele>231.0</ele><time>2026-05-03T11:12:33.284Z</time></trkpt><trkpt lat="42.2633153" lon="13.9798324"><ele>228.66666666666666</ele><time>2026-05-03T11:12:34.284Z</time></trkpt><trkpt lat="42.2633527" lon="13.9799224"><ele>226.33333333333331</ele><time>2026-05-03T11:12:35.288Z</time></trkpt><trkpt lat="42.2633814" lon="13.9800224"><ele>224.0</ele><time>2026-05-03T11:12:36.285Z</time></trkpt><trkpt lat="42.2634008" lon="13.9801434"><ele>221.66666666666666</ele><time>2026-05-03T11:12:37.286Z</time></trkpt><trkpt lat="42.2634185" lon="13.9802707"><ele>219.33333333333331</ele><time>2026-05-03T11:12:38.288Z</time></trkpt><trkpt lat="42.2634289" lon="13.9803956"><ele>217.0</ele><time>2026-05-03T11:12:39.286Z</time></trkpt><trkpt lat="42.2634352" lon="13.9805109"><ele>216.99999999999997</ele><time>2026-05-03T11:12:40.284Z</time></trkpt><trkpt lat="42.2634396" lon="13.9806185"><ele>217.0</ele><time>2026-05-03T11:12:41.287Z</time></trkpt><trkpt lat="42.2634291" lon="13.9807256"><ele>217.0</ele><time>2026-05-03T11:12:42.288Z</time></trkpt><trkpt lat="42.2633975" lon="13.9808564"><ele>217.0</ele><time>2026-05-03T11:12:43.302Z</time></trkpt><trkpt lat="42.263376" lon="13.9809894"><ele>216.99999999999997</ele><time>2026-05-03T11:12:44.287Z</time></trkpt><trkpt lat="42.26338" lon="13.9810956"><ele>217.0</ele><time>2026-05-03T11:12:45.291Z</time></trkpt><trkpt lat="42.2634074" lon="13.9812005"><ele>217.16666666666666</ele><time>2026-05-03T11:12:46.285Z</time></trkpt><trkpt lat="42.2634658" lon="13.9813177"><ele>217.33333333333331</ele><time>2026-05-03T11:12:48.283Z</time></trkpt><trkpt lat="42.2635515" lon="13.9812949"><ele>217.5</ele><time>2026-05-03T11:12:52.291Z</time></trkpt><trkpt lat="42.2636101" lon="13.9812553"><ele>217.66666666666669</ele><time>2026-05-03T11:12:54.29Z</time></trkpt><trkpt lat="42.26367" lon="13.9811828"><ele>217.83333333333334</ele><time>2026-05-03T11:12:56.282Z</time></trkpt><trkpt lat="42.2637442" lon="13.9811026"><ele>218.0</ele><time>2026-05-03T11:12:58.287Z</time></trkpt><trkpt lat="42.263851" lon="13.9810147"><ele>215.4</ele><time>2026-05-03T11:13:00.279Z</time></trkpt><trkpt lat="42.2639592" lon="13.9809538"><ele>212.8</ele><time>2026-05-03T11:13:02.296Z</time></trkpt><trkpt lat="42.2640511" lon="13.9809931"><ele>210.2</ele><time>2026-05-03T11:13:04.303Z</time></trkpt><trkpt lat="42.2641218" lon="13.9811198"><ele>207.6</ele><time>2026-05-03T11:13:06.296Z</time></trkpt><trkpt lat="42.2641478" lon="13.9811978"><ele>205.0</ele><time>2026-05-03T11:13:07.297Z</time></trkpt><trkpt lat="42.2641875" lon="13.9812728"><ele>205.0</ele><time>2026-05-03T11:13:08.3Z</time></trkpt><trkpt lat="42.2642318" lon="13.9813598"><ele>205.0</ele><time>2026-05-03T11:13:09.29Z</time></trkpt><trkpt lat="42.2643166" lon="13.9814854"><ele>205.0</ele><time>2026-05-03T11:13:11.298Z</time></trkpt><trkpt lat="42.2644277" lon="13.9815755"><ele>205.0</ele><time>2026-05-03T11:13:13.285Z</time></trkpt><trkpt lat="42.2645401" lon="13.9816292"><ele>204.99999999999997</ele><time>2026-05-03T11:13:15.294Z</time></trkpt><trkpt lat="42.2646367" lon="13.9817311"><ele>205.0</ele><time>2026-05-03T11:13:17.289Z</time></trkpt><trkpt lat="42.2646879" lon="13.9818039"><ele>205.0</ele><time>2026-05-03T11:13:18.287Z</time></trkpt><trkpt lat="42.2647287" lon="13.9818896"><ele>205.0</ele><time>2026-05-03T11:13:19.292Z</time></trkpt><trkpt lat="42.264753" lon="13.9819824"><ele>204.99999999999997</ele><time>2026-05-03T11:13:20.292Z</time></trkpt><trkpt lat="42.2647863" lon="13.9820801"><ele>205.0</ele><time>2026-05-03T11:13:21.293Z</time></trkpt><trkpt lat="42.264803" lon="13.9821751"><ele>202.33333333333331</ele><time>2026-05-03T11:13:22.287Z</time></trkpt><trkpt lat="42.2648176" lon="13.9823401"><ele>199.66666666666666</ele><time>2026-05-03T11:13:24.29Z</time></trkpt><trkpt lat="42.2648386" lon="13.9824218"><ele>197.0</ele><time>2026-05-03T11:13:25.29Z</time></trkpt><trkpt lat="42.2648825" lon="13.9825799"><ele>194.33333333333331</ele><time>2026-05-03T11:13:27.294Z</time></trkpt><trkpt lat="42.2648973" lon="13.9826628"><ele>191.66666666666666</ele><time>2026-05-03T11:13:28.294Z</time></trkpt><trkpt lat="42.2649142" lon="13.9827494"><ele>189.0</ele><time>2026-05-03T11:13:29.298Z</time></trkpt><trkpt lat="42.264926" lon="13.982836"><ele>189.0</ele><time>2026-05-03T11:13:30.295Z</time></trkpt><trkpt lat="42.2649398" lon="13.9829262"><ele>189.0</ele><time>2026-05-03T11:13:31.298Z</time></trkpt><trkpt lat="42.2649553" lon="13.9830246"><ele>189.0</ele><time>2026-05-03T11:13:32.297Z</time></trkpt><trkpt lat="42.2649551" lon="13.9831222"><ele>189.0</ele><time>2026-05-03T11:13:33.295Z</time></trkpt><trkpt lat="42.2649563" lon="13.9832108"><ele>189.0</ele><time>2026-05-03T11:13:34.298Z</time></trkpt><trkpt lat="42.2649542" lon="13.9833044"><ele>189.0</ele><time>2026-05-03T11:13:35.293Z</time></trkpt><trkpt lat="42.2649618" lon="13.9834056"><ele>189.0</ele><time>2026-05-03T11:13:36.297Z</time></trkpt><trkpt lat="42.2649641" lon="13.9834997"><ele>188.2</ele><time>2026-05-03T11:13:37.295Z</time></trkpt><trkpt lat="42.2649724" lon="13.9836062"><ele>187.39999999999998</ele><time>2026-05-03T11:13:38.292Z</time></trkpt><trkpt lat="42.2649877" lon="13.9837604"><ele>186.6</ele><time>2026-05-03T11:13:40.297Z</time></trkpt><trkpt lat="42.2650277" lon="13.9838918"><ele>185.8</ele><time>2026-05-03T11:13:42.292Z</time></trkpt><trkpt lat="42.2650972" lon="13.9839432"><ele>185.0</ele><time>2026-05-03T11:13:44.293Z</time></trkpt><trkpt lat="42.2651858" lon="13.9838738"><ele>185.0</ele><time>2026-05-03T11:13:46.296Z</time></trkpt><trkpt lat="42.265249" lon="13.9837407"><ele>185.0</ele><time>2026-05-03T11:13:48.293Z</time></trkpt><trkpt lat="42.2652776" lon="13.9836638"><ele>185.0</ele><time>2026-05-03T11:13:49.295Z</time></trkpt><trkpt lat="42.2652879" lon="13.9835028"><ele>185.0</ele><time>2026-05-03T11:13:51.291Z</time></trkpt><trkpt lat="42.2652587" lon="13.9833301"><ele>185.0</ele><time>2026-05-03T11:13:53.286Z</time></trkpt><trkpt lat="42.2652368" lon="13.9832366"><ele>185.57142857142856</ele><time>2026-05-03T11:13:54.286Z</time></trkpt><trkpt lat="42.2652151" lon="13.9831469"><ele>186.14285714285714</ele><time>2026-05-03T11:13:55.288Z</time></trkpt><trkpt lat="42.2652038" lon="13.9830478"><ele>186.71428571428572</ele><time>2026-05-03T11:13:56.281Z</time></trkpt><trkpt lat="42.2651983" lon="13.9829444"><ele>187.28571428571428</ele><time>2026-05-03T11:13:57.284Z</time></trkpt><trkpt lat="42.2652063" lon="13.9828409"><ele>187.85714285714286</ele><time>2026-05-03T11:13:58.286Z</time></trkpt><trkpt lat="42.2652251" lon="13.9827484"><ele>188.42857142857142</ele><time>2026-05-03T11:13:59.286Z</time></trkpt><trkpt lat="42.2652483" lon="13.982658"><ele>189.0</ele><time>2026-05-03T11:14:00.29Z</time></trkpt><trkpt lat="42.2652776" lon="13.9825767"><ele>189.0</ele><time>2026-05-03T11:14:01.292Z</time></trkpt><trkpt lat="42.2653348" lon="13.9824299"><ele>189.0</ele><time>2026-05-03T11:14:03.29Z</time></trkpt><trkpt lat="42.2653706" lon="13.9823497"><ele>189.0</ele><time>2026-05-03T11:14:04.29Z</time></trkpt><trkpt lat="42.2654324" lon="13.9821952"><ele>189.0</ele><time>2026-05-03T11:14:06.286Z</time></trkpt><trkpt lat="42.2654798" lon="13.9821223"><ele>189.0</ele><time>2026-05-03T11:14:07.276Z</time></trkpt><trkpt lat="42.2655438" lon="13.9820821"><ele>185.83333333333334</ele><time>2026-05-03T11:14:08.291Z</time></trkpt><trkpt lat="42.2656267" lon="13.982095"><ele>182.66666666666666</ele><time>2026-05-03T11:14:09.279Z</time></trkpt><trkpt lat="42.2657049" lon="13.9821427"><ele>179.5</ele><time>2026-05-03T11:14:10.291Z</time></trkpt><trkpt lat="42.265767" lon="13.9822318"><ele>176.33333333333331</ele><time>2026-05-03T11:14:11.28Z</time></trkpt><trkpt lat="42.2658243" lon="13.9823306"><ele>173.16666666666666</ele><time>2026-05-03T11:14:12.284Z</time></trkpt><trkpt lat="42.2658822" lon="13.9824295"><ele>170.0</ele><time>2026-05-03T11:14:13.281Z</time></trkpt><trkpt lat="42.2659546" lon="13.9825042"><ele>170.33333333333331</ele><time>2026-05-03T11:14:14.284Z</time></trkpt><trkpt lat="42.266015" lon="13.9825829"><ele>170.66666666666666</ele><time>2026-05-03T11:14:15.291Z</time></trkpt><trkpt lat="42.2660807" lon="13.9826591"><ele>171.0</ele><time>2026-05-03T11:14:16.305Z</time></trkpt><trkpt lat="42.2661532" lon="13.9827387"><ele>171.33333333333334</ele><time>2026-05-03T11:14:17.293Z</time></trkpt><trkpt lat="42.2662299" lon="13.9828089"><ele>171.66666666666669</ele><time>2026-05-03T11:14:18.291Z</time></trkpt><trkpt lat="42.2663107" lon="13.9828621"><ele>172.0</ele><time>2026-05-03T11:14:19.288Z</time></trkpt><trkpt lat="42.266387" lon="13.9828821"><ele>170.57142857142858</ele><time>2026-05-03T11:14:20.286Z</time></trkpt><trkpt lat="42.2664613" lon="13.9828864"><ele>169.14285714285714</ele><time>2026-05-03T11:14:21.287Z</time></trkpt><trkpt lat="42.2665424" lon="13.9828771"><ele>167.71428571428572</ele><time>2026-05-03T11:14:22.297Z</time></trkpt><trkpt lat="42.2666202" lon="13.9828569"><ele>166.28571428571428</ele><time>2026-05-03T11:14:23.294Z</time></trkpt><trkpt lat="42.2666924" lon="13.9828493"><ele>164.85714285714286</ele><time>2026-05-03T11:14:24.296Z</time></trkpt><trkpt lat="42.2667591" lon="13.9828564"><ele>163.42857142857144</ele><time>2026-05-03T11:14:25.287Z</time></trkpt><trkpt lat="42.2668215" lon="13.9828955"><ele>162.0</ele><time>2026-05-03T11:14:26.286Z</time></trkpt><trkpt lat="42.266874" lon="13.9829565"><ele>162.0</ele><time>2026-05-03T11:14:27.287Z</time></trkpt><trkpt lat="42.2669111" lon="13.9830477"><ele>162.0</ele><time>2026-05-03T11:14:28.296Z</time></trkpt><trkpt lat="42.2669252" lon="13.9831577"><ele>162.0</ele><time>2026-05-03T11:14:29.299Z</time></trkpt><trkpt lat="42.2669302" lon="13.9832814"><ele>162.0</ele><time>2026-05-03T11:14:30.297Z</time></trkpt><trkpt lat="42.2669263" lon="13.983403"><ele>162.0</ele><time>2026-05-03T11:14:31.297Z</time></trkpt><trkpt lat="42.2669254" lon="13.9835367"><ele>162.0</ele><time>2026-05-03T11:14:32.292Z</time></trkpt><trkpt lat="42.2669318" lon="13.9836819"><ele>162.5</ele><time>2026-05-03T11:14:33.287Z</time></trkpt><trkpt lat="42.2669434" lon="13.9838356"><ele>163.0</ele><time>2026-05-03T11:14:34.3Z</time></trkpt><trkpt lat="42.2669592" lon="13.9839972"><ele>163.5</ele><time>2026-05-03T11:14:35.297Z</time></trkpt><trkpt lat="42.2669821" lon="13.9841573"><ele>164.0</ele><time>2026-05-03T11:14:36.303Z</time></trkpt><trkpt lat="42.2670149" lon="13.9843301"><ele>162.75</ele><time>2026-05-03T11:14:37.297Z</time></trkpt><trkpt lat="42.2670392" lon="13.9845097"><ele>161.5</ele><time>2026-05-03T11:14:38.295Z</time></trkpt><trkpt lat="42.2670595" lon="13.9846925"><ele>160.25</ele><time>2026-05-03T11:14:39.293Z</time></trkpt><trkpt lat="42.267094" lon="13.9848786"><ele>159.0</ele><time>2026-05-03T11:14:40.294Z</time></trkpt><trkpt lat="42.2671213" lon="13.9850578"><ele>157.5</ele><time>2026-05-03T11:14:41.29Z</time></trkpt><trkpt lat="42.2671353" lon="13.9852399"><ele>156.0</ele><time>2026-05-03T11:14:42.293Z</time></trkpt><trkpt lat="42.2671375" lon="13.9854135"><ele>154.5</ele><time>2026-05-03T11:14:43.292Z</time></trkpt><trkpt lat="42.2671425" lon="13.98558"><ele>153.0</ele><time>2026-05-03T11:14:44.293Z</time></trkpt><trkpt lat="42.2671401" lon="13.9857454"><ele>151.75</ele><time>2026-05-03T11:14:45.301Z</time></trkpt><trkpt lat="42.2671176" lon="13.9859223"><ele>150.5</ele><time>2026-05-03T11:14:46.299Z</time></trkpt><trkpt lat="42.2670798" lon="13.9860979"><ele>149.25</ele><time>2026-05-03T11:14:47.292Z</time></trkpt><trkpt lat="42.2670391" lon="13.9862985"><ele>148.0</ele><time>2026-05-03T11:14:48.29Z</time></trkpt><trkpt lat="42.2670027" lon="13.9865024"><ele>146.0</ele><time>2026-05-03T11:14:49.293Z</time></trkpt><trkpt lat="42.2669633" lon="13.9867246"><ele>144.0</ele><time>2026-05-03T11:14:50.297Z</time></trkpt><trkpt lat="42.2669158" lon="13.9869418"><ele>142.0</ele><time>2026-05-03T11:14:51.297Z</time></trkpt><trkpt lat="42.2668722" lon="13.9871453"><ele>142.0</ele><time>2026-05-03T11:14:52.297Z</time></trkpt><trkpt lat="42.2668333" lon="13.9873425"><ele>142.0</ele><time>2026-05-03T11:14:53.486Z</time></trkpt><trkpt lat="42.2667936" lon="13.987531"><ele>142.0</ele><time>2026-05-03T11:14:54.294Z</time></trkpt><trkpt lat="42.2667523" lon="13.9877307"><ele>142.0</ele><time>2026-05-03T11:14:55.295Z</time></trkpt><trkpt lat="42.2667078" lon="13.9879369"><ele>140.33333333333334</ele><time>2026-05-03T11:14:56.296Z</time></trkpt><trkpt lat="42.2666727" lon="13.9881415"><ele>138.66666666666666</ele><time>2026-05-03T11:14:57.302Z</time></trkpt><trkpt lat="42.2666281" lon="13.9883501"><ele>137.0</ele><time>2026-05-03T11:14:58.305Z</time></trkpt><trkpt lat="42.2665988" lon="13.9885612"><ele>135.33333333333331</ele><time>2026-05-03T11:14:59.306Z</time></trkpt><trkpt lat="42.2665941" lon="13.9887808"><ele>133.66666666666666</ele><time>2026-05-03T11:15:00.313Z</time></trkpt><trkpt lat="42.2665929" lon="13.9889927"><ele>132.0</ele><time>2026-05-03T11:15:01.314Z</time></trkpt><trkpt lat="42.2666271" lon="13.9891973"><ele>132.0</ele><time>2026-05-03T11:15:02.311Z</time></trkpt><trkpt lat="42.2666647" lon="13.9894039"><ele>132.0</ele><time>2026-05-03T11:15:03.312Z</time></trkpt><trkpt lat="42.2666969" lon="13.9896216"><ele>132.0</ele><time>2026-05-03T11:15:04.319Z</time></trkpt><trkpt lat="42.2667406" lon="13.9898391"><ele>131.75</ele><time>2026-05-03T11:15:05.321Z</time></trkpt><trkpt lat="42.266776" lon="13.9900347"><ele>131.5</ele><time>2026-05-03T11:15:06.313Z</time></trkpt><trkpt lat="42.2668085" lon="13.9902176"><ele>131.25</ele><time>2026-05-03T11:15:07.314Z</time></trkpt><trkpt lat="42.2668492" lon="13.9903937"><ele>131.0</ele><time>2026-05-03T11:15:08.309Z</time></trkpt><trkpt lat="42.2668797" lon="13.9905645"><ele>131.0</ele><time>2026-05-03T11:15:09.3Z</time></trkpt><trkpt lat="42.2668892" lon="13.9907468"><ele>131.0</ele><time>2026-05-03T11:15:10.299Z</time></trkpt><trkpt lat="42.2668712" lon="13.9909306"><ele>131.0</ele><time>2026-05-03T11:15:11.295Z</time></trkpt><trkpt lat="42.2668455" lon="13.991122"><ele>131.0</ele><time>2026-05-03T11:15:12.294Z</time></trkpt><trkpt lat="42.2668176" lon="13.991314"><ele>129.0</ele><time>2026-05-03T11:15:13.299Z</time></trkpt><trkpt lat="42.2667819" lon="13.991516"><ele>127.0</ele><time>2026-05-03T11:15:14.304Z</time></trkpt><trkpt lat="42.2667514" lon="13.9917169"><ele>125.0</ele><time>2026-05-03T11:15:15.311Z</time></trkpt><trkpt lat="42.2667116" lon="13.9919186"><ele>123.75</ele><time>2026-05-03T11:15:16.306Z</time></trkpt><trkpt lat="42.2666767" lon="13.9921034"><ele>122.5</ele><time>2026-05-03T11:15:17.314Z</time></trkpt><trkpt lat="42.2666437" lon="13.9922856"><ele>121.25</ele><time>2026-05-03T11:15:18.304Z</time></trkpt><trkpt lat="42.2666123" lon="13.9924741"><ele>120.0</ele><time>2026-05-03T11:15:19.304Z</time></trkpt><trkpt lat="42.2665798" lon="13.9926633"><ele>119.5</ele><time>2026-05-03T11:15:20.305Z</time></trkpt><trkpt lat="42.2665561" lon="13.9928566"><ele>119.0</ele><time>2026-05-03T11:15:21.306Z</time></trkpt><trkpt lat="42.2665226" lon="13.9930549"><ele>118.5</ele><time>2026-05-03T11:15:22.305Z</time></trkpt><trkpt lat="42.2664904" lon="13.9932577"><ele>118.0</ele><time>2026-05-03T11:15:23.306Z</time></trkpt><trkpt lat="42.2664567" lon="13.9934572"><ele>121.0</ele><time>2026-05-03T11:15:24.307Z</time></trkpt><trkpt lat="42.2664261" lon="13.9936406"><ele>124.0</ele><time>2026-05-03T11:15:25.302Z</time></trkpt><trkpt lat="42.266391" lon="13.9938144"><ele>127.0</ele><time>2026-05-03T11:15:26.308Z</time></trkpt><trkpt lat="42.2663615" lon="13.9939774"><ele>130.0</ele><time>2026-05-03T11:15:27.307Z</time></trkpt><trkpt lat="42.2663245" lon="13.994119"><ele>128.5</ele><time>2026-05-03T11:15:28.313Z</time></trkpt><trkpt lat="42.2663095" lon="13.9942717"><ele>127.0</ele><time>2026-05-03T11:15:29.314Z</time></trkpt><trkpt lat="42.2662758" lon="13.9944402"><ele>125.5</ele><time>2026-05-03T11:15:30.307Z</time></trkpt><trkpt lat="42.2662451" lon="13.9945888"><ele>124.0</ele><time>2026-05-03T11:15:31.315Z</time></trkpt><trkpt lat="42.2662093" lon="13.9947371"><ele>124.00000000000001</ele><time>2026-05-03T11:15:32.306Z</time></trkpt><trkpt lat="42.2661782" lon="13.9948615"><ele>124.0</ele><time>2026-05-03T11:15:33.303Z</time></trkpt><trkpt lat="42.2661387" lon="13.9949711"><ele>124.0</ele><time>2026-05-03T11:15:34.308Z</time></trkpt><trkpt lat="42.2660815" lon="13.9950593"><ele>124.0</ele><time>2026-05-03T11:15:35.314Z</time></trkpt><trkpt lat="42.2660275" lon="13.9951545"><ele>124.00000000000001</ele><time>2026-05-03T11:15:36.305Z</time></trkpt><trkpt lat="42.2660033" lon="13.9952625"><ele>124.0</ele><time>2026-05-03T11:15:37.314Z</time></trkpt><trkpt lat="42.266011" lon="13.9953878"><ele>123.6</ele><time>2026-05-03T11:15:38.301Z</time></trkpt><trkpt lat="42.2660334" lon="13.9955291"><ele>123.2</ele><time>2026-05-03T11:15:39.304Z</time></trkpt><trkpt lat="42.2660673" lon="13.9956835"><ele>122.79999999999998</ele><time>2026-05-03T11:15:40.298Z</time></trkpt><trkpt lat="42.266063" lon="13.9958312"><ele>122.39999999999999</ele><time>2026-05-03T11:15:41.298Z</time></trkpt><trkpt lat="42.266042" lon="13.9959593"><ele>122.0</ele><time>2026-05-03T11:15:42.302Z</time></trkpt><trkpt lat="42.2660225" lon="13.9960821"><ele>121.66666666666666</ele><time>2026-05-03T11:15:43.306Z</time></trkpt><trkpt lat="42.2659929" lon="13.9961919"><ele>121.33333333333333</ele><time>2026-05-03T11:15:44.302Z</time></trkpt><trkpt lat="42.2659699" lon="13.9962892"><ele>121.0</ele><time>2026-05-03T11:15:45.306Z</time></trkpt><trkpt lat="42.2659538" lon="13.9963751"><ele>120.66666666666666</ele><time>2026-05-03T11:15:46.303Z</time></trkpt><trkpt lat="42.2659492" lon="13.9965064"><ele>120.33333333333333</ele><time>2026-05-03T11:15:48.314Z</time></trkpt><trkpt lat="42.2659453" lon="13.996593"><ele>120.0</ele><time>2026-05-03T11:15:50.306Z</time></trkpt><trkpt lat="42.2659416" lon="13.9967042"><ele>120.0</ele><time>2026-05-03T11:15:59.298Z</time></trkpt><trkpt lat="42.2659224" lon="13.9967988"><ele>120.0</ele><time>2026-05-03T11:16:01.3Z</time></trkpt><trkpt lat="42.265888" lon="13.9969602"><ele>120.0</ele><time>2026-05-03T11:16:03.288Z</time></trkpt><trkpt lat="42.2658585" lon="13.9970503"><ele>120.0</ele><time>2026-05-03T11:16:04.29Z</time></trkpt><trkpt lat="42.2658395" lon="13.9971537"><ele>120.0</ele><time>2026-05-03T11:16:05.305Z</time></trkpt><trkpt lat="42.2658244" lon="13.997262"><ele>120.0</ele><time>2026-05-03T11:16:06.31Z</time></trkpt><trkpt lat="42.265805" lon="13.9973769"><ele>119.5</ele><time>2026-05-03T11:16:07.311Z</time></trkpt><trkpt lat="42.2657761" lon="13.9975167"><ele>119.0</ele><time>2026-05-03T11:16:08.314Z</time></trkpt><trkpt lat="42.2657507" lon="13.9976584"><ele>118.5</ele><time>2026-05-03T11:16:09.3Z</time></trkpt><trkpt lat="42.2657054" lon="13.9978126"><ele>118.0</ele><time>2026-05-03T11:16:10.313Z</time></trkpt><trkpt lat="42.2656673" lon="13.9979727"><ele>118.0</ele><time>2026-05-03T11:16:11.304Z</time></trkpt><trkpt lat="42.2656151" lon="13.998132"><ele>118.0</ele><time>2026-05-03T11:16:12.313Z</time></trkpt><trkpt lat="42.2655477" lon="13.9982881"><ele>118.0</ele><time>2026-05-03T11:16:13.313Z</time></trkpt><trkpt lat="42.2654696" lon="13.9984493"><ele>118.0</ele><time>2026-05-03T11:16:14.315Z</time></trkpt><trkpt lat="42.2653755" lon="13.9986049"><ele>117.66666666666667</ele><time>2026-05-03T11:16:15.306Z</time></trkpt><trkpt lat="42.2652647" lon="13.9987511"><ele>117.33333333333334</ele><time>2026-05-03T11:16:16.314Z</time></trkpt><trkpt lat="42.2651431" lon="13.9988854"><ele>117.0</ele><time>2026-05-03T11:16:17.314Z</time></trkpt><trkpt lat="42.2650215" lon="13.9990135"><ele>117.0</ele><time>2026-05-03T11:16:18.31Z</time></trkpt><trkpt lat="42.2648926" lon="13.9991399"><ele>117.0</ele><time>2026-05-03T11:16:19.314Z</time></trkpt><trkpt lat="42.2647654" lon="13.9992563"><ele>117.0</ele><time>2026-05-03T11:16:20.308Z</time></trkpt><trkpt lat="42.2646579" lon="13.9993781"><ele>117.25</ele><time>2026-05-03T11:16:21.318Z</time></trkpt><trkpt lat="42.2645484" lon="13.9994813"><ele>117.5</ele><time>2026-05-03T11:16:22.317Z</time></trkpt><trkpt lat="42.2644435" lon="13.9995882"><ele>117.75</ele><time>2026-05-03T11:16:23.316Z</time></trkpt><trkpt lat="42.2643245" lon="13.9997016"><ele>118.0</ele><time>2026-05-03T11:16:24.314Z</time></trkpt><trkpt lat="42.2642058" lon="13.9998079"><ele>118.0</ele><time>2026-05-03T11:16:25.32Z</time></trkpt><trkpt lat="42.2641032" lon="13.999921"><ele>118.0</ele><time>2026-05-03T11:16:26.312Z</time></trkpt><trkpt lat="42.2639791" lon="14.000033"><ele>118.0</ele><time>2026-05-03T11:16:27.307Z</time></trkpt><trkpt lat="42.263865" lon="14.0001415"><ele>118.0</ele><time>2026-05-03T11:16:28.313Z</time></trkpt><trkpt lat="42.2637653" lon="14.000273"><ele>117.5</ele><time>2026-05-03T11:16:29.312Z</time></trkpt><trkpt lat="42.263647" lon="14.0003978"><ele>117.0</ele><time>2026-05-03T11:16:30.311Z</time></trkpt><trkpt lat="42.2635434" lon="14.0005366"><ele>116.5</ele><time>2026-05-03T11:16:31.307Z</time></trkpt><trkpt lat="42.2634385" lon="14.0006868"><ele>116.0</ele><time>2026-05-03T11:16:32.299Z</time></trkpt><trkpt lat="42.2633504" lon="14.0008436"><ele>116.0</ele><time>2026-05-03T11:16:33.311Z</time></trkpt><trkpt lat="42.2632838" lon="14.0010329"><ele>116.0</ele><time>2026-05-03T11:16:34.308Z</time></trkpt><trkpt lat="42.2632461" lon="14.0012343"><ele>116.0</ele><time>2026-05-03T11:16:35.308Z</time></trkpt><trkpt lat="42.263225" lon="14.0014325"><ele>116.0</ele><time>2026-05-03T11:16:36.298Z</time></trkpt><trkpt lat="42.2632225" lon="14.0016296"><ele>116.0</ele><time>2026-05-03T11:16:37.304Z</time></trkpt><trkpt lat="42.2632461" lon="14.0018162"><ele>116.0</ele><time>2026-05-03T11:16:38.297Z</time></trkpt><trkpt lat="42.2632746" lon="14.0019881"><ele>116.0</ele><time>2026-05-03T11:16:39.313Z</time></trkpt><trkpt lat="42.2633382" lon="14.0021533"><ele>114.75</ele><time>2026-05-03T11:16:40.301Z</time></trkpt><trkpt lat="42.2634147" lon="14.0023048"><ele>113.5</ele><time>2026-05-03T11:16:41.313Z</time></trkpt><trkpt lat="42.2634831" lon="14.0024474"><ele>112.25</ele><time>2026-05-03T11:16:42.311Z</time></trkpt><trkpt lat="42.2635445" lon="14.0025861"><ele>111.0</ele><time>2026-05-03T11:16:43.305Z</time></trkpt><trkpt lat="42.2636019" lon="14.0027081"><ele>110.6</ele><time>2026-05-03T11:16:44.309Z</time></trkpt><trkpt lat="42.2636579" lon="14.0028222"><ele>110.19999999999999</ele><time>2026-05-03T11:16:45.312Z</time></trkpt><trkpt lat="42.2637114" lon="14.0029332"><ele>109.80000000000001</ele><time>2026-05-03T11:16:46.311Z</time></trkpt><trkpt lat="42.2637716" lon="14.0030496"><ele>109.4</ele><time>2026-05-03T11:16:47.309Z</time></trkpt><trkpt lat="42.2638273" lon="14.0031575"><ele>109.0</ele><time>2026-05-03T11:16:48.307Z</time></trkpt><trkpt lat="42.2638794" lon="14.0032671"><ele>109.00000000000001</ele><time>2026-05-03T11:16:49.308Z</time></trkpt><trkpt lat="42.2639273" lon="14.0033754"><ele>109.0</ele><time>2026-05-03T11:16:50.315Z</time></trkpt><trkpt lat="42.2639626" lon="14.0034896"><ele>109.0</ele><time>2026-05-03T11:16:51.311Z</time></trkpt><trkpt lat="42.2639929" lon="14.0036009"><ele>109.0</ele><time>2026-05-03T11:16:52.311Z</time></trkpt><trkpt lat="42.2640056" lon="14.0037134"><ele>109.00000000000001</ele><time>2026-05-03T11:16:53.298Z</time></trkpt><trkpt lat="42.2639949" lon="14.0038354"><ele>109.0</ele><time>2026-05-03T11:16:54.304Z</time></trkpt><trkpt lat="42.2639834" lon="14.0039388"><ele>109.00000000000001</ele><time>2026-05-03T11:16:55.311Z</time></trkpt><trkpt lat="42.2639918" lon="14.0040328"><ele>109.0</ele><time>2026-05-03T11:16:56.312Z</time></trkpt><trkpt lat="42.2640802" lon="14.0041304"><ele>109.0</ele><time>2026-05-03T11:16:58.312Z</time></trkpt><trkpt lat="42.2641474" lon="14.0041766"><ele>109.0</ele><time>2026-05-03T11:16:59.316Z</time></trkpt><trkpt lat="42.2642136" lon="14.0042257"><ele>109.00000000000001</ele><time>2026-05-03T11:17:00.311Z</time></trkpt><trkpt lat="42.2642754" lon="14.00429"><ele>109.0</ele><time>2026-05-03T11:17:01.308Z</time></trkpt><trkpt lat="42.2643317" lon="14.0043788"><ele>109.2</ele><time>2026-05-03T11:17:02.3Z</time></trkpt><trkpt lat="42.2643864" lon="14.0044844"><ele>109.4</ele><time>2026-05-03T11:17:03.302Z</time></trkpt><trkpt lat="42.2644408" lon="14.0046028"><ele>109.6</ele><time>2026-05-03T11:17:04.312Z</time></trkpt><trkpt lat="42.2644978" lon="14.0047234"><ele>109.8</ele><time>2026-05-03T11:17:05.308Z</time></trkpt><trkpt lat="42.2645483" lon="14.0048389"><ele>110.0</ele><time>2026-05-03T11:17:06.312Z</time></trkpt><trkpt lat="42.2645937" lon="14.0049378"><ele>109.16666666666666</ele><time>2026-05-03T11:17:07.305Z</time></trkpt><trkpt lat="42.2646383" lon="14.0050368"><ele>108.33333333333333</ele><time>2026-05-03T11:17:08.314Z</time></trkpt><trkpt lat="42.2646859" lon="14.0051287"><ele>107.5</ele><time>2026-05-03T11:17:09.31Z</time></trkpt><trkpt lat="42.2647263" lon="14.0052256"><ele>106.66666666666666</ele><time>2026-05-03T11:17:10.311Z</time></trkpt><trkpt lat="42.264762" lon="14.0053193"><ele>105.83333333333333</ele><time>2026-05-03T11:17:11.309Z</time></trkpt><trkpt lat="42.2648069" lon="14.0054143"><ele>105.0</ele><time>2026-05-03T11:17:12.31Z</time></trkpt><trkpt lat="42.2648445" lon="14.0055048"><ele>105.0</ele><time>2026-05-03T11:17:13.31Z</time></trkpt><trkpt lat="42.2648829" lon="14.0055976"><ele>105.0</ele><time>2026-05-03T11:17:14.305Z</time></trkpt><trkpt lat="42.2649297" lon="14.0056983"><ele>105.0</ele><time>2026-05-03T11:17:15.306Z</time></trkpt><trkpt lat="42.2649795" lon="14.0058024"><ele>105.0</ele><time>2026-05-03T11:17:16.3Z</time></trkpt><trkpt lat="42.265025" lon="14.0059194"><ele>105.0</ele><time>2026-05-03T11:17:17.303Z</time></trkpt><trkpt lat="42.2650758" lon="14.0060392"><ele>104.4</ele><time>2026-05-03T11:17:18.309Z</time></trkpt><trkpt lat="42.2651247" lon="14.0061475"><ele>103.8</ele><time>2026-05-03T11:17:19.303Z</time></trkpt><trkpt lat="42.2651732" lon="14.00626"><ele>103.19999999999999</ele><time>2026-05-03T11:17:20.301Z</time></trkpt><trkpt lat="42.2652198" lon="14.0063746"><ele>102.6</ele><time>2026-05-03T11:17:21.311Z</time></trkpt><trkpt lat="42.2652704" lon="14.0064872"><ele>102.0</ele><time>2026-05-03T11:17:22.306Z</time></trkpt><trkpt lat="42.2653164" lon="14.0066087"><ele>101.8</ele><time>2026-05-03T11:17:23.309Z</time></trkpt><trkpt lat="42.2653638" lon="14.0067354"><ele>101.6</ele><time>2026-05-03T11:17:24.31Z</time></trkpt><trkpt lat="42.2654169" lon="14.0068611"><ele>101.39999999999999</ele><time>2026-05-03T11:17:25.306Z</time></trkpt><trkpt lat="42.2654733" lon="14.0069921"><ele>101.19999999999999</ele><time>2026-05-03T11:17:26.307Z</time></trkpt><trkpt lat="42.265533" lon="14.0071226"><ele>101.0</ele><time>2026-05-03T11:17:27.309Z</time></trkpt><trkpt lat="42.2655982" lon="14.0072561"><ele>101.0</ele><time>2026-05-03T11:17:28.312Z</time></trkpt><trkpt lat="42.2656702" lon="14.0073906"><ele>101.0</ele><time>2026-05-03T11:17:29.313Z</time></trkpt><trkpt lat="42.265745" lon="14.0075189"><ele>101.0</ele><time>2026-05-03T11:17:30.307Z</time></trkpt><trkpt lat="42.2658318" lon="14.0076384"><ele>101.0</ele><time>2026-05-03T11:17:31.307Z</time></trkpt><trkpt lat="42.265921" lon="14.0077618"><ele>101.0</ele><time>2026-05-03T11:17:32.304Z</time></trkpt><trkpt lat="42.2660272" lon="14.0078761"><ele>101.0</ele><time>2026-05-03T11:17:33.302Z</time></trkpt><trkpt lat="42.2661408" lon="14.0079974"><ele>101.0</ele><time>2026-05-03T11:17:34.303Z</time></trkpt><trkpt lat="42.2662505" lon="14.0081195"><ele>101.0</ele><time>2026-05-03T11:17:35.311Z</time></trkpt><trkpt lat="42.2663501" lon="14.0082469"><ele>100.5</ele><time>2026-05-03T11:17:36.31Z</time></trkpt><trkpt lat="42.266449" lon="14.0083827"><ele>100.0</ele><time>2026-05-03T11:17:37.307Z</time></trkpt><trkpt lat="42.2665489" lon="14.0085188"><ele>99.5</ele><time>2026-05-03T11:17:38.311Z</time></trkpt><trkpt lat="42.2666365" lon="14.0086741"><ele>99.0</ele><time>2026-05-03T11:17:39.311Z</time></trkpt><trkpt lat="42.2667197" lon="14.0088376"><ele>99.0</ele><time>2026-05-03T11:17:40.3Z</time></trkpt><trkpt lat="42.2667863" lon="14.0089933"><ele>99.0</ele><time>2026-05-03T11:17:41.306Z</time></trkpt><trkpt lat="42.26685" lon="14.0091361"><ele>99.0</ele><time>2026-05-03T11:17:42.302Z</time></trkpt><trkpt lat="42.2669071" lon="14.0092661"><ele>99.0</ele><time>2026-05-03T11:17:43.307Z</time></trkpt><trkpt lat="42.2669601" lon="14.0093893"><ele>98.6</ele><time>2026-05-03T11:17:44.306Z</time></trkpt><trkpt lat="42.2670127" lon="14.0095023"><ele>98.2</ele><time>2026-05-03T11:17:45.314Z</time></trkpt><trkpt lat="42.2670623" lon="14.0096185"><ele>97.8</ele><time>2026-05-03T11:17:46.312Z</time></trkpt><trkpt lat="42.2671108" lon="14.0097303"><ele>97.39999999999999</ele><time>2026-05-03T11:17:47.312Z</time></trkpt><trkpt lat="42.2671512" lon="14.0098335"><ele>97.0</ele><time>2026-05-03T11:17:48.313Z</time></trkpt><trkpt lat="42.267191" lon="14.0099334"><ele>97.50000000000001</ele><time>2026-05-03T11:17:49.313Z</time></trkpt><trkpt lat="42.267228" lon="14.0100264"><ele>98.0</ele><time>2026-05-03T11:17:50.312Z</time></trkpt><trkpt lat="42.2672526" lon="14.0101242"><ele>98.5</ele><time>2026-05-03T11:17:51.314Z</time></trkpt><trkpt lat="42.2672485" lon="14.010236"><ele>99.0</ele><time>2026-05-03T11:17:52.319Z</time></trkpt><trkpt lat="42.2672267" lon="14.01037"><ele>99.50000000000001</ele><time>2026-05-03T11:17:53.314Z</time></trkpt><trkpt lat="42.2671849" lon="14.0105016"><ele>100.0</ele><time>2026-05-03T11:17:54.303Z</time></trkpt><trkpt lat="42.2671073" lon="14.0106184"><ele>100.0</ele><time>2026-05-03T11:17:55.315Z</time></trkpt><trkpt lat="42.2670006" lon="14.0107086"><ele>100.0</ele><time>2026-05-03T11:17:56.311Z</time></trkpt><trkpt lat="42.2668925" lon="14.0107831"><ele>100.0</ele><time>2026-05-03T11:17:57.313Z</time></trkpt><trkpt lat="42.2667942" lon="14.010861"><ele>100.0</ele><time>2026-05-03T11:17:58.309Z</time></trkpt><trkpt lat="42.2666953" lon="14.010942"><ele>99.75</ele><time>2026-05-03T11:17:59.312Z</time></trkpt><trkpt lat="42.2665987" lon="14.0110281"><ele>99.5</ele><time>2026-05-03T11:18:00.307Z</time></trkpt><trkpt lat="42.2664958" lon="14.0111092"><ele>99.25</ele><time>2026-05-03T11:18:01.31Z</time></trkpt><trkpt lat="42.2663945" lon="14.011198"><ele>99.0</ele><time>2026-05-03T11:18:02.302Z</time></trkpt><trkpt lat="42.2662796" lon="14.0112815"><ele>99.75</ele><time>2026-05-03T11:18:03.302Z</time></trkpt><trkpt lat="42.2661681" lon="14.0113693"><ele>100.5</ele><time>2026-05-03T11:18:04.305Z</time></trkpt><trkpt lat="42.2660674" lon="14.0114585"><ele>101.25</ele><time>2026-05-03T11:18:05.297Z</time></trkpt><trkpt lat="42.2659655" lon="14.011542"><ele>102.0</ele><time>2026-05-03T11:18:06.305Z</time></trkpt><trkpt lat="42.265878" lon="14.011619"><ele>101.6</ele><time>2026-05-03T11:18:07.311Z</time></trkpt><trkpt lat="42.2657984" lon="14.0116662"><ele>101.19999999999999</ele><time>2026-05-03T11:18:08.303Z</time></trkpt><trkpt lat="42.2657227" lon="14.0117258"><ele>100.8</ele><time>2026-05-03T11:18:09.305Z</time></trkpt><trkpt lat="42.265644" lon="14.0117837"><ele>100.4</ele><time>2026-05-03T11:18:10.309Z</time></trkpt><trkpt lat="42.2655636" lon="14.0118555"><ele>100.0</ele><time>2026-05-03T11:18:11.305Z</time></trkpt><trkpt lat="42.2654857" lon="14.0119247"><ele>101.4</ele><time>2026-05-03T11:18:12.308Z</time></trkpt><trkpt lat="42.2654032" lon="14.0119963"><ele>102.8</ele><time>2026-05-03T11:18:13.301Z</time></trkpt><trkpt lat="42.265316" lon="14.0120741"><ele>104.19999999999999</ele><time>2026-05-03T11:18:14.302Z</time></trkpt><trkpt lat="42.2652212" lon="14.0121642"><ele>105.6</ele><time>2026-05-03T11:18:15.302Z</time></trkpt><trkpt lat="42.2651292" lon="14.0122502"><ele>107.0</ele><time>2026-05-03T11:18:16.296Z</time></trkpt><trkpt lat="42.2650481" lon="14.0123609"><ele>107.0</ele><time>2026-05-03T11:18:17.293Z</time></trkpt><trkpt lat="42.2649777" lon="14.0124809"><ele>107.0</ele><time>2026-05-03T11:18:18.297Z</time></trkpt><trkpt lat="42.2649269" lon="14.012623"><ele>107.0</ele><time>2026-05-03T11:18:19.292Z</time></trkpt><trkpt lat="42.2648921" lon="14.0127828"><ele>107.0</ele><time>2026-05-03T11:18:20.307Z</time></trkpt><trkpt lat="42.2648825" lon="14.0129531"><ele>104.0</ele><time>2026-05-03T11:18:21.307Z</time></trkpt><trkpt lat="42.2649021" lon="14.0131319"><ele>101.0</ele><time>2026-05-03T11:18:22.312Z</time></trkpt><trkpt lat="42.2649537" lon="14.0132824"><ele>98.0</ele><time>2026-05-03T11:18:23.318Z</time></trkpt><trkpt lat="42.2650119" lon="14.0134377"><ele>95.0</ele><time>2026-05-03T11:18:24.311Z</time></trkpt><trkpt lat="42.2650894" lon="14.0135765"><ele>94.0</ele><time>2026-05-03T11:18:25.309Z</time></trkpt><trkpt lat="42.2651821" lon="14.0137037"><ele>93.0</ele><time>2026-05-03T11:18:26.304Z</time></trkpt><trkpt lat="42.2652755" lon="14.0138204"><ele>92.0</ele><time>2026-05-03T11:18:27.304Z</time></trkpt><trkpt lat="42.2653642" lon="14.013935"><ele>91.0</ele><time>2026-05-03T11:18:28.303Z</time></trkpt><trkpt lat="42.265446" lon="14.0140576"><ele>91.0</ele><time>2026-05-03T11:18:29.306Z</time></trkpt><trkpt lat="42.2655243" lon="14.0141843"><ele>91.0</ele><time>2026-05-03T11:18:30.304Z</time></trkpt><trkpt lat="42.2655876" lon="14.014308"><ele>91.0</ele><time>2026-05-03T11:18:31.304Z</time></trkpt><trkpt lat="42.2656471" lon="14.0144197"><ele>91.0</ele><time>2026-05-03T11:18:32.3Z</time></trkpt><trkpt lat="42.2657076" lon="14.0145299"><ele>91.0</ele><time>2026-05-03T11:18:33.302Z</time></trkpt><trkpt lat="42.265766" lon="14.014632"><ele>90.66666666666666</ele><time>2026-05-03T11:18:34.301Z</time></trkpt><trkpt lat="42.265817" lon="14.014727"><ele>90.33333333333333</ele><time>2026-05-03T11:18:35.303Z</time></trkpt><trkpt lat="42.2658738" lon="14.0148196"><ele>90.0</ele><time>2026-05-03T11:18:36.302Z</time></trkpt><trkpt lat="42.2659214" lon="14.0149063"><ele>89.66666666666667</ele><time>2026-05-03T11:18:37.301Z</time></trkpt><trkpt lat="42.2659666" lon="14.0149847"><ele>89.33333333333334</ele><time>2026-05-03T11:18:38.301Z</time></trkpt><trkpt lat="42.2660067" lon="14.0150598"><ele>89.0</ele><time>2026-05-03T11:18:39.301Z</time></trkpt><trkpt lat="42.2660486" lon="14.0151327"><ele>89.0</ele><time>2026-05-03T11:18:40.302Z</time></trkpt><trkpt lat="42.2660869" lon="14.0152027"><ele>89.0</ele><time>2026-05-03T11:18:41.305Z</time></trkpt><trkpt lat="42.2661557" lon="14.0153074"><ele>89.0</ele><time>2026-05-03T11:18:43.299Z</time></trkpt><trkpt lat="42.2662322" lon="14.0152782"><ele>89.0</ele><time>2026-05-03T11:18:45.304Z</time></trkpt><trkpt lat="42.2662905" lon="14.0152156"><ele>89.0</ele><time>2026-05-03T11:18:47.306Z</time></trkpt><trkpt lat="42.2663402" lon="14.0151458"><ele>89.0</ele><time>2026-05-03T11:18:49.302Z</time></trkpt><trkpt lat="42.2663925" lon="14.0150662"><ele>88.99999999999999</ele><time>2026-05-03T11:18:52.305Z</time></trkpt><trkpt lat="42.2664518" lon="14.015016"><ele>89.0</ele><time>2026-05-03T11:18:54.31Z</time></trkpt><trkpt lat="42.2665062" lon="14.0149616"><ele>89.0</ele><time>2026-05-03T11:18:56.307Z</time></trkpt><trkpt lat="42.2665616" lon="14.014917"><ele>89.0</ele><time>2026-05-03T11:20:02.309Z</time></trkpt><trkpt lat="42.2665163" lon="14.0149796"><ele>89.0</ele><time>2026-05-03T11:29:00.31Z</time></trkpt><trkpt lat="42.2664612" lon="14.0150263"><ele>88.99999999999999</ele><time>2026-05-03T11:29:03.321Z</time></trkpt><trkpt lat="42.2663993" lon="14.0150753"><ele>89.0</ele><time>2026-05-03T11:29:06.319Z</time></trkpt><trkpt lat="42.2663314" lon="14.015171"><ele>89.0</ele><time>2026-05-03T11:29:09.322Z</time></trkpt><trkpt lat="42.2662689" lon="14.0152483"><ele>89.0</ele><time>2026-05-03T11:29:11.319Z</time></trkpt><trkpt lat="42.2662086" lon="14.0152969"><ele>89.0</ele><time>2026-05-03T11:29:13.319Z</time></trkpt><trkpt lat="42.2662165" lon="14.015383"><ele>89.0</ele><time>2026-05-03T11:29:47.308Z</time></trkpt><trkpt lat="42.2662547" lon="14.0154658"><ele>89.0</ele><time>2026-05-03T11:29:49.292Z</time></trkpt><trkpt lat="42.2663348" lon="14.0156271"><ele>89.0</ele><time>2026-05-03T11:29:51.305Z</time></trkpt><trkpt lat="42.2664005" lon="14.0157336"><ele>88.66666666666667</ele><time>2026-05-03T11:29:52.307Z</time></trkpt><trkpt lat="42.2664826" lon="14.0158953"><ele>88.33333333333333</ele><time>2026-05-03T11:29:53.301Z</time></trkpt><trkpt lat="42.2665948" lon="14.0160727"><ele>88.0</ele><time>2026-05-03T11:29:54.3Z</time></trkpt><trkpt lat="42.2667294" lon="14.0162719"><ele>88.0</ele><time>2026-05-03T11:29:55.303Z</time></trkpt><trkpt lat="42.2668316" lon="14.0164511"><ele>88.0</ele><time>2026-05-03T11:29:56.305Z</time></trkpt><trkpt lat="42.2669368" lon="14.0166389"><ele>88.0</ele><time>2026-05-03T11:29:57.301Z</time></trkpt><trkpt lat="42.2670475" lon="14.0168229"><ele>87.66666666666666</ele><time>2026-05-03T11:29:58.296Z</time></trkpt><trkpt lat="42.267161" lon="14.017003"><ele>87.33333333333333</ele><time>2026-05-03T11:29:59.301Z</time></trkpt><trkpt lat="42.2672629" lon="14.0171655"><ele>87.0</ele><time>2026-05-03T11:30:00.298Z</time></trkpt><trkpt lat="42.2673508" lon="14.017316"><ele>87.0</ele><time>2026-05-03T11:30:01.302Z</time></trkpt><trkpt lat="42.267427" lon="14.0174602"><ele>87.0</ele><time>2026-05-03T11:30:02.3Z</time></trkpt><trkpt lat="42.2675091" lon="14.0175808"><ele>87.0</ele><time>2026-05-03T11:30:03.311Z</time></trkpt><trkpt lat="42.2675734" lon="14.0177181"><ele>87.0</ele><time>2026-05-03T11:30:04.308Z</time></trkpt><trkpt lat="42.2676633" lon="14.0178396"><ele>87.5</ele><time>2026-05-03T11:30:05.308Z</time></trkpt><trkpt lat="42.2677335" lon="14.0179234"><ele>88.0</ele><time>2026-05-03T11:30:06.306Z</time></trkpt><trkpt lat="42.2678321" lon="14.0180126"><ele>88.5</ele><time>2026-05-03T11:30:07.303Z</time></trkpt><trkpt lat="42.2679274" lon="14.0180781"><ele>89.0</ele><time>2026-05-03T11:30:08.298Z</time></trkpt><trkpt lat="42.2680623" lon="14.0181303"><ele>88.5</ele><time>2026-05-03T11:30:09.305Z</time></trkpt><trkpt lat="42.2681928" lon="14.0181821"><ele>88.0</ele><time>2026-05-03T11:30:10.301Z</time></trkpt><trkpt lat="42.2683369" lon="14.0182281"><ele>87.5</ele><time>2026-05-03T11:30:11.305Z</time></trkpt><trkpt lat="42.26849" lon="14.0182539"><ele>87.0</ele><time>2026-05-03T11:30:12.304Z</time></trkpt><trkpt lat="42.2686521" lon="14.0182823"><ele>88.0</ele><time>2026-05-03T11:30:13.302Z</time></trkpt><trkpt lat="42.2688106" lon="14.0183355"><ele>89.0</ele><time>2026-05-03T11:30:14.3Z</time></trkpt><trkpt lat="42.2689569" lon="14.0183646"><ele>90.0</ele><time>2026-05-03T11:30:15.3Z</time></trkpt><trkpt lat="42.2691014" lon="14.0183951"><ele>90.5</ele><time>2026-05-03T11:30:16.307Z</time></trkpt><trkpt lat="42.2692454" lon="14.0184344"><ele>91.0</ele><time>2026-05-03T11:30:17.303Z</time></trkpt><trkpt lat="42.2693834" lon="14.0184612"><ele>91.5</ele><time>2026-05-03T11:30:18.302Z</time></trkpt><trkpt lat="42.2695157" lon="14.0185073"><ele>92.0</ele><time>2026-05-03T11:30:19.3Z</time></trkpt><trkpt lat="42.2696455" lon="14.0185685"><ele>92.0</ele><time>2026-05-03T11:30:20.3Z</time></trkpt><trkpt lat="42.2697697" lon="14.018641"><ele>92.0</ele><time>2026-05-03T11:30:21.299Z</time></trkpt><trkpt lat="42.2699004" lon="14.0187176"><ele>92.0</ele><time>2026-05-03T11:30:22.301Z</time></trkpt><trkpt lat="42.2700209" lon="14.0188068"><ele>92.0</ele><time>2026-05-03T11:30:23.303Z</time></trkpt><trkpt lat="42.2701501" lon="14.0188799"><ele>92.0</ele><time>2026-05-03T11:30:24.298Z</time></trkpt><trkpt lat="42.2702452" lon="14.0189344"><ele>92.0</ele><time>2026-05-03T11:30:25.296Z</time></trkpt><trkpt lat="42.2703388" lon="14.0189925"><ele>92.0</ele><time>2026-05-03T11:30:26.292Z</time></trkpt><trkpt lat="42.2704044" lon="14.0190261"><ele>92.0</ele><time>2026-05-03T11:30:27.299Z</time></trkpt><trkpt lat="42.270478" lon="14.0190723"><ele>92.0</ele><time>2026-05-03T11:30:29.312Z</time></trkpt><trkpt lat="42.2705305" lon="14.0190215"><ele>92.0</ele><time>2026-05-03T11:30:33.307Z</time></trkpt><trkpt lat="42.2705603" lon="14.0188937"><ele>91.6</ele><time>2026-05-03T11:30:35.306Z</time></trkpt><trkpt lat="42.2706693" lon="14.0188598"><ele>91.19999999999999</ele><time>2026-05-03T11:30:37.307Z</time></trkpt><trkpt lat="42.2707379" lon="14.018868"><ele>90.8</ele><time>2026-05-03T11:30:38.303Z</time></trkpt><trkpt lat="42.270817" lon="14.0188852"><ele>90.4</ele><time>2026-05-03T11:30:39.299Z</time></trkpt><trkpt lat="42.2709106" lon="14.0189026"><ele>90.0</ele><time>2026-05-03T11:30:40.299Z</time></trkpt><trkpt lat="42.2710095" lon="14.0189242"><ele>90.0</ele><time>2026-05-03T11:30:41.299Z</time></trkpt><trkpt lat="42.2711123" lon="14.0189538"><ele>90.0</ele><time>2026-05-03T11:30:42.295Z</time></trkpt><trkpt lat="42.271204" lon="14.0190044"><ele>90.0</ele><time>2026-05-03T11:30:43.294Z</time></trkpt><trkpt lat="42.2712927" lon="14.0190828"><ele>90.0</ele><time>2026-05-03T11:30:44.29Z</time></trkpt><trkpt lat="42.27138" lon="14.0191748"><ele>90.0</ele><time>2026-05-03T11:30:45.306Z</time></trkpt><trkpt lat="42.2714643" lon="14.0192717"><ele>90.5</ele><time>2026-05-03T11:30:46.299Z</time></trkpt><trkpt lat="42.2715543" lon="14.0193737"><ele>91.0</ele><time>2026-05-03T11:30:47.305Z</time></trkpt><trkpt lat="42.2716423" lon="14.0194763"><ele>91.5</ele><time>2026-05-03T11:30:48.295Z</time></trkpt><trkpt lat="42.2717363" lon="14.0195758"><ele>92.0</ele><time>2026-05-03T11:30:49.296Z</time></trkpt><trkpt lat="42.2718389" lon="14.0196734"><ele>92.0</ele><time>2026-05-03T11:30:50.293Z</time></trkpt><trkpt lat="42.2719416" lon="14.0197865"><ele>92.0</ele><time>2026-05-03T11:30:51.296Z</time></trkpt><trkpt lat="42.2720608" lon="14.0198984"><ele>92.0</ele><time>2026-05-03T11:30:52.29Z</time></trkpt><trkpt lat="42.2721948" lon="14.0200121"><ele>92.0</ele><time>2026-05-03T11:30:53.293Z</time></trkpt><trkpt lat="42.2723238" lon="14.0201334"><ele>91.75</ele><time>2026-05-03T11:30:54.29Z</time></trkpt><trkpt lat="42.272466" lon="14.0202196"><ele>91.5</ele><time>2026-05-03T11:30:55.29Z</time></trkpt><trkpt lat="42.272594" lon="14.020289"><ele>91.25</ele><time>2026-05-03T11:30:56.294Z</time></trkpt><trkpt lat="42.2727357" lon="14.0203698"><ele>91.0</ele><time>2026-05-03T11:30:57.297Z</time></trkpt><trkpt lat="42.2728747" lon="14.0204386"><ele>91.0</ele><time>2026-05-03T11:30:58.299Z</time></trkpt><trkpt lat="42.273029" lon="14.0205075"><ele>91.0</ele><time>2026-05-03T11:30:59.3Z</time></trkpt><trkpt lat="42.2731953" lon="14.0205717"><ele>91.0</ele><time>2026-05-03T11:31:00.301Z</time></trkpt><trkpt lat="42.2733609" lon="14.0206233"><ele>89.33333333333333</ele><time>2026-05-03T11:31:01.31Z</time></trkpt><trkpt lat="42.2735332" lon="14.020656"><ele>87.66666666666667</ele><time>2026-05-03T11:31:02.302Z</time></trkpt><trkpt lat="42.2736966" lon="14.0206828"><ele>86.0</ele><time>2026-05-03T11:31:03.307Z</time></trkpt><trkpt lat="42.273864" lon="14.0207"><ele>85.33333333333334</ele><time>2026-05-03T11:31:04.308Z</time></trkpt><trkpt lat="42.2740377" lon="14.0207111"><ele>84.66666666666667</ele><time>2026-05-03T11:31:05.31Z</time></trkpt><trkpt lat="42.2742199" lon="14.0207026"><ele>84.0</ele><time>2026-05-03T11:31:06.309Z</time></trkpt><trkpt lat="42.2743952" lon="14.0207072"><ele>84.0</ele><time>2026-05-03T11:31:07.311Z</time></trkpt><trkpt lat="42.2745617" lon="14.0207174"><ele>84.0</ele><time>2026-05-03T11:31:08.313Z</time></trkpt><trkpt lat="42.2747334" lon="14.0207089"><ele>84.0</ele><time>2026-05-03T11:31:09.314Z</time></trkpt><trkpt lat="42.2749025" lon="14.0206956"><ele>83.0</ele><time>2026-05-03T11:31:10.307Z</time></trkpt><trkpt lat="42.2750675" lon="14.0206917"><ele>82.0</ele><time>2026-05-03T11:31:11.311Z</time></trkpt><trkpt lat="42.275239" lon="14.0206851"><ele>81.0</ele><time>2026-05-03T11:31:12.308Z</time></trkpt><trkpt lat="42.2754085" lon="14.0206743"><ele>81.0</ele><time>2026-05-03T11:31:13.307Z</time></trkpt><trkpt lat="42.2755815" lon="14.0206731"><ele>81.0</ele><time>2026-05-03T11:31:14.311Z</time></trkpt><trkpt lat="42.2757609" lon="14.0206819"><ele>81.0</ele><time>2026-05-03T11:31:15.312Z</time></trkpt><trkpt lat="42.2759408" lon="14.0207013"><ele>81.33333333333333</ele><time>2026-05-03T11:31:16.31Z</time></trkpt><trkpt lat="42.2761132" lon="14.0207235"><ele>81.66666666666666</ele><time>2026-05-03T11:31:17.314Z</time></trkpt><trkpt lat="42.2762946" lon="14.0207499"><ele>82.0</ele><time>2026-05-03T11:31:18.314Z</time></trkpt><trkpt lat="42.2764792" lon="14.0207878"><ele>83.33333333333333</ele><time>2026-05-03T11:31:19.311Z</time></trkpt><trkpt lat="42.2766494" lon="14.0208254"><ele>84.66666666666667</ele><time>2026-05-03T11:31:20.311Z</time></trkpt><trkpt lat="42.2768207" lon="14.0208739"><ele>86.0</ele><time>2026-05-03T11:31:21.314Z</time></trkpt><trkpt lat="42.2769901" lon="14.0209308"><ele>86.0</ele><time>2026-05-03T11:31:22.315Z</time></trkpt><trkpt lat="42.2771514" lon="14.0209941"><ele>86.0</ele><time>2026-05-03T11:31:23.313Z</time></trkpt><trkpt lat="42.2773151" lon="14.0210547"><ele>86.0</ele><time>2026-05-03T11:31:24.311Z</time></trkpt><trkpt lat="42.2774799" lon="14.0211341"><ele>84.66666666666667</ele><time>2026-05-03T11:31:25.314Z</time></trkpt><trkpt lat="42.2776478" lon="14.0212154"><ele>83.33333333333333</ele><time>2026-05-03T11:31:26.314Z</time></trkpt><trkpt lat="42.2778158" lon="14.0212994"><ele>82.0</ele><time>2026-05-03T11:31:27.316Z</time></trkpt><trkpt lat="42.27798" lon="14.0213885"><ele>81.66666666666666</ele><time>2026-05-03T11:31:28.317Z</time></trkpt><trkpt lat="42.278146" lon="14.021491"><ele>81.33333333333333</ele><time>2026-05-03T11:31:29.324Z</time></trkpt><trkpt lat="42.278314" lon="14.0215938"><ele>81.0</ele><time>2026-05-03T11:31:30.318Z</time></trkpt><trkpt lat="42.278472" lon="14.0216874"><ele>80.66666666666667</ele><time>2026-05-03T11:31:31.315Z</time></trkpt><trkpt lat="42.2786388" lon="14.0217853"><ele>80.33333333333334</ele><time>2026-05-03T11:31:32.316Z</time></trkpt><trkpt lat="42.2787958" lon="14.021891"><ele>80.0</ele><time>2026-05-03T11:31:33.309Z</time></trkpt><trkpt lat="42.2789583" lon="14.021991"><ele>80.0</ele><time>2026-05-03T11:31:34.313Z</time></trkpt><trkpt lat="42.2791252" lon="14.0220866"><ele>80.0</ele><time>2026-05-03T11:31:35.31Z</time></trkpt><trkpt lat="42.2792791" lon="14.0221874"><ele>80.0</ele><time>2026-05-03T11:31:36.308Z</time></trkpt><trkpt lat="42.2794348" lon="14.0222923"><ele>80.0</ele><time>2026-05-03T11:31:37.307Z</time></trkpt><trkpt lat="42.2795852" lon="14.0223885"><ele>80.0</ele><time>2026-05-03T11:31:38.311Z</time></trkpt><trkpt lat="42.2797305" lon="14.0224855"><ele>80.0</ele><time>2026-05-03T11:31:39.304Z</time></trkpt><trkpt lat="42.2798865" lon="14.0225848"><ele>81.0</ele><time>2026-05-03T11:31:40.299Z</time></trkpt><trkpt lat="42.2800442" lon="14.0226776"><ele>82.0</ele><time>2026-05-03T11:31:41.3Z</time></trkpt><trkpt lat="42.2801951" lon="14.0227716"><ele>83.0</ele><time>2026-05-03T11:31:42.299Z</time></trkpt><trkpt lat="42.2803456" lon="14.0228662"><ele>83.0</ele><time>2026-05-03T11:31:43.299Z</time></trkpt><trkpt lat="42.2804974" lon="14.0229604"><ele>83.0</ele><time>2026-05-03T11:31:44.293Z</time></trkpt><trkpt lat="42.2806452" lon="14.0230582"><ele>83.0</ele><time>2026-05-03T11:31:45.292Z</time></trkpt><trkpt lat="42.2807925" lon="14.0231528"><ele>83.66666666666667</ele><time>2026-05-03T11:31:46.287Z</time></trkpt><trkpt lat="42.2809439" lon="14.0232401"><ele>84.33333333333333</ele><time>2026-05-03T11:31:47.29Z</time></trkpt><trkpt lat="42.2810842" lon="14.0233378"><ele>85.0</ele><time>2026-05-03T11:31:48.285Z</time></trkpt><trkpt lat="42.2812345" lon="14.0234368"><ele>87.66666666666666</ele><time>2026-05-03T11:31:49.289Z</time></trkpt><trkpt lat="42.2813863" lon="14.0235498"><ele>90.33333333333333</ele><time>2026-05-03T11:31:50.283Z</time></trkpt><trkpt lat="42.2815407" lon="14.0236721"><ele>93.0</ele><time>2026-05-03T11:31:51.277Z</time></trkpt><trkpt lat="42.2816865" lon="14.023795"><ele>93.0</ele><time>2026-05-03T11:31:52.276Z</time></trkpt><trkpt lat="42.281846" lon="14.0239088"><ele>93.0</ele><time>2026-05-03T11:31:53.276Z</time></trkpt><trkpt lat="42.2819985" lon="14.0240331"><ele>93.0</ele><time>2026-05-03T11:31:54.273Z</time></trkpt><trkpt lat="42.2821425" lon="14.0241646"><ele>95.0</ele><time>2026-05-03T11:31:55.273Z</time></trkpt><trkpt lat="42.282284" lon="14.0242997"><ele>97.0</ele><time>2026-05-03T11:31:56.278Z</time></trkpt><trkpt lat="42.282419" lon="14.0244341"><ele>99.0</ele><time>2026-05-03T11:31:57.276Z</time></trkpt><trkpt lat="42.2825505" lon="14.0245755"><ele>99.0</ele><time>2026-05-03T11:31:58.278Z</time></trkpt><trkpt lat="42.2826795" lon="14.0247338"><ele>99.0</ele><time>2026-05-03T11:31:59.281Z</time></trkpt><trkpt lat="42.2828083" lon="14.0248934"><ele>99.0</ele><time>2026-05-03T11:32:00.278Z</time></trkpt><trkpt lat="42.2829366" lon="14.0250625"><ele>96.66666666666667</ele><time>2026-05-03T11:32:01.282Z</time></trkpt><trkpt lat="42.2830633" lon="14.0252329"><ele>94.33333333333334</ele><time>2026-05-03T11:32:02.281Z</time></trkpt><trkpt lat="42.2831916" lon="14.0254083"><ele>92.0</ele><time>2026-05-03T11:32:03.28Z</time></trkpt><trkpt lat="42.2833232" lon="14.0255957"><ele>92.0</ele><time>2026-05-03T11:32:04.287Z</time></trkpt><trkpt lat="42.2834463" lon="14.0257798"><ele>92.0</ele><time>2026-05-03T11:32:05.291Z</time></trkpt><trkpt lat="42.2835544" lon="14.0259769"><ele>92.0</ele><time>2026-05-03T11:32:06.294Z</time></trkpt><trkpt lat="42.2836614" lon="14.0261723"><ele>90.33333333333334</ele><time>2026-05-03T11:32:07.299Z</time></trkpt><trkpt lat="42.2837533" lon="14.0263767"><ele>88.66666666666667</ele><time>2026-05-03T11:32:08.294Z</time></trkpt><trkpt lat="42.283851" lon="14.0265787"><ele>87.0</ele><time>2026-05-03T11:32:09.297Z</time></trkpt><trkpt lat="42.2839356" lon="14.0267729"><ele>87.0</ele><time>2026-05-03T11:32:10.294Z</time></trkpt><trkpt lat="42.2840289" lon="14.0269693"><ele>87.0</ele><time>2026-05-03T11:32:11.295Z</time></trkpt><trkpt lat="42.2841118" lon="14.0271756"><ele>87.0</ele><time>2026-05-03T11:32:12.288Z</time></trkpt><trkpt lat="42.2841941" lon="14.0273752"><ele>90.0</ele><time>2026-05-03T11:32:13.292Z</time></trkpt><trkpt lat="42.2842735" lon="14.0275778"><ele>93.0</ele><time>2026-05-03T11:32:14.291Z</time></trkpt><trkpt lat="42.2843437" lon="14.0277835"><ele>96.0</ele><time>2026-05-03T11:32:15.293Z</time></trkpt><trkpt lat="42.2844117" lon="14.0279938"><ele>96.0</ele><time>2026-05-03T11:32:16.299Z</time></trkpt><trkpt lat="42.2845003" lon="14.0282008"><ele>96.0</ele><time>2026-05-03T11:32:17.302Z</time></trkpt><trkpt lat="42.2845904" lon="14.0284044"><ele>96.0</ele><time>2026-05-03T11:32:18.311Z</time></trkpt><trkpt lat="42.2846676" lon="14.0286154"><ele>95.66666666666667</ele><time>2026-05-03T11:32:19.31Z</time></trkpt><trkpt lat="42.2847458" lon="14.0288302"><ele>95.33333333333334</ele><time>2026-05-03T11:32:20.316Z</time></trkpt><trkpt lat="42.2848207" lon="14.0290397"><ele>95.0</ele><time>2026-05-03T11:32:21.314Z</time></trkpt><trkpt lat="42.2848913" lon="14.0292521"><ele>91.0</ele><time>2026-05-03T11:32:22.311Z</time></trkpt><trkpt lat="42.2849579" lon="14.0294618"><ele>87.0</ele><time>2026-05-03T11:32:23.305Z</time></trkpt><trkpt lat="42.2850436" lon="14.0296631"><ele>83.0</ele><time>2026-05-03T11:32:24.296Z</time></trkpt><trkpt lat="42.2851147" lon="14.0298673"><ele>85.66666666666667</ele><time>2026-05-03T11:32:25.298Z</time></trkpt><trkpt lat="42.2851977" lon="14.0300745"><ele>88.33333333333333</ele><time>2026-05-03T11:32:26.298Z</time></trkpt><trkpt lat="42.2852844" lon="14.0302813"><ele>91.0</ele><time>2026-05-03T11:32:27.299Z</time></trkpt><trkpt lat="42.2853625" lon="14.0304929"><ele>91.0</ele><time>2026-05-03T11:32:28.299Z</time></trkpt><trkpt lat="42.2854346" lon="14.0307027"><ele>91.0</ele><time>2026-05-03T11:32:29.302Z</time></trkpt><trkpt lat="42.2854982" lon="14.0308981"><ele>91.0</ele><time>2026-05-03T11:32:30.298Z</time></trkpt><trkpt lat="42.2855655" lon="14.0310974"><ele>88.33333333333333</ele><time>2026-05-03T11:32:31.297Z</time></trkpt><trkpt lat="42.2856415" lon="14.031287"><ele>85.66666666666667</ele><time>2026-05-03T11:32:32.293Z</time></trkpt><trkpt lat="42.2857151" lon="14.0314854"><ele>83.0</ele><time>2026-05-03T11:32:33.296Z</time></trkpt><trkpt lat="42.2857964" lon="14.0316784"><ele>83.0</ele><time>2026-05-03T11:32:34.302Z</time></trkpt><trkpt lat="42.2859024" lon="14.0318631"><ele>83.0</ele><time>2026-05-03T11:32:35.303Z</time></trkpt><trkpt lat="42.2860198" lon="14.0320357"><ele>83.0</ele><time>2026-05-03T11:32:36.303Z</time></trkpt><trkpt lat="42.2861489" lon="14.0321986"><ele>83.0</ele><time>2026-05-03T11:32:37.301Z</time></trkpt><trkpt lat="42.2862829" lon="14.032358"><ele>83.0</ele><time>2026-05-03T11:32:38.306Z</time></trkpt><trkpt lat="42.2864206" lon="14.032512"><ele>83.0</ele><time>2026-05-03T11:32:39.304Z</time></trkpt><trkpt lat="42.2865683" lon="14.0326651"><ele>82.0</ele><time>2026-05-03T11:32:40.305Z</time></trkpt><trkpt lat="42.286713" lon="14.0328114"><ele>81.0</ele><time>2026-05-03T11:32:41.304Z</time></trkpt><trkpt lat="42.2868587" lon="14.0329592"><ele>80.0</ele><time>2026-05-03T11:32:42.303Z</time></trkpt><trkpt lat="42.2870046" lon="14.0331063"><ele>80.0</ele><time>2026-05-03T11:32:43.302Z</time></trkpt><trkpt lat="42.2871463" lon="14.0332598"><ele>80.0</ele><time>2026-05-03T11:32:44.304Z</time></trkpt><trkpt lat="42.2872824" lon="14.033409"><ele>80.0</ele><time>2026-05-03T11:32:45.309Z</time></trkpt><trkpt lat="42.2874131" lon="14.0335545"><ele>78.0</ele><time>2026-05-03T11:32:46.308Z</time></trkpt><trkpt lat="42.2875467" lon="14.0337033"><ele>76.0</ele><time>2026-05-03T11:32:47.309Z</time></trkpt><trkpt lat="42.2876788" lon="14.0338481"><ele>74.0</ele><time>2026-05-03T11:32:48.311Z</time></trkpt><trkpt lat="42.2878078" lon="14.0339887"><ele>74.0</ele><time>2026-05-03T11:32:49.308Z</time></trkpt><trkpt lat="42.287939" lon="14.0341297"><ele>74.0</ele><time>2026-05-03T11:32:50.31Z</time></trkpt><trkpt lat="42.288078" lon="14.0342782"><ele>74.0</ele><time>2026-05-03T11:32:51.323Z</time></trkpt><trkpt lat="42.2882073" lon="14.0344229"><ele>74.33333333333334</ele><time>2026-05-03T11:32:52.308Z</time></trkpt><trkpt lat="42.2883356" lon="14.0345634"><ele>74.66666666666667</ele><time>2026-05-03T11:32:53.309Z</time></trkpt><trkpt lat="42.2884653" lon="14.0347104"><ele>75.0</ele><time>2026-05-03T11:32:54.312Z</time></trkpt><trkpt lat="42.2885914" lon="14.0348513"><ele>75.33333333333333</ele><time>2026-05-03T11:32:55.309Z</time></trkpt><trkpt lat="42.2887275" lon="14.0349899"><ele>75.66666666666666</ele><time>2026-05-03T11:32:56.307Z</time></trkpt><trkpt lat="42.2888595" lon="14.0351329"><ele>76.0</ele><time>2026-05-03T11:32:57.308Z</time></trkpt><trkpt lat="42.2889827" lon="14.0352704"><ele>75.33333333333333</ele><time>2026-05-03T11:32:58.307Z</time></trkpt><trkpt lat="42.2891146" lon="14.0354057"><ele>74.66666666666667</ele><time>2026-05-03T11:32:59.31Z</time></trkpt><trkpt lat="42.2892437" lon="14.0355437"><ele>74.0</ele><time>2026-05-03T11:33:00.298Z</time></trkpt><trkpt lat="42.2893671" lon="14.0356842"><ele>76.0</ele><time>2026-05-03T11:33:01.303Z</time></trkpt><trkpt lat="42.2895058" lon="14.0358315"><ele>78.0</ele><time>2026-05-03T11:33:02.29Z</time></trkpt><trkpt lat="42.2896315" lon="14.0359748"><ele>80.0</ele><time>2026-05-03T11:33:03.287Z</time></trkpt><trkpt lat="42.2897574" lon="14.0361108"><ele>78.33333333333334</ele><time>2026-05-03T11:33:04.281Z</time></trkpt><trkpt lat="42.2898941" lon="14.0362629"><ele>76.66666666666667</ele><time>2026-05-03T11:33:05.281Z</time></trkpt><trkpt lat="42.2900195" lon="14.0364116"><ele>75.0</ele><time>2026-05-03T11:33:06.278Z</time></trkpt><trkpt lat="42.2901541" lon="14.0365605"><ele>80.0</ele><time>2026-05-03T11:33:07.282Z</time></trkpt><trkpt lat="42.2902873" lon="14.0367012"><ele>85.0</ele><time>2026-05-03T11:33:08.276Z</time></trkpt><trkpt lat="42.2904187" lon="14.0368389"><ele>90.0</ele><time>2026-05-03T11:33:09.281Z</time></trkpt><trkpt lat="42.2905568" lon="14.0369802"><ele>85.33333333333333</ele><time>2026-05-03T11:33:10.273Z</time></trkpt><trkpt lat="42.290695" lon="14.0371262"><ele>80.66666666666666</ele><time>2026-05-03T11:33:11.28Z</time></trkpt><trkpt lat="42.2908255" lon="14.03727"><ele>76.0</ele><time>2026-05-03T11:33:12.277Z</time></trkpt><trkpt lat="42.2909603" lon="14.0374149"><ele>80.33333333333333</ele><time>2026-05-03T11:33:13.276Z</time></trkpt><trkpt lat="42.2911061" lon="14.0375667"><ele>84.66666666666667</ele><time>2026-05-03T11:33:14.272Z</time></trkpt><trkpt lat="42.2912446" lon="14.0377087"><ele>89.0</ele><time>2026-05-03T11:33:15.273Z</time></trkpt><trkpt lat="42.2913889" lon="14.0378448"><ele>85.33333333333334</ele><time>2026-05-03T11:33:16.271Z</time></trkpt><trkpt lat="42.2915388" lon="14.0379694"><ele>81.66666666666667</ele><time>2026-05-03T11:33:17.27Z</time></trkpt><trkpt lat="42.2916945" lon="14.0380749"><ele>78.0</ele><time>2026-05-03T11:33:18.27Z</time></trkpt><trkpt lat="42.2918509" lon="14.0381927"><ele>75.66666666666667</ele><time>2026-05-03T11:33:19.271Z</time></trkpt><trkpt lat="42.2920072" lon="14.0383038"><ele>73.33333333333334</ele><time>2026-05-03T11:33:20.271Z</time></trkpt><trkpt lat="42.2921677" lon="14.038427"><ele>71.0</ele><time>2026-05-03T11:33:21.287Z</time></trkpt><trkpt lat="42.2923196" lon="14.0385395"><ele>71.0</ele><time>2026-05-03T11:33:22.279Z</time></trkpt><trkpt lat="42.2924735" lon="14.0386521"><ele>71.0</ele><time>2026-05-03T11:33:23.283Z</time></trkpt><trkpt lat="42.2926135" lon="14.0387636"><ele>71.0</ele><time>2026-05-03T11:33:24.28Z</time></trkpt><trkpt lat="42.2927686" lon="14.0388654"><ele>71.0</ele><time>2026-05-03T11:33:25.301Z</time></trkpt><trkpt lat="42.2929254" lon="14.038972"><ele>71.0</ele><time>2026-05-03T11:33:26.308Z</time></trkpt><trkpt lat="42.2930732" lon="14.0390849"><ele>71.0</ele><time>2026-05-03T11:33:27.308Z</time></trkpt><trkpt lat="42.2932239" lon="14.0391836"><ele>71.66666666666667</ele><time>2026-05-03T11:33:28.309Z</time></trkpt><trkpt lat="42.2933551" lon="14.0392915"><ele>72.33333333333333</ele><time>2026-05-03T11:33:29.313Z</time></trkpt><trkpt lat="42.2934971" lon="14.0393956"><ele>73.0</ele><time>2026-05-03T11:33:30.308Z</time></trkpt><trkpt lat="42.2936364" lon="14.0394971"><ele>73.0</ele><time>2026-05-03T11:33:31.31Z</time></trkpt><trkpt lat="42.293766" lon="14.0395859"><ele>73.0</ele><time>2026-05-03T11:33:32.303Z</time></trkpt><trkpt lat="42.2938906" lon="14.0396763"><ele>73.0</ele><time>2026-05-03T11:33:33.307Z</time></trkpt><trkpt lat="42.2940013" lon="14.039746"><ele>73.0</ele><time>2026-05-03T11:33:34.3Z</time></trkpt><trkpt lat="42.2940959" lon="14.0398073"><ele>73.0</ele><time>2026-05-03T11:33:35.306Z</time></trkpt><trkpt lat="42.2941904" lon="14.0398579"><ele>73.0</ele><time>2026-05-03T11:33:36.306Z</time></trkpt><trkpt lat="42.2942712" lon="14.0399115"><ele>73.0</ele><time>2026-05-03T11:33:37.3Z</time></trkpt><trkpt lat="42.2943478" lon="14.0399636"><ele>73.0</ele><time>2026-05-03T11:33:38.301Z</time></trkpt><trkpt lat="42.2944228" lon="14.0400279"><ele>73.0</ele><time>2026-05-03T11:33:39.3Z</time></trkpt><trkpt lat="42.294496" lon="14.0401141"><ele>73.0</ele><time>2026-05-03T11:33:40.314Z</time></trkpt><trkpt lat="42.2945627" lon="14.0402068"><ele>73.0</ele><time>2026-05-03T11:33:41.311Z</time></trkpt><trkpt lat="42.2946194" lon="14.0402794"><ele>73.0</ele><time>2026-05-03T11:33:42.31Z</time></trkpt><trkpt lat="42.2946839" lon="14.0403037"><ele>73.0</ele><time>2026-05-03T11:33:43.298Z</time></trkpt><trkpt lat="42.2947599" lon="14.040305"><ele>73.0</ele><time>2026-05-03T11:33:44.302Z</time></trkpt><trkpt lat="42.294856" lon="14.0403006"><ele>73.0</ele><time>2026-05-03T11:33:45.297Z</time></trkpt><trkpt lat="42.2949662" lon="14.0403269"><ele>73.0</ele><time>2026-05-03T11:33:46.299Z</time></trkpt><trkpt lat="42.2950863" lon="14.0403844"><ele>73.0</ele><time>2026-05-03T11:33:47.296Z</time></trkpt><trkpt lat="42.2952255" lon="14.0404653"><ele>73.0</ele><time>2026-05-03T11:33:48.303Z</time></trkpt><trkpt lat="42.2953875" lon="14.0405588"><ele>73.0</ele><time>2026-05-03T11:33:49.297Z</time></trkpt><trkpt lat="42.2955676" lon="14.0406624"><ele>73.0</ele><time>2026-05-03T11:33:50.305Z</time></trkpt><trkpt lat="42.2957356" lon="14.0407653"><ele>73.0</ele><time>2026-05-03T11:33:51.306Z</time></trkpt><trkpt lat="42.295885" lon="14.0408751"><ele>74.0</ele><time>2026-05-03T11:33:52.312Z</time></trkpt><trkpt lat="42.2960428" lon="14.0409823"><ele>75.0</ele><time>2026-05-03T11:33:53.311Z</time></trkpt><trkpt lat="42.2961968" lon="14.0410753"><ele>76.0</ele><time>2026-05-03T11:33:54.303Z</time></trkpt><trkpt lat="42.2963413" lon="14.0411626"><ele>76.75</ele><time>2026-05-03T11:33:55.308Z</time></trkpt><trkpt lat="42.2964714" lon="14.0412557"><ele>77.5</ele><time>2026-05-03T11:33:56.306Z</time></trkpt><trkpt lat="42.2965982" lon="14.041341"><ele>78.25</ele><time>2026-05-03T11:33:57.303Z</time></trkpt><trkpt lat="42.2967288" lon="14.0414294"><ele>79.0</ele><time>2026-05-03T11:33:58.299Z</time></trkpt><trkpt lat="42.2968613" lon="14.0415418"><ele>81.33333333333333</ele><time>2026-05-03T11:33:59.3Z</time></trkpt><trkpt lat="42.2969792" lon="14.0416825"><ele>83.66666666666667</ele><time>2026-05-03T11:34:00.295Z</time></trkpt><trkpt lat="42.2970836" lon="14.0418366"><ele>86.0</ele><time>2026-05-03T11:34:01.288Z</time></trkpt><trkpt lat="42.2971927" lon="14.0419958"><ele>86.33333333333334</ele><time>2026-05-03T11:34:02.288Z</time></trkpt><trkpt lat="42.2972772" lon="14.0421681"><ele>86.66666666666667</ele><time>2026-05-03T11:34:03.284Z</time></trkpt><trkpt lat="42.2973563" lon="14.0423534"><ele>87.0</ele><time>2026-05-03T11:34:04.285Z</time></trkpt><trkpt lat="42.2974169" lon="14.042547"><ele>87.0</ele><time>2026-05-03T11:34:05.285Z</time></trkpt><trkpt lat="42.2974761" lon="14.0427459"><ele>87.0</ele><time>2026-05-03T11:34:06.295Z</time></trkpt><trkpt lat="42.2975434" lon="14.0429509"><ele>87.0</ele><time>2026-05-03T11:34:07.296Z</time></trkpt><trkpt lat="42.2975931" lon="14.0431571"><ele>87.66666666666667</ele><time>2026-05-03T11:34:08.292Z</time></trkpt><trkpt lat="42.2976266" lon="14.0433529"><ele>88.33333333333334</ele><time>2026-05-03T11:34:09.299Z</time></trkpt><trkpt lat="42.2976703" lon="14.0435559"><ele>89.0</ele><time>2026-05-03T11:34:10.296Z</time></trkpt><trkpt lat="42.297718" lon="14.0437647"><ele>89.0</ele><time>2026-05-03T11:34:11.293Z</time></trkpt><trkpt lat="42.2977658" lon="14.0439698"><ele>89.0</ele><time>2026-05-03T11:34:12.292Z</time></trkpt><trkpt lat="42.2978187" lon="14.0441803"><ele>89.0</ele><time>2026-05-03T11:34:13.299Z</time></trkpt><trkpt lat="42.2978597" lon="14.0443791"><ele>88.33333333333334</ele><time>2026-05-03T11:34:14.292Z</time></trkpt><trkpt lat="42.2979067" lon="14.044577"><ele>87.66666666666667</ele><time>2026-05-03T11:34:15.294Z</time></trkpt><trkpt lat="42.2979576" lon="14.0447705"><ele>87.0</ele><time>2026-05-03T11:34:16.292Z</time></trkpt><trkpt lat="42.2980174" lon="14.0449477"><ele>83.0</ele><time>2026-05-03T11:34:17.291Z</time></trkpt><trkpt lat="42.2980936" lon="14.0451308"><ele>79.0</ele><time>2026-05-03T11:34:18.298Z</time></trkpt><trkpt lat="42.2981729" lon="14.0453085"><ele>75.0</ele><time>2026-05-03T11:34:19.294Z</time></trkpt><trkpt lat="42.2982505" lon="14.0454886"><ele>75.0</ele><time>2026-05-03T11:34:20.293Z</time></trkpt><trkpt lat="42.2983338" lon="14.0456656"><ele>75.0</ele><time>2026-05-03T11:34:21.293Z</time></trkpt><trkpt lat="42.2984279" lon="14.0458447"><ele>75.0</ele><time>2026-05-03T11:34:22.291Z</time></trkpt><trkpt lat="42.298499" lon="14.0460217"><ele>76.66666666666667</ele><time>2026-05-03T11:34:23.303Z</time></trkpt><trkpt lat="42.29858" lon="14.0461984"><ele>78.33333333333334</ele><time>2026-05-03T11:34:24.299Z</time></trkpt><trkpt lat="42.2986653" lon="14.0463615"><ele>80.0</ele><time>2026-05-03T11:34:25.298Z</time></trkpt><trkpt lat="42.2987544" lon="14.0465255"><ele>78.5</ele><time>2026-05-03T11:34:26.297Z</time></trkpt><trkpt lat="42.2988302" lon="14.0466891"><ele>77.0</ele><time>2026-05-03T11:34:27.301Z</time></trkpt><trkpt lat="42.2989133" lon="14.0468579"><ele>75.5</ele><time>2026-05-03T11:34:28.303Z</time></trkpt><trkpt lat="42.2989851" lon="14.0470265"><ele>74.0</ele><time>2026-05-03T11:34:29.309Z</time></trkpt><trkpt lat="42.2990668" lon="14.0471958"><ele>74.0</ele><time>2026-05-03T11:34:30.301Z</time></trkpt><trkpt lat="42.299149" lon="14.0473643"><ele>74.0</ele><time>2026-05-03T11:34:31.302Z</time></trkpt><trkpt lat="42.2992352" lon="14.0475337"><ele>74.0</ele><time>2026-05-03T11:34:32.304Z</time></trkpt><trkpt lat="42.2993217" lon="14.0477051"><ele>75.33333333333334</ele><time>2026-05-03T11:34:33.306Z</time></trkpt><trkpt lat="42.2994062" lon="14.047874"><ele>76.66666666666667</ele><time>2026-05-03T11:34:34.306Z</time></trkpt><trkpt lat="42.2994873" lon="14.048043"><ele>78.0</ele><time>2026-05-03T11:34:35.3Z</time></trkpt><trkpt lat="42.2995729" lon="14.0482152"><ele>78.75</ele><time>2026-05-03T11:34:36.303Z</time></trkpt><trkpt lat="42.2996556" lon="14.0483858"><ele>79.5</ele><time>2026-05-03T11:34:37.303Z</time></trkpt><trkpt lat="42.2997385" lon="14.0485515"><ele>80.25</ele><time>2026-05-03T11:34:38.304Z</time></trkpt><trkpt lat="42.2998232" lon="14.0487193"><ele>81.0</ele><time>2026-05-03T11:34:39.313Z</time></trkpt><trkpt lat="42.299896" lon="14.0488818"><ele>79.0</ele><time>2026-05-03T11:34:40.307Z</time></trkpt><trkpt lat="42.299972" lon="14.0490339"><ele>77.0</ele><time>2026-05-03T11:34:41.308Z</time></trkpt><trkpt lat="42.3000575" lon="14.0491914"><ele>75.0</ele><time>2026-05-03T11:34:42.312Z</time></trkpt><trkpt lat="42.3001417" lon="14.0493399"><ele>73.0</ele><time>2026-05-03T11:34:43.31Z</time></trkpt><trkpt lat="42.3002325" lon="14.0494773"><ele>73.0</ele><time>2026-05-03T11:34:44.309Z</time></trkpt><trkpt lat="42.3003414" lon="14.0496141"><ele>73.0</ele><time>2026-05-03T11:34:45.315Z</time></trkpt><trkpt lat="42.3004538" lon="14.0497439"><ele>73.0</ele><time>2026-05-03T11:34:46.307Z</time></trkpt><trkpt lat="42.3005748" lon="14.0498759"><ele>72.0</ele><time>2026-05-03T11:34:47.308Z</time></trkpt><trkpt lat="42.3007052" lon="14.0500041"><ele>71.0</ele><time>2026-05-03T11:34:48.314Z</time></trkpt><trkpt lat="42.3008452" lon="14.0501191"><ele>70.0</ele><time>2026-05-03T11:34:49.315Z</time></trkpt><trkpt lat="42.3009751" lon="14.050243"><ele>70.0</ele><time>2026-05-03T11:34:50.315Z</time></trkpt><trkpt lat="42.3011011" lon="14.050362"><ele>70.0</ele><time>2026-05-03T11:34:51.312Z</time></trkpt><trkpt lat="42.3012217" lon="14.0504854"><ele>70.0</ele><time>2026-05-03T11:34:52.315Z</time></trkpt><trkpt lat="42.3013379" lon="14.0506055"><ele>68.0</ele><time>2026-05-03T11:34:53.311Z</time></trkpt><trkpt lat="42.3014602" lon="14.0507231"><ele>66.0</ele><time>2026-05-03T11:34:54.317Z</time></trkpt><trkpt lat="42.3015869" lon="14.0508385"><ele>64.0</ele><time>2026-05-03T11:34:55.313Z</time></trkpt><trkpt lat="42.3017144" lon="14.0509542"><ele>64.0</ele><time>2026-05-03T11:34:56.314Z</time></trkpt><trkpt lat="42.3018349" lon="14.0510637"><ele>64.0</ele><time>2026-05-03T11:34:57.313Z</time></trkpt><trkpt lat="42.3019481" lon="14.0511718"><ele>64.0</ele><time>2026-05-03T11:34:58.319Z</time></trkpt><trkpt lat="42.3020558" lon="14.0512767"><ele>64.0</ele><time>2026-05-03T11:34:59.316Z</time></trkpt><trkpt lat="42.3021633" lon="14.0513773"><ele>63.75</ele><time>2026-05-03T11:35:00.311Z</time></trkpt><trkpt lat="42.3022628" lon="14.0514726"><ele>63.5</ele><time>2026-05-03T11:35:01.313Z</time></trkpt><trkpt lat="42.3023553" lon="14.0515682"><ele>63.25</ele><time>2026-05-03T11:35:02.314Z</time></trkpt><trkpt lat="42.3024463" lon="14.051655"><ele>63.0</ele><time>2026-05-03T11:35:03.311Z</time></trkpt><trkpt lat="42.302533" lon="14.0517381"><ele>63.0</ele><time>2026-05-03T11:35:04.311Z</time></trkpt><trkpt lat="42.3026182" lon="14.0518204"><ele>63.0</ele><time>2026-05-03T11:35:05.315Z</time></trkpt><trkpt lat="42.3027" lon="14.0519029"><ele>63.0</ele><time>2026-05-03T11:35:06.309Z</time></trkpt><trkpt lat="42.302781" lon="14.0519796"><ele>63.0</ele><time>2026-05-03T11:35:07.313Z</time></trkpt><trkpt lat="42.302856" lon="14.0520563"><ele>63.0</ele><time>2026-05-03T11:35:08.309Z</time></trkpt><trkpt lat="42.3029317" lon="14.0521367"><ele>63.0</ele><time>2026-05-03T11:35:09.308Z</time></trkpt><trkpt lat="42.303006" lon="14.0522128"><ele>63.0</ele><time>2026-05-03T11:35:10.306Z</time></trkpt><trkpt lat="42.3030708" lon="14.0522665"><ele>63.0</ele><time>2026-05-03T11:35:11.31Z</time></trkpt><trkpt lat="42.3031294" lon="14.0523157"><ele>63.0</ele><time>2026-05-03T11:35:12.312Z</time></trkpt><trkpt lat="42.3031844" lon="14.052367"><ele>63.0</ele><time>2026-05-03T11:35:13.307Z</time></trkpt><trkpt lat="42.3032383" lon="14.0524186"><ele>63.0</ele><time>2026-05-03T11:35:14.317Z</time></trkpt><trkpt lat="42.3033362" lon="14.052515"><ele>63.0</ele><time>2026-05-03T11:35:16.311Z</time></trkpt><trkpt lat="42.3033926" lon="14.0525776"><ele>63.0</ele><time>2026-05-03T11:35:17.308Z</time></trkpt><trkpt lat="42.3034549" lon="14.0526439"><ele>63.0</ele><time>2026-05-03T11:35:18.309Z</time></trkpt><trkpt lat="42.3035148" lon="14.0527016"><ele>63.0</ele><time>2026-05-03T11:35:19.309Z</time></trkpt><trkpt lat="42.3035708" lon="14.0527626"><ele>63.0</ele><time>2026-05-03T11:35:20.31Z</time></trkpt><trkpt lat="42.3036314" lon="14.0528259"><ele>63.0</ele><time>2026-05-03T11:35:21.309Z</time></trkpt><trkpt lat="42.3037026" lon="14.0528971"><ele>63.0</ele><time>2026-05-03T11:35:22.31Z</time></trkpt><trkpt lat="42.3037718" lon="14.0529701"><ele>63.0</ele><time>2026-05-03T11:35:23.312Z</time></trkpt><trkpt lat="42.3038486" lon="14.053048"><ele>63.0</ele><time>2026-05-03T11:35:24.309Z</time></trkpt><trkpt lat="42.3039269" lon="14.0531346"><ele>63.0</ele><time>2026-05-03T11:35:25.317Z</time></trkpt><trkpt lat="42.3040059" lon="14.053235"><ele>63.0</ele><time>2026-05-03T11:35:26.304Z</time></trkpt><trkpt lat="42.3040782" lon="14.0533533"><ele>62.5</ele><time>2026-05-03T11:35:27.305Z</time></trkpt><trkpt lat="42.3041465" lon="14.0534938"><ele>62.0</ele><time>2026-05-03T11:35:28.312Z</time></trkpt><trkpt lat="42.304212" lon="14.0536424"><ele>61.5</ele><time>2026-05-03T11:35:29.314Z</time></trkpt><trkpt lat="42.3042809" lon="14.0537708"><ele>61.0</ele><time>2026-05-03T11:35:30.306Z</time></trkpt><trkpt lat="42.3043452" lon="14.0538961"><ele>61.0</ele><time>2026-05-03T11:35:31.308Z</time></trkpt><trkpt lat="42.3043982" lon="14.0540202"><ele>60.99999999999999</ele><time>2026-05-03T11:35:32.305Z</time></trkpt><trkpt lat="42.3044606" lon="14.0541415"><ele>60.99999999999999</ele><time>2026-05-03T11:35:33.308Z</time></trkpt><trkpt lat="42.3045228" lon="14.0542683"><ele>61.0</ele><time>2026-05-03T11:35:34.311Z</time></trkpt><trkpt lat="42.3045875" lon="14.0544069"><ele>61.0</ele><time>2026-05-03T11:35:35.31Z</time></trkpt><trkpt lat="42.3046621" lon="14.0545356"><ele>61.0</ele><time>2026-05-03T11:35:36.307Z</time></trkpt><trkpt lat="42.3047351" lon="14.0546744"><ele>61.0</ele><time>2026-05-03T11:35:37.31Z</time></trkpt><trkpt lat="42.3048031" lon="14.0548097"><ele>61.0</ele><time>2026-05-03T11:35:38.309Z</time></trkpt><trkpt lat="42.3048724" lon="14.0549511"><ele>61.0</ele><time>2026-05-03T11:35:39.315Z</time></trkpt><trkpt lat="42.3049304" lon="14.0550952"><ele>61.599999999999994</ele><time>2026-05-03T11:35:40.309Z</time></trkpt><trkpt lat="42.304992" lon="14.055232"><ele>62.199999999999996</ele><time>2026-05-03T11:35:41.309Z</time></trkpt><trkpt lat="42.305044" lon="14.0553612"><ele>62.800000000000004</ele><time>2026-05-03T11:35:42.31Z</time></trkpt><trkpt lat="42.3051057" lon="14.0554685"><ele>63.400000000000006</ele><time>2026-05-03T11:35:43.307Z</time></trkpt><trkpt lat="42.3051518" lon="14.0555691"><ele>64.0</ele><time>2026-05-03T11:35:44.311Z</time></trkpt><trkpt lat="42.3052081" lon="14.055683"><ele>64.75</ele><time>2026-05-03T11:35:45.32Z</time></trkpt><trkpt lat="42.3052674" lon="14.0558134"><ele>65.5</ele><time>2026-05-03T11:35:46.309Z</time></trkpt><trkpt lat="42.3053354" lon="14.0559614"><ele>66.25</ele><time>2026-05-03T11:35:47.314Z</time></trkpt><trkpt lat="42.3054012" lon="14.0561092"><ele>67.0</ele><time>2026-05-03T11:35:48.313Z</time></trkpt><trkpt lat="42.3054615" lon="14.0562383"><ele>67.0</ele><time>2026-05-03T11:35:49.31Z</time></trkpt><trkpt lat="42.3055189" lon="14.0563607"><ele>67.0</ele><time>2026-05-03T11:35:50.312Z</time></trkpt><trkpt lat="42.3055673" lon="14.0564779"><ele>67.0</ele><time>2026-05-03T11:35:51.314Z</time></trkpt><trkpt lat="42.3056343" lon="14.0566091"><ele>67.0</ele><time>2026-05-03T11:35:52.31Z</time></trkpt><trkpt lat="42.3057006" lon="14.0567391"><ele>67.0</ele><time>2026-05-03T11:35:53.314Z</time></trkpt><trkpt lat="42.305764" lon="14.0568753"><ele>66.75</ele><time>2026-05-03T11:35:54.314Z</time></trkpt><trkpt lat="42.3058186" lon="14.0570193"><ele>66.5</ele><time>2026-05-03T11:35:55.31Z</time></trkpt><trkpt lat="42.3058803" lon="14.0571486"><ele>66.25</ele><time>2026-05-03T11:35:56.314Z</time></trkpt><trkpt lat="42.3059385" lon="14.057287"><ele>66.0</ele><time>2026-05-03T11:35:57.313Z</time></trkpt><trkpt lat="42.3060046" lon="14.0574172"><ele>65.5</ele><time>2026-05-03T11:35:58.314Z</time></trkpt><trkpt lat="42.3060679" lon="14.0575559"><ele>65.0</ele><time>2026-05-03T11:35:59.316Z</time></trkpt><trkpt lat="42.3061402" lon="14.0577062"><ele>64.5</ele><time>2026-05-03T11:36:00.315Z</time></trkpt><trkpt lat="42.3062145" lon="14.0578514"><ele>64.0</ele><time>2026-05-03T11:36:01.319Z</time></trkpt><trkpt lat="42.3062891" lon="14.0579863"><ele>64.0</ele><time>2026-05-03T11:36:02.311Z</time></trkpt><trkpt lat="42.3063576" lon="14.0581099"><ele>64.0</ele><time>2026-05-03T11:36:03.311Z</time></trkpt><trkpt lat="42.3064218" lon="14.0582412"><ele>64.0</ele><time>2026-05-03T11:36:04.31Z</time></trkpt><trkpt lat="42.3064801" lon="14.0583706"><ele>64.0</ele><time>2026-05-03T11:36:05.313Z</time></trkpt><trkpt lat="42.3065457" lon="14.058496"><ele>64.4</ele><time>2026-05-03T11:36:06.311Z</time></trkpt><trkpt lat="42.3066077" lon="14.058617"><ele>64.80000000000001</ele><time>2026-05-03T11:36:07.312Z</time></trkpt><trkpt lat="42.3066641" lon="14.0587476"><ele>65.19999999999999</ele><time>2026-05-03T11:36:08.311Z</time></trkpt><trkpt lat="42.3067219" lon="14.0588818"><ele>65.6</ele><time>2026-05-03T11:36:09.312Z</time></trkpt><trkpt lat="42.3067812" lon="14.0590008"><ele>66.0</ele><time>2026-05-03T11:36:10.312Z</time></trkpt><trkpt lat="42.306833" lon="14.0591147"><ele>66.2</ele><time>2026-05-03T11:36:11.312Z</time></trkpt><trkpt lat="42.3068898" lon="14.0592178"><ele>66.39999999999999</ele><time>2026-05-03T11:36:12.31Z</time></trkpt><trkpt lat="42.3069329" lon="14.0593275"><ele>66.6</ele><time>2026-05-03T11:36:13.307Z</time></trkpt><trkpt lat="42.3069883" lon="14.0594274"><ele>66.8</ele><time>2026-05-03T11:36:14.314Z</time></trkpt><trkpt lat="42.3070423" lon="14.0595449"><ele>67.0</ele><time>2026-05-03T11:36:15.312Z</time></trkpt><trkpt lat="42.3070949" lon="14.0596666"><ele>67.0</ele><time>2026-05-03T11:36:16.313Z</time></trkpt><trkpt lat="42.3071527" lon="14.0597803"><ele>67.0</ele><time>2026-05-03T11:36:17.314Z</time></trkpt><trkpt lat="42.3072072" lon="14.0598874"><ele>67.0</ele><time>2026-05-03T11:36:18.308Z</time></trkpt><trkpt lat="42.3072652" lon="14.0599894"><ele>67.0</ele><time>2026-05-03T11:36:19.31Z</time></trkpt><trkpt lat="42.3073215" lon="14.0601054"><ele>67.0</ele><time>2026-05-03T11:36:20.311Z</time></trkpt><trkpt lat="42.307379" lon="14.0602174"><ele>68.0</ele><time>2026-05-03T11:36:21.312Z</time></trkpt><trkpt lat="42.3074434" lon="14.0603315"><ele>69.0</ele><time>2026-05-03T11:36:22.31Z</time></trkpt><trkpt lat="42.3075123" lon="14.0604666"><ele>70.0</ele><time>2026-05-03T11:36:23.311Z</time></trkpt><trkpt lat="42.3075853" lon="14.0606127"><ele>71.0</ele><time>2026-05-03T11:36:24.31Z</time></trkpt><trkpt lat="42.307664" lon="14.0607804"><ele>71.25</ele><time>2026-05-03T11:36:25.311Z</time></trkpt><trkpt lat="42.3077625" lon="14.0609609"><ele>71.5</ele><time>2026-05-03T11:36:26.31Z</time></trkpt><trkpt lat="42.3078355" lon="14.061123"><ele>71.75</ele><time>2026-05-03T11:36:27.311Z</time></trkpt><trkpt lat="42.3078968" lon="14.0612622"><ele>72.0</ele><time>2026-05-03T11:36:28.308Z</time></trkpt><trkpt lat="42.30796" lon="14.0613923"><ele>72.0</ele><time>2026-05-03T11:36:29.313Z</time></trkpt><trkpt lat="42.3080175" lon="14.0615317"><ele>72.0</ele><time>2026-05-03T11:36:30.308Z</time></trkpt><trkpt lat="42.3080768" lon="14.0616537"><ele>72.0</ele><time>2026-05-03T11:36:31.317Z</time></trkpt><trkpt lat="42.3081324" lon="14.0617922"><ele>72.0</ele><time>2026-05-03T11:36:32.312Z</time></trkpt><trkpt lat="42.3081988" lon="14.0619232"><ele>72.0</ele><time>2026-05-03T11:36:33.309Z</time></trkpt><trkpt lat="42.3082636" lon="14.0620564"><ele>72.0</ele><time>2026-05-03T11:36:34.313Z</time></trkpt><trkpt lat="42.3083261" lon="14.0621912"><ele>72.0</ele><time>2026-05-03T11:36:35.312Z</time></trkpt><trkpt lat="42.3083862" lon="14.0623259"><ele>72.0</ele><time>2026-05-03T11:36:36.312Z</time></trkpt><trkpt lat="42.308447" lon="14.0624582"><ele>72.2</ele><time>2026-05-03T11:36:37.312Z</time></trkpt><trkpt lat="42.3085127" lon="14.0625872"><ele>72.4</ele><time>2026-05-03T11:36:38.312Z</time></trkpt><trkpt lat="42.3085719" lon="14.0627133"><ele>72.6</ele><time>2026-05-03T11:36:39.311Z</time></trkpt><trkpt lat="42.3086366" lon="14.0628378"><ele>72.8</ele><time>2026-05-03T11:36:40.311Z</time></trkpt><trkpt lat="42.308699" lon="14.0629609"><ele>73.0</ele><time>2026-05-03T11:36:41.312Z</time></trkpt><trkpt lat="42.3087588" lon="14.0630927"><ele>73.0</ele><time>2026-05-03T11:36:42.311Z</time></trkpt><trkpt lat="42.3088194" lon="14.063225"><ele>73.0</ele><time>2026-05-03T11:36:43.311Z</time></trkpt><trkpt lat="42.3088874" lon="14.0633593"><ele>73.0</ele><time>2026-05-03T11:36:44.311Z</time></trkpt><trkpt lat="42.3089565" lon="14.0634829"><ele>73.0</ele><time>2026-05-03T11:36:45.318Z</time></trkpt><trkpt lat="42.3090193" lon="14.0636011"><ele>73.0</ele><time>2026-05-03T11:36:46.312Z</time></trkpt><trkpt lat="42.3090766" lon="14.0637157"><ele>73.0</ele><time>2026-05-03T11:36:47.321Z</time></trkpt><trkpt lat="42.3091365" lon="14.0638274"><ele>73.0</ele><time>2026-05-03T11:36:48.313Z</time></trkpt><trkpt lat="42.3091912" lon="14.0639441"><ele>73.0</ele><time>2026-05-03T11:36:49.314Z</time></trkpt><trkpt lat="42.309243" lon="14.0640511"><ele>73.0</ele><time>2026-05-03T11:36:50.318Z</time></trkpt><trkpt lat="42.3092976" lon="14.0641628"><ele>72.0</ele><time>2026-05-03T11:36:51.315Z</time></trkpt><trkpt lat="42.3093507" lon="14.0642766"><ele>71.0</ele><time>2026-05-03T11:36:52.313Z</time></trkpt><trkpt lat="42.3093969" lon="14.0643869"><ele>70.0</ele><time>2026-05-03T11:36:53.319Z</time></trkpt><trkpt lat="42.3094482" lon="14.0644852"><ele>69.0</ele><time>2026-05-03T11:36:54.315Z</time></trkpt><trkpt lat="42.3095013" lon="14.0645999"><ele>68.0</ele><time>2026-05-03T11:36:55.314Z</time></trkpt><trkpt lat="42.3095718" lon="14.0647273"><ele>68.0</ele><time>2026-05-03T11:36:56.311Z</time></trkpt><trkpt lat="42.3096447" lon="14.0648617"><ele>68.0</ele><time>2026-05-03T11:36:57.314Z</time></trkpt><trkpt lat="42.3097122" lon="14.0650074"><ele>68.0</ele><time>2026-05-03T11:36:58.325Z</time></trkpt><trkpt lat="42.3097781" lon="14.0651536"><ele>68.0</ele><time>2026-05-03T11:36:59.316Z</time></trkpt><trkpt lat="42.309837" lon="14.0652813"><ele>68.6</ele><time>2026-05-03T11:37:00.313Z</time></trkpt><trkpt lat="42.3098881" lon="14.0654113"><ele>69.19999999999999</ele><time>2026-05-03T11:37:01.318Z</time></trkpt><trkpt lat="42.3099487" lon="14.0655354"><ele>69.8</ele><time>2026-05-03T11:37:02.314Z</time></trkpt><trkpt lat="42.3100126" lon="14.0656499"><ele>70.39999999999999</ele><time>2026-05-03T11:37:03.313Z</time></trkpt><trkpt lat="42.3100616" lon="14.0657522"><ele>71.0</ele><time>2026-05-03T11:37:04.306Z</time></trkpt><trkpt lat="42.310113" lon="14.0658549"><ele>71.0</ele><time>2026-05-03T11:37:05.304Z</time></trkpt><trkpt lat="42.3101697" lon="14.0659727"><ele>71.0</ele><time>2026-05-03T11:37:06.306Z</time></trkpt><trkpt lat="42.3102254" lon="14.0660923"><ele>71.0</ele><time>2026-05-03T11:37:07.31Z</time></trkpt><trkpt lat="42.3102829" lon="14.0662063"><ele>71.0</ele><time>2026-05-03T11:37:08.306Z</time></trkpt><trkpt lat="42.310333" lon="14.0663172"><ele>71.0</ele><time>2026-05-03T11:37:09.312Z</time></trkpt><trkpt lat="42.3103798" lon="14.066411"><ele>71.0</ele><time>2026-05-03T11:37:10.307Z</time></trkpt><trkpt lat="42.3104279" lon="14.066492"><ele>71.0</ele><time>2026-05-03T11:37:11.309Z</time></trkpt><trkpt lat="42.3104807" lon="14.0665668"><ele>71.0</ele><time>2026-05-03T11:37:12.306Z</time></trkpt><trkpt lat="42.3105251" lon="14.0666464"><ele>71.0</ele><time>2026-05-03T11:37:13.309Z</time></trkpt><trkpt lat="42.3106041" lon="14.0667714"><ele>71.0</ele><time>2026-05-03T11:37:15.31Z</time></trkpt><trkpt lat="42.3106433" lon="14.0669048"><ele>71.0</ele><time>2026-05-03T11:37:17.311Z</time></trkpt><trkpt lat="42.3106552" lon="14.0670439"><ele>71.0</ele><time>2026-05-03T11:37:19.302Z</time></trkpt><trkpt lat="42.3106852" lon="14.0671359"><ele>71.0</ele><time>2026-05-03T11:37:20.296Z</time></trkpt><trkpt lat="42.3107403" lon="14.0672485"><ele>71.0</ele><time>2026-05-03T11:37:21.296Z</time></trkpt><trkpt lat="42.3108085" lon="14.0673622"><ele>71.0</ele><time>2026-05-03T11:37:22.305Z</time></trkpt><trkpt lat="42.3108813" lon="14.0675006"><ele>71.25</ele><time>2026-05-03T11:37:23.303Z</time></trkpt><trkpt lat="42.3109442" lon="14.0676432"><ele>71.5</ele><time>2026-05-03T11:37:24.309Z</time></trkpt><trkpt lat="42.311012" lon="14.0677844"><ele>71.75</ele><time>2026-05-03T11:37:25.307Z</time></trkpt><trkpt lat="42.3110752" lon="14.0679169"><ele>72.0</ele><time>2026-05-03T11:37:26.309Z</time></trkpt><trkpt lat="42.3111377" lon="14.0680513"><ele>72.0</ele><time>2026-05-03T11:37:27.308Z</time></trkpt><trkpt lat="42.3112073" lon="14.0681804"><ele>72.0</ele><time>2026-05-03T11:37:28.308Z</time></trkpt><trkpt lat="42.3112758" lon="14.0683173"><ele>72.0</ele><time>2026-05-03T11:37:29.319Z</time></trkpt><trkpt lat="42.3113442" lon="14.0684507"><ele>72.0</ele><time>2026-05-03T11:37:30.31Z</time></trkpt><trkpt lat="42.3114137" lon="14.0685968"><ele>72.0</ele><time>2026-05-03T11:37:31.31Z</time></trkpt><trkpt lat="42.3114788" lon="14.0687349"><ele>72.0</ele><time>2026-05-03T11:37:32.309Z</time></trkpt><trkpt lat="42.3115448" lon="14.0688775"><ele>72.0</ele><time>2026-05-03T11:37:33.309Z</time></trkpt><trkpt lat="42.3116114" lon="14.0690272"><ele>72.0</ele><time>2026-05-03T11:37:34.306Z</time></trkpt><trkpt lat="42.3116872" lon="14.0691715"><ele>72.0</ele><time>2026-05-03T11:37:35.307Z</time></trkpt><trkpt lat="42.311766" lon="14.069322"><ele>72.0</ele><time>2026-05-03T11:37:36.307Z</time></trkpt><trkpt lat="42.3118384" lon="14.0694731"><ele>72.0</ele><time>2026-05-03T11:37:37.309Z</time></trkpt><trkpt lat="42.311911" lon="14.0696377"><ele>72.0</ele><time>2026-05-03T11:37:38.31Z</time></trkpt><trkpt lat="42.3119811" lon="14.0697992"><ele>71.75</ele><time>2026-05-03T11:37:39.307Z</time></trkpt><trkpt lat="42.3120474" lon="14.0699529"><ele>71.5</ele><time>2026-05-03T11:37:40.311Z</time></trkpt><trkpt lat="42.3121085" lon="14.0701017"><ele>71.25</ele><time>2026-05-03T11:37:41.306Z</time></trkpt><trkpt lat="42.3121715" lon="14.0702465"><ele>71.0</ele><time>2026-05-03T11:37:42.308Z</time></trkpt><trkpt lat="42.3122439" lon="14.0703801"><ele>70.75</ele><time>2026-05-03T11:37:43.306Z</time></trkpt><trkpt lat="42.312319" lon="14.0705084"><ele>70.5</ele><time>2026-05-03T11:37:44.307Z</time></trkpt><trkpt lat="42.3123786" lon="14.0706378"><ele>70.25</ele><time>2026-05-03T11:37:45.312Z</time></trkpt><trkpt lat="42.3124509" lon="14.0707768"><ele>70.0</ele><time>2026-05-03T11:37:46.311Z</time></trkpt><trkpt lat="42.3125143" lon="14.0709197"><ele>69.75</ele><time>2026-05-03T11:37:47.316Z</time></trkpt><trkpt lat="42.3125921" lon="14.0710526"><ele>69.5</ele><time>2026-05-03T11:37:48.309Z</time></trkpt><trkpt lat="42.3126562" lon="14.0712003"><ele>69.25</ele><time>2026-05-03T11:37:49.312Z</time></trkpt><trkpt lat="42.3127192" lon="14.0713372"><ele>69.0</ele><time>2026-05-03T11:37:50.305Z</time></trkpt><trkpt lat="42.3127768" lon="14.0714581"><ele>69.0</ele><time>2026-05-03T11:37:51.307Z</time></trkpt><trkpt lat="42.3128358" lon="14.0715727"><ele>69.0</ele><time>2026-05-03T11:37:52.308Z</time></trkpt><trkpt lat="42.312892" lon="14.0716962"><ele>69.0</ele><time>2026-05-03T11:37:53.311Z</time></trkpt><trkpt lat="42.3129432" lon="14.0718184"><ele>69.0</ele><time>2026-05-03T11:37:54.314Z</time></trkpt><trkpt lat="42.3130055" lon="14.0719487"><ele>69.0</ele><time>2026-05-03T11:37:55.308Z</time></trkpt><trkpt lat="42.313065" lon="14.072075"><ele>68.8</ele><time>2026-05-03T11:37:56.306Z</time></trkpt><trkpt lat="42.3131285" lon="14.072193"><ele>68.60000000000001</ele><time>2026-05-03T11:37:57.314Z</time></trkpt><trkpt lat="42.3131864" lon="14.0723103"><ele>68.4</ele><time>2026-05-03T11:37:58.313Z</time></trkpt><trkpt lat="42.3132335" lon="14.0724369"><ele>68.2</ele><time>2026-05-03T11:37:59.31Z</time></trkpt><trkpt lat="42.3132879" lon="14.0725578"><ele>68.0</ele><time>2026-05-03T11:38:00.315Z</time></trkpt><trkpt lat="42.3133491" lon="14.072684"><ele>68.2</ele><time>2026-05-03T11:38:01.31Z</time></trkpt><trkpt lat="42.313407" lon="14.0728012"><ele>68.4</ele><time>2026-05-03T11:38:02.308Z</time></trkpt><trkpt lat="42.3134754" lon="14.0729238"><ele>68.60000000000001</ele><time>2026-05-03T11:38:03.303Z</time></trkpt><trkpt lat="42.3135297" lon="14.0730577"><ele>68.8</ele><time>2026-05-03T11:38:04.306Z</time></trkpt><trkpt lat="42.3135862" lon="14.0731899"><ele>69.0</ele><time>2026-05-03T11:38:05.308Z</time></trkpt><trkpt lat="42.313649" lon="14.0733337"><ele>69.0</ele><time>2026-05-03T11:38:06.309Z</time></trkpt><trkpt lat="42.3137284" lon="14.0734792"><ele>69.0</ele><time>2026-05-03T11:38:07.307Z</time></trkpt><trkpt lat="42.3138179" lon="14.0736312"><ele>69.0</ele><time>2026-05-03T11:38:08.304Z</time></trkpt><trkpt lat="42.3139094" lon="14.0737841"><ele>69.0</ele><time>2026-05-03T11:38:09.31Z</time></trkpt><trkpt lat="42.3139962" lon="14.0739365"><ele>68.75</ele><time>2026-05-03T11:38:10.311Z</time></trkpt><trkpt lat="42.3140719" lon="14.0740972"><ele>68.5</ele><time>2026-05-03T11:38:11.315Z</time></trkpt><trkpt lat="42.3141354" lon="14.0742585"><ele>68.25</ele><time>2026-05-03T11:38:12.308Z</time></trkpt><trkpt lat="42.3142024" lon="14.0744072"><ele>68.0</ele><time>2026-05-03T11:38:13.309Z</time></trkpt><trkpt lat="42.3142768" lon="14.074551"><ele>68.0</ele><time>2026-05-03T11:38:14.308Z</time></trkpt><trkpt lat="42.3143301" lon="14.0746883"><ele>68.0</ele><time>2026-05-03T11:38:15.312Z</time></trkpt><trkpt lat="42.3143943" lon="14.0748113"><ele>68.0</ele><time>2026-05-03T11:38:16.31Z</time></trkpt><trkpt lat="42.3144445" lon="14.0749279"><ele>68.0</ele><time>2026-05-03T11:38:17.313Z</time></trkpt><trkpt lat="42.3145001" lon="14.0750243"><ele>68.0</ele><time>2026-05-03T11:38:18.314Z</time></trkpt><trkpt lat="42.3145586" lon="14.0751149"><ele>68.0</ele><time>2026-05-03T11:38:19.31Z</time></trkpt><trkpt lat="42.3146191" lon="14.0752152"><ele>68.0</ele><time>2026-05-03T11:38:20.315Z</time></trkpt><trkpt lat="42.3146636" lon="14.0753297"><ele>68.0</ele><time>2026-05-03T11:38:21.315Z</time></trkpt><trkpt lat="42.3147104" lon="14.0754583"><ele>68.0</ele><time>2026-05-03T11:38:22.314Z</time></trkpt><trkpt lat="42.3147591" lon="14.0755859"><ele>68.0</ele><time>2026-05-03T11:38:23.317Z</time></trkpt><trkpt lat="42.3148139" lon="14.0757084"><ele>68.25</ele><time>2026-05-03T11:38:24.316Z</time></trkpt><trkpt lat="42.314878" lon="14.0758395"><ele>68.5</ele><time>2026-05-03T11:38:25.311Z</time></trkpt><trkpt lat="42.3149431" lon="14.0759708"><ele>68.75</ele><time>2026-05-03T11:38:26.317Z</time></trkpt><trkpt lat="42.3150175" lon="14.0761013"><ele>69.0</ele><time>2026-05-03T11:38:27.311Z</time></trkpt><trkpt lat="42.3150826" lon="14.076236"><ele>69.0</ele><time>2026-05-03T11:38:28.314Z</time></trkpt><trkpt lat="42.3151538" lon="14.0763741"><ele>69.0</ele><time>2026-05-03T11:38:29.317Z</time></trkpt><trkpt lat="42.3152208" lon="14.0765144"><ele>69.0</ele><time>2026-05-03T11:38:30.312Z</time></trkpt><trkpt lat="42.3152795" lon="14.0766607"><ele>69.0</ele><time>2026-05-03T11:38:31.322Z</time></trkpt><trkpt lat="42.315344" lon="14.0768071"><ele>69.0</ele><time>2026-05-03T11:38:32.313Z</time></trkpt><trkpt lat="42.3154122" lon="14.0769548"><ele>69.0</ele><time>2026-05-03T11:38:33.305Z</time></trkpt><trkpt lat="42.3154813" lon="14.0771049"><ele>69.0</ele><time>2026-05-03T11:38:34.306Z</time></trkpt><trkpt lat="42.3155515" lon="14.0772591"><ele>69.0</ele><time>2026-05-03T11:38:35.313Z</time></trkpt><trkpt lat="42.3156244" lon="14.0774101"><ele>68.75</ele><time>2026-05-03T11:38:36.307Z</time></trkpt><trkpt lat="42.3156949" lon="14.0775727"><ele>68.5</ele><time>2026-05-03T11:38:37.309Z</time></trkpt><trkpt lat="42.3157658" lon="14.0777294"><ele>68.25</ele><time>2026-05-03T11:38:38.31Z</time></trkpt><trkpt lat="42.315848" lon="14.0778838"><ele>68.0</ele><time>2026-05-03T11:38:39.314Z</time></trkpt><trkpt lat="42.3159264" lon="14.0780402"><ele>68.0</ele><time>2026-05-03T11:38:40.313Z</time></trkpt><trkpt lat="42.3160106" lon="14.0782104"><ele>68.0</ele><time>2026-05-03T11:38:41.315Z</time></trkpt><trkpt lat="42.3160965" lon="14.0783609"><ele>68.0</ele><time>2026-05-03T11:38:42.314Z</time></trkpt><trkpt lat="42.3161739" lon="14.0785163"><ele>68.0</ele><time>2026-05-03T11:38:43.314Z</time></trkpt><trkpt lat="42.3162553" lon="14.0786872"><ele>68.0</ele><time>2026-05-03T11:38:44.32Z</time></trkpt><trkpt lat="42.3163206" lon="14.0788573"><ele>68.0</ele><time>2026-05-03T11:38:45.315Z</time></trkpt><trkpt lat="42.3164032" lon="14.07902"><ele>68.0</ele><time>2026-05-03T11:38:46.312Z</time></trkpt><trkpt lat="42.3164771" lon="14.0791959"><ele>68.0</ele><time>2026-05-03T11:38:47.312Z</time></trkpt><trkpt lat="42.3165718" lon="14.0793565"><ele>67.75</ele><time>2026-05-03T11:38:48.315Z</time></trkpt><trkpt lat="42.3166502" lon="14.0795369"><ele>67.5</ele><time>2026-05-03T11:38:49.315Z</time></trkpt><trkpt lat="42.3167274" lon="14.0796951"><ele>67.25</ele><time>2026-05-03T11:38:50.312Z</time></trkpt><trkpt lat="42.3168002" lon="14.0798442"><ele>67.0</ele><time>2026-05-03T11:38:51.317Z</time></trkpt><trkpt lat="42.3168951" lon="14.0800106"><ele>67.0</ele><time>2026-05-03T11:38:52.315Z</time></trkpt><trkpt lat="42.3169593" lon="14.0801699"><ele>67.0</ele><time>2026-05-03T11:38:53.319Z</time></trkpt><trkpt lat="42.3170353" lon="14.0803216"><ele>67.0</ele><time>2026-05-03T11:38:54.319Z</time></trkpt><trkpt lat="42.3170983" lon="14.0804739"><ele>67.0</ele><time>2026-05-03T11:38:55.316Z</time></trkpt><trkpt lat="42.3171667" lon="14.0806224"><ele>66.5</ele><time>2026-05-03T11:38:56.32Z</time></trkpt><trkpt lat="42.3172428" lon="14.0807895"><ele>66.0</ele><time>2026-05-03T11:38:57.316Z</time></trkpt><trkpt lat="42.3173291" lon="14.0809542"><ele>65.5</ele><time>2026-05-03T11:38:58.318Z</time></trkpt><trkpt lat="42.3174046" lon="14.081117"><ele>65.0</ele><time>2026-05-03T11:38:59.319Z</time></trkpt><trkpt lat="42.3174704" lon="14.0812789"><ele>65.0</ele><time>2026-05-03T11:39:00.317Z</time></trkpt><trkpt lat="42.3175468" lon="14.0814534"><ele>65.0</ele><time>2026-05-03T11:39:01.317Z</time></trkpt><trkpt lat="42.3176423" lon="14.0816194"><ele>65.0</ele><time>2026-05-03T11:39:02.325Z</time></trkpt><trkpt lat="42.3177142" lon="14.0817899"><ele>64.75</ele><time>2026-05-03T11:39:03.315Z</time></trkpt><trkpt lat="42.3178028" lon="14.0819541"><ele>64.5</ele><time>2026-05-03T11:39:04.316Z</time></trkpt><trkpt lat="42.3178763" lon="14.0821066"><ele>64.25</ele><time>2026-05-03T11:39:05.318Z</time></trkpt><trkpt lat="42.317953" lon="14.0822712"><ele>64.0</ele><time>2026-05-03T11:39:06.315Z</time></trkpt><trkpt lat="42.3180302" lon="14.0824346"><ele>64.0</ele><time>2026-05-03T11:39:07.314Z</time></trkpt><trkpt lat="42.3180976" lon="14.0826027"><ele>64.0</ele><time>2026-05-03T11:39:08.316Z</time></trkpt><trkpt lat="42.3181746" lon="14.0827567"><ele>64.0</ele><time>2026-05-03T11:39:09.319Z</time></trkpt><trkpt lat="42.318252" lon="14.082921"><ele>64.0</ele><time>2026-05-03T11:39:10.318Z</time></trkpt><trkpt lat="42.3183373" lon="14.0830817"><ele>64.0</ele><time>2026-05-03T11:39:11.315Z</time></trkpt><trkpt lat="42.3183955" lon="14.0832479"><ele>64.0</ele><time>2026-05-03T11:39:12.315Z</time></trkpt><trkpt lat="42.3184805" lon="14.0834139"><ele>64.0</ele><time>2026-05-03T11:39:13.314Z</time></trkpt><trkpt lat="42.3185718" lon="14.0835937"><ele>64.0</ele><time>2026-05-03T11:39:14.317Z</time></trkpt><trkpt lat="42.3186549" lon="14.0837538"><ele>63.666666666666664</ele><time>2026-05-03T11:39:15.316Z</time></trkpt><trkpt lat="42.3187438" lon="14.0839182"><ele>63.33333333333333</ele><time>2026-05-03T11:39:16.313Z</time></trkpt><trkpt lat="42.3188337" lon="14.0840879"><ele>63.0</ele><time>2026-05-03T11:39:17.316Z</time></trkpt><trkpt lat="42.3189151" lon="14.084263"><ele>63.0</ele><time>2026-05-03T11:39:18.316Z</time></trkpt><trkpt lat="42.3189938" lon="14.0844291"><ele>63.0</ele><time>2026-05-03T11:39:19.318Z</time></trkpt><trkpt lat="42.3190698" lon="14.0845935"><ele>63.0</ele><time>2026-05-03T11:39:20.321Z</time></trkpt><trkpt lat="42.3191493" lon="14.0847639"><ele>63.0</ele><time>2026-05-03T11:39:21.316Z</time></trkpt><trkpt lat="42.3192379" lon="14.0849311"><ele>62.75</ele><time>2026-05-03T11:39:22.324Z</time></trkpt><trkpt lat="42.3193196" lon="14.085094"><ele>62.5</ele><time>2026-05-03T11:39:23.319Z</time></trkpt><trkpt lat="42.319399" lon="14.0852625"><ele>62.25</ele><time>2026-05-03T11:39:24.324Z</time></trkpt><trkpt lat="42.3194731" lon="14.0854274"><ele>62.0</ele><time>2026-05-03T11:39:25.32Z</time></trkpt><trkpt lat="42.319545" lon="14.0855979"><ele>61.75</ele><time>2026-05-03T11:39:26.32Z</time></trkpt><trkpt lat="42.3196218" lon="14.0857658"><ele>61.5</ele><time>2026-05-03T11:39:27.315Z</time></trkpt><trkpt lat="42.319698" lon="14.0859344"><ele>61.25</ele><time>2026-05-03T11:39:28.317Z</time></trkpt><trkpt lat="42.3197821" lon="14.0860887"><ele>61.0</ele><time>2026-05-03T11:39:29.32Z</time></trkpt><trkpt lat="42.3198654" lon="14.0862419"><ele>61.0</ele><time>2026-05-03T11:39:30.315Z</time></trkpt><trkpt lat="42.319938" lon="14.0863832"><ele>61.0</ele><time>2026-05-03T11:39:31.32Z</time></trkpt><trkpt lat="42.3199974" lon="14.0865299"><ele>61.0</ele><time>2026-05-03T11:39:32.316Z</time></trkpt><trkpt lat="42.3200597" lon="14.0866826"><ele>61.0</ele><time>2026-05-03T11:39:33.323Z</time></trkpt><trkpt lat="42.3201332" lon="14.0868236"><ele>61.0</ele><time>2026-05-03T11:39:34.319Z</time></trkpt><trkpt lat="42.3202153" lon="14.0869784"><ele>61.0</ele><time>2026-05-03T11:39:35.319Z</time></trkpt><trkpt lat="42.3202905" lon="14.0871398"><ele>61.0</ele><time>2026-05-03T11:39:36.313Z</time></trkpt><trkpt lat="42.3203643" lon="14.0873026"><ele>61.0</ele><time>2026-05-03T11:39:37.315Z</time></trkpt><trkpt lat="42.3204391" lon="14.0874627"><ele>61.0</ele><time>2026-05-03T11:39:38.317Z</time></trkpt><trkpt lat="42.3205187" lon="14.0876243"><ele>61.0</ele><time>2026-05-03T11:39:39.312Z</time></trkpt><trkpt lat="42.3206013" lon="14.08779"><ele>61.0</ele><time>2026-05-03T11:39:40.312Z</time></trkpt><trkpt lat="42.3206642" lon="14.0879455"><ele>61.0</ele><time>2026-05-03T11:39:41.316Z</time></trkpt><trkpt lat="42.3207393" lon="14.0881023"><ele>60.75</ele><time>2026-05-03T11:39:42.316Z</time></trkpt><trkpt lat="42.32082" lon="14.0882521"><ele>60.5</ele><time>2026-05-03T11:39:43.313Z</time></trkpt><trkpt lat="42.3208979" lon="14.0884001"><ele>60.25</ele><time>2026-05-03T11:39:44.318Z</time></trkpt><trkpt lat="42.3209769" lon="14.0885569"><ele>60.0</ele><time>2026-05-03T11:39:45.315Z</time></trkpt><trkpt lat="42.321038" lon="14.0887181"><ele>60.0</ele><time>2026-05-03T11:39:46.315Z</time></trkpt><trkpt lat="42.3211133" lon="14.0888815"><ele>60.0</ele><time>2026-05-03T11:39:47.319Z</time></trkpt><trkpt lat="42.3211981" lon="14.0890289"><ele>60.0</ele><time>2026-05-03T11:39:48.313Z</time></trkpt><trkpt lat="42.321275" lon="14.089178"><ele>60.0</ele><time>2026-05-03T11:39:49.313Z</time></trkpt><trkpt lat="42.3213506" lon="14.0893283"><ele>59.75</ele><time>2026-05-03T11:39:50.316Z</time></trkpt><trkpt lat="42.3214183" lon="14.0894623"><ele>59.5</ele><time>2026-05-03T11:39:51.32Z</time></trkpt><trkpt lat="42.3214914" lon="14.089601"><ele>59.25</ele><time>2026-05-03T11:39:52.315Z</time></trkpt><trkpt lat="42.3215506" lon="14.0897474"><ele>59.0</ele><time>2026-05-03T11:39:53.321Z</time></trkpt><trkpt lat="42.3216111" lon="14.0898872"><ele>58.75</ele><time>2026-05-03T11:39:54.312Z</time></trkpt><trkpt lat="42.3216766" lon="14.0900234"><ele>58.5</ele><time>2026-05-03T11:39:55.313Z</time></trkpt><trkpt lat="42.321746" lon="14.0901613"><ele>58.25</ele><time>2026-05-03T11:39:56.316Z</time></trkpt><trkpt lat="42.3218136" lon="14.0903018"><ele>58.0</ele><time>2026-05-03T11:39:57.318Z</time></trkpt><trkpt lat="42.3218824" lon="14.0904354"><ele>58.0</ele><time>2026-05-03T11:39:58.32Z</time></trkpt><trkpt lat="42.3219537" lon="14.0905718"><ele>58.0</ele><time>2026-05-03T11:39:59.323Z</time></trkpt><trkpt lat="42.3220154" lon="14.0907027"><ele>58.0</ele><time>2026-05-03T11:40:00.314Z</time></trkpt><trkpt lat="42.3220736" lon="14.090842"><ele>58.0</ele><time>2026-05-03T11:40:01.32Z</time></trkpt><trkpt lat="42.3221339" lon="14.0909861"><ele>58.0</ele><time>2026-05-03T11:40:02.319Z</time></trkpt><trkpt lat="42.3221947" lon="14.0911211"><ele>58.0</ele><time>2026-05-03T11:40:03.317Z</time></trkpt><trkpt lat="42.3222614" lon="14.091259"><ele>58.0</ele><time>2026-05-03T11:40:04.323Z</time></trkpt><trkpt lat="42.3223231" lon="14.0913984"><ele>58.0</ele><time>2026-05-03T11:40:05.311Z</time></trkpt><trkpt lat="42.3223897" lon="14.0915362"><ele>58.25</ele><time>2026-05-03T11:40:06.317Z</time></trkpt><trkpt lat="42.3224534" lon="14.0916731"><ele>58.5</ele><time>2026-05-03T11:40:07.314Z</time></trkpt><trkpt lat="42.3225214" lon="14.0918093"><ele>58.75</ele><time>2026-05-03T11:40:08.312Z</time></trkpt><trkpt lat="42.3225845" lon="14.0919479"><ele>59.0</ele><time>2026-05-03T11:40:09.31Z</time></trkpt><trkpt lat="42.322646" lon="14.0920857"><ele>59.0</ele><time>2026-05-03T11:40:10.313Z</time></trkpt><trkpt lat="42.3227181" lon="14.0922178"><ele>59.0</ele><time>2026-05-03T11:40:11.311Z</time></trkpt><trkpt lat="42.3227877" lon="14.0923518"><ele>59.0</ele><time>2026-05-03T11:40:12.316Z</time></trkpt><trkpt lat="42.3228492" lon="14.0924917"><ele>59.0</ele><time>2026-05-03T11:40:13.316Z</time></trkpt><trkpt lat="42.3229161" lon="14.0926359"><ele>58.75</ele><time>2026-05-03T11:40:14.315Z</time></trkpt><trkpt lat="42.3229867" lon="14.0927812"><ele>58.5</ele><time>2026-05-03T11:40:15.322Z</time></trkpt><trkpt lat="42.3230567" lon="14.092913"><ele>58.25</ele><time>2026-05-03T11:40:16.312Z</time></trkpt><trkpt lat="42.3231324" lon="14.0930531"><ele>58.0</ele><time>2026-05-03T11:40:17.315Z</time></trkpt><trkpt lat="42.3231961" lon="14.0931999"><ele>58.0</ele><time>2026-05-03T11:40:18.311Z</time></trkpt><trkpt lat="42.323263" lon="14.0933428"><ele>58.0</ele><time>2026-05-03T11:40:19.307Z</time></trkpt><trkpt lat="42.3233334" lon="14.0934918"><ele>58.0</ele><time>2026-05-03T11:40:20.31Z</time></trkpt><trkpt lat="42.323404" lon="14.093647"><ele>58.0</ele><time>2026-05-03T11:40:21.31Z</time></trkpt><trkpt lat="42.3234647" lon="14.0938068"><ele>58.0</ele><time>2026-05-03T11:40:22.31Z</time></trkpt><trkpt lat="42.3235233" lon="14.0939635"><ele>58.0</ele><time>2026-05-03T11:40:23.309Z</time></trkpt><trkpt lat="42.3235821" lon="14.094121"><ele>58.0</ele><time>2026-05-03T11:40:24.313Z</time></trkpt><trkpt lat="42.3236318" lon="14.0942763"><ele>58.0</ele><time>2026-05-03T11:40:25.314Z</time></trkpt><trkpt lat="42.3236786" lon="14.0944366"><ele>58.0</ele><time>2026-05-03T11:40:26.308Z</time></trkpt><trkpt lat="42.3237126" lon="14.0946014"><ele>58.0</ele><time>2026-05-03T11:40:27.306Z</time></trkpt><trkpt lat="42.3237522" lon="14.09476"><ele>58.0</ele><time>2026-05-03T11:40:28.314Z</time></trkpt><trkpt lat="42.3237885" lon="14.0949155"><ele>58.0</ele><time>2026-05-03T11:40:29.313Z</time></trkpt><trkpt lat="42.3238172" lon="14.0950694"><ele>58.25</ele><time>2026-05-03T11:40:30.311Z</time></trkpt><trkpt lat="42.3238571" lon="14.0952327"><ele>58.5</ele><time>2026-05-03T11:40:31.312Z</time></trkpt><trkpt lat="42.3238946" lon="14.095394"><ele>58.75</ele><time>2026-05-03T11:40:32.308Z</time></trkpt><trkpt lat="42.3239278" lon="14.0955647"><ele>59.0</ele><time>2026-05-03T11:40:33.312Z</time></trkpt><trkpt lat="42.3239603" lon="14.0957312"><ele>58.75</ele><time>2026-05-03T11:40:34.31Z</time></trkpt><trkpt lat="42.323993" lon="14.0958932"><ele>58.5</ele><time>2026-05-03T11:40:35.32Z</time></trkpt><trkpt lat="42.324023" lon="14.096055"><ele>58.25</ele><time>2026-05-03T11:40:36.315Z</time></trkpt><trkpt lat="42.3240502" lon="14.0962093"><ele>58.0</ele><time>2026-05-03T11:40:37.315Z</time></trkpt><trkpt lat="42.3240826" lon="14.0963556"><ele>58.0</ele><time>2026-05-03T11:40:38.316Z</time></trkpt><trkpt lat="42.3241143" lon="14.0964923"><ele>58.0</ele><time>2026-05-03T11:40:39.312Z</time></trkpt><trkpt lat="42.3241427" lon="14.0966255"><ele>58.0</ele><time>2026-05-03T11:40:40.31Z</time></trkpt><trkpt lat="42.324162" lon="14.0967576"><ele>58.0</ele><time>2026-05-03T11:40:41.313Z</time></trkpt><trkpt lat="42.3241866" lon="14.0968944"><ele>58.0</ele><time>2026-05-03T11:40:42.313Z</time></trkpt><trkpt lat="42.3242143" lon="14.0970281"><ele>58.0</ele><time>2026-05-03T11:40:43.309Z</time></trkpt><trkpt lat="42.3242523" lon="14.0971681"><ele>58.0</ele><time>2026-05-03T11:40:44.312Z</time></trkpt><trkpt lat="42.3242854" lon="14.0973082"><ele>58.0</ele><time>2026-05-03T11:40:45.314Z</time></trkpt><trkpt lat="42.3243122" lon="14.0974523"><ele>58.0</ele><time>2026-05-03T11:40:46.312Z</time></trkpt><trkpt lat="42.3243392" lon="14.0976055"><ele>58.0</ele><time>2026-05-03T11:40:47.311Z</time></trkpt><trkpt lat="42.3243827" lon="14.0977687"><ele>57.75</ele><time>2026-05-03T11:40:48.309Z</time></trkpt><trkpt lat="42.3244313" lon="14.0979228"><ele>57.5</ele><time>2026-05-03T11:40:49.312Z</time></trkpt><trkpt lat="42.324501" lon="14.098088"><ele>57.25</ele><time>2026-05-03T11:40:50.307Z</time></trkpt><trkpt lat="42.3245869" lon="14.0982376"><ele>57.0</ele><time>2026-05-03T11:40:51.298Z</time></trkpt><trkpt lat="42.324711" lon="14.0984001"><ele>55.66666666666667</ele><time>2026-05-03T11:40:52.299Z</time></trkpt><trkpt lat="42.3248301" lon="14.0985845"><ele>54.333333333333336</ele><time>2026-05-03T11:40:53.304Z</time></trkpt><trkpt lat="42.3249583" lon="14.0987859"><ele>53.0</ele><time>2026-05-03T11:40:54.299Z</time></trkpt><trkpt lat="42.3250673" lon="14.0989908"><ele>54.0</ele><time>2026-05-03T11:40:55.306Z</time></trkpt><trkpt lat="42.3251808" lon="14.0991754"><ele>55.0</ele><time>2026-05-03T11:40:56.307Z</time></trkpt><trkpt lat="42.3252827" lon="14.0993362"><ele>56.0</ele><time>2026-05-03T11:40:57.303Z</time></trkpt><trkpt lat="42.325383" lon="14.0994902"><ele>56.0</ele><time>2026-05-03T11:40:58.305Z</time></trkpt><trkpt lat="42.3254742" lon="14.0996317"><ele>56.0</ele><time>2026-05-03T11:40:59.308Z</time></trkpt><trkpt lat="42.3255548" lon="14.0997643"><ele>56.0</ele><time>2026-05-03T11:41:00.306Z</time></trkpt><trkpt lat="42.3256276" lon="14.0998887"><ele>56.0</ele><time>2026-05-03T11:41:01.314Z</time></trkpt><trkpt lat="42.3257069" lon="14.1000216"><ele>55.25</ele><time>2026-05-03T11:41:02.312Z</time></trkpt><trkpt lat="42.325784" lon="14.1001505"><ele>54.5</ele><time>2026-05-03T11:41:03.314Z</time></trkpt><trkpt lat="42.3258718" lon="14.1002753"><ele>53.75</ele><time>2026-05-03T11:41:04.321Z</time></trkpt><trkpt lat="42.325953" lon="14.1003891"><ele>53.0</ele><time>2026-05-03T11:41:05.315Z</time></trkpt><trkpt lat="42.3260141" lon="14.1004882"><ele>53.0</ele><time>2026-05-03T11:41:06.315Z</time></trkpt><trkpt lat="42.3260746" lon="14.1005764"><ele>53.0</ele><time>2026-05-03T11:41:07.309Z</time></trkpt><trkpt lat="42.3261166" lon="14.1006477"><ele>53.0</ele><time>2026-05-03T11:41:08.314Z</time></trkpt><trkpt lat="42.3261606" lon="14.100761"><ele>53.0</ele><time>2026-05-03T11:41:10.321Z</time></trkpt><trkpt lat="42.3261868" lon="14.1008779"><ele>53.0</ele><time>2026-05-03T11:41:12.317Z</time></trkpt><trkpt lat="42.3262078" lon="14.1010252"><ele>53.4</ele><time>2026-05-03T11:41:14.32Z</time></trkpt><trkpt lat="42.3262483" lon="14.1011666"><ele>53.8</ele><time>2026-05-03T11:41:16.314Z</time></trkpt><trkpt lat="42.3263547" lon="14.1012526"><ele>54.2</ele><time>2026-05-03T11:41:18.315Z</time></trkpt><trkpt lat="42.3264282" lon="14.1012882"><ele>54.6</ele><time>2026-05-03T11:41:19.315Z</time></trkpt><trkpt lat="42.3265074" lon="14.1013407"><ele>55.0</ele><time>2026-05-03T11:41:20.316Z</time></trkpt><trkpt lat="42.3265937" lon="14.1014113"><ele>55.0</ele><time>2026-05-03T11:41:21.307Z</time></trkpt><trkpt lat="42.3266715" lon="14.1015266"><ele>55.0</ele><time>2026-05-03T11:41:22.306Z</time></trkpt><trkpt lat="42.326756" lon="14.10166"><ele>55.0</ele><time>2026-05-03T11:41:23.299Z</time></trkpt><trkpt lat="42.3268572" lon="14.1018212"><ele>55.0</ele><time>2026-05-03T11:41:24.315Z</time></trkpt><trkpt lat="42.3269772" lon="14.1020028"><ele>55.0</ele><time>2026-05-03T11:41:25.307Z</time></trkpt><trkpt lat="42.3271006" lon="14.1022047"><ele>55.0</ele><time>2026-05-03T11:41:26.313Z</time></trkpt><trkpt lat="42.3272" lon="14.102437"><ele>55.0</ele><time>2026-05-03T11:41:27.305Z</time></trkpt><trkpt lat="42.3272975" lon="14.1026782"><ele>53.0</ele><time>2026-05-03T11:41:28.302Z</time></trkpt><trkpt lat="42.3273616" lon="14.102928"><ele>51.0</ele><time>2026-05-03T11:41:29.311Z</time></trkpt><trkpt lat="42.3274406" lon="14.1031501"><ele>49.0</ele><time>2026-05-03T11:41:30.298Z</time></trkpt><trkpt lat="42.3274852" lon="14.1033649"><ele>49.0</ele><time>2026-05-03T11:41:31.312Z</time></trkpt><trkpt lat="42.3275614" lon="14.1035397"><ele>49.0</ele><time>2026-05-03T11:41:32.303Z</time></trkpt><trkpt lat="42.3276109" lon="14.1037106"><ele>49.0</ele><time>2026-05-03T11:41:33.302Z</time></trkpt><trkpt lat="42.3276658" lon="14.1038712"><ele>49.0</ele><time>2026-05-03T11:41:34.31Z</time></trkpt><trkpt lat="42.3277027" lon="14.1040148"><ele>48.5</ele><time>2026-05-03T11:41:35.31Z</time></trkpt><trkpt lat="42.327731" lon="14.1041579"><ele>48.0</ele><time>2026-05-03T11:41:36.308Z</time></trkpt><trkpt lat="42.3277748" lon="14.1043116"><ele>47.5</ele><time>2026-05-03T11:41:37.311Z</time></trkpt><trkpt lat="42.327831" lon="14.1044653"><ele>47.0</ele><time>2026-05-03T11:41:38.308Z</time></trkpt><trkpt lat="42.327887" lon="14.1046422"><ele>47.0</ele><time>2026-05-03T11:41:39.309Z</time></trkpt><trkpt lat="42.3279413" lon="14.1048225"><ele>47.0</ele><time>2026-05-03T11:41:40.306Z</time></trkpt><trkpt lat="42.3280086" lon="14.1050096"><ele>47.0</ele><time>2026-05-03T11:41:41.308Z</time></trkpt><trkpt lat="42.3280664" lon="14.1051952"><ele>47.0</ele><time>2026-05-03T11:41:42.305Z</time></trkpt><trkpt lat="42.3281259" lon="14.105356"><ele>46.75</ele><time>2026-05-03T11:41:43.308Z</time></trkpt><trkpt lat="42.328168" lon="14.1055288"><ele>46.5</ele><time>2026-05-03T11:41:44.306Z</time></trkpt><trkpt lat="42.3282262" lon="14.105698"><ele>46.25</ele><time>2026-05-03T11:41:45.308Z</time></trkpt><trkpt lat="42.3282684" lon="14.1058341"><ele>46.0</ele><time>2026-05-03T11:41:46.306Z</time></trkpt><trkpt lat="42.3283127" lon="14.1059645"><ele>46.0</ele><time>2026-05-03T11:41:47.308Z</time></trkpt><trkpt lat="42.3283513" lon="14.1060855"><ele>46.0</ele><time>2026-05-03T11:41:48.303Z</time></trkpt><trkpt lat="42.3283764" lon="14.1062067"><ele>46.0</ele><time>2026-05-03T11:41:49.31Z</time></trkpt><trkpt lat="42.3284203" lon="14.1063214"><ele>46.0</ele><time>2026-05-03T11:41:50.311Z</time></trkpt><trkpt lat="42.3284551" lon="14.1064522"><ele>46.0</ele><time>2026-05-03T11:41:51.313Z</time></trkpt><trkpt lat="42.3284913" lon="14.1065772"><ele>46.0</ele><time>2026-05-03T11:41:52.314Z</time></trkpt><trkpt lat="42.3285282" lon="14.1067123"><ele>46.0</ele><time>2026-05-03T11:41:53.317Z</time></trkpt><trkpt lat="42.3285749" lon="14.1068405"><ele>46.0</ele><time>2026-05-03T11:41:54.321Z</time></trkpt><trkpt lat="42.3286198" lon="14.1069757"><ele>46.0</ele><time>2026-05-03T11:41:55.32Z</time></trkpt><trkpt lat="42.3286626" lon="14.1071131"><ele>46.0</ele><time>2026-05-03T11:41:56.307Z</time></trkpt><trkpt lat="42.3287095" lon="14.1072519"><ele>46.0</ele><time>2026-05-03T11:41:57.323Z</time></trkpt><trkpt lat="42.3287512" lon="14.1073816"><ele>46.0</ele><time>2026-05-03T11:41:58.324Z</time></trkpt><trkpt lat="42.3287937" lon="14.1075164"><ele>46.0</ele><time>2026-05-03T11:41:59.321Z</time></trkpt><trkpt lat="42.3288377" lon="14.1076429"><ele>46.0</ele><time>2026-05-03T11:42:00.321Z</time></trkpt><trkpt lat="42.3288875" lon="14.107789"><ele>46.0</ele><time>2026-05-03T11:42:01.324Z</time></trkpt><trkpt lat="42.3289335" lon="14.1079277"><ele>44.75</ele><time>2026-05-03T11:42:02.32Z</time></trkpt><trkpt lat="42.3289831" lon="14.1080878"><ele>43.5</ele><time>2026-05-03T11:42:03.313Z</time></trkpt><trkpt lat="42.3290415" lon="14.108251"><ele>42.25</ele><time>2026-05-03T11:42:04.307Z</time></trkpt><trkpt lat="42.3291065" lon="14.108443"><ele>41.0</ele><time>2026-05-03T11:42:05.316Z</time></trkpt><trkpt lat="42.3291516" lon="14.1086361"><ele>41.0</ele><time>2026-05-03T11:42:06.312Z</time></trkpt><trkpt lat="42.3292129" lon="14.1088334"><ele>41.0</ele><time>2026-05-03T11:42:07.306Z</time></trkpt><trkpt lat="42.3292838" lon="14.1089963"><ele>41.0</ele><time>2026-05-03T11:42:08.319Z</time></trkpt><trkpt lat="42.329333" lon="14.1091521"><ele>41.0</ele><time>2026-05-03T11:42:09.308Z</time></trkpt><trkpt lat="42.32936" lon="14.1093033"><ele>41.5</ele><time>2026-05-03T11:42:10.307Z</time></trkpt><trkpt lat="42.3294034" lon="14.109476"><ele>42.0</ele><time>2026-05-03T11:42:11.299Z</time></trkpt><trkpt lat="42.32946" lon="14.1096447"><ele>42.5</ele><time>2026-05-03T11:42:12.302Z</time></trkpt><trkpt lat="42.3295226" lon="14.1098231"><ele>43.0</ele><time>2026-05-03T11:42:13.301Z</time></trkpt><trkpt lat="42.3295739" lon="14.1099904"><ele>43.25</ele><time>2026-05-03T11:42:14.303Z</time></trkpt><trkpt lat="42.3296262" lon="14.1101703"><ele>43.5</ele><time>2026-05-03T11:42:15.306Z</time></trkpt><trkpt lat="42.3296815" lon="14.1103379"><ele>43.75</ele><time>2026-05-03T11:42:16.302Z</time></trkpt><trkpt lat="42.3297486" lon="14.1105038"><ele>44.0</ele><time>2026-05-03T11:42:17.305Z</time></trkpt><trkpt lat="42.3298122" lon="14.1106776"><ele>43.5</ele><time>2026-05-03T11:42:18.305Z</time></trkpt><trkpt lat="42.3298637" lon="14.1108522"><ele>43.0</ele><time>2026-05-03T11:42:19.304Z</time></trkpt><trkpt lat="42.3299069" lon="14.1110397"><ele>42.5</ele><time>2026-05-03T11:42:20.306Z</time></trkpt><trkpt lat="42.3299681" lon="14.1112397"><ele>42.0</ele><time>2026-05-03T11:42:21.303Z</time></trkpt><trkpt lat="42.3300358" lon="14.1114564"><ele>42.333333333333336</ele><time>2026-05-03T11:42:22.303Z</time></trkpt><trkpt lat="42.3301334" lon="14.1116731"><ele>42.66666666666667</ele><time>2026-05-03T11:42:23.306Z</time></trkpt><trkpt lat="42.3301985" lon="14.111868"><ele>43.0</ele><time>2026-05-03T11:42:24.302Z</time></trkpt><trkpt lat="42.3302549" lon="14.1120504"><ele>43.0</ele><time>2026-05-03T11:42:25.305Z</time></trkpt><trkpt lat="42.3302993" lon="14.112227"><ele>43.0</ele><time>2026-05-03T11:42:26.309Z</time></trkpt><trkpt lat="42.3303687" lon="14.1123822"><ele>43.0</ele><time>2026-05-03T11:42:27.3Z</time></trkpt><trkpt lat="42.3304167" lon="14.1125288"><ele>43.0</ele><time>2026-05-03T11:42:28.311Z</time></trkpt><trkpt lat="42.3304511" lon="14.1126692"><ele>43.0</ele><time>2026-05-03T11:42:29.307Z</time></trkpt><trkpt lat="42.3304963" lon="14.1128023"><ele>43.0</ele><time>2026-05-03T11:42:30.301Z</time></trkpt><trkpt lat="42.3305164" lon="14.1129245"><ele>43.0</ele><time>2026-05-03T11:42:31.303Z</time></trkpt><trkpt lat="42.3305182" lon="14.1130414"><ele>43.0</ele><time>2026-05-03T11:42:32.313Z</time></trkpt><trkpt lat="42.330522" lon="14.1131534"><ele>43.0</ele><time>2026-05-03T11:42:33.303Z</time></trkpt><trkpt lat="42.3305404" lon="14.1132526"><ele>43.0</ele><time>2026-05-03T11:42:34.304Z</time></trkpt><trkpt lat="42.3305867" lon="14.1133308"><ele>42.0</ele><time>2026-05-03T11:42:35.307Z</time></trkpt><trkpt lat="42.3306499" lon="14.1134203"><ele>41.0</ele><time>2026-05-03T11:42:36.3Z</time></trkpt><trkpt lat="42.3307035" lon="14.1135362"><ele>40.0</ele><time>2026-05-03T11:42:37.295Z</time></trkpt><trkpt lat="42.3307493" lon="14.11367"><ele>39.0</ele><time>2026-05-03T11:42:38.312Z</time></trkpt><trkpt lat="42.3307914" lon="14.11381"><ele>38.0</ele><time>2026-05-03T11:42:39.306Z</time></trkpt><trkpt lat="42.3308327" lon="14.1139451"><ele>38.0</ele><time>2026-05-03T11:42:40.303Z</time></trkpt><trkpt lat="42.3308687" lon="14.1140894"><ele>38.0</ele><time>2026-05-03T11:42:41.303Z</time></trkpt><trkpt lat="42.3309051" lon="14.1142351"><ele>38.0</ele><time>2026-05-03T11:42:42.308Z</time></trkpt><trkpt lat="42.3309556" lon="14.1143944"><ele>38.0</ele><time>2026-05-03T11:42:43.304Z</time></trkpt><trkpt lat="42.3310129" lon="14.1145368"><ele>38.0</ele><time>2026-05-03T11:42:44.309Z</time></trkpt><trkpt lat="42.3310656" lon="14.1146768"><ele>38.0</ele><time>2026-05-03T11:42:45.305Z</time></trkpt><trkpt lat="42.3311139" lon="14.114839"><ele>38.0</ele><time>2026-05-03T11:42:46.303Z</time></trkpt><trkpt lat="42.3311635" lon="14.1150084"><ele>38.0</ele><time>2026-05-03T11:42:47.305Z</time></trkpt><trkpt lat="42.3312235" lon="14.1151739"><ele>38.0</ele><time>2026-05-03T11:42:48.307Z</time></trkpt><trkpt lat="42.3312823" lon="14.1153312"><ele>38.0</ele><time>2026-05-03T11:42:49.307Z</time></trkpt><trkpt lat="42.3313268" lon="14.1154757"><ele>38.0</ele><time>2026-05-03T11:42:50.305Z</time></trkpt><trkpt lat="42.3313681" lon="14.1156163"><ele>38.0</ele><time>2026-05-03T11:42:51.309Z</time></trkpt><trkpt lat="42.3314111" lon="14.1157615"><ele>38.0</ele><time>2026-05-03T11:42:52.302Z</time></trkpt><trkpt lat="42.3314658" lon="14.1158917"><ele>38.0</ele><time>2026-05-03T11:42:53.306Z</time></trkpt><trkpt lat="42.3315112" lon="14.1160454"><ele>38.0</ele><time>2026-05-03T11:42:54.306Z</time></trkpt><trkpt lat="42.3315562" lon="14.1162043"><ele>38.0</ele><time>2026-05-03T11:42:55.304Z</time></trkpt><trkpt lat="42.3316148" lon="14.1163716"><ele>38.0</ele><time>2026-05-03T11:42:56.305Z</time></trkpt><trkpt lat="42.3316727" lon="14.1165513"><ele>38.0</ele><time>2026-05-03T11:42:57.319Z</time></trkpt><trkpt lat="42.3317216" lon="14.1167223"><ele>38.0</ele><time>2026-05-03T11:42:58.307Z</time></trkpt><trkpt lat="42.3317606" lon="14.1168874"><ele>38.0</ele><time>2026-05-03T11:42:59.312Z</time></trkpt><trkpt lat="42.331818" lon="14.1170416"><ele>38.0</ele><time>2026-05-03T11:43:00.307Z</time></trkpt><trkpt lat="42.3318629" lon="14.117186"><ele>38.0</ele><time>2026-05-03T11:43:01.308Z</time></trkpt><trkpt lat="42.3319059" lon="14.1173474"><ele>38.0</ele><time>2026-05-03T11:43:02.302Z</time></trkpt><trkpt lat="42.3319557" lon="14.1174884"><ele>38.0</ele><time>2026-05-03T11:43:03.31Z</time></trkpt><trkpt lat="42.3320088" lon="14.1176324"><ele>38.5</ele><time>2026-05-03T11:43:04.308Z</time></trkpt><trkpt lat="42.3320429" lon="14.1177867"><ele>39.0</ele><time>2026-05-03T11:43:05.312Z</time></trkpt><trkpt lat="42.3320913" lon="14.117934"><ele>39.5</ele><time>2026-05-03T11:43:06.312Z</time></trkpt><trkpt lat="42.3321314" lon="14.1180877"><ele>40.0</ele><time>2026-05-03T11:43:07.313Z</time></trkpt><trkpt lat="42.3321735" lon="14.1182371"><ele>40.0</ele><time>2026-05-03T11:43:08.307Z</time></trkpt><trkpt lat="42.3322125" lon="14.118378"><ele>40.0</ele><time>2026-05-03T11:43:09.318Z</time></trkpt><trkpt lat="42.3322551" lon="14.1185104"><ele>40.0</ele><time>2026-05-03T11:43:10.312Z</time></trkpt><trkpt lat="42.3322904" lon="14.1186448"><ele>40.0</ele><time>2026-05-03T11:43:11.307Z</time></trkpt><trkpt lat="42.3323243" lon="14.1187804"><ele>40.0</ele><time>2026-05-03T11:43:12.31Z</time></trkpt><trkpt lat="42.332363" lon="14.1189252"><ele>39.5</ele><time>2026-05-03T11:43:13.31Z</time></trkpt><trkpt lat="42.3324091" lon="14.1190625"><ele>39.0</ele><time>2026-05-03T11:43:14.309Z</time></trkpt><trkpt lat="42.3324571" lon="14.1192049"><ele>38.5</ele><time>2026-05-03T11:43:15.317Z</time></trkpt><trkpt lat="42.3325061" lon="14.1193505"><ele>38.0</ele><time>2026-05-03T11:43:16.31Z</time></trkpt><trkpt lat="42.3325566" lon="14.1195076"><ele>37.75</ele><time>2026-05-03T11:43:17.311Z</time></trkpt><trkpt lat="42.3326031" lon="14.119663"><ele>37.5</ele><time>2026-05-03T11:43:18.314Z</time></trkpt><trkpt lat="42.3326492" lon="14.1198428"><ele>37.25</ele><time>2026-05-03T11:43:19.311Z</time></trkpt><trkpt lat="42.3327077" lon="14.1200292"><ele>37.0</ele><time>2026-05-03T11:43:20.315Z</time></trkpt><trkpt lat="42.33277" lon="14.1202049"><ele>37.75</ele><time>2026-05-03T11:43:21.311Z</time></trkpt><trkpt lat="42.3328242" lon="14.120385"><ele>38.5</ele><time>2026-05-03T11:43:22.307Z</time></trkpt><trkpt lat="42.3328747" lon="14.1205618"><ele>39.25</ele><time>2026-05-03T11:43:23.309Z</time></trkpt><trkpt lat="42.3329231" lon="14.1207187"><ele>40.0</ele><time>2026-05-03T11:43:24.313Z</time></trkpt><trkpt lat="42.3329718" lon="14.1208571"><ele>40.0</ele><time>2026-05-03T11:43:25.307Z</time></trkpt><trkpt lat="42.3330077" lon="14.1210027"><ele>40.0</ele><time>2026-05-03T11:43:26.299Z</time></trkpt><trkpt lat="42.3330591" lon="14.1211541"><ele>40.0</ele><time>2026-05-03T11:43:27.314Z</time></trkpt><trkpt lat="42.3331051" lon="14.1213109"><ele>40.0</ele><time>2026-05-03T11:43:28.307Z</time></trkpt><trkpt lat="42.3331447" lon="14.1214755"><ele>40.5</ele><time>2026-05-03T11:43:29.309Z</time></trkpt><trkpt lat="42.333199" lon="14.1216373"><ele>41.0</ele><time>2026-05-03T11:43:30.312Z</time></trkpt><trkpt lat="42.3332525" lon="14.1217945"><ele>41.5</ele><time>2026-05-03T11:43:31.308Z</time></trkpt><trkpt lat="42.3332957" lon="14.1219549"><ele>42.0</ele><time>2026-05-03T11:43:32.306Z</time></trkpt><trkpt lat="42.3333548" lon="14.1221133"><ele>42.0</ele><time>2026-05-03T11:43:33.301Z</time></trkpt><trkpt lat="42.3334102" lon="14.1222682"><ele>42.0</ele><time>2026-05-03T11:43:34.306Z</time></trkpt><trkpt lat="42.3334583" lon="14.1224116"><ele>42.0</ele><time>2026-05-03T11:43:35.309Z</time></trkpt><trkpt lat="42.3335046" lon="14.1225542"><ele>42.0</ele><time>2026-05-03T11:43:36.306Z</time></trkpt><trkpt lat="42.3335477" lon="14.1227108"><ele>42.25</ele><time>2026-05-03T11:43:37.309Z</time></trkpt><trkpt lat="42.3335945" lon="14.1228635"><ele>42.5</ele><time>2026-05-03T11:43:38.314Z</time></trkpt><trkpt lat="42.3336432" lon="14.1230172"><ele>42.75</ele><time>2026-05-03T11:43:39.312Z</time></trkpt><trkpt lat="42.3336928" lon="14.1231658"><ele>43.0</ele><time>2026-05-03T11:43:40.318Z</time></trkpt><trkpt lat="42.3337461" lon="14.1233153"><ele>43.0</ele><time>2026-05-03T11:43:41.313Z</time></trkpt><trkpt lat="42.3337979" lon="14.1234676"><ele>43.0</ele><time>2026-05-03T11:43:42.314Z</time></trkpt><trkpt lat="42.3338483" lon="14.1236237"><ele>43.0</ele><time>2026-05-03T11:43:43.311Z</time></trkpt><trkpt lat="42.3339042" lon="14.1237741"><ele>43.0</ele><time>2026-05-03T11:43:44.32Z</time></trkpt><trkpt lat="42.3339565" lon="14.1239234"><ele>42.5</ele><time>2026-05-03T11:43:45.312Z</time></trkpt><trkpt lat="42.334008" lon="14.1240688"><ele>42.0</ele><time>2026-05-03T11:43:46.314Z</time></trkpt><trkpt lat="42.334057" lon="14.1242296"><ele>41.5</ele><time>2026-05-03T11:43:47.319Z</time></trkpt><trkpt lat="42.3341023" lon="14.1243837"><ele>41.0</ele><time>2026-05-03T11:43:48.313Z</time></trkpt><trkpt lat="42.3341521" lon="14.1245426"><ele>41.0</ele><time>2026-05-03T11:43:49.309Z</time></trkpt><trkpt lat="42.3341955" lon="14.1247122"><ele>41.0</ele><time>2026-05-03T11:43:50.311Z</time></trkpt><trkpt lat="42.3342468" lon="14.1248868"><ele>41.0</ele><time>2026-05-03T11:43:51.316Z</time></trkpt><trkpt lat="42.3343057" lon="14.1250572"><ele>41.0</ele><time>2026-05-03T11:43:52.313Z</time></trkpt><trkpt lat="42.3343606" lon="14.1252483"><ele>41.666666666666664</ele><time>2026-05-03T11:43:53.314Z</time></trkpt><trkpt lat="42.3344266" lon="14.1254284"><ele>42.333333333333336</ele><time>2026-05-03T11:43:54.314Z</time></trkpt><trkpt lat="42.3344896" lon="14.1256229"><ele>43.0</ele><time>2026-05-03T11:43:55.313Z</time></trkpt><trkpt lat="42.3345445" lon="14.1258157"><ele>43.5</ele><time>2026-05-03T11:43:56.313Z</time></trkpt><trkpt lat="42.3345963" lon="14.125995"><ele>44.0</ele><time>2026-05-03T11:43:57.31Z</time></trkpt><trkpt lat="42.3346507" lon="14.1261694"><ele>44.5</ele><time>2026-05-03T11:43:58.321Z</time></trkpt><trkpt lat="42.3347015" lon="14.1263633"><ele>45.0</ele><time>2026-05-03T11:43:59.317Z</time></trkpt><trkpt lat="42.3347692" lon="14.1265523"><ele>45.25</ele><time>2026-05-03T11:44:00.315Z</time></trkpt><trkpt lat="42.3348217" lon="14.1267428"><ele>45.5</ele><time>2026-05-03T11:44:01.307Z</time></trkpt><trkpt lat="42.3348841" lon="14.1269123"><ele>45.75</ele><time>2026-05-03T11:44:02.312Z</time></trkpt><trkpt lat="42.3349478" lon="14.1270973"><ele>46.0</ele><time>2026-05-03T11:44:03.31Z</time></trkpt><trkpt lat="42.3349962" lon="14.1272651"><ele>46.5</ele><time>2026-05-03T11:44:04.313Z</time></trkpt><trkpt lat="42.3350428" lon="14.1274266"><ele>47.0</ele><time>2026-05-03T11:44:05.308Z</time></trkpt><trkpt lat="42.3350965" lon="14.1275747"><ele>47.5</ele><time>2026-05-03T11:44:06.309Z</time></trkpt><trkpt lat="42.3351483" lon="14.127737"><ele>48.0</ele><time>2026-05-03T11:44:07.313Z</time></trkpt><trkpt lat="42.3351958" lon="14.1278897"><ele>48.0</ele><time>2026-05-03T11:44:08.308Z</time></trkpt><trkpt lat="42.3352384" lon="14.1280462"><ele>48.0</ele><time>2026-05-03T11:44:09.311Z</time></trkpt><trkpt lat="42.3352842" lon="14.1282079"><ele>48.0</ele><time>2026-05-03T11:44:10.31Z</time></trkpt><trkpt lat="42.3353362" lon="14.1283723"><ele>48.0</ele><time>2026-05-03T11:44:11.319Z</time></trkpt><trkpt lat="42.33539" lon="14.1285341"><ele>48.25</ele><time>2026-05-03T11:44:12.309Z</time></trkpt><trkpt lat="42.335444" lon="14.128701"><ele>48.5</ele><time>2026-05-03T11:44:13.309Z</time></trkpt><trkpt lat="42.3355027" lon="14.1288623"><ele>48.75</ele><time>2026-05-03T11:44:14.312Z</time></trkpt><trkpt lat="42.3355607" lon="14.1290393"><ele>49.0</ele><time>2026-05-03T11:44:15.311Z</time></trkpt><trkpt lat="42.3356382" lon="14.1292196"><ele>49.33333333333333</ele><time>2026-05-03T11:44:16.304Z</time></trkpt><trkpt lat="42.3357106" lon="14.1294254"><ele>49.66666666666667</ele><time>2026-05-03T11:44:17.314Z</time></trkpt><trkpt lat="42.3357672" lon="14.12964"><ele>50.0</ele><time>2026-05-03T11:44:18.309Z</time></trkpt><trkpt lat="42.3358103" lon="14.1298377"><ele>50.66666666666667</ele><time>2026-05-03T11:44:19.312Z</time></trkpt><trkpt lat="42.3358672" lon="14.1300304"><ele>51.33333333333333</ele><time>2026-05-03T11:44:20.312Z</time></trkpt><trkpt lat="42.3359232" lon="14.1302192"><ele>52.0</ele><time>2026-05-03T11:44:21.317Z</time></trkpt><trkpt lat="42.3359743" lon="14.1304039"><ele>52.0</ele><time>2026-05-03T11:44:22.315Z</time></trkpt><trkpt lat="42.3360415" lon="14.1305891"><ele>52.0</ele><time>2026-05-03T11:44:23.309Z</time></trkpt><trkpt lat="42.3360937" lon="14.130776"><ele>52.0</ele><time>2026-05-03T11:44:24.311Z</time></trkpt><trkpt lat="42.3361551" lon="14.1309594"><ele>52.0</ele><time>2026-05-03T11:44:25.307Z</time></trkpt><trkpt lat="42.3362215" lon="14.1311371"><ele>52.0</ele><time>2026-05-03T11:44:26.311Z</time></trkpt><trkpt lat="42.3362763" lon="14.1313138"><ele>52.0</ele><time>2026-05-03T11:44:27.312Z</time></trkpt><trkpt lat="42.3363331" lon="14.1314951"><ele>52.0</ele><time>2026-05-03T11:44:28.31Z</time></trkpt><trkpt lat="42.3363842" lon="14.1316726"><ele>52.0</ele><time>2026-05-03T11:44:29.317Z</time></trkpt><trkpt lat="42.3364395" lon="14.131838"><ele>52.0</ele><time>2026-05-03T11:44:30.31Z</time></trkpt><trkpt lat="42.3365158" lon="14.1320083"><ele>52.0</ele><time>2026-05-03T11:44:31.312Z</time></trkpt><trkpt lat="42.3365926" lon="14.1321609"><ele>52.0</ele><time>2026-05-03T11:44:32.307Z</time></trkpt><trkpt lat="42.3366855" lon="14.1323065"><ele>52.0</ele><time>2026-05-03T11:44:33.31Z</time></trkpt><trkpt lat="42.3367978" lon="14.132439"><ele>52.666666666666664</ele><time>2026-05-03T11:44:34.307Z</time></trkpt><trkpt lat="42.3369173" lon="14.1325729"><ele>53.33333333333333</ele><time>2026-05-03T11:44:35.306Z</time></trkpt><trkpt lat="42.3370515" lon="14.1326781"><ele>54.0</ele><time>2026-05-03T11:44:36.308Z</time></trkpt><trkpt lat="42.3371911" lon="14.1327731"><ele>54.25</ele><time>2026-05-03T11:44:37.305Z</time></trkpt><trkpt lat="42.337321" lon="14.1328566"><ele>54.5</ele><time>2026-05-03T11:44:38.303Z</time></trkpt><trkpt lat="42.3374601" lon="14.1329061"><ele>54.75</ele><time>2026-05-03T11:44:39.309Z</time></trkpt><trkpt lat="42.3376019" lon="14.132953"><ele>55.0</ele><time>2026-05-03T11:44:40.311Z</time></trkpt><trkpt lat="42.3377396" lon="14.1329807"><ele>55.0</ele><time>2026-05-03T11:44:41.312Z</time></trkpt><trkpt lat="42.3378765" lon="14.1330264"><ele>55.0</ele><time>2026-05-03T11:44:42.324Z</time></trkpt><trkpt lat="42.3380106" lon="14.1330646"><ele>55.0</ele><time>2026-05-03T11:44:43.312Z</time></trkpt><trkpt lat="42.3381422" lon="14.1331054"><ele>55.0</ele><time>2026-05-03T11:44:44.314Z</time></trkpt><trkpt lat="42.338278" lon="14.1331409"><ele>55.0</ele><time>2026-05-03T11:44:45.32Z</time></trkpt><trkpt lat="42.3384145" lon="14.1331857"><ele>55.0</ele><time>2026-05-03T11:44:46.318Z</time></trkpt><trkpt lat="42.3385477" lon="14.1332344"><ele>55.0</ele><time>2026-05-03T11:44:47.312Z</time></trkpt><trkpt lat="42.3386831" lon="14.1332857"><ele>55.0</ele><time>2026-05-03T11:44:48.526Z</time></trkpt><trkpt lat="42.3389414" lon="14.1333752"><ele>55.25</ele><time>2026-05-03T11:44:50.3Z</time></trkpt><trkpt lat="42.3390689" lon="14.1334131"><ele>55.5</ele><time>2026-05-03T11:44:51.299Z</time></trkpt><trkpt lat="42.3391779" lon="14.1334483"><ele>55.75</ele><time>2026-05-03T11:44:52.296Z</time></trkpt><trkpt lat="42.3392915" lon="14.1334807"><ele>56.0</ele><time>2026-05-03T11:44:53.297Z</time></trkpt><trkpt lat="42.3393961" lon="14.1335167"><ele>56.0</ele><time>2026-05-03T11:44:54.299Z</time></trkpt><trkpt lat="42.3395002" lon="14.1335458"><ele>55.99999999999999</ele><time>2026-05-03T11:44:55.303Z</time></trkpt><trkpt lat="42.3395978" lon="14.1335622"><ele>55.99999999999999</ele><time>2026-05-03T11:44:56.301Z</time></trkpt><trkpt lat="42.3396832" lon="14.1335951"><ele>56.0</ele><time>2026-05-03T11:44:57.304Z</time></trkpt><trkpt lat="42.3397718" lon="14.1336221"><ele>56.0</ele><time>2026-05-03T11:44:58.308Z</time></trkpt><trkpt lat="42.3398586" lon="14.1336625"><ele>55.833333333333336</ele><time>2026-05-03T11:44:59.306Z</time></trkpt><trkpt lat="42.3399483" lon="14.1336827"><ele>55.66666666666667</ele><time>2026-05-03T11:45:00.307Z</time></trkpt><trkpt lat="42.3400399" lon="14.133707"><ele>55.5</ele><time>2026-05-03T11:45:01.302Z</time></trkpt><trkpt lat="42.3401263" lon="14.1337243"><ele>55.33333333333333</ele><time>2026-05-03T11:45:02.299Z</time></trkpt><trkpt lat="42.3402037" lon="14.1337424"><ele>55.166666666666664</ele><time>2026-05-03T11:45:03.3Z</time></trkpt><trkpt lat="42.3402704" lon="14.1337576"><ele>55.0</ele><time>2026-05-03T11:45:04.299Z</time></trkpt><trkpt lat="42.3403371" lon="14.133782"><ele>54.99999999999999</ele><time>2026-05-03T11:45:05.295Z</time></trkpt><trkpt lat="42.3404136" lon="14.1338279"><ele>55.0</ele><time>2026-05-03T11:45:07.293Z</time></trkpt><trkpt lat="42.3404757" lon="14.1338871"><ele>55.0</ele><time>2026-05-03T11:45:12.297Z</time></trkpt><trkpt lat="42.340529" lon="14.1339486"><ele>55.0</ele><time>2026-05-03T11:45:15.3Z</time></trkpt><trkpt lat="42.3406039" lon="14.1339952"><ele>54.99999999999999</ele><time>2026-05-03T11:45:17.294Z</time></trkpt><trkpt lat="42.3406866" lon="14.1339582"><ele>55.0</ele><time>2026-05-03T11:45:19.295Z</time></trkpt><trkpt lat="42.3407358" lon="14.1338132"><ele>54.666666666666664</ele><time>2026-05-03T11:45:21.298Z</time></trkpt><trkpt lat="42.340725" lon="14.1337151"><ele>54.33333333333333</ele><time>2026-05-03T11:45:22.3Z</time></trkpt><trkpt lat="42.3406985" lon="14.1336186"><ele>54.0</ele><time>2026-05-03T11:45:23.294Z</time></trkpt><trkpt lat="42.3406786" lon="14.1335241"><ele>53.66666666666667</ele><time>2026-05-03T11:45:24.289Z</time></trkpt><trkpt lat="42.3406902" lon="14.1334233"><ele>53.333333333333336</ele><time>2026-05-03T11:45:25.298Z</time></trkpt><trkpt lat="42.3407421" lon="14.1333189"><ele>53.0</ele><time>2026-05-03T11:45:26.293Z</time></trkpt><trkpt lat="42.3407876" lon="14.1331975"><ele>52.599999999999994</ele><time>2026-05-03T11:45:27.293Z</time></trkpt><trkpt lat="42.340851" lon="14.1331012"><ele>52.199999999999996</ele><time>2026-05-03T11:45:28.294Z</time></trkpt><trkpt lat="42.3409066" lon="14.1329926"><ele>51.8</ele><time>2026-05-03T11:45:29.296Z</time></trkpt><trkpt lat="42.3409736" lon="14.1328903"><ele>51.4</ele><time>2026-05-03T11:45:30.291Z</time></trkpt><trkpt lat="42.341041" lon="14.1327816"><ele>51.0</ele><time>2026-05-03T11:45:31.3Z</time></trkpt><trkpt lat="42.3411116" lon="14.1326649"><ele>51.0</ele><time>2026-05-03T11:45:32.298Z</time></trkpt><trkpt lat="42.3411821" lon="14.1325501"><ele>51.0</ele><time>2026-05-03T11:45:33.304Z</time></trkpt><trkpt lat="42.341265" lon="14.1324273"><ele>51.0</ele><time>2026-05-03T11:45:34.3Z</time></trkpt><trkpt lat="42.3413537" lon="14.1323105"><ele>51.0</ele><time>2026-05-03T11:45:35.307Z</time></trkpt><trkpt lat="42.3414356" lon="14.1321942"><ele>50.4</ele><time>2026-05-03T11:45:36.298Z</time></trkpt><trkpt lat="42.3414951" lon="14.1320707"><ele>49.8</ele><time>2026-05-03T11:45:37.294Z</time></trkpt><trkpt lat="42.3415458" lon="14.1319397"><ele>49.199999999999996</ele><time>2026-05-03T11:45:38.299Z</time></trkpt><trkpt lat="42.3415843" lon="14.1318162"><ele>48.599999999999994</ele><time>2026-05-03T11:45:39.294Z</time></trkpt><trkpt lat="42.3416175" lon="14.1316971"><ele>48.0</ele><time>2026-05-03T11:45:40.286Z</time></trkpt><trkpt lat="42.3416521" lon="14.131583"><ele>47.8</ele><time>2026-05-03T11:45:41.28Z</time></trkpt><trkpt lat="42.3416756" lon="14.1314672"><ele>47.599999999999994</ele><time>2026-05-03T11:45:42.279Z</time></trkpt><trkpt lat="42.3416925" lon="14.1313621"><ele>47.400000000000006</ele><time>2026-05-03T11:45:43.278Z</time></trkpt><trkpt lat="42.3417403" lon="14.1312244"><ele>47.2</ele><time>2026-05-03T11:45:45.281Z</time></trkpt><trkpt lat="42.3418069" lon="14.1311224"><ele>47.0</ele><time>2026-05-03T11:45:47.289Z</time></trkpt><trkpt lat="42.3418487" lon="14.1310281"><ele>47.0</ele><time>2026-05-03T11:45:49.286Z</time></trkpt><trkpt lat="42.3418508" lon="14.1308662"><ele>47.0</ele><time>2026-05-03T11:45:51.292Z</time></trkpt><trkpt lat="42.3418637" lon="14.1307681"><ele>47.0</ele><time>2026-05-03T11:45:52.292Z</time></trkpt><trkpt lat="42.341896" lon="14.130656"><ele>47.0</ele><time>2026-05-03T11:45:53.292Z</time></trkpt><trkpt lat="42.341921" lon="14.1305465"><ele>47.0</ele><time>2026-05-03T11:45:54.294Z</time></trkpt><trkpt lat="42.3419466" lon="14.1304351"><ele>46.83333333333333</ele><time>2026-05-03T11:45:55.293Z</time></trkpt><trkpt lat="42.3419683" lon="14.1303243"><ele>46.666666666666664</ele><time>2026-05-03T11:45:56.283Z</time></trkpt><trkpt lat="42.3419997" lon="14.1302066"><ele>46.5</ele><time>2026-05-03T11:45:57.282Z</time></trkpt><trkpt lat="42.342026" lon="14.1301021"><ele>46.333333333333336</ele><time>2026-05-03T11:45:58.289Z</time></trkpt><trkpt lat="42.3420371" lon="14.1300103"><ele>46.16666666666667</ele><time>2026-05-03T11:45:59.276Z</time></trkpt><trkpt lat="42.3420385" lon="14.1298637"><ele>46.0</ele><time>2026-05-03T11:46:01.283Z</time></trkpt><trkpt lat="42.3420331" lon="14.1297736"><ele>45.66666666666667</ele><time>2026-05-03T11:46:03.291Z</time></trkpt><trkpt lat="42.3420805" lon="14.1296542"><ele>45.333333333333336</ele><time>2026-05-03T11:46:06.294Z</time></trkpt><trkpt lat="42.3421622" lon="14.1295294"><ele>45.0</ele><time>2026-05-03T11:46:08.285Z</time></trkpt><trkpt lat="42.3421909" lon="14.1294369"><ele>44.666666666666664</ele><time>2026-05-03T11:46:09.282Z</time></trkpt><trkpt lat="42.3421988" lon="14.1293447"><ele>44.33333333333333</ele><time>2026-05-03T11:46:10.292Z</time></trkpt><trkpt lat="42.342156" lon="14.1292562"><ele>44.0</ele><time>2026-05-03T11:46:11.277Z</time></trkpt><trkpt lat="42.3420911" lon="14.1291783"><ele>44.0</ele><time>2026-05-03T11:46:12.282Z</time></trkpt><trkpt lat="42.342012" lon="14.1291164"><ele>44.0</ele><time>2026-05-03T11:46:13.284Z</time></trkpt><trkpt lat="42.3419327" lon="14.1290344"><ele>44.0</ele><time>2026-05-03T11:46:14.278Z</time></trkpt><trkpt lat="42.3418681" lon="14.1289109"><ele>44.0</ele><time>2026-05-03T11:46:15.297Z</time></trkpt><trkpt lat="42.3418353" lon="14.1287575"><ele>44.0</ele><time>2026-05-03T11:46:16.283Z</time></trkpt><trkpt lat="42.3418102" lon="14.1285965"><ele>42.33333333333333</ele><time>2026-05-03T11:46:17.279Z</time></trkpt><trkpt lat="42.3417786" lon="14.1284164"><ele>40.666666666666664</ele><time>2026-05-03T11:46:18.279Z</time></trkpt><trkpt lat="42.3417425" lon="14.1282057"><ele>39.0</ele><time>2026-05-03T11:46:19.281Z</time></trkpt><trkpt lat="42.341701" lon="14.12799"><ele>38.333333333333336</ele><time>2026-05-03T11:46:20.283Z</time></trkpt><trkpt lat="42.3416627" lon="14.1277857"><ele>37.66666666666667</ele><time>2026-05-03T11:46:21.282Z</time></trkpt><trkpt lat="42.3416251" lon="14.1275758"><ele>37.0</ele><time>2026-05-03T11:46:22.282Z</time></trkpt><trkpt lat="42.3415871" lon="14.127366"><ele>36.333333333333336</ele><time>2026-05-03T11:46:23.29Z</time></trkpt><trkpt lat="42.3415526" lon="14.1271456"><ele>35.666666666666664</ele><time>2026-05-03T11:46:24.294Z</time></trkpt><trkpt lat="42.3415166" lon="14.1269224"><ele>35.0</ele><time>2026-05-03T11:46:25.289Z</time></trkpt><trkpt lat="42.3414735" lon="14.1267007"><ele>35.0</ele><time>2026-05-03T11:46:26.29Z</time></trkpt><trkpt lat="42.3414309" lon="14.1264705"><ele>35.0</ele><time>2026-05-03T11:46:27.288Z</time></trkpt><trkpt lat="42.3414068" lon="14.1262529"><ele>35.0</ele><time>2026-05-03T11:46:28.29Z</time></trkpt><trkpt lat="42.3413735" lon="14.1260357"><ele>35.0</ele><time>2026-05-03T11:46:29.296Z</time></trkpt><trkpt lat="42.3413265" lon="14.1258223"><ele>35.0</ele><time>2026-05-03T11:46:30.292Z</time></trkpt><trkpt lat="42.3412893" lon="14.1256111"><ele>35.0</ele><time>2026-05-03T11:46:31.295Z</time></trkpt><trkpt lat="42.3412621" lon="14.1253998"><ele>35.0</ele><time>2026-05-03T11:46:32.292Z</time></trkpt><trkpt lat="42.3412284" lon="14.1251908"><ele>35.0</ele><time>2026-05-03T11:46:33.297Z</time></trkpt><trkpt lat="42.341189" lon="14.1249781"><ele>35.0</ele><time>2026-05-03T11:46:34.294Z</time></trkpt><trkpt lat="42.3411586" lon="14.1247512"><ele>35.0</ele><time>2026-05-03T11:46:35.295Z</time></trkpt><trkpt lat="42.3411189" lon="14.1245182"><ele>35.0</ele><time>2026-05-03T11:46:36.289Z</time></trkpt><trkpt lat="42.3410629" lon="14.1242793"><ele>35.0</ele><time>2026-05-03T11:46:37.294Z</time></trkpt><trkpt lat="42.3410287" lon="14.1240428"><ele>35.25</ele><time>2026-05-03T11:46:38.284Z</time></trkpt><trkpt lat="42.3409859" lon="14.1238339"><ele>35.5</ele><time>2026-05-03T11:46:39.285Z</time></trkpt><trkpt lat="42.3409525" lon="14.1236361"><ele>35.75</ele><time>2026-05-03T11:46:40.284Z</time></trkpt><trkpt lat="42.340925" lon="14.1234561"><ele>36.0</ele><time>2026-05-03T11:46:41.289Z</time></trkpt><trkpt lat="42.3409016" lon="14.1232683"><ele>35.75</ele><time>2026-05-03T11:46:42.289Z</time></trkpt><trkpt lat="42.3408722" lon="14.1230851"><ele>35.5</ele><time>2026-05-03T11:46:43.285Z</time></trkpt><trkpt lat="42.3408397" lon="14.1228922"><ele>35.25</ele><time>2026-05-03T11:46:44.286Z</time></trkpt><trkpt lat="42.3408064" lon="14.122701"><ele>35.0</ele><time>2026-05-03T11:46:45.292Z</time></trkpt><trkpt lat="42.340778" lon="14.122521"><ele>34.75</ele><time>2026-05-03T11:46:46.29Z</time></trkpt><trkpt lat="42.340768" lon="14.1223277"><ele>34.5</ele><time>2026-05-03T11:46:47.285Z</time></trkpt><trkpt lat="42.3407836" lon="14.12213"><ele>34.25</ele><time>2026-05-03T11:46:48.284Z</time></trkpt><trkpt lat="42.3408064" lon="14.1219357"><ele>34.0</ele><time>2026-05-03T11:46:49.277Z</time></trkpt><trkpt lat="42.3408463" lon="14.1217783"><ele>34.0</ele><time>2026-05-03T11:46:50.298Z</time></trkpt><trkpt lat="42.340907" lon="14.121671"><ele>34.0</ele><time>2026-05-03T11:46:51.295Z</time></trkpt><trkpt lat="42.3409794" lon="14.1215995"><ele>34.0</ele><time>2026-05-03T11:46:52.283Z</time></trkpt><trkpt lat="42.3410488" lon="14.1215408"><ele>34.0</ele><time>2026-05-03T11:46:53.291Z</time></trkpt><trkpt lat="42.3411282" lon="14.121484"><ele>34.0</ele><time>2026-05-03T11:46:54.284Z</time></trkpt><trkpt lat="42.3411925" lon="14.1214035"><ele>34.0</ele><time>2026-05-03T11:46:55.297Z</time></trkpt><trkpt lat="42.3412186" lon="14.1212754"><ele>33.0</ele><time>2026-05-03T11:46:56.286Z</time></trkpt><trkpt lat="42.3412305" lon="14.121126"><ele>32.0</ele><time>2026-05-03T11:46:57.299Z</time></trkpt><trkpt lat="42.3412421" lon="14.120971"><ele>31.0</ele><time>2026-05-03T11:46:58.283Z</time></trkpt><trkpt lat="42.3412856" lon="14.1208243"><ele>30.0</ele><time>2026-05-03T11:46:59.289Z</time></trkpt><trkpt lat="42.3413507" lon="14.1206846"><ele>30.75</ele><time>2026-05-03T11:47:00.29Z</time></trkpt><trkpt lat="42.3414284" lon="14.1205477"><ele>31.5</ele><time>2026-05-03T11:47:01.295Z</time></trkpt><trkpt lat="42.3415073" lon="14.1204107"><ele>32.25</ele><time>2026-05-03T11:47:02.299Z</time></trkpt><trkpt lat="42.3415873" lon="14.1202718"><ele>33.0</ele><time>2026-05-03T11:47:03.299Z</time></trkpt><trkpt lat="42.3416627" lon="14.1201336"><ele>33.0</ele><time>2026-05-03T11:47:04.304Z</time></trkpt><trkpt lat="42.3417344" lon="14.1200041"><ele>33.0</ele><time>2026-05-03T11:47:05.296Z</time></trkpt><trkpt lat="42.341805" lon="14.1198776"><ele>33.0</ele><time>2026-05-03T11:47:06.302Z</time></trkpt><trkpt lat="42.3418742" lon="14.1197465"><ele>33.0</ele><time>2026-05-03T11:47:07.299Z</time></trkpt><trkpt lat="42.3419462" lon="14.1196096"><ele>33.0</ele><time>2026-05-03T11:47:08.304Z</time></trkpt><trkpt lat="42.342018" lon="14.1194753"><ele>33.0</ele><time>2026-05-03T11:47:09.299Z</time></trkpt><trkpt lat="42.3420882" lon="14.1193375"><ele>33.0</ele><time>2026-05-03T11:47:10.297Z</time></trkpt><trkpt lat="42.3421593" lon="14.119202"><ele>33.0</ele><time>2026-05-03T11:47:11.302Z</time></trkpt><trkpt lat="42.3422361" lon="14.1190593"><ele>33.0</ele><time>2026-05-03T11:47:12.299Z</time></trkpt><trkpt lat="42.3423119" lon="14.1189102"><ele>33.0</ele><time>2026-05-03T11:47:13.292Z</time></trkpt><trkpt lat="42.3423866" lon="14.1187562"><ele>33.0</ele><time>2026-05-03T11:47:14.29Z</time></trkpt><trkpt lat="42.3424524" lon="14.1185843"><ele>33.0</ele><time>2026-05-03T11:47:15.298Z</time></trkpt><trkpt lat="42.3425068" lon="14.1184021"><ele>35.0</ele><time>2026-05-03T11:47:16.295Z</time></trkpt><trkpt lat="42.34255" lon="14.1181975"><ele>37.0</ele><time>2026-05-03T11:47:17.299Z</time></trkpt><trkpt lat="42.3425889" lon="14.1179944"><ele>39.0</ele><time>2026-05-03T11:47:18.296Z</time></trkpt><trkpt lat="42.3426317" lon="14.1177983"><ele>39.0</ele><time>2026-05-03T11:47:19.296Z</time></trkpt><trkpt lat="42.3426685" lon="14.1176029"><ele>39.0</ele><time>2026-05-03T11:47:20.301Z</time></trkpt><trkpt lat="42.3427087" lon="14.1174078"><ele>39.0</ele><time>2026-05-03T11:47:21.301Z</time></trkpt><trkpt lat="42.3427507" lon="14.1172309"><ele>39.0</ele><time>2026-05-03T11:47:22.299Z</time></trkpt><trkpt lat="42.3427828" lon="14.1170322"><ele>41.0</ele><time>2026-05-03T11:47:23.302Z</time></trkpt><trkpt lat="42.3428135" lon="14.1168317"><ele>43.0</ele><time>2026-05-03T11:47:24.303Z</time></trkpt><trkpt lat="42.3428471" lon="14.1166284"><ele>45.0</ele><time>2026-05-03T11:47:25.299Z</time></trkpt><trkpt lat="42.3428828" lon="14.1164346"><ele>45.25</ele><time>2026-05-03T11:47:26.302Z</time></trkpt><trkpt lat="42.3429165" lon="14.1162554"><ele>45.5</ele><time>2026-05-03T11:47:27.298Z</time></trkpt><trkpt lat="42.3429474" lon="14.1160747"><ele>45.75</ele><time>2026-05-03T11:47:28.303Z</time></trkpt><trkpt lat="42.3429765" lon="14.1159003"><ele>46.0</ele><time>2026-05-03T11:47:29.308Z</time></trkpt><trkpt lat="42.3430073" lon="14.1157215"><ele>46.5</ele><time>2026-05-03T11:47:30.299Z</time></trkpt><trkpt lat="42.3430406" lon="14.1155467"><ele>47.0</ele><time>2026-05-03T11:47:31.299Z</time></trkpt><trkpt lat="42.3430676" lon="14.1153691"><ele>47.5</ele><time>2026-05-03T11:47:32.298Z</time></trkpt><trkpt lat="42.3430976" lon="14.1151911"><ele>48.0</ele><time>2026-05-03T11:47:33.301Z</time></trkpt><trkpt lat="42.3431255" lon="14.1150088"><ele>48.0</ele><time>2026-05-03T11:47:34.303Z</time></trkpt><trkpt lat="42.3431516" lon="14.1148454"><ele>48.0</ele><time>2026-05-03T11:47:35.307Z</time></trkpt><trkpt lat="42.3431761" lon="14.1146829"><ele>48.0</ele><time>2026-05-03T11:47:36.301Z</time></trkpt><trkpt lat="42.3431991" lon="14.1145321"><ele>48.0</ele><time>2026-05-03T11:47:37.306Z</time></trkpt><trkpt lat="42.3432297" lon="14.1143838"><ele>48.0</ele><time>2026-05-03T11:47:38.305Z</time></trkpt><trkpt lat="42.3432511" lon="14.1142273"><ele>48.0</ele><time>2026-05-03T11:47:39.299Z</time></trkpt><trkpt lat="42.3432687" lon="14.1140677"><ele>48.0</ele><time>2026-05-03T11:47:40.295Z</time></trkpt><trkpt lat="42.3432858" lon="14.1139031"><ele>48.0</ele><time>2026-05-03T11:47:41.301Z</time></trkpt><trkpt lat="42.3433059" lon="14.1137319"><ele>47.75</ele><time>2026-05-03T11:47:42.301Z</time></trkpt><trkpt lat="42.3433279" lon="14.113553"><ele>47.5</ele><time>2026-05-03T11:47:43.303Z</time></trkpt><trkpt lat="42.3433455" lon="14.1133782"><ele>47.25</ele><time>2026-05-03T11:47:44.304Z</time></trkpt><trkpt lat="42.3433651" lon="14.1131998"><ele>47.0</ele><time>2026-05-03T11:47:45.304Z</time></trkpt><trkpt lat="42.3433855" lon="14.1130297"><ele>47.0</ele><time>2026-05-03T11:47:46.306Z</time></trkpt><trkpt lat="42.343405" lon="14.1128605"><ele>47.0</ele><time>2026-05-03T11:47:47.304Z</time></trkpt><trkpt lat="42.3434234" lon="14.1126922"><ele>47.0</ele><time>2026-05-03T11:47:48.308Z</time></trkpt><trkpt lat="42.343444" lon="14.112522"><ele>47.0</ele><time>2026-05-03T11:47:49.302Z</time></trkpt><trkpt lat="42.3434641" lon="14.1123543"><ele>47.0</ele><time>2026-05-03T11:47:50.3Z</time></trkpt><trkpt lat="42.3434841" lon="14.1121914"><ele>47.0</ele><time>2026-05-03T11:47:51.302Z</time></trkpt><trkpt lat="42.3435065" lon="14.112039"><ele>47.0</ele><time>2026-05-03T11:47:52.301Z</time></trkpt><trkpt lat="42.3435246" lon="14.1118976"><ele>47.0</ele><time>2026-05-03T11:47:53.3Z</time></trkpt><trkpt lat="42.3435381" lon="14.111767"><ele>47.0</ele><time>2026-05-03T11:47:54.307Z</time></trkpt><trkpt lat="42.3435526" lon="14.1116461"><ele>47.166666666666664</ele><time>2026-05-03T11:47:55.292Z</time></trkpt><trkpt lat="42.3435751" lon="14.1115369"><ele>47.33333333333333</ele><time>2026-05-03T11:47:56.302Z</time></trkpt><trkpt lat="42.3436038" lon="14.1114606"><ele>47.5</ele><time>2026-05-03T11:47:57.304Z</time></trkpt><trkpt lat="42.3437" lon="14.1114126"><ele>47.666666666666664</ele><time>2026-05-03T11:47:59.297Z</time></trkpt><trkpt lat="42.3437702" lon="14.1114288"><ele>47.833333333333336</ele><time>2026-05-03T11:48:00.295Z</time></trkpt><trkpt lat="42.3438531" lon="14.1114757"><ele>48.0</ele><time>2026-05-03T11:48:01.29Z</time></trkpt><trkpt lat="42.3439391" lon="14.1115331"><ele>48.0</ele><time>2026-05-03T11:48:02.296Z</time></trkpt><trkpt lat="42.344029" lon="14.111601"><ele>48.0</ele><time>2026-05-03T11:48:03.293Z</time></trkpt><trkpt lat="42.3441242" lon="14.1116683"><ele>48.0</ele><time>2026-05-03T11:48:04.294Z</time></trkpt><trkpt lat="42.3442252" lon="14.1117378"><ele>48.0</ele><time>2026-05-03T11:48:05.294Z</time></trkpt><trkpt lat="42.3443356" lon="14.1118121"><ele>48.0</ele><time>2026-05-03T11:48:06.298Z</time></trkpt><trkpt lat="42.344445" lon="14.1118877"><ele>48.0</ele><time>2026-05-03T11:48:07.29Z</time></trkpt><trkpt lat="42.3445487" lon="14.1119637"><ele>48.0</ele><time>2026-05-03T11:48:08.295Z</time></trkpt><trkpt lat="42.3446535" lon="14.1120353"><ele>48.0</ele><time>2026-05-03T11:48:09.3Z</time></trkpt><trkpt lat="42.3447685" lon="14.1121143"><ele>48.0</ele><time>2026-05-03T11:48:10.295Z</time></trkpt><trkpt lat="42.3448889" lon="14.1121958"><ele>47.5</ele><time>2026-05-03T11:48:11.294Z</time></trkpt><trkpt lat="42.3450148" lon="14.1122809"><ele>47.0</ele><time>2026-05-03T11:48:12.294Z</time></trkpt><trkpt lat="42.3451448" lon="14.1123518"><ele>46.5</ele><time>2026-05-03T11:48:13.296Z</time></trkpt><trkpt lat="42.3452829" lon="14.1124074"><ele>46.0</ele><time>2026-05-03T11:48:14.292Z</time></trkpt><trkpt lat="42.3454246" lon="14.1124595"><ele>46.0</ele><time>2026-05-03T11:48:15.299Z</time></trkpt><trkpt lat="42.3455726" lon="14.1125061"><ele>46.0</ele><time>2026-05-03T11:48:16.295Z</time></trkpt><trkpt lat="42.3457145" lon="14.1125481"><ele>46.0</ele><time>2026-05-03T11:48:17.298Z</time></trkpt><trkpt lat="42.3458583" lon="14.1125823"><ele>46.0</ele><time>2026-05-03T11:48:18.288Z</time></trkpt><trkpt lat="42.3459957" lon="14.1126206"><ele>46.0</ele><time>2026-05-03T11:48:19.301Z</time></trkpt><trkpt lat="42.3461297" lon="14.112661"><ele>46.0</ele><time>2026-05-03T11:48:20.294Z</time></trkpt><trkpt lat="42.3462624" lon="14.1127066"><ele>46.0</ele><time>2026-05-03T11:48:21.296Z</time></trkpt><trkpt lat="42.3463956" lon="14.112765"><ele>46.0</ele><time>2026-05-03T11:48:22.292Z</time></trkpt><trkpt lat="42.3465238" lon="14.1128335"><ele>45.5</ele><time>2026-05-03T11:48:23.298Z</time></trkpt><trkpt lat="42.3466541" lon="14.1128959"><ele>45.0</ele><time>2026-05-03T11:48:24.296Z</time></trkpt><trkpt lat="42.346786" lon="14.1129646"><ele>44.5</ele><time>2026-05-03T11:48:25.302Z</time></trkpt><trkpt lat="42.346912" lon="14.1130343"><ele>44.0</ele><time>2026-05-03T11:48:26.295Z</time></trkpt><trkpt lat="42.3470468" lon="14.113105"><ele>44.0</ele><time>2026-05-03T11:48:27.296Z</time></trkpt><trkpt lat="42.3471829" lon="14.1131657"><ele>44.0</ele><time>2026-05-03T11:48:28.305Z</time></trkpt><trkpt lat="42.3473097" lon="14.113229"><ele>44.0</ele><time>2026-05-03T11:48:29.302Z</time></trkpt><trkpt lat="42.3474295" lon="14.113285"><ele>44.0</ele><time>2026-05-03T11:48:30.299Z</time></trkpt><trkpt lat="42.3475426" lon="14.1133408"><ele>44.25</ele><time>2026-05-03T11:48:31.303Z</time></trkpt><trkpt lat="42.3476564" lon="14.1134007"><ele>44.5</ele><time>2026-05-03T11:48:32.297Z</time></trkpt><trkpt lat="42.3477682" lon="14.1134604"><ele>44.75</ele><time>2026-05-03T11:48:33.299Z</time></trkpt><trkpt lat="42.3478814" lon="14.1135237"><ele>45.0</ele><time>2026-05-03T11:48:34.297Z</time></trkpt><trkpt lat="42.3479945" lon="14.1135852"><ele>45.0</ele><time>2026-05-03T11:48:35.295Z</time></trkpt><trkpt lat="42.3481057" lon="14.1136355"><ele>45.0</ele><time>2026-05-03T11:48:36.296Z</time></trkpt><trkpt lat="42.3482172" lon="14.1136701"><ele>45.0</ele><time>2026-05-03T11:48:37.294Z</time></trkpt><trkpt lat="42.3483385" lon="14.1136816"><ele>45.0</ele><time>2026-05-03T11:48:38.299Z</time></trkpt><trkpt lat="42.3484577" lon="14.1136515"><ele>45.0</ele><time>2026-05-03T11:48:39.299Z</time></trkpt><trkpt lat="42.348572" lon="14.1136025"><ele>45.0</ele><time>2026-05-03T11:48:40.298Z</time></trkpt><trkpt lat="42.3486864" lon="14.1135267"><ele>45.0</ele><time>2026-05-03T11:48:41.297Z</time></trkpt><trkpt lat="42.3487961" lon="14.1134454"><ele>45.0</ele><time>2026-05-03T11:48:42.295Z</time></trkpt><trkpt lat="42.3489155" lon="14.1133636"><ele>44.25</ele><time>2026-05-03T11:48:43.297Z</time></trkpt><trkpt lat="42.3490315" lon="14.1132858"><ele>43.5</ele><time>2026-05-03T11:48:44.294Z</time></trkpt><trkpt lat="42.349143" lon="14.1132118"><ele>42.75</ele><time>2026-05-03T11:48:45.296Z</time></trkpt><trkpt lat="42.3492506" lon="14.1131426"><ele>42.0</ele><time>2026-05-03T11:48:46.297Z</time></trkpt><trkpt lat="42.3493533" lon="14.1130766"><ele>41.75</ele><time>2026-05-03T11:48:47.295Z</time></trkpt><trkpt lat="42.3494556" lon="14.1130057"><ele>41.5</ele><time>2026-05-03T11:48:48.296Z</time></trkpt><trkpt lat="42.3495577" lon="14.1129313"><ele>41.25</ele><time>2026-05-03T11:48:49.296Z</time></trkpt><trkpt lat="42.3496608" lon="14.1128591"><ele>41.0</ele><time>2026-05-03T11:48:50.306Z</time></trkpt><trkpt lat="42.3497624" lon="14.1127883"><ele>41.75</ele><time>2026-05-03T11:48:51.3Z</time></trkpt><trkpt lat="42.3498659" lon="14.1127255"><ele>42.5</ele><time>2026-05-03T11:48:52.299Z</time></trkpt><trkpt lat="42.3499718" lon="14.1126645"><ele>43.25</ele><time>2026-05-03T11:48:53.303Z</time></trkpt><trkpt lat="42.3500777" lon="14.112609"><ele>44.0</ele><time>2026-05-03T11:48:54.296Z</time></trkpt><trkpt lat="42.3501961" lon="14.1125565"><ele>44.0</ele><time>2026-05-03T11:48:55.301Z</time></trkpt><trkpt lat="42.3503227" lon="14.1125156"><ele>44.0</ele><time>2026-05-03T11:48:56.304Z</time></trkpt><trkpt lat="42.3504637" lon="14.1124936"><ele>44.0</ele><time>2026-05-03T11:48:57.288Z</time></trkpt><trkpt lat="42.3506064" lon="14.1124792"><ele>44.0</ele><time>2026-05-03T11:48:58.305Z</time></trkpt><trkpt lat="42.3507589" lon="14.112497"><ele>44.0</ele><time>2026-05-03T11:48:59.291Z</time></trkpt><trkpt lat="42.3509072" lon="14.1125178"><ele>44.0</ele><time>2026-05-03T11:49:00.298Z</time></trkpt><trkpt lat="42.3510573" lon="14.1125651"><ele>44.0</ele><time>2026-05-03T11:49:01.297Z</time></trkpt><trkpt lat="42.3512077" lon="14.112623"><ele>44.0</ele><time>2026-05-03T11:49:02.299Z</time></trkpt><trkpt lat="42.3513596" lon="14.1126872"><ele>44.0</ele><time>2026-05-03T11:49:03.295Z</time></trkpt><trkpt lat="42.3515179" lon="14.1127573"><ele>44.0</ele><time>2026-05-03T11:49:04.296Z</time></trkpt><trkpt lat="42.3516797" lon="14.1128334"><ele>42.666666666666664</ele><time>2026-05-03T11:49:05.302Z</time></trkpt><trkpt lat="42.3518419" lon="14.1129055"><ele>41.333333333333336</ele><time>2026-05-03T11:49:06.304Z</time></trkpt><trkpt lat="42.3519951" lon="14.1129682"><ele>40.0</ele><time>2026-05-03T11:49:07.299Z</time></trkpt><trkpt lat="42.3521399" lon="14.1130463"><ele>38.333333333333336</ele><time>2026-05-03T11:49:08.308Z</time></trkpt><trkpt lat="42.3523031" lon="14.113115"><ele>36.666666666666664</ele><time>2026-05-03T11:49:09.3Z</time></trkpt><trkpt lat="42.3524588" lon="14.1131712"><ele>35.0</ele><time>2026-05-03T11:49:10.304Z</time></trkpt><trkpt lat="42.3526204" lon="14.113228"><ele>35.0</ele><time>2026-05-03T11:49:11.3Z</time></trkpt><trkpt lat="42.3527711" lon="14.1132958"><ele>35.0</ele><time>2026-05-03T11:49:12.305Z</time></trkpt><trkpt lat="42.3529258" lon="14.1133508"><ele>35.0</ele><time>2026-05-03T11:49:13.3Z</time></trkpt><trkpt lat="42.3530737" lon="14.1134056"><ele>35.0</ele><time>2026-05-03T11:49:14.305Z</time></trkpt><trkpt lat="42.3532275" lon="14.1134648"><ele>35.0</ele><time>2026-05-03T11:49:15.305Z</time></trkpt><trkpt lat="42.3533801" lon="14.1135231"><ele>35.0</ele><time>2026-05-03T11:49:16.301Z</time></trkpt><trkpt lat="42.3535374" lon="14.1135728"><ele>35.0</ele><time>2026-05-03T11:49:17.304Z</time></trkpt><trkpt lat="42.3536819" lon="14.1136347"><ele>35.0</ele><time>2026-05-03T11:49:18.299Z</time></trkpt><trkpt lat="42.3538257" lon="14.1136997"><ele>35.0</ele><time>2026-05-03T11:49:19.299Z</time></trkpt><trkpt lat="42.353972" lon="14.1137592"><ele>35.33333333333333</ele><time>2026-05-03T11:49:20.298Z</time></trkpt><trkpt lat="42.3541164" lon="14.1138202"><ele>35.666666666666664</ele><time>2026-05-03T11:49:21.307Z</time></trkpt><trkpt lat="42.3542675" lon="14.1138791"><ele>36.0</ele><time>2026-05-03T11:49:22.3Z</time></trkpt><trkpt lat="42.3544108" lon="14.11394"><ele>36.0</ele><time>2026-05-03T11:49:23.3Z</time></trkpt><trkpt lat="42.3545582" lon="14.1139992"><ele>36.0</ele><time>2026-05-03T11:49:24.299Z</time></trkpt><trkpt lat="42.3547132" lon="14.1140634"><ele>36.0</ele><time>2026-05-03T11:49:25.302Z</time></trkpt><trkpt lat="42.3548648" lon="14.1141182"><ele>36.333333333333336</ele><time>2026-05-03T11:49:26.301Z</time></trkpt><trkpt lat="42.3550138" lon="14.1141733"><ele>36.66666666666667</ele><time>2026-05-03T11:49:27.3Z</time></trkpt><trkpt lat="42.3551613" lon="14.1142407"><ele>37.0</ele><time>2026-05-03T11:49:28.302Z</time></trkpt><trkpt lat="42.3553043" lon="14.1143033"><ele>37.0</ele><time>2026-05-03T11:49:29.299Z</time></trkpt><trkpt lat="42.3554545" lon="14.1143649"><ele>37.0</ele><time>2026-05-03T11:49:30.299Z</time></trkpt><trkpt lat="42.3556041" lon="14.1144194"><ele>37.0</ele><time>2026-05-03T11:49:31.301Z</time></trkpt><trkpt lat="42.3557496" lon="14.1144722"><ele>39.5</ele><time>2026-05-03T11:49:32.298Z</time></trkpt><trkpt lat="42.3558895" lon="14.1145289"><ele>42.0</ele><time>2026-05-03T11:49:33.293Z</time></trkpt><trkpt lat="42.3560282" lon="14.1145776"><ele>44.5</ele><time>2026-05-03T11:49:34.289Z</time></trkpt><trkpt lat="42.3561769" lon="14.1146378"><ele>47.0</ele><time>2026-05-03T11:49:35.288Z</time></trkpt><trkpt lat="42.3563358" lon="14.1147035"><ele>47.666666666666664</ele><time>2026-05-03T11:49:36.292Z</time></trkpt><trkpt lat="42.3565063" lon="14.1147793"><ele>48.33333333333333</ele><time>2026-05-03T11:49:37.289Z</time></trkpt><trkpt lat="42.3566681" lon="14.1148443"><ele>49.0</ele><time>2026-05-03T11:49:38.296Z</time></trkpt><trkpt lat="42.3568468" lon="14.1149058"><ele>46.33333333333333</ele><time>2026-05-03T11:49:39.292Z</time></trkpt><trkpt lat="42.3570207" lon="14.1149841"><ele>43.666666666666664</ele><time>2026-05-03T11:49:40.294Z</time></trkpt><trkpt lat="42.3572005" lon="14.115054"><ele>41.0</ele><time>2026-05-03T11:49:41.294Z</time></trkpt><trkpt lat="42.3573725" lon="14.1151211"><ele>41.0</ele><time>2026-05-03T11:49:42.294Z</time></trkpt><trkpt lat="42.3575393" lon="14.1151933"><ele>41.0</ele><time>2026-05-03T11:49:43.296Z</time></trkpt><trkpt lat="42.357705" lon="14.1152526"><ele>41.0</ele><time>2026-05-03T11:49:44.296Z</time></trkpt><trkpt lat="42.3578679" lon="14.1153219"><ele>41.0</ele><time>2026-05-03T11:49:45.294Z</time></trkpt><trkpt lat="42.3580357" lon="14.1153913"><ele>41.0</ele><time>2026-05-03T11:49:46.292Z</time></trkpt><trkpt lat="42.3582068" lon="14.1154621"><ele>41.0</ele><time>2026-05-03T11:49:47.296Z</time></trkpt><trkpt lat="42.3583623" lon="14.1155307"><ele>41.0</ele><time>2026-05-03T11:49:48.294Z</time></trkpt><trkpt lat="42.3585215" lon="14.115597"><ele>41.0</ele><time>2026-05-03T11:49:49.293Z</time></trkpt><trkpt lat="42.3586863" lon="14.1156601"><ele>41.0</ele><time>2026-05-03T11:49:50.296Z</time></trkpt><trkpt lat="42.3588426" lon="14.1157159"><ele>39.33333333333333</ele><time>2026-05-03T11:49:51.293Z</time></trkpt><trkpt lat="42.3589959" lon="14.1157808"><ele>37.666666666666664</ele><time>2026-05-03T11:49:52.301Z</time></trkpt><trkpt lat="42.3591501" lon="14.1158409"><ele>36.0</ele><time>2026-05-03T11:49:53.295Z</time></trkpt><trkpt lat="42.3593016" lon="14.1158965"><ele>36.0</ele><time>2026-05-03T11:49:54.291Z</time></trkpt><trkpt lat="42.3594573" lon="14.1159652"><ele>36.0</ele><time>2026-05-03T11:49:55.284Z</time></trkpt><trkpt lat="42.3595991" lon="14.1160367"><ele>36.0</ele><time>2026-05-03T11:49:56.289Z</time></trkpt><trkpt lat="42.3597539" lon="14.1161078"><ele>36.333333333333336</ele><time>2026-05-03T11:49:57.293Z</time></trkpt><trkpt lat="42.3599146" lon="14.1161819"><ele>36.66666666666667</ele><time>2026-05-03T11:49:58.295Z</time></trkpt><trkpt lat="42.3600757" lon="14.1162517"><ele>37.0</ele><time>2026-05-03T11:49:59.293Z</time></trkpt><trkpt lat="42.3602299" lon="14.1163301"><ele>37.0</ele><time>2026-05-03T11:50:00.29Z</time></trkpt><trkpt lat="42.3603946" lon="14.1164031"><ele>37.0</ele><time>2026-05-03T11:50:01.292Z</time></trkpt><trkpt lat="42.360547" lon="14.1164778"><ele>37.0</ele><time>2026-05-03T11:50:02.288Z</time></trkpt><trkpt lat="42.3607115" lon="14.1165482"><ele>34.66666666666667</ele><time>2026-05-03T11:50:03.294Z</time></trkpt><trkpt lat="42.3608679" lon="14.1166149"><ele>32.333333333333336</ele><time>2026-05-03T11:50:04.293Z</time></trkpt><trkpt lat="42.3610278" lon="14.1166793"><ele>30.0</ele><time>2026-05-03T11:50:05.294Z</time></trkpt><trkpt lat="42.3611808" lon="14.1167461"><ele>30.0</ele><time>2026-05-03T11:50:06.294Z</time></trkpt><trkpt lat="42.3613296" lon="14.1168109"><ele>30.0</ele><time>2026-05-03T11:50:07.294Z</time></trkpt><trkpt lat="42.3614797" lon="14.1168817"><ele>30.0</ele><time>2026-05-03T11:50:08.29Z</time></trkpt><trkpt lat="42.3616355" lon="14.1169524"><ele>32.0</ele><time>2026-05-03T11:50:09.291Z</time></trkpt><trkpt lat="42.3617922" lon="14.1170266"><ele>34.0</ele><time>2026-05-03T11:50:10.289Z</time></trkpt><trkpt lat="42.3619401" lon="14.1170991"><ele>36.0</ele><time>2026-05-03T11:50:11.288Z</time></trkpt><trkpt lat="42.3620944" lon="14.1171656"><ele>39.0</ele><time>2026-05-03T11:50:12.289Z</time></trkpt><trkpt lat="42.3622619" lon="14.1172262"><ele>42.0</ele><time>2026-05-03T11:50:13.289Z</time></trkpt><trkpt lat="42.3624196" lon="14.1172925"><ele>45.0</ele><time>2026-05-03T11:50:14.292Z</time></trkpt><trkpt lat="42.3625851" lon="14.1173633"><ele>40.333333333333336</ele><time>2026-05-03T11:50:15.292Z</time></trkpt><trkpt lat="42.3627419" lon="14.1174184"><ele>35.66666666666667</ele><time>2026-05-03T11:50:16.288Z</time></trkpt><trkpt lat="42.3629072" lon="14.1174476"><ele>31.0</ele><time>2026-05-03T11:50:17.286Z</time></trkpt><trkpt lat="42.363073" lon="14.1174655"><ele>31.0</ele><time>2026-05-03T11:50:18.291Z</time></trkpt><trkpt lat="42.3632397" lon="14.1174733"><ele>31.0</ele><time>2026-05-03T11:50:19.294Z</time></trkpt><trkpt lat="42.3634" lon="14.117472"><ele>31.0</ele><time>2026-05-03T11:50:20.295Z</time></trkpt><trkpt lat="42.3635575" lon="14.1174772"><ele>31.0</ele><time>2026-05-03T11:50:21.297Z</time></trkpt><trkpt lat="42.3637127" lon="14.1174715"><ele>31.0</ele><time>2026-05-03T11:50:22.291Z</time></trkpt><trkpt lat="42.3638813" lon="14.1174589"><ele>31.0</ele><time>2026-05-03T11:50:23.295Z</time></trkpt><trkpt lat="42.3640375" lon="14.1174774"><ele>31.666666666666668</ele><time>2026-05-03T11:50:24.291Z</time></trkpt><trkpt lat="42.3641992" lon="14.1175071"><ele>32.333333333333336</ele><time>2026-05-03T11:50:25.289Z</time></trkpt><trkpt lat="42.3643542" lon="14.1175382"><ele>33.0</ele><time>2026-05-03T11:50:26.287Z</time></trkpt><trkpt lat="42.3645101" lon="14.1175971"><ele>33.0</ele><time>2026-05-03T11:50:27.288Z</time></trkpt><trkpt lat="42.3646626" lon="14.1176879"><ele>33.0</ele><time>2026-05-03T11:50:28.287Z</time></trkpt><trkpt lat="42.36481" lon="14.1177889"><ele>33.0</ele><time>2026-05-03T11:50:29.293Z</time></trkpt><trkpt lat="42.364946" lon="14.1178853"><ele>32.666666666666664</ele><time>2026-05-03T11:50:30.293Z</time></trkpt><trkpt lat="42.3650924" lon="14.1179822"><ele>32.33333333333333</ele><time>2026-05-03T11:50:31.296Z</time></trkpt><trkpt lat="42.3652318" lon="14.1180822"><ele>32.0</ele><time>2026-05-03T11:50:32.295Z</time></trkpt><trkpt lat="42.3653688" lon="14.118179"><ele>31.0</ele><time>2026-05-03T11:50:33.294Z</time></trkpt><trkpt lat="42.3655181" lon="14.1182749"><ele>30.0</ele><time>2026-05-03T11:50:34.297Z</time></trkpt><trkpt lat="42.3656621" lon="14.1183686"><ele>29.0</ele><time>2026-05-03T11:50:35.291Z</time></trkpt><trkpt lat="42.3658042" lon="14.1184603"><ele>28.666666666666664</ele><time>2026-05-03T11:50:36.293Z</time></trkpt><trkpt lat="42.3659487" lon="14.11856"><ele>28.333333333333336</ele><time>2026-05-03T11:50:37.294Z</time></trkpt><trkpt lat="42.3660961" lon="14.1186582"><ele>28.0</ele><time>2026-05-03T11:50:38.292Z</time></trkpt><trkpt lat="42.3662375" lon="14.1187597"><ele>28.0</ele><time>2026-05-03T11:50:39.298Z</time></trkpt><trkpt lat="42.3663782" lon="14.118862"><ele>28.0</ele><time>2026-05-03T11:50:40.298Z</time></trkpt><trkpt lat="42.3665272" lon="14.1189664"><ele>28.0</ele><time>2026-05-03T11:50:41.3Z</time></trkpt><trkpt lat="42.3666735" lon="14.1190763"><ele>27.666666666666668</ele><time>2026-05-03T11:50:42.295Z</time></trkpt><trkpt lat="42.3668212" lon="14.1191913"><ele>27.333333333333336</ele><time>2026-05-03T11:50:43.302Z</time></trkpt><trkpt lat="42.3669752" lon="14.1192947"><ele>27.0</ele><time>2026-05-03T11:50:44.297Z</time></trkpt><trkpt lat="42.3671357" lon="14.1193889"><ele>27.333333333333336</ele><time>2026-05-03T11:50:45.302Z</time></trkpt><trkpt lat="42.3672869" lon="14.119491"><ele>27.666666666666668</ele><time>2026-05-03T11:50:46.296Z</time></trkpt><trkpt lat="42.3674346" lon="14.1195914"><ele>28.0</ele><time>2026-05-03T11:50:47.298Z</time></trkpt><trkpt lat="42.3675806" lon="14.1196999"><ele>28.0</ele><time>2026-05-03T11:50:48.297Z</time></trkpt><trkpt lat="42.3677226" lon="14.1198066"><ele>28.0</ele><time>2026-05-03T11:50:49.3Z</time></trkpt><trkpt lat="42.3678647" lon="14.1199058"><ele>28.0</ele><time>2026-05-03T11:50:50.293Z</time></trkpt><trkpt lat="42.3680121" lon="14.1200057"><ele>28.333333333333336</ele><time>2026-05-03T11:50:51.295Z</time></trkpt><trkpt lat="42.3681622" lon="14.120101"><ele>28.666666666666664</ele><time>2026-05-03T11:50:52.295Z</time></trkpt><trkpt lat="42.3683131" lon="14.1201807"><ele>29.0</ele><time>2026-05-03T11:50:53.298Z</time></trkpt><trkpt lat="42.368471" lon="14.1202384"><ele>29.0</ele><time>2026-05-03T11:50:54.304Z</time></trkpt><trkpt lat="42.3686233" lon="14.1202758"><ele>29.0</ele><time>2026-05-03T11:50:55.29Z</time></trkpt><trkpt lat="42.3687822" lon="14.1203032"><ele>29.0</ele><time>2026-05-03T11:50:56.294Z</time></trkpt><trkpt lat="42.3689429" lon="14.1203227"><ele>31.666666666666664</ele><time>2026-05-03T11:50:57.298Z</time></trkpt><trkpt lat="42.3691052" lon="14.1203364"><ele>34.333333333333336</ele><time>2026-05-03T11:50:58.3Z</time></trkpt><trkpt lat="42.3692625" lon="14.1203507"><ele>37.0</ele><time>2026-05-03T11:50:59.3Z</time></trkpt><trkpt lat="42.369417" lon="14.1203669"><ele>37.0</ele><time>2026-05-03T11:51:00.297Z</time></trkpt><trkpt lat="42.369577" lon="14.1203891"><ele>37.0</ele><time>2026-05-03T11:51:01.301Z</time></trkpt><trkpt lat="42.3697375" lon="14.1204062"><ele>37.0</ele><time>2026-05-03T11:51:02.295Z</time></trkpt><trkpt lat="42.3698999" lon="14.1204288"><ele>37.0</ele><time>2026-05-03T11:51:03.295Z</time></trkpt><trkpt lat="42.3700631" lon="14.1204478"><ele>37.0</ele><time>2026-05-03T11:51:04.295Z</time></trkpt><trkpt lat="42.3702281" lon="14.1204668"><ele>37.0</ele><time>2026-05-03T11:51:05.296Z</time></trkpt><trkpt lat="42.3703879" lon="14.1204867"><ele>37.333333333333336</ele><time>2026-05-03T11:51:06.296Z</time></trkpt><trkpt lat="42.3705499" lon="14.120506"><ele>37.666666666666664</ele><time>2026-05-03T11:51:07.293Z</time></trkpt><trkpt lat="42.3707093" lon="14.120537"><ele>38.0</ele><time>2026-05-03T11:51:08.295Z</time></trkpt><trkpt lat="42.3708694" lon="14.1205817"><ele>38.0</ele><time>2026-05-03T11:51:09.296Z</time></trkpt><trkpt lat="42.3710198" lon="14.1206421"><ele>38.0</ele><time>2026-05-03T11:51:10.297Z</time></trkpt><trkpt lat="42.3711692" lon="14.1207057"><ele>38.0</ele><time>2026-05-03T11:51:11.294Z</time></trkpt><trkpt lat="42.3713188" lon="14.120768"><ele>36.33333333333333</ele><time>2026-05-03T11:51:12.3Z</time></trkpt><trkpt lat="42.3714722" lon="14.1208362"><ele>34.666666666666664</ele><time>2026-05-03T11:51:13.296Z</time></trkpt><trkpt lat="42.3716368" lon="14.1209164"><ele>33.0</ele><time>2026-05-03T11:51:14.293Z</time></trkpt><trkpt lat="42.3718123" lon="14.1209959"><ele>33.0</ele><time>2026-05-03T11:51:15.296Z</time></trkpt><trkpt lat="42.3719956" lon="14.1210832"><ele>33.0</ele><time>2026-05-03T11:51:16.304Z</time></trkpt><trkpt lat="42.3721618" lon="14.1211779"><ele>33.0</ele><time>2026-05-03T11:51:17.29Z</time></trkpt><trkpt lat="42.3723227" lon="14.1212937"><ele>33.333333333333336</ele><time>2026-05-03T11:51:18.297Z</time></trkpt><trkpt lat="42.3724793" lon="14.121413"><ele>33.66666666666667</ele><time>2026-05-03T11:51:19.296Z</time></trkpt><trkpt lat="42.3726354" lon="14.1215291"><ele>34.0</ele><time>2026-05-03T11:51:20.286Z</time></trkpt><trkpt lat="42.3727704" lon="14.1216396"><ele>34.0</ele><time>2026-05-03T11:51:21.291Z</time></trkpt><trkpt lat="42.3728872" lon="14.1217429"><ele>34.0</ele><time>2026-05-03T11:51:22.285Z</time></trkpt><trkpt lat="42.372997" lon="14.1218304"><ele>34.0</ele><time>2026-05-03T11:51:23.291Z</time></trkpt><trkpt lat="42.3730943" lon="14.1219138"><ele>34.0</ele><time>2026-05-03T11:51:24.293Z</time></trkpt><trkpt lat="42.3731878" lon="14.1219835"><ele>35.75</ele><time>2026-05-03T11:51:25.301Z</time></trkpt><trkpt lat="42.3732796" lon="14.1220573"><ele>37.5</ele><time>2026-05-03T11:51:26.294Z</time></trkpt><trkpt lat="42.3733812" lon="14.1221294"><ele>39.25</ele><time>2026-05-03T11:51:27.294Z</time></trkpt><trkpt lat="42.3734885" lon="14.1222103"><ele>41.0</ele><time>2026-05-03T11:51:28.295Z</time></trkpt><trkpt lat="42.3735966" lon="14.1222959"><ele>41.0</ele><time>2026-05-03T11:51:29.301Z</time></trkpt><trkpt lat="42.3736978" lon="14.1223765"><ele>41.0</ele><time>2026-05-03T11:51:30.282Z</time></trkpt><trkpt lat="42.3737837" lon="14.1224504"><ele>41.0</ele><time>2026-05-03T11:51:31.288Z</time></trkpt><trkpt lat="42.3738573" lon="14.1225164"><ele>41.0</ele><time>2026-05-03T11:51:32.286Z</time></trkpt><trkpt lat="42.3739246" lon="14.1225695"><ele>41.0</ele><time>2026-05-03T11:51:33.285Z</time></trkpt><trkpt lat="42.3739865" lon="14.1226112"><ele>41.0</ele><time>2026-05-03T11:51:34.281Z</time></trkpt><trkpt lat="42.3740635" lon="14.1226721"><ele>41.0</ele><time>2026-05-03T11:51:36.28Z</time></trkpt><trkpt lat="42.3741233" lon="14.1227057"><ele>41.0</ele><time>2026-05-03T11:51:40.281Z</time></trkpt><trkpt lat="42.3742005" lon="14.1227938"><ele>41.0</ele><time>2026-05-03T11:52:01.304Z</time></trkpt><trkpt lat="42.3742744" lon="14.1228548"><ele>41.0</ele><time>2026-05-03T11:52:02.293Z</time></trkpt><trkpt lat="42.3743671" lon="14.1229376"><ele>41.0</ele><time>2026-05-03T11:52:03.286Z</time></trkpt><trkpt lat="42.3744708" lon="14.123029"><ele>41.0</ele><time>2026-05-03T11:52:04.295Z</time></trkpt><trkpt lat="42.374573" lon="14.1231109"><ele>41.0</ele><time>2026-05-03T11:52:05.291Z</time></trkpt><trkpt lat="42.3746803" lon="14.1231911"><ele>41.0</ele><time>2026-05-03T11:52:06.293Z</time></trkpt><trkpt lat="42.3747919" lon="14.1232709"><ele>40.5</ele><time>2026-05-03T11:52:07.299Z</time></trkpt><trkpt lat="42.3749065" lon="14.1233547"><ele>40.0</ele><time>2026-05-03T11:52:08.298Z</time></trkpt><trkpt lat="42.3750239" lon="14.1234449"><ele>39.5</ele><time>2026-05-03T11:52:09.296Z</time></trkpt><trkpt lat="42.3751415" lon="14.123533"><ele>39.0</ele><time>2026-05-03T11:52:10.287Z</time></trkpt><trkpt lat="42.37526" lon="14.1236243"><ele>39.0</ele><time>2026-05-03T11:52:11.295Z</time></trkpt><trkpt lat="42.375368" lon="14.1237108"><ele>39.0</ele><time>2026-05-03T11:52:12.295Z</time></trkpt><trkpt lat="42.3754677" lon="14.1237884"><ele>39.0</ele><time>2026-05-03T11:52:13.3Z</time></trkpt><trkpt lat="42.3755628" lon="14.1238543"><ele>39.0</ele><time>2026-05-03T11:52:14.301Z</time></trkpt><trkpt lat="42.3756487" lon="14.1239099"><ele>39.0</ele><time>2026-05-03T11:52:15.299Z</time></trkpt><trkpt lat="42.3757373" lon="14.1239653"><ele>38.8</ele><time>2026-05-03T11:52:16.299Z</time></trkpt><trkpt lat="42.3758329" lon="14.1240168"><ele>38.599999999999994</ele><time>2026-05-03T11:52:17.298Z</time></trkpt><trkpt lat="42.3759327" lon="14.1240539"><ele>38.4</ele><time>2026-05-03T11:52:18.295Z</time></trkpt><trkpt lat="42.37603" lon="14.1240796"><ele>38.199999999999996</ele><time>2026-05-03T11:52:19.3Z</time></trkpt><trkpt lat="42.3761265" lon="14.1240928"><ele>38.0</ele><time>2026-05-03T11:52:20.294Z</time></trkpt><trkpt lat="42.3762141" lon="14.124112"><ele>38.0</ele><time>2026-05-03T11:52:21.3Z</time></trkpt><trkpt lat="42.3762871" lon="14.1241567"><ele>38.0</ele><time>2026-05-03T11:52:22.287Z</time></trkpt><trkpt lat="42.376345" lon="14.1242296"><ele>38.0</ele><time>2026-05-03T11:52:23.281Z</time></trkpt><trkpt lat="42.3763934" lon="14.1243287"><ele>38.0</ele><time>2026-05-03T11:52:24.301Z</time></trkpt><trkpt lat="42.3764266" lon="14.124436"><ele>38.0</ele><time>2026-05-03T11:52:25.299Z</time></trkpt><trkpt lat="42.3764709" lon="14.1245277"><ele>38.0</ele><time>2026-05-03T11:52:26.301Z</time></trkpt><trkpt lat="42.3765316" lon="14.1245628"><ele>37.83333333333333</ele><time>2026-05-03T11:52:27.308Z</time></trkpt><trkpt lat="42.3765954" lon="14.1245425"><ele>37.666666666666664</ele><time>2026-05-03T11:52:28.306Z</time></trkpt><trkpt lat="42.3766545" lon="14.1244722"><ele>37.5</ele><time>2026-05-03T11:52:29.308Z</time></trkpt><trkpt lat="42.3767041" lon="14.1243692"><ele>37.333333333333336</ele><time>2026-05-03T11:52:30.292Z</time></trkpt><trkpt lat="42.376747" lon="14.124245"><ele>37.16666666666667</ele><time>2026-05-03T11:52:31.302Z</time></trkpt><trkpt lat="42.3767961" lon="14.1241089"><ele>37.0</ele><time>2026-05-03T11:52:32.289Z</time></trkpt><trkpt lat="42.3768643" lon="14.1239876"><ele>38.75</ele><time>2026-05-03T11:52:33.289Z</time></trkpt><trkpt lat="42.3769487" lon="14.1238746"><ele>40.5</ele><time>2026-05-03T11:52:34.293Z</time></trkpt><trkpt lat="42.3770317" lon="14.1237479"><ele>42.25</ele><time>2026-05-03T11:52:35.292Z</time></trkpt><trkpt lat="42.3771145" lon="14.1236044"><ele>44.0</ele><time>2026-05-03T11:52:36.282Z</time></trkpt><trkpt lat="42.377199" lon="14.1234893"><ele>44.5</ele><time>2026-05-03T11:52:37.284Z</time></trkpt><trkpt lat="42.3773013" lon="14.1233988"><ele>45.0</ele><time>2026-05-03T11:52:38.296Z</time></trkpt><trkpt lat="42.3774202" lon="14.1233402"><ele>45.5</ele><time>2026-05-03T11:52:39.294Z</time></trkpt><trkpt lat="42.3775491" lon="14.123338"><ele>46.0</ele><time>2026-05-03T11:52:40.294Z</time></trkpt><trkpt lat="42.3776817" lon="14.1233631"><ele>46.0</ele><time>2026-05-03T11:52:41.276Z</time></trkpt><trkpt lat="42.3778174" lon="14.1233999"><ele>46.0</ele><time>2026-05-03T11:52:42.283Z</time></trkpt><trkpt lat="42.3779574" lon="14.1234381"><ele>46.0</ele><time>2026-05-03T11:52:43.289Z</time></trkpt><trkpt lat="42.3781046" lon="14.123471"><ele>46.0</ele><time>2026-05-03T11:52:44.289Z</time></trkpt><trkpt lat="42.3782474" lon="14.1235002"><ele>48.25</ele><time>2026-05-03T11:52:45.294Z</time></trkpt><trkpt lat="42.3783867" lon="14.1235285"><ele>50.5</ele><time>2026-05-03T11:52:46.291Z</time></trkpt><trkpt lat="42.3785306" lon="14.1235625"><ele>52.75</ele><time>2026-05-03T11:52:47.294Z</time></trkpt><trkpt lat="42.3786775" lon="14.1235851"><ele>55.0</ele><time>2026-05-03T11:52:48.292Z</time></trkpt><trkpt lat="42.3788181" lon="14.1236072"><ele>56.0</ele><time>2026-05-03T11:52:49.295Z</time></trkpt><trkpt lat="42.3789623" lon="14.1236253"><ele>57.0</ele><time>2026-05-03T11:52:50.295Z</time></trkpt><trkpt lat="42.3791" lon="14.1236542"><ele>58.0</ele><time>2026-05-03T11:52:51.297Z</time></trkpt><trkpt lat="42.3792332" lon="14.123698"><ele>59.0</ele><time>2026-05-03T11:52:52.292Z</time></trkpt><trkpt lat="42.3793549" lon="14.1237571"><ele>59.0</ele><time>2026-05-03T11:52:53.294Z</time></trkpt><trkpt lat="42.3794539" lon="14.1238279"><ele>59.0</ele><time>2026-05-03T11:52:54.299Z</time></trkpt><trkpt lat="42.379549" lon="14.1239163"><ele>59.0</ele><time>2026-05-03T11:52:55.291Z</time></trkpt><trkpt lat="42.3796454" lon="14.1240222"><ele>59.0</ele><time>2026-05-03T11:52:56.294Z</time></trkpt><trkpt lat="42.3797444" lon="14.1241244"><ele>57.25</ele><time>2026-05-03T11:52:57.289Z</time></trkpt><trkpt lat="42.3798552" lon="14.1242207"><ele>55.5</ele><time>2026-05-03T11:52:58.301Z</time></trkpt><trkpt lat="42.3799737" lon="14.1243192"><ele>53.75</ele><time>2026-05-03T11:52:59.293Z</time></trkpt><trkpt lat="42.3800985" lon="14.1244245"><ele>52.0</ele><time>2026-05-03T11:53:00.293Z</time></trkpt><trkpt lat="42.3802277" lon="14.1245128"><ele>52.0</ele><time>2026-05-03T11:53:01.298Z</time></trkpt><trkpt lat="42.3803655" lon="14.1246047"><ele>52.0</ele><time>2026-05-03T11:53:02.295Z</time></trkpt><trkpt lat="42.3804967" lon="14.1246978"><ele>52.0</ele><time>2026-05-03T11:53:03.298Z</time></trkpt><trkpt lat="42.3806314" lon="14.1247942"><ele>51.0</ele><time>2026-05-03T11:53:04.292Z</time></trkpt><trkpt lat="42.3807608" lon="14.1248849"><ele>50.0</ele><time>2026-05-03T11:53:05.296Z</time></trkpt><trkpt lat="42.3808832" lon="14.1249838"><ele>49.0</ele><time>2026-05-03T11:53:06.297Z</time></trkpt><trkpt lat="42.3810045" lon="14.1250814"><ele>48.0</ele><time>2026-05-03T11:53:07.298Z</time></trkpt><trkpt lat="42.3811274" lon="14.1251789"><ele>48.0</ele><time>2026-05-03T11:53:08.296Z</time></trkpt><trkpt lat="42.381256" lon="14.12527"><ele>48.0</ele><time>2026-05-03T11:53:09.291Z</time></trkpt><trkpt lat="42.3813862" lon="14.1253628"><ele>48.0</ele><time>2026-05-03T11:53:10.295Z</time></trkpt><trkpt lat="42.3815163" lon="14.1254492"><ele>48.0</ele><time>2026-05-03T11:53:11.292Z</time></trkpt><trkpt lat="42.3816444" lon="14.1255383"><ele>46.666666666666664</ele><time>2026-05-03T11:53:12.299Z</time></trkpt><trkpt lat="42.381781" lon="14.1256306"><ele>45.33333333333333</ele><time>2026-05-03T11:53:13.297Z</time></trkpt><trkpt lat="42.3819162" lon="14.1257381"><ele>44.0</ele><time>2026-05-03T11:53:14.295Z</time></trkpt><trkpt lat="42.3820432" lon="14.1258461"><ele>44.0</ele><time>2026-05-03T11:53:15.298Z</time></trkpt><trkpt lat="42.382161" lon="14.1259704"><ele>44.0</ele><time>2026-05-03T11:53:16.293Z</time></trkpt><trkpt lat="42.3822812" lon="14.1260968"><ele>44.0</ele><time>2026-05-03T11:53:17.292Z</time></trkpt><trkpt lat="42.382426" lon="14.1262081"><ele>46.25</ele><time>2026-05-03T11:53:18.292Z</time></trkpt><trkpt lat="42.3825494" lon="14.1262895"><ele>48.5</ele><time>2026-05-03T11:53:19.286Z</time></trkpt><trkpt lat="42.3826659" lon="14.1263517"><ele>50.75</ele><time>2026-05-03T11:53:20.297Z</time></trkpt><trkpt lat="42.3827972" lon="14.1263891"><ele>53.0</ele><time>2026-05-03T11:53:21.294Z</time></trkpt><trkpt lat="42.3829226" lon="14.1264085"><ele>53.0</ele><time>2026-05-03T11:53:22.297Z</time></trkpt><trkpt lat="42.3830551" lon="14.1263934"><ele>53.0</ele><time>2026-05-03T11:53:23.294Z</time></trkpt><trkpt lat="42.3831774" lon="14.1263919"><ele>53.0</ele><time>2026-05-03T11:53:24.292Z</time></trkpt><trkpt lat="42.3832918" lon="14.1263916"><ele>53.0</ele><time>2026-05-03T11:53:25.292Z</time></trkpt><trkpt lat="42.3834056" lon="14.1264077"><ele>53.0</ele><time>2026-05-03T11:53:26.289Z</time></trkpt><trkpt lat="42.3835271" lon="14.1264502"><ele>53.0</ele><time>2026-05-03T11:53:27.291Z</time></trkpt><trkpt lat="42.3836484" lon="14.1265164"><ele>53.0</ele><time>2026-05-03T11:53:28.29Z</time></trkpt><trkpt lat="42.3837657" lon="14.1265983"><ele>53.0</ele><time>2026-05-03T11:53:29.299Z</time></trkpt><trkpt lat="42.3838835" lon="14.1266765"><ele>50.25</ele><time>2026-05-03T11:53:30.288Z</time></trkpt><trkpt lat="42.3840154" lon="14.1267573"><ele>47.5</ele><time>2026-05-03T11:53:31.291Z</time></trkpt><trkpt lat="42.3841395" lon="14.1268327"><ele>44.75</ele><time>2026-05-03T11:53:32.291Z</time></trkpt><trkpt lat="42.3842835" lon="14.1268985"><ele>42.0</ele><time>2026-05-03T11:53:33.298Z</time></trkpt><trkpt lat="42.3844254" lon="14.1269597"><ele>42.0</ele><time>2026-05-03T11:53:34.299Z</time></trkpt><trkpt lat="42.3845557" lon="14.1269986"><ele>42.0</ele><time>2026-05-03T11:53:35.295Z</time></trkpt><trkpt lat="42.3846727" lon="14.1270552"><ele>42.0</ele><time>2026-05-03T11:53:36.295Z</time></trkpt><trkpt lat="42.3847875" lon="14.1271004"><ele>42.0</ele><time>2026-05-03T11:53:37.291Z</time></trkpt><trkpt lat="42.384893" lon="14.1271303"><ele>42.75</ele><time>2026-05-03T11:53:38.298Z</time></trkpt><trkpt lat="42.3849985" lon="14.1271736"><ele>43.5</ele><time>2026-05-03T11:53:39.298Z</time></trkpt><trkpt lat="42.385116" lon="14.127252"><ele>44.25</ele><time>2026-05-03T11:53:40.291Z</time></trkpt><trkpt lat="42.3852365" lon="14.1273667"><ele>45.0</ele><time>2026-05-03T11:53:41.291Z</time></trkpt><trkpt lat="42.3853504" lon="14.1274878"><ele>42.75</ele><time>2026-05-03T11:53:42.294Z</time></trkpt><trkpt lat="42.3854558" lon="14.1276123"><ele>40.5</ele><time>2026-05-03T11:53:43.288Z</time></trkpt><trkpt lat="42.3855715" lon="14.1277456"><ele>38.25</ele><time>2026-05-03T11:53:44.289Z</time></trkpt><trkpt lat="42.3856887" lon="14.1278735"><ele>36.0</ele><time>2026-05-03T11:53:45.293Z</time></trkpt><trkpt lat="42.3858166" lon="14.1279992"><ele>36.0</ele><time>2026-05-03T11:53:46.291Z</time></trkpt><trkpt lat="42.3859243" lon="14.1281105"><ele>36.0</ele><time>2026-05-03T11:53:47.302Z</time></trkpt><trkpt lat="42.3860316" lon="14.1282035"><ele>36.0</ele><time>2026-05-03T11:53:48.299Z</time></trkpt><trkpt lat="42.3861537" lon="14.1283129"><ele>36.0</ele><time>2026-05-03T11:53:49.301Z</time></trkpt><trkpt lat="42.386268" lon="14.1284228"><ele>36.25</ele><time>2026-05-03T11:53:50.302Z</time></trkpt><trkpt lat="42.386384" lon="14.1285449"><ele>36.5</ele><time>2026-05-03T11:53:51.3Z</time></trkpt><trkpt lat="42.3864715" lon="14.1286899"><ele>36.75</ele><time>2026-05-03T11:53:52.299Z</time></trkpt><trkpt lat="42.3865534" lon="14.1288419"><ele>37.0</ele><time>2026-05-03T11:53:53.302Z</time></trkpt><trkpt lat="42.3866248" lon="14.1289949"><ele>36.0</ele><time>2026-05-03T11:53:54.307Z</time></trkpt><trkpt lat="42.3866986" lon="14.129128"><ele>35.0</ele><time>2026-05-03T11:53:55.304Z</time></trkpt><trkpt lat="42.3867815" lon="14.1292523"><ele>34.0</ele><time>2026-05-03T11:53:56.303Z</time></trkpt><trkpt lat="42.3868568" lon="14.1293854"><ele>33.0</ele><time>2026-05-03T11:53:57.303Z</time></trkpt><trkpt lat="42.3869407" lon="14.1295034"><ele>33.0</ele><time>2026-05-03T11:53:58.305Z</time></trkpt><trkpt lat="42.3870322" lon="14.129609"><ele>33.0</ele><time>2026-05-03T11:53:59.306Z</time></trkpt><trkpt lat="42.3871242" lon="14.1297034"><ele>33.0</ele><time>2026-05-03T11:54:00.309Z</time></trkpt><trkpt lat="42.3872247" lon="14.1297837"><ele>33.0</ele><time>2026-05-03T11:54:01.297Z</time></trkpt><trkpt lat="42.3873258" lon="14.1298696"><ele>32.75</ele><time>2026-05-03T11:54:02.292Z</time></trkpt><trkpt lat="42.3874189" lon="14.129962"><ele>32.5</ele><time>2026-05-03T11:54:03.289Z</time></trkpt><trkpt lat="42.3875158" lon="14.1300497"><ele>32.25</ele><time>2026-05-03T11:54:04.291Z</time></trkpt><trkpt lat="42.3876159" lon="14.1301405"><ele>32.0</ele><time>2026-05-03T11:54:05.295Z</time></trkpt><trkpt lat="42.3877139" lon="14.1302237"><ele>32.0</ele><time>2026-05-03T11:54:06.293Z</time></trkpt><trkpt lat="42.3877952" lon="14.130311"><ele>32.0</ele><time>2026-05-03T11:54:07.294Z</time></trkpt><trkpt lat="42.3878814" lon="14.1303947"><ele>32.0</ele><time>2026-05-03T11:54:08.298Z</time></trkpt><trkpt lat="42.3879676" lon="14.1304654"><ele>32.0</ele><time>2026-05-03T11:54:09.291Z</time></trkpt><trkpt lat="42.3880474" lon="14.1305166"><ele>32.0</ele><time>2026-05-03T11:54:10.293Z</time></trkpt><trkpt lat="42.3881293" lon="14.1305464"><ele>32.0</ele><time>2026-05-03T11:54:11.301Z</time></trkpt><trkpt lat="42.388213" lon="14.1305803"><ele>32.0</ele><time>2026-05-03T11:54:12.296Z</time></trkpt><trkpt lat="42.3883029" lon="14.1306286"><ele>32.0</ele><time>2026-05-03T11:54:13.3Z</time></trkpt><trkpt lat="42.3884018" lon="14.1306836"><ele>32.0</ele><time>2026-05-03T11:54:14.297Z</time></trkpt><trkpt lat="42.3885032" lon="14.1307357"><ele>32.0</ele><time>2026-05-03T11:54:15.301Z</time></trkpt><trkpt lat="42.3886187" lon="14.1307949"><ele>32.0</ele><time>2026-05-03T11:54:16.293Z</time></trkpt><trkpt lat="42.3887377" lon="14.1308609"><ele>32.0</ele><time>2026-05-03T11:54:17.294Z</time></trkpt><trkpt lat="42.3888604" lon="14.1309392"><ele>32.0</ele><time>2026-05-03T11:54:18.304Z</time></trkpt><trkpt lat="42.3889876" lon="14.1310159"><ele>32.0</ele><time>2026-05-03T11:54:19.296Z</time></trkpt><trkpt lat="42.3891364" lon="14.1310965"><ele>32.33333333333333</ele><time>2026-05-03T11:54:20.297Z</time></trkpt><trkpt lat="42.3892792" lon="14.1311967"><ele>32.666666666666664</ele><time>2026-05-03T11:54:21.297Z</time></trkpt><trkpt lat="42.389431" lon="14.1313064"><ele>33.0</ele><time>2026-05-03T11:54:22.286Z</time></trkpt><trkpt lat="42.3895803" lon="14.1314458"><ele>32.333333333333336</ele><time>2026-05-03T11:54:23.296Z</time></trkpt><trkpt lat="42.3897218" lon="14.1315816"><ele>31.666666666666668</ele><time>2026-05-03T11:54:24.295Z</time></trkpt><trkpt lat="42.3898542" lon="14.1317126"><ele>31.0</ele><time>2026-05-03T11:54:25.296Z</time></trkpt><trkpt lat="42.3899923" lon="14.1318345"><ele>31.0</ele><time>2026-05-03T11:54:26.297Z</time></trkpt><trkpt lat="42.3901228" lon="14.1319554"><ele>31.0</ele><time>2026-05-03T11:54:27.296Z</time></trkpt><trkpt lat="42.3902583" lon="14.1320718"><ele>31.0</ele><time>2026-05-03T11:54:28.301Z</time></trkpt><trkpt lat="42.3903783" lon="14.1321883"><ele>31.0</ele><time>2026-05-03T11:54:29.301Z</time></trkpt><trkpt lat="42.3904971" lon="14.1322978"><ele>31.0</ele><time>2026-05-03T11:54:30.295Z</time></trkpt><trkpt lat="42.3906121" lon="14.1324068"><ele>31.0</ele><time>2026-05-03T11:54:31.302Z</time></trkpt><trkpt lat="42.3907414" lon="14.1325313"><ele>31.0</ele><time>2026-05-03T11:54:32.302Z</time></trkpt><trkpt lat="42.3908498" lon="14.1326352"><ele>30.75</ele><time>2026-05-03T11:54:33.297Z</time></trkpt><trkpt lat="42.3909836" lon="14.1327572"><ele>30.5</ele><time>2026-05-03T11:54:34.301Z</time></trkpt><trkpt lat="42.3910984" lon="14.1328571"><ele>30.25</ele><time>2026-05-03T11:54:35.299Z</time></trkpt><trkpt lat="42.3912115" lon="14.1329631"><ele>30.0</ele><time>2026-05-03T11:54:36.301Z</time></trkpt><trkpt lat="42.3913383" lon="14.1330679"><ele>30.0</ele><time>2026-05-03T11:54:37.301Z</time></trkpt><trkpt lat="42.391452" lon="14.1331667"><ele>30.0</ele><time>2026-05-03T11:54:38.301Z</time></trkpt><trkpt lat="42.3915845" lon="14.1332733"><ele>30.0</ele><time>2026-05-03T11:54:39.302Z</time></trkpt><trkpt lat="42.3917084" lon="14.1334024"><ele>30.0</ele><time>2026-05-03T11:54:40.302Z</time></trkpt><trkpt lat="42.3918267" lon="14.133518"><ele>30.0</ele><time>2026-05-03T11:54:41.296Z</time></trkpt><trkpt lat="42.3919648" lon="14.1336293"><ele>30.0</ele><time>2026-05-03T11:54:42.295Z</time></trkpt><trkpt lat="42.3920996" lon="14.1337544"><ele>30.0</ele><time>2026-05-03T11:54:43.291Z</time></trkpt><trkpt lat="42.3922252" lon="14.1338635"><ele>29.666666666666664</ele><time>2026-05-03T11:54:44.272Z</time></trkpt><trkpt lat="42.3923681" lon="14.1339727"><ele>29.333333333333332</ele><time>2026-05-03T11:54:45.262Z</time></trkpt><trkpt lat="42.3925051" lon="14.1341208"><ele>29.0</ele><time>2026-05-03T11:54:46.246Z</time></trkpt><trkpt lat="42.3926375" lon="14.1342865"><ele>29.0</ele><time>2026-05-03T11:54:47.24Z</time></trkpt><trkpt lat="42.392793" lon="14.1344051"><ele>29.0</ele><time>2026-05-03T11:54:48.225Z</time></trkpt><trkpt lat="42.392881" lon="14.1345141"><ele>29.0</ele><time>2026-05-03T11:54:49.244Z</time></trkpt><trkpt lat="42.3930684" lon="14.1346493"><ele>29.333333333333332</ele><time>2026-05-03T11:54:50.257Z</time></trkpt><trkpt lat="42.3932258" lon="14.1346973"><ele>29.666666666666664</ele><time>2026-05-03T11:54:51.276Z</time></trkpt><trkpt lat="42.3933278" lon="14.1348311"><ele>30.0</ele><time>2026-05-03T11:54:52.288Z</time></trkpt><trkpt lat="42.3934552" lon="14.134962"><ele>29.0</ele><time>2026-05-03T11:54:53.303Z</time></trkpt><trkpt lat="42.3935803" lon="14.1350819"><ele>28.0</ele><time>2026-05-03T11:54:54.303Z</time></trkpt><trkpt lat="42.3937036" lon="14.1351983"><ele>27.0</ele><time>2026-05-03T11:54:55.298Z</time></trkpt><trkpt lat="42.3938324" lon="14.1353199"><ele>27.75</ele><time>2026-05-03T11:54:56.306Z</time></trkpt><trkpt lat="42.3939558" lon="14.1354263"><ele>28.5</ele><time>2026-05-03T11:54:57.299Z</time></trkpt><trkpt lat="42.3940727" lon="14.1355317"><ele>29.25</ele><time>2026-05-03T11:54:58.297Z</time></trkpt><trkpt lat="42.3941927" lon="14.13563"><ele>30.0</ele><time>2026-05-03T11:54:59.309Z</time></trkpt><trkpt lat="42.3943021" lon="14.1357179"><ele>29.8</ele><time>2026-05-03T11:55:00.296Z</time></trkpt><trkpt lat="42.3943899" lon="14.1357968"><ele>29.6</ele><time>2026-05-03T11:55:01.306Z</time></trkpt><trkpt lat="42.3944616" lon="14.1358895"><ele>29.4</ele><time>2026-05-03T11:55:02.31Z</time></trkpt><trkpt lat="42.3945486" lon="14.1359784"><ele>29.2</ele><time>2026-05-03T11:55:03.303Z</time></trkpt><trkpt lat="42.3946423" lon="14.1360652"><ele>29.0</ele><time>2026-05-03T11:55:04.305Z</time></trkpt><trkpt lat="42.3947524" lon="14.1361616"><ele>29.0</ele><time>2026-05-03T11:55:05.308Z</time></trkpt><trkpt lat="42.3948642" lon="14.1362629"><ele>29.0</ele><time>2026-05-03T11:55:06.307Z</time></trkpt><trkpt lat="42.3949724" lon="14.1363635"><ele>29.0</ele><time>2026-05-03T11:55:07.309Z</time></trkpt><trkpt lat="42.3950898" lon="14.1364623"><ele>29.0</ele><time>2026-05-03T11:55:08.309Z</time></trkpt><trkpt lat="42.3952171" lon="14.136556"><ele>28.25</ele><time>2026-05-03T11:55:09.308Z</time></trkpt><trkpt lat="42.3953395" lon="14.1366562"><ele>27.5</ele><time>2026-05-03T11:55:10.308Z</time></trkpt><trkpt lat="42.3954483" lon="14.1367566"><ele>26.75</ele><time>2026-05-03T11:55:11.308Z</time></trkpt><trkpt lat="42.3955606" lon="14.1368633"><ele>26.0</ele><time>2026-05-03T11:55:12.308Z</time></trkpt><trkpt lat="42.3956841" lon="14.1369696"><ele>26.0</ele><time>2026-05-03T11:55:13.306Z</time></trkpt><trkpt lat="42.3958025" lon="14.1370749"><ele>26.0</ele><time>2026-05-03T11:55:14.298Z</time></trkpt><trkpt lat="42.3959203" lon="14.1371777"><ele>26.0</ele><time>2026-05-03T11:55:15.305Z</time></trkpt><trkpt lat="42.3960414" lon="14.1372905"><ele>26.0</ele><time>2026-05-03T11:55:16.303Z</time></trkpt><trkpt lat="42.396159" lon="14.1373957"><ele>26.25</ele><time>2026-05-03T11:55:17.303Z</time></trkpt><trkpt lat="42.3962766" lon="14.1374988"><ele>26.5</ele><time>2026-05-03T11:55:18.303Z</time></trkpt><trkpt lat="42.3963861" lon="14.1376048"><ele>26.75</ele><time>2026-05-03T11:55:19.298Z</time></trkpt><trkpt lat="42.396504" lon="14.1377102"><ele>27.0</ele><time>2026-05-03T11:55:20.303Z</time></trkpt><trkpt lat="42.3966201" lon="14.1378144"><ele>27.0</ele><time>2026-05-03T11:55:21.3Z</time></trkpt><trkpt lat="42.3967433" lon="14.1379146"><ele>27.0</ele><time>2026-05-03T11:55:22.302Z</time></trkpt><trkpt lat="42.3968564" lon="14.1380098"><ele>27.0</ele><time>2026-05-03T11:55:23.295Z</time></trkpt><trkpt lat="42.3969712" lon="14.1381057"><ele>27.0</ele><time>2026-05-03T11:55:24.301Z</time></trkpt><trkpt lat="42.3970865" lon="14.138207"><ele>26.75</ele><time>2026-05-03T11:55:25.3Z</time></trkpt><trkpt lat="42.3972065" lon="14.1382999"><ele>26.5</ele><time>2026-05-03T11:55:26.301Z</time></trkpt><trkpt lat="42.3973201" lon="14.1384009"><ele>26.25</ele><time>2026-05-03T11:55:27.298Z</time></trkpt><trkpt lat="42.3974224" lon="14.1385151"><ele>26.0</ele><time>2026-05-03T11:55:28.302Z</time></trkpt><trkpt lat="42.3975374" lon="14.1386187"><ele>26.0</ele><time>2026-05-03T11:55:29.3Z</time></trkpt><trkpt lat="42.3976512" lon="14.1387114"><ele>26.0</ele><time>2026-05-03T11:55:30.295Z</time></trkpt><trkpt lat="42.3977567" lon="14.1388174"><ele>26.0</ele><time>2026-05-03T11:55:31.297Z</time></trkpt><trkpt lat="42.3978692" lon="14.1389198"><ele>26.0</ele><time>2026-05-03T11:55:32.298Z</time></trkpt><trkpt lat="42.3979854" lon="14.13902"><ele>26.0</ele><time>2026-05-03T11:55:33.308Z</time></trkpt><trkpt lat="42.3980995" lon="14.1391194"><ele>26.0</ele><time>2026-05-03T11:55:34.304Z</time></trkpt><trkpt lat="42.3982067" lon="14.1392222"><ele>26.0</ele><time>2026-05-03T11:55:35.303Z</time></trkpt><trkpt lat="42.3983154" lon="14.1393234"><ele>26.0</ele><time>2026-05-03T11:55:36.305Z</time></trkpt><trkpt lat="42.3984297" lon="14.1394223"><ele>26.0</ele><time>2026-05-03T11:55:37.302Z</time></trkpt><trkpt lat="42.3985468" lon="14.1395245"><ele>26.0</ele><time>2026-05-03T11:55:38.305Z</time></trkpt><trkpt lat="42.3986581" lon="14.1396399"><ele>26.0</ele><time>2026-05-03T11:55:39.303Z</time></trkpt><trkpt lat="42.3987743" lon="14.1397495"><ele>26.0</ele><time>2026-05-03T11:55:40.305Z</time></trkpt><trkpt lat="42.3988842" lon="14.1398598"><ele>25.75</ele><time>2026-05-03T11:55:41.303Z</time></trkpt><trkpt lat="42.3990076" lon="14.1399532"><ele>25.5</ele><time>2026-05-03T11:55:42.305Z</time></trkpt><trkpt lat="42.3991232" lon="14.1400538"><ele>25.25</ele><time>2026-05-03T11:55:43.304Z</time></trkpt><trkpt lat="42.3992395" lon="14.1401641"><ele>25.0</ele><time>2026-05-03T11:55:44.304Z</time></trkpt><trkpt lat="42.3993627" lon="14.1402826"><ele>25.0</ele><time>2026-05-03T11:55:45.307Z</time></trkpt><trkpt lat="42.3994902" lon="14.1403847"><ele>25.0</ele><time>2026-05-03T11:55:46.305Z</time></trkpt><trkpt lat="42.3996209" lon="14.14048"><ele>25.0</ele><time>2026-05-03T11:55:47.305Z</time></trkpt><trkpt lat="42.3997461" lon="14.1405841"><ele>25.0</ele><time>2026-05-03T11:55:48.302Z</time></trkpt><trkpt lat="42.3998659" lon="14.1406962"><ele>25.25</ele><time>2026-05-03T11:55:49.299Z</time></trkpt><trkpt lat="42.3999826" lon="14.1407976"><ele>25.5</ele><time>2026-05-03T11:55:50.31Z</time></trkpt><trkpt lat="42.400099" lon="14.1409109"><ele>25.75</ele><time>2026-05-03T11:55:51.305Z</time></trkpt><trkpt lat="42.4002208" lon="14.141015"><ele>26.0</ele><time>2026-05-03T11:55:52.301Z</time></trkpt><trkpt lat="42.4003323" lon="14.1411111"><ele>26.0</ele><time>2026-05-03T11:55:53.307Z</time></trkpt><trkpt lat="42.40045" lon="14.1412176"><ele>26.0</ele><time>2026-05-03T11:55:54.304Z</time></trkpt><trkpt lat="42.4005599" lon="14.1413187"><ele>26.0</ele><time>2026-05-03T11:55:55.305Z</time></trkpt><trkpt lat="42.4006595" lon="14.1414155"><ele>26.0</ele><time>2026-05-03T11:55:56.304Z</time></trkpt><trkpt lat="42.4007672" lon="14.1415082"><ele>25.75</ele><time>2026-05-03T11:55:57.303Z</time></trkpt><trkpt lat="42.4008733" lon="14.1416204"><ele>25.5</ele><time>2026-05-03T11:55:58.306Z</time></trkpt><trkpt lat="42.4009919" lon="14.1417155"><ele>25.25</ele><time>2026-05-03T11:55:59.302Z</time></trkpt><trkpt lat="42.4011089" lon="14.1418068"><ele>25.0</ele><time>2026-05-03T11:56:00.303Z</time></trkpt><trkpt lat="42.4012205" lon="14.141905"><ele>25.0</ele><time>2026-05-03T11:56:01.303Z</time></trkpt><trkpt lat="42.4013364" lon="14.142009"><ele>25.0</ele><time>2026-05-03T11:56:02.304Z</time></trkpt><trkpt lat="42.4014606" lon="14.1421151"><ele>25.0</ele><time>2026-05-03T11:56:03.3Z</time></trkpt><trkpt lat="42.4015826" lon="14.1422143"><ele>25.0</ele><time>2026-05-03T11:56:04.306Z</time></trkpt><trkpt lat="42.4017045" lon="14.1423197"><ele>24.75</ele><time>2026-05-03T11:56:05.302Z</time></trkpt><trkpt lat="42.4018176" lon="14.1424273"><ele>24.5</ele><time>2026-05-03T11:56:06.303Z</time></trkpt><trkpt lat="42.4019355" lon="14.1425438"><ele>24.25</ele><time>2026-05-03T11:56:07.304Z</time></trkpt><trkpt lat="42.4020561" lon="14.1426623"><ele>24.0</ele><time>2026-05-03T11:56:08.298Z</time></trkpt><trkpt lat="42.4021903" lon="14.142757"><ele>24.0</ele><time>2026-05-03T11:56:09.303Z</time></trkpt><trkpt lat="42.4023144" lon="14.1428739"><ele>24.0</ele><time>2026-05-03T11:56:10.305Z</time></trkpt><trkpt lat="42.4024343" lon="14.1429888"><ele>24.0</ele><time>2026-05-03T11:56:11.306Z</time></trkpt><trkpt lat="42.4025572" lon="14.1431003"><ele>24.0</ele><time>2026-05-03T11:56:12.301Z</time></trkpt><trkpt lat="42.402673" lon="14.1432177"><ele>24.0</ele><time>2026-05-03T11:56:13.304Z</time></trkpt><trkpt lat="42.4027993" lon="14.1433267"><ele>24.0</ele><time>2026-05-03T11:56:14.298Z</time></trkpt><trkpt lat="42.402926" lon="14.1434351"><ele>24.0</ele><time>2026-05-03T11:56:15.304Z</time></trkpt><trkpt lat="42.403051" lon="14.1435292"><ele>24.0</ele><time>2026-05-03T11:56:16.305Z</time></trkpt><trkpt lat="42.4031694" lon="14.1436391"><ele>24.0</ele><time>2026-05-03T11:56:17.304Z</time></trkpt><trkpt lat="42.4032979" lon="14.1437522"><ele>24.0</ele><time>2026-05-03T11:56:18.305Z</time></trkpt><trkpt lat="42.4034268" lon="14.1438556"><ele>24.0</ele><time>2026-05-03T11:56:19.304Z</time></trkpt><trkpt lat="42.4035576" lon="14.143978"><ele>24.333333333333336</ele><time>2026-05-03T11:56:20.302Z</time></trkpt><trkpt lat="42.4036954" lon="14.1441012"><ele>24.666666666666668</ele><time>2026-05-03T11:56:21.305Z</time></trkpt><trkpt lat="42.4038396" lon="14.1442316"><ele>25.0</ele><time>2026-05-03T11:56:22.307Z</time></trkpt><trkpt lat="42.4039819" lon="14.1443475"><ele>25.0</ele><time>2026-05-03T11:56:23.304Z</time></trkpt><trkpt lat="42.4041212" lon="14.1444638"><ele>25.0</ele><time>2026-05-03T11:56:24.3Z</time></trkpt><trkpt lat="42.404241" lon="14.1445685"><ele>25.0</ele><time>2026-05-03T11:56:25.301Z</time></trkpt><trkpt lat="42.4043589" lon="14.1446799"><ele>25.0</ele><time>2026-05-03T11:56:26.303Z</time></trkpt><trkpt lat="42.40446" lon="14.1447874"><ele>25.0</ele><time>2026-05-03T11:56:27.301Z</time></trkpt><trkpt lat="42.4045638" lon="14.1448929"><ele>25.0</ele><time>2026-05-03T11:56:28.303Z</time></trkpt><trkpt lat="42.4046714" lon="14.1449922"><ele>25.0</ele><time>2026-05-03T11:56:29.307Z</time></trkpt><trkpt lat="42.4047786" lon="14.1450897"><ele>24.5</ele><time>2026-05-03T11:56:30.303Z</time></trkpt><trkpt lat="42.4048892" lon="14.14519"><ele>24.0</ele><time>2026-05-03T11:56:31.303Z</time></trkpt><trkpt lat="42.4049977" lon="14.1452785"><ele>23.5</ele><time>2026-05-03T11:56:32.299Z</time></trkpt><trkpt lat="42.4050943" lon="14.1453675"><ele>23.0</ele><time>2026-05-03T11:56:33.297Z</time></trkpt><trkpt lat="42.405178" lon="14.1454492"><ele>23.0</ele><time>2026-05-03T11:56:34.3Z</time></trkpt><trkpt lat="42.4052577" lon="14.1455282"><ele>23.0</ele><time>2026-05-03T11:56:35.307Z</time></trkpt><trkpt lat="42.4053391" lon="14.1455918"><ele>23.0</ele><time>2026-05-03T11:56:36.303Z</time></trkpt><trkpt lat="42.4054124" lon="14.1456676"><ele>23.0</ele><time>2026-05-03T11:56:37.295Z</time></trkpt><trkpt lat="42.4054631" lon="14.1457655"><ele>23.0</ele><time>2026-05-03T11:56:38.297Z</time></trkpt><trkpt lat="42.4054868" lon="14.1458702"><ele>22.857142857142858</ele><time>2026-05-03T11:56:39.293Z</time></trkpt><trkpt lat="42.4054768" lon="14.1459685"><ele>22.71428571428571</ele><time>2026-05-03T11:56:40.301Z</time></trkpt><trkpt lat="42.4054816" lon="14.1460568"><ele>22.57142857142857</ele><time>2026-05-03T11:56:41.286Z</time></trkpt><trkpt lat="42.4055175" lon="14.1461284"><ele>22.42857142857143</ele><time>2026-05-03T11:56:42.302Z</time></trkpt><trkpt lat="42.4055898" lon="14.1461364"><ele>22.285714285714285</ele><time>2026-05-03T11:56:43.286Z</time></trkpt><trkpt lat="42.4056594" lon="14.1461075"><ele>22.142857142857142</ele><time>2026-05-03T11:56:44.3Z</time></trkpt><trkpt lat="42.4057399" lon="14.1460595"><ele>22.0</ele><time>2026-05-03T11:56:45.3Z</time></trkpt><trkpt lat="42.4058333" lon="14.1460347"><ele>22.0</ele><time>2026-05-03T11:56:46.304Z</time></trkpt><trkpt lat="42.4059284" lon="14.1460765"><ele>22.0</ele><time>2026-05-03T11:56:47.3Z</time></trkpt><trkpt lat="42.4060262" lon="14.1461566"><ele>22.0</ele><time>2026-05-03T11:56:48.296Z</time></trkpt><trkpt lat="42.4061264" lon="14.1462537"><ele>22.0</ele><time>2026-05-03T11:56:49.298Z</time></trkpt><trkpt lat="42.4062269" lon="14.14636"><ele>22.0</ele><time>2026-05-03T11:56:50.301Z</time></trkpt><trkpt lat="42.4063331" lon="14.1464644"><ele>22.0</ele><time>2026-05-03T11:56:51.3Z</time></trkpt><trkpt lat="42.4064362" lon="14.1465681"><ele>22.0</ele><time>2026-05-03T11:56:52.299Z</time></trkpt><trkpt lat="42.4065425" lon="14.1466532"><ele>22.0</ele><time>2026-05-03T11:56:53.3Z</time></trkpt><trkpt lat="42.4066488" lon="14.1467389"><ele>22.0</ele><time>2026-05-03T11:56:54.301Z</time></trkpt><trkpt lat="42.4067619" lon="14.1468146"><ele>22.0</ele><time>2026-05-03T11:56:55.301Z</time></trkpt><trkpt lat="42.4068815" lon="14.1468869"><ele>22.0</ele><time>2026-05-03T11:56:56.301Z</time></trkpt><trkpt lat="42.4069999" lon="14.1469419"><ele>22.0</ele><time>2026-05-03T11:56:57.298Z</time></trkpt><trkpt lat="42.4071208" lon="14.14699"><ele>21.0</ele><time>2026-05-03T11:56:58.296Z</time></trkpt><trkpt lat="42.4072554" lon="14.1470287"><ele>20.0</ele><time>2026-05-03T11:56:59.297Z</time></trkpt><trkpt lat="42.407392" lon="14.1470613"><ele>19.0</ele><time>2026-05-03T11:57:00.294Z</time></trkpt><trkpt lat="42.4075359" lon="14.1470892"><ele>18.0</ele><time>2026-05-03T11:57:01.296Z</time></trkpt><trkpt lat="42.407686" lon="14.1471199"><ele>18.0</ele><time>2026-05-03T11:57:02.299Z</time></trkpt><trkpt lat="42.4078392" lon="14.1471596"><ele>18.0</ele><time>2026-05-03T11:57:03.299Z</time></trkpt><trkpt lat="42.4079885" lon="14.1471867"><ele>18.0</ele><time>2026-05-03T11:57:04.302Z</time></trkpt><trkpt lat="42.4081456" lon="14.1472171"><ele>17.666666666666668</ele><time>2026-05-03T11:57:05.3Z</time></trkpt><trkpt lat="42.4082898" lon="14.1472654"><ele>17.333333333333336</ele><time>2026-05-03T11:57:06.301Z</time></trkpt><trkpt lat="42.4084441" lon="14.1473258"><ele>17.0</ele><time>2026-05-03T11:57:07.298Z</time></trkpt><trkpt lat="42.4085879" lon="14.1473929"><ele>17.0</ele><time>2026-05-03T11:57:08.299Z</time></trkpt><trkpt lat="42.4087369" lon="14.1474727"><ele>17.0</ele><time>2026-05-03T11:57:09.301Z</time></trkpt><trkpt lat="42.4088794" lon="14.1475748"><ele>17.0</ele><time>2026-05-03T11:57:10.299Z</time></trkpt><trkpt lat="42.4090147" lon="14.1476842"><ele>17.0</ele><time>2026-05-03T11:57:11.301Z</time></trkpt><trkpt lat="42.4091506" lon="14.1477945"><ele>17.0</ele><time>2026-05-03T11:57:12.3Z</time></trkpt><trkpt lat="42.4092854" lon="14.1479001"><ele>17.0</ele><time>2026-05-03T11:57:13.299Z</time></trkpt><trkpt lat="42.4094211" lon="14.1480178"><ele>17.0</ele><time>2026-05-03T11:57:14.299Z</time></trkpt><trkpt lat="42.4095678" lon="14.1481293"><ele>17.0</ele><time>2026-05-03T11:57:15.301Z</time></trkpt><trkpt lat="42.4097111" lon="14.148237"><ele>17.0</ele><time>2026-05-03T11:57:16.298Z</time></trkpt><trkpt lat="42.4098604" lon="14.1483335"><ele>17.666666666666668</ele><time>2026-05-03T11:57:17.298Z</time></trkpt><trkpt lat="42.4100063" lon="14.1484439"><ele>18.333333333333332</ele><time>2026-05-03T11:57:18.296Z</time></trkpt><trkpt lat="42.4101599" lon="14.1485733"><ele>19.0</ele><time>2026-05-03T11:57:19.294Z</time></trkpt><trkpt lat="42.4103213" lon="14.1487048"><ele>19.0</ele><time>2026-05-03T11:57:20.294Z</time></trkpt><trkpt lat="42.4104899" lon="14.1488296"><ele>19.0</ele><time>2026-05-03T11:57:21.293Z</time></trkpt><trkpt lat="42.4106728" lon="14.1489585"><ele>19.0</ele><time>2026-05-03T11:57:22.291Z</time></trkpt><trkpt lat="42.4108565" lon="14.1490986"><ele>19.666666666666664</ele><time>2026-05-03T11:57:23.298Z</time></trkpt><trkpt lat="42.4110403" lon="14.1492434"><ele>20.333333333333332</ele><time>2026-05-03T11:57:24.302Z</time></trkpt><trkpt lat="42.4112317" lon="14.1493879"><ele>21.0</ele><time>2026-05-03T11:57:25.298Z</time></trkpt><trkpt lat="42.4114266" lon="14.1495319"><ele>21.0</ele><time>2026-05-03T11:57:26.3Z</time></trkpt><trkpt lat="42.4116117" lon="14.1496921"><ele>21.0</ele><time>2026-05-03T11:57:27.295Z</time></trkpt><trkpt lat="42.4117837" lon="14.1498502"><ele>21.0</ele><time>2026-05-03T11:57:28.304Z</time></trkpt><trkpt lat="42.4119461" lon="14.1499953"><ele>20.0</ele><time>2026-05-03T11:57:29.303Z</time></trkpt><trkpt lat="42.4121086" lon="14.1501094"><ele>19.0</ele><time>2026-05-03T11:57:30.297Z</time></trkpt><trkpt lat="42.4122688" lon="14.150236"><ele>18.0</ele><time>2026-05-03T11:57:31.298Z</time></trkpt><trkpt lat="42.4124108" lon="14.1503657"><ele>17.0</ele><time>2026-05-03T11:57:32.296Z</time></trkpt><trkpt lat="42.4125568" lon="14.1504894"><ele>16.0</ele><time>2026-05-03T11:57:33.295Z</time></trkpt><trkpt lat="42.4127012" lon="14.150603"><ele>15.0</ele><time>2026-05-03T11:57:34.298Z</time></trkpt><trkpt lat="42.412845" lon="14.1507216"><ele>15.0</ele><time>2026-05-03T11:57:35.299Z</time></trkpt><trkpt lat="42.4129815" lon="14.1508457"><ele>15.0</ele><time>2026-05-03T11:57:36.298Z</time></trkpt><trkpt lat="42.4130998" lon="14.1509714"><ele>15.0</ele><time>2026-05-03T11:57:37.305Z</time></trkpt><trkpt lat="42.4132286" lon="14.1511182"><ele>15.0</ele><time>2026-05-03T11:57:38.296Z</time></trkpt><trkpt lat="42.4133602" lon="14.1512556"><ele>15.0</ele><time>2026-05-03T11:57:39.296Z</time></trkpt><trkpt lat="42.4134981" lon="14.1513838"><ele>15.0</ele><time>2026-05-03T11:57:40.3Z</time></trkpt><trkpt lat="42.4136393" lon="14.151502"><ele>15.333333333333332</ele><time>2026-05-03T11:57:41.298Z</time></trkpt><trkpt lat="42.4137915" lon="14.1516229"><ele>15.666666666666666</ele><time>2026-05-03T11:57:42.298Z</time></trkpt><trkpt lat="42.4139381" lon="14.1517241"><ele>16.0</ele><time>2026-05-03T11:57:43.293Z</time></trkpt><trkpt lat="42.4140876" lon="14.1518128"><ele>16.0</ele><time>2026-05-03T11:57:44.297Z</time></trkpt><trkpt lat="42.4142415" lon="14.1518986"><ele>16.0</ele><time>2026-05-03T11:57:45.301Z</time></trkpt><trkpt lat="42.4144012" lon="14.1519659"><ele>16.0</ele><time>2026-05-03T11:57:46.307Z</time></trkpt><trkpt lat="42.414569" lon="14.1520099"><ele>15.666666666666666</ele><time>2026-05-03T11:57:47.294Z</time></trkpt><trkpt lat="42.4147515" lon="14.1520472"><ele>15.333333333333332</ele><time>2026-05-03T11:57:48.296Z</time></trkpt><trkpt lat="42.4149405" lon="14.1520461"><ele>15.0</ele><time>2026-05-03T11:57:49.299Z</time></trkpt><trkpt lat="42.4151275" lon="14.1520602"><ele>15.0</ele><time>2026-05-03T11:57:50.295Z</time></trkpt><trkpt lat="42.4153002" lon="14.1520723"><ele>15.0</ele><time>2026-05-03T11:57:51.297Z</time></trkpt><trkpt lat="42.4154563" lon="14.1520872"><ele>15.0</ele><time>2026-05-03T11:57:52.295Z</time></trkpt><trkpt lat="42.4156074" lon="14.1520908"><ele>15.333333333333332</ele><time>2026-05-03T11:57:53.292Z</time></trkpt><trkpt lat="42.4157569" lon="14.1521158"><ele>15.666666666666666</ele><time>2026-05-03T11:57:54.292Z</time></trkpt><trkpt lat="42.4158993" lon="14.1521532"><ele>16.0</ele><time>2026-05-03T11:57:55.299Z</time></trkpt><trkpt lat="42.4160512" lon="14.1522066"><ele>16.0</ele><time>2026-05-03T11:57:56.289Z</time></trkpt><trkpt lat="42.416189" lon="14.1522846"><ele>16.0</ele><time>2026-05-03T11:57:57.28Z</time></trkpt><trkpt lat="42.4163274" lon="14.1523874"><ele>16.0</ele><time>2026-05-03T11:57:58.284Z</time></trkpt><trkpt lat="42.4164545" lon="14.1525245"><ele>17.333333333333332</ele><time>2026-05-03T11:57:59.293Z</time></trkpt><trkpt lat="42.416573" lon="14.1526867"><ele>18.666666666666668</ele><time>2026-05-03T11:58:00.294Z</time></trkpt><trkpt lat="42.4166856" lon="14.1528483"><ele>20.0</ele><time>2026-05-03T11:58:01.302Z</time></trkpt><trkpt lat="42.416798" lon="14.1530137"><ele>20.0</ele><time>2026-05-03T11:58:02.298Z</time></trkpt><trkpt lat="42.4169179" lon="14.1531812"><ele>20.0</ele><time>2026-05-03T11:58:03.298Z</time></trkpt><trkpt lat="42.4170393" lon="14.1533512"><ele>20.0</ele><time>2026-05-03T11:58:04.297Z</time></trkpt><trkpt lat="42.4171626" lon="14.1535161"><ele>20.333333333333336</ele><time>2026-05-03T11:58:05.298Z</time></trkpt><trkpt lat="42.4172791" lon="14.1536733"><ele>20.666666666666668</ele><time>2026-05-03T11:58:06.302Z</time></trkpt><trkpt lat="42.4173909" lon="14.1538226"><ele>21.0</ele><time>2026-05-03T11:58:07.298Z</time></trkpt><trkpt lat="42.4174995" lon="14.153971"><ele>20.333333333333332</ele><time>2026-05-03T11:58:08.304Z</time></trkpt><trkpt lat="42.4176116" lon="14.1541154"><ele>19.666666666666664</ele><time>2026-05-03T11:58:09.296Z</time></trkpt><trkpt lat="42.4177265" lon="14.1542614"><ele>19.0</ele><time>2026-05-03T11:58:10.297Z</time></trkpt><trkpt lat="42.4178296" lon="14.1544057"><ele>19.0</ele><time>2026-05-03T11:58:11.299Z</time></trkpt><trkpt lat="42.4179324" lon="14.1545421"><ele>19.0</ele><time>2026-05-03T11:58:12.303Z</time></trkpt><trkpt lat="42.4180366" lon="14.1546867"><ele>19.0</ele><time>2026-05-03T11:58:13.303Z</time></trkpt><trkpt lat="42.4181441" lon="14.1548322"><ele>19.0</ele><time>2026-05-03T11:58:14.301Z</time></trkpt><trkpt lat="42.4182519" lon="14.1549751"><ele>18.333333333333332</ele><time>2026-05-03T11:58:15.303Z</time></trkpt><trkpt lat="42.418356" lon="14.1551261"><ele>17.666666666666668</ele><time>2026-05-03T11:58:16.302Z</time></trkpt><trkpt lat="42.4184601" lon="14.1552731"><ele>17.0</ele><time>2026-05-03T11:58:17.303Z</time></trkpt><trkpt lat="42.418573" lon="14.155422"><ele>17.0</ele><time>2026-05-03T11:58:18.302Z</time></trkpt><trkpt lat="42.4186897" lon="14.1555761"><ele>17.0</ele><time>2026-05-03T11:58:19.301Z</time></trkpt><trkpt lat="42.4188118" lon="14.1557362"><ele>17.0</ele><time>2026-05-03T11:58:20.298Z</time></trkpt><trkpt lat="42.4189286" lon="14.1559147"><ele>19.0</ele><time>2026-05-03T11:58:21.299Z</time></trkpt><trkpt lat="42.419053" lon="14.1560894"><ele>21.0</ele><time>2026-05-03T11:58:22.298Z</time></trkpt><trkpt lat="42.4191793" lon="14.1562437"><ele>23.0</ele><time>2026-05-03T11:58:23.289Z</time></trkpt><trkpt lat="42.4193029" lon="14.1563849"><ele>23.0</ele><time>2026-05-03T11:58:24.276Z</time></trkpt><trkpt lat="42.4194362" lon="14.1564925"><ele>23.0</ele><time>2026-05-03T11:58:25.279Z</time></trkpt><trkpt lat="42.4195992" lon="14.1565385"><ele>23.0</ele><time>2026-05-03T11:58:26.283Z</time></trkpt><trkpt lat="42.4197654" lon="14.1565924"><ele>22.0</ele><time>2026-05-03T11:58:27.282Z</time></trkpt><trkpt lat="42.4199445" lon="14.1566439"><ele>21.0</ele><time>2026-05-03T11:58:28.295Z</time></trkpt><trkpt lat="42.4201075" lon="14.1566995"><ele>20.0</ele><time>2026-05-03T11:58:29.296Z</time></trkpt><trkpt lat="42.4202522" lon="14.1567583"><ele>20.0</ele><time>2026-05-03T11:58:30.284Z</time></trkpt><trkpt lat="42.4203939" lon="14.1568107"><ele>20.0</ele><time>2026-05-03T11:58:31.287Z</time></trkpt><trkpt lat="42.4205313" lon="14.1568672"><ele>20.0</ele><time>2026-05-03T11:58:32.291Z</time></trkpt><trkpt lat="42.420672" lon="14.1569276"><ele>20.0</ele><time>2026-05-03T11:58:33.297Z</time></trkpt><trkpt lat="42.4208195" lon="14.1569776"><ele>20.25</ele><time>2026-05-03T11:58:34.298Z</time></trkpt><trkpt lat="42.4209569" lon="14.1570372"><ele>20.5</ele><time>2026-05-03T11:58:35.296Z</time></trkpt><trkpt lat="42.4210825" lon="14.1570994"><ele>20.75</ele><time>2026-05-03T11:58:36.297Z</time></trkpt><trkpt lat="42.4212099" lon="14.1571585"><ele>21.0</ele><time>2026-05-03T11:58:37.292Z</time></trkpt><trkpt lat="42.42134" lon="14.157216"><ele>21.5</ele><time>2026-05-03T11:58:38.297Z</time></trkpt><trkpt lat="42.4214741" lon="14.1572733"><ele>22.0</ele><time>2026-05-03T11:58:39.297Z</time></trkpt><trkpt lat="42.4216018" lon="14.1573338"><ele>22.5</ele><time>2026-05-03T11:58:40.292Z</time></trkpt><trkpt lat="42.4217318" lon="14.1573795"><ele>23.0</ele><time>2026-05-03T11:58:41.295Z</time></trkpt><trkpt lat="42.4218549" lon="14.1574138"><ele>22.4</ele><time>2026-05-03T11:58:42.291Z</time></trkpt><trkpt lat="42.42196" lon="14.1574312"><ele>21.799999999999997</ele><time>2026-05-03T11:58:43.294Z</time></trkpt><trkpt lat="42.422064" lon="14.1574206"><ele>21.2</ele><time>2026-05-03T11:58:44.3Z</time></trkpt><trkpt lat="42.4221654" lon="14.1574024"><ele>20.6</ele><time>2026-05-03T11:58:45.289Z</time></trkpt><trkpt lat="42.4222711" lon="14.1574104"><ele>20.0</ele><time>2026-05-03T11:58:46.301Z</time></trkpt><trkpt lat="42.4223848" lon="14.1574601"><ele>20.0</ele><time>2026-05-03T11:58:47.293Z</time></trkpt><trkpt lat="42.4224996" lon="14.1575258"><ele>20.0</ele><time>2026-05-03T11:58:48.29Z</time></trkpt><trkpt lat="42.4226133" lon="14.1576"><ele>20.0</ele><time>2026-05-03T11:58:49.296Z</time></trkpt><trkpt lat="42.4227289" lon="14.1576879"><ele>20.0</ele><time>2026-05-03T11:58:50.301Z</time></trkpt><trkpt lat="42.422849" lon="14.15778"><ele>20.0</ele><time>2026-05-03T11:58:51.296Z</time></trkpt><trkpt lat="42.4229778" lon="14.1578547"><ele>20.0</ele><time>2026-05-03T11:58:52.293Z</time></trkpt><trkpt lat="42.4231132" lon="14.1579263"><ele>20.0</ele><time>2026-05-03T11:58:53.29Z</time></trkpt><trkpt lat="42.4232421" lon="14.1579933"><ele>20.0</ele><time>2026-05-03T11:58:54.291Z</time></trkpt><trkpt lat="42.4233738" lon="14.1580523"><ele>19.5</ele><time>2026-05-03T11:58:55.286Z</time></trkpt><trkpt lat="42.4235052" lon="14.1581049"><ele>19.0</ele><time>2026-05-03T11:58:56.295Z</time></trkpt><trkpt lat="42.4236392" lon="14.1581544"><ele>18.5</ele><time>2026-05-03T11:58:57.297Z</time></trkpt><trkpt lat="42.4237597" lon="14.1581999"><ele>18.0</ele><time>2026-05-03T11:58:58.295Z</time></trkpt><trkpt lat="42.4238761" lon="14.1582432"><ele>17.75</ele><time>2026-05-03T11:58:59.298Z</time></trkpt><trkpt lat="42.4239937" lon="14.1582885"><ele>17.5</ele><time>2026-05-03T11:59:00.298Z</time></trkpt><trkpt lat="42.4241112" lon="14.158332"><ele>17.25</ele><time>2026-05-03T11:59:01.297Z</time></trkpt><trkpt lat="42.4242208" lon="14.1583846"><ele>17.0</ele><time>2026-05-03T11:59:02.292Z</time></trkpt><trkpt lat="42.4243218" lon="14.1584389"><ele>17.0</ele><time>2026-05-03T11:59:03.294Z</time></trkpt><trkpt lat="42.4244284" lon="14.158491"><ele>17.0</ele><time>2026-05-03T11:59:04.286Z</time></trkpt><trkpt lat="42.4245452" lon="14.1585361"><ele>17.0</ele><time>2026-05-03T11:59:05.29Z</time></trkpt><trkpt lat="42.424664" lon="14.1585801"><ele>17.0</ele><time>2026-05-03T11:59:06.297Z</time></trkpt><trkpt lat="42.4247853" lon="14.1586268"><ele>17.25</ele><time>2026-05-03T11:59:07.298Z</time></trkpt><trkpt lat="42.4249067" lon="14.1586795"><ele>17.5</ele><time>2026-05-03T11:59:08.299Z</time></trkpt><trkpt lat="42.4250251" lon="14.1587314"><ele>17.75</ele><time>2026-05-03T11:59:09.293Z</time></trkpt><trkpt lat="42.4251321" lon="14.1587841"><ele>18.0</ele><time>2026-05-03T11:59:10.299Z</time></trkpt><trkpt lat="42.4252356" lon="14.1588373"><ele>18.0</ele><time>2026-05-03T11:59:11.293Z</time></trkpt><trkpt lat="42.4253314" lon="14.1588786"><ele>18.0</ele><time>2026-05-03T11:59:12.292Z</time></trkpt><trkpt lat="42.4254188" lon="14.1589169"><ele>18.0</ele><time>2026-05-03T11:59:13.293Z</time></trkpt><trkpt lat="42.4255065" lon="14.1589561"><ele>18.0</ele><time>2026-05-03T11:59:14.297Z</time></trkpt><trkpt lat="42.4255878" lon="14.1589936"><ele>18.0</ele><time>2026-05-03T11:59:15.298Z</time></trkpt><trkpt lat="42.4256633" lon="14.159036"><ele>18.2</ele><time>2026-05-03T11:59:16.294Z</time></trkpt><trkpt lat="42.425741" lon="14.1590746"><ele>18.4</ele><time>2026-05-03T11:59:17.294Z</time></trkpt><trkpt lat="42.4258208" lon="14.1591131"><ele>18.599999999999998</ele><time>2026-05-03T11:59:18.289Z</time></trkpt><trkpt lat="42.4259083" lon="14.1591579"><ele>18.8</ele><time>2026-05-03T11:59:19.289Z</time></trkpt><trkpt lat="42.4260047" lon="14.1592123"><ele>19.0</ele><time>2026-05-03T11:59:20.294Z</time></trkpt><trkpt lat="42.4260986" lon="14.1592743"><ele>19.0</ele><time>2026-05-03T11:59:21.296Z</time></trkpt><trkpt lat="42.4261956" lon="14.1593433"><ele>19.0</ele><time>2026-05-03T11:59:22.301Z</time></trkpt><trkpt lat="42.4262999" lon="14.159412"><ele>19.0</ele><time>2026-05-03T11:59:23.303Z</time></trkpt><trkpt lat="42.4264089" lon="14.1594857"><ele>19.0</ele><time>2026-05-03T11:59:24.302Z</time></trkpt><trkpt lat="42.4265245" lon="14.1595605"><ele>19.0</ele><time>2026-05-03T11:59:25.302Z</time></trkpt><trkpt lat="42.4266392" lon="14.1596392"><ele>19.0</ele><time>2026-05-03T11:59:26.306Z</time></trkpt><trkpt lat="42.4267549" lon="14.1597135"><ele>19.0</ele><time>2026-05-03T11:59:27.308Z</time></trkpt><trkpt lat="42.4268633" lon="14.1597929"><ele>19.0</ele><time>2026-05-03T11:59:28.306Z</time></trkpt><trkpt lat="42.4269724" lon="14.1598769"><ele>19.0</ele><time>2026-05-03T11:59:29.307Z</time></trkpt><trkpt lat="42.4270898" lon="14.1599628"><ele>19.0</ele><time>2026-05-03T11:59:30.301Z</time></trkpt><trkpt lat="42.4272129" lon="14.1600591"><ele>19.0</ele><time>2026-05-03T11:59:31.299Z</time></trkpt><trkpt lat="42.4273347" lon="14.1601567"><ele>19.0</ele><time>2026-05-03T11:59:32.305Z</time></trkpt><trkpt lat="42.4274617" lon="14.1602675"><ele>18.666666666666664</ele><time>2026-05-03T11:59:33.306Z</time></trkpt><trkpt lat="42.4275865" lon="14.1603806"><ele>18.333333333333332</ele><time>2026-05-03T11:59:34.307Z</time></trkpt><trkpt lat="42.4277186" lon="14.1605005"><ele>18.0</ele><time>2026-05-03T11:59:35.304Z</time></trkpt><trkpt lat="42.427849" lon="14.1606276"><ele>17.666666666666668</ele><time>2026-05-03T11:59:36.305Z</time></trkpt><trkpt lat="42.4279868" lon="14.1607589"><ele>17.333333333333336</ele><time>2026-05-03T11:59:37.307Z</time></trkpt><trkpt lat="42.4281169" lon="14.1608897"><ele>17.0</ele><time>2026-05-03T11:59:38.311Z</time></trkpt><trkpt lat="42.4282425" lon="14.1610207"><ele>17.0</ele><time>2026-05-03T11:59:39.308Z</time></trkpt><trkpt lat="42.4283705" lon="14.1611564"><ele>17.0</ele><time>2026-05-03T11:59:40.309Z</time></trkpt><trkpt lat="42.4284958" lon="14.1612857"><ele>17.0</ele><time>2026-05-03T11:59:41.317Z</time></trkpt><trkpt lat="42.4286117" lon="14.1614007"><ele>17.0</ele><time>2026-05-03T11:59:42.301Z</time></trkpt><trkpt lat="42.4287298" lon="14.1615225"><ele>17.0</ele><time>2026-05-03T11:59:43.297Z</time></trkpt><trkpt lat="42.4288481" lon="14.1616421"><ele>17.0</ele><time>2026-05-03T11:59:44.296Z</time></trkpt><trkpt lat="42.4289635" lon="14.1617642"><ele>17.0</ele><time>2026-05-03T11:59:45.297Z</time></trkpt><trkpt lat="42.4290797" lon="14.1618867"><ele>20.333333333333336</ele><time>2026-05-03T11:59:46.299Z</time></trkpt><trkpt lat="42.4292008" lon="14.1620094"><ele>23.666666666666668</ele><time>2026-05-03T11:59:47.296Z</time></trkpt><trkpt lat="42.4293166" lon="14.1621357"><ele>27.0</ele><time>2026-05-03T11:59:48.293Z</time></trkpt><trkpt lat="42.4294417" lon="14.1622708"><ele>25.0</ele><time>2026-05-03T11:59:49.296Z</time></trkpt><trkpt lat="42.429587" lon="14.1623937"><ele>23.0</ele><time>2026-05-03T11:59:50.293Z</time></trkpt><trkpt lat="42.4297244" lon="14.1625087"><ele>21.0</ele><time>2026-05-03T11:59:51.287Z</time></trkpt><trkpt lat="42.4298515" lon="14.1625955"><ele>21.0</ele><time>2026-05-03T11:59:52.289Z</time></trkpt><trkpt lat="42.429982" lon="14.16266"><ele>21.0</ele><time>2026-05-03T11:59:53.296Z</time></trkpt><trkpt lat="42.4301122" lon="14.1627129"><ele>21.0</ele><time>2026-05-03T11:59:54.29Z</time></trkpt><trkpt lat="42.4302375" lon="14.1627472"><ele>21.0</ele><time>2026-05-03T11:59:55.288Z</time></trkpt><trkpt lat="42.4303425" lon="14.162761"><ele>21.0</ele><time>2026-05-03T11:59:56.277Z</time></trkpt><trkpt lat="42.4304301" lon="14.1627704"><ele>21.0</ele><time>2026-05-03T11:59:57.278Z</time></trkpt><trkpt lat="42.4305311" lon="14.1627432"><ele>21.0</ele><time>2026-05-03T11:59:59.297Z</time></trkpt><trkpt lat="42.4305375" lon="14.1626481"><ele>21.0</ele><time>2026-05-03T12:00:01.278Z</time></trkpt><trkpt lat="42.4304382" lon="14.1625455"><ele>21.0</ele><time>2026-05-03T12:00:03.281Z</time></trkpt><trkpt lat="42.430374" lon="14.1625008"><ele>21.4</ele><time>2026-05-03T12:00:04.279Z</time></trkpt><trkpt lat="42.4303293" lon="14.1623574"><ele>21.8</ele><time>2026-05-03T12:00:06.289Z</time></trkpt><trkpt lat="42.4303567" lon="14.1622588"><ele>22.2</ele><time>2026-05-03T12:00:07.267Z</time></trkpt><trkpt lat="42.4304002" lon="14.1621531"><ele>22.599999999999998</ele><time>2026-05-03T12:00:08.277Z</time></trkpt><trkpt lat="42.4304517" lon="14.1620405"><ele>23.0</ele><time>2026-05-03T12:00:09.274Z</time></trkpt><trkpt lat="42.4304982" lon="14.1619189"><ele>23.0</ele><time>2026-05-03T12:00:10.272Z</time></trkpt><trkpt lat="42.4305489" lon="14.161794"><ele>23.0</ele><time>2026-05-03T12:00:11.273Z</time></trkpt><trkpt lat="42.4306031" lon="14.1616628"><ele>23.0</ele><time>2026-05-03T12:00:12.279Z</time></trkpt><trkpt lat="42.4306563" lon="14.1615453"><ele>23.0</ele><time>2026-05-03T12:00:13.263Z</time></trkpt><trkpt lat="42.4307077" lon="14.1614299"><ele>23.0</ele><time>2026-05-03T12:00:14.272Z</time></trkpt><trkpt lat="42.4307524" lon="14.1613167"><ele>23.799999999999997</ele><time>2026-05-03T12:00:15.271Z</time></trkpt><trkpt lat="42.4307975" lon="14.161206"><ele>24.6</ele><time>2026-05-03T12:00:16.275Z</time></trkpt><trkpt lat="42.4308357" lon="14.1610908"><ele>25.400000000000002</ele><time>2026-05-03T12:00:17.279Z</time></trkpt><trkpt lat="42.4308812" lon="14.1609815"><ele>26.200000000000003</ele><time>2026-05-03T12:00:18.282Z</time></trkpt><trkpt lat="42.4309313" lon="14.1608617"><ele>27.0</ele><time>2026-05-03T12:00:19.28Z</time></trkpt><trkpt lat="42.4309918" lon="14.1607443"><ele>27.0</ele><time>2026-05-03T12:00:20.285Z</time></trkpt><trkpt lat="42.4310583" lon="14.1606134"><ele>27.0</ele><time>2026-05-03T12:00:21.284Z</time></trkpt><trkpt lat="42.4311195" lon="14.1604732"><ele>27.0</ele><time>2026-05-03T12:00:22.289Z</time></trkpt><trkpt lat="42.4311793" lon="14.1603276"><ele>27.0</ele><time>2026-05-03T12:00:23.284Z</time></trkpt><trkpt lat="42.431242" lon="14.1601668"><ele>27.0</ele><time>2026-05-03T12:00:24.284Z</time></trkpt><trkpt lat="42.4313048" lon="14.1600093"><ele>27.0</ele><time>2026-05-03T12:00:25.283Z</time></trkpt><trkpt lat="42.4313713" lon="14.1598504"><ele>27.0</ele><time>2026-05-03T12:00:26.283Z</time></trkpt><trkpt lat="42.4314422" lon="14.1596814"><ele>27.0</ele><time>2026-05-03T12:00:27.288Z</time></trkpt><trkpt lat="42.4315154" lon="14.1595059"><ele>28.666666666666664</ele><time>2026-05-03T12:00:28.28Z</time></trkpt><trkpt lat="42.4315923" lon="14.1593325"><ele>30.333333333333332</ele><time>2026-05-03T12:00:29.285Z</time></trkpt><trkpt lat="42.4316603" lon="14.1591452"><ele>32.0</ele><time>2026-05-03T12:00:30.283Z</time></trkpt><trkpt lat="42.4317388" lon="14.1589777"><ele>32.25</ele><time>2026-05-03T12:00:31.283Z</time></trkpt><trkpt lat="42.4318068" lon="14.1588085"><ele>32.5</ele><time>2026-05-03T12:00:32.285Z</time></trkpt><trkpt lat="42.4318792" lon="14.158638"><ele>32.75</ele><time>2026-05-03T12:00:33.282Z</time></trkpt><trkpt lat="42.4319477" lon="14.1584883"><ele>33.0</ele><time>2026-05-03T12:00:34.275Z</time></trkpt><trkpt lat="42.4320138" lon="14.1583219"><ele>33.25</ele><time>2026-05-03T12:00:35.273Z</time></trkpt><trkpt lat="42.432086" lon="14.1581763"><ele>33.5</ele><time>2026-05-03T12:00:36.275Z</time></trkpt><trkpt lat="42.4321424" lon="14.1580089"><ele>33.75</ele><time>2026-05-03T12:00:37.275Z</time></trkpt><trkpt lat="42.4321993" lon="14.1578439"><ele>34.0</ele><time>2026-05-03T12:00:38.284Z</time></trkpt><trkpt lat="42.4322633" lon="14.1576917"><ele>35.75</ele><time>2026-05-03T12:00:39.28Z</time></trkpt><trkpt lat="42.4323343" lon="14.1575427"><ele>37.5</ele><time>2026-05-03T12:00:40.288Z</time></trkpt><trkpt lat="42.4324128" lon="14.1573965"><ele>39.25</ele><time>2026-05-03T12:00:41.281Z</time></trkpt><trkpt lat="42.4325041" lon="14.1572581"><ele>41.0</ele><time>2026-05-03T12:00:42.276Z</time></trkpt><trkpt lat="42.4326082" lon="14.1571465"><ele>42.0</ele><time>2026-05-03T12:00:43.289Z</time></trkpt><trkpt lat="42.4327232" lon="14.1570392"><ele>43.0</ele><time>2026-05-03T12:00:44.286Z</time></trkpt><trkpt lat="42.4328399" lon="14.1569391"><ele>44.0</ele><time>2026-05-03T12:00:45.289Z</time></trkpt><trkpt lat="42.4329606" lon="14.1568445"><ele>45.0</ele><time>2026-05-03T12:00:46.287Z</time></trkpt><trkpt lat="42.4330819" lon="14.1567496"><ele>46.25</ele><time>2026-05-03T12:00:47.29Z</time></trkpt><trkpt lat="42.4332033" lon="14.1566496"><ele>47.5</ele><time>2026-05-03T12:00:48.287Z</time></trkpt><trkpt lat="42.4333316" lon="14.156535"><ele>48.75</ele><time>2026-05-03T12:00:49.285Z</time></trkpt><trkpt lat="42.4334594" lon="14.1564313"><ele>50.0</ele><time>2026-05-03T12:00:50.284Z</time></trkpt><trkpt lat="42.4335984" lon="14.1563354"><ele>50.66666666666667</ele><time>2026-05-03T12:00:51.292Z</time></trkpt><trkpt lat="42.4337394" lon="14.156238"><ele>51.33333333333333</ele><time>2026-05-03T12:00:52.29Z</time></trkpt><trkpt lat="42.4338721" lon="14.1561387"><ele>52.0</ele><time>2026-05-03T12:00:53.291Z</time></trkpt><trkpt lat="42.4340112" lon="14.1560369"><ele>52.666666666666664</ele><time>2026-05-03T12:00:54.29Z</time></trkpt><trkpt lat="42.4341557" lon="14.1559254"><ele>53.33333333333333</ele><time>2026-05-03T12:00:55.287Z</time></trkpt><trkpt lat="42.4343024" lon="14.1558094"><ele>54.0</ele><time>2026-05-03T12:00:56.288Z</time></trkpt><trkpt lat="42.4344545" lon="14.1557018"><ele>54.33333333333333</ele><time>2026-05-03T12:00:57.29Z</time></trkpt><trkpt lat="42.4345891" lon="14.1556018"><ele>54.666666666666664</ele><time>2026-05-03T12:00:58.292Z</time></trkpt><trkpt lat="42.4347262" lon="14.1555076"><ele>55.0</ele><time>2026-05-03T12:00:59.293Z</time></trkpt><trkpt lat="42.4348704" lon="14.1553989"><ele>56.33333333333333</ele><time>2026-05-03T12:01:00.294Z</time></trkpt><trkpt lat="42.4350029" lon="14.1552955"><ele>57.66666666666667</ele><time>2026-05-03T12:01:01.296Z</time></trkpt><trkpt lat="42.4351367" lon="14.1551923"><ele>59.0</ele><time>2026-05-03T12:01:02.291Z</time></trkpt><trkpt lat="42.4352782" lon="14.1550858"><ele>59.0</ele><time>2026-05-03T12:01:03.294Z</time></trkpt><trkpt lat="42.4354114" lon="14.154988"><ele>59.0</ele><time>2026-05-03T12:01:04.295Z</time></trkpt><trkpt lat="42.4355431" lon="14.1548816"><ele>59.0</ele><time>2026-05-03T12:01:05.289Z</time></trkpt><trkpt lat="42.4356742" lon="14.1547859"><ele>60.333333333333336</ele><time>2026-05-03T12:01:06.293Z</time></trkpt><trkpt lat="42.4358156" lon="14.1546797"><ele>61.66666666666667</ele><time>2026-05-03T12:01:07.291Z</time></trkpt><trkpt lat="42.4359495" lon="14.1545767"><ele>63.0</ele><time>2026-05-03T12:01:08.29Z</time></trkpt><trkpt lat="42.4360876" lon="14.1544775"><ele>63.0</ele><time>2026-05-03T12:01:09.307Z</time></trkpt><trkpt lat="42.4362196" lon="14.1543759"><ele>63.0</ele><time>2026-05-03T12:01:10.289Z</time></trkpt><trkpt lat="42.436345" lon="14.1542727"><ele>63.0</ele><time>2026-05-03T12:01:11.289Z</time></trkpt><trkpt lat="42.4364682" lon="14.1541615"><ele>63.0</ele><time>2026-05-03T12:01:12.286Z</time></trkpt><trkpt lat="42.4365928" lon="14.1540411"><ele>64.75</ele><time>2026-05-03T12:01:13.293Z</time></trkpt><trkpt lat="42.4367163" lon="14.1539269"><ele>66.5</ele><time>2026-05-03T12:01:14.288Z</time></trkpt><trkpt lat="42.4368397" lon="14.1538266"><ele>68.25</ele><time>2026-05-03T12:01:15.295Z</time></trkpt><trkpt lat="42.4369642" lon="14.1537209"><ele>70.0</ele><time>2026-05-03T12:01:16.295Z</time></trkpt><trkpt lat="42.4370845" lon="14.1536101"><ele>69.75</ele><time>2026-05-03T12:01:17.295Z</time></trkpt><trkpt lat="42.4372076" lon="14.1535029"><ele>69.5</ele><time>2026-05-03T12:01:18.297Z</time></trkpt><trkpt lat="42.4373347" lon="14.1533998"><ele>69.25</ele><time>2026-05-03T12:01:19.294Z</time></trkpt><trkpt lat="42.4374704" lon="14.153304"><ele>69.0</ele><time>2026-05-03T12:01:20.283Z</time></trkpt><trkpt lat="42.4376223" lon="14.1532402"><ele>69.0</ele><time>2026-05-03T12:01:21.282Z</time></trkpt><trkpt lat="42.437781" lon="14.1532089"><ele>69.0</ele><time>2026-05-03T12:01:22.29Z</time></trkpt><trkpt lat="42.4379418" lon="14.1531807"><ele>69.0</ele><time>2026-05-03T12:01:23.29Z</time></trkpt><trkpt lat="42.4381034" lon="14.1531359"><ele>67.0</ele><time>2026-05-03T12:01:24.282Z</time></trkpt><trkpt lat="42.4382625" lon="14.1530689"><ele>65.0</ele><time>2026-05-03T12:01:25.286Z</time></trkpt><trkpt lat="42.4384117" lon="14.1529681"><ele>63.0</ele><time>2026-05-03T12:01:26.282Z</time></trkpt><trkpt lat="42.4385588" lon="14.1528441"><ele>63.0</ele><time>2026-05-03T12:01:27.294Z</time></trkpt><trkpt lat="42.4386877" lon="14.1526987"><ele>63.0</ele><time>2026-05-03T12:01:28.285Z</time></trkpt><trkpt lat="42.438811" lon="14.1525475"><ele>63.0</ele><time>2026-05-03T12:01:29.29Z</time></trkpt><trkpt lat="42.4389307" lon="14.1523893"><ele>66.33333333333333</ele><time>2026-05-03T12:01:30.296Z</time></trkpt><trkpt lat="42.4390439" lon="14.1522166"><ele>69.66666666666666</ele><time>2026-05-03T12:01:31.294Z</time></trkpt><trkpt lat="42.4391497" lon="14.1520405"><ele>73.0</ele><time>2026-05-03T12:01:32.306Z</time></trkpt><trkpt lat="42.4392545" lon="14.1518783"><ele>73.0</ele><time>2026-05-03T12:01:33.293Z</time></trkpt><trkpt lat="42.4393716" lon="14.1517486"><ele>73.0</ele><time>2026-05-03T12:01:34.288Z</time></trkpt><trkpt lat="42.4395047" lon="14.1516383"><ele>73.0</ele><time>2026-05-03T12:01:35.296Z</time></trkpt><trkpt lat="42.4396465" lon="14.1515458"><ele>74.0</ele><time>2026-05-03T12:01:36.305Z</time></trkpt><trkpt lat="42.4397981" lon="14.1514686"><ele>75.0</ele><time>2026-05-03T12:01:37.3Z</time></trkpt><trkpt lat="42.4399507" lon="14.1513948"><ele>76.0</ele><time>2026-05-03T12:01:38.299Z</time></trkpt><trkpt lat="42.4401008" lon="14.1513166"><ele>76.0</ele><time>2026-05-03T12:01:39.298Z</time></trkpt><trkpt lat="42.4402519" lon="14.151235"><ele>76.0</ele><time>2026-05-03T12:01:40.303Z</time></trkpt><trkpt lat="42.4403968" lon="14.1511342"><ele>76.0</ele><time>2026-05-03T12:01:41.302Z</time></trkpt><trkpt lat="42.4405444" lon="14.1510336"><ele>80.0</ele><time>2026-05-03T12:01:42.3Z</time></trkpt><trkpt lat="42.4406969" lon="14.1509272"><ele>84.0</ele><time>2026-05-03T12:01:43.299Z</time></trkpt><trkpt lat="42.4408567" lon="14.1508367"><ele>88.0</ele><time>2026-05-03T12:01:44.301Z</time></trkpt><trkpt lat="42.4410218" lon="14.1507772"><ele>88.0</ele><time>2026-05-03T12:01:45.301Z</time></trkpt><trkpt lat="42.441184" lon="14.1507686"><ele>88.0</ele><time>2026-05-03T12:01:46.299Z</time></trkpt><trkpt lat="42.4413469" lon="14.1508291"><ele>88.0</ele><time>2026-05-03T12:01:47.294Z</time></trkpt><trkpt lat="42.4415074" lon="14.1509041"><ele>89.0</ele><time>2026-05-03T12:01:48.284Z</time></trkpt><trkpt lat="42.441675" lon="14.1509454"><ele>90.0</ele><time>2026-05-03T12:01:49.272Z</time></trkpt><trkpt lat="42.4418471" lon="14.1509663"><ele>91.0</ele><time>2026-05-03T12:01:50.272Z</time></trkpt><trkpt lat="42.4420036" lon="14.1509395"><ele>91.75</ele><time>2026-05-03T12:01:51.262Z</time></trkpt><trkpt lat="42.4421438" lon="14.1508683"><ele>92.5</ele><time>2026-05-03T12:01:52.275Z</time></trkpt><trkpt lat="42.4422674" lon="14.1507668"><ele>93.25</ele><time>2026-05-03T12:01:53.284Z</time></trkpt><trkpt lat="42.4423524" lon="14.1506322"><ele>94.0</ele><time>2026-05-03T12:01:54.267Z</time></trkpt><trkpt lat="42.4424089" lon="14.150486"><ele>94.0</ele><time>2026-05-03T12:01:55.276Z</time></trkpt><trkpt lat="42.4424317" lon="14.1503087"><ele>94.0</ele><time>2026-05-03T12:01:56.274Z</time></trkpt><trkpt lat="42.4424395" lon="14.1501254"><ele>94.0</ele><time>2026-05-03T12:01:57.284Z</time></trkpt><trkpt lat="42.4424763" lon="14.1499364"><ele>94.0</ele><time>2026-05-03T12:01:58.295Z</time></trkpt><trkpt lat="42.4425159" lon="14.1497387"><ele>95.33333333333333</ele><time>2026-05-03T12:01:59.292Z</time></trkpt><trkpt lat="42.4425788" lon="14.1495244"><ele>96.66666666666666</ele><time>2026-05-03T12:02:00.297Z</time></trkpt><trkpt lat="42.4426427" lon="14.1493221"><ele>98.0</ele><time>2026-05-03T12:02:01.295Z</time></trkpt><trkpt lat="42.4427032" lon="14.1491254"><ele>100.0</ele><time>2026-05-03T12:02:02.296Z</time></trkpt><trkpt lat="42.4427705" lon="14.1489261"><ele>102.0</ele><time>2026-05-03T12:02:03.292Z</time></trkpt><trkpt lat="42.4428584" lon="14.148759"><ele>104.0</ele><time>2026-05-03T12:02:04.288Z</time></trkpt><trkpt lat="42.4429617" lon="14.1486106"><ele>104.0</ele><time>2026-05-03T12:02:05.281Z</time></trkpt><trkpt lat="42.443069" lon="14.1484634"><ele>104.0</ele><time>2026-05-03T12:02:06.29Z</time></trkpt><trkpt lat="42.4431733" lon="14.1483173"><ele>104.0</ele><time>2026-05-03T12:02:07.29Z</time></trkpt><trkpt lat="42.4432768" lon="14.1481557"><ele>109.0</ele><time>2026-05-03T12:02:08.281Z</time></trkpt><trkpt lat="42.4433876" lon="14.1479907"><ele>114.0</ele><time>2026-05-03T12:02:09.288Z</time></trkpt><trkpt lat="42.4435006" lon="14.1478262"><ele>119.0</ele><time>2026-05-03T12:02:10.28Z</time></trkpt><trkpt lat="42.4436182" lon="14.1476971"><ele>119.0</ele><time>2026-05-03T12:02:11.278Z</time></trkpt><trkpt lat="42.4437336" lon="14.1475926"><ele>119.0</ele><time>2026-05-03T12:02:12.284Z</time></trkpt><trkpt lat="42.4438595" lon="14.1475181"><ele>119.0</ele><time>2026-05-03T12:02:13.284Z</time></trkpt><trkpt lat="42.4439925" lon="14.147461"><ele>119.0</ele><time>2026-05-03T12:02:14.285Z</time></trkpt><trkpt lat="42.4441314" lon="14.1474272"><ele>117.75</ele><time>2026-05-03T12:02:15.286Z</time></trkpt><trkpt lat="42.4442625" lon="14.1473968"><ele>116.5</ele><time>2026-05-03T12:02:16.289Z</time></trkpt><trkpt lat="42.4443867" lon="14.1473528"><ele>115.25</ele><time>2026-05-03T12:02:17.28Z</time></trkpt><trkpt lat="42.444471" lon="14.1472664"><ele>114.0</ele><time>2026-05-03T12:02:18.297Z</time></trkpt><trkpt lat="42.444533" lon="14.1471388"><ele>115.75</ele><time>2026-05-03T12:02:19.293Z</time></trkpt><trkpt lat="42.4445855" lon="14.1469929"><ele>117.5</ele><time>2026-05-03T12:02:20.286Z</time></trkpt><trkpt lat="42.4446452" lon="14.1468696"><ele>119.25</ele><time>2026-05-03T12:02:21.289Z</time></trkpt><trkpt lat="42.4447264" lon="14.1467521"><ele>121.0</ele><time>2026-05-03T12:02:22.276Z</time></trkpt><trkpt lat="42.4448072" lon="14.1466337"><ele>122.25</ele><time>2026-05-03T12:02:23.29Z</time></trkpt><trkpt lat="42.4448926" lon="14.1464929"><ele>123.5</ele><time>2026-05-03T12:02:24.304Z</time></trkpt><trkpt lat="42.444982" lon="14.1463336"><ele>124.75</ele><time>2026-05-03T12:02:25.286Z</time></trkpt><trkpt lat="42.4450686" lon="14.1461609"><ele>126.0</ele><time>2026-05-03T12:02:26.289Z</time></trkpt><trkpt lat="42.4451577" lon="14.1460098"><ele>126.0</ele><time>2026-05-03T12:02:27.283Z</time></trkpt><trkpt lat="42.4452477" lon="14.1458517"><ele>126.0</ele><time>2026-05-03T12:02:28.288Z</time></trkpt><trkpt lat="42.4453236" lon="14.1457049"><ele>126.0</ele><time>2026-05-03T12:02:29.285Z</time></trkpt><trkpt lat="42.4454046" lon="14.1455615"><ele>126.0</ele><time>2026-05-03T12:02:30.291Z</time></trkpt><trkpt lat="42.4454911" lon="14.1454205"><ele>124.5</ele><time>2026-05-03T12:02:31.282Z</time></trkpt><trkpt lat="42.4455773" lon="14.1452811"><ele>123.0</ele><time>2026-05-03T12:02:32.287Z</time></trkpt><trkpt lat="42.4456886" lon="14.1451567"><ele>121.5</ele><time>2026-05-03T12:02:33.279Z</time></trkpt><trkpt lat="42.4458124" lon="14.1450598"><ele>120.0</ele><time>2026-05-03T12:02:34.278Z</time></trkpt><trkpt lat="42.4459426" lon="14.1449792"><ele>120.0</ele><time>2026-05-03T12:02:35.279Z</time></trkpt><trkpt lat="42.4460698" lon="14.1449008"><ele>120.0</ele><time>2026-05-03T12:02:36.282Z</time></trkpt><trkpt lat="42.446189" lon="14.1448394"><ele>120.0</ele><time>2026-05-03T12:02:37.292Z</time></trkpt><trkpt lat="42.4463052" lon="14.1447729"><ele>120.0</ele><time>2026-05-03T12:02:38.289Z</time></trkpt><trkpt lat="42.4464378" lon="14.1447097"><ele>120.25</ele><time>2026-05-03T12:02:39.283Z</time></trkpt><trkpt lat="42.446579" lon="14.1446624"><ele>120.5</ele><time>2026-05-03T12:02:40.283Z</time></trkpt><trkpt lat="42.4467235" lon="14.1446234"><ele>120.75</ele><time>2026-05-03T12:02:41.288Z</time></trkpt><trkpt lat="42.4468699" lon="14.1445944"><ele>121.0</ele><time>2026-05-03T12:02:42.291Z</time></trkpt><trkpt lat="42.4470063" lon="14.1445466"><ele>122.25</ele><time>2026-05-03T12:02:43.278Z</time></trkpt><trkpt lat="42.4471471" lon="14.1445137"><ele>123.5</ele><time>2026-05-03T12:02:44.281Z</time></trkpt><trkpt lat="42.4472749" lon="14.1444873"><ele>124.75</ele><time>2026-05-03T12:02:45.277Z</time></trkpt><trkpt lat="42.4473727" lon="14.1445169"><ele>126.0</ele><time>2026-05-03T12:02:46.284Z</time></trkpt><trkpt lat="42.4474666" lon="14.1445651"><ele>126.0</ele><time>2026-05-03T12:02:47.273Z</time></trkpt><trkpt lat="42.4475522" lon="14.1446611"><ele>126.0</ele><time>2026-05-03T12:02:48.292Z</time></trkpt><trkpt lat="42.4475928" lon="14.144795"><ele>126.0</ele><time>2026-05-03T12:02:49.283Z</time></trkpt><trkpt lat="42.4476173" lon="14.1449626"><ele>126.0</ele><time>2026-05-03T12:02:50.281Z</time></trkpt><trkpt lat="42.447623" lon="14.1451195"><ele>126.25</ele><time>2026-05-03T12:02:51.281Z</time></trkpt><trkpt lat="42.4476213" lon="14.1452741"><ele>126.5</ele><time>2026-05-03T12:02:52.287Z</time></trkpt><trkpt lat="42.4476251" lon="14.1454425"><ele>126.75</ele><time>2026-05-03T12:02:53.291Z</time></trkpt><trkpt lat="42.4476309" lon="14.1456127"><ele>127.0</ele><time>2026-05-03T12:02:54.285Z</time></trkpt><trkpt lat="42.4476471" lon="14.1457682"><ele>127.5</ele><time>2026-05-03T12:02:55.29Z</time></trkpt><trkpt lat="42.447693" lon="14.1459106"><ele>128.0</ele><time>2026-05-03T12:02:56.296Z</time></trkpt><trkpt lat="42.4477798" lon="14.1460372"><ele>128.5</ele><time>2026-05-03T12:02:57.292Z</time></trkpt><trkpt lat="42.4478868" lon="14.146145"><ele>129.0</ele><time>2026-05-03T12:02:58.289Z</time></trkpt><trkpt lat="42.4480081" lon="14.1462407"><ele>132.25</ele><time>2026-05-03T12:02:59.284Z</time></trkpt><trkpt lat="42.4481328" lon="14.1463116"><ele>135.5</ele><time>2026-05-03T12:03:00.283Z</time></trkpt><trkpt lat="42.4482638" lon="14.146377"><ele>138.75</ele><time>2026-05-03T12:03:01.289Z</time></trkpt><trkpt lat="42.4483983" lon="14.146428"><ele>142.0</ele><time>2026-05-03T12:03:02.293Z</time></trkpt><trkpt lat="42.4485479" lon="14.1464725"><ele>142.0</ele><time>2026-05-03T12:03:03.287Z</time></trkpt><trkpt lat="42.4487035" lon="14.1464652"><ele>142.0</ele><time>2026-05-03T12:03:04.281Z</time></trkpt><trkpt lat="42.4488539" lon="14.14642"><ele>142.0</ele><time>2026-05-03T12:03:05.29Z</time></trkpt><trkpt lat="42.4489968" lon="14.1463432"><ele>142.5</ele><time>2026-05-03T12:03:06.297Z</time></trkpt><trkpt lat="42.4491097" lon="14.1462403"><ele>143.0</ele><time>2026-05-03T12:03:07.289Z</time></trkpt><trkpt lat="42.4492061" lon="14.1461025"><ele>143.5</ele><time>2026-05-03T12:03:08.278Z</time></trkpt><trkpt lat="42.4493075" lon="14.1459348"><ele>144.0</ele><time>2026-05-03T12:03:09.28Z</time></trkpt><trkpt lat="42.4493988" lon="14.1457647"><ele>141.33333333333334</ele><time>2026-05-03T12:03:10.281Z</time></trkpt><trkpt lat="42.4494856" lon="14.1455783"><ele>138.66666666666669</ele><time>2026-05-03T12:03:11.278Z</time></trkpt><trkpt lat="42.4495676" lon="14.1453894"><ele>136.0</ele><time>2026-05-03T12:03:12.282Z</time></trkpt><trkpt lat="42.4496567" lon="14.1452185"><ele>136.0</ele><time>2026-05-03T12:03:13.273Z</time></trkpt><trkpt lat="42.449721" lon="14.1450548"><ele>136.0</ele><time>2026-05-03T12:03:14.286Z</time></trkpt><trkpt lat="42.4497826" lon="14.1448775"><ele>136.0</ele><time>2026-05-03T12:03:15.29Z</time></trkpt><trkpt lat="42.449835" lon="14.1447109"><ele>136.0</ele><time>2026-05-03T12:03:16.289Z</time></trkpt><trkpt lat="42.4498895" lon="14.1445293"><ele>136.5</ele><time>2026-05-03T12:03:17.293Z</time></trkpt><trkpt lat="42.4499286" lon="14.1443407"><ele>137.0</ele><time>2026-05-03T12:03:18.298Z</time></trkpt><trkpt lat="42.4499472" lon="14.1441404"><ele>137.5</ele><time>2026-05-03T12:03:19.287Z</time></trkpt><trkpt lat="42.4499674" lon="14.1439397"><ele>138.0</ele><time>2026-05-03T12:03:20.294Z</time></trkpt><trkpt lat="42.4499655" lon="14.1437352"><ele>138.0</ele><time>2026-05-03T12:03:21.294Z</time></trkpt><trkpt lat="42.449955" lon="14.1435302"><ele>138.0</ele><time>2026-05-03T12:03:22.288Z</time></trkpt><trkpt lat="42.4499327" lon="14.1433188"><ele>138.0</ele><time>2026-05-03T12:03:23.286Z</time></trkpt><trkpt lat="42.4499029" lon="14.1431251"><ele>137.75</ele><time>2026-05-03T12:03:24.285Z</time></trkpt><trkpt lat="42.4498711" lon="14.1429422"><ele>137.5</ele><time>2026-05-03T12:03:25.284Z</time></trkpt><trkpt lat="42.4498206" lon="14.1427666"><ele>137.25</ele><time>2026-05-03T12:03:26.295Z</time></trkpt><trkpt lat="42.4497492" lon="14.1425942"><ele>137.0</ele><time>2026-05-03T12:03:27.302Z</time></trkpt><trkpt lat="42.4496777" lon="14.142422"><ele>139.75</ele><time>2026-05-03T12:03:28.302Z</time></trkpt><trkpt lat="42.449618" lon="14.1422642"><ele>142.5</ele><time>2026-05-03T12:03:29.301Z</time></trkpt><trkpt lat="42.4495669" lon="14.1421176"><ele>145.25</ele><time>2026-05-03T12:03:30.295Z</time></trkpt><trkpt lat="42.4495648" lon="14.1419641"><ele>148.0</ele><time>2026-05-03T12:03:31.283Z</time></trkpt><trkpt lat="42.4495879" lon="14.1418231"><ele>147.25</ele><time>2026-05-03T12:03:32.299Z</time></trkpt><trkpt lat="42.4496465" lon="14.1417086"><ele>146.5</ele><time>2026-05-03T12:03:33.296Z</time></trkpt><trkpt lat="42.4497324" lon="14.1416021"><ele>145.75</ele><time>2026-05-03T12:03:34.289Z</time></trkpt><trkpt lat="42.4498475" lon="14.1415304"><ele>145.0</ele><time>2026-05-03T12:03:35.288Z</time></trkpt><trkpt lat="42.4499762" lon="14.1414613"><ele>145.0</ele><time>2026-05-03T12:03:36.275Z</time></trkpt><trkpt lat="42.4501095" lon="14.1413944"><ele>145.0</ele><time>2026-05-03T12:03:37.281Z</time></trkpt><trkpt lat="42.4502414" lon="14.1413268"><ele>145.0</ele><time>2026-05-03T12:03:38.278Z</time></trkpt><trkpt lat="42.4503691" lon="14.1412726"><ele>145.0</ele><time>2026-05-03T12:03:39.282Z</time></trkpt><trkpt lat="42.4504836" lon="14.1412188"><ele>146.25</ele><time>2026-05-03T12:03:40.284Z</time></trkpt><trkpt lat="42.4506061" lon="14.1411817"><ele>147.5</ele><time>2026-05-03T12:03:41.288Z</time></trkpt><trkpt lat="42.4507323" lon="14.1411558"><ele>148.75</ele><time>2026-05-03T12:03:42.286Z</time></trkpt><trkpt lat="42.450858" lon="14.1411225"><ele>150.0</ele><time>2026-05-03T12:03:43.287Z</time></trkpt><trkpt lat="42.4509912" lon="14.1410915"><ele>150.0</ele><time>2026-05-03T12:03:44.292Z</time></trkpt><trkpt lat="42.4511138" lon="14.1410494"><ele>150.0</ele><time>2026-05-03T12:03:45.292Z</time></trkpt><trkpt lat="42.4512245" lon="14.1410069"><ele>150.0</ele><time>2026-05-03T12:03:46.287Z</time></trkpt><trkpt lat="42.4513477" lon="14.1409738"><ele>150.0</ele><time>2026-05-03T12:03:47.282Z</time></trkpt><trkpt lat="42.4514676" lon="14.1409383"><ele>150.4</ele><time>2026-05-03T12:03:48.295Z</time></trkpt><trkpt lat="42.4515739" lon="14.1409038"><ele>150.8</ele><time>2026-05-03T12:03:49.287Z</time></trkpt><trkpt lat="42.4516721" lon="14.1408762"><ele>151.2</ele><time>2026-05-03T12:03:50.283Z</time></trkpt><trkpt lat="42.4517654" lon="14.1408508"><ele>151.6</ele><time>2026-05-03T12:03:51.283Z</time></trkpt><trkpt lat="42.4518705" lon="14.1408369"><ele>152.0</ele><time>2026-05-03T12:03:52.282Z</time></trkpt><trkpt lat="42.4519741" lon="14.1408166"><ele>152.0</ele><time>2026-05-03T12:03:53.282Z</time></trkpt><trkpt lat="42.4520862" lon="14.1408053"><ele>152.0</ele><time>2026-05-03T12:03:54.284Z</time></trkpt><trkpt lat="42.4521984" lon="14.1407912"><ele>152.0</ele><time>2026-05-03T12:03:55.285Z</time></trkpt><trkpt lat="42.4522996" lon="14.1407687"><ele>152.0</ele><time>2026-05-03T12:03:56.29Z</time></trkpt><trkpt lat="42.4524002" lon="14.1407572"><ele>152.0</ele><time>2026-05-03T12:03:57.297Z</time></trkpt><trkpt lat="42.4524913" lon="14.1407389"><ele>152.0</ele><time>2026-05-03T12:03:58.293Z</time></trkpt><trkpt lat="42.4525813" lon="14.1407192"><ele>152.0</ele><time>2026-05-03T12:03:59.296Z</time></trkpt><trkpt lat="42.4526668" lon="14.1406996"><ele>152.0</ele><time>2026-05-03T12:04:00.291Z</time></trkpt><trkpt lat="42.4527521" lon="14.1406727"><ele>152.0</ele><time>2026-05-03T12:04:01.287Z</time></trkpt><trkpt lat="42.4528385" lon="14.1406532"><ele>152.0</ele><time>2026-05-03T12:04:02.302Z</time></trkpt><trkpt lat="42.4529127" lon="14.1406318"><ele>152.0</ele><time>2026-05-03T12:04:03.297Z</time></trkpt><trkpt lat="42.4529894" lon="14.1405959"><ele>155.39999999999998</ele><time>2026-05-03T12:04:04.297Z</time></trkpt><trkpt lat="42.4530772" lon="14.1405396"><ele>158.79999999999998</ele><time>2026-05-03T12:04:05.299Z</time></trkpt><trkpt lat="42.4531582" lon="14.1405006"><ele>162.2</ele><time>2026-05-03T12:04:06.304Z</time></trkpt><trkpt lat="42.4532489" lon="14.1404842"><ele>165.6</ele><time>2026-05-03T12:04:07.306Z</time></trkpt><trkpt lat="42.4533562" lon="14.1404358"><ele>169.0</ele><time>2026-05-03T12:04:08.299Z</time></trkpt><trkpt lat="42.4534499" lon="14.1403812"><ele>169.0</ele><time>2026-05-03T12:04:09.292Z</time></trkpt><trkpt lat="42.4535395" lon="14.1403328"><ele>169.0</ele><time>2026-05-03T12:04:10.289Z</time></trkpt><trkpt lat="42.4536343" lon="14.1402789"><ele>169.0</ele><time>2026-05-03T12:04:11.286Z</time></trkpt><trkpt lat="42.4537323" lon="14.1402218"><ele>169.0</ele><time>2026-05-03T12:04:12.291Z</time></trkpt><trkpt lat="42.4538312" lon="14.1401504"><ele>169.0</ele><time>2026-05-03T12:04:13.284Z</time></trkpt><trkpt lat="42.4539267" lon="14.1400633"><ele>169.75</ele><time>2026-05-03T12:04:14.277Z</time></trkpt><trkpt lat="42.4540044" lon="14.1399626"><ele>170.5</ele><time>2026-05-03T12:04:15.274Z</time></trkpt><trkpt lat="42.4540653" lon="14.1398243"><ele>171.25</ele><time>2026-05-03T12:04:16.272Z</time></trkpt><trkpt lat="42.4541264" lon="14.1396816"><ele>172.0</ele><time>2026-05-03T12:04:17.267Z</time></trkpt><trkpt lat="42.4541846" lon="14.1395399"><ele>172.5</ele><time>2026-05-03T12:04:18.259Z</time></trkpt><trkpt lat="42.4542479" lon="14.1393915"><ele>173.0</ele><time>2026-05-03T12:04:19.259Z</time></trkpt><trkpt lat="42.4543027" lon="14.1392376"><ele>173.5</ele><time>2026-05-03T12:04:20.261Z</time></trkpt><trkpt lat="42.4543714" lon="14.1391"><ele>174.0</ele><time>2026-05-03T12:04:21.258Z</time></trkpt><trkpt lat="42.4544496" lon="14.1389728"><ele>173.79999999999998</ele><time>2026-05-03T12:04:22.259Z</time></trkpt><trkpt lat="42.4545263" lon="14.1388528"><ele>173.6</ele><time>2026-05-03T12:04:23.265Z</time></trkpt><trkpt lat="42.4545975" lon="14.1387414"><ele>173.4</ele><time>2026-05-03T12:04:24.266Z</time></trkpt><trkpt lat="42.4546696" lon="14.1386201"><ele>173.2</ele><time>2026-05-03T12:04:25.269Z</time></trkpt><trkpt lat="42.4547372" lon="14.1385103"><ele>173.0</ele><time>2026-05-03T12:04:26.269Z</time></trkpt><trkpt lat="42.4548065" lon="14.1384124"><ele>173.0</ele><time>2026-05-03T12:04:27.268Z</time></trkpt><trkpt lat="42.4548707" lon="14.1383231"><ele>173.0</ele><time>2026-05-03T12:04:28.267Z</time></trkpt><trkpt lat="42.4549343" lon="14.1382293"><ele>173.0</ele><time>2026-05-03T12:04:29.267Z</time></trkpt><trkpt lat="42.4549927" lon="14.1381246"><ele>173.0</ele><time>2026-05-03T12:04:30.258Z</time></trkpt><trkpt lat="42.4550533" lon="14.1379949"><ele>173.0</ele><time>2026-05-03T12:04:31.262Z</time></trkpt><trkpt lat="42.4551027" lon="14.1378513"><ele>173.0</ele><time>2026-05-03T12:04:32.251Z</time></trkpt><trkpt lat="42.4551144" lon="14.1377015"><ele>173.0</ele><time>2026-05-03T12:04:33.26Z</time></trkpt><trkpt lat="42.4551039" lon="14.1375511"><ele>173.0</ele><time>2026-05-03T12:04:34.261Z</time></trkpt><trkpt lat="42.4550859" lon="14.1374037"><ele>173.0</ele><time>2026-05-03T12:04:35.267Z</time></trkpt><trkpt lat="42.4550828" lon="14.1372586"><ele>173.0</ele><time>2026-05-03T12:04:36.267Z</time></trkpt><trkpt lat="42.4550852" lon="14.1371263"><ele>173.0</ele><time>2026-05-03T12:04:37.265Z</time></trkpt><trkpt lat="42.4550727" lon="14.1369953"><ele>173.0</ele><time>2026-05-03T12:04:38.274Z</time></trkpt><trkpt lat="42.4550591" lon="14.1368844"><ele>173.0</ele><time>2026-05-03T12:04:39.273Z</time></trkpt><trkpt lat="42.4550496" lon="14.1367688"><ele>173.0</ele><time>2026-05-03T12:04:40.27Z</time></trkpt><trkpt lat="42.4550396" lon="14.1366434"><ele>173.0</ele><time>2026-05-03T12:04:41.273Z</time></trkpt><trkpt lat="42.4550449" lon="14.1365266"><ele>173.0</ele><time>2026-05-03T12:04:42.274Z</time></trkpt><trkpt lat="42.4550538" lon="14.1364144"><ele>174.16666666666666</ele><time>2026-05-03T12:04:43.267Z</time></trkpt><trkpt lat="42.4551045" lon="14.136344"><ele>175.33333333333331</ele><time>2026-05-03T12:04:44.259Z</time></trkpt><trkpt lat="42.4551817" lon="14.1363063"><ele>176.5</ele><time>2026-05-03T12:04:45.262Z</time></trkpt><trkpt lat="42.4552734" lon="14.1362906"><ele>177.66666666666666</ele><time>2026-05-03T12:04:46.258Z</time></trkpt><trkpt lat="42.4553649" lon="14.1362745"><ele>178.83333333333334</ele><time>2026-05-03T12:04:47.26Z</time></trkpt><trkpt lat="42.4554583" lon="14.1362319"><ele>180.0</ele><time>2026-05-03T12:04:48.268Z</time></trkpt><trkpt lat="42.4555379" lon="14.1361873"><ele>180.0</ele><time>2026-05-03T12:04:49.272Z</time></trkpt><trkpt lat="42.4555999" lon="14.1361427"><ele>180.0</ele><time>2026-05-03T12:04:50.265Z</time></trkpt><trkpt lat="42.4556684" lon="14.1360999"><ele>180.0</ele><time>2026-05-03T12:04:51.256Z</time></trkpt><trkpt lat="42.4557453" lon="14.1360518"><ele>180.0</ele><time>2026-05-03T12:04:52.261Z</time></trkpt><trkpt lat="42.4558105" lon="14.1359866"><ele>180.0</ele><time>2026-05-03T12:04:53.264Z</time></trkpt><trkpt lat="42.4558981" lon="14.1359356"><ele>180.0</ele><time>2026-05-03T12:04:54.263Z</time></trkpt><trkpt lat="42.4559783" lon="14.1358637"><ele>180.0</ele><time>2026-05-03T12:04:55.261Z</time></trkpt><trkpt lat="42.4560527" lon="14.1357556"><ele>180.0</ele><time>2026-05-03T12:04:56.264Z</time></trkpt><trkpt lat="42.4561219" lon="14.1356296"><ele>180.0</ele><time>2026-05-03T12:04:57.261Z</time></trkpt><trkpt lat="42.4561756" lon="14.1354998"><ele>180.0</ele><time>2026-05-03T12:04:58.266Z</time></trkpt><trkpt lat="42.4562185" lon="14.1353663"><ele>180.0</ele><time>2026-05-03T12:04:59.277Z</time></trkpt><trkpt lat="42.4562581" lon="14.1352358"><ele>177.6</ele><time>2026-05-03T12:05:00.273Z</time></trkpt><trkpt lat="42.4562885" lon="14.1351063"><ele>175.2</ele><time>2026-05-03T12:05:01.275Z</time></trkpt><trkpt lat="42.4563264" lon="14.1349686"><ele>172.8</ele><time>2026-05-03T12:05:02.258Z</time></trkpt><trkpt lat="42.4563621" lon="14.1348313"><ele>170.4</ele><time>2026-05-03T12:05:03.268Z</time></trkpt><trkpt lat="42.4564009" lon="14.1346898"><ele>168.0</ele><time>2026-05-03T12:05:04.269Z</time></trkpt><trkpt lat="42.4564483" lon="14.1345497"><ele>168.0</ele><time>2026-05-03T12:05:05.262Z</time></trkpt><trkpt lat="42.4565019" lon="14.1343986"><ele>168.0</ele><time>2026-05-03T12:05:06.275Z</time></trkpt><trkpt lat="42.4565503" lon="14.134249"><ele>168.0</ele><time>2026-05-03T12:05:07.271Z</time></trkpt><trkpt lat="42.4565996" lon="14.1341027"><ele>168.0</ele><time>2026-05-03T12:05:08.276Z</time></trkpt><trkpt lat="42.4566545" lon="14.1339469"><ele>168.0</ele><time>2026-05-03T12:05:09.273Z</time></trkpt><trkpt lat="42.4566964" lon="14.1337923"><ele>168.0</ele><time>2026-05-03T12:05:10.28Z</time></trkpt><trkpt lat="42.4567366" lon="14.1336351"><ele>168.0</ele><time>2026-05-03T12:05:11.274Z</time></trkpt><trkpt lat="42.4567638" lon="14.1334594"><ele>168.0</ele><time>2026-05-03T12:05:12.275Z</time></trkpt><trkpt lat="42.4567903" lon="14.1332998"><ele>167.5</ele><time>2026-05-03T12:05:13.274Z</time></trkpt><trkpt lat="42.4568145" lon="14.1331559"><ele>167.0</ele><time>2026-05-03T12:05:14.274Z</time></trkpt><trkpt lat="42.4568353" lon="14.1330113"><ele>166.5</ele><time>2026-05-03T12:05:15.278Z</time></trkpt><trkpt lat="42.4568519" lon="14.1328496"><ele>166.0</ele><time>2026-05-03T12:05:16.277Z</time></trkpt><trkpt lat="42.4568708" lon="14.1326761"><ele>166.0</ele><time>2026-05-03T12:05:17.271Z</time></trkpt><trkpt lat="42.4569133" lon="14.1325067"><ele>166.0</ele><time>2026-05-03T12:05:18.279Z</time></trkpt><trkpt lat="42.456964" lon="14.1323257"><ele>166.0</ele><time>2026-05-03T12:05:19.276Z</time></trkpt><trkpt lat="42.4570272" lon="14.1321382"><ele>166.0</ele><time>2026-05-03T12:05:20.274Z</time></trkpt><trkpt lat="42.4571149" lon="14.1319747"><ele>164.0</ele><time>2026-05-03T12:05:21.268Z</time></trkpt><trkpt lat="42.4571998" lon="14.1317915"><ele>162.0</ele><time>2026-05-03T12:05:22.269Z</time></trkpt><trkpt lat="42.4572845" lon="14.1316072"><ele>160.0</ele><time>2026-05-03T12:05:23.27Z</time></trkpt><trkpt lat="42.4573789" lon="14.1314468"><ele>160.0</ele><time>2026-05-03T12:05:24.265Z</time></trkpt><trkpt lat="42.4574492" lon="14.1312769"><ele>160.0</ele><time>2026-05-03T12:05:25.269Z</time></trkpt><trkpt lat="42.4575074" lon="14.1311366"><ele>160.0</ele><time>2026-05-03T12:05:26.269Z</time></trkpt><trkpt lat="42.4575512" lon="14.1309774"><ele>160.0</ele><time>2026-05-03T12:05:27.269Z</time></trkpt><trkpt lat="42.4576173" lon="14.1308214"><ele>160.25</ele><time>2026-05-03T12:05:28.275Z</time></trkpt><trkpt lat="42.4576963" lon="14.1306702"><ele>160.5</ele><time>2026-05-03T12:05:29.277Z</time></trkpt><trkpt lat="42.4577961" lon="14.1305246"><ele>160.75</ele><time>2026-05-03T12:05:30.272Z</time></trkpt><trkpt lat="42.4579043" lon="14.1304008"><ele>161.0</ele><time>2026-05-03T12:05:31.281Z</time></trkpt><trkpt lat="42.458036" lon="14.1303023"><ele>160.75</ele><time>2026-05-03T12:05:32.283Z</time></trkpt><trkpt lat="42.4581501" lon="14.130189"><ele>160.5</ele><time>2026-05-03T12:05:33.28Z</time></trkpt><trkpt lat="42.4582625" lon="14.1300723"><ele>160.25</ele><time>2026-05-03T12:05:34.281Z</time></trkpt><trkpt lat="42.4583654" lon="14.1299404"><ele>160.0</ele><time>2026-05-03T12:05:35.279Z</time></trkpt><trkpt lat="42.4584542" lon="14.1297795"><ele>160.0</ele><time>2026-05-03T12:05:36.277Z</time></trkpt><trkpt lat="42.4585441" lon="14.1296192"><ele>160.0</ele><time>2026-05-03T12:05:37.281Z</time></trkpt><trkpt lat="42.4586192" lon="14.1294455"><ele>160.0</ele><time>2026-05-03T12:05:38.267Z</time></trkpt><trkpt lat="42.4586682" lon="14.1292545"><ele>160.0</ele><time>2026-05-03T12:05:39.272Z</time></trkpt><trkpt lat="42.4587154" lon="14.1290673"><ele>158.75</ele><time>2026-05-03T12:05:40.274Z</time></trkpt><trkpt lat="42.4587375" lon="14.1288793"><ele>157.5</ele><time>2026-05-03T12:05:41.273Z</time></trkpt><trkpt lat="42.4587334" lon="14.1286818"><ele>156.25</ele><time>2026-05-03T12:05:42.266Z</time></trkpt><trkpt lat="42.4587166" lon="14.1284917"><ele>155.0</ele><time>2026-05-03T12:05:43.262Z</time></trkpt><trkpt lat="42.458669" lon="14.1283096"><ele>157.0</ele><time>2026-05-03T12:05:44.27Z</time></trkpt><trkpt lat="42.4586184" lon="14.1281203"><ele>159.0</ele><time>2026-05-03T12:05:45.274Z</time></trkpt><trkpt lat="42.458548" lon="14.1279555"><ele>161.0</ele><time>2026-05-03T12:05:46.274Z</time></trkpt><trkpt lat="42.4584729" lon="14.1277824"><ele>163.0</ele><time>2026-05-03T12:05:47.277Z</time></trkpt><trkpt lat="42.4583919" lon="14.1276049"><ele>163.0</ele><time>2026-05-03T12:05:48.278Z</time></trkpt><trkpt lat="42.4583208" lon="14.1274397"><ele>163.0</ele><time>2026-05-03T12:05:49.275Z</time></trkpt><trkpt lat="42.4582464" lon="14.127298"><ele>163.0</ele><time>2026-05-03T12:05:50.269Z</time></trkpt><trkpt lat="42.4581632" lon="14.1271678"><ele>163.0</ele><time>2026-05-03T12:05:51.269Z</time></trkpt><trkpt lat="42.4580517" lon="14.1270788"><ele>164.0</ele><time>2026-05-03T12:05:52.275Z</time></trkpt><trkpt lat="42.4579459" lon="14.1269865"><ele>165.0</ele><time>2026-05-03T12:05:53.277Z</time></trkpt><trkpt lat="42.457847" lon="14.1268632"><ele>166.0</ele><time>2026-05-03T12:05:54.264Z</time></trkpt><trkpt lat="42.4577583" lon="14.1267023"><ele>167.0</ele><time>2026-05-03T12:05:55.266Z</time></trkpt><trkpt lat="42.4576913" lon="14.1265158"><ele>167.0</ele><time>2026-05-03T12:05:56.257Z</time></trkpt><trkpt lat="42.4576344" lon="14.1263603"><ele>167.0</ele><time>2026-05-03T12:05:57.258Z</time></trkpt><trkpt lat="42.457568" lon="14.1262065"><ele>167.0</ele><time>2026-05-03T12:05:58.261Z</time></trkpt><trkpt lat="42.457495" lon="14.1260599"><ele>167.0</ele><time>2026-05-03T12:05:59.269Z</time></trkpt><trkpt lat="42.4574251" lon="14.1259257"><ele>167.0</ele><time>2026-05-03T12:06:00.266Z</time></trkpt><trkpt lat="42.4573728" lon="14.1257896"><ele>167.0</ele><time>2026-05-03T12:06:01.264Z</time></trkpt><trkpt lat="42.4573327" lon="14.125663"><ele>167.0</ele><time>2026-05-03T12:06:02.265Z</time></trkpt><trkpt lat="42.4572993" lon="14.125534"><ele>167.0</ele><time>2026-05-03T12:06:03.268Z</time></trkpt><trkpt lat="42.4572771" lon="14.1253977"><ele>167.0</ele><time>2026-05-03T12:06:04.268Z</time></trkpt><trkpt lat="42.4572577" lon="14.1252517"><ele>167.8</ele><time>2026-05-03T12:06:05.265Z</time></trkpt><trkpt lat="42.4572403" lon="14.125106"><ele>168.6</ele><time>2026-05-03T12:06:06.267Z</time></trkpt><trkpt lat="42.4572392" lon="14.124961"><ele>169.4</ele><time>2026-05-03T12:06:07.265Z</time></trkpt><trkpt lat="42.4572522" lon="14.1248172"><ele>170.20000000000002</ele><time>2026-05-03T12:06:08.266Z</time></trkpt><trkpt lat="42.4572628" lon="14.1246605"><ele>171.0</ele><time>2026-05-03T12:06:09.272Z</time></trkpt><trkpt lat="42.4572732" lon="14.1245046"><ele>171.0</ele><time>2026-05-03T12:06:10.271Z</time></trkpt><trkpt lat="42.4572956" lon="14.124348"><ele>171.0</ele><time>2026-05-03T12:06:11.271Z</time></trkpt><trkpt lat="42.4573264" lon="14.1241834"><ele>171.0</ele><time>2026-05-03T12:06:12.272Z</time></trkpt><trkpt lat="42.4573646" lon="14.1240242"><ele>171.0</ele><time>2026-05-03T12:06:13.268Z</time></trkpt><trkpt lat="42.4574113" lon="14.1238647"><ele>169.25</ele><time>2026-05-03T12:06:14.273Z</time></trkpt><trkpt lat="42.4574575" lon="14.1236943"><ele>167.5</ele><time>2026-05-03T12:06:15.274Z</time></trkpt><trkpt lat="42.457515" lon="14.1235272"><ele>165.75</ele><time>2026-05-03T12:06:16.273Z</time></trkpt><trkpt lat="42.4575727" lon="14.1233488"><ele>164.0</ele><time>2026-05-03T12:06:17.277Z</time></trkpt><trkpt lat="42.4576324" lon="14.1231676"><ele>163.5</ele><time>2026-05-03T12:06:18.278Z</time></trkpt><trkpt lat="42.4576869" lon="14.1229884"><ele>163.0</ele><time>2026-05-03T12:06:19.285Z</time></trkpt><trkpt lat="42.4577386" lon="14.1228096"><ele>162.5</ele><time>2026-05-03T12:06:20.282Z</time></trkpt><trkpt lat="42.4577934" lon="14.1226224"><ele>162.0</ele><time>2026-05-03T12:06:21.288Z</time></trkpt><trkpt lat="42.4578549" lon="14.1224504"><ele>161.5</ele><time>2026-05-03T12:06:22.286Z</time></trkpt><trkpt lat="42.4579199" lon="14.1222738"><ele>161.0</ele><time>2026-05-03T12:06:23.294Z</time></trkpt><trkpt lat="42.4580033" lon="14.1221032"><ele>160.5</ele><time>2026-05-03T12:06:24.282Z</time></trkpt><trkpt lat="42.458085" lon="14.1219438"><ele>160.0</ele><time>2026-05-03T12:06:25.286Z</time></trkpt><trkpt lat="42.4581744" lon="14.1217975"><ele>160.0</ele><time>2026-05-03T12:06:26.282Z</time></trkpt><trkpt lat="42.4582882" lon="14.1216641"><ele>160.0</ele><time>2026-05-03T12:06:27.282Z</time></trkpt><trkpt lat="42.4584127" lon="14.1215504"><ele>160.0</ele><time>2026-05-03T12:06:28.288Z</time></trkpt><trkpt lat="42.4585199" lon="14.121422"><ele>160.0</ele><time>2026-05-03T12:06:29.29Z</time></trkpt><trkpt lat="42.4586463" lon="14.1212841"><ele>160.0</ele><time>2026-05-03T12:06:30.289Z</time></trkpt><trkpt lat="42.4587639" lon="14.1211547"><ele>160.0</ele><time>2026-05-03T12:06:31.287Z</time></trkpt><trkpt lat="42.4588841" lon="14.1210297"><ele>160.0</ele><time>2026-05-03T12:06:32.288Z</time></trkpt><trkpt lat="42.4589959" lon="14.1209117"><ele>160.0</ele><time>2026-05-03T12:06:33.283Z</time></trkpt><trkpt lat="42.4591161" lon="14.1207997"><ele>159.75</ele><time>2026-05-03T12:06:34.287Z</time></trkpt><trkpt lat="42.4592284" lon="14.1206823"><ele>159.5</ele><time>2026-05-03T12:06:35.284Z</time></trkpt><trkpt lat="42.459342" lon="14.1205554"><ele>159.25</ele><time>2026-05-03T12:06:36.284Z</time></trkpt><trkpt lat="42.4594459" lon="14.1204374"><ele>159.0</ele><time>2026-05-03T12:06:37.28Z</time></trkpt><trkpt lat="42.4595449" lon="14.1203269"><ele>159.2</ele><time>2026-05-03T12:06:38.278Z</time></trkpt><trkpt lat="42.4596489" lon="14.12024"><ele>159.4</ele><time>2026-05-03T12:06:39.278Z</time></trkpt><trkpt lat="42.4597485" lon="14.1201724"><ele>159.6</ele><time>2026-05-03T12:06:40.277Z</time></trkpt><trkpt lat="42.4598456" lon="14.1201018"><ele>159.8</ele><time>2026-05-03T12:06:41.279Z</time></trkpt><trkpt lat="42.4599435" lon="14.1200522"><ele>160.0</ele><time>2026-05-03T12:06:42.269Z</time></trkpt><trkpt lat="42.4600441" lon="14.1200223"><ele>160.0</ele><time>2026-05-03T12:06:43.273Z</time></trkpt><trkpt lat="42.4601394" lon="14.1200057"><ele>160.0</ele><time>2026-05-03T12:06:44.273Z</time></trkpt><trkpt lat="42.4602362" lon="14.1199921"><ele>160.0</ele><time>2026-05-03T12:06:45.284Z</time></trkpt><trkpt lat="42.4603376" lon="14.1199974"><ele>160.0</ele><time>2026-05-03T12:06:46.27Z</time></trkpt><trkpt lat="42.4604484" lon="14.1200321"><ele>160.0</ele><time>2026-05-03T12:06:47.279Z</time></trkpt><trkpt lat="42.460565" lon="14.120097"><ele>160.5</ele><time>2026-05-03T12:06:48.274Z</time></trkpt><trkpt lat="42.4606863" lon="14.1201637"><ele>161.0</ele><time>2026-05-03T12:06:49.274Z</time></trkpt><trkpt lat="42.4608101" lon="14.1202182"><ele>161.5</ele><time>2026-05-03T12:06:50.268Z</time></trkpt><trkpt lat="42.4609448" lon="14.120259"><ele>162.0</ele><time>2026-05-03T12:06:51.272Z</time></trkpt><trkpt lat="42.4610804" lon="14.1202921"><ele>162.0</ele><time>2026-05-03T12:06:52.277Z</time></trkpt><trkpt lat="42.4611985" lon="14.1203256"><ele>162.0</ele><time>2026-05-03T12:06:53.282Z</time></trkpt><trkpt lat="42.4613299" lon="14.1203702"><ele>162.0</ele><time>2026-05-03T12:06:54.274Z</time></trkpt><trkpt lat="42.4614575" lon="14.1204247"><ele>162.0</ele><time>2026-05-03T12:06:55.268Z</time></trkpt><trkpt lat="42.4615867" lon="14.1205045"><ele>163.75</ele><time>2026-05-03T12:06:56.262Z</time></trkpt><trkpt lat="42.461708" lon="14.1206115"><ele>165.5</ele><time>2026-05-03T12:06:57.271Z</time></trkpt><trkpt lat="42.461835" lon="14.1207095"><ele>167.25</ele><time>2026-05-03T12:06:58.274Z</time></trkpt><trkpt lat="42.4619591" lon="14.1208139"><ele>169.0</ele><time>2026-05-03T12:06:59.27Z</time></trkpt><trkpt lat="42.4621076" lon="14.1209082"><ele>168.25</ele><time>2026-05-03T12:07:00.28Z</time></trkpt><trkpt lat="42.4622308" lon="14.1210086"><ele>167.5</ele><time>2026-05-03T12:07:01.27Z</time></trkpt><trkpt lat="42.4623411" lon="14.1210847"><ele>166.75</ele><time>2026-05-03T12:07:02.27Z</time></trkpt><trkpt lat="42.46244" lon="14.1211667"><ele>166.0</ele><time>2026-05-03T12:07:03.274Z</time></trkpt><trkpt lat="42.4625461" lon="14.1212495"><ele>166.0</ele><time>2026-05-03T12:07:04.274Z</time></trkpt><trkpt lat="42.4626443" lon="14.1213137"><ele>166.0</ele><time>2026-05-03T12:07:05.271Z</time></trkpt><trkpt lat="42.4627471" lon="14.121389"><ele>166.0</ele><time>2026-05-03T12:07:06.278Z</time></trkpt><trkpt lat="42.4628572" lon="14.1214762"><ele>166.0</ele><time>2026-05-03T12:07:07.279Z</time></trkpt><trkpt lat="42.4629759" lon="14.1215611"><ele>163.25</ele><time>2026-05-03T12:07:08.274Z</time></trkpt><trkpt lat="42.4631057" lon="14.1216573"><ele>160.5</ele><time>2026-05-03T12:07:09.274Z</time></trkpt><trkpt lat="42.4632449" lon="14.1217534"><ele>157.75</ele><time>2026-05-03T12:07:10.274Z</time></trkpt><trkpt lat="42.4633665" lon="14.1218409"><ele>155.0</ele><time>2026-05-03T12:07:11.276Z</time></trkpt><trkpt lat="42.4634676" lon="14.1219147"><ele>155.0</ele><time>2026-05-03T12:07:12.282Z</time></trkpt><trkpt lat="42.4635821" lon="14.1219941"><ele>155.0</ele><time>2026-05-03T12:07:13.277Z</time></trkpt><trkpt lat="42.4637073" lon="14.1221026"><ele>155.0</ele><time>2026-05-03T12:07:14.276Z</time></trkpt><trkpt lat="42.463834" lon="14.1222001"><ele>155.0</ele><time>2026-05-03T12:07:15.278Z</time></trkpt><trkpt lat="42.4639419" lon="14.1223079"><ele>153.5</ele><time>2026-05-03T12:07:16.279Z</time></trkpt><trkpt lat="42.4640395" lon="14.1224303"><ele>152.0</ele><time>2026-05-03T12:07:17.274Z</time></trkpt><trkpt lat="42.4641205" lon="14.1225787"><ele>150.5</ele><time>2026-05-03T12:07:18.282Z</time></trkpt><trkpt lat="42.4641928" lon="14.1227339"><ele>149.0</ele><time>2026-05-03T12:07:19.28Z</time></trkpt><trkpt lat="42.464263" lon="14.1228991"><ele>149.0</ele><time>2026-05-03T12:07:20.282Z</time></trkpt><trkpt lat="42.4643326" lon="14.123077"><ele>149.0</ele><time>2026-05-03T12:07:21.287Z</time></trkpt><trkpt lat="42.4643637" lon="14.1232566"><ele>149.0</ele><time>2026-05-03T12:07:22.285Z</time></trkpt><trkpt lat="42.4643959" lon="14.1234364"><ele>149.0</ele><time>2026-05-03T12:07:23.292Z</time></trkpt><trkpt lat="42.464444" lon="14.1236141"><ele>149.0</ele><time>2026-05-03T12:07:24.283Z</time></trkpt><trkpt lat="42.4644769" lon="14.1237867"><ele>149.0</ele><time>2026-05-03T12:07:25.294Z</time></trkpt><trkpt lat="42.4645333" lon="14.1239541"><ele>149.0</ele><time>2026-05-03T12:07:26.285Z</time></trkpt><trkpt lat="42.4645944" lon="14.1241168"><ele>149.0</ele><time>2026-05-03T12:07:27.283Z</time></trkpt><trkpt lat="42.4646863" lon="14.1242559"><ele>147.0</ele><time>2026-05-03T12:07:28.288Z</time></trkpt><trkpt lat="42.4647824" lon="14.1243797"><ele>145.0</ele><time>2026-05-03T12:07:29.286Z</time></trkpt><trkpt lat="42.4648817" lon="14.1245076"><ele>143.0</ele><time>2026-05-03T12:07:30.289Z</time></trkpt><trkpt lat="42.4649884" lon="14.1246374"><ele>141.0</ele><time>2026-05-03T12:07:31.283Z</time></trkpt><trkpt lat="42.4650986" lon="14.1247699"><ele>142.75</ele><time>2026-05-03T12:07:32.282Z</time></trkpt><trkpt lat="42.4651873" lon="14.1249092"><ele>144.5</ele><time>2026-05-03T12:07:33.283Z</time></trkpt><trkpt lat="42.4652463" lon="14.1250668"><ele>146.25</ele><time>2026-05-03T12:07:34.283Z</time></trkpt><trkpt lat="42.4653168" lon="14.1252222"><ele>148.0</ele><time>2026-05-03T12:07:35.282Z</time></trkpt><trkpt lat="42.465403" lon="14.1253838"><ele>146.75</ele><time>2026-05-03T12:07:36.276Z</time></trkpt><trkpt lat="42.4654812" lon="14.1255086"><ele>145.5</ele><time>2026-05-03T12:07:37.283Z</time></trkpt><trkpt lat="42.4655732" lon="14.1256308"><ele>144.25</ele><time>2026-05-03T12:07:38.278Z</time></trkpt><trkpt lat="42.4656652" lon="14.1257372"><ele>143.0</ele><time>2026-05-03T12:07:39.28Z</time></trkpt><trkpt lat="42.4657719" lon="14.1258466"><ele>143.0</ele><time>2026-05-03T12:07:40.285Z</time></trkpt><trkpt lat="42.4658779" lon="14.1259502"><ele>143.0</ele><time>2026-05-03T12:07:41.279Z</time></trkpt><trkpt lat="42.4659912" lon="14.1260367"><ele>143.0</ele><time>2026-05-03T12:07:42.273Z</time></trkpt><trkpt lat="42.4661033" lon="14.1260964"><ele>143.0</ele><time>2026-05-03T12:07:43.275Z</time></trkpt><trkpt lat="42.466225" lon="14.126133"><ele>140.75</ele><time>2026-05-03T12:07:44.274Z</time></trkpt><trkpt lat="42.4663628" lon="14.1261554"><ele>138.5</ele><time>2026-05-03T12:07:45.277Z</time></trkpt><trkpt lat="42.4665016" lon="14.1261753"><ele>136.25</ele><time>2026-05-03T12:07:46.282Z</time></trkpt><trkpt lat="42.4666283" lon="14.1262059"><ele>134.0</ele><time>2026-05-03T12:07:47.281Z</time></trkpt><trkpt lat="42.4667484" lon="14.1262536"><ele>134.0</ele><time>2026-05-03T12:07:48.283Z</time></trkpt><trkpt lat="42.4668436" lon="14.1263588"><ele>134.0</ele><time>2026-05-03T12:07:49.28Z</time></trkpt><trkpt lat="42.4669296" lon="14.1265098"><ele>134.0</ele><time>2026-05-03T12:07:50.277Z</time></trkpt><trkpt lat="42.467005" lon="14.1266754"><ele>134.0</ele><time>2026-05-03T12:07:51.271Z</time></trkpt><trkpt lat="42.4670887" lon="14.1268514"><ele>134.25</ele><time>2026-05-03T12:07:52.274Z</time></trkpt><trkpt lat="42.4671732" lon="14.1270168"><ele>134.5</ele><time>2026-05-03T12:07:53.281Z</time></trkpt><trkpt lat="42.4672454" lon="14.1271842"><ele>134.75</ele><time>2026-05-03T12:07:54.281Z</time></trkpt><trkpt lat="42.467332" lon="14.1273542"><ele>135.0</ele><time>2026-05-03T12:07:55.279Z</time></trkpt><trkpt lat="42.4674075" lon="14.12753"><ele>137.5</ele><time>2026-05-03T12:07:56.288Z</time></trkpt><trkpt lat="42.4674747" lon="14.1276972"><ele>140.0</ele><time>2026-05-03T12:07:57.284Z</time></trkpt><trkpt lat="42.4675346" lon="14.1278668"><ele>142.5</ele><time>2026-05-03T12:07:58.282Z</time></trkpt><trkpt lat="42.4675748" lon="14.1280432"><ele>145.0</ele><time>2026-05-03T12:07:59.282Z</time></trkpt><trkpt lat="42.4676104" lon="14.1282089"><ele>145.5</ele><time>2026-05-03T12:08:00.285Z</time></trkpt><trkpt lat="42.4676535" lon="14.1283586"><ele>146.0</ele><time>2026-05-03T12:08:01.281Z</time></trkpt><trkpt lat="42.4677182" lon="14.1285155"><ele>146.5</ele><time>2026-05-03T12:08:02.271Z</time></trkpt><trkpt lat="42.4677997" lon="14.1286469"><ele>147.0</ele><time>2026-05-03T12:08:03.266Z</time></trkpt><trkpt lat="42.4678916" lon="14.1287639"><ele>149.5</ele><time>2026-05-03T12:08:04.28Z</time></trkpt><trkpt lat="42.4680238" lon="14.1288307"><ele>152.0</ele><time>2026-05-03T12:08:05.267Z</time></trkpt><trkpt lat="42.4681567" lon="14.1288735"><ele>154.5</ele><time>2026-05-03T12:08:06.271Z</time></trkpt><trkpt lat="42.4683025" lon="14.1289072"><ele>157.0</ele><time>2026-05-03T12:08:07.273Z</time></trkpt><trkpt lat="42.4684698" lon="14.1289581"><ele>157.0</ele><time>2026-05-03T12:08:08.279Z</time></trkpt><trkpt lat="42.4686364" lon="14.1290101"><ele>157.0</ele><time>2026-05-03T12:08:09.276Z</time></trkpt><trkpt lat="42.4687934" lon="14.1290575"><ele>157.0</ele><time>2026-05-03T12:08:10.277Z</time></trkpt><trkpt lat="42.4689367" lon="14.1291019"><ele>155.25</ele><time>2026-05-03T12:08:11.278Z</time></trkpt><trkpt lat="42.469057" lon="14.1291531"><ele>153.5</ele><time>2026-05-03T12:08:12.28Z</time></trkpt><trkpt lat="42.4691634" lon="14.1291934"><ele>151.75</ele><time>2026-05-03T12:08:13.281Z</time></trkpt><trkpt lat="42.4692619" lon="14.1292529"><ele>150.0</ele><time>2026-05-03T12:08:14.282Z</time></trkpt><trkpt lat="42.4693699" lon="14.1293187"><ele>150.0</ele><time>2026-05-03T12:08:15.274Z</time></trkpt><trkpt lat="42.4694723" lon="14.1294051"><ele>150.0</ele><time>2026-05-03T12:08:16.276Z</time></trkpt><trkpt lat="42.469576" lon="14.1295074"><ele>150.0</ele><time>2026-05-03T12:08:17.273Z</time></trkpt><trkpt lat="42.4696854" lon="14.1296235"><ele>150.0</ele><time>2026-05-03T12:08:18.286Z</time></trkpt><trkpt lat="42.4698006" lon="14.1297526"><ele>150.0</ele><time>2026-05-03T12:08:19.277Z</time></trkpt><trkpt lat="42.4699193" lon="14.1299002"><ele>150.0</ele><time>2026-05-03T12:08:20.277Z</time></trkpt><trkpt lat="42.4700464" lon="14.130047"><ele>150.0</ele><time>2026-05-03T12:08:21.281Z</time></trkpt><trkpt lat="42.4701711" lon="14.1302089"><ele>150.0</ele><time>2026-05-03T12:08:22.282Z</time></trkpt><trkpt lat="42.4702973" lon="14.1303562"><ele>150.0</ele><time>2026-05-03T12:08:23.288Z</time></trkpt><trkpt lat="42.4704209" lon="14.1304921"><ele>150.0</ele><time>2026-05-03T12:08:24.285Z</time></trkpt><trkpt lat="42.4705356" lon="14.1306275"><ele>148.5</ele><time>2026-05-03T12:08:25.289Z</time></trkpt><trkpt lat="42.4706468" lon="14.1307547"><ele>147.0</ele><time>2026-05-03T12:08:26.285Z</time></trkpt><trkpt lat="42.4707537" lon="14.1308696"><ele>145.5</ele><time>2026-05-03T12:08:27.292Z</time></trkpt><trkpt lat="42.4708464" lon="14.1309882"><ele>144.0</ele><time>2026-05-03T12:08:28.286Z</time></trkpt><trkpt lat="42.4709399" lon="14.1311143"><ele>144.0</ele><time>2026-05-03T12:08:29.285Z</time></trkpt><trkpt lat="42.4710374" lon="14.1312342"><ele>144.0</ele><time>2026-05-03T12:08:30.288Z</time></trkpt><trkpt lat="42.4711392" lon="14.1313638"><ele>144.0</ele><time>2026-05-03T12:08:31.284Z</time></trkpt><trkpt lat="42.4712453" lon="14.131496"><ele>144.0</ele><time>2026-05-03T12:08:32.287Z</time></trkpt><trkpt lat="42.4713418" lon="14.1316221"><ele>143.5</ele><time>2026-05-03T12:08:33.283Z</time></trkpt><trkpt lat="42.4714353" lon="14.1317641"><ele>143.0</ele><time>2026-05-03T12:08:34.279Z</time></trkpt><trkpt lat="42.4715119" lon="14.1319094"><ele>142.5</ele><time>2026-05-03T12:08:35.278Z</time></trkpt><trkpt lat="42.4715682" lon="14.1320898"><ele>142.0</ele><time>2026-05-03T12:08:36.286Z</time></trkpt><trkpt lat="42.4715682" lon="14.132294"><ele>144.0</ele><time>2026-05-03T12:08:37.273Z</time></trkpt><trkpt lat="42.4715754" lon="14.1325022"><ele>146.0</ele><time>2026-05-03T12:08:38.278Z</time></trkpt><trkpt lat="42.4715793" lon="14.1327217"><ele>148.0</ele><time>2026-05-03T12:08:39.278Z</time></trkpt><trkpt lat="42.4716245" lon="14.1329359"><ele>148.0</ele><time>2026-05-03T12:08:40.278Z</time></trkpt><trkpt lat="42.4716977" lon="14.1331203"><ele>148.0</ele><time>2026-05-03T12:08:41.27Z</time></trkpt><trkpt lat="42.4717741" lon="14.1332644"><ele>148.0</ele><time>2026-05-03T12:08:42.285Z</time></trkpt><trkpt lat="42.4718912" lon="14.133334"><ele>148.0</ele><time>2026-05-03T12:08:43.282Z</time></trkpt><trkpt lat="42.4720144" lon="14.1333653"><ele>150.5</ele><time>2026-05-03T12:08:44.27Z</time></trkpt><trkpt lat="42.4721551" lon="14.1333744"><ele>153.0</ele><time>2026-05-03T12:08:45.286Z</time></trkpt><trkpt lat="42.4722845" lon="14.1333641"><ele>155.5</ele><time>2026-05-03T12:08:46.277Z</time></trkpt><trkpt lat="42.472421" lon="14.133372"><ele>158.0</ele><time>2026-05-03T12:08:47.27Z</time></trkpt><trkpt lat="42.472543" lon="14.1334217"><ele>158.0</ele><time>2026-05-03T12:08:48.283Z</time></trkpt><trkpt lat="42.4726541" lon="14.1335274"><ele>158.0</ele><time>2026-05-03T12:08:49.268Z</time></trkpt><trkpt lat="42.4727621" lon="14.1336575"><ele>158.0</ele><time>2026-05-03T12:08:50.275Z</time></trkpt><trkpt lat="42.4728635" lon="14.1338055"><ele>158.0</ele><time>2026-05-03T12:08:51.276Z</time></trkpt><trkpt lat="42.4729687" lon="14.1339055"><ele>160.0</ele><time>2026-05-03T12:08:52.274Z</time></trkpt><trkpt lat="42.4730926" lon="14.1339901"><ele>162.0</ele><time>2026-05-03T12:08:53.276Z</time></trkpt><trkpt lat="42.4732139" lon="14.134073"><ele>164.0</ele><time>2026-05-03T12:08:54.276Z</time></trkpt><trkpt lat="42.4733292" lon="14.1341744"><ele>166.0</ele><time>2026-05-03T12:08:55.273Z</time></trkpt><trkpt lat="42.4734337" lon="14.13428"><ele>166.0</ele><time>2026-05-03T12:08:56.278Z</time></trkpt><trkpt lat="42.4735174" lon="14.134416"><ele>166.0</ele><time>2026-05-03T12:08:57.274Z</time></trkpt><trkpt lat="42.4735854" lon="14.1345429"><ele>166.0</ele><time>2026-05-03T12:08:58.282Z</time></trkpt><trkpt lat="42.4736146" lon="14.134686"><ele>166.0</ele><time>2026-05-03T12:08:59.28Z</time></trkpt><trkpt lat="42.4736317" lon="14.1348311"><ele>164.4</ele><time>2026-05-03T12:09:00.284Z</time></trkpt><trkpt lat="42.4736297" lon="14.1349691"><ele>162.8</ele><time>2026-05-03T12:09:01.279Z</time></trkpt><trkpt lat="42.4736587" lon="14.1351066"><ele>161.20000000000002</ele><time>2026-05-03T12:09:02.277Z</time></trkpt><trkpt lat="42.4736898" lon="14.1352317"><ele>159.60000000000002</ele><time>2026-05-03T12:09:03.276Z</time></trkpt><trkpt lat="42.4737338" lon="14.1353491"><ele>158.0</ele><time>2026-05-03T12:09:04.273Z</time></trkpt><trkpt lat="42.4737996" lon="14.1354509"><ele>163.75</ele><time>2026-05-03T12:09:05.268Z</time></trkpt><trkpt lat="42.4738792" lon="14.1355291"><ele>169.5</ele><time>2026-05-03T12:09:06.277Z</time></trkpt><trkpt lat="42.4739829" lon="14.1355867"><ele>175.25</ele><time>2026-05-03T12:09:07.266Z</time></trkpt><trkpt lat="42.4740998" lon="14.1356325"><ele>181.0</ele><time>2026-05-03T12:09:08.28Z</time></trkpt><trkpt lat="42.474217" lon="14.1356803"><ele>181.5</ele><time>2026-05-03T12:09:09.279Z</time></trkpt><trkpt lat="42.474334" lon="14.1357466"><ele>182.0</ele><time>2026-05-03T12:09:10.271Z</time></trkpt><trkpt lat="42.4744483" lon="14.1358385"><ele>182.5</ele><time>2026-05-03T12:09:11.27Z</time></trkpt><trkpt lat="42.4745589" lon="14.1359442"><ele>183.0</ele><time>2026-05-03T12:09:12.273Z</time></trkpt><trkpt lat="42.474666" lon="14.1360513"><ele>183.0</ele><time>2026-05-03T12:09:13.273Z</time></trkpt><trkpt lat="42.4747701" lon="14.1361451"><ele>183.0</ele><time>2026-05-03T12:09:14.268Z</time></trkpt><trkpt lat="42.4748761" lon="14.1362066"><ele>183.0</ele><time>2026-05-03T12:09:15.28Z</time></trkpt><trkpt lat="42.475006" lon="14.1362196"><ele>183.0</ele><time>2026-05-03T12:09:16.272Z</time></trkpt><trkpt lat="42.4751218" lon="14.1362574"><ele>183.0</ele><time>2026-05-03T12:09:17.267Z</time></trkpt><trkpt lat="42.4752223" lon="14.1363302"><ele>183.0</ele><time>2026-05-03T12:09:18.275Z</time></trkpt><trkpt lat="42.4753051" lon="14.1364462"><ele>183.0</ele><time>2026-05-03T12:09:19.264Z</time></trkpt><trkpt lat="42.4753759" lon="14.1365877"><ele>183.0</ele><time>2026-05-03T12:09:20.264Z</time></trkpt><trkpt lat="42.4754432" lon="14.1367172"><ele>183.0</ele><time>2026-05-03T12:09:21.263Z</time></trkpt><trkpt lat="42.4755375" lon="14.1368221"><ele>183.0</ele><time>2026-05-03T12:09:22.258Z</time></trkpt><trkpt lat="42.4756611" lon="14.1368938"><ele>183.0</ele><time>2026-05-03T12:09:23.274Z</time></trkpt><trkpt lat="42.4758075" lon="14.1369733"><ele>183.0</ele><time>2026-05-03T12:09:24.27Z</time></trkpt><trkpt lat="42.4759512" lon="14.1370587"><ele>183.0</ele><time>2026-05-03T12:09:25.273Z</time></trkpt><trkpt lat="42.4760977" lon="14.1371532"><ele>183.0</ele><time>2026-05-03T12:09:26.27Z</time></trkpt><trkpt lat="42.4762391" lon="14.1372479"><ele>183.0</ele><time>2026-05-03T12:09:27.276Z</time></trkpt><trkpt lat="42.4763699" lon="14.1373351"><ele>181.66666666666666</ele><time>2026-05-03T12:09:28.277Z</time></trkpt><trkpt lat="42.4765189" lon="14.1373913"><ele>180.33333333333331</ele><time>2026-05-03T12:09:29.285Z</time></trkpt><trkpt lat="42.476669" lon="14.1374446"><ele>179.0</ele><time>2026-05-03T12:09:30.28Z</time></trkpt><trkpt lat="42.4768162" lon="14.1374792"><ele>179.0</ele><time>2026-05-03T12:09:31.277Z</time></trkpt><trkpt lat="42.4769556" lon="14.137498"><ele>179.0</ele><time>2026-05-03T12:09:32.273Z</time></trkpt><trkpt lat="42.4770938" lon="14.1374927"><ele>179.0</ele><time>2026-05-03T12:09:33.274Z</time></trkpt><trkpt lat="42.4772409" lon="14.1374832"><ele>179.0</ele><time>2026-05-03T12:09:34.269Z</time></trkpt><trkpt lat="42.4773922" lon="14.1374644"><ele>180.0</ele><time>2026-05-03T12:09:35.265Z</time></trkpt><trkpt lat="42.4775474" lon="14.1374287"><ele>181.0</ele><time>2026-05-03T12:09:36.261Z</time></trkpt><trkpt lat="42.4777033" lon="14.1373515"><ele>182.0</ele><time>2026-05-03T12:09:37.256Z</time></trkpt><trkpt lat="42.477849" lon="14.1372698"><ele>178.5</ele><time>2026-05-03T12:09:38.263Z</time></trkpt><trkpt lat="42.4779883" lon="14.137215"><ele>175.0</ele><time>2026-05-03T12:09:39.259Z</time></trkpt><trkpt lat="42.4781135" lon="14.1371813"><ele>171.5</ele><time>2026-05-03T12:09:40.261Z</time></trkpt><trkpt lat="42.4782385" lon="14.1371785"><ele>168.0</ele><time>2026-05-03T12:09:41.252Z</time></trkpt><trkpt lat="42.478369" lon="14.1372032"><ele>168.0</ele><time>2026-05-03T12:09:42.262Z</time></trkpt><trkpt lat="42.4784839" lon="14.1372423"><ele>168.0</ele><time>2026-05-03T12:09:43.271Z</time></trkpt><trkpt lat="42.4786083" lon="14.1373074"><ele>168.0</ele><time>2026-05-03T12:09:44.27Z</time></trkpt><trkpt lat="42.4787257" lon="14.1373361"><ele>168.0</ele><time>2026-05-03T12:09:45.269Z</time></trkpt><trkpt lat="42.4788529" lon="14.1373082"><ele>167.75</ele><time>2026-05-03T12:09:46.277Z</time></trkpt><trkpt lat="42.4789859" lon="14.1372351"><ele>167.5</ele><time>2026-05-03T12:09:47.263Z</time></trkpt><trkpt lat="42.479092" lon="14.1371488"><ele>167.25</ele><time>2026-05-03T12:09:48.266Z</time></trkpt><trkpt lat="42.4791993" lon="14.1370556"><ele>167.0</ele><time>2026-05-03T12:09:49.274Z</time></trkpt><trkpt lat="42.4792927" lon="14.1369439"><ele>167.0</ele><time>2026-05-03T12:09:50.263Z</time></trkpt><trkpt lat="42.4793824" lon="14.1368082"><ele>167.0</ele><time>2026-05-03T12:09:51.264Z</time></trkpt><trkpt lat="42.4794585" lon="14.1366585"><ele>167.0</ele><time>2026-05-03T12:09:52.259Z</time></trkpt><trkpt lat="42.4795168" lon="14.1365077"><ele>167.0</ele><time>2026-05-03T12:09:53.258Z</time></trkpt><trkpt lat="42.4795932" lon="14.1363812"><ele>166.5</ele><time>2026-05-03T12:09:54.258Z</time></trkpt><trkpt lat="42.4796738" lon="14.1362701"><ele>166.0</ele><time>2026-05-03T12:09:55.261Z</time></trkpt><trkpt lat="42.4797651" lon="14.1361504"><ele>165.5</ele><time>2026-05-03T12:09:56.255Z</time></trkpt><trkpt lat="42.4798528" lon="14.1360216"><ele>165.0</ele><time>2026-05-03T12:09:57.258Z</time></trkpt><trkpt lat="42.4799366" lon="14.1358785"><ele>163.0</ele><time>2026-05-03T12:09:58.261Z</time></trkpt><trkpt lat="42.47999" lon="14.1357111"><ele>161.0</ele><time>2026-05-03T12:09:59.266Z</time></trkpt><trkpt lat="42.4800174" lon="14.1355521"><ele>159.0</ele><time>2026-05-03T12:10:00.269Z</time></trkpt><trkpt lat="42.4800641" lon="14.1353967"><ele>157.0</ele><time>2026-05-03T12:10:01.26Z</time></trkpt><trkpt lat="42.4801042" lon="14.1352527"><ele>157.0</ele><time>2026-05-03T12:10:02.262Z</time></trkpt><trkpt lat="42.4801769" lon="14.1351284"><ele>157.0</ele><time>2026-05-03T12:10:03.265Z</time></trkpt><trkpt lat="42.480258" lon="14.135038"><ele>157.0</ele><time>2026-05-03T12:10:04.269Z</time></trkpt><trkpt lat="42.4803522" lon="14.1349301"><ele>157.0</ele><time>2026-05-03T12:10:05.265Z</time></trkpt><trkpt lat="42.4804508" lon="14.1348329"><ele>155.4</ele><time>2026-05-03T12:10:06.262Z</time></trkpt><trkpt lat="42.4805502" lon="14.1347667"><ele>153.79999999999998</ele><time>2026-05-03T12:10:07.264Z</time></trkpt><trkpt lat="42.4806614" lon="14.1347344"><ele>152.2</ele><time>2026-05-03T12:10:08.269Z</time></trkpt><trkpt lat="42.4807686" lon="14.1347333"><ele>150.6</ele><time>2026-05-03T12:10:09.27Z</time></trkpt><trkpt lat="42.4808722" lon="14.1347906"><ele>149.0</ele><time>2026-05-03T12:10:10.271Z</time></trkpt><trkpt lat="42.4809671" lon="14.1348852"><ele>151.25</ele><time>2026-05-03T12:10:11.268Z</time></trkpt><trkpt lat="42.4810542" lon="14.1349975"><ele>153.5</ele><time>2026-05-03T12:10:12.265Z</time></trkpt><trkpt lat="42.4811191" lon="14.1351222"><ele>155.75</ele><time>2026-05-03T12:10:13.255Z</time></trkpt><trkpt lat="42.4811816" lon="14.1352694"><ele>158.0</ele><time>2026-05-03T12:10:14.26Z</time></trkpt><trkpt lat="42.4812439" lon="14.1354261"><ele>155.25</ele><time>2026-05-03T12:10:15.265Z</time></trkpt><trkpt lat="42.4812834" lon="14.1356048"><ele>152.5</ele><time>2026-05-03T12:10:16.264Z</time></trkpt><trkpt lat="42.4813324" lon="14.1357875"><ele>149.75</ele><time>2026-05-03T12:10:17.261Z</time></trkpt><trkpt lat="42.4813929" lon="14.1359644"><ele>147.0</ele><time>2026-05-03T12:10:18.265Z</time></trkpt><trkpt lat="42.4814375" lon="14.1361416"><ele>147.0</ele><time>2026-05-03T12:10:19.258Z</time></trkpt><trkpt lat="42.4814908" lon="14.1363045"><ele>147.0</ele><time>2026-05-03T12:10:20.257Z</time></trkpt><trkpt lat="42.4815533" lon="14.1364529"><ele>147.0</ele><time>2026-05-03T12:10:21.257Z</time></trkpt><trkpt lat="42.48164" lon="14.1365516"><ele>147.0</ele><time>2026-05-03T12:10:22.264Z</time></trkpt><trkpt lat="42.4817449" lon="14.1365734"><ele>147.0</ele><time>2026-05-03T12:10:23.271Z</time></trkpt><trkpt lat="42.4818696" lon="14.1365506"><ele>147.0</ele><time>2026-05-03T12:10:24.255Z</time></trkpt><trkpt lat="42.4819619" lon="14.1365009"><ele>147.0</ele><time>2026-05-03T12:10:25.267Z</time></trkpt><trkpt lat="42.4820433" lon="14.136416"><ele>147.0</ele><time>2026-05-03T12:10:26.259Z</time></trkpt><trkpt lat="42.4821287" lon="14.1363025"><ele>147.0</ele><time>2026-05-03T12:10:27.269Z</time></trkpt><trkpt lat="42.4821844" lon="14.1361351"><ele>145.33333333333334</ele><time>2026-05-03T12:10:28.256Z</time></trkpt><trkpt lat="42.4822235" lon="14.1359437"><ele>143.66666666666669</ele><time>2026-05-03T12:10:29.267Z</time></trkpt><trkpt lat="42.4822622" lon="14.1357343"><ele>142.0</ele><time>2026-05-03T12:10:30.264Z</time></trkpt><trkpt lat="42.4823049" lon="14.1354949"><ele>141.0</ele><time>2026-05-03T12:10:31.279Z</time></trkpt><trkpt lat="42.4823513" lon="14.135277"><ele>140.0</ele><time>2026-05-03T12:10:32.281Z</time></trkpt><trkpt lat="42.4823839" lon="14.1350724"><ele>139.0</ele><time>2026-05-03T12:10:33.284Z</time></trkpt><trkpt lat="42.48242" lon="14.1348771"><ele>138.33333333333334</ele><time>2026-05-03T12:10:34.285Z</time></trkpt><trkpt lat="42.4824639" lon="14.1346713"><ele>137.66666666666666</ele><time>2026-05-03T12:10:35.283Z</time></trkpt><trkpt lat="42.4825073" lon="14.1344487"><ele>137.0</ele><time>2026-05-03T12:10:36.287Z</time></trkpt><trkpt lat="42.4825505" lon="14.1342392"><ele>136.0</ele><time>2026-05-03T12:10:37.281Z</time></trkpt><trkpt lat="42.4826078" lon="14.1340542"><ele>135.0</ele><time>2026-05-03T12:10:38.283Z</time></trkpt><trkpt lat="42.4826262" lon="14.1338655"><ele>134.0</ele><time>2026-05-03T12:10:39.288Z</time></trkpt><trkpt lat="42.4826623" lon="14.133697"><ele>133.0</ele><time>2026-05-03T12:10:40.283Z</time></trkpt><trkpt lat="42.4827029" lon="14.1335299"><ele>133.0</ele><time>2026-05-03T12:10:41.277Z</time></trkpt><trkpt lat="42.4827671" lon="14.1333767"><ele>133.0</ele><time>2026-05-03T12:10:42.277Z</time></trkpt><trkpt lat="42.482874" lon="14.1332689"><ele>133.0</ele><time>2026-05-03T12:10:43.283Z</time></trkpt><trkpt lat="42.4829894" lon="14.1331911"><ele>133.0</ele><time>2026-05-03T12:10:44.273Z</time></trkpt><trkpt lat="42.4831138" lon="14.1331219"><ele>131.66666666666669</ele><time>2026-05-03T12:10:45.272Z</time></trkpt><trkpt lat="42.4832507" lon="14.1330605"><ele>130.33333333333334</ele><time>2026-05-03T12:10:46.269Z</time></trkpt><trkpt lat="42.4834012" lon="14.1330005"><ele>129.0</ele><time>2026-05-03T12:10:47.276Z</time></trkpt><trkpt lat="42.4835569" lon="14.1329402"><ele>129.0</ele><time>2026-05-03T12:10:48.271Z</time></trkpt><trkpt lat="42.4836876" lon="14.1328796"><ele>129.0</ele><time>2026-05-03T12:10:49.283Z</time></trkpt><trkpt lat="42.4838134" lon="14.1328246"><ele>129.0</ele><time>2026-05-03T12:10:50.277Z</time></trkpt><trkpt lat="42.4839323" lon="14.1327762"><ele>129.0</ele><time>2026-05-03T12:10:51.281Z</time></trkpt><trkpt lat="42.4840499" lon="14.1327148"><ele>128.0</ele><time>2026-05-03T12:10:52.285Z</time></trkpt><trkpt lat="42.4841645" lon="14.132649"><ele>127.0</ele><time>2026-05-03T12:10:53.29Z</time></trkpt><trkpt lat="42.4842888" lon="14.1325905"><ele>126.0</ele><time>2026-05-03T12:10:54.284Z</time></trkpt><trkpt lat="42.4844076" lon="14.1325291"><ele>125.0</ele><time>2026-05-03T12:10:55.287Z</time></trkpt><trkpt lat="42.4845242" lon="14.1324663"><ele>123.75</ele><time>2026-05-03T12:10:56.285Z</time></trkpt><trkpt lat="42.4846501" lon="14.1324011"><ele>122.5</ele><time>2026-05-03T12:10:57.279Z</time></trkpt><trkpt lat="42.4847664" lon="14.1323337"><ele>121.25</ele><time>2026-05-03T12:10:58.286Z</time></trkpt><trkpt lat="42.4848793" lon="14.1322984"><ele>120.0</ele><time>2026-05-03T12:10:59.279Z</time></trkpt><trkpt lat="42.4849968" lon="14.1322774"><ele>120.0</ele><time>2026-05-03T12:11:00.282Z</time></trkpt><trkpt lat="42.4851125" lon="14.1322809"><ele>120.0</ele><time>2026-05-03T12:11:01.278Z</time></trkpt><trkpt lat="42.4852302" lon="14.1323256"><ele>120.0</ele><time>2026-05-03T12:11:02.274Z</time></trkpt><trkpt lat="42.4853413" lon="14.1323899"><ele>120.0</ele><time>2026-05-03T12:11:03.265Z</time></trkpt><trkpt lat="42.4854397" lon="14.1324704"><ele>119.5</ele><time>2026-05-03T12:11:04.267Z</time></trkpt><trkpt lat="42.485529" lon="14.132572"><ele>119.0</ele><time>2026-05-03T12:11:05.268Z</time></trkpt><trkpt lat="42.485615" lon="14.1327012"><ele>118.5</ele><time>2026-05-03T12:11:06.274Z</time></trkpt><trkpt lat="42.4857016" lon="14.1328307"><ele>118.0</ele><time>2026-05-03T12:11:07.282Z</time></trkpt><trkpt lat="42.4857957" lon="14.1329539"><ele>118.0</ele><time>2026-05-03T12:11:08.283Z</time></trkpt><trkpt lat="42.4858864" lon="14.1330724"><ele>118.0</ele><time>2026-05-03T12:11:09.28Z</time></trkpt><trkpt lat="42.4859792" lon="14.1331797"><ele>118.0</ele><time>2026-05-03T12:11:10.284Z</time></trkpt><trkpt lat="42.4860683" lon="14.1332832"><ele>118.0</ele><time>2026-05-03T12:11:11.283Z</time></trkpt><trkpt lat="42.4861646" lon="14.1333925"><ele>118.25</ele><time>2026-05-03T12:11:12.277Z</time></trkpt><trkpt lat="42.4862635" lon="14.1335064"><ele>118.5</ele><time>2026-05-03T12:11:13.284Z</time></trkpt><trkpt lat="42.486354" lon="14.1336058"><ele>118.75</ele><time>2026-05-03T12:11:14.281Z</time></trkpt><trkpt lat="42.4864394" lon="14.1337073"><ele>119.0</ele><time>2026-05-03T12:11:15.283Z</time></trkpt><trkpt lat="42.4865164" lon="14.1338019"><ele>119.0</ele><time>2026-05-03T12:11:16.274Z</time></trkpt><trkpt lat="42.4865824" lon="14.1338996"><ele>119.0</ele><time>2026-05-03T12:11:17.277Z</time></trkpt><trkpt lat="42.4866469" lon="14.1340175"><ele>119.0</ele><time>2026-05-03T12:11:18.27Z</time></trkpt><trkpt lat="42.4867004" lon="14.1341481"><ele>119.0</ele><time>2026-05-03T12:11:19.264Z</time></trkpt><trkpt lat="42.4867311" lon="14.1342994"><ele>119.0</ele><time>2026-05-03T12:11:20.278Z</time></trkpt><trkpt lat="42.4867535" lon="14.1344656"><ele>118.5</ele><time>2026-05-03T12:11:21.274Z</time></trkpt><trkpt lat="42.4867778" lon="14.1346375"><ele>118.0</ele><time>2026-05-03T12:11:22.286Z</time></trkpt><trkpt lat="42.4868029" lon="14.1348251"><ele>117.5</ele><time>2026-05-03T12:11:23.282Z</time></trkpt><trkpt lat="42.4868401" lon="14.1350198"><ele>117.0</ele><time>2026-05-03T12:11:24.285Z</time></trkpt><trkpt lat="42.486864" lon="14.1352101"><ele>117.0</ele><time>2026-05-03T12:11:25.285Z</time></trkpt><trkpt lat="42.4868961" lon="14.1354075"><ele>117.0</ele><time>2026-05-03T12:11:26.287Z</time></trkpt><trkpt lat="42.4869253" lon="14.1355981"><ele>117.0</ele><time>2026-05-03T12:11:27.29Z</time></trkpt><trkpt lat="42.4869697" lon="14.135788"><ele>117.0</ele><time>2026-05-03T12:11:28.295Z</time></trkpt><trkpt lat="42.4870214" lon="14.1359717"><ele>116.75</ele><time>2026-05-03T12:11:29.294Z</time></trkpt><trkpt lat="42.4870906" lon="14.1361504"><ele>116.5</ele><time>2026-05-03T12:11:30.29Z</time></trkpt><trkpt lat="42.4871554" lon="14.1363165"><ele>116.25</ele><time>2026-05-03T12:11:31.285Z</time></trkpt><trkpt lat="42.4872304" lon="14.1364667"><ele>116.0</ele><time>2026-05-03T12:11:32.279Z</time></trkpt><trkpt lat="42.4873012" lon="14.1366303"><ele>118.0</ele><time>2026-05-03T12:11:33.283Z</time></trkpt><trkpt lat="42.4873643" lon="14.13679"><ele>120.0</ele><time>2026-05-03T12:11:34.282Z</time></trkpt><trkpt lat="42.4874136" lon="14.1369494"><ele>122.0</ele><time>2026-05-03T12:11:35.279Z</time></trkpt><trkpt lat="42.4874671" lon="14.1371217"><ele>124.0</ele><time>2026-05-03T12:11:36.282Z</time></trkpt><trkpt lat="42.4875161" lon="14.1372851"><ele>124.0</ele><time>2026-05-03T12:11:37.281Z</time></trkpt><trkpt lat="42.4875682" lon="14.137456"><ele>124.0</ele><time>2026-05-03T12:11:38.279Z</time></trkpt><trkpt lat="42.4876198" lon="14.1376266"><ele>124.0</ele><time>2026-05-03T12:11:39.276Z</time></trkpt><trkpt lat="42.4876586" lon="14.1378011"><ele>124.0</ele><time>2026-05-03T12:11:40.273Z</time></trkpt><trkpt lat="42.4876756" lon="14.1379852"><ele>124.0</ele><time>2026-05-03T12:11:41.266Z</time></trkpt><trkpt lat="42.487665" lon="14.1381759"><ele>124.0</ele><time>2026-05-03T12:11:42.272Z</time></trkpt><trkpt lat="42.4876319" lon="14.1383584"><ele>124.0</ele><time>2026-05-03T12:11:43.271Z</time></trkpt><trkpt lat="42.4876299" lon="14.1385331"><ele>124.0</ele><time>2026-05-03T12:11:44.268Z</time></trkpt><trkpt lat="42.4876697" lon="14.1387117"><ele>124.25</ele><time>2026-05-03T12:11:45.275Z</time></trkpt><trkpt lat="42.4877338" lon="14.1388766"><ele>124.5</ele><time>2026-05-03T12:11:46.269Z</time></trkpt><trkpt lat="42.4878084" lon="14.1390375"><ele>124.75</ele><time>2026-05-03T12:11:47.271Z</time></trkpt><trkpt lat="42.4879105" lon="14.1391782"><ele>125.0</ele><time>2026-05-03T12:11:48.272Z</time></trkpt><trkpt lat="42.4880351" lon="14.1392842"><ele>127.25</ele><time>2026-05-03T12:11:49.267Z</time></trkpt><trkpt lat="42.4881668" lon="14.1393372"><ele>129.5</ele><time>2026-05-03T12:11:50.266Z</time></trkpt><trkpt lat="42.4883119" lon="14.1393538"><ele>131.75</ele><time>2026-05-03T12:11:51.275Z</time></trkpt><trkpt lat="42.4884563" lon="14.1393785"><ele>134.0</ele><time>2026-05-03T12:11:52.277Z</time></trkpt><trkpt lat="42.4886071" lon="14.1393723"><ele>134.0</ele><time>2026-05-03T12:11:53.281Z</time></trkpt><trkpt lat="42.4887288" lon="14.1393804"><ele>134.0</ele><time>2026-05-03T12:11:54.281Z</time></trkpt><trkpt lat="42.4888326" lon="14.1393812"><ele>134.0</ele><time>2026-05-03T12:11:55.281Z</time></trkpt><trkpt lat="42.4889194" lon="14.1393917"><ele>134.0</ele><time>2026-05-03T12:11:56.275Z</time></trkpt><trkpt lat="42.489001" lon="14.1394069"><ele>134.0</ele><time>2026-05-03T12:11:57.276Z</time></trkpt><trkpt lat="42.4890814" lon="14.1394438"><ele>134.5</ele><time>2026-05-03T12:11:58.277Z</time></trkpt><trkpt lat="42.4891455" lon="14.1395095"><ele>135.0</ele><time>2026-05-03T12:11:59.277Z</time></trkpt><trkpt lat="42.4892091" lon="14.1395803"><ele>135.5</ele><time>2026-05-03T12:12:00.277Z</time></trkpt><trkpt lat="42.4892716" lon="14.1396224"><ele>136.0</ele><time>2026-05-03T12:12:01.273Z</time></trkpt><trkpt lat="42.4893392" lon="14.1396254"><ele>136.5</ele><time>2026-05-03T12:12:02.284Z</time></trkpt><trkpt lat="42.4894077" lon="14.1395862"><ele>137.0</ele><time>2026-05-03T12:12:03.278Z</time></trkpt><trkpt lat="42.4894658" lon="14.1395085"><ele>137.0</ele><time>2026-05-03T12:12:04.282Z</time></trkpt><trkpt lat="42.4895422" lon="14.1394501"><ele>137.0</ele><time>2026-05-03T12:12:05.265Z</time></trkpt><trkpt lat="42.4896445" lon="14.1394388"><ele>137.0</ele><time>2026-05-03T12:12:06.276Z</time></trkpt><trkpt lat="42.4897671" lon="14.1394352"><ele>137.0</ele><time>2026-05-03T12:12:07.268Z</time></trkpt><trkpt lat="42.4898928" lon="14.1394403"><ele>137.0</ele><time>2026-05-03T12:12:08.26Z</time></trkpt><trkpt lat="42.4900297" lon="14.1394557"><ele>138.0</ele><time>2026-05-03T12:12:09.264Z</time></trkpt><trkpt lat="42.4901483" lon="14.1394619"><ele>139.0</ele><time>2026-05-03T12:12:10.271Z</time></trkpt><trkpt lat="42.4902732" lon="14.1394689"><ele>140.0</ele><time>2026-05-03T12:12:11.266Z</time></trkpt><trkpt lat="42.4903947" lon="14.139483"><ele>141.0</ele><time>2026-05-03T12:12:12.273Z</time></trkpt><trkpt lat="42.4905262" lon="14.1394946"><ele>143.0</ele><time>2026-05-03T12:12:13.274Z</time></trkpt><trkpt lat="42.4906437" lon="14.1394976"><ele>145.0</ele><time>2026-05-03T12:12:14.276Z</time></trkpt><trkpt lat="42.4907421" lon="14.1395127"><ele>147.0</ele><time>2026-05-03T12:12:15.277Z</time></trkpt><trkpt lat="42.4908179" lon="14.1395344"><ele>149.0</ele><time>2026-05-03T12:12:16.276Z</time></trkpt><trkpt lat="42.4908823" lon="14.1395818"><ele>151.0</ele><time>2026-05-03T12:12:17.257Z</time></trkpt><trkpt lat="42.4909345" lon="14.1396693"><ele>151.0</ele><time>2026-05-03T12:12:18.269Z</time></trkpt><trkpt lat="42.4909473" lon="14.1397776"><ele>151.0</ele><time>2026-05-03T12:12:19.256Z</time></trkpt><trkpt lat="42.4909453" lon="14.1399229"><ele>151.0</ele><time>2026-05-03T12:12:20.26Z</time></trkpt><trkpt lat="42.4909367" lon="14.1400747"><ele>151.0</ele><time>2026-05-03T12:12:21.253Z</time></trkpt><trkpt lat="42.4909219" lon="14.1402274"><ele>151.0</ele><time>2026-05-03T12:12:22.255Z</time></trkpt><trkpt lat="42.4909121" lon="14.1403952"><ele>151.66666666666669</ele><time>2026-05-03T12:12:23.261Z</time></trkpt><trkpt lat="42.4908985" lon="14.1405465"><ele>152.33333333333334</ele><time>2026-05-03T12:12:24.26Z</time></trkpt><trkpt lat="42.4908946" lon="14.1406763"><ele>153.0</ele><time>2026-05-03T12:12:25.249Z</time></trkpt><trkpt lat="42.4909043" lon="14.140789"><ele>153.66666666666666</ele><time>2026-05-03T12:12:26.258Z</time></trkpt><trkpt lat="42.4909471" lon="14.1408714"><ele>154.33333333333331</ele><time>2026-05-03T12:12:27.258Z</time></trkpt><trkpt lat="42.4910139" lon="14.1409032"><ele>155.0</ele><time>2026-05-03T12:12:28.269Z</time></trkpt><trkpt lat="42.491089" lon="14.1408758"><ele>155.8</ele><time>2026-05-03T12:12:29.266Z</time></trkpt><trkpt lat="42.4911551" lon="14.1408093"><ele>156.6</ele><time>2026-05-03T12:12:30.259Z</time></trkpt><trkpt lat="42.4912158" lon="14.1407183"><ele>157.4</ele><time>2026-05-03T12:12:31.257Z</time></trkpt><trkpt lat="42.4912699" lon="14.1406309"><ele>158.2</ele><time>2026-05-03T12:12:32.262Z</time></trkpt><trkpt lat="42.4913059" lon="14.1405489"><ele>159.0</ele><time>2026-05-03T12:12:33.258Z</time></trkpt><trkpt lat="42.4913726" lon="14.140409"><ele>159.4</ele><time>2026-05-03T12:12:35.256Z</time></trkpt><trkpt lat="42.4914028" lon="14.1403336"><ele>159.8</ele><time>2026-05-03T12:12:36.266Z</time></trkpt><trkpt lat="42.4915316" lon="14.1403325"><ele>160.20000000000002</ele><time>2026-05-03T12:12:38.27Z</time></trkpt><trkpt lat="42.4916004" lon="14.1404103"><ele>160.60000000000002</ele><time>2026-05-03T12:12:39.275Z</time></trkpt><trkpt lat="42.4916455" lon="14.1405386"><ele>161.0</ele><time>2026-05-03T12:12:40.261Z</time></trkpt><trkpt lat="42.4916853" lon="14.1406984"><ele>161.0</ele><time>2026-05-03T12:12:41.259Z</time></trkpt><trkpt lat="42.4917239" lon="14.1408571"><ele>161.0</ele><time>2026-05-03T12:12:42.258Z</time></trkpt><trkpt lat="42.491765" lon="14.1410253"><ele>161.0</ele><time>2026-05-03T12:12:43.265Z</time></trkpt><trkpt lat="42.491798" lon="14.1411704"><ele>161.0</ele><time>2026-05-03T12:12:44.262Z</time></trkpt><trkpt lat="42.4918088" lon="14.1413222"><ele>161.0</ele><time>2026-05-03T12:12:45.255Z</time></trkpt><trkpt lat="42.4918102" lon="14.1414811"><ele>161.0</ele><time>2026-05-03T12:12:46.259Z</time></trkpt><trkpt lat="42.491791" lon="14.1416453"><ele>161.0</ele><time>2026-05-03T12:12:47.261Z</time></trkpt><trkpt lat="42.4917419" lon="14.1418084"><ele>161.0</ele><time>2026-05-03T12:12:48.26Z</time></trkpt><trkpt lat="42.4916809" lon="14.1419499"><ele>161.0</ele><time>2026-05-03T12:12:49.255Z</time></trkpt><trkpt lat="42.4916133" lon="14.142086"><ele>161.0</ele><time>2026-05-03T12:12:50.254Z</time></trkpt><trkpt lat="42.4915693" lon="14.1422126"><ele>161.0</ele><time>2026-05-03T12:12:51.257Z</time></trkpt><trkpt lat="42.4915692" lon="14.1423382"><ele>161.0</ele><time>2026-05-03T12:12:52.254Z</time></trkpt><trkpt lat="42.491601" lon="14.1424597"><ele>161.0</ele><time>2026-05-03T12:12:53.262Z</time></trkpt><trkpt lat="42.4916709" lon="14.1425806"><ele>160.20000000000002</ele><time>2026-05-03T12:12:54.258Z</time></trkpt><trkpt lat="42.4917407" lon="14.1426908"><ele>159.4</ele><time>2026-05-03T12:12:55.258Z</time></trkpt><trkpt lat="42.491793" lon="14.1428057"><ele>158.6</ele><time>2026-05-03T12:12:56.263Z</time></trkpt><trkpt lat="42.4918215" lon="14.1429307"><ele>157.8</ele><time>2026-05-03T12:12:57.261Z</time></trkpt><trkpt lat="42.4918086" lon="14.1430497"><ele>157.0</ele><time>2026-05-03T12:12:58.267Z</time></trkpt><trkpt lat="42.491761" lon="14.1431415"><ele>156.2</ele><time>2026-05-03T12:12:59.268Z</time></trkpt><trkpt lat="42.4916858" lon="14.1432149"><ele>155.39999999999998</ele><time>2026-05-03T12:13:00.263Z</time></trkpt><trkpt lat="42.4916324" lon="14.1433118"><ele>154.60000000000002</ele><time>2026-05-03T12:13:01.274Z</time></trkpt><trkpt lat="42.4915944" lon="14.1434488"><ele>153.8</ele><time>2026-05-03T12:13:02.265Z</time></trkpt><trkpt lat="42.4915839" lon="14.1435902"><ele>153.0</ele><time>2026-05-03T12:13:03.267Z</time></trkpt><trkpt lat="42.4916195" lon="14.1437279"><ele>153.0</ele><time>2026-05-03T12:13:04.256Z</time></trkpt><trkpt lat="42.4916923" lon="14.1438665"><ele>153.0</ele><time>2026-05-03T12:13:05.252Z</time></trkpt><trkpt lat="42.4917637" lon="14.14401"><ele>153.0</ele><time>2026-05-03T12:13:06.243Z</time></trkpt><trkpt lat="42.491859" lon="14.1441435"><ele>153.0</ele><time>2026-05-03T12:13:07.235Z</time></trkpt><trkpt lat="42.491966" lon="14.1442275"><ele>146.0</ele><time>2026-05-03T12:13:08.248Z</time></trkpt><trkpt lat="42.4920932" lon="14.1442771"><ele>139.0</ele><time>2026-05-03T12:13:09.24Z</time></trkpt><trkpt lat="42.4922393" lon="14.1443162"><ele>132.0</ele><time>2026-05-03T12:13:10.246Z</time></trkpt><trkpt lat="42.4924024" lon="14.1443736"><ele>132.0</ele><time>2026-05-03T12:13:11.248Z</time></trkpt><trkpt lat="42.492528" lon="14.1444365"><ele>132.0</ele><time>2026-05-03T12:13:12.249Z</time></trkpt><trkpt lat="42.4926098" lon="14.1444881"><ele>132.0</ele><time>2026-05-03T12:13:13.25Z</time></trkpt><trkpt lat="42.4927268" lon="14.1445639"><ele>132.0</ele><time>2026-05-03T12:13:14.257Z</time></trkpt><trkpt lat="42.4928445" lon="14.1446408"><ele>133.25</ele><time>2026-05-03T12:13:15.258Z</time></trkpt><trkpt lat="42.4929361" lon="14.1447114"><ele>134.5</ele><time>2026-05-03T12:13:16.254Z</time></trkpt><trkpt lat="42.4930409" lon="14.1447982"><ele>135.75</ele><time>2026-05-03T12:13:17.256Z</time></trkpt><trkpt lat="42.4931181" lon="14.1449058"><ele>137.0</ele><time>2026-05-03T12:13:18.256Z</time></trkpt><trkpt lat="42.4931981" lon="14.1450355"><ele>137.0</ele><time>2026-05-03T12:13:19.259Z</time></trkpt><trkpt lat="42.4932851" lon="14.1451599"><ele>137.0</ele><time>2026-05-03T12:13:20.25Z</time></trkpt><trkpt lat="42.4933718" lon="14.1452584"><ele>137.0</ele><time>2026-05-03T12:13:21.246Z</time></trkpt><trkpt lat="42.4934602" lon="14.1453167"><ele>137.0</ele><time>2026-05-03T12:13:22.258Z</time></trkpt><trkpt lat="42.4935523" lon="14.1453313"><ele>137.0</ele><time>2026-05-03T12:13:23.252Z</time></trkpt><trkpt lat="42.4936604" lon="14.1453122"><ele>137.0</ele><time>2026-05-03T12:13:24.259Z</time></trkpt><trkpt lat="42.4937504" lon="14.1452582"><ele>137.0</ele><time>2026-05-03T12:13:25.253Z</time></trkpt><trkpt lat="42.4938368" lon="14.1451759"><ele>137.0</ele><time>2026-05-03T12:13:26.245Z</time></trkpt><trkpt lat="42.4939035" lon="14.1450799"><ele>137.0</ele><time>2026-05-03T12:13:27.25Z</time></trkpt><trkpt lat="42.4939568" lon="14.1449638"><ele>137.0</ele><time>2026-05-03T12:13:28.253Z</time></trkpt><trkpt lat="42.4939797" lon="14.1448258"><ele>133.2</ele><time>2026-05-03T12:13:29.248Z</time></trkpt><trkpt lat="42.4940076" lon="14.1446836"><ele>129.39999999999998</ele><time>2026-05-03T12:13:30.252Z</time></trkpt><trkpt lat="42.4940369" lon="14.144541"><ele>125.60000000000001</ele><time>2026-05-03T12:13:31.253Z</time></trkpt><trkpt lat="42.4940537" lon="14.144406"><ele>121.80000000000001</ele><time>2026-05-03T12:13:32.261Z</time></trkpt><trkpt lat="42.4940816" lon="14.1442752"><ele>118.0</ele><time>2026-05-03T12:13:33.258Z</time></trkpt><trkpt lat="42.4941272" lon="14.1441241"><ele>112.75</ele><time>2026-05-03T12:13:34.255Z</time></trkpt><trkpt lat="42.4941963" lon="14.1439948"><ele>107.5</ele><time>2026-05-03T12:13:35.253Z</time></trkpt><trkpt lat="42.4942893" lon="14.143888"><ele>102.25</ele><time>2026-05-03T12:13:36.254Z</time></trkpt><trkpt lat="42.4944083" lon="14.1438192"><ele>97.0</ele><time>2026-05-03T12:13:37.252Z</time></trkpt><trkpt lat="42.4945288" lon="14.1437685"><ele>98.75</ele><time>2026-05-03T12:13:38.251Z</time></trkpt><trkpt lat="42.4946554" lon="14.143745"><ele>100.5</ele><time>2026-05-03T12:13:39.262Z</time></trkpt><trkpt lat="42.4947794" lon="14.1437683"><ele>102.25</ele><time>2026-05-03T12:13:40.253Z</time></trkpt><trkpt lat="42.4949047" lon="14.1438017"><ele>104.0</ele><time>2026-05-03T12:13:41.266Z</time></trkpt><trkpt lat="42.495035" lon="14.1438187"><ele>104.0</ele><time>2026-05-03T12:13:42.267Z</time></trkpt><trkpt lat="42.4951671" lon="14.1438064"><ele>104.0</ele><time>2026-05-03T12:13:43.258Z</time></trkpt><trkpt lat="42.4952985" lon="14.1437718"><ele>104.0</ele><time>2026-05-03T12:13:44.267Z</time></trkpt><trkpt lat="42.4954378" lon="14.1437204"><ele>104.0</ele><time>2026-05-03T12:13:45.283Z</time></trkpt><trkpt lat="42.4955681" lon="14.1436579"><ele>106.33333333333333</ele><time>2026-05-03T12:13:46.276Z</time></trkpt><trkpt lat="42.4956961" lon="14.1435972"><ele>108.66666666666666</ele><time>2026-05-03T12:13:47.277Z</time></trkpt><trkpt lat="42.4958339" lon="14.1434998"><ele>111.0</ele><time>2026-05-03T12:13:48.266Z</time></trkpt><trkpt lat="42.495971" lon="14.1433631"><ele>111.0</ele><time>2026-05-03T12:13:49.273Z</time></trkpt><trkpt lat="42.4960921" lon="14.1432397"><ele>111.0</ele><time>2026-05-03T12:13:50.278Z</time></trkpt><trkpt lat="42.49621" lon="14.1431259"><ele>111.0</ele><time>2026-05-03T12:13:51.275Z</time></trkpt><trkpt lat="42.4963289" lon="14.143021"><ele>111.0</ele><time>2026-05-03T12:13:52.28Z</time></trkpt><trkpt lat="42.496437" lon="14.1429334"><ele>108.25</ele><time>2026-05-03T12:13:53.286Z</time></trkpt><trkpt lat="42.4965426" lon="14.1428476"><ele>105.5</ele><time>2026-05-03T12:13:54.278Z</time></trkpt><trkpt lat="42.4966565" lon="14.1427618"><ele>102.75</ele><time>2026-05-03T12:13:55.28Z</time></trkpt><trkpt lat="42.4967637" lon="14.1426693"><ele>100.0</ele><time>2026-05-03T12:13:56.283Z</time></trkpt><trkpt lat="42.4968761" lon="14.1425701"><ele>100.0</ele><time>2026-05-03T12:13:57.277Z</time></trkpt><trkpt lat="42.4969906" lon="14.1424512"><ele>100.0</ele><time>2026-05-03T12:13:58.29Z</time></trkpt><trkpt lat="42.4970808" lon="14.1423306"><ele>100.0</ele><time>2026-05-03T12:13:59.279Z</time></trkpt><trkpt lat="42.4971773" lon="14.142215"><ele>100.0</ele><time>2026-05-03T12:14:00.275Z</time></trkpt><trkpt lat="42.4972636" lon="14.1421227"><ele>97.0</ele><time>2026-05-03T12:14:01.278Z</time></trkpt><trkpt lat="42.4973464" lon="14.1420184"><ele>94.0</ele><time>2026-05-03T12:14:02.267Z</time></trkpt><trkpt lat="42.4974195" lon="14.1419486"><ele>91.0</ele><time>2026-05-03T12:14:03.275Z</time></trkpt><trkpt lat="42.4975104" lon="14.141934"><ele>88.0</ele><time>2026-05-03T12:14:04.266Z</time></trkpt><trkpt lat="42.4975948" lon="14.1419779"><ele>85.0</ele><time>2026-05-03T12:14:05.279Z</time></trkpt><trkpt lat="42.4976486" lon="14.1420665"><ele>85.0</ele><time>2026-05-03T12:14:06.271Z</time></trkpt><trkpt lat="42.4976868" lon="14.1421685"><ele>85.0</ele><time>2026-05-03T12:14:07.27Z</time></trkpt><trkpt lat="42.4976751" lon="14.1422877"><ele>85.0</ele><time>2026-05-03T12:14:08.262Z</time></trkpt><trkpt lat="42.4976156" lon="14.1424049"><ele>85.0</ele><time>2026-05-03T12:14:09.272Z</time></trkpt><trkpt lat="42.4975366" lon="14.1425383"><ele>85.0</ele><time>2026-05-03T12:14:10.265Z</time></trkpt><trkpt lat="42.4974519" lon="14.1426844"><ele>85.33333333333333</ele><time>2026-05-03T12:14:11.269Z</time></trkpt><trkpt lat="42.497352" lon="14.1428349"><ele>85.66666666666667</ele><time>2026-05-03T12:14:12.267Z</time></trkpt><trkpt lat="42.4972553" lon="14.1429854"><ele>86.0</ele><time>2026-05-03T12:14:13.272Z</time></trkpt><trkpt lat="42.4971474" lon="14.1431426"><ele>89.33333333333334</ele><time>2026-05-03T12:14:14.281Z</time></trkpt><trkpt lat="42.4970413" lon="14.143319"><ele>92.66666666666667</ele><time>2026-05-03T12:14:15.28Z</time></trkpt><trkpt lat="42.4969169" lon="14.1434955"><ele>96.0</ele><time>2026-05-03T12:14:16.267Z</time></trkpt><trkpt lat="42.4968169" lon="14.1436578"><ele>96.0</ele><time>2026-05-03T12:14:17.265Z</time></trkpt><trkpt lat="42.4967349" lon="14.1437999"><ele>96.0</ele><time>2026-05-03T12:14:18.271Z</time></trkpt><trkpt lat="42.4966438" lon="14.1439307"><ele>96.0</ele><time>2026-05-03T12:14:19.268Z</time></trkpt><trkpt lat="42.4965426" lon="14.1440548"><ele>96.0</ele><time>2026-05-03T12:14:20.265Z</time></trkpt><trkpt lat="42.4964733" lon="14.1441648"><ele>93.19999999999999</ele><time>2026-05-03T12:14:21.268Z</time></trkpt><trkpt lat="42.4964243" lon="14.1442725"><ele>90.39999999999999</ele><time>2026-05-03T12:14:22.264Z</time></trkpt><trkpt lat="42.4964085" lon="14.1444395"><ele>87.6</ele><time>2026-05-03T12:14:23.273Z</time></trkpt><trkpt lat="42.4964094" lon="14.1446"><ele>84.8</ele><time>2026-05-03T12:14:24.262Z</time></trkpt><trkpt lat="42.4964286" lon="14.144747"><ele>82.0</ele><time>2026-05-03T12:14:25.257Z</time></trkpt><trkpt lat="42.4964501" lon="14.1449076"><ele>79.0</ele><time>2026-05-03T12:14:26.266Z</time></trkpt><trkpt lat="42.4964533" lon="14.1450567"><ele>76.0</ele><time>2026-05-03T12:14:27.259Z</time></trkpt><trkpt lat="42.4964106" lon="14.1452086"><ele>73.0</ele><time>2026-05-03T12:14:28.249Z</time></trkpt><trkpt lat="42.4963425" lon="14.1453417"><ele>70.0</ele><time>2026-05-03T12:14:29.261Z</time></trkpt><trkpt lat="42.4962789" lon="14.1454675"><ele>70.4</ele><time>2026-05-03T12:14:30.256Z</time></trkpt><trkpt lat="42.4962198" lon="14.1456011"><ele>70.8</ele><time>2026-05-03T12:14:31.251Z</time></trkpt><trkpt lat="42.4961807" lon="14.1457239"><ele>71.2</ele><time>2026-05-03T12:14:32.254Z</time></trkpt><trkpt lat="42.4961803" lon="14.1458371"><ele>71.6</ele><time>2026-05-03T12:14:33.257Z</time></trkpt><trkpt lat="42.4962259" lon="14.1459279"><ele>72.0</ele><time>2026-05-03T12:14:34.26Z</time></trkpt><trkpt lat="42.496306" lon="14.146"><ele>72.0</ele><time>2026-05-03T12:14:35.245Z</time></trkpt><trkpt lat="42.4963942" lon="14.1460435"><ele>72.0</ele><time>2026-05-03T12:14:36.254Z</time></trkpt><trkpt lat="42.4965045" lon="14.1460294"><ele>72.0</ele><time>2026-05-03T12:14:37.251Z</time></trkpt><trkpt lat="42.4966184" lon="14.1459654"><ele>72.0</ele><time>2026-05-03T12:14:38.252Z</time></trkpt><trkpt lat="42.4967043" lon="14.1458776"><ele>72.0</ele><time>2026-05-03T12:14:39.259Z</time></trkpt><trkpt lat="42.4967638" lon="14.1457619"><ele>71.5</ele><time>2026-05-03T12:14:40.235Z</time></trkpt><trkpt lat="42.4967908" lon="14.1456032"><ele>71.0</ele><time>2026-05-03T12:14:41.239Z</time></trkpt><trkpt lat="42.4968024" lon="14.1454284"><ele>70.5</ele><time>2026-05-03T12:14:42.245Z</time></trkpt><trkpt lat="42.4968096" lon="14.1452586"><ele>70.0</ele><time>2026-05-03T12:14:43.245Z</time></trkpt><trkpt lat="42.4968372" lon="14.1450904"><ele>70.0</ele><time>2026-05-03T12:14:44.261Z</time></trkpt><trkpt lat="42.4968858" lon="14.1449347"><ele>70.0</ele><time>2026-05-03T12:14:45.256Z</time></trkpt><trkpt lat="42.4969539" lon="14.144781"><ele>70.0</ele><time>2026-05-03T12:14:46.256Z</time></trkpt><trkpt lat="42.497033" lon="14.1446541"><ele>70.0</ele><time>2026-05-03T12:14:47.251Z</time></trkpt><trkpt lat="42.4971211" lon="14.1445507"><ele>67.5</ele><time>2026-05-03T12:14:48.248Z</time></trkpt><trkpt lat="42.4972245" lon="14.1444744"><ele>65.0</ele><time>2026-05-03T12:14:49.252Z</time></trkpt><trkpt lat="42.4973344" lon="14.14441"><ele>62.5</ele><time>2026-05-03T12:14:50.258Z</time></trkpt><trkpt lat="42.4974619" lon="14.1443662"><ele>60.0</ele><time>2026-05-03T12:14:51.261Z</time></trkpt><trkpt lat="42.4975851" lon="14.1442836"><ele>60.0</ele><time>2026-05-03T12:14:52.263Z</time></trkpt><trkpt lat="42.4976936" lon="14.1441784"><ele>60.0</ele><time>2026-05-03T12:14:53.269Z</time></trkpt><trkpt lat="42.4977963" lon="14.1440377"><ele>60.0</ele><time>2026-05-03T12:14:54.27Z</time></trkpt><trkpt lat="42.4978967" lon="14.1439137"><ele>60.0</ele><time>2026-05-03T12:14:55.274Z</time></trkpt><trkpt lat="42.4979779" lon="14.1437841"><ele>57.75</ele><time>2026-05-03T12:14:56.276Z</time></trkpt><trkpt lat="42.4980575" lon="14.1436576"><ele>55.5</ele><time>2026-05-03T12:14:57.281Z</time></trkpt><trkpt lat="42.4981257" lon="14.1435334"><ele>53.25</ele><time>2026-05-03T12:14:58.281Z</time></trkpt><trkpt lat="42.4981837" lon="14.1434157"><ele>51.0</ele><time>2026-05-03T12:14:59.279Z</time></trkpt><trkpt lat="42.4982386" lon="14.1432868"><ele>53.599999999999994</ele><time>2026-05-03T12:15:00.28Z</time></trkpt><trkpt lat="42.4983016" lon="14.1431656"><ele>56.2</ele><time>2026-05-03T12:15:01.28Z</time></trkpt><trkpt lat="42.49836" lon="14.1430561"><ele>58.800000000000004</ele><time>2026-05-03T12:15:02.277Z</time></trkpt><trkpt lat="42.4984221" lon="14.1429531"><ele>61.400000000000006</ele><time>2026-05-03T12:15:03.284Z</time></trkpt><trkpt lat="42.498478" lon="14.1428614"><ele>64.0</ele><time>2026-05-03T12:15:04.283Z</time></trkpt><trkpt lat="42.4985315" lon="14.1427964"><ele>64.0</ele><time>2026-05-03T12:15:05.282Z</time></trkpt><trkpt lat="42.4985864" lon="14.1427425"><ele>64.0</ele><time>2026-05-03T12:15:06.283Z</time></trkpt><trkpt lat="42.4986806" lon="14.1426668"><ele>64.0</ele><time>2026-05-03T12:15:08.268Z</time></trkpt><trkpt lat="42.4987369" lon="14.1425498"><ele>64.0</ele><time>2026-05-03T12:15:11.288Z</time></trkpt><trkpt lat="42.4987509" lon="14.1424458"><ele>64.0</ele><time>2026-05-03T12:15:12.291Z</time></trkpt><trkpt lat="42.4987822" lon="14.1423132"><ele>58.75</ele><time>2026-05-03T12:15:13.282Z</time></trkpt><trkpt lat="42.4988363" lon="14.1421609"><ele>53.5</ele><time>2026-05-03T12:15:14.285Z</time></trkpt><trkpt lat="42.4989073" lon="14.1419936"><ele>48.25</ele><time>2026-05-03T12:15:15.288Z</time></trkpt><trkpt lat="42.4989791" lon="14.1418305"><ele>43.0</ele><time>2026-05-03T12:15:16.285Z</time></trkpt><trkpt lat="42.499055" lon="14.1416878"><ele>43.0</ele><time>2026-05-03T12:15:17.275Z</time></trkpt><trkpt lat="42.4991343" lon="14.1415585"><ele>43.0</ele><time>2026-05-03T12:15:18.283Z</time></trkpt><trkpt lat="42.4992163" lon="14.1414298"><ele>43.0</ele><time>2026-05-03T12:15:19.277Z</time></trkpt><trkpt lat="42.4993088" lon="14.1413003"><ele>43.0</ele><time>2026-05-03T12:15:20.276Z</time></trkpt><trkpt lat="42.4994118" lon="14.1411729"><ele>45.25</ele><time>2026-05-03T12:15:21.267Z</time></trkpt><trkpt lat="42.4995268" lon="14.1410513"><ele>47.5</ele><time>2026-05-03T12:15:22.272Z</time></trkpt><trkpt lat="42.499644" lon="14.1409476"><ele>49.75</ele><time>2026-05-03T12:15:23.278Z</time></trkpt><trkpt lat="42.4997624" lon="14.1408742"><ele>52.0</ele><time>2026-05-03T12:15:24.278Z</time></trkpt><trkpt lat="42.4998599" lon="14.1407784"><ele>48.75</ele><time>2026-05-03T12:15:25.275Z</time></trkpt><trkpt lat="42.4999588" lon="14.1406687"><ele>45.5</ele><time>2026-05-03T12:15:26.279Z</time></trkpt><trkpt lat="42.5000337" lon="14.1405548"><ele>42.25</ele><time>2026-05-03T12:15:27.276Z</time></trkpt><trkpt lat="42.5001098" lon="14.1404274"><ele>39.0</ele><time>2026-05-03T12:15:28.295Z</time></trkpt><trkpt lat="42.5001679" lon="14.1403065"><ele>39.0</ele><time>2026-05-03T12:15:29.289Z</time></trkpt><trkpt lat="42.500241" lon="14.1401776"><ele>39.0</ele><time>2026-05-03T12:15:30.293Z</time></trkpt><trkpt lat="42.500314" lon="14.1400508"><ele>39.0</ele><time>2026-05-03T12:15:31.283Z</time></trkpt><trkpt lat="42.5003862" lon="14.1399279"><ele>39.0</ele><time>2026-05-03T12:15:32.282Z</time></trkpt><trkpt lat="42.500465" lon="14.1398082"><ele>36.4</ele><time>2026-05-03T12:15:33.281Z</time></trkpt><trkpt lat="42.5005388" lon="14.139703"><ele>33.8</ele><time>2026-05-03T12:15:34.283Z</time></trkpt><trkpt lat="42.5006111" lon="14.1396004"><ele>31.200000000000003</ele><time>2026-05-03T12:15:35.275Z</time></trkpt><trkpt lat="42.50067" lon="14.1395025"><ele>28.6</ele><time>2026-05-03T12:15:36.275Z</time></trkpt><trkpt lat="42.5007262" lon="14.1393913"><ele>26.0</ele><time>2026-05-03T12:15:37.275Z</time></trkpt><trkpt lat="42.5007915" lon="14.1392653"><ele>26.0</ele><time>2026-05-03T12:15:38.278Z</time></trkpt><trkpt lat="42.5008474" lon="14.1391515"><ele>26.0</ele><time>2026-05-03T12:15:39.28Z</time></trkpt><trkpt lat="42.5008959" lon="14.1390343"><ele>26.0</ele><time>2026-05-03T12:15:40.286Z</time></trkpt><trkpt lat="42.5009468" lon="14.1389294"><ele>26.0</ele><time>2026-05-03T12:15:41.281Z</time></trkpt><trkpt lat="42.5009987" lon="14.1388173"><ele>26.0</ele><time>2026-05-03T12:15:42.286Z</time></trkpt><trkpt lat="42.5010532" lon="14.1386898"><ele>25.0</ele><time>2026-05-03T12:15:43.288Z</time></trkpt><trkpt lat="42.501107" lon="14.1385567"><ele>24.0</ele><time>2026-05-03T12:15:44.298Z</time></trkpt><trkpt lat="42.5011541" lon="14.1384384"><ele>23.0</ele><time>2026-05-03T12:15:45.309Z</time></trkpt><trkpt lat="42.5011943" lon="14.1383235"><ele>22.0</ele><time>2026-05-03T12:15:46.294Z</time></trkpt><trkpt lat="42.5012368" lon="14.1381952"><ele>21.0</ele><time>2026-05-03T12:15:47.295Z</time></trkpt><trkpt lat="42.5012712" lon="14.138044"><ele>20.0</ele><time>2026-05-03T12:15:48.296Z</time></trkpt><trkpt lat="42.5012965" lon="14.1378826"><ele>19.0</ele><time>2026-05-03T12:15:49.298Z</time></trkpt><trkpt lat="42.5013232" lon="14.1377391"><ele>18.0</ele><time>2026-05-03T12:15:50.292Z</time></trkpt><trkpt lat="42.5013575" lon="14.1376059"><ele>17.0</ele><time>2026-05-03T12:15:51.294Z</time></trkpt><trkpt lat="42.5013901" lon="14.1374623"><ele>16.0</ele><time>2026-05-03T12:15:52.296Z</time></trkpt><trkpt lat="42.5014301" lon="14.1373203"><ele>15.600000000000001</ele><time>2026-05-03T12:15:53.294Z</time></trkpt><trkpt lat="42.5014663" lon="14.13718"><ele>15.200000000000001</ele><time>2026-05-03T12:15:54.286Z</time></trkpt><trkpt lat="42.5015111" lon="14.1370408"><ele>14.799999999999999</ele><time>2026-05-03T12:15:55.298Z</time></trkpt><trkpt lat="42.5015425" lon="14.1369225"><ele>14.399999999999999</ele><time>2026-05-03T12:15:56.292Z</time></trkpt><trkpt lat="42.50157" lon="14.1368092"><ele>14.0</ele><time>2026-05-03T12:15:57.291Z</time></trkpt><trkpt lat="42.5016049" lon="14.1367041"><ele>14.000000000000002</ele><time>2026-05-03T12:15:58.303Z</time></trkpt><trkpt lat="42.501633" lon="14.1365983"><ele>14.0</ele><time>2026-05-03T12:15:59.285Z</time></trkpt><trkpt lat="42.5016608" lon="14.1364892"><ele>14.0</ele><time>2026-05-03T12:16:00.299Z</time></trkpt><trkpt lat="42.5016859" lon="14.136402"><ele>14.0</ele><time>2026-05-03T12:16:01.287Z</time></trkpt><trkpt lat="42.5017119" lon="14.1362912"><ele>14.000000000000002</ele><time>2026-05-03T12:16:02.293Z</time></trkpt><trkpt lat="42.5017343" lon="14.136181"><ele>14.0</ele><time>2026-05-03T12:16:03.284Z</time></trkpt><trkpt lat="42.5017624" lon="14.1360616"><ele>14.0</ele><time>2026-05-03T12:16:04.284Z</time></trkpt><trkpt lat="42.5017965" lon="14.1359418"><ele>13.999999999999998</ele><time>2026-05-03T12:16:05.289Z</time></trkpt><trkpt lat="42.501831" lon="14.1358279"><ele>13.999999999999998</ele><time>2026-05-03T12:16:06.288Z</time></trkpt><trkpt lat="42.5018639" lon="14.1357123"><ele>14.0</ele><time>2026-05-03T12:16:07.292Z</time></trkpt><trkpt lat="42.5018974" lon="14.1355819"><ele>14.0</ele><time>2026-05-03T12:16:08.294Z</time></trkpt><trkpt lat="42.5019229" lon="14.1354487"><ele>14.0</ele><time>2026-05-03T12:16:09.29Z</time></trkpt><trkpt lat="42.501951" lon="14.1352964"><ele>13.999999999999998</ele><time>2026-05-03T12:16:10.279Z</time></trkpt><trkpt lat="42.5019896" lon="14.1351709"><ele>13.999999999999998</ele><time>2026-05-03T12:16:11.294Z</time></trkpt><trkpt lat="42.5020258" lon="14.1350602"><ele>14.0</ele><time>2026-05-03T12:16:12.289Z</time></trkpt><trkpt lat="42.502052" lon="14.1349715"><ele>14.0</ele><time>2026-05-03T12:16:13.289Z</time></trkpt><trkpt lat="42.5020989" lon="14.1348581"><ele>14.000000000000002</ele><time>2026-05-03T12:16:15.289Z</time></trkpt><trkpt lat="42.5021521" lon="14.1347732"><ele>14.0</ele><time>2026-05-03T12:16:17.288Z</time></trkpt><trkpt lat="42.5022491" lon="14.1347297"><ele>14.0</ele><time>2026-05-03T12:16:19.28Z</time></trkpt><trkpt lat="42.5023164" lon="14.1346987"><ele>14.0</ele><time>2026-05-03T12:16:20.287Z</time></trkpt><trkpt lat="42.5023959" lon="14.1346943"><ele>14.000000000000002</ele><time>2026-05-03T12:16:21.287Z</time></trkpt><trkpt lat="42.5024759" lon="14.1347173"><ele>14.0</ele><time>2026-05-03T12:16:22.294Z</time></trkpt><trkpt lat="42.502562" lon="14.1347676"><ele>14.0</ele><time>2026-05-03T12:16:23.288Z</time></trkpt><trkpt lat="42.5026589" lon="14.1348602"><ele>14.0</ele><time>2026-05-03T12:16:24.285Z</time></trkpt><trkpt lat="42.5027531" lon="14.1349787"><ele>14.0</ele><time>2026-05-03T12:16:25.274Z</time></trkpt><trkpt lat="42.5028377" lon="14.1350878"><ele>14.0</ele><time>2026-05-03T12:16:26.277Z</time></trkpt><trkpt lat="42.5029053" lon="14.1351621"><ele>13.666666666666668</ele><time>2026-05-03T12:16:27.275Z</time></trkpt><trkpt lat="42.5029678" lon="14.1352277"><ele>13.333333333333334</ele><time>2026-05-03T12:16:28.275Z</time></trkpt><trkpt lat="42.50304" lon="14.135302"><ele>13.0</ele><time>2026-05-03T12:16:30.286Z</time></trkpt><trkpt lat="42.5031025" lon="14.1353432"><ele>12.666666666666668</ele><time>2026-05-03T12:16:33.293Z</time></trkpt><trkpt lat="42.5031817" lon="14.1352417"><ele>12.333333333333334</ele><time>2026-05-03T12:16:35.275Z</time></trkpt><trkpt lat="42.5032115" lon="14.1351493"><ele>12.0</ele><time>2026-05-03T12:16:36.288Z</time></trkpt><trkpt lat="42.5032309" lon="14.1350318"><ele>12.0</ele><time>2026-05-03T12:16:37.273Z</time></trkpt><trkpt lat="42.5032499" lon="14.1349055"><ele>12.0</ele><time>2026-05-03T12:16:38.278Z</time></trkpt><trkpt lat="42.5032869" lon="14.1347554"><ele>12.0</ele><time>2026-05-03T12:16:39.276Z</time></trkpt><trkpt lat="42.5033277" lon="14.134596"><ele>12.0</ele><time>2026-05-03T12:16:40.279Z</time></trkpt><trkpt lat="42.5033742" lon="14.1344413"><ele>12.25</ele><time>2026-05-03T12:16:41.273Z</time></trkpt><trkpt lat="42.5034112" lon="14.1342623"><ele>12.5</ele><time>2026-05-03T12:16:42.276Z</time></trkpt><trkpt lat="42.5034387" lon="14.1340908"><ele>12.75</ele><time>2026-05-03T12:16:43.267Z</time></trkpt><trkpt lat="42.5034769" lon="14.1339453"><ele>13.0</ele><time>2026-05-03T12:16:44.27Z</time></trkpt><trkpt lat="42.5035198" lon="14.1338197"><ele>13.0</ele><time>2026-05-03T12:16:45.278Z</time></trkpt><trkpt lat="42.5035787" lon="14.1336976"><ele>13.0</ele><time>2026-05-03T12:16:46.283Z</time></trkpt><trkpt lat="42.5036497" lon="14.1335798"><ele>13.0</ele><time>2026-05-03T12:16:47.271Z</time></trkpt><trkpt lat="42.5037343" lon="14.1334714"><ele>13.0</ele><time>2026-05-03T12:16:48.272Z</time></trkpt><trkpt lat="42.5038282" lon="14.1333567"><ele>13.0</ele><time>2026-05-03T12:16:49.276Z</time></trkpt><trkpt lat="42.5039281" lon="14.1332896"><ele>13.0</ele><time>2026-05-03T12:16:50.281Z</time></trkpt><trkpt lat="42.5040254" lon="14.1332166"><ele>13.0</ele><time>2026-05-03T12:16:51.283Z</time></trkpt><trkpt lat="42.5041177" lon="14.1331378"><ele>13.0</ele><time>2026-05-03T12:16:52.287Z</time></trkpt><trkpt lat="42.5042129" lon="14.1330589"><ele>13.0</ele><time>2026-05-03T12:16:53.292Z</time></trkpt><trkpt lat="42.5043191" lon="14.132971"><ele>13.0</ele><time>2026-05-03T12:16:54.284Z</time></trkpt><trkpt lat="42.5044265" lon="14.1328822"><ele>13.0</ele><time>2026-05-03T12:16:55.283Z</time></trkpt><trkpt lat="42.5045393" lon="14.1327764"><ele>13.0</ele><time>2026-05-03T12:16:56.286Z</time></trkpt><trkpt lat="42.5046536" lon="14.1326746"><ele>13.0</ele><time>2026-05-03T12:16:57.284Z</time></trkpt><trkpt lat="42.5047721" lon="14.1325729"><ele>12.0</ele><time>2026-05-03T12:16:58.287Z</time></trkpt><trkpt lat="42.5048813" lon="14.1324948"><ele>11.0</ele><time>2026-05-03T12:16:59.289Z</time></trkpt><trkpt lat="42.5049919" lon="14.1323947"><ele>10.0</ele><time>2026-05-03T12:17:00.29Z</time></trkpt><trkpt lat="42.5051051" lon="14.132289"><ele>9.0</ele><time>2026-05-03T12:17:01.288Z</time></trkpt><trkpt lat="42.5052086" lon="14.1321943"><ele>9.0</ele><time>2026-05-03T12:17:02.289Z</time></trkpt><trkpt lat="42.5052994" lon="14.132094"><ele>9.0</ele><time>2026-05-03T12:17:03.292Z</time></trkpt><trkpt lat="42.5054007" lon="14.132005"><ele>9.0</ele><time>2026-05-03T12:17:04.29Z</time></trkpt><trkpt lat="42.5054955" lon="14.1319234"><ele>9.0</ele><time>2026-05-03T12:17:05.289Z</time></trkpt><trkpt lat="42.5055863" lon="14.1318353"><ele>9.0</ele><time>2026-05-03T12:17:06.292Z</time></trkpt><trkpt lat="42.5056798" lon="14.131756"><ele>9.0</ele><time>2026-05-03T12:17:07.287Z</time></trkpt><trkpt lat="42.5057682" lon="14.1316731"><ele>9.0</ele><time>2026-05-03T12:17:08.291Z</time></trkpt><trkpt lat="42.5058511" lon="14.1315958"><ele>9.0</ele><time>2026-05-03T12:17:09.291Z</time></trkpt><trkpt lat="42.5059347" lon="14.1315146"><ele>9.0</ele><time>2026-05-03T12:17:10.294Z</time></trkpt><trkpt lat="42.5060289" lon="14.1314386"><ele>9.0</ele><time>2026-05-03T12:17:11.288Z</time></trkpt><trkpt lat="42.5061132" lon="14.1313577"><ele>9.0</ele><time>2026-05-03T12:17:12.283Z</time></trkpt><trkpt lat="42.506193" lon="14.1312702"><ele>9.0</ele><time>2026-05-03T12:17:13.304Z</time></trkpt><trkpt lat="42.5062742" lon="14.1311799"><ele>9.0</ele><time>2026-05-03T12:17:14.286Z</time></trkpt><trkpt lat="42.5063641" lon="14.1311055"><ele>9.0</ele><time>2026-05-03T12:17:15.289Z</time></trkpt><trkpt lat="42.5064603" lon="14.1310488"><ele>9.0</ele><time>2026-05-03T12:17:16.283Z</time></trkpt><trkpt lat="42.5065684" lon="14.1309961"><ele>9.0</ele><time>2026-05-03T12:17:17.299Z</time></trkpt><trkpt lat="42.506681" lon="14.1309479"><ele>9.0</ele><time>2026-05-03T12:17:18.301Z</time></trkpt><trkpt lat="42.5067979" lon="14.1308921"><ele>9.0</ele><time>2026-05-03T12:17:19.3Z</time></trkpt><trkpt lat="42.5069213" lon="14.1308356"><ele>9.0</ele><time>2026-05-03T12:17:20.289Z</time></trkpt><trkpt lat="42.5070457" lon="14.1307828"><ele>9.0</ele><time>2026-05-03T12:17:21.295Z</time></trkpt><trkpt lat="42.5071704" lon="14.1307473"><ele>9.0</ele><time>2026-05-03T12:17:22.294Z</time></trkpt><trkpt lat="42.5073036" lon="14.1307123"><ele>9.0</ele><time>2026-05-03T12:17:23.301Z</time></trkpt><trkpt lat="42.5074485" lon="14.1306776"><ele>9.75</ele><time>2026-05-03T12:17:24.298Z</time></trkpt><trkpt lat="42.5075712" lon="14.130624"><ele>10.5</ele><time>2026-05-03T12:17:25.292Z</time></trkpt><trkpt lat="42.5077018" lon="14.1305624"><ele>11.25</ele><time>2026-05-03T12:17:26.291Z</time></trkpt><trkpt lat="42.507819" lon="14.130491"><ele>12.0</ele><time>2026-05-03T12:17:27.279Z</time></trkpt><trkpt lat="42.5079224" lon="14.1304102"><ele>12.0</ele><time>2026-05-03T12:17:28.287Z</time></trkpt><trkpt lat="42.5080248" lon="14.1303259"><ele>12.0</ele><time>2026-05-03T12:17:29.287Z</time></trkpt><trkpt lat="42.5081281" lon="14.1302563"><ele>12.0</ele><time>2026-05-03T12:17:30.286Z</time></trkpt><trkpt lat="42.5082185" lon="14.1301918"><ele>12.0</ele><time>2026-05-03T12:17:31.29Z</time></trkpt><trkpt lat="42.5083124" lon="14.1301209"><ele>12.0</ele><time>2026-05-03T12:17:32.287Z</time></trkpt><trkpt lat="42.5084028" lon="14.130051"><ele>12.0</ele><time>2026-05-03T12:17:33.288Z</time></trkpt><trkpt lat="42.5084823" lon="14.1299804"><ele>12.0</ele><time>2026-05-03T12:17:34.289Z</time></trkpt><trkpt lat="42.5085572" lon="14.1299052"><ele>12.0</ele><time>2026-05-03T12:17:35.287Z</time></trkpt><trkpt lat="42.5086272" lon="14.1298507"><ele>12.0</ele><time>2026-05-03T12:17:36.289Z</time></trkpt><trkpt lat="42.5086826" lon="14.1297895"><ele>12.0</ele><time>2026-05-03T12:17:37.292Z</time></trkpt><trkpt lat="42.508742" lon="14.1297445"><ele>12.0</ele><time>2026-05-03T12:17:38.293Z</time></trkpt><trkpt lat="42.5088199" lon="14.1297258"><ele>11.0</ele><time>2026-05-03T12:17:39.282Z</time></trkpt><trkpt lat="42.5089085" lon="14.129738"><ele>10.0</ele><time>2026-05-03T12:17:40.295Z</time></trkpt><trkpt lat="42.5089963" lon="14.1297734"><ele>9.0</ele><time>2026-05-03T12:17:41.298Z</time></trkpt><trkpt lat="42.5090816" lon="14.1298404"><ele>8.0</ele><time>2026-05-03T12:17:42.29Z</time></trkpt><trkpt lat="42.5091632" lon="14.1299237"><ele>7.0</ele><time>2026-05-03T12:17:43.292Z</time></trkpt><trkpt lat="42.5092462" lon="14.130038"><ele>7.0</ele><time>2026-05-03T12:17:44.301Z</time></trkpt><trkpt lat="42.5093201" lon="14.1301403"><ele>7.0</ele><time>2026-05-03T12:17:45.302Z</time></trkpt><trkpt lat="42.5094033" lon="14.1302666"><ele>7.0</ele><time>2026-05-03T12:17:46.298Z</time></trkpt><trkpt lat="42.5094883" lon="14.1303952"><ele>7.0</ele><time>2026-05-03T12:17:47.3Z</time></trkpt><trkpt lat="42.5095722" lon="14.1305186"><ele>7.0</ele><time>2026-05-03T12:17:48.302Z</time></trkpt><trkpt lat="42.5096555" lon="14.1306444"><ele>7.0</ele><time>2026-05-03T12:17:49.299Z</time></trkpt><trkpt lat="42.5097379" lon="14.1307725"><ele>7.0</ele><time>2026-05-03T12:17:50.293Z</time></trkpt><trkpt lat="42.509818" lon="14.1308996"><ele>7.0</ele><time>2026-05-03T12:17:51.293Z</time></trkpt><trkpt lat="42.5099053" lon="14.13104"><ele>6.75</ele><time>2026-05-03T12:17:52.295Z</time></trkpt><trkpt lat="42.509986" lon="14.131177"><ele>6.5</ele><time>2026-05-03T12:17:53.299Z</time></trkpt><trkpt lat="42.5100718" lon="14.1313266"><ele>6.25</ele><time>2026-05-03T12:17:54.284Z</time></trkpt><trkpt lat="42.5101713" lon="14.1314947"><ele>6.0</ele><time>2026-05-03T12:17:55.289Z</time></trkpt><trkpt lat="42.5102589" lon="14.1316717"><ele>6.0</ele><time>2026-05-03T12:17:56.283Z</time></trkpt><trkpt lat="42.5103411" lon="14.1318375"><ele>6.0</ele><time>2026-05-03T12:17:57.293Z</time></trkpt><trkpt lat="42.5104254" lon="14.1319955"><ele>6.0</ele><time>2026-05-03T12:17:58.299Z</time></trkpt><trkpt lat="42.510496" lon="14.1321638"><ele>6.0</ele><time>2026-05-03T12:17:59.3Z</time></trkpt><trkpt lat="42.5105869" lon="14.1323365"><ele>6.0</ele><time>2026-05-03T12:18:00.297Z</time></trkpt><trkpt lat="42.5106835" lon="14.1325008"><ele>6.0</ele><time>2026-05-03T12:18:01.298Z</time></trkpt><trkpt lat="42.5107714" lon="14.1326565"><ele>6.0</ele><time>2026-05-03T12:18:02.303Z</time></trkpt><trkpt lat="42.5108658" lon="14.1328173"><ele>6.0</ele><time>2026-05-03T12:18:03.3Z</time></trkpt><trkpt lat="42.5109694" lon="14.1329805"><ele>6.0</ele><time>2026-05-03T12:18:04.303Z</time></trkpt><trkpt lat="42.5110613" lon="14.1331387"><ele>6.0</ele><time>2026-05-03T12:18:05.301Z</time></trkpt><trkpt lat="42.5111467" lon="14.1333014"><ele>6.333333333333334</ele><time>2026-05-03T12:18:06.302Z</time></trkpt><trkpt lat="42.511238" lon="14.1334504"><ele>6.666666666666667</ele><time>2026-05-03T12:18:07.301Z</time></trkpt><trkpt lat="42.5113415" lon="14.1336144"><ele>7.0</ele><time>2026-05-03T12:18:08.3Z</time></trkpt><trkpt lat="42.5114258" lon="14.1337854"><ele>6.5</ele><time>2026-05-03T12:18:09.302Z</time></trkpt><trkpt lat="42.5114902" lon="14.1339564"><ele>6.0</ele><time>2026-05-03T12:18:10.296Z</time></trkpt><trkpt lat="42.5115652" lon="14.1341243"><ele>5.5</ele><time>2026-05-03T12:18:11.296Z</time></trkpt><trkpt lat="42.5116565" lon="14.1342742"><ele>5.0</ele><time>2026-05-03T12:18:12.297Z</time></trkpt><trkpt lat="42.5117743" lon="14.1344193"><ele>5.0</ele><time>2026-05-03T12:18:13.303Z</time></trkpt><trkpt lat="42.5119005" lon="14.1345379"><ele>5.0</ele><time>2026-05-03T12:18:14.295Z</time></trkpt><trkpt lat="42.5120435" lon="14.134615"><ele>5.0</ele><time>2026-05-03T12:18:15.305Z</time></trkpt><trkpt lat="42.5121793" lon="14.1346991"><ele>4.333333333333334</ele><time>2026-05-03T12:18:16.299Z</time></trkpt><trkpt lat="42.5123173" lon="14.1348016"><ele>3.666666666666667</ele><time>2026-05-03T12:18:17.305Z</time></trkpt><trkpt lat="42.5124574" lon="14.1348907"><ele>3.0</ele><time>2026-05-03T12:18:18.303Z</time></trkpt><trkpt lat="42.5125962" lon="14.1349937"><ele>3.0</ele><time>2026-05-03T12:18:19.309Z</time></trkpt><trkpt lat="42.5127275" lon="14.1350914"><ele>3.0</ele><time>2026-05-03T12:18:20.297Z</time></trkpt><trkpt lat="42.5128575" lon="14.1351951"><ele>3.0</ele><time>2026-05-03T12:18:21.299Z</time></trkpt><trkpt lat="42.5129647" lon="14.1353182"><ele>3.0</ele><time>2026-05-03T12:18:22.286Z</time></trkpt><trkpt lat="42.5130632" lon="14.135472"><ele>3.0</ele><time>2026-05-03T12:18:23.293Z</time></trkpt><trkpt lat="42.5131587" lon="14.1356488"><ele>3.0</ele><time>2026-05-03T12:18:24.289Z</time></trkpt><trkpt lat="42.5132359" lon="14.1358285"><ele>3.0</ele><time>2026-05-03T12:18:25.295Z</time></trkpt><trkpt lat="42.5133026" lon="14.1359948"><ele>3.0</ele><time>2026-05-03T12:18:26.293Z</time></trkpt><trkpt lat="42.5133455" lon="14.1361803"><ele>3.0</ele><time>2026-05-03T12:18:27.287Z</time></trkpt><trkpt lat="42.5133815" lon="14.1363599"><ele>3.0</ele><time>2026-05-03T12:18:28.302Z</time></trkpt><trkpt lat="42.5134135" lon="14.1365463"><ele>3.0</ele><time>2026-05-03T12:18:29.302Z</time></trkpt><trkpt lat="42.5134574" lon="14.1367072"><ele>3.2</ele><time>2026-05-03T12:18:30.308Z</time></trkpt><trkpt lat="42.5135001" lon="14.1368542"><ele>3.4</ele><time>2026-05-03T12:18:31.304Z</time></trkpt><trkpt lat="42.5135451" lon="14.1369867"><ele>3.6000000000000005</ele><time>2026-05-03T12:18:32.297Z</time></trkpt><trkpt lat="42.5135834" lon="14.1371047"><ele>3.8000000000000003</ele><time>2026-05-03T12:18:33.298Z</time></trkpt><trkpt lat="42.5136252" lon="14.1372175"><ele>4.0</ele><time>2026-05-03T12:18:34.299Z</time></trkpt><trkpt lat="42.5136657" lon="14.1373054"><ele>3.9999999999999996</ele><time>2026-05-03T12:18:35.281Z</time></trkpt><trkpt lat="42.5136906" lon="14.137385"><ele>4.0</ele><time>2026-05-03T12:18:36.288Z</time></trkpt><trkpt lat="42.5137317" lon="14.1375176"><ele>4.0</ele><time>2026-05-03T12:18:38.293Z</time></trkpt><trkpt lat="42.5137471" lon="14.1376798"><ele>4.0</ele><time>2026-05-03T12:18:40.297Z</time></trkpt><trkpt lat="42.5137476" lon="14.1377765"><ele>3.9999999999999996</ele><time>2026-05-03T12:18:41.297Z</time></trkpt><trkpt lat="42.5137377" lon="14.1378659"><ele>4.0</ele><time>2026-05-03T12:18:42.3Z</time></trkpt><trkpt lat="42.5137127" lon="14.1379705"><ele>4.2</ele><time>2026-05-03T12:18:43.287Z</time></trkpt><trkpt lat="42.5136826" lon="14.1380923"><ele>4.4</ele><time>2026-05-03T12:18:44.298Z</time></trkpt><trkpt lat="42.5136346" lon="14.1382073"><ele>4.6</ele><time>2026-05-03T12:18:45.306Z</time></trkpt><trkpt lat="42.5135811" lon="14.1383341"><ele>4.8</ele><time>2026-05-03T12:18:46.306Z</time></trkpt><trkpt lat="42.51354" lon="14.1384628"><ele>5.0</ele><time>2026-05-03T12:18:47.291Z</time></trkpt><trkpt lat="42.513493" lon="14.1385934"><ele>5.0</ele><time>2026-05-03T12:18:48.296Z</time></trkpt><trkpt lat="42.513439" lon="14.13874"><ele>5.0</ele><time>2026-05-03T12:18:49.301Z</time></trkpt><trkpt lat="42.5133778" lon="14.1388853"><ele>5.0</ele><time>2026-05-03T12:18:50.302Z</time></trkpt><trkpt lat="42.5133192" lon="14.1390428"><ele>5.0</ele><time>2026-05-03T12:18:51.297Z</time></trkpt><trkpt lat="42.513266" lon="14.1392045"><ele>5.5</ele><time>2026-05-03T12:18:52.294Z</time></trkpt><trkpt lat="42.5131971" lon="14.1393684"><ele>6.0</ele><time>2026-05-03T12:18:53.289Z</time></trkpt><trkpt lat="42.5131102" lon="14.1395479"><ele>6.5</ele><time>2026-05-03T12:18:54.289Z</time></trkpt><trkpt lat="42.5130273" lon="14.1397011"><ele>7.0</ele><time>2026-05-03T12:18:55.286Z</time></trkpt><trkpt lat="42.5129795" lon="14.1398284"><ele>6.75</ele><time>2026-05-03T12:18:56.291Z</time></trkpt><trkpt lat="42.5129305" lon="14.1399564"><ele>6.5</ele><time>2026-05-03T12:18:57.298Z</time></trkpt><trkpt lat="42.5128902" lon="14.1401274"><ele>6.25</ele><time>2026-05-03T12:18:58.295Z</time></trkpt><trkpt lat="42.5128382" lon="14.1402835"><ele>6.0</ele><time>2026-05-03T12:18:59.291Z</time></trkpt><trkpt lat="42.5127715" lon="14.1404354"><ele>6.0</ele><time>2026-05-03T12:19:00.298Z</time></trkpt><trkpt lat="42.5127151" lon="14.1405676"><ele>6.0</ele><time>2026-05-03T12:19:01.293Z</time></trkpt><trkpt lat="42.5126656" lon="14.14071"><ele>6.0</ele><time>2026-05-03T12:19:02.292Z</time></trkpt><trkpt lat="42.5126123" lon="14.1408448"><ele>6.0</ele><time>2026-05-03T12:19:03.289Z</time></trkpt><trkpt lat="42.5125594" lon="14.140979"><ele>6.333333333333333</ele><time>2026-05-03T12:19:04.303Z</time></trkpt><trkpt lat="42.5125021" lon="14.1411036"><ele>6.666666666666666</ele><time>2026-05-03T12:19:05.292Z</time></trkpt><trkpt lat="42.5124551" lon="14.1412107"><ele>7.0</ele><time>2026-05-03T12:19:06.295Z</time></trkpt><trkpt lat="42.5124265" lon="14.1413186"><ele>7.333333333333333</ele><time>2026-05-03T12:19:07.297Z</time></trkpt><trkpt lat="42.5124347" lon="14.1414189"><ele>7.666666666666666</ele><time>2026-05-03T12:19:08.294Z</time></trkpt><trkpt lat="42.5124787" lon="14.141496"><ele>8.0</ele><time>2026-05-03T12:19:09.294Z</time></trkpt><trkpt lat="42.5125587" lon="14.1415413"><ele>8.0</ele><time>2026-05-03T12:19:10.293Z</time></trkpt><trkpt lat="42.5126519" lon="14.141555"><ele>8.0</ele><time>2026-05-03T12:19:11.275Z</time></trkpt><trkpt lat="42.5127398" lon="14.1415282"><ele>8.0</ele><time>2026-05-03T12:19:12.277Z</time></trkpt><trkpt lat="42.5128398" lon="14.1414919"><ele>8.0</ele><time>2026-05-03T12:19:13.275Z</time></trkpt><trkpt lat="42.5129578" lon="14.141458"><ele>8.0</ele><time>2026-05-03T12:19:14.28Z</time></trkpt><trkpt lat="42.5130711" lon="14.1414534"><ele>7.5</ele><time>2026-05-03T12:19:15.286Z</time></trkpt><trkpt lat="42.5132032" lon="14.1414556"><ele>7.0</ele><time>2026-05-03T12:19:16.281Z</time></trkpt><trkpt lat="42.5133312" lon="14.1414847"><ele>6.5</ele><time>2026-05-03T12:19:17.284Z</time></trkpt><trkpt lat="42.5134542" lon="14.141532"><ele>6.0</ele><time>2026-05-03T12:19:18.277Z</time></trkpt><trkpt lat="42.5135877" lon="14.1415951"><ele>6.0</ele><time>2026-05-03T12:19:19.284Z</time></trkpt><trkpt lat="42.5137161" lon="14.1416766"><ele>6.0</ele><time>2026-05-03T12:19:20.289Z</time></trkpt><trkpt lat="42.5138251" lon="14.1417514"><ele>6.0</ele><time>2026-05-03T12:19:21.285Z</time></trkpt><trkpt lat="42.5139302" lon="14.1418251"><ele>6.0</ele><time>2026-05-03T12:19:22.293Z</time></trkpt><trkpt lat="42.5140277" lon="14.1418973"><ele>5.3999999999999995</ele><time>2026-05-03T12:19:23.296Z</time></trkpt><trkpt lat="42.5141297" lon="14.141964"><ele>4.8</ele><time>2026-05-03T12:19:24.296Z</time></trkpt><trkpt lat="42.5142247" lon="14.1420355"><ele>4.199999999999999</ele><time>2026-05-03T12:19:25.288Z</time></trkpt><trkpt lat="42.5143098" lon="14.1421266"><ele>3.5999999999999996</ele><time>2026-05-03T12:19:26.293Z</time></trkpt><trkpt lat="42.5143591" lon="14.1422376"><ele>3.0</ele><time>2026-05-03T12:19:27.288Z</time></trkpt><trkpt lat="42.5143821" lon="14.1423477"><ele>2.8333333333333335</ele><time>2026-05-03T12:19:28.297Z</time></trkpt><trkpt lat="42.5144139" lon="14.1424424"><ele>2.6666666666666665</ele><time>2026-05-03T12:19:29.288Z</time></trkpt><trkpt lat="42.5144641" lon="14.1425067"><ele>2.5</ele><time>2026-05-03T12:19:30.3Z</time></trkpt><trkpt lat="42.5145898" lon="14.1424797"><ele>2.333333333333333</ele><time>2026-05-03T12:19:32.296Z</time></trkpt><trkpt lat="42.5146699" lon="14.1424311"><ele>2.1666666666666665</ele><time>2026-05-03T12:19:33.279Z</time></trkpt><trkpt lat="42.5147441" lon="14.142405"><ele>2.0</ele><time>2026-05-03T12:19:34.288Z</time></trkpt><trkpt lat="42.5148428" lon="14.1424355"><ele>2.0</ele><time>2026-05-03T12:19:35.295Z</time></trkpt><trkpt lat="42.5149437" lon="14.1425038"><ele>2.0</ele><time>2026-05-03T12:19:36.289Z</time></trkpt><trkpt lat="42.5150458" lon="14.1425927"><ele>2.0</ele><time>2026-05-03T12:19:37.281Z</time></trkpt><trkpt lat="42.5151505" lon="14.1426776"><ele>2.0</ele><time>2026-05-03T12:19:38.277Z</time></trkpt><trkpt lat="42.5152574" lon="14.1427573"><ele>2.0</ele><time>2026-05-03T12:19:39.282Z</time></trkpt><trkpt lat="42.5153755" lon="14.1428403"><ele>2.0</ele><time>2026-05-03T12:19:40.283Z</time></trkpt><trkpt lat="42.5154863" lon="14.1429234"><ele>2.0</ele><time>2026-05-03T12:19:41.278Z</time></trkpt><trkpt lat="42.5156036" lon="14.1430094"><ele>2.0</ele><time>2026-05-03T12:19:42.28Z</time></trkpt><trkpt lat="42.5157272" lon="14.143096"><ele>2.333333333333333</ele><time>2026-05-03T12:19:43.284Z</time></trkpt><trkpt lat="42.5158662" lon="14.1431887"><ele>2.6666666666666665</ele><time>2026-05-03T12:19:44.289Z</time></trkpt><trkpt lat="42.515992" lon="14.1432887"><ele>3.0</ele><time>2026-05-03T12:19:45.288Z</time></trkpt><trkpt lat="42.5161234" lon="14.1433836"><ele>3.25</ele><time>2026-05-03T12:19:46.285Z</time></trkpt><trkpt lat="42.5162363" lon="14.1434815"><ele>3.5</ele><time>2026-05-03T12:19:47.28Z</time></trkpt><trkpt lat="42.5163586" lon="14.1435809"><ele>3.75</ele><time>2026-05-03T12:19:48.29Z</time></trkpt><trkpt lat="42.5164975" lon="14.1436606"><ele>4.0</ele><time>2026-05-03T12:19:49.281Z</time></trkpt><trkpt lat="42.5166351" lon="14.1437538"><ele>3.75</ele><time>2026-05-03T12:19:50.288Z</time></trkpt><trkpt lat="42.5167667" lon="14.1438455"><ele>3.5</ele><time>2026-05-03T12:19:51.286Z</time></trkpt><trkpt lat="42.5169034" lon="14.143948"><ele>3.25</ele><time>2026-05-03T12:19:52.294Z</time></trkpt><trkpt lat="42.5170231" lon="14.1440411"><ele>3.0</ele><time>2026-05-03T12:19:53.29Z</time></trkpt><trkpt lat="42.517162" lon="14.1441256"><ele>3.0</ele><time>2026-05-03T12:19:54.293Z</time></trkpt><trkpt lat="42.5172848" lon="14.144223"><ele>3.0</ele><time>2026-05-03T12:19:55.289Z</time></trkpt><trkpt lat="42.517409" lon="14.1443153"><ele>3.0</ele><time>2026-05-03T12:19:56.293Z</time></trkpt><trkpt lat="42.5175327" lon="14.1444136"><ele>3.0</ele><time>2026-05-03T12:19:57.29Z</time></trkpt><trkpt lat="42.5176633" lon="14.1445145"><ele>3.0</ele><time>2026-05-03T12:19:58.301Z</time></trkpt><trkpt lat="42.517785" lon="14.1446098"><ele>3.0</ele><time>2026-05-03T12:19:59.294Z</time></trkpt><trkpt lat="42.5179087" lon="14.1446955"><ele>3.0</ele><time>2026-05-03T12:20:00.296Z</time></trkpt><trkpt lat="42.5180312" lon="14.1447874"><ele>3.0</ele><time>2026-05-03T12:20:01.294Z</time></trkpt><trkpt lat="42.5181609" lon="14.1448875"><ele>3.0</ele><time>2026-05-03T12:20:02.298Z</time></trkpt><trkpt lat="42.5182959" lon="14.1449727"><ele>3.0</ele><time>2026-05-03T12:20:03.298Z</time></trkpt><trkpt lat="42.5184247" lon="14.1450657"><ele>3.0</ele><time>2026-05-03T12:20:04.295Z</time></trkpt><trkpt lat="42.5185484" lon="14.1451654"><ele>3.0</ele><time>2026-05-03T12:20:05.295Z</time></trkpt><trkpt lat="42.518653" lon="14.1452628"><ele>3.0</ele><time>2026-05-03T12:20:06.296Z</time></trkpt><trkpt lat="42.5187741" lon="14.1453489"><ele>3.0</ele><time>2026-05-03T12:20:07.294Z</time></trkpt><trkpt lat="42.5188878" lon="14.1454264"><ele>3.0</ele><time>2026-05-03T12:20:08.294Z</time></trkpt><trkpt lat="42.5190054" lon="14.1454989"><ele>3.0</ele><time>2026-05-03T12:20:09.291Z</time></trkpt><trkpt lat="42.5191173" lon="14.1455785"><ele>3.0</ele><time>2026-05-03T12:20:10.296Z</time></trkpt><trkpt lat="42.519207" lon="14.1456418"><ele>3.0</ele><time>2026-05-03T12:20:11.289Z</time></trkpt><trkpt lat="42.5193023" lon="14.1456953"><ele>3.0</ele><time>2026-05-03T12:20:12.291Z</time></trkpt><trkpt lat="42.5193833" lon="14.1457523"><ele>3.0</ele><time>2026-05-03T12:20:13.293Z</time></trkpt><trkpt lat="42.5194447" lon="14.1458054"><ele>3.0</ele><time>2026-05-03T12:20:14.292Z</time></trkpt><trkpt lat="42.5195021" lon="14.1458568"><ele>3.0</ele><time>2026-05-03T12:20:15.284Z</time></trkpt><trkpt lat="42.5195481" lon="14.1459272"><ele>3.0</ele><time>2026-05-03T12:20:16.284Z</time></trkpt><trkpt lat="42.5196314" lon="14.1460387"><ele>3.0</ele><time>2026-05-03T12:20:18.295Z</time></trkpt><trkpt lat="42.519638" lon="14.1461318"><ele>3.0</ele><time>2026-05-03T12:20:19.297Z</time></trkpt><trkpt lat="42.5196041" lon="14.1462291"><ele>3.0</ele><time>2026-05-03T12:20:20.288Z</time></trkpt><trkpt lat="42.5195431" lon="14.1463218"><ele>3.0</ele><time>2026-05-03T12:20:21.275Z</time></trkpt><trkpt lat="42.5194665" lon="14.1464158"><ele>3.0</ele><time>2026-05-03T12:20:22.292Z</time></trkpt><trkpt lat="42.5193921" lon="14.146509"><ele>3.0</ele><time>2026-05-03T12:20:23.289Z</time></trkpt><trkpt lat="42.5193244" lon="14.1465881"><ele>3.0</ele><time>2026-05-03T12:20:24.288Z</time></trkpt><trkpt lat="42.5192613" lon="14.1466591"><ele>3.0</ele><time>2026-05-03T12:20:25.284Z</time></trkpt><trkpt lat="42.519204" lon="14.1467284"><ele>3.0</ele><time>2026-05-03T12:20:26.293Z</time></trkpt><trkpt lat="42.5191262" lon="14.1468406"><ele>3.0</ele><time>2026-05-03T12:20:28.3Z</time></trkpt><trkpt lat="42.5190898" lon="14.1469833"><ele>3.0</ele><time>2026-05-03T12:20:30.294Z</time></trkpt><trkpt lat="42.5190955" lon="14.1470729"><ele>3.0</ele><time>2026-05-03T12:20:31.293Z</time></trkpt><trkpt lat="42.5191432" lon="14.1472275"><ele>3.0</ele><time>2026-05-03T12:20:33.286Z</time></trkpt><trkpt lat="42.5192033" lon="14.1472633"><ele>3.0</ele><time>2026-05-03T12:20:34.283Z</time></trkpt><trkpt lat="42.5192783" lon="14.1472852"><ele>3.0</ele><time>2026-05-03T12:20:35.279Z</time></trkpt><trkpt lat="42.5193909" lon="14.1473187"><ele>3.0</ele><time>2026-05-03T12:20:36.266Z</time></trkpt><trkpt lat="42.5195038" lon="14.1473484"><ele>3.0</ele><time>2026-05-03T12:20:37.276Z</time></trkpt><trkpt lat="42.5196128" lon="14.1474245"><ele>3.0</ele><time>2026-05-03T12:20:38.273Z</time></trkpt><trkpt lat="42.5197009" lon="14.1475431"><ele>3.0</ele><time>2026-05-03T12:20:39.268Z</time></trkpt><trkpt lat="42.5197644" lon="14.1476769"><ele>2.25</ele><time>2026-05-03T12:20:40.266Z</time></trkpt><trkpt lat="42.5198363" lon="14.1478044"><ele>1.5</ele><time>2026-05-03T12:20:41.273Z</time></trkpt><trkpt lat="42.5199013" lon="14.1479359"><ele>0.75</ele><time>2026-05-03T12:20:42.267Z</time></trkpt><trkpt lat="42.5199712" lon="14.1480699"><ele>0.0</ele><time>2026-05-03T12:20:43.27Z</time></trkpt><trkpt lat="42.5200357" lon="14.1482071"><ele>0.5</ele><time>2026-05-03T12:20:44.272Z</time></trkpt><trkpt lat="42.5200997" lon="14.1483635"><ele>1.0</ele><time>2026-05-03T12:20:45.28Z</time></trkpt><trkpt lat="42.5201687" lon="14.1485275"><ele>1.5</ele><time>2026-05-03T12:20:46.278Z</time></trkpt><trkpt lat="42.5202259" lon="14.1487145"><ele>2.0</ele><time>2026-05-03T12:20:47.289Z</time></trkpt><trkpt lat="42.5202762" lon="14.1489037"><ele>2.0</ele><time>2026-05-03T12:20:48.285Z</time></trkpt><trkpt lat="42.5203213" lon="14.1490771"><ele>2.0</ele><time>2026-05-03T12:20:49.279Z</time></trkpt><trkpt lat="42.5203624" lon="14.1492285"><ele>2.0</ele><time>2026-05-03T12:20:50.287Z</time></trkpt><trkpt lat="42.5204052" lon="14.1493712"><ele>2.0</ele><time>2026-05-03T12:20:51.281Z</time></trkpt><trkpt lat="42.5204409" lon="14.1495126"><ele>2.0</ele><time>2026-05-03T12:20:52.273Z</time></trkpt><trkpt lat="42.5204853" lon="14.1496662"><ele>2.0</ele><time>2026-05-03T12:20:53.295Z</time></trkpt><trkpt lat="42.5205292" lon="14.149816"><ele>2.0</ele><time>2026-05-03T12:20:54.297Z</time></trkpt><trkpt lat="42.520577" lon="14.149961"><ele>2.0</ele><time>2026-05-03T12:20:55.289Z</time></trkpt><trkpt lat="42.5206236" lon="14.1500925"><ele>2.25</ele><time>2026-05-03T12:20:56.295Z</time></trkpt><trkpt lat="42.5206786" lon="14.150223"><ele>2.5</ele><time>2026-05-03T12:20:57.292Z</time></trkpt><trkpt lat="42.5207342" lon="14.1503622"><ele>2.75</ele><time>2026-05-03T12:20:58.288Z</time></trkpt><trkpt lat="42.5207886" lon="14.1505235"><ele>3.0</ele><time>2026-05-03T12:20:59.288Z</time></trkpt><trkpt lat="42.5208345" lon="14.1506752"><ele>2.75</ele><time>2026-05-03T12:21:00.285Z</time></trkpt><trkpt lat="42.5208779" lon="14.1508323"><ele>2.5</ele><time>2026-05-03T12:21:01.284Z</time></trkpt><trkpt lat="42.5209215" lon="14.1509807"><ele>2.25</ele><time>2026-05-03T12:21:02.284Z</time></trkpt><trkpt lat="42.5209711" lon="14.1511354"><ele>2.0</ele><time>2026-05-03T12:21:03.288Z</time></trkpt><trkpt lat="42.5210166" lon="14.1512747"><ele>2.0</ele><time>2026-05-03T12:21:04.289Z</time></trkpt><trkpt lat="42.5210676" lon="14.1514039"><ele>2.0</ele><time>2026-05-03T12:21:05.291Z</time></trkpt><trkpt lat="42.5211185" lon="14.1515291"><ele>2.0</ele><time>2026-05-03T12:21:06.292Z</time></trkpt><trkpt lat="42.5211582" lon="14.1516466"><ele>2.0</ele><time>2026-05-03T12:21:07.291Z</time></trkpt><trkpt lat="42.5212001" lon="14.151755"><ele>2.0</ele><time>2026-05-03T12:21:08.297Z</time></trkpt><trkpt lat="42.5212369" lon="14.1518625"><ele>1.6666666666666665</ele><time>2026-05-03T12:21:09.294Z</time></trkpt><trkpt lat="42.5212796" lon="14.1519766"><ele>1.3333333333333333</ele><time>2026-05-03T12:21:10.293Z</time></trkpt><trkpt lat="42.521323" lon="14.1520764"><ele>1.0</ele><time>2026-05-03T12:21:11.293Z</time></trkpt><trkpt lat="42.5213559" lon="14.1521732"><ele>0.6666666666666666</ele><time>2026-05-03T12:21:12.294Z</time></trkpt><trkpt lat="42.5213876" lon="14.1522714"><ele>0.3333333333333333</ele><time>2026-05-03T12:21:13.291Z</time></trkpt><trkpt lat="42.5214162" lon="14.1523647"><ele>0.0</ele><time>2026-05-03T12:21:14.291Z</time></trkpt><trkpt lat="42.5214479" lon="14.1524698"><ele>-0.2</ele><time>2026-05-03T12:21:15.295Z</time></trkpt><trkpt lat="42.5214855" lon="14.1525844"><ele>-0.4</ele><time>2026-05-03T12:21:16.286Z</time></trkpt><trkpt lat="42.5215247" lon="14.1526846"><ele>-0.6000000000000001</ele><time>2026-05-03T12:21:17.289Z</time></trkpt><trkpt lat="42.5215697" lon="14.1527973"><ele>-0.8</ele><time>2026-05-03T12:21:18.289Z</time></trkpt><trkpt lat="42.521612" lon="14.1529032"><ele>-1.0</ele><time>2026-05-03T12:21:19.295Z</time></trkpt><trkpt lat="42.5216425" lon="14.153021"><ele>-0.9999999999999999</ele><time>2026-05-03T12:21:20.285Z</time></trkpt><trkpt lat="42.5216766" lon="14.1531317"><ele>-1.0</ele><time>2026-05-03T12:21:21.292Z</time></trkpt><trkpt lat="42.5217075" lon="14.1532304"><ele>-1.0</ele><time>2026-05-03T12:21:22.286Z</time></trkpt><trkpt lat="42.5217475" lon="14.1533243"><ele>-1.0</ele><time>2026-05-03T12:21:23.285Z</time></trkpt><trkpt lat="42.5217767" lon="14.1534193"><ele>-0.9999999999999999</ele><time>2026-05-03T12:21:24.285Z</time></trkpt><trkpt lat="42.5218173" lon="14.1535136"><ele>-1.0</ele><time>2026-05-03T12:21:25.287Z</time></trkpt><trkpt lat="42.5218476" lon="14.1536078"><ele>-0.8</ele><time>2026-05-03T12:21:26.283Z</time></trkpt><trkpt lat="42.5218764" lon="14.153685"><ele>-0.6000000000000001</ele><time>2026-05-03T12:21:27.291Z</time></trkpt><trkpt lat="42.5219789" lon="14.1536901"><ele>-0.4</ele><time>2026-05-03T12:21:29.292Z</time></trkpt><trkpt lat="42.5220374" lon="14.1536234"><ele>-0.2</ele><time>2026-05-03T12:21:30.275Z</time></trkpt><trkpt lat="42.522131" lon="14.1535164"><ele>0.0</ele><time>2026-05-03T12:21:32.276Z</time></trkpt><trkpt lat="42.5222247" lon="14.153429"><ele>0.3333333333333333</ele><time>2026-05-03T12:21:34.276Z</time></trkpt><trkpt lat="42.5222956" lon="14.1533606"><ele>0.6666666666666666</ele><time>2026-05-03T12:21:36.277Z</time></trkpt><trkpt lat="42.5223056" lon="14.1532609"><ele>1.0</ele><time>2026-05-03T12:21:38.286Z</time></trkpt><trkpt lat="42.5222558" lon="14.1531869"><ele>1.3333333333333333</ele><time>2026-05-03T12:21:40.278Z</time></trkpt><trkpt lat="42.5221849" lon="14.1530857"><ele>1.6666666666666665</ele><time>2026-05-03T12:21:42.281Z</time></trkpt><trkpt lat="42.5221307" lon="14.152968"><ele>2.0</ele><time>2026-05-03T12:21:44.284Z</time></trkpt><trkpt lat="42.5220887" lon="14.1528491"><ele>1.7142857142857142</ele><time>2026-05-03T12:21:46.285Z</time></trkpt><trkpt lat="42.5220573" lon="14.1527587"><ele>1.4285714285714284</ele><time>2026-05-03T12:21:48.288Z</time></trkpt><trkpt lat="42.5220116" lon="14.1526819"><ele>1.1428571428571428</ele><time>2026-05-03T12:21:51.279Z</time></trkpt><trkpt lat="42.5219694" lon="14.1526184"><ele>0.8571428571428571</ele><time>2026-05-03T12:21:55.284Z</time></trkpt><trkpt lat="42.5219361" lon="14.1525289"><ele>0.5714285714285714</ele><time>2026-05-03T12:21:58.283Z</time></trkpt><trkpt lat="42.5218729" lon="14.1524435"><ele>0.2857142857142857</ele><time>2026-05-03T12:22:01.287Z</time></trkpt><trkpt lat="42.5218398" lon="14.152358"><ele>0.0</ele><time>2026-05-03T12:22:04.28Z</time></trkpt><trkpt lat="42.5218767" lon="14.1522709"><ele>0.0</ele><time>2026-05-03T12:22:07.29Z</time></trkpt><trkpt lat="42.5219492" lon="14.1522288"><ele>0.0</ele><time>2026-05-03T12:22:10.282Z</time></trkpt><trkpt lat="42.5220154" lon="14.1522326"><ele>0.0</ele><time>2026-05-03T12:22:13.288Z</time></trkpt><trkpt lat="42.5220529" lon="14.1523093"><ele>0.0</ele><time>2026-05-03T12:22:16.285Z</time></trkpt><trkpt lat="42.5221057" lon="14.1523859"><ele>2.0</ele><time>2026-05-03T12:22:20.289Z</time></trkpt><trkpt lat="42.52212" lon="14.1524783"><ele>2.0</ele><time>2026-05-03T12:22:24.285Z</time></trkpt></trkseg></trk></gpx>